<?xml version="1.0" encoding="UTF-8" standalone="no" ?>
<gpx xmlns="http://www.topografix.com/GPX/1/1" xmlns:xsi="http://www.w3.org/2001/XMLSchema-instance" xsi:schemaLocation="http://www.topografix.com/GPX/1/1 http://www.topografix.com/GPX/1/1/gpx.xsd" version="1.1" creator="VisuGPX - https://www.visugpx.com">
  <metadata>
    <name>Randonnée à Montaut le 19/02/2012</name>
    <desc><![CDATA[Un tracé sans de grosses difficultés, mais à éviter les jours de pluies et plus largement l\'hiver... ]]></desc>
  </metadata>
  <trk>
    <name><![CDATA[Randonnée à Montaut le 19/02/2012_1]]></name>
    <trkseg>
      <trkpt lat="44.60556" lon="0.67462">
        <ele>147</ele>
        <time>2012-02-19T07:34:30Z</time>
      </trkpt>
      <trkpt lat="44.60582" lon="0.67472">
        <ele>145</ele>
        <time>2012-02-19T07:40:40Z</time>
      </trkpt>
      <trkpt lat="44.60585" lon="0.67471">
        <ele>145</ele>
        <time>2012-02-19T07:40:41Z</time>
      </trkpt>
      <trkpt lat="44.60588" lon="0.67471">
        <ele>145</ele>
        <time>2012-02-19T07:40:42Z</time>
      </trkpt>
      <trkpt lat="44.60592" lon="0.6747">
        <ele>145</ele>
        <time>2012-02-19T07:40:43Z</time>
      </trkpt>
      <trkpt lat="44.60595" lon="0.67469">
        <ele>145</ele>
        <time>2012-02-19T07:40:44Z</time>
      </trkpt>
      <trkpt lat="44.60599" lon="0.67469">
        <ele>145</ele>
        <time>2012-02-19T07:40:45Z</time>
      </trkpt>
      <trkpt lat="44.60603" lon="0.67469">
        <ele>145</ele>
        <time>2012-02-19T07:40:46Z</time>
      </trkpt>
      <trkpt lat="44.60606" lon="0.67469">
        <ele>145</ele>
        <time>2012-02-19T07:40:47Z</time>
      </trkpt>
      <trkpt lat="44.6061" lon="0.67469">
        <ele>145</ele>
        <time>2012-02-19T07:40:48Z</time>
      </trkpt>
      <trkpt lat="44.60613" lon="0.67469">
        <ele>145</ele>
        <time>2012-02-19T07:40:49Z</time>
      </trkpt>
      <trkpt lat="44.60617" lon="0.6747">
        <ele>145</ele>
        <time>2012-02-19T07:40:50Z</time>
      </trkpt>
      <trkpt lat="44.6062" lon="0.6747">
        <ele>145</ele>
        <time>2012-02-19T07:40:51Z</time>
      </trkpt>
      <trkpt lat="44.60624" lon="0.6747">
        <ele>145</ele>
        <time>2012-02-19T07:40:52Z</time>
      </trkpt>
      <trkpt lat="44.60627" lon="0.6747">
        <ele>145</ele>
        <time>2012-02-19T07:40:53Z</time>
      </trkpt>
      <trkpt lat="44.60631" lon="0.6747">
        <ele>145</ele>
        <time>2012-02-19T07:40:54Z</time>
      </trkpt>
      <trkpt lat="44.60634" lon="0.6747">
        <ele>145</ele>
        <time>2012-02-19T07:40:55Z</time>
      </trkpt>
      <trkpt lat="44.60638" lon="0.6747">
        <ele>145</ele>
        <time>2012-02-19T07:40:56Z</time>
      </trkpt>
      <trkpt lat="44.60641" lon="0.6747">
        <ele>145</ele>
        <time>2012-02-19T07:40:57Z</time>
      </trkpt>
      <trkpt lat="44.60645" lon="0.67469">
        <ele>145</ele>
        <time>2012-02-19T07:40:58Z</time>
      </trkpt>
      <trkpt lat="44.60648" lon="0.67469">
        <ele>145</ele>
        <time>2012-02-19T07:40:59Z</time>
      </trkpt>
      <trkpt lat="44.60651" lon="0.67469">
        <ele>145</ele>
        <time>2012-02-19T07:41:00Z</time>
      </trkpt>
      <trkpt lat="44.60654" lon="0.67468">
        <ele>145</ele>
        <time>2012-02-19T07:41:01Z</time>
      </trkpt>
      <trkpt lat="44.60658" lon="0.67468">
        <ele>145</ele>
        <time>2012-02-19T07:41:02Z</time>
      </trkpt>
      <trkpt lat="44.60661" lon="0.67468">
        <ele>145</ele>
        <time>2012-02-19T07:41:03Z</time>
      </trkpt>
      <trkpt lat="44.60664" lon="0.67468">
        <ele>145</ele>
        <time>2012-02-19T07:41:04Z</time>
      </trkpt>
      <trkpt lat="44.60667" lon="0.67467">
        <ele>145</ele>
        <time>2012-02-19T07:41:05Z</time>
      </trkpt>
      <trkpt lat="44.6067" lon="0.67467">
        <ele>145</ele>
        <time>2012-02-19T07:41:06Z</time>
      </trkpt>
      <trkpt lat="44.60673" lon="0.67467">
        <ele>145</ele>
        <time>2012-02-19T07:41:07Z</time>
      </trkpt>
      <trkpt lat="44.60677" lon="0.67466">
        <ele>145</ele>
        <time>2012-02-19T07:41:08Z</time>
      </trkpt>
      <trkpt lat="44.6068" lon="0.67466">
        <ele>145</ele>
        <time>2012-02-19T07:41:09Z</time>
      </trkpt>
      <trkpt lat="44.60684" lon="0.67466">
        <ele>145</ele>
        <time>2012-02-19T07:41:10Z</time>
      </trkpt>
      <trkpt lat="44.60687" lon="0.67466">
        <ele>145</ele>
        <time>2012-02-19T07:41:11Z</time>
      </trkpt>
      <trkpt lat="44.6069" lon="0.67466">
        <ele>145</ele>
        <time>2012-02-19T07:41:12Z</time>
      </trkpt>
      <trkpt lat="44.60694" lon="0.67466">
        <ele>145</ele>
        <time>2012-02-19T07:41:13Z</time>
      </trkpt>
      <trkpt lat="44.60697" lon="0.67466">
        <ele>145</ele>
        <time>2012-02-19T07:41:14Z</time>
      </trkpt>
      <trkpt lat="44.607" lon="0.67466">
        <ele>145</ele>
        <time>2012-02-19T07:41:15Z</time>
      </trkpt>
      <trkpt lat="44.60703" lon="0.67466">
        <ele>145</ele>
        <time>2012-02-19T07:41:16Z</time>
      </trkpt>
      <trkpt lat="44.60706" lon="0.67465">
        <ele>145</ele>
        <time>2012-02-19T07:41:17Z</time>
      </trkpt>
      <trkpt lat="44.60709" lon="0.67465">
        <ele>145</ele>
        <time>2012-02-19T07:41:18Z</time>
      </trkpt>
      <trkpt lat="44.60712" lon="0.67466">
        <ele>145</ele>
        <time>2012-02-19T07:41:19Z</time>
      </trkpt>
      <trkpt lat="44.60714" lon="0.67467">
        <ele>145</ele>
        <time>2012-02-19T07:41:20Z</time>
      </trkpt>
      <trkpt lat="44.60717" lon="0.67468">
        <ele>145</ele>
        <time>2012-02-19T07:41:21Z</time>
      </trkpt>
      <trkpt lat="44.6072" lon="0.6747">
        <ele>145</ele>
        <time>2012-02-19T07:41:22Z</time>
      </trkpt>
      <trkpt lat="44.60722" lon="0.67471">
        <ele>145</ele>
        <time>2012-02-19T07:41:23Z</time>
      </trkpt>
      <trkpt lat="44.60725" lon="0.67471">
        <ele>145</ele>
        <time>2012-02-19T07:41:24Z</time>
      </trkpt>
      <trkpt lat="44.60728" lon="0.6747">
        <ele>145</ele>
        <time>2012-02-19T07:41:25Z</time>
      </trkpt>
      <trkpt lat="44.60731" lon="0.67468">
        <ele>145</ele>
        <time>2012-02-19T07:41:26Z</time>
      </trkpt>
      <trkpt lat="44.60733" lon="0.67468">
        <ele>145</ele>
        <time>2012-02-19T07:41:27Z</time>
      </trkpt>
      <trkpt lat="44.60735" lon="0.67469">
        <ele>145</ele>
        <time>2012-02-19T07:41:28Z</time>
      </trkpt>
      <trkpt lat="44.60735" lon="0.67471">
        <ele>145</ele>
        <time>2012-02-19T07:41:29Z</time>
      </trkpt>
      <trkpt lat="44.60734" lon="0.67473">
        <ele>145</ele>
        <time>2012-02-19T07:41:30Z</time>
      </trkpt>
      <trkpt lat="44.60733" lon="0.67474">
        <ele>145</ele>
        <time>2012-02-19T07:41:31Z</time>
      </trkpt>
      <trkpt lat="44.60731" lon="0.67474">
        <ele>145</ele>
        <time>2012-02-19T07:41:32Z</time>
      </trkpt>
      <trkpt lat="44.6073" lon="0.67473">
        <ele>145</ele>
        <time>2012-02-19T07:41:33Z</time>
      </trkpt>
      <trkpt lat="44.60728" lon="0.67471">
        <ele>145</ele>
        <time>2012-02-19T07:41:34Z</time>
      </trkpt>
      <trkpt lat="44.60726" lon="0.6747">
        <ele>145</ele>
        <time>2012-02-19T07:41:35Z</time>
      </trkpt>
      <trkpt lat="44.60724" lon="0.67469">
        <ele>145</ele>
        <time>2012-02-19T07:41:36Z</time>
      </trkpt>
      <trkpt lat="44.60722" lon="0.67467">
        <ele>145</ele>
        <time>2012-02-19T07:41:37Z</time>
      </trkpt>
      <trkpt lat="44.6072" lon="0.67464">
        <ele>145</ele>
        <time>2012-02-19T07:41:38Z</time>
      </trkpt>
      <trkpt lat="44.60718" lon="0.67462">
        <ele>145</ele>
        <time>2012-02-19T07:41:39Z</time>
      </trkpt>
      <trkpt lat="44.60717" lon="0.67459">
        <ele>145</ele>
        <time>2012-02-19T07:41:40Z</time>
      </trkpt>
      <trkpt lat="44.60715" lon="0.67455">
        <ele>145</ele>
        <time>2012-02-19T07:41:41Z</time>
      </trkpt>
      <trkpt lat="44.60714" lon="0.67451">
        <ele>145</ele>
        <time>2012-02-19T07:41:42Z</time>
      </trkpt>
      <trkpt lat="44.60712" lon="0.67447">
        <ele>145</ele>
        <time>2012-02-19T07:41:43Z</time>
      </trkpt>
      <trkpt lat="44.6071" lon="0.67441">
        <ele>145</ele>
        <time>2012-02-19T07:41:44Z</time>
      </trkpt>
      <trkpt lat="44.60708" lon="0.67437">
        <ele>145</ele>
        <time>2012-02-19T07:41:45Z</time>
      </trkpt>
      <trkpt lat="44.60706" lon="0.67432">
        <ele>145</ele>
        <time>2012-02-19T07:41:46Z</time>
      </trkpt>
      <trkpt lat="44.60704" lon="0.67427">
        <ele>145</ele>
        <time>2012-02-19T07:41:47Z</time>
      </trkpt>
      <trkpt lat="44.60703" lon="0.67423">
        <ele>145</ele>
        <time>2012-02-19T07:41:48Z</time>
      </trkpt>
      <trkpt lat="44.60701" lon="0.67419">
        <ele>144</ele>
        <time>2012-02-19T07:41:49Z</time>
      </trkpt>
      <trkpt lat="44.607" lon="0.67415">
        <ele>144</ele>
        <time>2012-02-19T07:41:50Z</time>
      </trkpt>
      <trkpt lat="44.60698" lon="0.67411">
        <ele>143</ele>
        <time>2012-02-19T07:41:51Z</time>
      </trkpt>
      <trkpt lat="44.60696" lon="0.67406">
        <ele>142</ele>
        <time>2012-02-19T07:41:52Z</time>
      </trkpt>
      <trkpt lat="44.60694" lon="0.67401">
        <ele>142</ele>
        <time>2012-02-19T07:41:53Z</time>
      </trkpt>
      <trkpt lat="44.60692" lon="0.67396">
        <ele>141</ele>
        <time>2012-02-19T07:41:54Z</time>
      </trkpt>
      <trkpt lat="44.60691" lon="0.67392">
        <ele>140</ele>
        <time>2012-02-19T07:41:55Z</time>
      </trkpt>
      <trkpt lat="44.60689" lon="0.67387">
        <ele>140</ele>
        <time>2012-02-19T07:41:56Z</time>
      </trkpt>
      <trkpt lat="44.60687" lon="0.67382">
        <ele>140</ele>
        <time>2012-02-19T07:41:57Z</time>
      </trkpt>
      <trkpt lat="44.60685" lon="0.67377">
        <ele>139</ele>
        <time>2012-02-19T07:41:58Z</time>
      </trkpt>
      <trkpt lat="44.60683" lon="0.67372">
        <ele>139</ele>
        <time>2012-02-19T07:41:59Z</time>
      </trkpt>
      <trkpt lat="44.60682" lon="0.67367">
        <ele>139</ele>
        <time>2012-02-19T07:42:00Z</time>
      </trkpt>
      <trkpt lat="44.6068" lon="0.67361">
        <ele>138</ele>
        <time>2012-02-19T07:42:01Z</time>
      </trkpt>
      <trkpt lat="44.60678" lon="0.67355">
        <ele>138</ele>
        <time>2012-02-19T07:42:02Z</time>
      </trkpt>
      <trkpt lat="44.60676" lon="0.6735">
        <ele>138</ele>
        <time>2012-02-19T07:42:03Z</time>
      </trkpt>
      <trkpt lat="44.60673" lon="0.67344">
        <ele>137</ele>
        <time>2012-02-19T07:42:04Z</time>
      </trkpt>
      <trkpt lat="44.60671" lon="0.67339">
        <ele>137</ele>
        <time>2012-02-19T07:42:05Z</time>
      </trkpt>
      <trkpt lat="44.60669" lon="0.67334">
        <ele>137</ele>
        <time>2012-02-19T07:42:06Z</time>
      </trkpt>
      <trkpt lat="44.60666" lon="0.6733">
        <ele>137</ele>
        <time>2012-02-19T07:42:07Z</time>
      </trkpt>
      <trkpt lat="44.60663" lon="0.67326">
        <ele>137</ele>
        <time>2012-02-19T07:42:08Z</time>
      </trkpt>
      <trkpt lat="44.6066" lon="0.67323">
        <ele>137</ele>
        <time>2012-02-19T07:42:09Z</time>
      </trkpt>
      <trkpt lat="44.60657" lon="0.6732">
        <ele>137</ele>
        <time>2012-02-19T07:42:10Z</time>
      </trkpt>
      <trkpt lat="44.60653" lon="0.67317">
        <ele>137</ele>
        <time>2012-02-19T07:42:11Z</time>
      </trkpt>
      <trkpt lat="44.60649" lon="0.67314">
        <ele>137</ele>
        <time>2012-02-19T07:42:12Z</time>
      </trkpt>
      <trkpt lat="44.60646" lon="0.67312">
        <ele>137</ele>
        <time>2012-02-19T07:42:13Z</time>
      </trkpt>
      <trkpt lat="44.60641" lon="0.67308">
        <ele>137</ele>
        <time>2012-02-19T07:42:14Z</time>
      </trkpt>
      <trkpt lat="44.60638" lon="0.67305">
        <ele>137</ele>
        <time>2012-02-19T07:42:15Z</time>
      </trkpt>
      <trkpt lat="44.60633" lon="0.67302">
        <ele>137</ele>
        <time>2012-02-19T07:42:16Z</time>
      </trkpt>
      <trkpt lat="44.60629" lon="0.67298">
        <ele>137</ele>
        <time>2012-02-19T07:42:17Z</time>
      </trkpt>
      <trkpt lat="44.60625" lon="0.67295">
        <ele>137</ele>
        <time>2012-02-19T07:42:18Z</time>
      </trkpt>
      <trkpt lat="44.6062" lon="0.67291">
        <ele>136</ele>
        <time>2012-02-19T07:42:19Z</time>
      </trkpt>
      <trkpt lat="44.60616" lon="0.67287">
        <ele>136</ele>
        <time>2012-02-19T07:42:20Z</time>
      </trkpt>
      <trkpt lat="44.60612" lon="0.67283">
        <ele>136</ele>
        <time>2012-02-19T07:42:21Z</time>
      </trkpt>
      <trkpt lat="44.60609" lon="0.67278">
        <ele>135</ele>
        <time>2012-02-19T07:42:22Z</time>
      </trkpt>
      <trkpt lat="44.60607" lon="0.67273">
        <ele>135</ele>
        <time>2012-02-19T07:42:23Z</time>
      </trkpt>
      <trkpt lat="44.60604" lon="0.6727">
        <ele>135</ele>
        <time>2012-02-19T07:42:24Z</time>
      </trkpt>
      <trkpt lat="44.60602" lon="0.67265">
        <ele>135</ele>
        <time>2012-02-19T07:42:25Z</time>
      </trkpt>
      <trkpt lat="44.606" lon="0.67261">
        <ele>135</ele>
        <time>2012-02-19T07:42:26Z</time>
      </trkpt>
      <trkpt lat="44.60598" lon="0.67256">
        <ele>135</ele>
        <time>2012-02-19T07:42:27Z</time>
      </trkpt>
      <trkpt lat="44.60596" lon="0.67252">
        <ele>135</ele>
        <time>2012-02-19T07:42:28Z</time>
      </trkpt>
      <trkpt lat="44.60595" lon="0.67247">
        <ele>135</ele>
        <time>2012-02-19T07:42:29Z</time>
      </trkpt>
      <trkpt lat="44.60593" lon="0.67242">
        <ele>135</ele>
        <time>2012-02-19T07:42:30Z</time>
      </trkpt>
      <trkpt lat="44.60593" lon="0.67238">
        <ele>135</ele>
        <time>2012-02-19T07:42:31Z</time>
      </trkpt>
      <trkpt lat="44.60592" lon="0.67234">
        <ele>135</ele>
        <time>2012-02-19T07:42:32Z</time>
      </trkpt>
      <trkpt lat="44.6059" lon="0.67229">
        <ele>135</ele>
        <time>2012-02-19T07:42:33Z</time>
      </trkpt>
      <trkpt lat="44.60588" lon="0.67224">
        <ele>135</ele>
        <time>2012-02-19T07:42:34Z</time>
      </trkpt>
      <trkpt lat="44.60587" lon="0.6722">
        <ele>135</ele>
        <time>2012-02-19T07:42:35Z</time>
      </trkpt>
      <trkpt lat="44.60586" lon="0.67216">
        <ele>135</ele>
        <time>2012-02-19T07:42:36Z</time>
      </trkpt>
      <trkpt lat="44.60585" lon="0.67212">
        <ele>135</ele>
        <time>2012-02-19T07:42:37Z</time>
      </trkpt>
      <trkpt lat="44.60584" lon="0.67208">
        <ele>135</ele>
        <time>2012-02-19T07:42:38Z</time>
      </trkpt>
      <trkpt lat="44.60583" lon="0.67204">
        <ele>135</ele>
        <time>2012-02-19T07:42:39Z</time>
      </trkpt>
      <trkpt lat="44.60582" lon="0.67201">
        <ele>135</ele>
        <time>2012-02-19T07:42:40Z</time>
      </trkpt>
      <trkpt lat="44.60582" lon="0.67198">
        <ele>135</ele>
        <time>2012-02-19T07:42:41Z</time>
      </trkpt>
      <trkpt lat="44.6058" lon="0.67194">
        <ele>135</ele>
        <time>2012-02-19T07:42:42Z</time>
      </trkpt>
      <trkpt lat="44.60579" lon="0.6719">
        <ele>135</ele>
        <time>2012-02-19T07:42:43Z</time>
      </trkpt>
      <trkpt lat="44.60577" lon="0.67185">
        <ele>135</ele>
        <time>2012-02-19T07:42:44Z</time>
      </trkpt>
      <trkpt lat="44.60576" lon="0.67182">
        <ele>135</ele>
        <time>2012-02-19T07:42:45Z</time>
      </trkpt>
      <trkpt lat="44.60574" lon="0.67178">
        <ele>135</ele>
        <time>2012-02-19T07:42:46Z</time>
      </trkpt>
      <trkpt lat="44.60573" lon="0.67175">
        <ele>134</ele>
        <time>2012-02-19T07:42:47Z</time>
      </trkpt>
      <trkpt lat="44.60571" lon="0.6717">
        <ele>133</ele>
        <time>2012-02-19T07:42:48Z</time>
      </trkpt>
      <trkpt lat="44.60569" lon="0.67164">
        <ele>132</ele>
        <time>2012-02-19T07:42:49Z</time>
      </trkpt>
      <trkpt lat="44.60566" lon="0.67159">
        <ele>131</ele>
        <time>2012-02-19T07:42:50Z</time>
      </trkpt>
      <trkpt lat="44.60564" lon="0.67155">
        <ele>131</ele>
        <time>2012-02-19T07:42:51Z</time>
      </trkpt>
      <trkpt lat="44.60561" lon="0.6715">
        <ele>130</ele>
        <time>2012-02-19T07:42:52Z</time>
      </trkpt>
      <trkpt lat="44.60559" lon="0.67145">
        <ele>129</ele>
        <time>2012-02-19T07:42:53Z</time>
      </trkpt>
      <trkpt lat="44.60557" lon="0.67139">
        <ele>128</ele>
        <time>2012-02-19T07:42:54Z</time>
      </trkpt>
      <trkpt lat="44.60555" lon="0.67133">
        <ele>127</ele>
        <time>2012-02-19T07:42:55Z</time>
      </trkpt>
      <trkpt lat="44.60552" lon="0.67127">
        <ele>126</ele>
        <time>2012-02-19T07:42:56Z</time>
      </trkpt>
      <trkpt lat="44.6055" lon="0.6712">
        <ele>126</ele>
        <time>2012-02-19T07:42:57Z</time>
      </trkpt>
      <trkpt lat="44.60547" lon="0.67114">
        <ele>125</ele>
        <time>2012-02-19T07:42:58Z</time>
      </trkpt>
      <trkpt lat="44.60545" lon="0.67108">
        <ele>124</ele>
        <time>2012-02-19T07:42:59Z</time>
      </trkpt>
      <trkpt lat="44.60543" lon="0.67102">
        <ele>124</ele>
        <time>2012-02-19T07:43:00Z</time>
      </trkpt>
      <trkpt lat="44.6054" lon="0.67095">
        <ele>123</ele>
        <time>2012-02-19T07:43:01Z</time>
      </trkpt>
      <trkpt lat="44.60538" lon="0.67089">
        <ele>123</ele>
        <time>2012-02-19T07:43:02Z</time>
      </trkpt>
      <trkpt lat="44.60534" lon="0.67081">
        <ele>122</ele>
        <time>2012-02-19T07:43:03Z</time>
      </trkpt>
      <trkpt lat="44.60531" lon="0.67074">
        <ele>122</ele>
        <time>2012-02-19T07:43:04Z</time>
      </trkpt>
      <trkpt lat="44.60527" lon="0.67067">
        <ele>122</ele>
        <time>2012-02-19T07:43:05Z</time>
      </trkpt>
      <trkpt lat="44.60524" lon="0.67061">
        <ele>122</ele>
        <time>2012-02-19T07:43:06Z</time>
      </trkpt>
      <trkpt lat="44.60521" lon="0.67054">
        <ele>122</ele>
        <time>2012-02-19T07:43:07Z</time>
      </trkpt>
      <trkpt lat="44.60518" lon="0.67048">
        <ele>122</ele>
        <time>2012-02-19T07:43:08Z</time>
      </trkpt>
      <trkpt lat="44.60515" lon="0.67042">
        <ele>122</ele>
        <time>2012-02-19T07:43:09Z</time>
      </trkpt>
      <trkpt lat="44.60512" lon="0.67037">
        <ele>122</ele>
        <time>2012-02-19T07:43:10Z</time>
      </trkpt>
      <trkpt lat="44.60508" lon="0.67031">
        <ele>122</ele>
        <time>2012-02-19T07:43:11Z</time>
      </trkpt>
      <trkpt lat="44.60505" lon="0.67027">
        <ele>122</ele>
        <time>2012-02-19T07:43:12Z</time>
      </trkpt>
      <trkpt lat="44.60502" lon="0.67023">
        <ele>122</ele>
        <time>2012-02-19T07:43:13Z</time>
      </trkpt>
      <trkpt lat="44.60499" lon="0.67019">
        <ele>122</ele>
        <time>2012-02-19T07:43:14Z</time>
      </trkpt>
      <trkpt lat="44.60498" lon="0.67014">
        <ele>122</ele>
        <time>2012-02-19T07:43:15Z</time>
      </trkpt>
      <trkpt lat="44.60496" lon="0.6701">
        <ele>122</ele>
        <time>2012-02-19T07:43:16Z</time>
      </trkpt>
      <trkpt lat="44.60496" lon="0.67007">
        <ele>122</ele>
        <time>2012-02-19T07:43:17Z</time>
      </trkpt>
      <trkpt lat="44.60497" lon="0.67003">
        <ele>122</ele>
        <time>2012-02-19T07:43:18Z</time>
      </trkpt>
      <trkpt lat="44.60499" lon="0.67">
        <ele>122</ele>
        <time>2012-02-19T07:43:19Z</time>
      </trkpt>
      <trkpt lat="44.60501" lon="0.66997">
        <ele>122</ele>
        <time>2012-02-19T07:43:20Z</time>
      </trkpt>
      <trkpt lat="44.60504" lon="0.66993">
        <ele>122</ele>
        <time>2012-02-19T07:43:21Z</time>
      </trkpt>
      <trkpt lat="44.60506" lon="0.66991">
        <ele>123</ele>
        <time>2012-02-19T07:43:22Z</time>
      </trkpt>
      <trkpt lat="44.6051" lon="0.66989">
        <ele>123</ele>
        <time>2012-02-19T07:43:23Z</time>
      </trkpt>
      <trkpt lat="44.60513" lon="0.66988">
        <ele>123</ele>
        <time>2012-02-19T07:43:24Z</time>
      </trkpt>
      <trkpt lat="44.60516" lon="0.66988">
        <ele>123</ele>
        <time>2012-02-19T07:43:25Z</time>
      </trkpt>
      <trkpt lat="44.60519" lon="0.66988">
        <ele>123</ele>
        <time>2012-02-19T07:43:26Z</time>
      </trkpt>
      <trkpt lat="44.60522" lon="0.66989">
        <ele>123</ele>
        <time>2012-02-19T07:43:27Z</time>
      </trkpt>
      <trkpt lat="44.60525" lon="0.6699">
        <ele>123</ele>
        <time>2012-02-19T07:43:28Z</time>
      </trkpt>
      <trkpt lat="44.60529" lon="0.66991">
        <ele>123</ele>
        <time>2012-02-19T07:43:29Z</time>
      </trkpt>
      <trkpt lat="44.60532" lon="0.66992">
        <ele>123</ele>
        <time>2012-02-19T07:43:30Z</time>
      </trkpt>
      <trkpt lat="44.60537" lon="0.66992">
        <ele>123</ele>
        <time>2012-02-19T07:43:31Z</time>
      </trkpt>
      <trkpt lat="44.60541" lon="0.66992">
        <ele>123</ele>
        <time>2012-02-19T07:43:32Z</time>
      </trkpt>
      <trkpt lat="44.60546" lon="0.66993">
        <ele>123</ele>
        <time>2012-02-19T07:43:33Z</time>
      </trkpt>
      <trkpt lat="44.60552" lon="0.66993">
        <ele>123</ele>
        <time>2012-02-19T07:43:34Z</time>
      </trkpt>
      <trkpt lat="44.60558" lon="0.66993">
        <ele>122</ele>
        <time>2012-02-19T07:43:35Z</time>
      </trkpt>
      <trkpt lat="44.60564" lon="0.66994">
        <ele>121</ele>
        <time>2012-02-19T07:43:36Z</time>
      </trkpt>
      <trkpt lat="44.6057" lon="0.66994">
        <ele>120</ele>
        <time>2012-02-19T07:43:37Z</time>
      </trkpt>
      <trkpt lat="44.60575" lon="0.66994">
        <ele>119</ele>
        <time>2012-02-19T07:43:38Z</time>
      </trkpt>
      <trkpt lat="44.60581" lon="0.66995">
        <ele>119</ele>
        <time>2012-02-19T07:43:39Z</time>
      </trkpt>
      <trkpt lat="44.60586" lon="0.66997">
        <ele>118</ele>
        <time>2012-02-19T07:43:40Z</time>
      </trkpt>
      <trkpt lat="44.6059" lon="0.66999">
        <ele>118</ele>
        <time>2012-02-19T07:43:41Z</time>
      </trkpt>
      <trkpt lat="44.60594" lon="0.67001">
        <ele>118</ele>
        <time>2012-02-19T07:43:42Z</time>
      </trkpt>
      <trkpt lat="44.60598" lon="0.67004">
        <ele>118</ele>
        <time>2012-02-19T07:43:43Z</time>
      </trkpt>
      <trkpt lat="44.60601" lon="0.67006">
        <ele>118</ele>
        <time>2012-02-19T07:43:44Z</time>
      </trkpt>
      <trkpt lat="44.60605" lon="0.67008">
        <ele>118</ele>
        <time>2012-02-19T07:43:45Z</time>
      </trkpt>
      <trkpt lat="44.60608" lon="0.6701">
        <ele>118</ele>
        <time>2012-02-19T07:43:46Z</time>
      </trkpt>
      <trkpt lat="44.60611" lon="0.67013">
        <ele>118</ele>
        <time>2012-02-19T07:43:47Z</time>
      </trkpt>
      <trkpt lat="44.60614" lon="0.67015">
        <ele>118</ele>
        <time>2012-02-19T07:43:48Z</time>
      </trkpt>
      <trkpt lat="44.60617" lon="0.67018">
        <ele>118</ele>
        <time>2012-02-19T07:43:49Z</time>
      </trkpt>
      <trkpt lat="44.6062" lon="0.6702">
        <ele>118</ele>
        <time>2012-02-19T07:43:50Z</time>
      </trkpt>
      <trkpt lat="44.60623" lon="0.67022">
        <ele>117</ele>
        <time>2012-02-19T07:43:51Z</time>
      </trkpt>
      <trkpt lat="44.60626" lon="0.67023">
        <ele>117</ele>
        <time>2012-02-19T07:43:52Z</time>
      </trkpt>
      <trkpt lat="44.60629" lon="0.67025">
        <ele>117</ele>
        <time>2012-02-19T07:43:53Z</time>
      </trkpt>
      <trkpt lat="44.60632" lon="0.67026">
        <ele>117</ele>
        <time>2012-02-19T07:43:54Z</time>
      </trkpt>
      <trkpt lat="44.60635" lon="0.67027">
        <ele>117</ele>
        <time>2012-02-19T07:43:55Z</time>
      </trkpt>
      <trkpt lat="44.60639" lon="0.67028">
        <ele>117</ele>
        <time>2012-02-19T07:43:56Z</time>
      </trkpt>
      <trkpt lat="44.60642" lon="0.67028">
        <ele>117</ele>
        <time>2012-02-19T07:43:57Z</time>
      </trkpt>
      <trkpt lat="44.60645" lon="0.67028">
        <ele>117</ele>
        <time>2012-02-19T07:43:58Z</time>
      </trkpt>
      <trkpt lat="44.60648" lon="0.67028">
        <ele>117</ele>
        <time>2012-02-19T07:43:59Z</time>
      </trkpt>
      <trkpt lat="44.60651" lon="0.67028">
        <ele>117</ele>
        <time>2012-02-19T07:44:00Z</time>
      </trkpt>
      <trkpt lat="44.60654" lon="0.67027">
        <ele>117</ele>
        <time>2012-02-19T07:44:01Z</time>
      </trkpt>
      <trkpt lat="44.60658" lon="0.67026">
        <ele>117</ele>
        <time>2012-02-19T07:44:02Z</time>
      </trkpt>
      <trkpt lat="44.60661" lon="0.67025">
        <ele>117</ele>
        <time>2012-02-19T07:44:03Z</time>
      </trkpt>
      <trkpt lat="44.60664" lon="0.67024">
        <ele>117</ele>
        <time>2012-02-19T07:44:04Z</time>
      </trkpt>
      <trkpt lat="44.60667" lon="0.67022">
        <ele>117</ele>
        <time>2012-02-19T07:44:05Z</time>
      </trkpt>
      <trkpt lat="44.60669" lon="0.67021">
        <ele>117</ele>
        <time>2012-02-19T07:44:06Z</time>
      </trkpt>
      <trkpt lat="44.60672" lon="0.67019">
        <ele>117</ele>
        <time>2012-02-19T07:44:07Z</time>
      </trkpt>
      <trkpt lat="44.60674" lon="0.67017">
        <ele>117</ele>
        <time>2012-02-19T07:44:08Z</time>
      </trkpt>
      <trkpt lat="44.60677" lon="0.67016">
        <ele>117</ele>
        <time>2012-02-19T07:44:09Z</time>
      </trkpt>
      <trkpt lat="44.60679" lon="0.67014">
        <ele>117</ele>
        <time>2012-02-19T07:44:10Z</time>
      </trkpt>
      <trkpt lat="44.60682" lon="0.67013">
        <ele>117</ele>
        <time>2012-02-19T07:44:11Z</time>
      </trkpt>
      <trkpt lat="44.60684" lon="0.67012">
        <ele>117</ele>
        <time>2012-02-19T07:44:12Z</time>
      </trkpt>
      <trkpt lat="44.60686" lon="0.67011">
        <ele>117</ele>
        <time>2012-02-19T07:44:13Z</time>
      </trkpt>
      <trkpt lat="44.60688" lon="0.6701">
        <ele>117</ele>
        <time>2012-02-19T07:44:14Z</time>
      </trkpt>
      <trkpt lat="44.6069" lon="0.67009">
        <ele>117</ele>
        <time>2012-02-19T07:44:15Z</time>
      </trkpt>
      <trkpt lat="44.60692" lon="0.67008">
        <ele>117</ele>
        <time>2012-02-19T07:44:16Z</time>
      </trkpt>
      <trkpt lat="44.60694" lon="0.67007">
        <ele>117</ele>
        <time>2012-02-19T07:44:17Z</time>
      </trkpt>
      <trkpt lat="44.60696" lon="0.67006">
        <ele>117</ele>
        <time>2012-02-19T07:44:18Z</time>
      </trkpt>
      <trkpt lat="44.60697" lon="0.67005">
        <ele>117</ele>
        <time>2012-02-19T07:44:19Z</time>
      </trkpt>
      <trkpt lat="44.60698" lon="0.67004">
        <ele>117</ele>
        <time>2012-02-19T07:44:20Z</time>
      </trkpt>
      <trkpt lat="44.607" lon="0.67002">
        <ele>117</ele>
        <time>2012-02-19T07:44:21Z</time>
      </trkpt>
      <trkpt lat="44.60701" lon="0.67001">
        <ele>117</ele>
        <time>2012-02-19T07:44:22Z</time>
      </trkpt>
      <trkpt lat="44.60703" lon="0.67">
        <ele>117</ele>
        <time>2012-02-19T07:44:23Z</time>
      </trkpt>
      <trkpt lat="44.60704" lon="0.66999">
        <ele>118</ele>
        <time>2012-02-19T07:44:24Z</time>
      </trkpt>
      <trkpt lat="44.60706" lon="0.66997">
        <ele>118</ele>
        <time>2012-02-19T07:44:25Z</time>
      </trkpt>
      <trkpt lat="44.60708" lon="0.66996">
        <ele>120</ele>
        <time>2012-02-19T07:44:27Z</time>
      </trkpt>
      <trkpt lat="44.60709" lon="0.66996">
        <ele>121</ele>
        <time>2012-02-19T07:44:28Z</time>
      </trkpt>
      <trkpt lat="44.60711" lon="0.66994">
        <ele>122</ele>
        <time>2012-02-19T07:44:29Z</time>
      </trkpt>
      <trkpt lat="44.60712" lon="0.66993">
        <ele>122</ele>
        <time>2012-02-19T07:44:30Z</time>
      </trkpt>
      <trkpt lat="44.60714" lon="0.66992">
        <ele>124</ele>
        <time>2012-02-19T07:44:32Z</time>
      </trkpt>
      <trkpt lat="44.60717" lon="0.6699">
        <ele>126</ele>
        <time>2012-02-19T07:44:34Z</time>
      </trkpt>
      <trkpt lat="44.60718" lon="0.66989">
        <ele>127</ele>
        <time>2012-02-19T07:44:35Z</time>
      </trkpt>
      <trkpt lat="44.60719" lon="0.66989">
        <ele>127</ele>
        <time>2012-02-19T07:44:36Z</time>
      </trkpt>
      <trkpt lat="44.6072" lon="0.66988">
        <ele>128</ele>
        <time>2012-02-19T07:44:37Z</time>
      </trkpt>
      <trkpt lat="44.60722" lon="0.66987">
        <ele>128</ele>
        <time>2012-02-19T07:44:38Z</time>
      </trkpt>
      <trkpt lat="44.60724" lon="0.66986">
        <ele>129</ele>
        <time>2012-02-19T07:44:39Z</time>
      </trkpt>
      <trkpt lat="44.60725" lon="0.66985">
        <ele>129</ele>
        <time>2012-02-19T07:44:40Z</time>
      </trkpt>
      <trkpt lat="44.60727" lon="0.66983">
        <ele>129</ele>
        <time>2012-02-19T07:44:41Z</time>
      </trkpt>
      <trkpt lat="44.60728" lon="0.66983">
        <ele>129</ele>
        <time>2012-02-19T07:44:42Z</time>
      </trkpt>
      <trkpt lat="44.6073" lon="0.66981">
        <ele>130</ele>
        <time>2012-02-19T07:44:44Z</time>
      </trkpt>
      <trkpt lat="44.60732" lon="0.6698">
        <ele>130</ele>
        <time>2012-02-19T07:44:45Z</time>
      </trkpt>
      <trkpt lat="44.60733" lon="0.66978">
        <ele>130</ele>
        <time>2012-02-19T07:44:46Z</time>
      </trkpt>
      <trkpt lat="44.60735" lon="0.66977">
        <ele>131</ele>
        <time>2012-02-19T07:44:47Z</time>
      </trkpt>
      <trkpt lat="44.60736" lon="0.66977">
        <ele>131</ele>
        <time>2012-02-19T07:44:48Z</time>
      </trkpt>
      <trkpt lat="44.60737" lon="0.66976">
        <ele>131</ele>
        <time>2012-02-19T07:44:49Z</time>
      </trkpt>
      <trkpt lat="44.60739" lon="0.66974">
        <ele>131</ele>
        <time>2012-02-19T07:44:51Z</time>
      </trkpt>
      <trkpt lat="44.6074" lon="0.66973">
        <ele>132</ele>
        <time>2012-02-19T07:44:52Z</time>
      </trkpt>
      <trkpt lat="44.60742" lon="0.66973">
        <ele>132</ele>
        <time>2012-02-19T07:44:54Z</time>
      </trkpt>
      <trkpt lat="44.60744" lon="0.66971">
        <ele>133</ele>
        <time>2012-02-19T07:44:56Z</time>
      </trkpt>
      <trkpt lat="44.60746" lon="0.66972">
        <ele>136</ele>
        <time>2012-02-19T07:44:59Z</time>
      </trkpt>
      <trkpt lat="44.60748" lon="0.66972">
        <ele>136</ele>
        <time>2012-02-19T07:45:00Z</time>
      </trkpt>
      <trkpt lat="44.6075" lon="0.66972">
        <ele>137</ele>
        <time>2012-02-19T07:45:02Z</time>
      </trkpt>
      <trkpt lat="44.60751" lon="0.66971">
        <ele>137</ele>
        <time>2012-02-19T07:45:03Z</time>
      </trkpt>
      <trkpt lat="44.60752" lon="0.66971">
        <ele>138</ele>
        <time>2012-02-19T07:45:04Z</time>
      </trkpt>
      <trkpt lat="44.60754" lon="0.66972">
        <ele>138</ele>
        <time>2012-02-19T07:45:05Z</time>
      </trkpt>
      <trkpt lat="44.60756" lon="0.66972">
        <ele>138</ele>
        <time>2012-02-19T07:45:06Z</time>
      </trkpt>
      <trkpt lat="44.60758" lon="0.66971">
        <ele>138</ele>
        <time>2012-02-19T07:45:07Z</time>
      </trkpt>
      <trkpt lat="44.6076" lon="0.66972">
        <ele>138</ele>
        <time>2012-02-19T07:45:08Z</time>
      </trkpt>
      <trkpt lat="44.60761" lon="0.66972">
        <ele>138</ele>
        <time>2012-02-19T07:45:09Z</time>
      </trkpt>
      <trkpt lat="44.60763" lon="0.66972">
        <ele>138</ele>
        <time>2012-02-19T07:45:10Z</time>
      </trkpt>
      <trkpt lat="44.60764" lon="0.66971">
        <ele>138</ele>
        <time>2012-02-19T07:45:12Z</time>
      </trkpt>
      <trkpt lat="44.60766" lon="0.66972">
        <ele>138</ele>
        <time>2012-02-19T07:45:13Z</time>
      </trkpt>
      <trkpt lat="44.60768" lon="0.66972">
        <ele>138</ele>
        <time>2012-02-19T07:45:14Z</time>
      </trkpt>
      <trkpt lat="44.60769" lon="0.66972">
        <ele>138</ele>
        <time>2012-02-19T07:45:15Z</time>
      </trkpt>
      <trkpt lat="44.60771" lon="0.66973">
        <ele>138</ele>
        <time>2012-02-19T07:45:16Z</time>
      </trkpt>
      <trkpt lat="44.60773" lon="0.66974">
        <ele>138</ele>
        <time>2012-02-19T07:45:17Z</time>
      </trkpt>
      <trkpt lat="44.60775" lon="0.66975">
        <ele>138</ele>
        <time>2012-02-19T07:45:18Z</time>
      </trkpt>
      <trkpt lat="44.60777" lon="0.66975">
        <ele>138</ele>
        <time>2012-02-19T07:45:19Z</time>
      </trkpt>
      <trkpt lat="44.60779" lon="0.66975">
        <ele>138</ele>
        <time>2012-02-19T07:45:20Z</time>
      </trkpt>
      <trkpt lat="44.60781" lon="0.66976">
        <ele>138</ele>
        <time>2012-02-19T07:45:21Z</time>
      </trkpt>
      <trkpt lat="44.60783" lon="0.66976">
        <ele>138</ele>
        <time>2012-02-19T07:45:22Z</time>
      </trkpt>
      <trkpt lat="44.60785" lon="0.66977">
        <ele>138</ele>
        <time>2012-02-19T07:45:23Z</time>
      </trkpt>
      <trkpt lat="44.60787" lon="0.66978">
        <ele>138</ele>
        <time>2012-02-19T07:45:24Z</time>
      </trkpt>
      <trkpt lat="44.60788" lon="0.66978">
        <ele>138</ele>
        <time>2012-02-19T07:45:25Z</time>
      </trkpt>
      <trkpt lat="44.60791" lon="0.66979">
        <ele>138</ele>
        <time>2012-02-19T07:45:26Z</time>
      </trkpt>
      <trkpt lat="44.60793" lon="0.66979">
        <ele>138</ele>
        <time>2012-02-19T07:45:27Z</time>
      </trkpt>
      <trkpt lat="44.60795" lon="0.66979">
        <ele>138</ele>
        <time>2012-02-19T07:45:28Z</time>
      </trkpt>
      <trkpt lat="44.60797" lon="0.66979">
        <ele>138</ele>
        <time>2012-02-19T07:45:29Z</time>
      </trkpt>
      <trkpt lat="44.60799" lon="0.6698">
        <ele>138</ele>
        <time>2012-02-19T07:45:30Z</time>
      </trkpt>
      <trkpt lat="44.60801" lon="0.6698">
        <ele>138</ele>
        <time>2012-02-19T07:45:31Z</time>
      </trkpt>
      <trkpt lat="44.60804" lon="0.6698">
        <ele>138</ele>
        <time>2012-02-19T07:45:32Z</time>
      </trkpt>
      <trkpt lat="44.60806" lon="0.6698">
        <ele>138</ele>
        <time>2012-02-19T07:45:33Z</time>
      </trkpt>
      <trkpt lat="44.60809" lon="0.66981">
        <ele>138</ele>
        <time>2012-02-19T07:45:34Z</time>
      </trkpt>
      <trkpt lat="44.60811" lon="0.66981">
        <ele>138</ele>
        <time>2012-02-19T07:45:35Z</time>
      </trkpt>
      <trkpt lat="44.60814" lon="0.66981">
        <ele>138</ele>
        <time>2012-02-19T07:45:36Z</time>
      </trkpt>
      <trkpt lat="44.60816" lon="0.66981">
        <ele>138</ele>
        <time>2012-02-19T07:45:37Z</time>
      </trkpt>
      <trkpt lat="44.60818" lon="0.66982">
        <ele>138</ele>
        <time>2012-02-19T07:45:38Z</time>
      </trkpt>
      <trkpt lat="44.60821" lon="0.66982">
        <ele>138</ele>
        <time>2012-02-19T07:45:39Z</time>
      </trkpt>
      <trkpt lat="44.60823" lon="0.66982">
        <ele>138</ele>
        <time>2012-02-19T07:45:40Z</time>
      </trkpt>
      <trkpt lat="44.60825" lon="0.66983">
        <ele>138</ele>
        <time>2012-02-19T07:45:41Z</time>
      </trkpt>
      <trkpt lat="44.60828" lon="0.66983">
        <ele>138</ele>
        <time>2012-02-19T07:45:42Z</time>
      </trkpt>
      <trkpt lat="44.6083" lon="0.66983">
        <ele>138</ele>
        <time>2012-02-19T07:45:43Z</time>
      </trkpt>
      <trkpt lat="44.60833" lon="0.66984">
        <ele>138</ele>
        <time>2012-02-19T07:45:44Z</time>
      </trkpt>
      <trkpt lat="44.60835" lon="0.66984">
        <ele>138</ele>
        <time>2012-02-19T07:45:45Z</time>
      </trkpt>
      <trkpt lat="44.60838" lon="0.66985">
        <ele>138</ele>
        <time>2012-02-19T07:45:46Z</time>
      </trkpt>
      <trkpt lat="44.6084" lon="0.66986">
        <ele>138</ele>
        <time>2012-02-19T07:45:47Z</time>
      </trkpt>
      <trkpt lat="44.60843" lon="0.66987">
        <ele>138</ele>
        <time>2012-02-19T07:45:48Z</time>
      </trkpt>
      <trkpt lat="44.60845" lon="0.66986">
        <ele>138</ele>
        <time>2012-02-19T07:45:49Z</time>
      </trkpt>
      <trkpt lat="44.60848" lon="0.66986">
        <ele>138</ele>
        <time>2012-02-19T07:45:50Z</time>
      </trkpt>
      <trkpt lat="44.60851" lon="0.66985">
        <ele>138</ele>
        <time>2012-02-19T07:45:51Z</time>
      </trkpt>
      <trkpt lat="44.60853" lon="0.66985">
        <ele>138</ele>
        <time>2012-02-19T07:45:52Z</time>
      </trkpt>
      <trkpt lat="44.60855" lon="0.66985">
        <ele>138</ele>
        <time>2012-02-19T07:45:53Z</time>
      </trkpt>
      <trkpt lat="44.60858" lon="0.66984">
        <ele>138</ele>
        <time>2012-02-19T07:45:54Z</time>
      </trkpt>
      <trkpt lat="44.6086" lon="0.66983">
        <ele>138</ele>
        <time>2012-02-19T07:45:55Z</time>
      </trkpt>
      <trkpt lat="44.60862" lon="0.66983">
        <ele>138</ele>
        <time>2012-02-19T07:45:56Z</time>
      </trkpt>
      <trkpt lat="44.60865" lon="0.66982">
        <ele>138</ele>
        <time>2012-02-19T07:45:57Z</time>
      </trkpt>
      <trkpt lat="44.60867" lon="0.66981">
        <ele>138</ele>
        <time>2012-02-19T07:45:58Z</time>
      </trkpt>
      <trkpt lat="44.60869" lon="0.6698">
        <ele>138</ele>
        <time>2012-02-19T07:45:59Z</time>
      </trkpt>
      <trkpt lat="44.60871" lon="0.66979">
        <ele>138</ele>
        <time>2012-02-19T07:46:00Z</time>
      </trkpt>
      <trkpt lat="44.60873" lon="0.66978">
        <ele>138</ele>
        <time>2012-02-19T07:46:01Z</time>
      </trkpt>
      <trkpt lat="44.60874" lon="0.66977">
        <ele>138</ele>
        <time>2012-02-19T07:46:02Z</time>
      </trkpt>
      <trkpt lat="44.60876" lon="0.66976">
        <ele>138</ele>
        <time>2012-02-19T07:46:03Z</time>
      </trkpt>
      <trkpt lat="44.60878" lon="0.66975">
        <ele>139</ele>
        <time>2012-02-19T07:46:04Z</time>
      </trkpt>
      <trkpt lat="44.60881" lon="0.66974">
        <ele>139</ele>
        <time>2012-02-19T07:46:05Z</time>
      </trkpt>
      <trkpt lat="44.60883" lon="0.66973">
        <ele>139</ele>
        <time>2012-02-19T07:46:06Z</time>
      </trkpt>
      <trkpt lat="44.60886" lon="0.66972">
        <ele>140</ele>
        <time>2012-02-19T07:46:07Z</time>
      </trkpt>
      <trkpt lat="44.60889" lon="0.6697">
        <ele>140</ele>
        <time>2012-02-19T07:46:08Z</time>
      </trkpt>
      <trkpt lat="44.60892" lon="0.66969">
        <ele>141</ele>
        <time>2012-02-19T07:46:09Z</time>
      </trkpt>
      <trkpt lat="44.60894" lon="0.66967">
        <ele>142</ele>
        <time>2012-02-19T07:46:10Z</time>
      </trkpt>
      <trkpt lat="44.60897" lon="0.66966">
        <ele>142</ele>
        <time>2012-02-19T07:46:11Z</time>
      </trkpt>
      <trkpt lat="44.60899" lon="0.66965">
        <ele>143</ele>
        <time>2012-02-19T07:46:12Z</time>
      </trkpt>
      <trkpt lat="44.60901" lon="0.66963">
        <ele>143</ele>
        <time>2012-02-19T07:46:13Z</time>
      </trkpt>
      <trkpt lat="44.60903" lon="0.66961">
        <ele>144</ele>
        <time>2012-02-19T07:46:14Z</time>
      </trkpt>
      <trkpt lat="44.60906" lon="0.6696">
        <ele>144</ele>
        <time>2012-02-19T07:46:15Z</time>
      </trkpt>
      <trkpt lat="44.60908" lon="0.66958">
        <ele>144</ele>
        <time>2012-02-19T07:46:16Z</time>
      </trkpt>
      <trkpt lat="44.6091" lon="0.66957">
        <ele>144</ele>
        <time>2012-02-19T07:46:17Z</time>
      </trkpt>
      <trkpt lat="44.60913" lon="0.66955">
        <ele>144</ele>
        <time>2012-02-19T07:46:18Z</time>
      </trkpt>
      <trkpt lat="44.60915" lon="0.66953">
        <ele>144</ele>
        <time>2012-02-19T07:46:19Z</time>
      </trkpt>
      <trkpt lat="44.60918" lon="0.66951">
        <ele>144</ele>
        <time>2012-02-19T07:46:20Z</time>
      </trkpt>
      <trkpt lat="44.60921" lon="0.66949">
        <ele>144</ele>
        <time>2012-02-19T07:46:21Z</time>
      </trkpt>
      <trkpt lat="44.60923" lon="0.66948">
        <ele>144</ele>
        <time>2012-02-19T07:46:22Z</time>
      </trkpt>
      <trkpt lat="44.60926" lon="0.66946">
        <ele>144</ele>
        <time>2012-02-19T07:46:23Z</time>
      </trkpt>
      <trkpt lat="44.60928" lon="0.66944">
        <ele>144</ele>
        <time>2012-02-19T07:46:24Z</time>
      </trkpt>
      <trkpt lat="44.60931" lon="0.66943">
        <ele>144</ele>
        <time>2012-02-19T07:46:25Z</time>
      </trkpt>
      <trkpt lat="44.60933" lon="0.6694">
        <ele>144</ele>
        <time>2012-02-19T07:46:26Z</time>
      </trkpt>
      <trkpt lat="44.60936" lon="0.66939">
        <ele>144</ele>
        <time>2012-02-19T07:46:27Z</time>
      </trkpt>
      <trkpt lat="44.60938" lon="0.66937">
        <ele>144</ele>
        <time>2012-02-19T07:46:28Z</time>
      </trkpt>
      <trkpt lat="44.60941" lon="0.66934">
        <ele>144</ele>
        <time>2012-02-19T07:46:29Z</time>
      </trkpt>
      <trkpt lat="44.60943" lon="0.66932">
        <ele>144</ele>
        <time>2012-02-19T07:46:30Z</time>
      </trkpt>
      <trkpt lat="44.60945" lon="0.6693">
        <ele>144</ele>
        <time>2012-02-19T07:46:31Z</time>
      </trkpt>
      <trkpt lat="44.60947" lon="0.66927">
        <ele>144</ele>
        <time>2012-02-19T07:46:32Z</time>
      </trkpt>
      <trkpt lat="44.6095" lon="0.66925">
        <ele>144</ele>
        <time>2012-02-19T07:46:33Z</time>
      </trkpt>
      <trkpt lat="44.60952" lon="0.66923">
        <ele>144</ele>
        <time>2012-02-19T07:46:34Z</time>
      </trkpt>
      <trkpt lat="44.60955" lon="0.66922">
        <ele>144</ele>
        <time>2012-02-19T07:46:35Z</time>
      </trkpt>
      <trkpt lat="44.60957" lon="0.6692">
        <ele>144</ele>
        <time>2012-02-19T07:46:36Z</time>
      </trkpt>
      <trkpt lat="44.6096" lon="0.66918">
        <ele>144</ele>
        <time>2012-02-19T07:46:37Z</time>
      </trkpt>
      <trkpt lat="44.60962" lon="0.66916">
        <ele>144</ele>
        <time>2012-02-19T07:46:38Z</time>
      </trkpt>
      <trkpt lat="44.60964" lon="0.66913">
        <ele>144</ele>
        <time>2012-02-19T07:46:39Z</time>
      </trkpt>
      <trkpt lat="44.60966" lon="0.66911">
        <ele>144</ele>
        <time>2012-02-19T07:46:40Z</time>
      </trkpt>
      <trkpt lat="44.60968" lon="0.66909">
        <ele>144</ele>
        <time>2012-02-19T07:46:41Z</time>
      </trkpt>
      <trkpt lat="44.60971" lon="0.66908">
        <ele>144</ele>
        <time>2012-02-19T07:46:42Z</time>
      </trkpt>
      <trkpt lat="44.60973" lon="0.66905">
        <ele>144</ele>
        <time>2012-02-19T07:46:43Z</time>
      </trkpt>
      <trkpt lat="44.60976" lon="0.66903">
        <ele>144</ele>
        <time>2012-02-19T07:46:44Z</time>
      </trkpt>
      <trkpt lat="44.60978" lon="0.669">
        <ele>144</ele>
        <time>2012-02-19T07:46:45Z</time>
      </trkpt>
      <trkpt lat="44.60981" lon="0.66898">
        <ele>144</ele>
        <time>2012-02-19T07:46:46Z</time>
      </trkpt>
      <trkpt lat="44.60983" lon="0.66895">
        <ele>144</ele>
        <time>2012-02-19T07:46:47Z</time>
      </trkpt>
      <trkpt lat="44.60986" lon="0.66892">
        <ele>144</ele>
        <time>2012-02-19T07:46:48Z</time>
      </trkpt>
      <trkpt lat="44.60988" lon="0.6689">
        <ele>144</ele>
        <time>2012-02-19T07:46:49Z</time>
      </trkpt>
      <trkpt lat="44.60991" lon="0.66887">
        <ele>144</ele>
        <time>2012-02-19T07:46:50Z</time>
      </trkpt>
      <trkpt lat="44.60994" lon="0.66884">
        <ele>144</ele>
        <time>2012-02-19T07:46:51Z</time>
      </trkpt>
      <trkpt lat="44.60997" lon="0.66882">
        <ele>144</ele>
        <time>2012-02-19T07:46:52Z</time>
      </trkpt>
      <trkpt lat="44.60999" lon="0.66879">
        <ele>144</ele>
        <time>2012-02-19T07:46:53Z</time>
      </trkpt>
      <trkpt lat="44.61002" lon="0.66877">
        <ele>144</ele>
        <time>2012-02-19T07:46:54Z</time>
      </trkpt>
      <trkpt lat="44.61005" lon="0.66874">
        <ele>144</ele>
        <time>2012-02-19T07:46:55Z</time>
      </trkpt>
      <trkpt lat="44.61008" lon="0.66871">
        <ele>144</ele>
        <time>2012-02-19T07:46:56Z</time>
      </trkpt>
      <trkpt lat="44.61011" lon="0.66868">
        <ele>144</ele>
        <time>2012-02-19T07:46:57Z</time>
      </trkpt>
      <trkpt lat="44.61014" lon="0.66865">
        <ele>144</ele>
        <time>2012-02-19T07:46:58Z</time>
      </trkpt>
      <trkpt lat="44.61016" lon="0.66863">
        <ele>144</ele>
        <time>2012-02-19T07:46:59Z</time>
      </trkpt>
      <trkpt lat="44.6102" lon="0.6686">
        <ele>144</ele>
        <time>2012-02-19T07:47:00Z</time>
      </trkpt>
      <trkpt lat="44.61023" lon="0.66858">
        <ele>144</ele>
        <time>2012-02-19T07:47:01Z</time>
      </trkpt>
      <trkpt lat="44.61025" lon="0.66855">
        <ele>144</ele>
        <time>2012-02-19T07:47:02Z</time>
      </trkpt>
      <trkpt lat="44.61028" lon="0.66852">
        <ele>144</ele>
        <time>2012-02-19T07:47:03Z</time>
      </trkpt>
      <trkpt lat="44.61031" lon="0.66851">
        <ele>144</ele>
        <time>2012-02-19T07:47:04Z</time>
      </trkpt>
      <trkpt lat="44.61034" lon="0.66848">
        <ele>144</ele>
        <time>2012-02-19T07:47:05Z</time>
      </trkpt>
      <trkpt lat="44.61037" lon="0.66847">
        <ele>144</ele>
        <time>2012-02-19T07:47:06Z</time>
      </trkpt>
      <trkpt lat="44.61041" lon="0.66845">
        <ele>144</ele>
        <time>2012-02-19T07:47:07Z</time>
      </trkpt>
      <trkpt lat="44.61044" lon="0.66844">
        <ele>144</ele>
        <time>2012-02-19T07:47:08Z</time>
      </trkpt>
      <trkpt lat="44.61047" lon="0.66842">
        <ele>144</ele>
        <time>2012-02-19T07:47:09Z</time>
      </trkpt>
      <trkpt lat="44.6105" lon="0.6684">
        <ele>144</ele>
        <time>2012-02-19T07:47:10Z</time>
      </trkpt>
      <trkpt lat="44.61053" lon="0.66838">
        <ele>144</ele>
        <time>2012-02-19T07:47:11Z</time>
      </trkpt>
      <trkpt lat="44.61057" lon="0.66836">
        <ele>144</ele>
        <time>2012-02-19T07:47:12Z</time>
      </trkpt>
      <trkpt lat="44.6106" lon="0.66835">
        <ele>144</ele>
        <time>2012-02-19T07:47:13Z</time>
      </trkpt>
      <trkpt lat="44.61063" lon="0.66833">
        <ele>144</ele>
        <time>2012-02-19T07:47:14Z</time>
      </trkpt>
      <trkpt lat="44.61066" lon="0.66833">
        <ele>144</ele>
        <time>2012-02-19T07:47:15Z</time>
      </trkpt>
      <trkpt lat="44.61069" lon="0.66831">
        <ele>144</ele>
        <time>2012-02-19T07:47:16Z</time>
      </trkpt>
      <trkpt lat="44.61071" lon="0.66831">
        <ele>144</ele>
        <time>2012-02-19T07:47:17Z</time>
      </trkpt>
      <trkpt lat="44.61074" lon="0.6683">
        <ele>144</ele>
        <time>2012-02-19T07:47:18Z</time>
      </trkpt>
      <trkpt lat="44.61078" lon="0.66829">
        <ele>144</ele>
        <time>2012-02-19T07:47:19Z</time>
      </trkpt>
      <trkpt lat="44.61081" lon="0.66829">
        <ele>144</ele>
        <time>2012-02-19T07:47:20Z</time>
      </trkpt>
      <trkpt lat="44.61084" lon="0.6683">
        <ele>144</ele>
        <time>2012-02-19T07:47:21Z</time>
      </trkpt>
      <trkpt lat="44.61087" lon="0.66831">
        <ele>144</ele>
        <time>2012-02-19T07:47:22Z</time>
      </trkpt>
      <trkpt lat="44.6109" lon="0.66833">
        <ele>144</ele>
        <time>2012-02-19T07:47:23Z</time>
      </trkpt>
      <trkpt lat="44.61092" lon="0.66835">
        <ele>144</ele>
        <time>2012-02-19T07:47:24Z</time>
      </trkpt>
      <trkpt lat="44.61095" lon="0.66837">
        <ele>144</ele>
        <time>2012-02-19T07:47:25Z</time>
      </trkpt>
      <trkpt lat="44.61097" lon="0.6684">
        <ele>144</ele>
        <time>2012-02-19T07:47:26Z</time>
      </trkpt>
      <trkpt lat="44.611" lon="0.66842">
        <ele>144</ele>
        <time>2012-02-19T07:47:27Z</time>
      </trkpt>
      <trkpt lat="44.61103" lon="0.66844">
        <ele>144</ele>
        <time>2012-02-19T07:47:28Z</time>
      </trkpt>
      <trkpt lat="44.61105" lon="0.66847">
        <ele>144</ele>
        <time>2012-02-19T07:47:29Z</time>
      </trkpt>
      <trkpt lat="44.61108" lon="0.66849">
        <ele>144</ele>
        <time>2012-02-19T07:47:30Z</time>
      </trkpt>
      <trkpt lat="44.61111" lon="0.66852">
        <ele>144</ele>
        <time>2012-02-19T07:47:31Z</time>
      </trkpt>
      <trkpt lat="44.61115" lon="0.66855">
        <ele>144</ele>
        <time>2012-02-19T07:47:32Z</time>
      </trkpt>
      <trkpt lat="44.61117" lon="0.66857">
        <ele>144</ele>
        <time>2012-02-19T07:47:33Z</time>
      </trkpt>
      <trkpt lat="44.6112" lon="0.66861">
        <ele>144</ele>
        <time>2012-02-19T07:47:34Z</time>
      </trkpt>
      <trkpt lat="44.61123" lon="0.66863">
        <ele>144</ele>
        <time>2012-02-19T07:47:35Z</time>
      </trkpt>
      <trkpt lat="44.61126" lon="0.66866">
        <ele>144</ele>
        <time>2012-02-19T07:47:36Z</time>
      </trkpt>
      <trkpt lat="44.61128" lon="0.66868">
        <ele>144</ele>
        <time>2012-02-19T07:47:37Z</time>
      </trkpt>
      <trkpt lat="44.61131" lon="0.6687">
        <ele>144</ele>
        <time>2012-02-19T07:47:38Z</time>
      </trkpt>
      <trkpt lat="44.61134" lon="0.66872">
        <ele>144</ele>
        <time>2012-02-19T07:47:39Z</time>
      </trkpt>
      <trkpt lat="44.61137" lon="0.66874">
        <ele>144</ele>
        <time>2012-02-19T07:47:40Z</time>
      </trkpt>
      <trkpt lat="44.6114" lon="0.66876">
        <ele>144</ele>
        <time>2012-02-19T07:47:41Z</time>
      </trkpt>
      <trkpt lat="44.61143" lon="0.66877">
        <ele>144</ele>
        <time>2012-02-19T07:47:42Z</time>
      </trkpt>
      <trkpt lat="44.61146" lon="0.66879">
        <ele>144</ele>
        <time>2012-02-19T07:47:43Z</time>
      </trkpt>
      <trkpt lat="44.61149" lon="0.6688">
        <ele>144</ele>
        <time>2012-02-19T07:47:44Z</time>
      </trkpt>
      <trkpt lat="44.61153" lon="0.66882">
        <ele>144</ele>
        <time>2012-02-19T07:47:45Z</time>
      </trkpt>
      <trkpt lat="44.61156" lon="0.66883">
        <ele>144</ele>
        <time>2012-02-19T07:47:46Z</time>
      </trkpt>
      <trkpt lat="44.61159" lon="0.66884">
        <ele>144</ele>
        <time>2012-02-19T07:47:47Z</time>
      </trkpt>
      <trkpt lat="44.61163" lon="0.66885">
        <ele>144</ele>
        <time>2012-02-19T07:47:48Z</time>
      </trkpt>
      <trkpt lat="44.61166" lon="0.66887">
        <ele>143</ele>
        <time>2012-02-19T07:47:49Z</time>
      </trkpt>
      <trkpt lat="44.61169" lon="0.66888">
        <ele>143</ele>
        <time>2012-02-19T07:47:50Z</time>
      </trkpt>
      <trkpt lat="44.61172" lon="0.66889">
        <ele>143</ele>
        <time>2012-02-19T07:47:51Z</time>
      </trkpt>
      <trkpt lat="44.61176" lon="0.66891">
        <ele>143</ele>
        <time>2012-02-19T07:47:52Z</time>
      </trkpt>
      <trkpt lat="44.61179" lon="0.66891">
        <ele>143</ele>
        <time>2012-02-19T07:47:53Z</time>
      </trkpt>
      <trkpt lat="44.61182" lon="0.66893">
        <ele>143</ele>
        <time>2012-02-19T07:47:54Z</time>
      </trkpt>
      <trkpt lat="44.61185" lon="0.66894">
        <ele>143</ele>
        <time>2012-02-19T07:47:55Z</time>
      </trkpt>
      <trkpt lat="44.61188" lon="0.66895">
        <ele>142</ele>
        <time>2012-02-19T07:47:56Z</time>
      </trkpt>
      <trkpt lat="44.61191" lon="0.66896">
        <ele>142</ele>
        <time>2012-02-19T07:47:57Z</time>
      </trkpt>
      <trkpt lat="44.61194" lon="0.66897">
        <ele>142</ele>
        <time>2012-02-19T07:47:58Z</time>
      </trkpt>
      <trkpt lat="44.61196" lon="0.66897">
        <ele>142</ele>
        <time>2012-02-19T07:47:59Z</time>
      </trkpt>
      <trkpt lat="44.61199" lon="0.66898">
        <ele>141</ele>
        <time>2012-02-19T07:48:00Z</time>
      </trkpt>
      <trkpt lat="44.61201" lon="0.66899">
        <ele>141</ele>
        <time>2012-02-19T07:48:01Z</time>
      </trkpt>
      <trkpt lat="44.61203" lon="0.66899">
        <ele>141</ele>
        <time>2012-02-19T07:48:02Z</time>
      </trkpt>
      <trkpt lat="44.61204" lon="0.669">
        <ele>141</ele>
        <time>2012-02-19T07:48:03Z</time>
      </trkpt>
      <trkpt lat="44.61206" lon="0.66901">
        <ele>141</ele>
        <time>2012-02-19T07:48:05Z</time>
      </trkpt>
      <trkpt lat="44.61208" lon="0.66903">
        <ele>141</ele>
        <time>2012-02-19T07:48:07Z</time>
      </trkpt>
      <trkpt lat="44.6121" lon="0.66905">
        <ele>141</ele>
        <time>2012-02-19T07:48:09Z</time>
      </trkpt>
      <trkpt lat="44.61211" lon="0.66908">
        <ele>141</ele>
        <time>2012-02-19T07:48:10Z</time>
      </trkpt>
      <trkpt lat="44.61211" lon="0.6691">
        <ele>141</ele>
        <time>2012-02-19T07:48:11Z</time>
      </trkpt>
      <trkpt lat="44.6121" lon="0.66913">
        <ele>141</ele>
        <time>2012-02-19T07:48:12Z</time>
      </trkpt>
      <trkpt lat="44.61211" lon="0.66916">
        <ele>141</ele>
        <time>2012-02-19T07:48:13Z</time>
      </trkpt>
      <trkpt lat="44.61211" lon="0.66918">
        <ele>141</ele>
        <time>2012-02-19T07:48:14Z</time>
      </trkpt>
      <trkpt lat="44.61211" lon="0.66921">
        <ele>141</ele>
        <time>2012-02-19T07:48:15Z</time>
      </trkpt>
      <trkpt lat="44.61212" lon="0.66923">
        <ele>141</ele>
        <time>2012-02-19T07:48:16Z</time>
      </trkpt>
      <trkpt lat="44.61213" lon="0.66925">
        <ele>141</ele>
        <time>2012-02-19T07:48:18Z</time>
      </trkpt>
      <trkpt lat="44.61212" lon="0.66927">
        <ele>141</ele>
        <time>2012-02-19T07:48:22Z</time>
      </trkpt>
      <trkpt lat="44.61211" lon="0.6693">
        <ele>140</ele>
        <time>2012-02-19T07:48:23Z</time>
      </trkpt>
      <trkpt lat="44.61211" lon="0.66932">
        <ele>140</ele>
        <time>2012-02-19T07:48:24Z</time>
      </trkpt>
      <trkpt lat="44.61211" lon="0.66935">
        <ele>140</ele>
        <time>2012-02-19T07:48:25Z</time>
      </trkpt>
      <trkpt lat="44.61211" lon="0.66938">
        <ele>140</ele>
        <time>2012-02-19T07:48:26Z</time>
      </trkpt>
      <trkpt lat="44.61212" lon="0.66942">
        <ele>140</ele>
        <time>2012-02-19T07:48:27Z</time>
      </trkpt>
      <trkpt lat="44.61213" lon="0.66945">
        <ele>140</ele>
        <time>2012-02-19T07:48:28Z</time>
      </trkpt>
      <trkpt lat="44.61213" lon="0.66949">
        <ele>140</ele>
        <time>2012-02-19T07:48:29Z</time>
      </trkpt>
      <trkpt lat="44.61214" lon="0.66953">
        <ele>140</ele>
        <time>2012-02-19T07:48:30Z</time>
      </trkpt>
      <trkpt lat="44.61214" lon="0.66957">
        <ele>140</ele>
        <time>2012-02-19T07:48:31Z</time>
      </trkpt>
      <trkpt lat="44.61214" lon="0.66961">
        <ele>140</ele>
        <time>2012-02-19T07:48:32Z</time>
      </trkpt>
      <trkpt lat="44.61214" lon="0.66965">
        <ele>140</ele>
        <time>2012-02-19T07:48:33Z</time>
      </trkpt>
      <trkpt lat="44.61215" lon="0.6697">
        <ele>140</ele>
        <time>2012-02-19T07:48:34Z</time>
      </trkpt>
      <trkpt lat="44.61215" lon="0.66974">
        <ele>140</ele>
        <time>2012-02-19T07:48:35Z</time>
      </trkpt>
      <trkpt lat="44.61216" lon="0.66978">
        <ele>140</ele>
        <time>2012-02-19T07:48:36Z</time>
      </trkpt>
      <trkpt lat="44.61216" lon="0.66983">
        <ele>139</ele>
        <time>2012-02-19T07:48:37Z</time>
      </trkpt>
      <trkpt lat="44.61216" lon="0.66987">
        <ele>139</ele>
        <time>2012-02-19T07:48:38Z</time>
      </trkpt>
      <trkpt lat="44.61216" lon="0.66991">
        <ele>139</ele>
        <time>2012-02-19T07:48:39Z</time>
      </trkpt>
      <trkpt lat="44.61216" lon="0.66995">
        <ele>139</ele>
        <time>2012-02-19T07:48:40Z</time>
      </trkpt>
      <trkpt lat="44.61217" lon="0.66998">
        <ele>139</ele>
        <time>2012-02-19T07:48:41Z</time>
      </trkpt>
      <trkpt lat="44.61219" lon="0.67001">
        <ele>139</ele>
        <time>2012-02-19T07:48:42Z</time>
      </trkpt>
      <trkpt lat="44.61221" lon="0.67003">
        <ele>139</ele>
        <time>2012-02-19T07:48:43Z</time>
      </trkpt>
      <trkpt lat="44.61222" lon="0.67004">
        <ele>139</ele>
        <time>2012-02-19T07:48:44Z</time>
      </trkpt>
      <trkpt lat="44.61224" lon="0.67005">
        <ele>139</ele>
        <time>2012-02-19T07:48:45Z</time>
      </trkpt>
      <trkpt lat="44.61226" lon="0.67004">
        <ele>139</ele>
        <time>2012-02-19T07:48:46Z</time>
      </trkpt>
      <trkpt lat="44.61227" lon="0.67003">
        <ele>139</ele>
        <time>2012-02-19T07:48:47Z</time>
      </trkpt>
      <trkpt lat="44.61229" lon="0.67001">
        <ele>139</ele>
        <time>2012-02-19T07:48:48Z</time>
      </trkpt>
      <trkpt lat="44.61231" lon="0.66998">
        <ele>139</ele>
        <time>2012-02-19T07:48:49Z</time>
      </trkpt>
      <trkpt lat="44.61233" lon="0.66997">
        <ele>139</ele>
        <time>2012-02-19T07:48:50Z</time>
      </trkpt>
      <trkpt lat="44.61236" lon="0.66995">
        <ele>139</ele>
        <time>2012-02-19T07:48:51Z</time>
      </trkpt>
      <trkpt lat="44.61239" lon="0.66994">
        <ele>139</ele>
        <time>2012-02-19T07:48:52Z</time>
      </trkpt>
      <trkpt lat="44.61241" lon="0.66992">
        <ele>139</ele>
        <time>2012-02-19T07:48:53Z</time>
      </trkpt>
      <trkpt lat="44.61243" lon="0.66991">
        <ele>139</ele>
        <time>2012-02-19T07:48:54Z</time>
      </trkpt>
      <trkpt lat="44.61246" lon="0.6699">
        <ele>139</ele>
        <time>2012-02-19T07:48:55Z</time>
      </trkpt>
      <trkpt lat="44.61248" lon="0.66988">
        <ele>139</ele>
        <time>2012-02-19T07:48:56Z</time>
      </trkpt>
      <trkpt lat="44.61251" lon="0.66987">
        <ele>139</ele>
        <time>2012-02-19T07:48:57Z</time>
      </trkpt>
      <trkpt lat="44.61254" lon="0.66985">
        <ele>139</ele>
        <time>2012-02-19T07:48:58Z</time>
      </trkpt>
      <trkpt lat="44.61257" lon="0.66984">
        <ele>139</ele>
        <time>2012-02-19T07:48:59Z</time>
      </trkpt>
      <trkpt lat="44.6126" lon="0.66982">
        <ele>139</ele>
        <time>2012-02-19T07:49:00Z</time>
      </trkpt>
      <trkpt lat="44.61263" lon="0.66981">
        <ele>139</ele>
        <time>2012-02-19T07:49:01Z</time>
      </trkpt>
      <trkpt lat="44.61266" lon="0.66979">
        <ele>139</ele>
        <time>2012-02-19T07:49:02Z</time>
      </trkpt>
      <trkpt lat="44.61268" lon="0.66978">
        <ele>139</ele>
        <time>2012-02-19T07:49:03Z</time>
      </trkpt>
      <trkpt lat="44.61271" lon="0.66975">
        <ele>139</ele>
        <time>2012-02-19T07:49:04Z</time>
      </trkpt>
      <trkpt lat="44.61274" lon="0.66974">
        <ele>139</ele>
        <time>2012-02-19T07:49:05Z</time>
      </trkpt>
      <trkpt lat="44.61278" lon="0.66971">
        <ele>140</ele>
        <time>2012-02-19T07:49:06Z</time>
      </trkpt>
      <trkpt lat="44.61282" lon="0.66969">
        <ele>141</ele>
        <time>2012-02-19T07:49:07Z</time>
      </trkpt>
      <trkpt lat="44.61285" lon="0.66967">
        <ele>142</ele>
        <time>2012-02-19T07:49:08Z</time>
      </trkpt>
      <trkpt lat="44.61288" lon="0.66965">
        <ele>143</ele>
        <time>2012-02-19T07:49:09Z</time>
      </trkpt>
      <trkpt lat="44.6129" lon="0.66963">
        <ele>143</ele>
        <time>2012-02-19T07:49:10Z</time>
      </trkpt>
      <trkpt lat="44.61293" lon="0.66961">
        <ele>144</ele>
        <time>2012-02-19T07:49:11Z</time>
      </trkpt>
      <trkpt lat="44.61296" lon="0.6696">
        <ele>144</ele>
        <time>2012-02-19T07:49:12Z</time>
      </trkpt>
      <trkpt lat="44.61299" lon="0.66957">
        <ele>144</ele>
        <time>2012-02-19T07:49:13Z</time>
      </trkpt>
      <trkpt lat="44.61301" lon="0.66955">
        <ele>144</ele>
        <time>2012-02-19T07:49:14Z</time>
      </trkpt>
      <trkpt lat="44.61305" lon="0.66952">
        <ele>145</ele>
        <time>2012-02-19T07:49:15Z</time>
      </trkpt>
      <trkpt lat="44.61308" lon="0.6695">
        <ele>145</ele>
        <time>2012-02-19T07:49:16Z</time>
      </trkpt>
      <trkpt lat="44.61311" lon="0.66946">
        <ele>145</ele>
        <time>2012-02-19T07:49:17Z</time>
      </trkpt>
      <trkpt lat="44.61314" lon="0.66943">
        <ele>146</ele>
        <time>2012-02-19T07:49:18Z</time>
      </trkpt>
      <trkpt lat="44.61317" lon="0.6694">
        <ele>146</ele>
        <time>2012-02-19T07:49:19Z</time>
      </trkpt>
      <trkpt lat="44.6132" lon="0.66937">
        <ele>146</ele>
        <time>2012-02-19T07:49:20Z</time>
      </trkpt>
      <trkpt lat="44.61323" lon="0.66934">
        <ele>147</ele>
        <time>2012-02-19T07:49:21Z</time>
      </trkpt>
      <trkpt lat="44.61325" lon="0.66931">
        <ele>147</ele>
        <time>2012-02-19T07:49:22Z</time>
      </trkpt>
      <trkpt lat="44.61328" lon="0.66928">
        <ele>147</ele>
        <time>2012-02-19T07:49:23Z</time>
      </trkpt>
      <trkpt lat="44.61331" lon="0.66925">
        <ele>147</ele>
        <time>2012-02-19T07:49:24Z</time>
      </trkpt>
      <trkpt lat="44.61334" lon="0.66922">
        <ele>147</ele>
        <time>2012-02-19T07:49:25Z</time>
      </trkpt>
      <trkpt lat="44.61337" lon="0.66919">
        <ele>147</ele>
        <time>2012-02-19T07:49:26Z</time>
      </trkpt>
      <trkpt lat="44.6134" lon="0.66915">
        <ele>147</ele>
        <time>2012-02-19T07:49:27Z</time>
      </trkpt>
      <trkpt lat="44.61343" lon="0.66913">
        <ele>147</ele>
        <time>2012-02-19T07:49:28Z</time>
      </trkpt>
      <trkpt lat="44.61346" lon="0.6691">
        <ele>147</ele>
        <time>2012-02-19T07:49:29Z</time>
      </trkpt>
      <trkpt lat="44.61349" lon="0.66908">
        <ele>147</ele>
        <time>2012-02-19T07:49:30Z</time>
      </trkpt>
      <trkpt lat="44.61353" lon="0.66906">
        <ele>147</ele>
        <time>2012-02-19T07:49:31Z</time>
      </trkpt>
      <trkpt lat="44.61356" lon="0.66904">
        <ele>147</ele>
        <time>2012-02-19T07:49:32Z</time>
      </trkpt>
      <trkpt lat="44.6136" lon="0.66902">
        <ele>147</ele>
        <time>2012-02-19T07:49:33Z</time>
      </trkpt>
      <trkpt lat="44.61364" lon="0.669">
        <ele>147</ele>
        <time>2012-02-19T07:49:34Z</time>
      </trkpt>
      <trkpt lat="44.61367" lon="0.66898">
        <ele>147</ele>
        <time>2012-02-19T07:49:35Z</time>
      </trkpt>
      <trkpt lat="44.61371" lon="0.66896">
        <ele>147</ele>
        <time>2012-02-19T07:49:36Z</time>
      </trkpt>
      <trkpt lat="44.61374" lon="0.66895">
        <ele>147</ele>
        <time>2012-02-19T07:49:37Z</time>
      </trkpt>
      <trkpt lat="44.61378" lon="0.66894">
        <ele>147</ele>
        <time>2012-02-19T07:49:38Z</time>
      </trkpt>
      <trkpt lat="44.61381" lon="0.66892">
        <ele>147</ele>
        <time>2012-02-19T07:49:39Z</time>
      </trkpt>
      <trkpt lat="44.61384" lon="0.66891">
        <ele>147</ele>
        <time>2012-02-19T07:49:40Z</time>
      </trkpt>
      <trkpt lat="44.61387" lon="0.6689">
        <ele>147</ele>
        <time>2012-02-19T07:49:41Z</time>
      </trkpt>
      <trkpt lat="44.6139" lon="0.6689">
        <ele>147</ele>
        <time>2012-02-19T07:49:42Z</time>
      </trkpt>
      <trkpt lat="44.61393" lon="0.66888">
        <ele>147</ele>
        <time>2012-02-19T07:49:43Z</time>
      </trkpt>
      <trkpt lat="44.61396" lon="0.66885">
        <ele>147</ele>
        <time>2012-02-19T07:49:44Z</time>
      </trkpt>
      <trkpt lat="44.61398" lon="0.66883">
        <ele>147</ele>
        <time>2012-02-19T07:49:45Z</time>
      </trkpt>
      <trkpt lat="44.61402" lon="0.66881">
        <ele>147</ele>
        <time>2012-02-19T07:49:46Z</time>
      </trkpt>
      <trkpt lat="44.61406" lon="0.66879">
        <ele>147</ele>
        <time>2012-02-19T07:49:47Z</time>
      </trkpt>
      <trkpt lat="44.6141" lon="0.66876">
        <ele>147</ele>
        <time>2012-02-19T07:49:48Z</time>
      </trkpt>
      <trkpt lat="44.61413" lon="0.66873">
        <ele>147</ele>
        <time>2012-02-19T07:49:49Z</time>
      </trkpt>
      <trkpt lat="44.61417" lon="0.66869">
        <ele>147</ele>
        <time>2012-02-19T07:49:50Z</time>
      </trkpt>
      <trkpt lat="44.6142" lon="0.66867">
        <ele>147</ele>
        <time>2012-02-19T07:49:51Z</time>
      </trkpt>
      <trkpt lat="44.61424" lon="0.66865">
        <ele>147</ele>
        <time>2012-02-19T07:49:52Z</time>
      </trkpt>
      <trkpt lat="44.61428" lon="0.66863">
        <ele>147</ele>
        <time>2012-02-19T07:49:53Z</time>
      </trkpt>
      <trkpt lat="44.61431" lon="0.66861">
        <ele>147</ele>
        <time>2012-02-19T07:49:54Z</time>
      </trkpt>
      <trkpt lat="44.61434" lon="0.66857">
        <ele>147</ele>
        <time>2012-02-19T07:49:55Z</time>
      </trkpt>
      <trkpt lat="44.61438" lon="0.66853">
        <ele>147</ele>
        <time>2012-02-19T07:49:56Z</time>
      </trkpt>
      <trkpt lat="44.61441" lon="0.66851">
        <ele>147</ele>
        <time>2012-02-19T07:49:57Z</time>
      </trkpt>
      <trkpt lat="44.61444" lon="0.66849">
        <ele>147</ele>
        <time>2012-02-19T07:49:58Z</time>
      </trkpt>
      <trkpt lat="44.61448" lon="0.66847">
        <ele>147</ele>
        <time>2012-02-19T07:49:59Z</time>
      </trkpt>
      <trkpt lat="44.61452" lon="0.66844">
        <ele>147</ele>
        <time>2012-02-19T07:50:00Z</time>
      </trkpt>
      <trkpt lat="44.61456" lon="0.66842">
        <ele>147</ele>
        <time>2012-02-19T07:50:01Z</time>
      </trkpt>
      <trkpt lat="44.6146" lon="0.66838">
        <ele>147</ele>
        <time>2012-02-19T07:50:02Z</time>
      </trkpt>
      <trkpt lat="44.61464" lon="0.66835">
        <ele>147</ele>
        <time>2012-02-19T07:50:03Z</time>
      </trkpt>
      <trkpt lat="44.61467" lon="0.66831">
        <ele>147</ele>
        <time>2012-02-19T07:50:04Z</time>
      </trkpt>
      <trkpt lat="44.61471" lon="0.66829">
        <ele>147</ele>
        <time>2012-02-19T07:50:05Z</time>
      </trkpt>
      <trkpt lat="44.61475" lon="0.66827">
        <ele>147</ele>
        <time>2012-02-19T07:50:06Z</time>
      </trkpt>
      <trkpt lat="44.61478" lon="0.66824">
        <ele>147</ele>
        <time>2012-02-19T07:50:07Z</time>
      </trkpt>
      <trkpt lat="44.61482" lon="0.66821">
        <ele>147</ele>
        <time>2012-02-19T07:50:08Z</time>
      </trkpt>
      <trkpt lat="44.61486" lon="0.6682">
        <ele>146</ele>
        <time>2012-02-19T07:50:09Z</time>
      </trkpt>
      <trkpt lat="44.61489" lon="0.66817">
        <ele>146</ele>
        <time>2012-02-19T07:50:10Z</time>
      </trkpt>
      <trkpt lat="44.61493" lon="0.66815">
        <ele>146</ele>
        <time>2012-02-19T07:50:11Z</time>
      </trkpt>
      <trkpt lat="44.61497" lon="0.66813">
        <ele>146</ele>
        <time>2012-02-19T07:50:12Z</time>
      </trkpt>
      <trkpt lat="44.61501" lon="0.6681">
        <ele>146</ele>
        <time>2012-02-19T07:50:13Z</time>
      </trkpt>
      <trkpt lat="44.61506" lon="0.66808">
        <ele>146</ele>
        <time>2012-02-19T07:50:14Z</time>
      </trkpt>
      <trkpt lat="44.6151" lon="0.66805">
        <ele>145</ele>
        <time>2012-02-19T07:50:15Z</time>
      </trkpt>
      <trkpt lat="44.61515" lon="0.66802">
        <ele>144</ele>
        <time>2012-02-19T07:50:16Z</time>
      </trkpt>
      <trkpt lat="44.61518" lon="0.66799">
        <ele>143</ele>
        <time>2012-02-19T07:50:17Z</time>
      </trkpt>
      <trkpt lat="44.61522" lon="0.66796">
        <ele>143</ele>
        <time>2012-02-19T07:50:18Z</time>
      </trkpt>
      <trkpt lat="44.61526" lon="0.66794">
        <ele>142</ele>
        <time>2012-02-19T07:50:19Z</time>
      </trkpt>
      <trkpt lat="44.6153" lon="0.66792">
        <ele>142</ele>
        <time>2012-02-19T07:50:20Z</time>
      </trkpt>
      <trkpt lat="44.61535" lon="0.66789">
        <ele>142</ele>
        <time>2012-02-19T07:50:21Z</time>
      </trkpt>
      <trkpt lat="44.61539" lon="0.66787">
        <ele>142</ele>
        <time>2012-02-19T07:50:22Z</time>
      </trkpt>
      <trkpt lat="44.61543" lon="0.66785">
        <ele>142</ele>
        <time>2012-02-19T07:50:23Z</time>
      </trkpt>
      <trkpt lat="44.61547" lon="0.66782">
        <ele>142</ele>
        <time>2012-02-19T07:50:24Z</time>
      </trkpt>
      <trkpt lat="44.61552" lon="0.6678">
        <ele>142</ele>
        <time>2012-02-19T07:50:25Z</time>
      </trkpt>
      <trkpt lat="44.61556" lon="0.66777">
        <ele>142</ele>
        <time>2012-02-19T07:50:26Z</time>
      </trkpt>
      <trkpt lat="44.6156" lon="0.66774">
        <ele>142</ele>
        <time>2012-02-19T07:50:27Z</time>
      </trkpt>
      <trkpt lat="44.61565" lon="0.66772">
        <ele>142</ele>
        <time>2012-02-19T07:50:28Z</time>
      </trkpt>
      <trkpt lat="44.61569" lon="0.6677">
        <ele>142</ele>
        <time>2012-02-19T07:50:29Z</time>
      </trkpt>
      <trkpt lat="44.61574" lon="0.66768">
        <ele>142</ele>
        <time>2012-02-19T07:50:30Z</time>
      </trkpt>
      <trkpt lat="44.61578" lon="0.66766">
        <ele>142</ele>
        <time>2012-02-19T07:50:31Z</time>
      </trkpt>
      <trkpt lat="44.61583" lon="0.66765">
        <ele>142</ele>
        <time>2012-02-19T07:50:32Z</time>
      </trkpt>
      <trkpt lat="44.61587" lon="0.66764">
        <ele>142</ele>
        <time>2012-02-19T07:50:33Z</time>
      </trkpt>
      <trkpt lat="44.61591" lon="0.66762">
        <ele>142</ele>
        <time>2012-02-19T07:50:34Z</time>
      </trkpt>
      <trkpt lat="44.61596" lon="0.6676">
        <ele>142</ele>
        <time>2012-02-19T07:50:35Z</time>
      </trkpt>
      <trkpt lat="44.616" lon="0.66759">
        <ele>142</ele>
        <time>2012-02-19T07:50:36Z</time>
      </trkpt>
      <trkpt lat="44.61605" lon="0.66757">
        <ele>142</ele>
        <time>2012-02-19T07:50:37Z</time>
      </trkpt>
      <trkpt lat="44.6161" lon="0.66755">
        <ele>142</ele>
        <time>2012-02-19T07:50:38Z</time>
      </trkpt>
      <trkpt lat="44.61614" lon="0.66753">
        <ele>142</ele>
        <time>2012-02-19T07:50:39Z</time>
      </trkpt>
      <trkpt lat="44.61618" lon="0.66751">
        <ele>142</ele>
        <time>2012-02-19T07:50:40Z</time>
      </trkpt>
      <trkpt lat="44.61623" lon="0.6675">
        <ele>142</ele>
        <time>2012-02-19T07:50:41Z</time>
      </trkpt>
      <trkpt lat="44.61628" lon="0.66749">
        <ele>142</ele>
        <time>2012-02-19T07:50:42Z</time>
      </trkpt>
      <trkpt lat="44.61632" lon="0.66748">
        <ele>142</ele>
        <time>2012-02-19T07:50:43Z</time>
      </trkpt>
      <trkpt lat="44.61637" lon="0.66747">
        <ele>142</ele>
        <time>2012-02-19T07:50:44Z</time>
      </trkpt>
      <trkpt lat="44.61642" lon="0.66746">
        <ele>142</ele>
        <time>2012-02-19T07:50:45Z</time>
      </trkpt>
      <trkpt lat="44.61647" lon="0.66746">
        <ele>142</ele>
        <time>2012-02-19T07:50:46Z</time>
      </trkpt>
      <trkpt lat="44.61652" lon="0.66745">
        <ele>142</ele>
        <time>2012-02-19T07:50:47Z</time>
      </trkpt>
      <trkpt lat="44.61656" lon="0.66744">
        <ele>142</ele>
        <time>2012-02-19T07:50:48Z</time>
      </trkpt>
      <trkpt lat="44.61661" lon="0.66742">
        <ele>142</ele>
        <time>2012-02-19T07:50:49Z</time>
      </trkpt>
      <trkpt lat="44.61665" lon="0.66742">
        <ele>142</ele>
        <time>2012-02-19T07:50:50Z</time>
      </trkpt>
      <trkpt lat="44.6167" lon="0.66742">
        <ele>142</ele>
        <time>2012-02-19T07:50:51Z</time>
      </trkpt>
      <trkpt lat="44.61675" lon="0.66741">
        <ele>142</ele>
        <time>2012-02-19T07:50:52Z</time>
      </trkpt>
      <trkpt lat="44.61679" lon="0.6674">
        <ele>142</ele>
        <time>2012-02-19T07:50:53Z</time>
      </trkpt>
      <trkpt lat="44.61684" lon="0.66739">
        <ele>142</ele>
        <time>2012-02-19T07:50:54Z</time>
      </trkpt>
      <trkpt lat="44.61689" lon="0.66738">
        <ele>142</ele>
        <time>2012-02-19T07:50:55Z</time>
      </trkpt>
      <trkpt lat="44.61693" lon="0.66736">
        <ele>142</ele>
        <time>2012-02-19T07:50:56Z</time>
      </trkpt>
      <trkpt lat="44.61698" lon="0.66736">
        <ele>142</ele>
        <time>2012-02-19T07:50:57Z</time>
      </trkpt>
      <trkpt lat="44.61702" lon="0.66735">
        <ele>142</ele>
        <time>2012-02-19T07:50:58Z</time>
      </trkpt>
      <trkpt lat="44.61707" lon="0.66733">
        <ele>142</ele>
        <time>2012-02-19T07:50:59Z</time>
      </trkpt>
      <trkpt lat="44.61711" lon="0.66732">
        <ele>142</ele>
        <time>2012-02-19T07:51:00Z</time>
      </trkpt>
      <trkpt lat="44.61716" lon="0.66731">
        <ele>142</ele>
        <time>2012-02-19T07:51:01Z</time>
      </trkpt>
      <trkpt lat="44.61721" lon="0.6673">
        <ele>142</ele>
        <time>2012-02-19T07:51:02Z</time>
      </trkpt>
      <trkpt lat="44.61725" lon="0.66729">
        <ele>142</ele>
        <time>2012-02-19T07:51:03Z</time>
      </trkpt>
      <trkpt lat="44.6173" lon="0.66728">
        <ele>142</ele>
        <time>2012-02-19T07:51:04Z</time>
      </trkpt>
      <trkpt lat="44.61734" lon="0.66727">
        <ele>142</ele>
        <time>2012-02-19T07:51:05Z</time>
      </trkpt>
      <trkpt lat="44.61738" lon="0.66726">
        <ele>142</ele>
        <time>2012-02-19T07:51:06Z</time>
      </trkpt>
      <trkpt lat="44.61742" lon="0.66724">
        <ele>142</ele>
        <time>2012-02-19T07:51:07Z</time>
      </trkpt>
      <trkpt lat="44.61746" lon="0.66722">
        <ele>142</ele>
        <time>2012-02-19T07:51:08Z</time>
      </trkpt>
      <trkpt lat="44.61749" lon="0.6672">
        <ele>142</ele>
        <time>2012-02-19T07:51:09Z</time>
      </trkpt>
      <trkpt lat="44.61753" lon="0.66719">
        <ele>142</ele>
        <time>2012-02-19T07:51:10Z</time>
      </trkpt>
      <trkpt lat="44.61756" lon="0.66717">
        <ele>142</ele>
        <time>2012-02-19T07:51:11Z</time>
      </trkpt>
      <trkpt lat="44.6176" lon="0.66716">
        <ele>142</ele>
        <time>2012-02-19T07:51:12Z</time>
      </trkpt>
      <trkpt lat="44.61763" lon="0.66714">
        <ele>142</ele>
        <time>2012-02-19T07:51:13Z</time>
      </trkpt>
      <trkpt lat="44.61766" lon="0.66713">
        <ele>142</ele>
        <time>2012-02-19T07:51:14Z</time>
      </trkpt>
      <trkpt lat="44.61769" lon="0.66712">
        <ele>142</ele>
        <time>2012-02-19T07:51:15Z</time>
      </trkpt>
      <trkpt lat="44.61771" lon="0.66711">
        <ele>142</ele>
        <time>2012-02-19T07:51:16Z</time>
      </trkpt>
      <trkpt lat="44.61772" lon="0.6671">
        <ele>142</ele>
        <time>2012-02-19T07:51:17Z</time>
      </trkpt>
      <trkpt lat="44.61774" lon="0.6671">
        <ele>142</ele>
        <time>2012-02-19T07:51:19Z</time>
      </trkpt>
      <trkpt lat="44.61775" lon="0.66709">
        <ele>142</ele>
        <time>2012-02-19T07:51:22Z</time>
      </trkpt>
      <trkpt lat="44.61774" lon="0.66709">
        <ele>142</ele>
        <time>2012-02-19T07:51:25Z</time>
      </trkpt>
      <trkpt lat="44.61772" lon="0.6671">
        <ele>143</ele>
        <time>2012-02-19T07:51:26Z</time>
      </trkpt>
      <trkpt lat="44.61771" lon="0.6671">
        <ele>144</ele>
        <time>2012-02-19T07:51:27Z</time>
      </trkpt>
      <trkpt lat="44.61769" lon="0.66711">
        <ele>145</ele>
        <time>2012-02-19T07:51:28Z</time>
      </trkpt>
      <trkpt lat="44.61767" lon="0.66711">
        <ele>145</ele>
        <time>2012-02-19T07:51:29Z</time>
      </trkpt>
      <trkpt lat="44.61765" lon="0.66713">
        <ele>146</ele>
        <time>2012-02-19T07:51:30Z</time>
      </trkpt>
      <trkpt lat="44.61763" lon="0.66716">
        <ele>146</ele>
        <time>2012-02-19T07:51:31Z</time>
      </trkpt>
      <trkpt lat="44.61763" lon="0.6672">
        <ele>146</ele>
        <time>2012-02-19T07:51:32Z</time>
      </trkpt>
      <trkpt lat="44.61764" lon="0.66724">
        <ele>146</ele>
        <time>2012-02-19T07:51:33Z</time>
      </trkpt>
      <trkpt lat="44.61766" lon="0.66727">
        <ele>146</ele>
        <time>2012-02-19T07:51:34Z</time>
      </trkpt>
      <trkpt lat="44.61768" lon="0.66731">
        <ele>146</ele>
        <time>2012-02-19T07:51:35Z</time>
      </trkpt>
      <trkpt lat="44.61771" lon="0.66733">
        <ele>146</ele>
        <time>2012-02-19T07:51:36Z</time>
      </trkpt>
      <trkpt lat="44.61774" lon="0.66736">
        <ele>146</ele>
        <time>2012-02-19T07:51:37Z</time>
      </trkpt>
      <trkpt lat="44.61778" lon="0.66738">
        <ele>146</ele>
        <time>2012-02-19T07:51:38Z</time>
      </trkpt>
      <trkpt lat="44.61781" lon="0.66741">
        <ele>146</ele>
        <time>2012-02-19T07:51:39Z</time>
      </trkpt>
      <trkpt lat="44.61783" lon="0.66743">
        <ele>146</ele>
        <time>2012-02-19T07:51:40Z</time>
      </trkpt>
      <trkpt lat="44.61786" lon="0.66745">
        <ele>146</ele>
        <time>2012-02-19T07:51:41Z</time>
      </trkpt>
      <trkpt lat="44.61789" lon="0.66748">
        <ele>146</ele>
        <time>2012-02-19T07:51:42Z</time>
      </trkpt>
      <trkpt lat="44.61792" lon="0.66751">
        <ele>146</ele>
        <time>2012-02-19T07:51:43Z</time>
      </trkpt>
      <trkpt lat="44.61795" lon="0.66755">
        <ele>146</ele>
        <time>2012-02-19T07:51:44Z</time>
      </trkpt>
      <trkpt lat="44.61798" lon="0.66759">
        <ele>146</ele>
        <time>2012-02-19T07:51:45Z</time>
      </trkpt>
      <trkpt lat="44.61801" lon="0.66763">
        <ele>146</ele>
        <time>2012-02-19T07:51:46Z</time>
      </trkpt>
      <trkpt lat="44.61804" lon="0.66767">
        <ele>146</ele>
        <time>2012-02-19T07:51:47Z</time>
      </trkpt>
      <trkpt lat="44.61808" lon="0.66771">
        <ele>145</ele>
        <time>2012-02-19T07:51:48Z</time>
      </trkpt>
      <trkpt lat="44.61813" lon="0.66774">
        <ele>144</ele>
        <time>2012-02-19T07:51:49Z</time>
      </trkpt>
      <trkpt lat="44.61817" lon="0.66777">
        <ele>144</ele>
        <time>2012-02-19T07:51:50Z</time>
      </trkpt>
      <trkpt lat="44.61821" lon="0.66781">
        <ele>143</ele>
        <time>2012-02-19T07:51:51Z</time>
      </trkpt>
      <trkpt lat="44.61826" lon="0.66784">
        <ele>142</ele>
        <time>2012-02-19T07:51:52Z</time>
      </trkpt>
      <trkpt lat="44.61831" lon="0.66787">
        <ele>142</ele>
        <time>2012-02-19T07:51:53Z</time>
      </trkpt>
      <trkpt lat="44.61836" lon="0.6679">
        <ele>141</ele>
        <time>2012-02-19T07:51:54Z</time>
      </trkpt>
      <trkpt lat="44.61841" lon="0.66792">
        <ele>140</ele>
        <time>2012-02-19T07:51:55Z</time>
      </trkpt>
      <trkpt lat="44.61846" lon="0.66794">
        <ele>139</ele>
        <time>2012-02-19T07:51:56Z</time>
      </trkpt>
      <trkpt lat="44.61851" lon="0.66797">
        <ele>138</ele>
        <time>2012-02-19T07:51:57Z</time>
      </trkpt>
      <trkpt lat="44.61856" lon="0.66799">
        <ele>137</ele>
        <time>2012-02-19T07:51:58Z</time>
      </trkpt>
      <trkpt lat="44.61861" lon="0.66801">
        <ele>136</ele>
        <time>2012-02-19T07:51:59Z</time>
      </trkpt>
      <trkpt lat="44.61866" lon="0.66802">
        <ele>135</ele>
        <time>2012-02-19T07:52:00Z</time>
      </trkpt>
      <trkpt lat="44.61871" lon="0.66805">
        <ele>134</ele>
        <time>2012-02-19T07:52:01Z</time>
      </trkpt>
      <trkpt lat="44.61877" lon="0.66807">
        <ele>133</ele>
        <time>2012-02-19T07:52:02Z</time>
      </trkpt>
      <trkpt lat="44.61882" lon="0.66809">
        <ele>132</ele>
        <time>2012-02-19T07:52:03Z</time>
      </trkpt>
      <trkpt lat="44.61886" lon="0.66812">
        <ele>131</ele>
        <time>2012-02-19T07:52:04Z</time>
      </trkpt>
      <trkpt lat="44.6189" lon="0.66814">
        <ele>130</ele>
        <time>2012-02-19T07:52:05Z</time>
      </trkpt>
      <trkpt lat="44.61894" lon="0.66817">
        <ele>128</ele>
        <time>2012-02-19T07:52:06Z</time>
      </trkpt>
      <trkpt lat="44.61899" lon="0.66821">
        <ele>126</ele>
        <time>2012-02-19T07:52:07Z</time>
      </trkpt>
      <trkpt lat="44.61904" lon="0.66825">
        <ele>125</ele>
        <time>2012-02-19T07:52:08Z</time>
      </trkpt>
      <trkpt lat="44.61908" lon="0.6683">
        <ele>124</ele>
        <time>2012-02-19T07:52:09Z</time>
      </trkpt>
      <trkpt lat="44.61912" lon="0.66834">
        <ele>122</ele>
        <time>2012-02-19T07:52:10Z</time>
      </trkpt>
      <trkpt lat="44.61916" lon="0.66839">
        <ele>120</ele>
        <time>2012-02-19T07:52:11Z</time>
      </trkpt>
      <trkpt lat="44.61919" lon="0.66844">
        <ele>119</ele>
        <time>2012-02-19T07:52:12Z</time>
      </trkpt>
      <trkpt lat="44.61922" lon="0.6685">
        <ele>117</ele>
        <time>2012-02-19T07:52:13Z</time>
      </trkpt>
      <trkpt lat="44.61925" lon="0.66857">
        <ele>115</ele>
        <time>2012-02-19T07:52:14Z</time>
      </trkpt>
      <trkpt lat="44.61927" lon="0.66864">
        <ele>113</ele>
        <time>2012-02-19T07:52:15Z</time>
      </trkpt>
      <trkpt lat="44.61929" lon="0.66871">
        <ele>111</ele>
        <time>2012-02-19T07:52:16Z</time>
      </trkpt>
      <trkpt lat="44.61929" lon="0.66878">
        <ele>109</ele>
        <time>2012-02-19T07:52:17Z</time>
      </trkpt>
      <trkpt lat="44.6193" lon="0.66884">
        <ele>107</ele>
        <time>2012-02-19T07:52:18Z</time>
      </trkpt>
      <trkpt lat="44.61931" lon="0.66891">
        <ele>105</ele>
        <time>2012-02-19T07:52:19Z</time>
      </trkpt>
      <trkpt lat="44.61932" lon="0.66898">
        <ele>104</ele>
        <time>2012-02-19T07:52:20Z</time>
      </trkpt>
      <trkpt lat="44.61932" lon="0.66904">
        <ele>103</ele>
        <time>2012-02-19T07:52:21Z</time>
      </trkpt>
      <trkpt lat="44.61933" lon="0.66912">
        <ele>102</ele>
        <time>2012-02-19T07:52:22Z</time>
      </trkpt>
      <trkpt lat="44.61935" lon="0.6692">
        <ele>101</ele>
        <time>2012-02-19T07:52:23Z</time>
      </trkpt>
      <trkpt lat="44.61935" lon="0.66927">
        <ele>100</ele>
        <time>2012-02-19T07:52:24Z</time>
      </trkpt>
      <trkpt lat="44.61936" lon="0.66933">
        <ele>99</ele>
        <time>2012-02-19T07:52:25Z</time>
      </trkpt>
      <trkpt lat="44.61937" lon="0.66938">
        <ele>98</ele>
        <time>2012-02-19T07:52:26Z</time>
      </trkpt>
      <trkpt lat="44.61938" lon="0.66943">
        <ele>97</ele>
        <time>2012-02-19T07:52:27Z</time>
      </trkpt>
      <trkpt lat="44.61939" lon="0.66948">
        <ele>96</ele>
        <time>2012-02-19T07:52:28Z</time>
      </trkpt>
      <trkpt lat="44.6194" lon="0.66953">
        <ele>95</ele>
        <time>2012-02-19T07:52:29Z</time>
      </trkpt>
      <trkpt lat="44.6194" lon="0.66957">
        <ele>95</ele>
        <time>2012-02-19T07:52:30Z</time>
      </trkpt>
      <trkpt lat="44.6194" lon="0.6696">
        <ele>95</ele>
        <time>2012-02-19T07:52:31Z</time>
      </trkpt>
      <trkpt lat="44.61941" lon="0.66963">
        <ele>95</ele>
        <time>2012-02-19T07:52:32Z</time>
      </trkpt>
      <trkpt lat="44.61941" lon="0.66967">
        <ele>94</ele>
        <time>2012-02-19T07:52:33Z</time>
      </trkpt>
      <trkpt lat="44.61941" lon="0.6697">
        <ele>94</ele>
        <time>2012-02-19T07:52:34Z</time>
      </trkpt>
      <trkpt lat="44.61942" lon="0.66973">
        <ele>94</ele>
        <time>2012-02-19T07:52:35Z</time>
      </trkpt>
      <trkpt lat="44.61943" lon="0.66976">
        <ele>94</ele>
        <time>2012-02-19T07:52:36Z</time>
      </trkpt>
      <trkpt lat="44.61944" lon="0.6698">
        <ele>94</ele>
        <time>2012-02-19T07:52:37Z</time>
      </trkpt>
      <trkpt lat="44.61945" lon="0.66984">
        <ele>94</ele>
        <time>2012-02-19T07:52:38Z</time>
      </trkpt>
      <trkpt lat="44.61945" lon="0.66987">
        <ele>94</ele>
        <time>2012-02-19T07:52:39Z</time>
      </trkpt>
      <trkpt lat="44.61946" lon="0.6699">
        <ele>93</ele>
        <time>2012-02-19T07:52:40Z</time>
      </trkpt>
      <trkpt lat="44.61946" lon="0.66995">
        <ele>93</ele>
        <time>2012-02-19T07:52:41Z</time>
      </trkpt>
      <trkpt lat="44.61948" lon="0.67">
        <ele>93</ele>
        <time>2012-02-19T07:52:42Z</time>
      </trkpt>
      <trkpt lat="44.61948" lon="0.67006">
        <ele>93</ele>
        <time>2012-02-19T07:52:43Z</time>
      </trkpt>
      <trkpt lat="44.61948" lon="0.67011">
        <ele>93</ele>
        <time>2012-02-19T07:52:44Z</time>
      </trkpt>
      <trkpt lat="44.61948" lon="0.67015">
        <ele>93</ele>
        <time>2012-02-19T07:52:45Z</time>
      </trkpt>
      <trkpt lat="44.61948" lon="0.67021">
        <ele>93</ele>
        <time>2012-02-19T07:52:46Z</time>
      </trkpt>
      <trkpt lat="44.61948" lon="0.67026">
        <ele>93</ele>
        <time>2012-02-19T07:52:47Z</time>
      </trkpt>
      <trkpt lat="44.61949" lon="0.67033">
        <ele>93</ele>
        <time>2012-02-19T07:52:48Z</time>
      </trkpt>
      <trkpt lat="44.6195" lon="0.6704">
        <ele>93</ele>
        <time>2012-02-19T07:52:49Z</time>
      </trkpt>
      <trkpt lat="44.61951" lon="0.67046">
        <ele>93</ele>
        <time>2012-02-19T07:52:50Z</time>
      </trkpt>
      <trkpt lat="44.61952" lon="0.67053">
        <ele>93</ele>
        <time>2012-02-19T07:52:51Z</time>
      </trkpt>
      <trkpt lat="44.61953" lon="0.67059">
        <ele>93</ele>
        <time>2012-02-19T07:52:52Z</time>
      </trkpt>
      <trkpt lat="44.61954" lon="0.67064">
        <ele>93</ele>
        <time>2012-02-19T07:52:53Z</time>
      </trkpt>
      <trkpt lat="44.61956" lon="0.6707">
        <ele>93</ele>
        <time>2012-02-19T07:52:54Z</time>
      </trkpt>
      <trkpt lat="44.61958" lon="0.67075">
        <ele>93</ele>
        <time>2012-02-19T07:52:55Z</time>
      </trkpt>
      <trkpt lat="44.6196" lon="0.6708">
        <ele>93</ele>
        <time>2012-02-19T07:52:56Z</time>
      </trkpt>
      <trkpt lat="44.61963" lon="0.67084">
        <ele>93</ele>
        <time>2012-02-19T07:52:57Z</time>
      </trkpt>
      <trkpt lat="44.61966" lon="0.67088">
        <ele>93</ele>
        <time>2012-02-19T07:52:58Z</time>
      </trkpt>
      <trkpt lat="44.61969" lon="0.67091">
        <ele>93</ele>
        <time>2012-02-19T07:52:59Z</time>
      </trkpt>
      <trkpt lat="44.61971" lon="0.67094">
        <ele>93</ele>
        <time>2012-02-19T07:53:00Z</time>
      </trkpt>
      <trkpt lat="44.61974" lon="0.67097">
        <ele>93</ele>
        <time>2012-02-19T07:53:01Z</time>
      </trkpt>
      <trkpt lat="44.61976" lon="0.671">
        <ele>93</ele>
        <time>2012-02-19T07:53:02Z</time>
      </trkpt>
      <trkpt lat="44.61979" lon="0.67103">
        <ele>93</ele>
        <time>2012-02-19T07:53:03Z</time>
      </trkpt>
      <trkpt lat="44.61982" lon="0.67107">
        <ele>93</ele>
        <time>2012-02-19T07:53:04Z</time>
      </trkpt>
      <trkpt lat="44.61985" lon="0.67111">
        <ele>92</ele>
        <time>2012-02-19T07:53:05Z</time>
      </trkpt>
      <trkpt lat="44.61989" lon="0.67115">
        <ele>92</ele>
        <time>2012-02-19T07:53:06Z</time>
      </trkpt>
      <trkpt lat="44.61993" lon="0.67119">
        <ele>91</ele>
        <time>2012-02-19T07:53:07Z</time>
      </trkpt>
      <trkpt lat="44.61998" lon="0.67123">
        <ele>91</ele>
        <time>2012-02-19T07:53:08Z</time>
      </trkpt>
      <trkpt lat="44.62002" lon="0.67127">
        <ele>90</ele>
        <time>2012-02-19T07:53:09Z</time>
      </trkpt>
      <trkpt lat="44.62006" lon="0.67131">
        <ele>90</ele>
        <time>2012-02-19T07:53:10Z</time>
      </trkpt>
      <trkpt lat="44.62011" lon="0.67135">
        <ele>89</ele>
        <time>2012-02-19T07:53:11Z</time>
      </trkpt>
      <trkpt lat="44.62015" lon="0.67138">
        <ele>89</ele>
        <time>2012-02-19T07:53:12Z</time>
      </trkpt>
      <trkpt lat="44.62019" lon="0.67142">
        <ele>88</ele>
        <time>2012-02-19T07:53:13Z</time>
      </trkpt>
      <trkpt lat="44.62024" lon="0.67146">
        <ele>88</ele>
        <time>2012-02-19T07:53:14Z</time>
      </trkpt>
      <trkpt lat="44.62027" lon="0.6715">
        <ele>88</ele>
        <time>2012-02-19T07:53:15Z</time>
      </trkpt>
      <trkpt lat="44.62032" lon="0.67154">
        <ele>87</ele>
        <time>2012-02-19T07:53:16Z</time>
      </trkpt>
      <trkpt lat="44.62035" lon="0.67158">
        <ele>87</ele>
        <time>2012-02-19T07:53:17Z</time>
      </trkpt>
      <trkpt lat="44.6204" lon="0.67162">
        <ele>87</ele>
        <time>2012-02-19T07:53:18Z</time>
      </trkpt>
      <trkpt lat="44.62043" lon="0.67167">
        <ele>87</ele>
        <time>2012-02-19T07:53:19Z</time>
      </trkpt>
      <trkpt lat="44.62047" lon="0.67172">
        <ele>86</ele>
        <time>2012-02-19T07:53:20Z</time>
      </trkpt>
      <trkpt lat="44.62051" lon="0.67177">
        <ele>86</ele>
        <time>2012-02-19T07:53:21Z</time>
      </trkpt>
      <trkpt lat="44.62054" lon="0.67183">
        <ele>86</ele>
        <time>2012-02-19T07:53:22Z</time>
      </trkpt>
      <trkpt lat="44.62058" lon="0.67189">
        <ele>86</ele>
        <time>2012-02-19T07:53:23Z</time>
      </trkpt>
      <trkpt lat="44.62061" lon="0.67195">
        <ele>86</ele>
        <time>2012-02-19T07:53:24Z</time>
      </trkpt>
      <trkpt lat="44.62064" lon="0.672">
        <ele>86</ele>
        <time>2012-02-19T07:53:25Z</time>
      </trkpt>
      <trkpt lat="44.62067" lon="0.67206">
        <ele>86</ele>
        <time>2012-02-19T07:53:26Z</time>
      </trkpt>
      <trkpt lat="44.6207" lon="0.67212">
        <ele>86</ele>
        <time>2012-02-19T07:53:27Z</time>
      </trkpt>
      <trkpt lat="44.62073" lon="0.67218">
        <ele>85</ele>
        <time>2012-02-19T07:53:28Z</time>
      </trkpt>
      <trkpt lat="44.62076" lon="0.67224">
        <ele>85</ele>
        <time>2012-02-19T07:53:29Z</time>
      </trkpt>
      <trkpt lat="44.62078" lon="0.67229">
        <ele>85</ele>
        <time>2012-02-19T07:53:30Z</time>
      </trkpt>
      <trkpt lat="44.62081" lon="0.67235">
        <ele>85</ele>
        <time>2012-02-19T07:53:31Z</time>
      </trkpt>
      <trkpt lat="44.62083" lon="0.6724">
        <ele>85</ele>
        <time>2012-02-19T07:53:32Z</time>
      </trkpt>
      <trkpt lat="44.62086" lon="0.67246">
        <ele>85</ele>
        <time>2012-02-19T07:53:33Z</time>
      </trkpt>
      <trkpt lat="44.62088" lon="0.67252">
        <ele>85</ele>
        <time>2012-02-19T07:53:34Z</time>
      </trkpt>
      <trkpt lat="44.62091" lon="0.67258">
        <ele>85</ele>
        <time>2012-02-19T07:53:35Z</time>
      </trkpt>
      <trkpt lat="44.62094" lon="0.67264">
        <ele>85</ele>
        <time>2012-02-19T07:53:36Z</time>
      </trkpt>
      <trkpt lat="44.62097" lon="0.6727">
        <ele>85</ele>
        <time>2012-02-19T07:53:37Z</time>
      </trkpt>
      <trkpt lat="44.62101" lon="0.67276">
        <ele>85</ele>
        <time>2012-02-19T07:53:37Z</time>
      </trkpt>
      <trkpt lat="44.62104" lon="0.67282">
        <ele>85</ele>
        <time>2012-02-19T07:53:39Z</time>
      </trkpt>
      <trkpt lat="44.62106" lon="0.67288">
        <ele>85</ele>
        <time>2012-02-19T07:53:40Z</time>
      </trkpt>
      <trkpt lat="44.62109" lon="0.67294">
        <ele>85</ele>
        <time>2012-02-19T07:53:41Z</time>
      </trkpt>
      <trkpt lat="44.62113" lon="0.673">
        <ele>85</ele>
        <time>2012-02-19T07:53:42Z</time>
      </trkpt>
      <trkpt lat="44.62116" lon="0.67306">
        <ele>85</ele>
        <time>2012-02-19T07:53:43Z</time>
      </trkpt>
      <trkpt lat="44.6212" lon="0.67312">
        <ele>85</ele>
        <time>2012-02-19T07:53:44Z</time>
      </trkpt>
      <trkpt lat="44.62123" lon="0.67319">
        <ele>85</ele>
        <time>2012-02-19T07:53:45Z</time>
      </trkpt>
      <trkpt lat="44.62127" lon="0.67325">
        <ele>85</ele>
        <time>2012-02-19T07:53:46Z</time>
      </trkpt>
      <trkpt lat="44.6213" lon="0.67331">
        <ele>85</ele>
        <time>2012-02-19T07:53:47Z</time>
      </trkpt>
      <trkpt lat="44.62133" lon="0.67338">
        <ele>85</ele>
        <time>2012-02-19T07:53:48Z</time>
      </trkpt>
      <trkpt lat="44.62136" lon="0.67344">
        <ele>84</ele>
        <time>2012-02-19T07:53:49Z</time>
      </trkpt>
      <trkpt lat="44.62139" lon="0.6735">
        <ele>84</ele>
        <time>2012-02-19T07:53:50Z</time>
      </trkpt>
      <trkpt lat="44.62142" lon="0.67356">
        <ele>84</ele>
        <time>2012-02-19T07:53:51Z</time>
      </trkpt>
      <trkpt lat="44.62145" lon="0.67362">
        <ele>84</ele>
        <time>2012-02-19T07:53:52Z</time>
      </trkpt>
      <trkpt lat="44.62149" lon="0.67368">
        <ele>84</ele>
        <time>2012-02-19T07:53:53Z</time>
      </trkpt>
      <trkpt lat="44.62151" lon="0.67374">
        <ele>84</ele>
        <time>2012-02-19T07:53:54Z</time>
      </trkpt>
      <trkpt lat="44.62154" lon="0.67378">
        <ele>84</ele>
        <time>2012-02-19T07:53:55Z</time>
      </trkpt>
      <trkpt lat="44.62157" lon="0.67382">
        <ele>84</ele>
        <time>2012-02-19T07:53:56Z</time>
      </trkpt>
      <trkpt lat="44.62158" lon="0.67385">
        <ele>84</ele>
        <time>2012-02-19T07:53:57Z</time>
      </trkpt>
      <trkpt lat="44.62159" lon="0.67388">
        <ele>84</ele>
        <time>2012-02-19T07:53:58Z</time>
      </trkpt>
      <trkpt lat="44.62159" lon="0.67391">
        <ele>84</ele>
        <time>2012-02-19T07:53:59Z</time>
      </trkpt>
      <trkpt lat="44.62159" lon="0.67393">
        <ele>84</ele>
        <time>2012-02-19T07:54:00Z</time>
      </trkpt>
      <trkpt lat="44.62159" lon="0.67396">
        <ele>84</ele>
        <time>2012-02-19T07:54:01Z</time>
      </trkpt>
      <trkpt lat="44.62158" lon="0.67399">
        <ele>84</ele>
        <time>2012-02-19T07:54:02Z</time>
      </trkpt>
      <trkpt lat="44.62157" lon="0.67402">
        <ele>84</ele>
        <time>2012-02-19T07:54:03Z</time>
      </trkpt>
      <trkpt lat="44.62155" lon="0.67405">
        <ele>84</ele>
        <time>2012-02-19T07:54:04Z</time>
      </trkpt>
      <trkpt lat="44.62153" lon="0.67408">
        <ele>84</ele>
        <time>2012-02-19T07:54:05Z</time>
      </trkpt>
      <trkpt lat="44.62151" lon="0.67412">
        <ele>84</ele>
        <time>2012-02-19T07:54:06Z</time>
      </trkpt>
      <trkpt lat="44.62149" lon="0.67417">
        <ele>84</ele>
        <time>2012-02-19T07:54:07Z</time>
      </trkpt>
      <trkpt lat="44.62147" lon="0.67422">
        <ele>84</ele>
        <time>2012-02-19T07:54:08Z</time>
      </trkpt>
      <trkpt lat="44.62145" lon="0.67427">
        <ele>84</ele>
        <time>2012-02-19T07:54:09Z</time>
      </trkpt>
      <trkpt lat="44.62143" lon="0.67431">
        <ele>84</ele>
        <time>2012-02-19T07:54:10Z</time>
      </trkpt>
      <trkpt lat="44.6214" lon="0.67436">
        <ele>84</ele>
        <time>2012-02-19T07:54:11Z</time>
      </trkpt>
      <trkpt lat="44.62137" lon="0.6744">
        <ele>84</ele>
        <time>2012-02-19T07:54:12Z</time>
      </trkpt>
      <trkpt lat="44.62135" lon="0.67445">
        <ele>84</ele>
        <time>2012-02-19T07:54:13Z</time>
      </trkpt>
      <trkpt lat="44.62133" lon="0.6745">
        <ele>84</ele>
        <time>2012-02-19T07:54:14Z</time>
      </trkpt>
      <trkpt lat="44.6213" lon="0.67454">
        <ele>84</ele>
        <time>2012-02-19T07:54:15Z</time>
      </trkpt>
      <trkpt lat="44.62128" lon="0.67459">
        <ele>84</ele>
        <time>2012-02-19T07:54:16Z</time>
      </trkpt>
      <trkpt lat="44.62125" lon="0.67464">
        <ele>84</ele>
        <time>2012-02-19T07:54:17Z</time>
      </trkpt>
      <trkpt lat="44.62123" lon="0.67469">
        <ele>84</ele>
        <time>2012-02-19T07:54:18Z</time>
      </trkpt>
      <trkpt lat="44.62121" lon="0.67473">
        <ele>84</ele>
        <time>2012-02-19T07:54:19Z</time>
      </trkpt>
      <trkpt lat="44.62119" lon="0.67477">
        <ele>84</ele>
        <time>2012-02-19T07:54:20Z</time>
      </trkpt>
      <trkpt lat="44.62117" lon="0.67481">
        <ele>84</ele>
        <time>2012-02-19T07:54:21Z</time>
      </trkpt>
      <trkpt lat="44.62115" lon="0.67486">
        <ele>84</ele>
        <time>2012-02-19T07:54:22Z</time>
      </trkpt>
      <trkpt lat="44.62113" lon="0.67491">
        <ele>84</ele>
        <time>2012-02-19T07:54:23Z</time>
      </trkpt>
      <trkpt lat="44.62111" lon="0.67497">
        <ele>84</ele>
        <time>2012-02-19T07:54:24Z</time>
      </trkpt>
      <trkpt lat="44.62109" lon="0.67502">
        <ele>84</ele>
        <time>2012-02-19T07:54:25Z</time>
      </trkpt>
      <trkpt lat="44.62106" lon="0.67507">
        <ele>84</ele>
        <time>2012-02-19T07:54:26Z</time>
      </trkpt>
      <trkpt lat="44.62104" lon="0.67512">
        <ele>84</ele>
        <time>2012-02-19T07:54:27Z</time>
      </trkpt>
      <trkpt lat="44.62102" lon="0.67516">
        <ele>84</ele>
        <time>2012-02-19T07:54:28Z</time>
      </trkpt>
      <trkpt lat="44.621" lon="0.67521">
        <ele>84</ele>
        <time>2012-02-19T07:54:29Z</time>
      </trkpt>
      <trkpt lat="44.62098" lon="0.67525">
        <ele>84</ele>
        <time>2012-02-19T07:54:30Z</time>
      </trkpt>
      <trkpt lat="44.62096" lon="0.6753">
        <ele>84</ele>
        <time>2012-02-19T07:54:31Z</time>
      </trkpt>
      <trkpt lat="44.62094" lon="0.67534">
        <ele>84</ele>
        <time>2012-02-19T07:54:32Z</time>
      </trkpt>
      <trkpt lat="44.62091" lon="0.67538">
        <ele>84</ele>
        <time>2012-02-19T07:54:33Z</time>
      </trkpt>
      <trkpt lat="44.62089" lon="0.67543">
        <ele>84</ele>
        <time>2012-02-19T07:54:34Z</time>
      </trkpt>
      <trkpt lat="44.62086" lon="0.67547">
        <ele>84</ele>
        <time>2012-02-19T07:54:35Z</time>
      </trkpt>
      <trkpt lat="44.62083" lon="0.67551">
        <ele>84</ele>
        <time>2012-02-19T07:54:36Z</time>
      </trkpt>
      <trkpt lat="44.62081" lon="0.67556">
        <ele>84</ele>
        <time>2012-02-19T07:54:37Z</time>
      </trkpt>
      <trkpt lat="44.62078" lon="0.6756">
        <ele>84</ele>
        <time>2012-02-19T07:54:38Z</time>
      </trkpt>
      <trkpt lat="44.62075" lon="0.67564">
        <ele>84</ele>
        <time>2012-02-19T07:54:39Z</time>
      </trkpt>
      <trkpt lat="44.62073" lon="0.67568">
        <ele>84</ele>
        <time>2012-02-19T07:54:40Z</time>
      </trkpt>
      <trkpt lat="44.6207" lon="0.67573">
        <ele>84</ele>
        <time>2012-02-19T07:54:41Z</time>
      </trkpt>
      <trkpt lat="44.62068" lon="0.67578">
        <ele>84</ele>
        <time>2012-02-19T07:54:42Z</time>
      </trkpt>
      <trkpt lat="44.62066" lon="0.67584">
        <ele>84</ele>
        <time>2012-02-19T07:54:43Z</time>
      </trkpt>
      <trkpt lat="44.62064" lon="0.67589">
        <ele>84</ele>
        <time>2012-02-19T07:54:44Z</time>
      </trkpt>
      <trkpt lat="44.62062" lon="0.67594">
        <ele>84</ele>
        <time>2012-02-19T07:54:45Z</time>
      </trkpt>
      <trkpt lat="44.62061" lon="0.676">
        <ele>84</ele>
        <time>2012-02-19T07:54:46Z</time>
      </trkpt>
      <trkpt lat="44.6206" lon="0.67605">
        <ele>84</ele>
        <time>2012-02-19T07:54:47Z</time>
      </trkpt>
      <trkpt lat="44.62059" lon="0.67611">
        <ele>84</ele>
        <time>2012-02-19T07:54:48Z</time>
      </trkpt>
      <trkpt lat="44.62058" lon="0.67617">
        <ele>84</ele>
        <time>2012-02-19T07:54:49Z</time>
      </trkpt>
      <trkpt lat="44.62058" lon="0.67624">
        <ele>83</ele>
        <time>2012-02-19T07:54:50Z</time>
      </trkpt>
      <trkpt lat="44.62058" lon="0.67631">
        <ele>83</ele>
        <time>2012-02-19T07:54:51Z</time>
      </trkpt>
      <trkpt lat="44.62058" lon="0.67637">
        <ele>83</ele>
        <time>2012-02-19T07:54:52Z</time>
      </trkpt>
      <trkpt lat="44.62058" lon="0.67644">
        <ele>83</ele>
        <time>2012-02-19T07:54:53Z</time>
      </trkpt>
      <trkpt lat="44.62058" lon="0.67651">
        <ele>83</ele>
        <time>2012-02-19T07:54:54Z</time>
      </trkpt>
      <trkpt lat="44.62058" lon="0.67658">
        <ele>83</ele>
        <time>2012-02-19T07:54:55Z</time>
      </trkpt>
      <trkpt lat="44.62059" lon="0.67664">
        <ele>82</ele>
        <time>2012-02-19T07:54:56Z</time>
      </trkpt>
      <trkpt lat="44.62059" lon="0.67671">
        <ele>82</ele>
        <time>2012-02-19T07:54:57Z</time>
      </trkpt>
      <trkpt lat="44.62059" lon="0.67678">
        <ele>82</ele>
        <time>2012-02-19T07:54:58Z</time>
      </trkpt>
      <trkpt lat="44.6206" lon="0.67685">
        <ele>82</ele>
        <time>2012-02-19T07:54:59Z</time>
      </trkpt>
      <trkpt lat="44.62061" lon="0.67691">
        <ele>82</ele>
        <time>2012-02-19T07:55:00Z</time>
      </trkpt>
      <trkpt lat="44.62061" lon="0.67698">
        <ele>81</ele>
        <time>2012-02-19T07:55:01Z</time>
      </trkpt>
      <trkpt lat="44.62061" lon="0.67704">
        <ele>81</ele>
        <time>2012-02-19T07:55:02Z</time>
      </trkpt>
      <trkpt lat="44.62062" lon="0.67711">
        <ele>81</ele>
        <time>2012-02-19T07:55:03Z</time>
      </trkpt>
      <trkpt lat="44.62062" lon="0.67717">
        <ele>81</ele>
        <time>2012-02-19T07:55:04Z</time>
      </trkpt>
      <trkpt lat="44.62063" lon="0.67724">
        <ele>81</ele>
        <time>2012-02-19T07:55:05Z</time>
      </trkpt>
      <trkpt lat="44.62063" lon="0.6773">
        <ele>81</ele>
        <time>2012-02-19T07:55:06Z</time>
      </trkpt>
      <trkpt lat="44.62064" lon="0.67737">
        <ele>81</ele>
        <time>2012-02-19T07:55:07Z</time>
      </trkpt>
      <trkpt lat="44.62064" lon="0.67743">
        <ele>80</ele>
        <time>2012-02-19T07:55:08Z</time>
      </trkpt>
      <trkpt lat="44.62064" lon="0.6775">
        <ele>80</ele>
        <time>2012-02-19T07:55:09Z</time>
      </trkpt>
      <trkpt lat="44.62065" lon="0.67756">
        <ele>80</ele>
        <time>2012-02-19T07:55:10Z</time>
      </trkpt>
      <trkpt lat="44.62065" lon="0.67763">
        <ele>80</ele>
        <time>2012-02-19T07:55:11Z</time>
      </trkpt>
      <trkpt lat="44.62066" lon="0.67769">
        <ele>79</ele>
        <time>2012-02-19T07:55:12Z</time>
      </trkpt>
      <trkpt lat="44.62066" lon="0.67775">
        <ele>79</ele>
        <time>2012-02-19T07:55:13Z</time>
      </trkpt>
      <trkpt lat="44.62067" lon="0.67782">
        <ele>78</ele>
        <time>2012-02-19T07:55:14Z</time>
      </trkpt>
      <trkpt lat="44.62067" lon="0.67788">
        <ele>78</ele>
        <time>2012-02-19T07:55:15Z</time>
      </trkpt>
      <trkpt lat="44.62067" lon="0.67794">
        <ele>77</ele>
        <time>2012-02-19T07:55:16Z</time>
      </trkpt>
      <trkpt lat="44.62067" lon="0.678">
        <ele>76</ele>
        <time>2012-02-19T07:55:17Z</time>
      </trkpt>
      <trkpt lat="44.62068" lon="0.67807">
        <ele>75</ele>
        <time>2012-02-19T07:55:18Z</time>
      </trkpt>
      <trkpt lat="44.62068" lon="0.67813">
        <ele>74</ele>
        <time>2012-02-19T07:55:19Z</time>
      </trkpt>
      <trkpt lat="44.62068" lon="0.67819">
        <ele>73</ele>
        <time>2012-02-19T07:55:20Z</time>
      </trkpt>
      <trkpt lat="44.62069" lon="0.67826">
        <ele>73</ele>
        <time>2012-02-19T07:55:21Z</time>
      </trkpt>
      <trkpt lat="44.62069" lon="0.67832">
        <ele>72</ele>
        <time>2012-02-19T07:55:22Z</time>
      </trkpt>
      <trkpt lat="44.62069" lon="0.67839">
        <ele>72</ele>
        <time>2012-02-19T07:55:23Z</time>
      </trkpt>
      <trkpt lat="44.62069" lon="0.67846">
        <ele>71</ele>
        <time>2012-02-19T07:55:24Z</time>
      </trkpt>
      <trkpt lat="44.62069" lon="0.67852">
        <ele>71</ele>
        <time>2012-02-19T07:55:25Z</time>
      </trkpt>
      <trkpt lat="44.6207" lon="0.67858">
        <ele>71</ele>
        <time>2012-02-19T07:55:26Z</time>
      </trkpt>
      <trkpt lat="44.6207" lon="0.67864">
        <ele>71</ele>
        <time>2012-02-19T07:55:27Z</time>
      </trkpt>
      <trkpt lat="44.6207" lon="0.6787">
        <ele>71</ele>
        <time>2012-02-19T07:55:28Z</time>
      </trkpt>
      <trkpt lat="44.62071" lon="0.67876">
        <ele>71</ele>
        <time>2012-02-19T07:55:29Z</time>
      </trkpt>
      <trkpt lat="44.62071" lon="0.67882">
        <ele>71</ele>
        <time>2012-02-19T07:55:30Z</time>
      </trkpt>
      <trkpt lat="44.62072" lon="0.67888">
        <ele>71</ele>
        <time>2012-02-19T07:55:31Z</time>
      </trkpt>
      <trkpt lat="44.62072" lon="0.67894">
        <ele>71</ele>
        <time>2012-02-19T07:55:32Z</time>
      </trkpt>
      <trkpt lat="44.62072" lon="0.67899">
        <ele>71</ele>
        <time>2012-02-19T07:55:33Z</time>
      </trkpt>
      <trkpt lat="44.62072" lon="0.67905">
        <ele>71</ele>
        <time>2012-02-19T07:55:34Z</time>
      </trkpt>
      <trkpt lat="44.62072" lon="0.6791">
        <ele>71</ele>
        <time>2012-02-19T07:55:35Z</time>
      </trkpt>
      <trkpt lat="44.62073" lon="0.67916">
        <ele>71</ele>
        <time>2012-02-19T07:55:36Z</time>
      </trkpt>
      <trkpt lat="44.62074" lon="0.67922">
        <ele>71</ele>
        <time>2012-02-19T07:55:37Z</time>
      </trkpt>
      <trkpt lat="44.62074" lon="0.67927">
        <ele>71</ele>
        <time>2012-02-19T07:55:38Z</time>
      </trkpt>
      <trkpt lat="44.62074" lon="0.67933">
        <ele>71</ele>
        <time>2012-02-19T07:55:39Z</time>
      </trkpt>
      <trkpt lat="44.62074" lon="0.67938">
        <ele>71</ele>
        <time>2012-02-19T07:55:39Z</time>
      </trkpt>
      <trkpt lat="44.62073" lon="0.67942">
        <ele>71</ele>
        <time>2012-02-19T07:55:41Z</time>
      </trkpt>
      <trkpt lat="44.62073" lon="0.67948">
        <ele>71</ele>
        <time>2012-02-19T07:55:41Z</time>
      </trkpt>
      <trkpt lat="44.62074" lon="0.67954">
        <ele>71</ele>
        <time>2012-02-19T07:55:43Z</time>
      </trkpt>
      <trkpt lat="44.62074" lon="0.67959">
        <ele>71</ele>
        <time>2012-02-19T07:55:44Z</time>
      </trkpt>
      <trkpt lat="44.62073" lon="0.67964">
        <ele>71</ele>
        <time>2012-02-19T07:55:45Z</time>
      </trkpt>
      <trkpt lat="44.62073" lon="0.67969">
        <ele>71</ele>
        <time>2012-02-19T07:55:46Z</time>
      </trkpt>
      <trkpt lat="44.62073" lon="0.67975">
        <ele>71</ele>
        <time>2012-02-19T07:55:47Z</time>
      </trkpt>
      <trkpt lat="44.62073" lon="0.6798">
        <ele>71</ele>
        <time>2012-02-19T07:55:48Z</time>
      </trkpt>
      <trkpt lat="44.62073" lon="0.67985">
        <ele>71</ele>
        <time>2012-02-19T07:55:49Z</time>
      </trkpt>
      <trkpt lat="44.62072" lon="0.6799">
        <ele>71</ele>
        <time>2012-02-19T07:55:50Z</time>
      </trkpt>
      <trkpt lat="44.62072" lon="0.67995">
        <ele>71</ele>
        <time>2012-02-19T07:55:51Z</time>
      </trkpt>
      <trkpt lat="44.62072" lon="0.68">
        <ele>71</ele>
        <time>2012-02-19T07:55:52Z</time>
      </trkpt>
      <trkpt lat="44.62072" lon="0.68004">
        <ele>71</ele>
        <time>2012-02-19T07:55:53Z</time>
      </trkpt>
      <trkpt lat="44.62071" lon="0.68008">
        <ele>71</ele>
        <time>2012-02-19T07:55:54Z</time>
      </trkpt>
      <trkpt lat="44.6207" lon="0.68013">
        <ele>71</ele>
        <time>2012-02-19T07:55:55Z</time>
      </trkpt>
      <trkpt lat="44.6207" lon="0.68017">
        <ele>71</ele>
        <time>2012-02-19T07:55:56Z</time>
      </trkpt>
      <trkpt lat="44.62069" lon="0.68021">
        <ele>71</ele>
        <time>2012-02-19T07:55:57Z</time>
      </trkpt>
      <trkpt lat="44.62069" lon="0.68025">
        <ele>71</ele>
        <time>2012-02-19T07:55:58Z</time>
      </trkpt>
      <trkpt lat="44.62069" lon="0.6803">
        <ele>71</ele>
        <time>2012-02-19T07:55:59Z</time>
      </trkpt>
      <trkpt lat="44.62068" lon="0.68035">
        <ele>71</ele>
        <time>2012-02-19T07:55:59Z</time>
      </trkpt>
      <trkpt lat="44.62068" lon="0.68039">
        <ele>71</ele>
        <time>2012-02-19T07:56:01Z</time>
      </trkpt>
      <trkpt lat="44.62068" lon="0.68045">
        <ele>71</ele>
        <time>2012-02-19T07:56:02Z</time>
      </trkpt>
      <trkpt lat="44.62068" lon="0.6805">
        <ele>71</ele>
        <time>2012-02-19T07:56:03Z</time>
      </trkpt>
      <trkpt lat="44.62069" lon="0.68055">
        <ele>72</ele>
        <time>2012-02-19T07:56:04Z</time>
      </trkpt>
      <trkpt lat="44.62068" lon="0.68059">
        <ele>72</ele>
        <time>2012-02-19T07:56:05Z</time>
      </trkpt>
      <trkpt lat="44.62068" lon="0.68064">
        <ele>72</ele>
        <time>2012-02-19T07:56:06Z</time>
      </trkpt>
      <trkpt lat="44.62067" lon="0.68069">
        <ele>73</ele>
        <time>2012-02-19T07:56:07Z</time>
      </trkpt>
      <trkpt lat="44.62067" lon="0.68074">
        <ele>73</ele>
        <time>2012-02-19T07:56:08Z</time>
      </trkpt>
      <trkpt lat="44.62067" lon="0.68079">
        <ele>73</ele>
        <time>2012-02-19T07:56:09Z</time>
      </trkpt>
      <trkpt lat="44.62067" lon="0.68084">
        <ele>73</ele>
        <time>2012-02-19T07:56:10Z</time>
      </trkpt>
      <trkpt lat="44.62067" lon="0.68089">
        <ele>73</ele>
        <time>2012-02-19T07:56:11Z</time>
      </trkpt>
      <trkpt lat="44.62067" lon="0.68095">
        <ele>73</ele>
        <time>2012-02-19T07:56:12Z</time>
      </trkpt>
      <trkpt lat="44.62067" lon="0.681">
        <ele>73</ele>
        <time>2012-02-19T07:56:13Z</time>
      </trkpt>
      <trkpt lat="44.62067" lon="0.68105">
        <ele>73</ele>
        <time>2012-02-19T07:56:14Z</time>
      </trkpt>
      <trkpt lat="44.62067" lon="0.6811">
        <ele>73</ele>
        <time>2012-02-19T07:56:15Z</time>
      </trkpt>
      <trkpt lat="44.62068" lon="0.68115">
        <ele>73</ele>
        <time>2012-02-19T07:56:16Z</time>
      </trkpt>
      <trkpt lat="44.62068" lon="0.6812">
        <ele>73</ele>
        <time>2012-02-19T07:56:17Z</time>
      </trkpt>
      <trkpt lat="44.62068" lon="0.68125">
        <ele>73</ele>
        <time>2012-02-19T07:56:18Z</time>
      </trkpt>
      <trkpt lat="44.62069" lon="0.6813">
        <ele>73</ele>
        <time>2012-02-19T07:56:19Z</time>
      </trkpt>
      <trkpt lat="44.62069" lon="0.68135">
        <ele>73</ele>
        <time>2012-02-19T07:56:20Z</time>
      </trkpt>
      <trkpt lat="44.62069" lon="0.68141">
        <ele>73</ele>
        <time>2012-02-19T07:56:21Z</time>
      </trkpt>
      <trkpt lat="44.6207" lon="0.68146">
        <ele>73</ele>
        <time>2012-02-19T07:56:22Z</time>
      </trkpt>
      <trkpt lat="44.62071" lon="0.68151">
        <ele>73</ele>
        <time>2012-02-19T07:56:23Z</time>
      </trkpt>
      <trkpt lat="44.62071" lon="0.68155">
        <ele>73</ele>
        <time>2012-02-19T07:56:24Z</time>
      </trkpt>
      <trkpt lat="44.62072" lon="0.6816">
        <ele>73</ele>
        <time>2012-02-19T07:56:24Z</time>
      </trkpt>
      <trkpt lat="44.62072" lon="0.68164">
        <ele>73</ele>
        <time>2012-02-19T07:56:26Z</time>
      </trkpt>
      <trkpt lat="44.62074" lon="0.6817">
        <ele>73</ele>
        <time>2012-02-19T07:56:27Z</time>
      </trkpt>
      <trkpt lat="44.62075" lon="0.68175">
        <ele>73</ele>
        <time>2012-02-19T07:56:28Z</time>
      </trkpt>
      <trkpt lat="44.62075" lon="0.68179">
        <ele>73</ele>
        <time>2012-02-19T07:56:29Z</time>
      </trkpt>
      <trkpt lat="44.62077" lon="0.68184">
        <ele>73</ele>
        <time>2012-02-19T07:56:30Z</time>
      </trkpt>
      <trkpt lat="44.62078" lon="0.68189">
        <ele>73</ele>
        <time>2012-02-19T07:56:31Z</time>
      </trkpt>
      <trkpt lat="44.62079" lon="0.68193">
        <ele>73</ele>
        <time>2012-02-19T07:56:32Z</time>
      </trkpt>
      <trkpt lat="44.6208" lon="0.68198">
        <ele>73</ele>
        <time>2012-02-19T07:56:33Z</time>
      </trkpt>
      <trkpt lat="44.62081" lon="0.68202">
        <ele>73</ele>
        <time>2012-02-19T07:56:34Z</time>
      </trkpt>
      <trkpt lat="44.62082" lon="0.68207">
        <ele>73</ele>
        <time>2012-02-19T07:56:35Z</time>
      </trkpt>
      <trkpt lat="44.62083" lon="0.68211">
        <ele>73</ele>
        <time>2012-02-19T07:56:36Z</time>
      </trkpt>
      <trkpt lat="44.62085" lon="0.68216">
        <ele>73</ele>
        <time>2012-02-19T07:56:37Z</time>
      </trkpt>
      <trkpt lat="44.62086" lon="0.6822">
        <ele>73</ele>
        <time>2012-02-19T07:56:38Z</time>
      </trkpt>
      <trkpt lat="44.62087" lon="0.68225">
        <ele>73</ele>
        <time>2012-02-19T07:56:38Z</time>
      </trkpt>
      <trkpt lat="44.62088" lon="0.68229">
        <ele>73</ele>
        <time>2012-02-19T07:56:40Z</time>
      </trkpt>
      <trkpt lat="44.62089" lon="0.68233">
        <ele>73</ele>
        <time>2012-02-19T07:56:41Z</time>
      </trkpt>
      <trkpt lat="44.62091" lon="0.68237">
        <ele>73</ele>
        <time>2012-02-19T07:56:42Z</time>
      </trkpt>
      <trkpt lat="44.62092" lon="0.68241">
        <ele>73</ele>
        <time>2012-02-19T07:56:43Z</time>
      </trkpt>
      <trkpt lat="44.62094" lon="0.68246">
        <ele>73</ele>
        <time>2012-02-19T07:56:43Z</time>
      </trkpt>
      <trkpt lat="44.62095" lon="0.6825">
        <ele>73</ele>
        <time>2012-02-19T07:56:45Z</time>
      </trkpt>
      <trkpt lat="44.62097" lon="0.68254">
        <ele>73</ele>
        <time>2012-02-19T07:56:46Z</time>
      </trkpt>
      <trkpt lat="44.62098" lon="0.68258">
        <ele>73</ele>
        <time>2012-02-19T07:56:47Z</time>
      </trkpt>
      <trkpt lat="44.621" lon="0.68262">
        <ele>73</ele>
        <time>2012-02-19T07:56:48Z</time>
      </trkpt>
      <trkpt lat="44.62101" lon="0.68267">
        <ele>73</ele>
        <time>2012-02-19T07:56:48Z</time>
      </trkpt>
      <trkpt lat="44.62102" lon="0.6827">
        <ele>73</ele>
        <time>2012-02-19T07:56:50Z</time>
      </trkpt>
      <trkpt lat="44.62102" lon="0.68274">
        <ele>73</ele>
        <time>2012-02-19T07:56:51Z</time>
      </trkpt>
      <trkpt lat="44.62103" lon="0.68278">
        <ele>73</ele>
        <time>2012-02-19T07:56:52Z</time>
      </trkpt>
      <trkpt lat="44.62103" lon="0.68283">
        <ele>73</ele>
        <time>2012-02-19T07:56:53Z</time>
      </trkpt>
      <trkpt lat="44.62104" lon="0.68287">
        <ele>73</ele>
        <time>2012-02-19T07:56:53Z</time>
      </trkpt>
      <trkpt lat="44.62105" lon="0.68292">
        <ele>73</ele>
        <time>2012-02-19T07:56:54Z</time>
      </trkpt>
      <trkpt lat="44.62106" lon="0.68296">
        <ele>73</ele>
        <time>2012-02-19T07:56:56Z</time>
      </trkpt>
      <trkpt lat="44.62107" lon="0.683">
        <ele>73</ele>
        <time>2012-02-19T07:56:57Z</time>
      </trkpt>
      <trkpt lat="44.62109" lon="0.68305">
        <ele>73</ele>
        <time>2012-02-19T07:56:58Z</time>
      </trkpt>
      <trkpt lat="44.6211" lon="0.68309">
        <ele>73</ele>
        <time>2012-02-19T07:56:59Z</time>
      </trkpt>
      <trkpt lat="44.62112" lon="0.68313">
        <ele>73</ele>
        <time>2012-02-19T07:57:00Z</time>
      </trkpt>
      <trkpt lat="44.62113" lon="0.68318">
        <ele>73</ele>
        <time>2012-02-19T07:57:01Z</time>
      </trkpt>
      <trkpt lat="44.62114" lon="0.68322">
        <ele>73</ele>
        <time>2012-02-19T07:57:01Z</time>
      </trkpt>
      <trkpt lat="44.62115" lon="0.68327">
        <ele>74</ele>
        <time>2012-02-19T07:57:02Z</time>
      </trkpt>
      <trkpt lat="44.62116" lon="0.68331">
        <ele>74</ele>
        <time>2012-02-19T07:57:03Z</time>
      </trkpt>
      <trkpt lat="44.62118" lon="0.68335">
        <ele>75</ele>
        <time>2012-02-19T07:57:05Z</time>
      </trkpt>
      <trkpt lat="44.62118" lon="0.68339">
        <ele>75</ele>
        <time>2012-02-19T07:57:06Z</time>
      </trkpt>
      <trkpt lat="44.62119" lon="0.68344">
        <ele>76</ele>
        <time>2012-02-19T07:57:07Z</time>
      </trkpt>
      <trkpt lat="44.62119" lon="0.68347">
        <ele>77</ele>
        <time>2012-02-19T07:57:08Z</time>
      </trkpt>
      <trkpt lat="44.62119" lon="0.68351">
        <ele>77</ele>
        <time>2012-02-19T07:57:09Z</time>
      </trkpt>
      <trkpt lat="44.6212" lon="0.68354">
        <ele>78</ele>
        <time>2012-02-19T07:57:10Z</time>
      </trkpt>
      <trkpt lat="44.6212" lon="0.68358">
        <ele>79</ele>
        <time>2012-02-19T07:57:11Z</time>
      </trkpt>
      <trkpt lat="44.6212" lon="0.68362">
        <ele>79</ele>
        <time>2012-02-19T07:57:12Z</time>
      </trkpt>
      <trkpt lat="44.62121" lon="0.68365">
        <ele>80</ele>
        <time>2012-02-19T07:57:13Z</time>
      </trkpt>
      <trkpt lat="44.62122" lon="0.68369">
        <ele>80</ele>
        <time>2012-02-19T07:57:14Z</time>
      </trkpt>
      <trkpt lat="44.62123" lon="0.68372">
        <ele>81</ele>
        <time>2012-02-19T07:57:15Z</time>
      </trkpt>
      <trkpt lat="44.62123" lon="0.68375">
        <ele>81</ele>
        <time>2012-02-19T07:57:16Z</time>
      </trkpt>
      <trkpt lat="44.62123" lon="0.68378">
        <ele>81</ele>
        <time>2012-02-19T07:57:16Z</time>
      </trkpt>
      <trkpt lat="44.62124" lon="0.68382">
        <ele>81</ele>
        <time>2012-02-19T07:57:18Z</time>
      </trkpt>
      <trkpt lat="44.62125" lon="0.68386">
        <ele>81</ele>
        <time>2012-02-19T07:57:18Z</time>
      </trkpt>
      <trkpt lat="44.62126" lon="0.68391">
        <ele>81</ele>
        <time>2012-02-19T07:57:20Z</time>
      </trkpt>
      <trkpt lat="44.62127" lon="0.68396">
        <ele>81</ele>
        <time>2012-02-19T07:57:21Z</time>
      </trkpt>
      <trkpt lat="44.62128" lon="0.684">
        <ele>81</ele>
        <time>2012-02-19T07:57:22Z</time>
      </trkpt>
      <trkpt lat="44.62129" lon="0.68405">
        <ele>82</ele>
        <time>2012-02-19T07:57:23Z</time>
      </trkpt>
      <trkpt lat="44.6213" lon="0.6841">
        <ele>82</ele>
        <time>2012-02-19T07:57:24Z</time>
      </trkpt>
      <trkpt lat="44.62132" lon="0.68414">
        <ele>82</ele>
        <time>2012-02-19T07:57:25Z</time>
      </trkpt>
      <trkpt lat="44.62133" lon="0.68419">
        <ele>82</ele>
        <time>2012-02-19T07:57:26Z</time>
      </trkpt>
      <trkpt lat="44.62134" lon="0.68423">
        <ele>82</ele>
        <time>2012-02-19T07:57:27Z</time>
      </trkpt>
      <trkpt lat="44.62135" lon="0.68428">
        <ele>83</ele>
        <time>2012-02-19T07:57:28Z</time>
      </trkpt>
      <trkpt lat="44.62136" lon="0.68432">
        <ele>83</ele>
        <time>2012-02-19T07:57:29Z</time>
      </trkpt>
      <trkpt lat="44.62136" lon="0.68436">
        <ele>83</ele>
        <time>2012-02-19T07:57:29Z</time>
      </trkpt>
      <trkpt lat="44.62137" lon="0.68441">
        <ele>83</ele>
        <time>2012-02-19T07:57:31Z</time>
      </trkpt>
      <trkpt lat="44.62138" lon="0.68445">
        <ele>83</ele>
        <time>2012-02-19T07:57:32Z</time>
      </trkpt>
      <trkpt lat="44.62138" lon="0.68449">
        <ele>83</ele>
        <time>2012-02-19T07:57:33Z</time>
      </trkpt>
      <trkpt lat="44.62139" lon="0.68453">
        <ele>83</ele>
        <time>2012-02-19T07:57:34Z</time>
      </trkpt>
      <trkpt lat="44.62139" lon="0.68457">
        <ele>83</ele>
        <time>2012-02-19T07:57:35Z</time>
      </trkpt>
      <trkpt lat="44.62139" lon="0.6846">
        <ele>83</ele>
        <time>2012-02-19T07:57:36Z</time>
      </trkpt>
      <trkpt lat="44.62139" lon="0.68464">
        <ele>83</ele>
        <time>2012-02-19T07:57:36Z</time>
      </trkpt>
      <trkpt lat="44.6214" lon="0.68468">
        <ele>83</ele>
        <time>2012-02-19T07:57:38Z</time>
      </trkpt>
      <trkpt lat="44.6214" lon="0.68472">
        <ele>83</ele>
        <time>2012-02-19T07:57:39Z</time>
      </trkpt>
      <trkpt lat="44.62141" lon="0.68476">
        <ele>83</ele>
        <time>2012-02-19T07:57:39Z</time>
      </trkpt>
      <trkpt lat="44.62141" lon="0.6848">
        <ele>83</ele>
        <time>2012-02-19T07:57:41Z</time>
      </trkpt>
      <trkpt lat="44.62141" lon="0.68484">
        <ele>83</ele>
        <time>2012-02-19T07:57:41Z</time>
      </trkpt>
      <trkpt lat="44.62141" lon="0.68487">
        <ele>83</ele>
        <time>2012-02-19T07:57:43Z</time>
      </trkpt>
      <trkpt lat="44.62142" lon="0.68491">
        <ele>83</ele>
        <time>2012-02-19T07:57:44Z</time>
      </trkpt>
      <trkpt lat="44.62143" lon="0.68494">
        <ele>83</ele>
        <time>2012-02-19T07:57:45Z</time>
      </trkpt>
      <trkpt lat="44.62143" lon="0.68498">
        <ele>83</ele>
        <time>2012-02-19T07:57:46Z</time>
      </trkpt>
      <trkpt lat="44.62144" lon="0.68502">
        <ele>83</ele>
        <time>2012-02-19T07:57:47Z</time>
      </trkpt>
      <trkpt lat="44.62144" lon="0.68505">
        <ele>83</ele>
        <time>2012-02-19T07:57:48Z</time>
      </trkpt>
      <trkpt lat="44.62145" lon="0.68509">
        <ele>83</ele>
        <time>2012-02-19T07:57:49Z</time>
      </trkpt>
      <trkpt lat="44.62145" lon="0.68512">
        <ele>83</ele>
        <time>2012-02-19T07:57:50Z</time>
      </trkpt>
      <trkpt lat="44.62146" lon="0.68516">
        <ele>83</ele>
        <time>2012-02-19T07:57:50Z</time>
      </trkpt>
      <trkpt lat="44.62146" lon="0.6852">
        <ele>83</ele>
        <time>2012-02-19T07:57:52Z</time>
      </trkpt>
      <trkpt lat="44.62147" lon="0.68523">
        <ele>83</ele>
        <time>2012-02-19T07:57:53Z</time>
      </trkpt>
      <trkpt lat="44.62147" lon="0.68526">
        <ele>83</ele>
        <time>2012-02-19T07:57:53Z</time>
      </trkpt>
      <trkpt lat="44.62147" lon="0.6853">
        <ele>83</ele>
        <time>2012-02-19T07:57:55Z</time>
      </trkpt>
      <trkpt lat="44.62147" lon="0.68534">
        <ele>84</ele>
        <time>2012-02-19T07:57:56Z</time>
      </trkpt>
      <trkpt lat="44.62148" lon="0.68539">
        <ele>84</ele>
        <time>2012-02-19T07:57:57Z</time>
      </trkpt>
      <trkpt lat="44.62148" lon="0.68544">
        <ele>84</ele>
        <time>2012-02-19T07:57:58Z</time>
      </trkpt>
      <trkpt lat="44.62148" lon="0.68548">
        <ele>84</ele>
        <time>2012-02-19T07:57:59Z</time>
      </trkpt>
      <trkpt lat="44.62149" lon="0.68553">
        <ele>84</ele>
        <time>2012-02-19T07:58:00Z</time>
      </trkpt>
      <trkpt lat="44.62149" lon="0.68558">
        <ele>84</ele>
        <time>2012-02-19T07:58:01Z</time>
      </trkpt>
      <trkpt lat="44.62149" lon="0.68562">
        <ele>84</ele>
        <time>2012-02-19T07:58:02Z</time>
      </trkpt>
      <trkpt lat="44.6215" lon="0.68567">
        <ele>84</ele>
        <time>2012-02-19T07:58:03Z</time>
      </trkpt>
      <trkpt lat="44.6215" lon="0.68571">
        <ele>84</ele>
        <time>2012-02-19T07:58:04Z</time>
      </trkpt>
      <trkpt lat="44.6215" lon="0.68576">
        <ele>84</ele>
        <time>2012-02-19T07:58:05Z</time>
      </trkpt>
      <trkpt lat="44.6215" lon="0.6858">
        <ele>84</ele>
        <time>2012-02-19T07:58:06Z</time>
      </trkpt>
      <trkpt lat="44.6215" lon="0.68584">
        <ele>84</ele>
        <time>2012-02-19T07:58:07Z</time>
      </trkpt>
      <trkpt lat="44.6215" lon="0.68588">
        <ele>84</ele>
        <time>2012-02-19T07:58:08Z</time>
      </trkpt>
      <trkpt lat="44.6215" lon="0.68592">
        <ele>85</ele>
        <time>2012-02-19T07:58:09Z</time>
      </trkpt>
      <trkpt lat="44.6215" lon="0.68597">
        <ele>85</ele>
        <time>2012-02-19T07:58:09Z</time>
      </trkpt>
      <trkpt lat="44.6215" lon="0.68602">
        <ele>85</ele>
        <time>2012-02-19T07:58:10Z</time>
      </trkpt>
      <trkpt lat="44.6215" lon="0.68606">
        <ele>85</ele>
        <time>2012-02-19T07:58:12Z</time>
      </trkpt>
      <trkpt lat="44.6215" lon="0.68611">
        <ele>85</ele>
        <time>2012-02-19T07:58:13Z</time>
      </trkpt>
      <trkpt lat="44.62149" lon="0.68615">
        <ele>85</ele>
        <time>2012-02-19T07:58:14Z</time>
      </trkpt>
      <trkpt lat="44.62149" lon="0.68619">
        <ele>85</ele>
        <time>2012-02-19T07:58:15Z</time>
      </trkpt>
      <trkpt lat="44.62149" lon="0.68623">
        <ele>85</ele>
        <time>2012-02-19T07:58:15Z</time>
      </trkpt>
      <trkpt lat="44.62149" lon="0.68627">
        <ele>85</ele>
        <time>2012-02-19T07:58:16Z</time>
      </trkpt>
      <trkpt lat="44.62149" lon="0.68631">
        <ele>85</ele>
        <time>2012-02-19T07:58:18Z</time>
      </trkpt>
      <trkpt lat="44.62149" lon="0.68636">
        <ele>85</ele>
        <time>2012-02-19T07:58:19Z</time>
      </trkpt>
      <trkpt lat="44.62149" lon="0.68642">
        <ele>85</ele>
        <time>2012-02-19T07:58:20Z</time>
      </trkpt>
      <trkpt lat="44.6215" lon="0.68646">
        <ele>85</ele>
        <time>2012-02-19T07:58:20Z</time>
      </trkpt>
      <trkpt lat="44.6215" lon="0.68651">
        <ele>85</ele>
        <time>2012-02-19T07:58:22Z</time>
      </trkpt>
      <trkpt lat="44.6215" lon="0.68656">
        <ele>85</ele>
        <time>2012-02-19T07:58:23Z</time>
      </trkpt>
      <trkpt lat="44.62151" lon="0.68661">
        <ele>85</ele>
        <time>2012-02-19T07:58:24Z</time>
      </trkpt>
      <trkpt lat="44.62151" lon="0.68666">
        <ele>85</ele>
        <time>2012-02-19T07:58:25Z</time>
      </trkpt>
      <trkpt lat="44.62151" lon="0.68671">
        <ele>85</ele>
        <time>2012-02-19T07:58:25Z</time>
      </trkpt>
      <trkpt lat="44.62151" lon="0.68676">
        <ele>85</ele>
        <time>2012-02-19T07:58:27Z</time>
      </trkpt>
      <trkpt lat="44.62151" lon="0.6868">
        <ele>85</ele>
        <time>2012-02-19T07:58:28Z</time>
      </trkpt>
      <trkpt lat="44.62151" lon="0.68685">
        <ele>85</ele>
        <time>2012-02-19T07:58:29Z</time>
      </trkpt>
      <trkpt lat="44.62152" lon="0.68689">
        <ele>85</ele>
        <time>2012-02-19T07:58:30Z</time>
      </trkpt>
      <trkpt lat="44.62152" lon="0.68693">
        <ele>85</ele>
        <time>2012-02-19T07:58:31Z</time>
      </trkpt>
      <trkpt lat="44.62153" lon="0.68697">
        <ele>85</ele>
        <time>2012-02-19T07:58:32Z</time>
      </trkpt>
      <trkpt lat="44.62154" lon="0.68701">
        <ele>85</ele>
        <time>2012-02-19T07:58:32Z</time>
      </trkpt>
      <trkpt lat="44.62156" lon="0.68704">
        <ele>85</ele>
        <time>2012-02-19T07:58:34Z</time>
      </trkpt>
      <trkpt lat="44.62157" lon="0.68707">
        <ele>85</ele>
        <time>2012-02-19T07:58:35Z</time>
      </trkpt>
      <trkpt lat="44.62158" lon="0.6871">
        <ele>85</ele>
        <time>2012-02-19T07:58:35Z</time>
      </trkpt>
      <trkpt lat="44.6216" lon="0.68713">
        <ele>85</ele>
        <time>2012-02-19T07:58:36Z</time>
      </trkpt>
      <trkpt lat="44.62161" lon="0.68715">
        <ele>85</ele>
        <time>2012-02-19T07:58:37Z</time>
      </trkpt>
      <trkpt lat="44.62162" lon="0.68718">
        <ele>85</ele>
        <time>2012-02-19T07:58:39Z</time>
      </trkpt>
      <trkpt lat="44.62163" lon="0.68721">
        <ele>85</ele>
        <time>2012-02-19T07:58:39Z</time>
      </trkpt>
      <trkpt lat="44.62165" lon="0.68725">
        <ele>85</ele>
        <time>2012-02-19T07:58:40Z</time>
      </trkpt>
      <trkpt lat="44.62167" lon="0.68729">
        <ele>85</ele>
        <time>2012-02-19T07:58:41Z</time>
      </trkpt>
      <trkpt lat="44.62168" lon="0.68733">
        <ele>85</ele>
        <time>2012-02-19T07:58:42Z</time>
      </trkpt>
      <trkpt lat="44.6217" lon="0.68736">
        <ele>85</ele>
        <time>2012-02-19T07:58:44Z</time>
      </trkpt>
      <trkpt lat="44.62172" lon="0.6874">
        <ele>85</ele>
        <time>2012-02-19T07:58:44Z</time>
      </trkpt>
      <trkpt lat="44.62174" lon="0.68744">
        <ele>85</ele>
        <time>2012-02-19T07:58:45Z</time>
      </trkpt>
      <trkpt lat="44.62175" lon="0.68747">
        <ele>85</ele>
        <time>2012-02-19T07:58:46Z</time>
      </trkpt>
      <trkpt lat="44.62176" lon="0.6875">
        <ele>85</ele>
        <time>2012-02-19T07:58:47Z</time>
      </trkpt>
      <trkpt lat="44.62178" lon="0.68753">
        <ele>85</ele>
        <time>2012-02-19T07:58:49Z</time>
      </trkpt>
      <trkpt lat="44.62178" lon="0.68757">
        <ele>85</ele>
        <time>2012-02-19T07:58:50Z</time>
      </trkpt>
      <trkpt lat="44.6218" lon="0.6876">
        <ele>85</ele>
        <time>2012-02-19T07:58:50Z</time>
      </trkpt>
      <trkpt lat="44.62181" lon="0.68764">
        <ele>85</ele>
        <time>2012-02-19T07:58:51Z</time>
      </trkpt>
      <trkpt lat="44.62183" lon="0.68769">
        <ele>85</ele>
        <time>2012-02-19T07:58:52Z</time>
      </trkpt>
      <trkpt lat="44.62184" lon="0.68772">
        <ele>86</ele>
        <time>2012-02-19T07:58:54Z</time>
      </trkpt>
      <trkpt lat="44.62185" lon="0.68776">
        <ele>86</ele>
        <time>2012-02-19T07:58:55Z</time>
      </trkpt>
      <trkpt lat="44.62186" lon="0.68781">
        <ele>86</ele>
        <time>2012-02-19T07:58:55Z</time>
      </trkpt>
      <trkpt lat="44.62186" lon="0.68785">
        <ele>86</ele>
        <time>2012-02-19T07:58:56Z</time>
      </trkpt>
      <trkpt lat="44.62186" lon="0.68789">
        <ele>87</ele>
        <time>2012-02-19T07:58:57Z</time>
      </trkpt>
      <trkpt lat="44.62185" lon="0.68793">
        <ele>87</ele>
        <time>2012-02-19T07:58:59Z</time>
      </trkpt>
      <trkpt lat="44.62185" lon="0.68796">
        <ele>87</ele>
        <time>2012-02-19T07:59:00Z</time>
      </trkpt>
      <trkpt lat="44.62185" lon="0.68799">
        <ele>88</ele>
        <time>2012-02-19T07:59:00Z</time>
      </trkpt>
      <trkpt lat="44.62183" lon="0.68802">
        <ele>88</ele>
        <time>2012-02-19T07:59:01Z</time>
      </trkpt>
      <trkpt lat="44.62183" lon="0.68805">
        <ele>89</ele>
        <time>2012-02-19T07:59:03Z</time>
      </trkpt>
      <trkpt lat="44.62182" lon="0.68809">
        <ele>90</ele>
        <time>2012-02-19T07:59:04Z</time>
      </trkpt>
      <trkpt lat="44.6218" lon="0.68812">
        <ele>91</ele>
        <time>2012-02-19T07:59:04Z</time>
      </trkpt>
      <trkpt lat="44.62179" lon="0.68816">
        <ele>92</ele>
        <time>2012-02-19T07:59:05Z</time>
      </trkpt>
      <trkpt lat="44.62177" lon="0.68819">
        <ele>93</ele>
        <time>2012-02-19T07:59:06Z</time>
      </trkpt>
      <trkpt lat="44.62175" lon="0.68823">
        <ele>94</ele>
        <time>2012-02-19T07:59:07Z</time>
      </trkpt>
      <trkpt lat="44.62172" lon="0.68827">
        <ele>94</ele>
        <time>2012-02-19T07:59:09Z</time>
      </trkpt>
      <trkpt lat="44.62169" lon="0.68832">
        <ele>95</ele>
        <time>2012-02-19T07:59:09Z</time>
      </trkpt>
      <trkpt lat="44.62165" lon="0.68837">
        <ele>95</ele>
        <time>2012-02-19T07:59:10Z</time>
      </trkpt>
      <trkpt lat="44.62163" lon="0.68841">
        <ele>96</ele>
        <time>2012-02-19T07:59:12Z</time>
      </trkpt>
      <trkpt lat="44.62162" lon="0.68846">
        <ele>96</ele>
        <time>2012-02-19T07:59:12Z</time>
      </trkpt>
      <trkpt lat="44.62159" lon="0.68849">
        <ele>96</ele>
        <time>2012-02-19T07:59:14Z</time>
      </trkpt>
      <trkpt lat="44.62158" lon="0.68853">
        <ele>96</ele>
        <time>2012-02-19T07:59:14Z</time>
      </trkpt>
      <trkpt lat="44.62156" lon="0.68858">
        <ele>96</ele>
        <time>2012-02-19T07:59:15Z</time>
      </trkpt>
      <trkpt lat="44.62153" lon="0.68862">
        <ele>96</ele>
        <time>2012-02-19T07:59:16Z</time>
      </trkpt>
      <trkpt lat="44.6215" lon="0.68866">
        <ele>96</ele>
        <time>2012-02-19T07:59:17Z</time>
      </trkpt>
      <trkpt lat="44.62147" lon="0.68871">
        <ele>96</ele>
        <time>2012-02-19T07:59:19Z</time>
      </trkpt>
      <trkpt lat="44.62144" lon="0.68875">
        <ele>97</ele>
        <time>2012-02-19T07:59:19Z</time>
      </trkpt>
      <trkpt lat="44.62142" lon="0.68879">
        <ele>97</ele>
        <time>2012-02-19T07:59:20Z</time>
      </trkpt>
      <trkpt lat="44.6214" lon="0.68882">
        <ele>98</ele>
        <time>2012-02-19T07:59:21Z</time>
      </trkpt>
      <trkpt lat="44.62138" lon="0.68885">
        <ele>98</ele>
        <time>2012-02-19T07:59:22Z</time>
      </trkpt>
      <trkpt lat="44.62136" lon="0.68888">
        <ele>99</ele>
        <time>2012-02-19T07:59:24Z</time>
      </trkpt>
      <trkpt lat="44.62134" lon="0.68892">
        <ele>99</ele>
        <time>2012-02-19T07:59:24Z</time>
      </trkpt>
      <trkpt lat="44.62133" lon="0.68894">
        <ele>100</ele>
        <time>2012-02-19T07:59:25Z</time>
      </trkpt>
      <trkpt lat="44.62131" lon="0.68898">
        <ele>100</ele>
        <time>2012-02-19T07:59:26Z</time>
      </trkpt>
      <trkpt lat="44.6213" lon="0.689">
        <ele>101</ele>
        <time>2012-02-19T07:59:28Z</time>
      </trkpt>
      <trkpt lat="44.62129" lon="0.68902">
        <ele>101</ele>
        <time>2012-02-19T07:59:29Z</time>
      </trkpt>
      <trkpt lat="44.62127" lon="0.68906">
        <ele>101</ele>
        <time>2012-02-19T07:59:29Z</time>
      </trkpt>
      <trkpt lat="44.62125" lon="0.6891">
        <ele>102</ele>
        <time>2012-02-19T07:59:31Z</time>
      </trkpt>
      <trkpt lat="44.62122" lon="0.68914">
        <ele>102</ele>
        <time>2012-02-19T07:59:31Z</time>
      </trkpt>
      <trkpt lat="44.6212" lon="0.68918">
        <ele>102</ele>
        <time>2012-02-19T07:59:32Z</time>
      </trkpt>
      <trkpt lat="44.62118" lon="0.68922">
        <ele>102</ele>
        <time>2012-02-19T07:59:34Z</time>
      </trkpt>
      <trkpt lat="44.62117" lon="0.68926">
        <ele>102</ele>
        <time>2012-02-19T07:59:34Z</time>
      </trkpt>
      <trkpt lat="44.62116" lon="0.6893">
        <ele>102</ele>
        <time>2012-02-19T07:59:35Z</time>
      </trkpt>
      <trkpt lat="44.62115" lon="0.68933">
        <ele>102</ele>
        <time>2012-02-19T07:59:36Z</time>
      </trkpt>
      <trkpt lat="44.62114" lon="0.68936">
        <ele>102</ele>
        <time>2012-02-19T07:59:37Z</time>
      </trkpt>
      <trkpt lat="44.62114" lon="0.68939">
        <ele>102</ele>
        <time>2012-02-19T07:59:39Z</time>
      </trkpt>
      <trkpt lat="44.62113" lon="0.68942">
        <ele>102</ele>
        <time>2012-02-19T07:59:39Z</time>
      </trkpt>
      <trkpt lat="44.62112" lon="0.68945">
        <ele>102</ele>
        <time>2012-02-19T07:59:40Z</time>
      </trkpt>
      <trkpt lat="44.6211" lon="0.6895">
        <ele>102</ele>
        <time>2012-02-19T07:59:41Z</time>
      </trkpt>
      <trkpt lat="44.62109" lon="0.68953">
        <ele>102</ele>
        <time>2012-02-19T07:59:42Z</time>
      </trkpt>
      <trkpt lat="44.62107" lon="0.68956">
        <ele>102</ele>
        <time>2012-02-19T07:59:44Z</time>
      </trkpt>
      <trkpt lat="44.62105" lon="0.6896">
        <ele>102</ele>
        <time>2012-02-19T07:59:44Z</time>
      </trkpt>
      <trkpt lat="44.62104" lon="0.68963">
        <ele>102</ele>
        <time>2012-02-19T07:59:45Z</time>
      </trkpt>
      <trkpt lat="44.62102" lon="0.68967">
        <ele>102</ele>
        <time>2012-02-19T07:59:46Z</time>
      </trkpt>
      <trkpt lat="44.621" lon="0.68971">
        <ele>102</ele>
        <time>2012-02-19T07:59:47Z</time>
      </trkpt>
      <trkpt lat="44.62098" lon="0.68975">
        <ele>102</ele>
        <time>2012-02-19T07:59:49Z</time>
      </trkpt>
      <trkpt lat="44.62097" lon="0.68979">
        <ele>102</ele>
        <time>2012-02-19T07:59:49Z</time>
      </trkpt>
      <trkpt lat="44.62096" lon="0.68982">
        <ele>102</ele>
        <time>2012-02-19T07:59:50Z</time>
      </trkpt>
      <trkpt lat="44.62095" lon="0.68986">
        <ele>102</ele>
        <time>2012-02-19T07:59:51Z</time>
      </trkpt>
      <trkpt lat="44.62094" lon="0.68989">
        <ele>102</ele>
        <time>2012-02-19T07:59:52Z</time>
      </trkpt>
      <trkpt lat="44.62093" lon="0.68993">
        <ele>102</ele>
        <time>2012-02-19T07:59:54Z</time>
      </trkpt>
      <trkpt lat="44.62092" lon="0.68996">
        <ele>102</ele>
        <time>2012-02-19T07:59:54Z</time>
      </trkpt>
      <trkpt lat="44.62091" lon="0.69">
        <ele>102</ele>
        <time>2012-02-19T07:59:56Z</time>
      </trkpt>
      <trkpt lat="44.6209" lon="0.69004">
        <ele>102</ele>
        <time>2012-02-19T07:59:56Z</time>
      </trkpt>
      <trkpt lat="44.62088" lon="0.69008">
        <ele>102</ele>
        <time>2012-02-19T07:59:57Z</time>
      </trkpt>
      <trkpt lat="44.62086" lon="0.69012">
        <ele>102</ele>
        <time>2012-02-19T07:59:59Z</time>
      </trkpt>
      <trkpt lat="44.62085" lon="0.69016">
        <ele>102</ele>
        <time>2012-02-19T07:59:59Z</time>
      </trkpt>
      <trkpt lat="44.62083" lon="0.6902">
        <ele>102</ele>
        <time>2012-02-19T08:00:00Z</time>
      </trkpt>
      <trkpt lat="44.62082" lon="0.69023">
        <ele>102</ele>
        <time>2012-02-19T08:00:01Z</time>
      </trkpt>
      <trkpt lat="44.6208" lon="0.69027">
        <ele>101</ele>
        <time>2012-02-19T08:00:03Z</time>
      </trkpt>
      <trkpt lat="44.62079" lon="0.69031">
        <ele>101</ele>
        <time>2012-02-19T08:00:04Z</time>
      </trkpt>
      <trkpt lat="44.62077" lon="0.69035">
        <ele>100</ele>
        <time>2012-02-19T08:00:04Z</time>
      </trkpt>
      <trkpt lat="44.62076" lon="0.69039">
        <ele>100</ele>
        <time>2012-02-19T08:00:05Z</time>
      </trkpt>
      <trkpt lat="44.62074" lon="0.69042">
        <ele>100</ele>
        <time>2012-02-19T08:00:06Z</time>
      </trkpt>
      <trkpt lat="44.62072" lon="0.69046">
        <ele>100</ele>
        <time>2012-02-19T08:00:07Z</time>
      </trkpt>
      <trkpt lat="44.62071" lon="0.6905">
        <ele>100</ele>
        <time>2012-02-19T08:00:09Z</time>
      </trkpt>
      <trkpt lat="44.62069" lon="0.69053">
        <ele>100</ele>
        <time>2012-02-19T08:00:09Z</time>
      </trkpt>
      <trkpt lat="44.62068" lon="0.69057">
        <ele>100</ele>
        <time>2012-02-19T08:00:10Z</time>
      </trkpt>
      <trkpt lat="44.62067" lon="0.6906">
        <ele>100</ele>
        <time>2012-02-19T08:00:11Z</time>
      </trkpt>
      <trkpt lat="44.62066" lon="0.69064">
        <ele>100</ele>
        <time>2012-02-19T08:00:12Z</time>
      </trkpt>
      <trkpt lat="44.62064" lon="0.69068">
        <ele>100</ele>
        <time>2012-02-19T08:00:14Z</time>
      </trkpt>
      <trkpt lat="44.62063" lon="0.69072">
        <ele>100</ele>
        <time>2012-02-19T08:00:15Z</time>
      </trkpt>
      <trkpt lat="44.62061" lon="0.69076">
        <ele>100</ele>
        <time>2012-02-19T08:00:15Z</time>
      </trkpt>
      <trkpt lat="44.62059" lon="0.6908">
        <ele>100</ele>
        <time>2012-02-19T08:00:16Z</time>
      </trkpt>
      <trkpt lat="44.62058" lon="0.69083">
        <ele>100</ele>
        <time>2012-02-19T08:00:17Z</time>
      </trkpt>
      <trkpt lat="44.62057" lon="0.69087">
        <ele>100</ele>
        <time>2012-02-19T08:00:19Z</time>
      </trkpt>
      <trkpt lat="44.62055" lon="0.6909">
        <ele>100</ele>
        <time>2012-02-19T08:00:19Z</time>
      </trkpt>
      <trkpt lat="44.62054" lon="0.69094">
        <ele>100</ele>
        <time>2012-02-19T08:00:20Z</time>
      </trkpt>
      <trkpt lat="44.62053" lon="0.69097">
        <ele>101</ele>
        <time>2012-02-19T08:00:21Z</time>
      </trkpt>
      <trkpt lat="44.62051" lon="0.69099">
        <ele>101</ele>
        <time>2012-02-19T08:00:22Z</time>
      </trkpt>
      <trkpt lat="44.62051" lon="0.69102">
        <ele>101</ele>
        <time>2012-02-19T08:00:24Z</time>
      </trkpt>
      <trkpt lat="44.6205" lon="0.69104">
        <ele>101</ele>
        <time>2012-02-19T08:00:24Z</time>
      </trkpt>
      <trkpt lat="44.62049" lon="0.69106">
        <ele>101</ele>
        <time>2012-02-19T08:00:26Z</time>
      </trkpt>
      <trkpt lat="44.62047" lon="0.69109">
        <ele>101</ele>
        <time>2012-02-19T08:00:26Z</time>
      </trkpt>
      <trkpt lat="44.62046" lon="0.69113">
        <ele>101</ele>
        <time>2012-02-19T08:00:27Z</time>
      </trkpt>
      <trkpt lat="44.62045" lon="0.69118">
        <ele>101</ele>
        <time>2012-02-19T08:00:29Z</time>
      </trkpt>
      <trkpt lat="44.62043" lon="0.69121">
        <ele>101</ele>
        <time>2012-02-19T08:00:29Z</time>
      </trkpt>
      <trkpt lat="44.62043" lon="0.69125">
        <ele>101</ele>
        <time>2012-02-19T08:00:30Z</time>
      </trkpt>
      <trkpt lat="44.62041" lon="0.69127">
        <ele>101</ele>
        <time>2012-02-19T08:00:31Z</time>
      </trkpt>
      <trkpt lat="44.6204" lon="0.69128">
        <ele>101</ele>
        <time>2012-02-19T08:00:32Z</time>
      </trkpt>
      <trkpt lat="44.62037" lon="0.69129">
        <ele>101</ele>
        <time>2012-02-19T08:00:33Z</time>
      </trkpt>
      <trkpt lat="44.62035" lon="0.69128">
        <ele>101</ele>
        <time>2012-02-19T08:00:34Z</time>
      </trkpt>
      <trkpt lat="44.62033" lon="0.69128">
        <ele>101</ele>
        <time>2012-02-19T08:00:35Z</time>
      </trkpt>
      <trkpt lat="44.6203" lon="0.69128">
        <ele>101</ele>
        <time>2012-02-19T08:00:36Z</time>
      </trkpt>
      <trkpt lat="44.62028" lon="0.69127">
        <ele>101</ele>
        <time>2012-02-19T08:00:37Z</time>
      </trkpt>
      <trkpt lat="44.62025" lon="0.69126">
        <ele>101</ele>
        <time>2012-02-19T08:00:39Z</time>
      </trkpt>
      <trkpt lat="44.62022" lon="0.69126">
        <ele>101</ele>
        <time>2012-02-19T08:00:39Z</time>
      </trkpt>
      <trkpt lat="44.62019" lon="0.69126">
        <ele>101</ele>
        <time>2012-02-19T08:00:40Z</time>
      </trkpt>
      <trkpt lat="44.62016" lon="0.69125">
        <ele>101</ele>
        <time>2012-02-19T08:00:41Z</time>
      </trkpt>
      <trkpt lat="44.62014" lon="0.69124">
        <ele>101</ele>
        <time>2012-02-19T08:00:42Z</time>
      </trkpt>
      <trkpt lat="44.62011" lon="0.69123">
        <ele>101</ele>
        <time>2012-02-19T08:00:44Z</time>
      </trkpt>
      <trkpt lat="44.62009" lon="0.69122">
        <ele>101</ele>
        <time>2012-02-19T08:00:44Z</time>
      </trkpt>
      <trkpt lat="44.62006" lon="0.69122">
        <ele>101</ele>
        <time>2012-02-19T08:00:45Z</time>
      </trkpt>
      <trkpt lat="44.62004" lon="0.69121">
        <ele>101</ele>
        <time>2012-02-19T08:00:46Z</time>
      </trkpt>
      <trkpt lat="44.62001" lon="0.6912">
        <ele>101</ele>
        <time>2012-02-19T08:00:47Z</time>
      </trkpt>
      <trkpt lat="44.61999" lon="0.69119">
        <ele>101</ele>
        <time>2012-02-19T08:00:49Z</time>
      </trkpt>
      <trkpt lat="44.61995" lon="0.69117">
        <ele>101</ele>
        <time>2012-02-19T08:00:49Z</time>
      </trkpt>
      <trkpt lat="44.61992" lon="0.69116">
        <ele>101</ele>
        <time>2012-02-19T08:00:50Z</time>
      </trkpt>
      <trkpt lat="44.61989" lon="0.69115">
        <ele>101</ele>
        <time>2012-02-19T08:00:51Z</time>
      </trkpt>
      <trkpt lat="44.61986" lon="0.69114">
        <ele>101</ele>
        <time>2012-02-19T08:00:52Z</time>
      </trkpt>
      <trkpt lat="44.61982" lon="0.69112">
        <ele>101</ele>
        <time>2012-02-19T08:00:54Z</time>
      </trkpt>
      <trkpt lat="44.61979" lon="0.69111">
        <ele>101</ele>
        <time>2012-02-19T08:00:54Z</time>
      </trkpt>
      <trkpt lat="44.61976" lon="0.6911">
        <ele>101</ele>
        <time>2012-02-19T08:00:55Z</time>
      </trkpt>
      <trkpt lat="44.61973" lon="0.69108">
        <ele>101</ele>
        <time>2012-02-19T08:00:56Z</time>
      </trkpt>
      <trkpt lat="44.6197" lon="0.69107">
        <ele>101</ele>
        <time>2012-02-19T08:00:57Z</time>
      </trkpt>
      <trkpt lat="44.61967" lon="0.69105">
        <ele>101</ele>
        <time>2012-02-19T08:00:59Z</time>
      </trkpt>
      <trkpt lat="44.61964" lon="0.69104">
        <ele>101</ele>
        <time>2012-02-19T08:00:59Z</time>
      </trkpt>
      <trkpt lat="44.6196" lon="0.69103">
        <ele>101</ele>
        <time>2012-02-19T08:01:00Z</time>
      </trkpt>
      <trkpt lat="44.61958" lon="0.69102">
        <ele>101</ele>
        <time>2012-02-19T08:01:01Z</time>
      </trkpt>
      <trkpt lat="44.61954" lon="0.69101">
        <ele>101</ele>
        <time>2012-02-19T08:01:02Z</time>
      </trkpt>
      <trkpt lat="44.61952" lon="0.69099">
        <ele>101</ele>
        <time>2012-02-19T08:01:03Z</time>
      </trkpt>
      <trkpt lat="44.61948" lon="0.69098">
        <ele>101</ele>
        <time>2012-02-19T08:01:04Z</time>
      </trkpt>
      <trkpt lat="44.61945" lon="0.69096">
        <ele>101</ele>
        <time>2012-02-19T08:01:05Z</time>
      </trkpt>
      <trkpt lat="44.61942" lon="0.69095">
        <ele>101</ele>
        <time>2012-02-19T08:01:06Z</time>
      </trkpt>
      <trkpt lat="44.61939" lon="0.69094">
        <ele>101</ele>
        <time>2012-02-19T08:01:07Z</time>
      </trkpt>
      <trkpt lat="44.61936" lon="0.69093">
        <ele>101</ele>
        <time>2012-02-19T08:01:09Z</time>
      </trkpt>
      <trkpt lat="44.61932" lon="0.69093">
        <ele>101</ele>
        <time>2012-02-19T08:01:09Z</time>
      </trkpt>
      <trkpt lat="44.61929" lon="0.69091">
        <ele>101</ele>
        <time>2012-02-19T08:01:10Z</time>
      </trkpt>
      <trkpt lat="44.61926" lon="0.69091">
        <ele>101</ele>
        <time>2012-02-19T08:01:11Z</time>
      </trkpt>
      <trkpt lat="44.61922" lon="0.6909">
        <ele>101</ele>
        <time>2012-02-19T08:01:12Z</time>
      </trkpt>
      <trkpt lat="44.61919" lon="0.69088">
        <ele>101</ele>
        <time>2012-02-19T08:01:14Z</time>
      </trkpt>
      <trkpt lat="44.61915" lon="0.69087">
        <ele>101</ele>
        <time>2012-02-19T08:01:14Z</time>
      </trkpt>
      <trkpt lat="44.61911" lon="0.69086">
        <ele>101</ele>
        <time>2012-02-19T08:01:15Z</time>
      </trkpt>
      <trkpt lat="44.61908" lon="0.69086">
        <ele>101</ele>
        <time>2012-02-19T08:01:16Z</time>
      </trkpt>
      <trkpt lat="44.61904" lon="0.69086">
        <ele>101</ele>
        <time>2012-02-19T08:01:17Z</time>
      </trkpt>
      <trkpt lat="44.619" lon="0.69086">
        <ele>101</ele>
        <time>2012-02-19T08:01:19Z</time>
      </trkpt>
      <trkpt lat="44.61896" lon="0.69086">
        <ele>101</ele>
        <time>2012-02-19T08:01:19Z</time>
      </trkpt>
      <trkpt lat="44.61892" lon="0.69086">
        <ele>101</ele>
        <time>2012-02-19T08:01:20Z</time>
      </trkpt>
      <trkpt lat="44.61889" lon="0.69086">
        <ele>101</ele>
        <time>2012-02-19T08:01:21Z</time>
      </trkpt>
      <trkpt lat="44.61885" lon="0.69086">
        <ele>101</ele>
        <time>2012-02-19T08:01:22Z</time>
      </trkpt>
      <trkpt lat="44.6188" lon="0.69086">
        <ele>101</ele>
        <time>2012-02-19T08:01:24Z</time>
      </trkpt>
      <trkpt lat="44.61877" lon="0.69086">
        <ele>101</ele>
        <time>2012-02-19T08:01:24Z</time>
      </trkpt>
      <trkpt lat="44.61873" lon="0.69086">
        <ele>101</ele>
        <time>2012-02-19T08:01:25Z</time>
      </trkpt>
      <trkpt lat="44.61869" lon="0.69085">
        <ele>101</ele>
        <time>2012-02-19T08:01:26Z</time>
      </trkpt>
      <trkpt lat="44.61865" lon="0.69085">
        <ele>101</ele>
        <time>2012-02-19T08:01:27Z</time>
      </trkpt>
      <trkpt lat="44.61861" lon="0.69085">
        <ele>101</ele>
        <time>2012-02-19T08:01:29Z</time>
      </trkpt>
      <trkpt lat="44.61858" lon="0.69082">
        <ele>101</ele>
        <time>2012-02-19T08:01:29Z</time>
      </trkpt>
      <trkpt lat="44.61856" lon="0.6908">
        <ele>101</ele>
        <time>2012-02-19T08:01:31Z</time>
      </trkpt>
      <trkpt lat="44.61854" lon="0.69076">
        <ele>101</ele>
        <time>2012-02-19T08:01:31Z</time>
      </trkpt>
      <trkpt lat="44.61852" lon="0.69072">
        <ele>101</ele>
        <time>2012-02-19T08:01:32Z</time>
      </trkpt>
      <trkpt lat="44.6185" lon="0.69069">
        <ele>101</ele>
        <time>2012-02-19T08:01:34Z</time>
      </trkpt>
      <trkpt lat="44.61848" lon="0.69065">
        <ele>101</ele>
        <time>2012-02-19T08:01:34Z</time>
      </trkpt>
      <trkpt lat="44.61846" lon="0.69062">
        <ele>101</ele>
        <time>2012-02-19T08:01:35Z</time>
      </trkpt>
      <trkpt lat="44.61845" lon="0.69058">
        <ele>101</ele>
        <time>2012-02-19T08:01:36Z</time>
      </trkpt>
      <trkpt lat="44.61843" lon="0.69054">
        <ele>101</ele>
        <time>2012-02-19T08:01:37Z</time>
      </trkpt>
      <trkpt lat="44.61841" lon="0.69051">
        <ele>101</ele>
        <time>2012-02-19T08:01:39Z</time>
      </trkpt>
      <trkpt lat="44.61839" lon="0.69047">
        <ele>101</ele>
        <time>2012-02-19T08:01:39Z</time>
      </trkpt>
      <trkpt lat="44.61836" lon="0.69043">
        <ele>101</ele>
        <time>2012-02-19T08:01:40Z</time>
      </trkpt>
      <trkpt lat="44.61834" lon="0.6904">
        <ele>101</ele>
        <time>2012-02-19T08:01:41Z</time>
      </trkpt>
      <trkpt lat="44.61832" lon="0.69036">
        <ele>101</ele>
        <time>2012-02-19T08:01:42Z</time>
      </trkpt>
      <trkpt lat="44.61829" lon="0.69032">
        <ele>101</ele>
        <time>2012-02-19T08:01:44Z</time>
      </trkpt>
      <trkpt lat="44.61826" lon="0.69029">
        <ele>101</ele>
        <time>2012-02-19T08:01:44Z</time>
      </trkpt>
      <trkpt lat="44.61823" lon="0.69025">
        <ele>101</ele>
        <time>2012-02-19T08:01:45Z</time>
      </trkpt>
      <trkpt lat="44.61821" lon="0.69021">
        <ele>101</ele>
        <time>2012-02-19T08:01:46Z</time>
      </trkpt>
      <trkpt lat="44.61818" lon="0.69017">
        <ele>101</ele>
        <time>2012-02-19T08:01:47Z</time>
      </trkpt>
      <trkpt lat="44.61815" lon="0.69013">
        <ele>101</ele>
        <time>2012-02-19T08:01:48Z</time>
      </trkpt>
      <trkpt lat="44.61813" lon="0.69009">
        <ele>101</ele>
        <time>2012-02-19T08:01:50Z</time>
      </trkpt>
      <trkpt lat="44.6181" lon="0.69005">
        <ele>101</ele>
        <time>2012-02-19T08:01:50Z</time>
      </trkpt>
      <trkpt lat="44.61807" lon="0.69001">
        <ele>101</ele>
        <time>2012-02-19T08:01:51Z</time>
      </trkpt>
      <trkpt lat="44.61804" lon="0.68997">
        <ele>101</ele>
        <time>2012-02-19T08:01:52Z</time>
      </trkpt>
      <trkpt lat="44.61801" lon="0.68993">
        <ele>101</ele>
        <time>2012-02-19T08:01:53Z</time>
      </trkpt>
      <trkpt lat="44.61798" lon="0.68989">
        <ele>101</ele>
        <time>2012-02-19T08:01:55Z</time>
      </trkpt>
      <trkpt lat="44.61795" lon="0.68985">
        <ele>102</ele>
        <time>2012-02-19T08:01:55Z</time>
      </trkpt>
      <trkpt lat="44.61792" lon="0.68981">
        <ele>102</ele>
        <time>2012-02-19T08:01:56Z</time>
      </trkpt>
      <trkpt lat="44.6179" lon="0.68977">
        <ele>102</ele>
        <time>2012-02-19T08:01:57Z</time>
      </trkpt>
      <trkpt lat="44.61787" lon="0.68973">
        <ele>102</ele>
        <time>2012-02-19T08:01:58Z</time>
      </trkpt>
      <trkpt lat="44.61784" lon="0.68969">
        <ele>102</ele>
        <time>2012-02-19T08:02:00Z</time>
      </trkpt>
      <trkpt lat="44.61781" lon="0.68964">
        <ele>102</ele>
        <time>2012-02-19T08:02:00Z</time>
      </trkpt>
      <trkpt lat="44.61778" lon="0.6896">
        <ele>102</ele>
        <time>2012-02-19T08:02:02Z</time>
      </trkpt>
      <trkpt lat="44.61775" lon="0.68957">
        <ele>102</ele>
        <time>2012-02-19T08:02:02Z</time>
      </trkpt>
      <trkpt lat="44.61771" lon="0.68953">
        <ele>102</ele>
        <time>2012-02-19T08:02:03Z</time>
      </trkpt>
      <trkpt lat="44.61768" lon="0.68949">
        <ele>102</ele>
        <time>2012-02-19T08:02:05Z</time>
      </trkpt>
      <trkpt lat="44.61765" lon="0.68945">
        <ele>102</ele>
        <time>2012-02-19T08:02:05Z</time>
      </trkpt>
      <trkpt lat="44.61761" lon="0.68941">
        <ele>102</ele>
        <time>2012-02-19T08:02:06Z</time>
      </trkpt>
      <trkpt lat="44.61758" lon="0.68937">
        <ele>102</ele>
        <time>2012-02-19T08:02:07Z</time>
      </trkpt>
      <trkpt lat="44.61755" lon="0.68934">
        <ele>102</ele>
        <time>2012-02-19T08:02:08Z</time>
      </trkpt>
      <trkpt lat="44.61752" lon="0.6893">
        <ele>102</ele>
        <time>2012-02-19T08:02:10Z</time>
      </trkpt>
      <trkpt lat="44.61748" lon="0.68926">
        <ele>103</ele>
        <time>2012-02-19T08:02:10Z</time>
      </trkpt>
      <trkpt lat="44.61745" lon="0.68922">
        <ele>103</ele>
        <time>2012-02-19T08:02:11Z</time>
      </trkpt>
      <trkpt lat="44.61742" lon="0.68918">
        <ele>103</ele>
        <time>2012-02-19T08:02:12Z</time>
      </trkpt>
      <trkpt lat="44.61738" lon="0.68913">
        <ele>103</ele>
        <time>2012-02-19T08:02:14Z</time>
      </trkpt>
      <trkpt lat="44.61734" lon="0.68909">
        <ele>103</ele>
        <time>2012-02-19T08:02:14Z</time>
      </trkpt>
      <trkpt lat="44.6173" lon="0.68904">
        <ele>103</ele>
        <time>2012-02-19T08:02:15Z</time>
      </trkpt>
      <trkpt lat="44.61725" lon="0.68899">
        <ele>103</ele>
        <time>2012-02-19T08:02:16Z</time>
      </trkpt>
      <trkpt lat="44.6172" lon="0.68893">
        <ele>103</ele>
        <time>2012-02-19T08:02:17Z</time>
      </trkpt>
      <trkpt lat="44.61715" lon="0.68888">
        <ele>103</ele>
        <time>2012-02-19T08:02:18Z</time>
      </trkpt>
      <trkpt lat="44.6171" lon="0.68881">
        <ele>103</ele>
        <time>2012-02-19T08:02:20Z</time>
      </trkpt>
      <trkpt lat="44.61705" lon="0.68875">
        <ele>103</ele>
        <time>2012-02-19T08:02:20Z</time>
      </trkpt>
      <trkpt lat="44.61699" lon="0.68869">
        <ele>103</ele>
        <time>2012-02-19T08:02:21Z</time>
      </trkpt>
      <trkpt lat="44.61693" lon="0.68862">
        <ele>103</ele>
        <time>2012-02-19T08:02:22Z</time>
      </trkpt>
      <trkpt lat="44.61687" lon="0.68855">
        <ele>103</ele>
        <time>2012-02-19T08:02:23Z</time>
      </trkpt>
      <trkpt lat="44.61681" lon="0.68848">
        <ele>103</ele>
        <time>2012-02-19T08:02:25Z</time>
      </trkpt>
      <trkpt lat="44.61675" lon="0.68841">
        <ele>102</ele>
        <time>2012-02-19T08:02:25Z</time>
      </trkpt>
      <trkpt lat="44.61668" lon="0.68834">
        <ele>101</ele>
        <time>2012-02-19T08:02:26Z</time>
      </trkpt>
      <trkpt lat="44.61662" lon="0.68828">
        <ele>101</ele>
        <time>2012-02-19T08:02:27Z</time>
      </trkpt>
      <trkpt lat="44.61656" lon="0.68821">
        <ele>100</ele>
        <time>2012-02-19T08:02:28Z</time>
      </trkpt>
      <trkpt lat="44.6165" lon="0.68814">
        <ele>100</ele>
        <time>2012-02-19T08:02:30Z</time>
      </trkpt>
      <trkpt lat="44.61644" lon="0.68808">
        <ele>100</ele>
        <time>2012-02-19T08:02:30Z</time>
      </trkpt>
      <trkpt lat="44.61638" lon="0.68802">
        <ele>99</ele>
        <time>2012-02-19T08:02:32Z</time>
      </trkpt>
      <trkpt lat="44.61633" lon="0.68795">
        <ele>99</ele>
        <time>2012-02-19T08:02:32Z</time>
      </trkpt>
      <trkpt lat="44.61627" lon="0.6879">
        <ele>99</ele>
        <time>2012-02-19T08:02:33Z</time>
      </trkpt>
      <trkpt lat="44.61621" lon="0.68784">
        <ele>99</ele>
        <time>2012-02-19T08:02:34Z</time>
      </trkpt>
      <trkpt lat="44.61615" lon="0.68778">
        <ele>99</ele>
        <time>2012-02-19T08:02:35Z</time>
      </trkpt>
      <trkpt lat="44.6161" lon="0.68773">
        <ele>99</ele>
        <time>2012-02-19T08:02:36Z</time>
      </trkpt>
      <trkpt lat="44.61605" lon="0.68768">
        <ele>99</ele>
        <time>2012-02-19T08:02:37Z</time>
      </trkpt>
      <trkpt lat="44.61599" lon="0.68764">
        <ele>99</ele>
        <time>2012-02-19T08:02:38Z</time>
      </trkpt>
      <trkpt lat="44.61594" lon="0.6876">
        <ele>99</ele>
        <time>2012-02-19T08:02:39Z</time>
      </trkpt>
      <trkpt lat="44.61588" lon="0.68756">
        <ele>99</ele>
        <time>2012-02-19T08:02:40Z</time>
      </trkpt>
      <trkpt lat="44.61583" lon="0.68752">
        <ele>99</ele>
        <time>2012-02-19T08:02:41Z</time>
      </trkpt>
      <trkpt lat="44.61578" lon="0.68749">
        <ele>99</ele>
        <time>2012-02-19T08:02:42Z</time>
      </trkpt>
      <trkpt lat="44.61573" lon="0.68745">
        <ele>98</ele>
        <time>2012-02-19T08:02:43Z</time>
      </trkpt>
      <trkpt lat="44.61569" lon="0.6874">
        <ele>98</ele>
        <time>2012-02-19T08:02:44Z</time>
      </trkpt>
      <trkpt lat="44.61566" lon="0.68735">
        <ele>98</ele>
        <time>2012-02-19T08:02:45Z</time>
      </trkpt>
      <trkpt lat="44.61562" lon="0.68731">
        <ele>98</ele>
        <time>2012-02-19T08:02:46Z</time>
      </trkpt>
      <trkpt lat="44.61559" lon="0.68726">
        <ele>98</ele>
        <time>2012-02-19T08:02:47Z</time>
      </trkpt>
      <trkpt lat="44.61555" lon="0.68722">
        <ele>98</ele>
        <time>2012-02-19T08:02:48Z</time>
      </trkpt>
      <trkpt lat="44.61552" lon="0.68717">
        <ele>98</ele>
        <time>2012-02-19T08:02:50Z</time>
      </trkpt>
      <trkpt lat="44.61549" lon="0.68713">
        <ele>98</ele>
        <time>2012-02-19T08:02:50Z</time>
      </trkpt>
      <trkpt lat="44.61546" lon="0.68708">
        <ele>98</ele>
        <time>2012-02-19T08:02:51Z</time>
      </trkpt>
      <trkpt lat="44.61543" lon="0.68704">
        <ele>98</ele>
        <time>2012-02-19T08:02:52Z</time>
      </trkpt>
      <trkpt lat="44.6154" lon="0.687">
        <ele>98</ele>
        <time>2012-02-19T08:02:53Z</time>
      </trkpt>
      <trkpt lat="44.61538" lon="0.68696">
        <ele>98</ele>
        <time>2012-02-19T08:02:54Z</time>
      </trkpt>
      <trkpt lat="44.61535" lon="0.68693">
        <ele>98</ele>
        <time>2012-02-19T08:02:55Z</time>
      </trkpt>
      <trkpt lat="44.61533" lon="0.68689">
        <ele>98</ele>
        <time>2012-02-19T08:02:56Z</time>
      </trkpt>
      <trkpt lat="44.61531" lon="0.68686">
        <ele>98</ele>
        <time>2012-02-19T08:02:57Z</time>
      </trkpt>
      <trkpt lat="44.61528" lon="0.68684">
        <ele>98</ele>
        <time>2012-02-19T08:02:58Z</time>
      </trkpt>
      <trkpt lat="44.61527" lon="0.68681">
        <ele>98</ele>
        <time>2012-02-19T08:02:59Z</time>
      </trkpt>
      <trkpt lat="44.61525" lon="0.68678">
        <ele>98</ele>
        <time>2012-02-19T08:03:00Z</time>
      </trkpt>
      <trkpt lat="44.61523" lon="0.68676">
        <ele>98</ele>
        <time>2012-02-19T08:03:01Z</time>
      </trkpt>
      <trkpt lat="44.6152" lon="0.68672">
        <ele>98</ele>
        <time>2012-02-19T08:03:02Z</time>
      </trkpt>
      <trkpt lat="44.61518" lon="0.68669">
        <ele>98</ele>
        <time>2012-02-19T08:03:03Z</time>
      </trkpt>
      <trkpt lat="44.61516" lon="0.68667">
        <ele>98</ele>
        <time>2012-02-19T08:03:05Z</time>
      </trkpt>
      <trkpt lat="44.61515" lon="0.68666">
        <ele>98</ele>
        <time>2012-02-19T08:03:05Z</time>
      </trkpt>
      <trkpt lat="44.61513" lon="0.68664">
        <ele>98</ele>
        <time>2012-02-19T08:03:06Z</time>
      </trkpt>
      <trkpt lat="44.61511" lon="0.68661">
        <ele>98</ele>
        <time>2012-02-19T08:03:07Z</time>
      </trkpt>
      <trkpt lat="44.6151" lon="0.6866">
        <ele>98</ele>
        <time>2012-02-19T08:03:08Z</time>
      </trkpt>
      <trkpt lat="44.61508" lon="0.68657">
        <ele>99</ele>
        <time>2012-02-19T08:03:09Z</time>
      </trkpt>
      <trkpt lat="44.61507" lon="0.68655">
        <ele>99</ele>
        <time>2012-02-19T08:03:10Z</time>
      </trkpt>
      <trkpt lat="44.61505" lon="0.68652">
        <ele>100</ele>
        <time>2012-02-19T08:03:11Z</time>
      </trkpt>
      <trkpt lat="44.61504" lon="0.6865">
        <ele>101</ele>
        <time>2012-02-19T08:03:12Z</time>
      </trkpt>
      <trkpt lat="44.61501" lon="0.68647">
        <ele>101</ele>
        <time>2012-02-19T08:03:13Z</time>
      </trkpt>
      <trkpt lat="44.61499" lon="0.68644">
        <ele>102</ele>
        <time>2012-02-19T08:03:14Z</time>
      </trkpt>
      <trkpt lat="44.61497" lon="0.68642">
        <ele>103</ele>
        <time>2012-02-19T08:03:15Z</time>
      </trkpt>
      <trkpt lat="44.61496" lon="0.6864">
        <ele>104</ele>
        <time>2012-02-19T08:03:16Z</time>
      </trkpt>
      <trkpt lat="44.61494" lon="0.68638">
        <ele>104</ele>
        <time>2012-02-19T08:03:17Z</time>
      </trkpt>
      <trkpt lat="44.61493" lon="0.68636">
        <ele>105</ele>
        <time>2012-02-19T08:03:18Z</time>
      </trkpt>
      <trkpt lat="44.61491" lon="0.68634">
        <ele>105</ele>
        <time>2012-02-19T08:03:20Z</time>
      </trkpt>
      <trkpt lat="44.61489" lon="0.68632">
        <ele>106</ele>
        <time>2012-02-19T08:03:20Z</time>
      </trkpt>
      <trkpt lat="44.61488" lon="0.6863">
        <ele>106</ele>
        <time>2012-02-19T08:03:21Z</time>
      </trkpt>
      <trkpt lat="44.61486" lon="0.68628">
        <ele>106</ele>
        <time>2012-02-19T08:03:22Z</time>
      </trkpt>
      <trkpt lat="44.61485" lon="0.68626">
        <ele>107</ele>
        <time>2012-02-19T08:03:23Z</time>
      </trkpt>
      <trkpt lat="44.61484" lon="0.68624">
        <ele>107</ele>
        <time>2012-02-19T08:03:24Z</time>
      </trkpt>
      <trkpt lat="44.61482" lon="0.68622">
        <ele>107</ele>
        <time>2012-02-19T08:03:25Z</time>
      </trkpt>
      <trkpt lat="44.6148" lon="0.6862">
        <ele>107</ele>
        <time>2012-02-19T08:03:26Z</time>
      </trkpt>
      <trkpt lat="44.61479" lon="0.68618">
        <ele>107</ele>
        <time>2012-02-19T08:03:27Z</time>
      </trkpt>
      <trkpt lat="44.61478" lon="0.68616">
        <ele>107</ele>
        <time>2012-02-19T08:03:28Z</time>
      </trkpt>
      <trkpt lat="44.61477" lon="0.68614">
        <ele>107</ele>
        <time>2012-02-19T08:03:30Z</time>
      </trkpt>
      <trkpt lat="44.61475" lon="0.68612">
        <ele>108</ele>
        <time>2012-02-19T08:03:30Z</time>
      </trkpt>
      <trkpt lat="44.61475" lon="0.68611">
        <ele>108</ele>
        <time>2012-02-19T08:03:31Z</time>
      </trkpt>
      <trkpt lat="44.61474" lon="0.68608">
        <ele>108</ele>
        <time>2012-02-19T08:03:32Z</time>
      </trkpt>
      <trkpt lat="44.61473" lon="0.68607">
        <ele>109</ele>
        <time>2012-02-19T08:03:33Z</time>
      </trkpt>
      <trkpt lat="44.61472" lon="0.68605">
        <ele>109</ele>
        <time>2012-02-19T08:03:34Z</time>
      </trkpt>
      <trkpt lat="44.61471" lon="0.68603">
        <ele>109</ele>
        <time>2012-02-19T08:03:35Z</time>
      </trkpt>
      <trkpt lat="44.61469" lon="0.68601">
        <ele>110</ele>
        <time>2012-02-19T08:03:37Z</time>
      </trkpt>
      <trkpt lat="44.61469" lon="0.68598">
        <ele>110</ele>
        <time>2012-02-19T08:03:39Z</time>
      </trkpt>
      <trkpt lat="44.61468" lon="0.68596">
        <ele>111</ele>
        <time>2012-02-19T08:03:41Z</time>
      </trkpt>
      <trkpt lat="44.61467" lon="0.68594">
        <ele>111</ele>
        <time>2012-02-19T08:03:43Z</time>
      </trkpt>
      <trkpt lat="44.61466" lon="0.68591">
        <ele>111</ele>
        <time>2012-02-19T08:03:44Z</time>
      </trkpt>
      <trkpt lat="44.61464" lon="0.68589">
        <ele>111</ele>
        <time>2012-02-19T08:03:45Z</time>
      </trkpt>
      <trkpt lat="44.61463" lon="0.68587">
        <ele>111</ele>
        <time>2012-02-19T08:03:46Z</time>
      </trkpt>
      <trkpt lat="44.61462" lon="0.68585">
        <ele>111</ele>
        <time>2012-02-19T08:03:47Z</time>
      </trkpt>
      <trkpt lat="44.61461" lon="0.68584">
        <ele>111</ele>
        <time>2012-02-19T08:03:48Z</time>
      </trkpt>
      <trkpt lat="44.6146" lon="0.68581">
        <ele>112</ele>
        <time>2012-02-19T08:03:49Z</time>
      </trkpt>
      <trkpt lat="44.61459" lon="0.6858">
        <ele>112</ele>
        <time>2012-02-19T08:03:50Z</time>
      </trkpt>
      <trkpt lat="44.61458" lon="0.68578">
        <ele>113</ele>
        <time>2012-02-19T08:03:51Z</time>
      </trkpt>
      <trkpt lat="44.61457" lon="0.68576">
        <ele>114</ele>
        <time>2012-02-19T08:03:52Z</time>
      </trkpt>
      <trkpt lat="44.61455" lon="0.68574">
        <ele>114</ele>
        <time>2012-02-19T08:03:53Z</time>
      </trkpt>
      <trkpt lat="44.61454" lon="0.68572">
        <ele>115</ele>
        <time>2012-02-19T08:03:55Z</time>
      </trkpt>
      <trkpt lat="44.61453" lon="0.68569">
        <ele>115</ele>
        <time>2012-02-19T08:03:55Z</time>
      </trkpt>
      <trkpt lat="44.61452" lon="0.68568">
        <ele>115</ele>
        <time>2012-02-19T08:03:56Z</time>
      </trkpt>
      <trkpt lat="44.61451" lon="0.68565">
        <ele>116</ele>
        <time>2012-02-19T08:03:57Z</time>
      </trkpt>
      <trkpt lat="44.61449" lon="0.68563">
        <ele>117</ele>
        <time>2012-02-19T08:03:58Z</time>
      </trkpt>
      <trkpt lat="44.61448" lon="0.6856">
        <ele>117</ele>
        <time>2012-02-19T08:04:00Z</time>
      </trkpt>
      <trkpt lat="44.61446" lon="0.68559">
        <ele>118</ele>
        <time>2012-02-19T08:04:02Z</time>
      </trkpt>
      <trkpt lat="44.61447" lon="0.68558">
        <ele>118</ele>
        <time>2012-02-19T08:04:03Z</time>
      </trkpt>
      <trkpt lat="44.61446" lon="0.68555">
        <ele>119</ele>
        <time>2012-02-19T08:04:05Z</time>
      </trkpt>
      <trkpt lat="44.61444" lon="0.68554">
        <ele>119</ele>
        <time>2012-02-19T08:04:07Z</time>
      </trkpt>
      <trkpt lat="44.61443" lon="0.68552">
        <ele>119</ele>
        <time>2012-02-19T08:04:11Z</time>
      </trkpt>
      <trkpt lat="44.61442" lon="0.68552">
        <ele>119</ele>
        <time>2012-02-19T08:04:14Z</time>
      </trkpt>
      <trkpt lat="44.61442" lon="0.6855">
        <ele>120</ele>
        <time>2012-02-19T08:04:17Z</time>
      </trkpt>
      <trkpt lat="44.61442" lon="0.68549">
        <ele>124</ele>
        <time>2012-02-19T08:04:23Z</time>
      </trkpt>
      <trkpt lat="44.61442" lon="0.68547">
        <ele>124</ele>
        <time>2012-02-19T08:04:25Z</time>
      </trkpt>
      <trkpt lat="44.61441" lon="0.68546">
        <ele>124</ele>
        <time>2012-02-19T08:04:27Z</time>
      </trkpt>
      <trkpt lat="44.6144" lon="0.68544">
        <ele>125</ele>
        <time>2012-02-19T08:04:29Z</time>
      </trkpt>
      <trkpt lat="44.61438" lon="0.68542">
        <ele>126</ele>
        <time>2012-02-19T08:04:31Z</time>
      </trkpt>
      <trkpt lat="44.61438" lon="0.6854">
        <ele>126</ele>
        <time>2012-02-19T08:04:33Z</time>
      </trkpt>
      <trkpt lat="44.61437" lon="0.68539">
        <ele>126</ele>
        <time>2012-02-19T08:04:35Z</time>
      </trkpt>
      <trkpt lat="44.61436" lon="0.68537">
        <ele>126</ele>
        <time>2012-02-19T08:04:37Z</time>
      </trkpt>
      <trkpt lat="44.61435" lon="0.68535">
        <ele>127</ele>
        <time>2012-02-19T08:04:39Z</time>
      </trkpt>
      <trkpt lat="44.61434" lon="0.68533">
        <ele>129</ele>
        <time>2012-02-19T08:04:42Z</time>
      </trkpt>
      <trkpt lat="44.61433" lon="0.68531">
        <ele>129</ele>
        <time>2012-02-19T08:04:44Z</time>
      </trkpt>
      <trkpt lat="44.61432" lon="0.68528">
        <ele>129</ele>
        <time>2012-02-19T08:04:46Z</time>
      </trkpt>
      <trkpt lat="44.61431" lon="0.68526">
        <ele>129</ele>
        <time>2012-02-19T08:04:47Z</time>
      </trkpt>
      <trkpt lat="44.61431" lon="0.68525">
        <ele>129</ele>
        <time>2012-02-19T08:04:48Z</time>
      </trkpt>
      <trkpt lat="44.6143" lon="0.68523">
        <ele>129</ele>
        <time>2012-02-19T08:04:50Z</time>
      </trkpt>
      <trkpt lat="44.61428" lon="0.68521">
        <ele>129</ele>
        <time>2012-02-19T08:04:52Z</time>
      </trkpt>
      <trkpt lat="44.61427" lon="0.68519">
        <ele>129</ele>
        <time>2012-02-19T08:04:54Z</time>
      </trkpt>
      <trkpt lat="44.61426" lon="0.68519">
        <ele>131</ele>
        <time>2012-02-19T08:04:56Z</time>
      </trkpt>
      <trkpt lat="44.61424" lon="0.68517">
        <ele>132</ele>
        <time>2012-02-19T08:04:58Z</time>
      </trkpt>
      <trkpt lat="44.61424" lon="0.68515">
        <ele>133</ele>
        <time>2012-02-19T08:05:00Z</time>
      </trkpt>
      <trkpt lat="44.61422" lon="0.68513">
        <ele>133</ele>
        <time>2012-02-19T08:05:02Z</time>
      </trkpt>
      <trkpt lat="44.61421" lon="0.68511">
        <ele>133</ele>
        <time>2012-02-19T08:05:05Z</time>
      </trkpt>
      <trkpt lat="44.61421" lon="0.68509">
        <ele>134</ele>
        <time>2012-02-19T08:05:08Z</time>
      </trkpt>
      <trkpt lat="44.6142" lon="0.68507">
        <ele>135</ele>
        <time>2012-02-19T08:05:10Z</time>
      </trkpt>
      <trkpt lat="44.61419" lon="0.68506">
        <ele>135</ele>
        <time>2012-02-19T08:05:12Z</time>
      </trkpt>
      <trkpt lat="44.61417" lon="0.68505">
        <ele>136</ele>
        <time>2012-02-19T08:05:15Z</time>
      </trkpt>
      <trkpt lat="44.61415" lon="0.68502">
        <ele>137</ele>
        <time>2012-02-19T08:05:17Z</time>
      </trkpt>
      <trkpt lat="44.61414" lon="0.68501">
        <ele>137</ele>
        <time>2012-02-19T08:05:18Z</time>
      </trkpt>
      <trkpt lat="44.61413" lon="0.68499">
        <ele>138</ele>
        <time>2012-02-19T08:05:19Z</time>
      </trkpt>
      <trkpt lat="44.61412" lon="0.68497">
        <ele>138</ele>
        <time>2012-02-19T08:05:20Z</time>
      </trkpt>
      <trkpt lat="44.6141" lon="0.68496">
        <ele>139</ele>
        <time>2012-02-19T08:05:22Z</time>
      </trkpt>
      <trkpt lat="44.61409" lon="0.68493">
        <ele>140</ele>
        <time>2012-02-19T08:05:25Z</time>
      </trkpt>
      <trkpt lat="44.61408" lon="0.68492">
        <ele>140</ele>
        <time>2012-02-19T08:05:26Z</time>
      </trkpt>
      <trkpt lat="44.61406" lon="0.6849">
        <ele>141</ele>
        <time>2012-02-19T08:05:28Z</time>
      </trkpt>
      <trkpt lat="44.61405" lon="0.68488">
        <ele>142</ele>
        <time>2012-02-19T08:05:30Z</time>
      </trkpt>
      <trkpt lat="44.61404" lon="0.68486">
        <ele>142</ele>
        <time>2012-02-19T08:05:33Z</time>
      </trkpt>
      <trkpt lat="44.61403" lon="0.68484">
        <ele>142</ele>
        <time>2012-02-19T08:05:35Z</time>
      </trkpt>
      <trkpt lat="44.61403" lon="0.68482">
        <ele>142</ele>
        <time>2012-02-19T08:05:37Z</time>
      </trkpt>
      <trkpt lat="44.61402" lon="0.6848">
        <ele>142</ele>
        <time>2012-02-19T08:05:39Z</time>
      </trkpt>
      <trkpt lat="44.61401" lon="0.68479">
        <ele>142</ele>
        <time>2012-02-19T08:05:41Z</time>
      </trkpt>
      <trkpt lat="44.614" lon="0.68477">
        <ele>142</ele>
        <time>2012-02-19T08:05:42Z</time>
      </trkpt>
      <trkpt lat="44.61398" lon="0.68475">
        <ele>142</ele>
        <time>2012-02-19T08:05:44Z</time>
      </trkpt>
      <trkpt lat="44.61397" lon="0.68474">
        <ele>142</ele>
        <time>2012-02-19T08:05:46Z</time>
      </trkpt>
      <trkpt lat="44.61395" lon="0.68471">
        <ele>142</ele>
        <time>2012-02-19T08:05:48Z</time>
      </trkpt>
      <trkpt lat="44.61393" lon="0.6847">
        <ele>142</ele>
        <time>2012-02-19T08:05:49Z</time>
      </trkpt>
      <trkpt lat="44.61391" lon="0.68468">
        <ele>142</ele>
        <time>2012-02-19T08:05:51Z</time>
      </trkpt>
      <trkpt lat="44.6139" lon="0.68466">
        <ele>142</ele>
        <time>2012-02-19T08:05:53Z</time>
      </trkpt>
      <trkpt lat="44.61389" lon="0.68465">
        <ele>142</ele>
        <time>2012-02-19T08:05:55Z</time>
      </trkpt>
      <trkpt lat="44.61387" lon="0.68463">
        <ele>142</ele>
        <time>2012-02-19T08:05:58Z</time>
      </trkpt>
      <trkpt lat="44.61386" lon="0.68462">
        <ele>142</ele>
        <time>2012-02-19T08:06:00Z</time>
      </trkpt>
      <trkpt lat="44.61384" lon="0.68459">
        <ele>142</ele>
        <time>2012-02-19T08:06:03Z</time>
      </trkpt>
      <trkpt lat="44.61383" lon="0.68457">
        <ele>142</ele>
        <time>2012-02-19T08:06:05Z</time>
      </trkpt>
      <trkpt lat="44.61381" lon="0.68455">
        <ele>142</ele>
        <time>2012-02-19T08:06:07Z</time>
      </trkpt>
      <trkpt lat="44.6138" lon="0.68453">
        <ele>142</ele>
        <time>2012-02-19T08:06:09Z</time>
      </trkpt>
      <trkpt lat="44.61378" lon="0.68451">
        <ele>142</ele>
        <time>2012-02-19T08:06:11Z</time>
      </trkpt>
      <trkpt lat="44.61377" lon="0.68449">
        <ele>142</ele>
        <time>2012-02-19T08:06:13Z</time>
      </trkpt>
      <trkpt lat="44.61375" lon="0.68447">
        <ele>142</ele>
        <time>2012-02-19T08:06:15Z</time>
      </trkpt>
      <trkpt lat="44.61373" lon="0.68445">
        <ele>142</ele>
        <time>2012-02-19T08:06:17Z</time>
      </trkpt>
      <trkpt lat="44.61372" lon="0.68443">
        <ele>142</ele>
        <time>2012-02-19T08:06:19Z</time>
      </trkpt>
      <trkpt lat="44.61371" lon="0.68441">
        <ele>143</ele>
        <time>2012-02-19T08:06:20Z</time>
      </trkpt>
      <trkpt lat="44.6137" lon="0.6844">
        <ele>143</ele>
        <time>2012-02-19T08:06:21Z</time>
      </trkpt>
      <trkpt lat="44.6137" lon="0.68438">
        <ele>143</ele>
        <time>2012-02-19T08:06:22Z</time>
      </trkpt>
      <trkpt lat="44.61369" lon="0.68436">
        <ele>143</ele>
        <time>2012-02-19T08:06:23Z</time>
      </trkpt>
      <trkpt lat="44.6137" lon="0.68434">
        <ele>143</ele>
        <time>2012-02-19T08:06:25Z</time>
      </trkpt>
      <trkpt lat="44.61372" lon="0.68432">
        <ele>143</ele>
        <time>2012-02-19T08:06:27Z</time>
      </trkpt>
      <trkpt lat="44.61373" lon="0.68432">
        <ele>143</ele>
        <time>2012-02-19T08:06:29Z</time>
      </trkpt>
      <trkpt lat="44.61372" lon="0.6843">
        <ele>143</ele>
        <time>2012-02-19T08:06:35Z</time>
      </trkpt>
      <trkpt lat="44.61371" lon="0.68429">
        <ele>143</ele>
        <time>2012-02-19T08:06:41Z</time>
      </trkpt>
      <trkpt lat="44.6137" lon="0.68427">
        <ele>143</ele>
        <time>2012-02-19T08:06:50Z</time>
      </trkpt>
      <trkpt lat="44.61369" lon="0.68426">
        <ele>143</ele>
        <time>2012-02-19T08:06:58Z</time>
      </trkpt>
      <trkpt lat="44.61368" lon="0.68425">
        <ele>143</ele>
        <time>2012-02-19T08:07:07Z</time>
      </trkpt>
      <trkpt lat="44.61369" lon="0.68423">
        <ele>147</ele>
        <time>2012-02-19T08:08:07Z</time>
      </trkpt>
      <trkpt lat="44.61368" lon="0.68422">
        <ele>146</ele>
        <time>2012-02-19T08:08:16Z</time>
      </trkpt>
      <trkpt lat="44.6137" lon="0.68423">
        <ele>145</ele>
        <time>2012-02-19T08:08:22Z</time>
      </trkpt>
      <trkpt lat="44.61371" lon="0.6842">
        <ele>145</ele>
        <time>2012-02-19T08:08:30Z</time>
      </trkpt>
      <trkpt lat="44.61372" lon="0.68418">
        <ele>145</ele>
        <time>2012-02-19T08:08:32Z</time>
      </trkpt>
      <trkpt lat="44.61373" lon="0.68417">
        <ele>145</ele>
        <time>2012-02-19T08:08:33Z</time>
      </trkpt>
      <trkpt lat="44.61374" lon="0.68415">
        <ele>145</ele>
        <time>2012-02-19T08:08:34Z</time>
      </trkpt>
      <trkpt lat="44.61376" lon="0.68413">
        <ele>145</ele>
        <time>2012-02-19T08:08:35Z</time>
      </trkpt>
      <trkpt lat="44.61377" lon="0.68411">
        <ele>145</ele>
        <time>2012-02-19T08:08:36Z</time>
      </trkpt>
      <trkpt lat="44.61378" lon="0.6841">
        <ele>145</ele>
        <time>2012-02-19T08:08:37Z</time>
      </trkpt>
      <trkpt lat="44.61379" lon="0.68408">
        <ele>145</ele>
        <time>2012-02-19T08:08:38Z</time>
      </trkpt>
      <trkpt lat="44.61381" lon="0.68407">
        <ele>145</ele>
        <time>2012-02-19T08:08:39Z</time>
      </trkpt>
      <trkpt lat="44.61382" lon="0.68405">
        <ele>145</ele>
        <time>2012-02-19T08:08:40Z</time>
      </trkpt>
      <trkpt lat="44.61384" lon="0.68403">
        <ele>145</ele>
        <time>2012-02-19T08:08:41Z</time>
      </trkpt>
      <trkpt lat="44.61385" lon="0.68399">
        <ele>145</ele>
        <time>2012-02-19T08:08:42Z</time>
      </trkpt>
      <trkpt lat="44.61386" lon="0.68396">
        <ele>144</ele>
        <time>2012-02-19T08:08:43Z</time>
      </trkpt>
      <trkpt lat="44.61388" lon="0.68393">
        <ele>144</ele>
        <time>2012-02-19T08:08:44Z</time>
      </trkpt>
      <trkpt lat="44.6139" lon="0.6839">
        <ele>144</ele>
        <time>2012-02-19T08:08:45Z</time>
      </trkpt>
      <trkpt lat="44.61392" lon="0.68386">
        <ele>144</ele>
        <time>2012-02-19T08:08:46Z</time>
      </trkpt>
      <trkpt lat="44.61395" lon="0.68382">
        <ele>144</ele>
        <time>2012-02-19T08:08:47Z</time>
      </trkpt>
      <trkpt lat="44.61397" lon="0.68377">
        <ele>143</ele>
        <time>2012-02-19T08:08:48Z</time>
      </trkpt>
      <trkpt lat="44.61399" lon="0.68373">
        <ele>143</ele>
        <time>2012-02-19T08:08:49Z</time>
      </trkpt>
      <trkpt lat="44.61401" lon="0.68369">
        <ele>143</ele>
        <time>2012-02-19T08:08:50Z</time>
      </trkpt>
      <trkpt lat="44.61403" lon="0.68364">
        <ele>142</ele>
        <time>2012-02-19T08:08:51Z</time>
      </trkpt>
      <trkpt lat="44.61404" lon="0.68359">
        <ele>142</ele>
        <time>2012-02-19T08:08:52Z</time>
      </trkpt>
      <trkpt lat="44.61404" lon="0.68353">
        <ele>141</ele>
        <time>2012-02-19T08:08:53Z</time>
      </trkpt>
      <trkpt lat="44.61402" lon="0.68346">
        <ele>140</ele>
        <time>2012-02-19T08:08:54Z</time>
      </trkpt>
      <trkpt lat="44.61401" lon="0.6834">
        <ele>140</ele>
        <time>2012-02-19T08:08:55Z</time>
      </trkpt>
      <trkpt lat="44.61398" lon="0.68335">
        <ele>139</ele>
        <time>2012-02-19T08:08:56Z</time>
      </trkpt>
      <trkpt lat="44.61396" lon="0.68331">
        <ele>138</ele>
        <time>2012-02-19T08:08:57Z</time>
      </trkpt>
      <trkpt lat="44.61393" lon="0.68326">
        <ele>137</ele>
        <time>2012-02-19T08:08:58Z</time>
      </trkpt>
      <trkpt lat="44.61391" lon="0.68321">
        <ele>136</ele>
        <time>2012-02-19T08:08:59Z</time>
      </trkpt>
      <trkpt lat="44.61388" lon="0.68316">
        <ele>135</ele>
        <time>2012-02-19T08:09:00Z</time>
      </trkpt>
      <trkpt lat="44.61384" lon="0.68311">
        <ele>134</ele>
        <time>2012-02-19T08:09:01Z</time>
      </trkpt>
      <trkpt lat="44.61381" lon="0.68306">
        <ele>134</ele>
        <time>2012-02-19T08:09:02Z</time>
      </trkpt>
      <trkpt lat="44.61378" lon="0.683">
        <ele>134</ele>
        <time>2012-02-19T08:09:03Z</time>
      </trkpt>
      <trkpt lat="44.61375" lon="0.68295">
        <ele>134</ele>
        <time>2012-02-19T08:09:04Z</time>
      </trkpt>
      <trkpt lat="44.61372" lon="0.6829">
        <ele>134</ele>
        <time>2012-02-19T08:09:05Z</time>
      </trkpt>
      <trkpt lat="44.61369" lon="0.68285">
        <ele>134</ele>
        <time>2012-02-19T08:09:06Z</time>
      </trkpt>
      <trkpt lat="44.61366" lon="0.68279">
        <ele>134</ele>
        <time>2012-02-19T08:09:07Z</time>
      </trkpt>
      <trkpt lat="44.61363" lon="0.68274">
        <ele>134</ele>
        <time>2012-02-19T08:09:08Z</time>
      </trkpt>
      <trkpt lat="44.61361" lon="0.6827">
        <ele>134</ele>
        <time>2012-02-19T08:09:09Z</time>
      </trkpt>
      <trkpt lat="44.61358" lon="0.68268">
        <ele>134</ele>
        <time>2012-02-19T08:09:10Z</time>
      </trkpt>
      <trkpt lat="44.61356" lon="0.68267">
        <ele>134</ele>
        <time>2012-02-19T08:09:11Z</time>
      </trkpt>
      <trkpt lat="44.61354" lon="0.68266">
        <ele>134</ele>
        <time>2012-02-19T08:09:12Z</time>
      </trkpt>
      <trkpt lat="44.61353" lon="0.68266">
        <ele>134</ele>
        <time>2012-02-19T08:09:13Z</time>
      </trkpt>
      <trkpt lat="44.61351" lon="0.68265">
        <ele>134</ele>
        <time>2012-02-19T08:09:22Z</time>
      </trkpt>
      <trkpt lat="44.6135" lon="0.68267">
        <ele>134</ele>
        <time>2012-02-19T08:09:25Z</time>
      </trkpt>
      <trkpt lat="44.61348" lon="0.68267">
        <ele>135</ele>
        <time>2012-02-19T08:09:27Z</time>
      </trkpt>
      <trkpt lat="44.61346" lon="0.68269">
        <ele>136</ele>
        <time>2012-02-19T08:09:30Z</time>
      </trkpt>
      <trkpt lat="44.61345" lon="0.68269">
        <ele>136</ele>
        <time>2012-02-19T08:09:32Z</time>
      </trkpt>
      <trkpt lat="44.61344" lon="0.6827">
        <ele>136</ele>
        <time>2012-02-19T08:09:34Z</time>
      </trkpt>
      <trkpt lat="44.61342" lon="0.68271">
        <ele>136</ele>
        <time>2012-02-19T08:09:36Z</time>
      </trkpt>
      <trkpt lat="44.6134" lon="0.68271">
        <ele>136</ele>
        <time>2012-02-19T08:09:38Z</time>
      </trkpt>
      <trkpt lat="44.61339" lon="0.68272">
        <ele>136</ele>
        <time>2012-02-19T08:09:39Z</time>
      </trkpt>
      <trkpt lat="44.61338" lon="0.68272">
        <ele>136</ele>
        <time>2012-02-19T08:09:40Z</time>
      </trkpt>
      <trkpt lat="44.61336" lon="0.68272">
        <ele>136</ele>
        <time>2012-02-19T08:09:43Z</time>
      </trkpt>
      <trkpt lat="44.61335" lon="0.68272">
        <ele>136</ele>
        <time>2012-02-19T08:09:48Z</time>
      </trkpt>
      <trkpt lat="44.61333" lon="0.68273">
        <ele>136</ele>
        <time>2012-02-19T08:09:50Z</time>
      </trkpt>
      <trkpt lat="44.61332" lon="0.68274">
        <ele>137</ele>
        <time>2012-02-19T08:09:51Z</time>
      </trkpt>
      <trkpt lat="44.6133" lon="0.68275">
        <ele>137</ele>
        <time>2012-02-19T08:09:52Z</time>
      </trkpt>
      <trkpt lat="44.61329" lon="0.68276">
        <ele>137</ele>
        <time>2012-02-19T08:09:53Z</time>
      </trkpt>
      <trkpt lat="44.61327" lon="0.68277">
        <ele>138</ele>
        <time>2012-02-19T08:09:54Z</time>
      </trkpt>
      <trkpt lat="44.61325" lon="0.68278">
        <ele>138</ele>
        <time>2012-02-19T08:09:55Z</time>
      </trkpt>
      <trkpt lat="44.61322" lon="0.68278">
        <ele>138</ele>
        <time>2012-02-19T08:09:56Z</time>
      </trkpt>
      <trkpt lat="44.6132" lon="0.68279">
        <ele>138</ele>
        <time>2012-02-19T08:09:57Z</time>
      </trkpt>
      <trkpt lat="44.61319" lon="0.68281">
        <ele>139</ele>
        <time>2012-02-19T08:09:58Z</time>
      </trkpt>
      <trkpt lat="44.61317" lon="0.68282">
        <ele>139</ele>
        <time>2012-02-19T08:09:59Z</time>
      </trkpt>
      <trkpt lat="44.61315" lon="0.68283">
        <ele>139</ele>
        <time>2012-02-19T08:10:00Z</time>
      </trkpt>
      <trkpt lat="44.61313" lon="0.68285">
        <ele>139</ele>
        <time>2012-02-19T08:10:01Z</time>
      </trkpt>
      <trkpt lat="44.61311" lon="0.68286">
        <ele>139</ele>
        <time>2012-02-19T08:10:02Z</time>
      </trkpt>
      <trkpt lat="44.61309" lon="0.68287">
        <ele>139</ele>
        <time>2012-02-19T08:10:03Z</time>
      </trkpt>
      <trkpt lat="44.61307" lon="0.68289">
        <ele>139</ele>
        <time>2012-02-19T08:10:04Z</time>
      </trkpt>
      <trkpt lat="44.61305" lon="0.68291">
        <ele>139</ele>
        <time>2012-02-19T08:10:05Z</time>
      </trkpt>
      <trkpt lat="44.61303" lon="0.68293">
        <ele>139</ele>
        <time>2012-02-19T08:10:06Z</time>
      </trkpt>
      <trkpt lat="44.61301" lon="0.68296">
        <ele>139</ele>
        <time>2012-02-19T08:10:07Z</time>
      </trkpt>
      <trkpt lat="44.61299" lon="0.68298">
        <ele>139</ele>
        <time>2012-02-19T08:10:08Z</time>
      </trkpt>
      <trkpt lat="44.61297" lon="0.68301">
        <ele>139</ele>
        <time>2012-02-19T08:10:09Z</time>
      </trkpt>
      <trkpt lat="44.61294" lon="0.68304">
        <ele>139</ele>
        <time>2012-02-19T08:10:10Z</time>
      </trkpt>
      <trkpt lat="44.61292" lon="0.68307">
        <ele>139</ele>
        <time>2012-02-19T08:10:11Z</time>
      </trkpt>
      <trkpt lat="44.6129" lon="0.68309">
        <ele>139</ele>
        <time>2012-02-19T08:10:12Z</time>
      </trkpt>
      <trkpt lat="44.61288" lon="0.68312">
        <ele>139</ele>
        <time>2012-02-19T08:10:13Z</time>
      </trkpt>
      <trkpt lat="44.61286" lon="0.68314">
        <ele>139</ele>
        <time>2012-02-19T08:10:14Z</time>
      </trkpt>
      <trkpt lat="44.61284" lon="0.68316">
        <ele>139</ele>
        <time>2012-02-19T08:10:15Z</time>
      </trkpt>
      <trkpt lat="44.61282" lon="0.68317">
        <ele>138</ele>
        <time>2012-02-19T08:10:16Z</time>
      </trkpt>
      <trkpt lat="44.61281" lon="0.68319">
        <ele>138</ele>
        <time>2012-02-19T08:10:17Z</time>
      </trkpt>
      <trkpt lat="44.61279" lon="0.68321">
        <ele>138</ele>
        <time>2012-02-19T08:10:18Z</time>
      </trkpt>
      <trkpt lat="44.61278" lon="0.68324">
        <ele>138</ele>
        <time>2012-02-19T08:10:19Z</time>
      </trkpt>
      <trkpt lat="44.61276" lon="0.68326">
        <ele>138</ele>
        <time>2012-02-19T08:10:20Z</time>
      </trkpt>
      <trkpt lat="44.61274" lon="0.68329">
        <ele>138</ele>
        <time>2012-02-19T08:10:21Z</time>
      </trkpt>
      <trkpt lat="44.61273" lon="0.6833">
        <ele>138</ele>
        <time>2012-02-19T08:10:22Z</time>
      </trkpt>
      <trkpt lat="44.61271" lon="0.68331">
        <ele>138</ele>
        <time>2012-02-19T08:10:23Z</time>
      </trkpt>
      <trkpt lat="44.6127" lon="0.68331">
        <ele>138</ele>
        <time>2012-02-19T08:10:24Z</time>
      </trkpt>
      <trkpt lat="44.61268" lon="0.68332">
        <ele>138</ele>
        <time>2012-02-19T08:10:25Z</time>
      </trkpt>
      <trkpt lat="44.61267" lon="0.68335">
        <ele>138</ele>
        <time>2012-02-19T08:10:26Z</time>
      </trkpt>
      <trkpt lat="44.61265" lon="0.68337">
        <ele>138</ele>
        <time>2012-02-19T08:10:27Z</time>
      </trkpt>
      <trkpt lat="44.61263" lon="0.68339">
        <ele>138</ele>
        <time>2012-02-19T08:10:28Z</time>
      </trkpt>
      <trkpt lat="44.61262" lon="0.68341">
        <ele>138</ele>
        <time>2012-02-19T08:10:29Z</time>
      </trkpt>
      <trkpt lat="44.61261" lon="0.68341">
        <ele>138</ele>
        <time>2012-02-19T08:10:30Z</time>
      </trkpt>
      <trkpt lat="44.61259" lon="0.68342">
        <ele>138</ele>
        <time>2012-02-19T08:10:31Z</time>
      </trkpt>
      <trkpt lat="44.61257" lon="0.68343">
        <ele>138</ele>
        <time>2012-02-19T08:10:32Z</time>
      </trkpt>
      <trkpt lat="44.61256" lon="0.68345">
        <ele>138</ele>
        <time>2012-02-19T08:10:33Z</time>
      </trkpt>
      <trkpt lat="44.61255" lon="0.68348">
        <ele>138</ele>
        <time>2012-02-19T08:10:34Z</time>
      </trkpt>
      <trkpt lat="44.61255" lon="0.68351">
        <ele>138</ele>
        <time>2012-02-19T08:10:35Z</time>
      </trkpt>
      <trkpt lat="44.61254" lon="0.68355">
        <ele>138</ele>
        <time>2012-02-19T08:10:36Z</time>
      </trkpt>
      <trkpt lat="44.61253" lon="0.68359">
        <ele>138</ele>
        <time>2012-02-19T08:10:37Z</time>
      </trkpt>
      <trkpt lat="44.61252" lon="0.68363">
        <ele>138</ele>
        <time>2012-02-19T08:10:38Z</time>
      </trkpt>
      <trkpt lat="44.61251" lon="0.68368">
        <ele>138</ele>
        <time>2012-02-19T08:10:39Z</time>
      </trkpt>
      <trkpt lat="44.6125" lon="0.68373">
        <ele>138</ele>
        <time>2012-02-19T08:10:40Z</time>
      </trkpt>
      <trkpt lat="44.6125" lon="0.68378">
        <ele>137</ele>
        <time>2012-02-19T08:10:41Z</time>
      </trkpt>
      <trkpt lat="44.6125" lon="0.68384">
        <ele>137</ele>
        <time>2012-02-19T08:10:42Z</time>
      </trkpt>
      <trkpt lat="44.61249" lon="0.6839">
        <ele>136</ele>
        <time>2012-02-19T08:10:43Z</time>
      </trkpt>
      <trkpt lat="44.61248" lon="0.68396">
        <ele>135</ele>
        <time>2012-02-19T08:10:44Z</time>
      </trkpt>
      <trkpt lat="44.61248" lon="0.68401">
        <ele>134</ele>
        <time>2012-02-19T08:10:45Z</time>
      </trkpt>
      <trkpt lat="44.61248" lon="0.68406">
        <ele>133</ele>
        <time>2012-02-19T08:10:46Z</time>
      </trkpt>
      <trkpt lat="44.61247" lon="0.6841">
        <ele>132</ele>
        <time>2012-02-19T08:10:47Z</time>
      </trkpt>
      <trkpt lat="44.61247" lon="0.68414">
        <ele>131</ele>
        <time>2012-02-19T08:10:48Z</time>
      </trkpt>
      <trkpt lat="44.61247" lon="0.68417">
        <ele>130</ele>
        <time>2012-02-19T08:10:49Z</time>
      </trkpt>
      <trkpt lat="44.61247" lon="0.6842">
        <ele>129</ele>
        <time>2012-02-19T08:10:50Z</time>
      </trkpt>
      <trkpt lat="44.61247" lon="0.68423">
        <ele>129</ele>
        <time>2012-02-19T08:10:51Z</time>
      </trkpt>
      <trkpt lat="44.61247" lon="0.68425">
        <ele>129</ele>
        <time>2012-02-19T08:10:52Z</time>
      </trkpt>
      <trkpt lat="44.61247" lon="0.68427">
        <ele>128</ele>
        <time>2012-02-19T08:10:53Z</time>
      </trkpt>
      <trkpt lat="44.61245" lon="0.68429">
        <ele>127</ele>
        <time>2012-02-19T08:10:55Z</time>
      </trkpt>
      <trkpt lat="44.61243" lon="0.68429">
        <ele>126</ele>
        <time>2012-02-19T08:10:56Z</time>
      </trkpt>
      <trkpt lat="44.61242" lon="0.68429">
        <ele>125</ele>
        <time>2012-02-19T08:10:57Z</time>
      </trkpt>
      <trkpt lat="44.6124" lon="0.68429">
        <ele>125</ele>
        <time>2012-02-19T08:10:58Z</time>
      </trkpt>
      <trkpt lat="44.61238" lon="0.68429">
        <ele>124</ele>
        <time>2012-02-19T08:10:59Z</time>
      </trkpt>
      <trkpt lat="44.61235" lon="0.68429">
        <ele>123</ele>
        <time>2012-02-19T08:11:00Z</time>
      </trkpt>
      <trkpt lat="44.61232" lon="0.68429">
        <ele>122</ele>
        <time>2012-02-19T08:11:01Z</time>
      </trkpt>
      <trkpt lat="44.61228" lon="0.6843">
        <ele>122</ele>
        <time>2012-02-19T08:11:02Z</time>
      </trkpt>
      <trkpt lat="44.61223" lon="0.6843">
        <ele>121</ele>
        <time>2012-02-19T08:11:03Z</time>
      </trkpt>
      <trkpt lat="44.61219" lon="0.6843">
        <ele>120</ele>
        <time>2012-02-19T08:11:04Z</time>
      </trkpt>
      <trkpt lat="44.61215" lon="0.6843">
        <ele>119</ele>
        <time>2012-02-19T08:11:05Z</time>
      </trkpt>
      <trkpt lat="44.61211" lon="0.68429">
        <ele>118</ele>
        <time>2012-02-19T08:11:06Z</time>
      </trkpt>
      <trkpt lat="44.61207" lon="0.68429">
        <ele>118</ele>
        <time>2012-02-19T08:11:07Z</time>
      </trkpt>
      <trkpt lat="44.61203" lon="0.68429">
        <ele>117</ele>
        <time>2012-02-19T08:11:08Z</time>
      </trkpt>
      <trkpt lat="44.612" lon="0.68428">
        <ele>116</ele>
        <time>2012-02-19T08:11:09Z</time>
      </trkpt>
      <trkpt lat="44.61196" lon="0.6843">
        <ele>115</ele>
        <time>2012-02-19T08:11:10Z</time>
      </trkpt>
      <trkpt lat="44.61193" lon="0.68432">
        <ele>114</ele>
        <time>2012-02-19T08:11:11Z</time>
      </trkpt>
      <trkpt lat="44.6119" lon="0.68435">
        <ele>113</ele>
        <time>2012-02-19T08:11:12Z</time>
      </trkpt>
      <trkpt lat="44.61188" lon="0.68437">
        <ele>112</ele>
        <time>2012-02-19T08:11:13Z</time>
      </trkpt>
      <trkpt lat="44.61186" lon="0.68438">
        <ele>112</ele>
        <time>2012-02-19T08:11:14Z</time>
      </trkpt>
      <trkpt lat="44.61184" lon="0.68439">
        <ele>112</ele>
        <time>2012-02-19T08:11:15Z</time>
      </trkpt>
      <trkpt lat="44.61181" lon="0.6844">
        <ele>111</ele>
        <time>2012-02-19T08:11:16Z</time>
      </trkpt>
      <trkpt lat="44.61178" lon="0.68441">
        <ele>111</ele>
        <time>2012-02-19T08:11:17Z</time>
      </trkpt>
      <trkpt lat="44.61175" lon="0.68443">
        <ele>110</ele>
        <time>2012-02-19T08:11:18Z</time>
      </trkpt>
      <trkpt lat="44.61171" lon="0.68447">
        <ele>109</ele>
        <time>2012-02-19T08:11:19Z</time>
      </trkpt>
      <trkpt lat="44.61167" lon="0.68451">
        <ele>108</ele>
        <time>2012-02-19T08:11:20Z</time>
      </trkpt>
      <trkpt lat="44.61163" lon="0.68456">
        <ele>108</ele>
        <time>2012-02-19T08:11:21Z</time>
      </trkpt>
      <trkpt lat="44.61159" lon="0.6846">
        <ele>107</ele>
        <time>2012-02-19T08:11:22Z</time>
      </trkpt>
      <trkpt lat="44.61155" lon="0.68464">
        <ele>107</ele>
        <time>2012-02-19T08:11:23Z</time>
      </trkpt>
      <trkpt lat="44.61151" lon="0.68469">
        <ele>106</ele>
        <time>2012-02-19T08:11:24Z</time>
      </trkpt>
      <trkpt lat="44.61147" lon="0.68474">
        <ele>106</ele>
        <time>2012-02-19T08:11:25Z</time>
      </trkpt>
      <trkpt lat="44.61142" lon="0.6848">
        <ele>106</ele>
        <time>2012-02-19T08:11:26Z</time>
      </trkpt>
      <trkpt lat="44.61137" lon="0.68486">
        <ele>105</ele>
        <time>2012-02-19T08:11:27Z</time>
      </trkpt>
      <trkpt lat="44.61132" lon="0.68493">
        <ele>105</ele>
        <time>2012-02-19T08:11:28Z</time>
      </trkpt>
      <trkpt lat="44.61126" lon="0.68499">
        <ele>104</ele>
        <time>2012-02-19T08:11:29Z</time>
      </trkpt>
      <trkpt lat="44.61121" lon="0.68506">
        <ele>103</ele>
        <time>2012-02-19T08:11:30Z</time>
      </trkpt>
      <trkpt lat="44.61115" lon="0.68512">
        <ele>103</ele>
        <time>2012-02-19T08:11:31Z</time>
      </trkpt>
      <trkpt lat="44.61109" lon="0.68519">
        <ele>102</ele>
        <time>2012-02-19T08:11:32Z</time>
      </trkpt>
      <trkpt lat="44.61103" lon="0.68526">
        <ele>102</ele>
        <time>2012-02-19T08:11:33Z</time>
      </trkpt>
      <trkpt lat="44.61097" lon="0.68532">
        <ele>101</ele>
        <time>2012-02-19T08:11:34Z</time>
      </trkpt>
      <trkpt lat="44.61091" lon="0.68538">
        <ele>101</ele>
        <time>2012-02-19T08:11:35Z</time>
      </trkpt>
      <trkpt lat="44.61086" lon="0.68544">
        <ele>100</ele>
        <time>2012-02-19T08:11:36Z</time>
      </trkpt>
      <trkpt lat="44.6108" lon="0.68551">
        <ele>100</ele>
        <time>2012-02-19T08:11:37Z</time>
      </trkpt>
      <trkpt lat="44.61074" lon="0.68556">
        <ele>99</ele>
        <time>2012-02-19T08:11:38Z</time>
      </trkpt>
      <trkpt lat="44.61069" lon="0.68562">
        <ele>99</ele>
        <time>2012-02-19T08:11:39Z</time>
      </trkpt>
      <trkpt lat="44.61063" lon="0.68568">
        <ele>99</ele>
        <time>2012-02-19T08:11:40Z</time>
      </trkpt>
      <trkpt lat="44.61057" lon="0.68574">
        <ele>98</ele>
        <time>2012-02-19T08:11:41Z</time>
      </trkpt>
      <trkpt lat="44.61052" lon="0.6858">
        <ele>98</ele>
        <time>2012-02-19T08:11:42Z</time>
      </trkpt>
      <trkpt lat="44.61047" lon="0.68584">
        <ele>98</ele>
        <time>2012-02-19T08:11:43Z</time>
      </trkpt>
      <trkpt lat="44.61042" lon="0.68588">
        <ele>98</ele>
        <time>2012-02-19T08:11:44Z</time>
      </trkpt>
      <trkpt lat="44.61037" lon="0.6859">
        <ele>98</ele>
        <time>2012-02-19T08:11:45Z</time>
      </trkpt>
      <trkpt lat="44.61031" lon="0.68591">
        <ele>98</ele>
        <time>2012-02-19T08:11:46Z</time>
      </trkpt>
      <trkpt lat="44.61026" lon="0.68591">
        <ele>98</ele>
        <time>2012-02-19T08:11:47Z</time>
      </trkpt>
      <trkpt lat="44.61021" lon="0.68591">
        <ele>98</ele>
        <time>2012-02-19T08:11:48Z</time>
      </trkpt>
      <trkpt lat="44.61015" lon="0.6859">
        <ele>98</ele>
        <time>2012-02-19T08:11:49Z</time>
      </trkpt>
      <trkpt lat="44.61011" lon="0.6859">
        <ele>98</ele>
        <time>2012-02-19T08:11:50Z</time>
      </trkpt>
      <trkpt lat="44.61006" lon="0.68589">
        <ele>98</ele>
        <time>2012-02-19T08:11:51Z</time>
      </trkpt>
      <trkpt lat="44.61001" lon="0.68588">
        <ele>98</ele>
        <time>2012-02-19T08:11:52Z</time>
      </trkpt>
      <trkpt lat="44.60997" lon="0.68587">
        <ele>98</ele>
        <time>2012-02-19T08:11:53Z</time>
      </trkpt>
      <trkpt lat="44.60992" lon="0.68586">
        <ele>98</ele>
        <time>2012-02-19T08:11:54Z</time>
      </trkpt>
      <trkpt lat="44.60988" lon="0.68585">
        <ele>98</ele>
        <time>2012-02-19T08:11:55Z</time>
      </trkpt>
      <trkpt lat="44.60984" lon="0.68584">
        <ele>98</ele>
        <time>2012-02-19T08:11:56Z</time>
      </trkpt>
      <trkpt lat="44.60979" lon="0.68583">
        <ele>98</ele>
        <time>2012-02-19T08:11:57Z</time>
      </trkpt>
      <trkpt lat="44.60975" lon="0.68583">
        <ele>98</ele>
        <time>2012-02-19T08:11:58Z</time>
      </trkpt>
      <trkpt lat="44.60972" lon="0.68582">
        <ele>98</ele>
        <time>2012-02-19T08:11:59Z</time>
      </trkpt>
      <trkpt lat="44.60968" lon="0.68582">
        <ele>98</ele>
        <time>2012-02-19T08:12:00Z</time>
      </trkpt>
      <trkpt lat="44.60965" lon="0.68581">
        <ele>98</ele>
        <time>2012-02-19T08:12:01Z</time>
      </trkpt>
      <trkpt lat="44.60962" lon="0.68581">
        <ele>98</ele>
        <time>2012-02-19T08:12:02Z</time>
      </trkpt>
      <trkpt lat="44.6096" lon="0.68581">
        <ele>98</ele>
        <time>2012-02-19T08:12:03Z</time>
      </trkpt>
      <trkpt lat="44.60957" lon="0.68581">
        <ele>98</ele>
        <time>2012-02-19T08:12:04Z</time>
      </trkpt>
      <trkpt lat="44.60955" lon="0.68581">
        <ele>98</ele>
        <time>2012-02-19T08:12:05Z</time>
      </trkpt>
      <trkpt lat="44.60954" lon="0.68581">
        <ele>98</ele>
        <time>2012-02-19T08:12:06Z</time>
      </trkpt>
      <trkpt lat="44.60952" lon="0.68581">
        <ele>98</ele>
        <time>2012-02-19T08:12:07Z</time>
      </trkpt>
      <trkpt lat="44.6095" lon="0.68579">
        <ele>98</ele>
        <time>2012-02-19T08:12:08Z</time>
      </trkpt>
      <trkpt lat="44.60948" lon="0.68578">
        <ele>98</ele>
        <time>2012-02-19T08:12:09Z</time>
      </trkpt>
      <trkpt lat="44.60945" lon="0.68576">
        <ele>98</ele>
        <time>2012-02-19T08:12:10Z</time>
      </trkpt>
      <trkpt lat="44.60942" lon="0.68573">
        <ele>99</ele>
        <time>2012-02-19T08:12:11Z</time>
      </trkpt>
      <trkpt lat="44.60939" lon="0.68571">
        <ele>99</ele>
        <time>2012-02-19T08:12:12Z</time>
      </trkpt>
      <trkpt lat="44.60936" lon="0.68569">
        <ele>99</ele>
        <time>2012-02-19T08:12:13Z</time>
      </trkpt>
      <trkpt lat="44.60933" lon="0.68567">
        <ele>99</ele>
        <time>2012-02-19T08:12:14Z</time>
      </trkpt>
      <trkpt lat="44.6093" lon="0.68564">
        <ele>100</ele>
        <time>2012-02-19T08:12:15Z</time>
      </trkpt>
      <trkpt lat="44.60927" lon="0.6856">
        <ele>100</ele>
        <time>2012-02-19T08:12:16Z</time>
      </trkpt>
      <trkpt lat="44.60924" lon="0.68558">
        <ele>100</ele>
        <time>2012-02-19T08:12:17Z</time>
      </trkpt>
      <trkpt lat="44.6092" lon="0.68555">
        <ele>100</ele>
        <time>2012-02-19T08:12:18Z</time>
      </trkpt>
      <trkpt lat="44.60917" lon="0.68552">
        <ele>100</ele>
        <time>2012-02-19T08:12:19Z</time>
      </trkpt>
      <trkpt lat="44.60913" lon="0.68549">
        <ele>100</ele>
        <time>2012-02-19T08:12:20Z</time>
      </trkpt>
      <trkpt lat="44.60909" lon="0.68546">
        <ele>101</ele>
        <time>2012-02-19T08:12:21Z</time>
      </trkpt>
      <trkpt lat="44.60905" lon="0.68542">
        <ele>101</ele>
        <time>2012-02-19T08:12:22Z</time>
      </trkpt>
      <trkpt lat="44.60902" lon="0.6854">
        <ele>102</ele>
        <time>2012-02-19T08:12:23Z</time>
      </trkpt>
      <trkpt lat="44.60898" lon="0.68536">
        <ele>103</ele>
        <time>2012-02-19T08:12:24Z</time>
      </trkpt>
      <trkpt lat="44.60894" lon="0.68533">
        <ele>103</ele>
        <time>2012-02-19T08:12:25Z</time>
      </trkpt>
      <trkpt lat="44.60891" lon="0.6853">
        <ele>104</ele>
        <time>2012-02-19T08:12:26Z</time>
      </trkpt>
      <trkpt lat="44.60886" lon="0.68527">
        <ele>104</ele>
        <time>2012-02-19T08:12:27Z</time>
      </trkpt>
      <trkpt lat="44.60882" lon="0.68524">
        <ele>104</ele>
        <time>2012-02-19T08:12:28Z</time>
      </trkpt>
      <trkpt lat="44.60878" lon="0.6852">
        <ele>104</ele>
        <time>2012-02-19T08:12:29Z</time>
      </trkpt>
      <trkpt lat="44.60874" lon="0.68517">
        <ele>104</ele>
        <time>2012-02-19T08:12:30Z</time>
      </trkpt>
      <trkpt lat="44.60869" lon="0.68515">
        <ele>104</ele>
        <time>2012-02-19T08:12:31Z</time>
      </trkpt>
      <trkpt lat="44.60865" lon="0.68512">
        <ele>104</ele>
        <time>2012-02-19T08:12:32Z</time>
      </trkpt>
      <trkpt lat="44.6086" lon="0.68511">
        <ele>104</ele>
        <time>2012-02-19T08:12:33Z</time>
      </trkpt>
      <trkpt lat="44.60856" lon="0.68508">
        <ele>104</ele>
        <time>2012-02-19T08:12:34Z</time>
      </trkpt>
      <trkpt lat="44.60852" lon="0.68506">
        <ele>104</ele>
        <time>2012-02-19T08:12:35Z</time>
      </trkpt>
      <trkpt lat="44.60847" lon="0.68504">
        <ele>104</ele>
        <time>2012-02-19T08:12:36Z</time>
      </trkpt>
      <trkpt lat="44.60843" lon="0.68503">
        <ele>104</ele>
        <time>2012-02-19T08:12:37Z</time>
      </trkpt>
      <trkpt lat="44.60839" lon="0.68502">
        <ele>104</ele>
        <time>2012-02-19T08:12:38Z</time>
      </trkpt>
      <trkpt lat="44.60834" lon="0.685">
        <ele>104</ele>
        <time>2012-02-19T08:12:39Z</time>
      </trkpt>
      <trkpt lat="44.6083" lon="0.68498">
        <ele>104</ele>
        <time>2012-02-19T08:12:40Z</time>
      </trkpt>
      <trkpt lat="44.60825" lon="0.68496">
        <ele>104</ele>
        <time>2012-02-19T08:12:41Z</time>
      </trkpt>
      <trkpt lat="44.60821" lon="0.68494">
        <ele>104</ele>
        <time>2012-02-19T08:12:42Z</time>
      </trkpt>
      <trkpt lat="44.60817" lon="0.68492">
        <ele>104</ele>
        <time>2012-02-19T08:12:43Z</time>
      </trkpt>
      <trkpt lat="44.60813" lon="0.68491">
        <ele>104</ele>
        <time>2012-02-19T08:12:44Z</time>
      </trkpt>
      <trkpt lat="44.60809" lon="0.68489">
        <ele>104</ele>
        <time>2012-02-19T08:12:45Z</time>
      </trkpt>
      <trkpt lat="44.60805" lon="0.68487">
        <ele>104</ele>
        <time>2012-02-19T08:12:46Z</time>
      </trkpt>
      <trkpt lat="44.60802" lon="0.68485">
        <ele>104</ele>
        <time>2012-02-19T08:12:47Z</time>
      </trkpt>
      <trkpt lat="44.60798" lon="0.68483">
        <ele>104</ele>
        <time>2012-02-19T08:12:48Z</time>
      </trkpt>
      <trkpt lat="44.60795" lon="0.6848">
        <ele>104</ele>
        <time>2012-02-19T08:12:49Z</time>
      </trkpt>
      <trkpt lat="44.60791" lon="0.68479">
        <ele>104</ele>
        <time>2012-02-19T08:12:50Z</time>
      </trkpt>
      <trkpt lat="44.60788" lon="0.68477">
        <ele>104</ele>
        <time>2012-02-19T08:12:51Z</time>
      </trkpt>
      <trkpt lat="44.60784" lon="0.68476">
        <ele>104</ele>
        <time>2012-02-19T08:12:52Z</time>
      </trkpt>
      <trkpt lat="44.60781" lon="0.68474">
        <ele>104</ele>
        <time>2012-02-19T08:12:53Z</time>
      </trkpt>
      <trkpt lat="44.60778" lon="0.68472">
        <ele>104</ele>
        <time>2012-02-19T08:12:54Z</time>
      </trkpt>
      <trkpt lat="44.60775" lon="0.68471">
        <ele>104</ele>
        <time>2012-02-19T08:12:55Z</time>
      </trkpt>
      <trkpt lat="44.60772" lon="0.68471">
        <ele>104</ele>
        <time>2012-02-19T08:12:56Z</time>
      </trkpt>
      <trkpt lat="44.6077" lon="0.68469">
        <ele>104</ele>
        <time>2012-02-19T08:12:57Z</time>
      </trkpt>
      <trkpt lat="44.60767" lon="0.68468">
        <ele>104</ele>
        <time>2012-02-19T08:12:58Z</time>
      </trkpt>
      <trkpt lat="44.60764" lon="0.68467">
        <ele>104</ele>
        <time>2012-02-19T08:12:59Z</time>
      </trkpt>
      <trkpt lat="44.60761" lon="0.68465">
        <ele>104</ele>
        <time>2012-02-19T08:13:00Z</time>
      </trkpt>
      <trkpt lat="44.60759" lon="0.68464">
        <ele>104</ele>
        <time>2012-02-19T08:13:01Z</time>
      </trkpt>
      <trkpt lat="44.60757" lon="0.68463">
        <ele>104</ele>
        <time>2012-02-19T08:13:02Z</time>
      </trkpt>
      <trkpt lat="44.60754" lon="0.68462">
        <ele>104</ele>
        <time>2012-02-19T08:13:03Z</time>
      </trkpt>
      <trkpt lat="44.60751" lon="0.68461">
        <ele>104</ele>
        <time>2012-02-19T08:13:04Z</time>
      </trkpt>
      <trkpt lat="44.60748" lon="0.68459">
        <ele>104</ele>
        <time>2012-02-19T08:13:05Z</time>
      </trkpt>
      <trkpt lat="44.60746" lon="0.68457">
        <ele>104</ele>
        <time>2012-02-19T08:13:06Z</time>
      </trkpt>
      <trkpt lat="44.60743" lon="0.68456">
        <ele>104</ele>
        <time>2012-02-19T08:13:07Z</time>
      </trkpt>
      <trkpt lat="44.60741" lon="0.68455">
        <ele>104</ele>
        <time>2012-02-19T08:13:08Z</time>
      </trkpt>
      <trkpt lat="44.60738" lon="0.68452">
        <ele>104</ele>
        <time>2012-02-19T08:13:09Z</time>
      </trkpt>
      <trkpt lat="44.60735" lon="0.6845">
        <ele>105</ele>
        <time>2012-02-19T08:13:10Z</time>
      </trkpt>
      <trkpt lat="44.60732" lon="0.68448">
        <ele>106</ele>
        <time>2012-02-19T08:13:11Z</time>
      </trkpt>
      <trkpt lat="44.60729" lon="0.68445">
        <ele>107</ele>
        <time>2012-02-19T08:13:12Z</time>
      </trkpt>
      <trkpt lat="44.60726" lon="0.68443">
        <ele>108</ele>
        <time>2012-02-19T08:13:13Z</time>
      </trkpt>
      <trkpt lat="44.60723" lon="0.68441">
        <ele>109</ele>
        <time>2012-02-19T08:13:14Z</time>
      </trkpt>
      <trkpt lat="44.6072" lon="0.68439">
        <ele>109</ele>
        <time>2012-02-19T08:13:15Z</time>
      </trkpt>
      <trkpt lat="44.60718" lon="0.68438">
        <ele>110</ele>
        <time>2012-02-19T08:13:16Z</time>
      </trkpt>
      <trkpt lat="44.60715" lon="0.68436">
        <ele>111</ele>
        <time>2012-02-19T08:13:17Z</time>
      </trkpt>
      <trkpt lat="44.60713" lon="0.68434">
        <ele>111</ele>
        <time>2012-02-19T08:13:18Z</time>
      </trkpt>
      <trkpt lat="44.6071" lon="0.68432">
        <ele>112</ele>
        <time>2012-02-19T08:13:19Z</time>
      </trkpt>
      <trkpt lat="44.60708" lon="0.6843">
        <ele>113</ele>
        <time>2012-02-19T08:13:20Z</time>
      </trkpt>
      <trkpt lat="44.60705" lon="0.68428">
        <ele>113</ele>
        <time>2012-02-19T08:13:21Z</time>
      </trkpt>
      <trkpt lat="44.60702" lon="0.68427">
        <ele>114</ele>
        <time>2012-02-19T08:13:22Z</time>
      </trkpt>
      <trkpt lat="44.607" lon="0.68426">
        <ele>115</ele>
        <time>2012-02-19T08:13:23Z</time>
      </trkpt>
      <trkpt lat="44.60698" lon="0.68424">
        <ele>115</ele>
        <time>2012-02-19T08:13:24Z</time>
      </trkpt>
      <trkpt lat="44.60695" lon="0.68422">
        <ele>115</ele>
        <time>2012-02-19T08:13:25Z</time>
      </trkpt>
      <trkpt lat="44.60692" lon="0.68421">
        <ele>116</ele>
        <time>2012-02-19T08:13:26Z</time>
      </trkpt>
      <trkpt lat="44.6069" lon="0.68419">
        <ele>116</ele>
        <time>2012-02-19T08:13:27Z</time>
      </trkpt>
      <trkpt lat="44.60688" lon="0.68418">
        <ele>116</ele>
        <time>2012-02-19T08:13:28Z</time>
      </trkpt>
      <trkpt lat="44.60685" lon="0.68417">
        <ele>116</ele>
        <time>2012-02-19T08:13:29Z</time>
      </trkpt>
      <trkpt lat="44.60683" lon="0.68417">
        <ele>116</ele>
        <time>2012-02-19T08:13:30Z</time>
      </trkpt>
      <trkpt lat="44.60682" lon="0.68416">
        <ele>116</ele>
        <time>2012-02-19T08:13:31Z</time>
      </trkpt>
      <trkpt lat="44.6068" lon="0.68414">
        <ele>116</ele>
        <time>2012-02-19T08:13:32Z</time>
      </trkpt>
      <trkpt lat="44.60678" lon="0.68412">
        <ele>116</ele>
        <time>2012-02-19T08:13:33Z</time>
      </trkpt>
      <trkpt lat="44.60676" lon="0.6841">
        <ele>116</ele>
        <time>2012-02-19T08:13:34Z</time>
      </trkpt>
      <trkpt lat="44.60674" lon="0.68409">
        <ele>116</ele>
        <time>2012-02-19T08:13:35Z</time>
      </trkpt>
      <trkpt lat="44.60672" lon="0.68407">
        <ele>116</ele>
        <time>2012-02-19T08:13:36Z</time>
      </trkpt>
      <trkpt lat="44.6067" lon="0.68405">
        <ele>116</ele>
        <time>2012-02-19T08:13:37Z</time>
      </trkpt>
      <trkpt lat="44.60667" lon="0.68404">
        <ele>116</ele>
        <time>2012-02-19T08:13:38Z</time>
      </trkpt>
      <trkpt lat="44.60665" lon="0.68401">
        <ele>116</ele>
        <time>2012-02-19T08:13:39Z</time>
      </trkpt>
      <trkpt lat="44.60664" lon="0.68399">
        <ele>116</ele>
        <time>2012-02-19T08:13:40Z</time>
      </trkpt>
      <trkpt lat="44.60662" lon="0.68397">
        <ele>117</ele>
        <time>2012-02-19T08:13:41Z</time>
      </trkpt>
      <trkpt lat="44.60659" lon="0.68394">
        <ele>117</ele>
        <time>2012-02-19T08:13:42Z</time>
      </trkpt>
      <trkpt lat="44.60657" lon="0.68392">
        <ele>117</ele>
        <time>2012-02-19T08:13:43Z</time>
      </trkpt>
      <trkpt lat="44.60655" lon="0.68391">
        <ele>117</ele>
        <time>2012-02-19T08:13:44Z</time>
      </trkpt>
      <trkpt lat="44.60653" lon="0.68389">
        <ele>117</ele>
        <time>2012-02-19T08:13:45Z</time>
      </trkpt>
      <trkpt lat="44.60651" lon="0.68386">
        <ele>117</ele>
        <time>2012-02-19T08:13:46Z</time>
      </trkpt>
      <trkpt lat="44.60648" lon="0.68384">
        <ele>117</ele>
        <time>2012-02-19T08:13:47Z</time>
      </trkpt>
      <trkpt lat="44.60646" lon="0.68382">
        <ele>117</ele>
        <time>2012-02-19T08:13:48Z</time>
      </trkpt>
      <trkpt lat="44.60643" lon="0.6838">
        <ele>117</ele>
        <time>2012-02-19T08:13:49Z</time>
      </trkpt>
      <trkpt lat="44.60642" lon="0.68379">
        <ele>117</ele>
        <time>2012-02-19T08:13:50Z</time>
      </trkpt>
      <trkpt lat="44.6064" lon="0.68378">
        <ele>117</ele>
        <time>2012-02-19T08:13:51Z</time>
      </trkpt>
      <trkpt lat="44.60638" lon="0.68376">
        <ele>117</ele>
        <time>2012-02-19T08:13:52Z</time>
      </trkpt>
      <trkpt lat="44.60636" lon="0.68375">
        <ele>117</ele>
        <time>2012-02-19T08:13:53Z</time>
      </trkpt>
      <trkpt lat="44.60634" lon="0.68373">
        <ele>117</ele>
        <time>2012-02-19T08:13:54Z</time>
      </trkpt>
      <trkpt lat="44.60632" lon="0.68372">
        <ele>117</ele>
        <time>2012-02-19T08:13:55Z</time>
      </trkpt>
      <trkpt lat="44.6063" lon="0.68371">
        <ele>117</ele>
        <time>2012-02-19T08:13:56Z</time>
      </trkpt>
      <trkpt lat="44.60628" lon="0.68369">
        <ele>117</ele>
        <time>2012-02-19T08:13:57Z</time>
      </trkpt>
      <trkpt lat="44.60626" lon="0.68367">
        <ele>117</ele>
        <time>2012-02-19T08:13:58Z</time>
      </trkpt>
      <trkpt lat="44.60624" lon="0.68365">
        <ele>117</ele>
        <time>2012-02-19T08:13:59Z</time>
      </trkpt>
      <trkpt lat="44.60622" lon="0.68362">
        <ele>117</ele>
        <time>2012-02-19T08:14:00Z</time>
      </trkpt>
      <trkpt lat="44.6062" lon="0.68361">
        <ele>117</ele>
        <time>2012-02-19T08:14:01Z</time>
      </trkpt>
      <trkpt lat="44.60619" lon="0.6836">
        <ele>117</ele>
        <time>2012-02-19T08:14:02Z</time>
      </trkpt>
      <trkpt lat="44.60617" lon="0.68359">
        <ele>117</ele>
        <time>2012-02-19T08:14:03Z</time>
      </trkpt>
      <trkpt lat="44.60616" lon="0.68359">
        <ele>117</ele>
        <time>2012-02-19T08:14:04Z</time>
      </trkpt>
      <trkpt lat="44.60614" lon="0.68358">
        <ele>117</ele>
        <time>2012-02-19T08:14:05Z</time>
      </trkpt>
      <trkpt lat="44.60611" lon="0.68357">
        <ele>118</ele>
        <time>2012-02-19T08:14:07Z</time>
      </trkpt>
      <trkpt lat="44.60609" lon="0.68356">
        <ele>119</ele>
        <time>2012-02-19T08:14:08Z</time>
      </trkpt>
      <trkpt lat="44.60608" lon="0.68355">
        <ele>119</ele>
        <time>2012-02-19T08:14:09Z</time>
      </trkpt>
      <trkpt lat="44.60606" lon="0.68354">
        <ele>119</ele>
        <time>2012-02-19T08:14:10Z</time>
      </trkpt>
      <trkpt lat="44.60604" lon="0.68354">
        <ele>120</ele>
        <time>2012-02-19T08:14:11Z</time>
      </trkpt>
      <trkpt lat="44.60603" lon="0.68353">
        <ele>121</ele>
        <time>2012-02-19T08:14:12Z</time>
      </trkpt>
      <trkpt lat="44.606" lon="0.68352">
        <ele>121</ele>
        <time>2012-02-19T08:14:13Z</time>
      </trkpt>
      <trkpt lat="44.60598" lon="0.6835">
        <ele>122</ele>
        <time>2012-02-19T08:14:14Z</time>
      </trkpt>
      <trkpt lat="44.60596" lon="0.68349">
        <ele>122</ele>
        <time>2012-02-19T08:14:15Z</time>
      </trkpt>
      <trkpt lat="44.60594" lon="0.68348">
        <ele>122</ele>
        <time>2012-02-19T08:14:16Z</time>
      </trkpt>
      <trkpt lat="44.60592" lon="0.68348">
        <ele>122</ele>
        <time>2012-02-19T08:14:17Z</time>
      </trkpt>
      <trkpt lat="44.6059" lon="0.68347">
        <ele>123</ele>
        <time>2012-02-19T08:14:18Z</time>
      </trkpt>
      <trkpt lat="44.60588" lon="0.68347">
        <ele>124</ele>
        <time>2012-02-19T08:14:19Z</time>
      </trkpt>
      <trkpt lat="44.60586" lon="0.68346">
        <ele>125</ele>
        <time>2012-02-19T08:14:20Z</time>
      </trkpt>
      <trkpt lat="44.60585" lon="0.68345">
        <ele>125</ele>
        <time>2012-02-19T08:14:21Z</time>
      </trkpt>
      <trkpt lat="44.60582" lon="0.68343">
        <ele>126</ele>
        <time>2012-02-19T08:14:22Z</time>
      </trkpt>
      <trkpt lat="44.60581" lon="0.68342">
        <ele>126</ele>
        <time>2012-02-19T08:14:23Z</time>
      </trkpt>
      <trkpt lat="44.60579" lon="0.68341">
        <ele>126</ele>
        <time>2012-02-19T08:14:24Z</time>
      </trkpt>
      <trkpt lat="44.60577" lon="0.6834">
        <ele>126</ele>
        <time>2012-02-19T08:14:25Z</time>
      </trkpt>
      <trkpt lat="44.60575" lon="0.6834">
        <ele>126</ele>
        <time>2012-02-19T08:14:26Z</time>
      </trkpt>
      <trkpt lat="44.60574" lon="0.6834">
        <ele>126</ele>
        <time>2012-02-19T08:14:27Z</time>
      </trkpt>
      <trkpt lat="44.60572" lon="0.68339">
        <ele>127</ele>
        <time>2012-02-19T08:14:28Z</time>
      </trkpt>
      <trkpt lat="44.6057" lon="0.68338">
        <ele>127</ele>
        <time>2012-02-19T08:14:29Z</time>
      </trkpt>
      <trkpt lat="44.60569" lon="0.68338">
        <ele>127</ele>
        <time>2012-02-19T08:14:30Z</time>
      </trkpt>
      <trkpt lat="44.60567" lon="0.68337">
        <ele>127</ele>
        <time>2012-02-19T08:14:31Z</time>
      </trkpt>
      <trkpt lat="44.60565" lon="0.68336">
        <ele>127</ele>
        <time>2012-02-19T08:14:32Z</time>
      </trkpt>
      <trkpt lat="44.60563" lon="0.68336">
        <ele>128</ele>
        <time>2012-02-19T08:14:33Z</time>
      </trkpt>
      <trkpt lat="44.60561" lon="0.68336">
        <ele>128</ele>
        <time>2012-02-19T08:14:34Z</time>
      </trkpt>
      <trkpt lat="44.60559" lon="0.68335">
        <ele>129</ele>
        <time>2012-02-19T08:14:35Z</time>
      </trkpt>
      <trkpt lat="44.60557" lon="0.68335">
        <ele>129</ele>
        <time>2012-02-19T08:14:36Z</time>
      </trkpt>
      <trkpt lat="44.60555" lon="0.68335">
        <ele>129</ele>
        <time>2012-02-19T08:14:37Z</time>
      </trkpt>
      <trkpt lat="44.60553" lon="0.68335">
        <ele>129</ele>
        <time>2012-02-19T08:14:38Z</time>
      </trkpt>
      <trkpt lat="44.60551" lon="0.68335">
        <ele>129</ele>
        <time>2012-02-19T08:14:39Z</time>
      </trkpt>
      <trkpt lat="44.60549" lon="0.68335">
        <ele>130</ele>
        <time>2012-02-19T08:14:40Z</time>
      </trkpt>
      <trkpt lat="44.60548" lon="0.68335">
        <ele>131</ele>
        <time>2012-02-19T08:14:41Z</time>
      </trkpt>
      <trkpt lat="44.60546" lon="0.68335">
        <ele>131</ele>
        <time>2012-02-19T08:14:42Z</time>
      </trkpt>
      <trkpt lat="44.60545" lon="0.68334">
        <ele>132</ele>
        <time>2012-02-19T08:14:43Z</time>
      </trkpt>
      <trkpt lat="44.60543" lon="0.68334">
        <ele>132</ele>
        <time>2012-02-19T08:14:44Z</time>
      </trkpt>
      <trkpt lat="44.60541" lon="0.68334">
        <ele>132</ele>
        <time>2012-02-19T08:14:45Z</time>
      </trkpt>
      <trkpt lat="44.60539" lon="0.68334">
        <ele>132</ele>
        <time>2012-02-19T08:14:46Z</time>
      </trkpt>
      <trkpt lat="44.60537" lon="0.68334">
        <ele>132</ele>
        <time>2012-02-19T08:14:47Z</time>
      </trkpt>
      <trkpt lat="44.60535" lon="0.68334">
        <ele>132</ele>
        <time>2012-02-19T08:14:48Z</time>
      </trkpt>
      <trkpt lat="44.60533" lon="0.68334">
        <ele>132</ele>
        <time>2012-02-19T08:14:49Z</time>
      </trkpt>
      <trkpt lat="44.60531" lon="0.68335">
        <ele>132</ele>
        <time>2012-02-19T08:14:50Z</time>
      </trkpt>
      <trkpt lat="44.60529" lon="0.68335">
        <ele>132</ele>
        <time>2012-02-19T08:14:51Z</time>
      </trkpt>
      <trkpt lat="44.60527" lon="0.68335">
        <ele>132</ele>
        <time>2012-02-19T08:14:52Z</time>
      </trkpt>
      <trkpt lat="44.60525" lon="0.68335">
        <ele>132</ele>
        <time>2012-02-19T08:14:53Z</time>
      </trkpt>
      <trkpt lat="44.60523" lon="0.68335">
        <ele>132</ele>
        <time>2012-02-19T08:14:54Z</time>
      </trkpt>
      <trkpt lat="44.60521" lon="0.68335">
        <ele>132</ele>
        <time>2012-02-19T08:14:55Z</time>
      </trkpt>
      <trkpt lat="44.6052" lon="0.68335">
        <ele>132</ele>
        <time>2012-02-19T08:14:56Z</time>
      </trkpt>
      <trkpt lat="44.60518" lon="0.68336">
        <ele>132</ele>
        <time>2012-02-19T08:14:57Z</time>
      </trkpt>
      <trkpt lat="44.60516" lon="0.68336">
        <ele>132</ele>
        <time>2012-02-19T08:14:58Z</time>
      </trkpt>
      <trkpt lat="44.60514" lon="0.68337">
        <ele>132</ele>
        <time>2012-02-19T08:14:59Z</time>
      </trkpt>
      <trkpt lat="44.60513" lon="0.68337">
        <ele>132</ele>
        <time>2012-02-19T08:15:00Z</time>
      </trkpt>
      <trkpt lat="44.60511" lon="0.68338">
        <ele>132</ele>
        <time>2012-02-19T08:15:01Z</time>
      </trkpt>
      <trkpt lat="44.6051" lon="0.68339">
        <ele>132</ele>
        <time>2012-02-19T08:15:02Z</time>
      </trkpt>
      <trkpt lat="44.60509" lon="0.68339">
        <ele>132</ele>
        <time>2012-02-19T08:15:03Z</time>
      </trkpt>
      <trkpt lat="44.60508" lon="0.6834">
        <ele>132</ele>
        <time>2012-02-19T08:15:04Z</time>
      </trkpt>
      <trkpt lat="44.60505" lon="0.68341">
        <ele>132</ele>
        <time>2012-02-19T08:15:06Z</time>
      </trkpt>
      <trkpt lat="44.60504" lon="0.68341">
        <ele>132</ele>
        <time>2012-02-19T08:15:07Z</time>
      </trkpt>
      <trkpt lat="44.60503" lon="0.68341">
        <ele>132</ele>
        <time>2012-02-19T08:15:08Z</time>
      </trkpt>
      <trkpt lat="44.605" lon="0.68342">
        <ele>132</ele>
        <time>2012-02-19T08:15:10Z</time>
      </trkpt>
      <trkpt lat="44.60499" lon="0.68343">
        <ele>133</ele>
        <time>2012-02-19T08:15:11Z</time>
      </trkpt>
      <trkpt lat="44.60498" lon="0.68344">
        <ele>133</ele>
        <time>2012-02-19T08:15:12Z</time>
      </trkpt>
      <trkpt lat="44.60496" lon="0.68344">
        <ele>134</ele>
        <time>2012-02-19T08:15:13Z</time>
      </trkpt>
      <trkpt lat="44.60494" lon="0.68344">
        <ele>134</ele>
        <time>2012-02-19T08:15:14Z</time>
      </trkpt>
      <trkpt lat="44.60492" lon="0.68344">
        <ele>134</ele>
        <time>2012-02-19T08:15:15Z</time>
      </trkpt>
      <trkpt lat="44.60491" lon="0.68345">
        <ele>135</ele>
        <time>2012-02-19T08:15:16Z</time>
      </trkpt>
      <trkpt lat="44.60489" lon="0.68345">
        <ele>135</ele>
        <time>2012-02-19T08:15:17Z</time>
      </trkpt>
      <trkpt lat="44.60487" lon="0.68344">
        <ele>136</ele>
        <time>2012-02-19T08:15:18Z</time>
      </trkpt>
      <trkpt lat="44.60486" lon="0.68343">
        <ele>136</ele>
        <time>2012-02-19T08:15:19Z</time>
      </trkpt>
      <trkpt lat="44.60484" lon="0.68343">
        <ele>136</ele>
        <time>2012-02-19T08:15:20Z</time>
      </trkpt>
      <trkpt lat="44.60483" lon="0.68342">
        <ele>137</ele>
        <time>2012-02-19T08:15:21Z</time>
      </trkpt>
      <trkpt lat="44.60482" lon="0.68341">
        <ele>137</ele>
        <time>2012-02-19T08:15:22Z</time>
      </trkpt>
      <trkpt lat="44.6048" lon="0.68341">
        <ele>137</ele>
        <time>2012-02-19T08:15:23Z</time>
      </trkpt>
      <trkpt lat="44.60479" lon="0.68341">
        <ele>137</ele>
        <time>2012-02-19T08:15:24Z</time>
      </trkpt>
      <trkpt lat="44.60477" lon="0.68341">
        <ele>137</ele>
        <time>2012-02-19T08:15:25Z</time>
      </trkpt>
      <trkpt lat="44.60476" lon="0.6834">
        <ele>137</ele>
        <time>2012-02-19T08:15:26Z</time>
      </trkpt>
      <trkpt lat="44.60474" lon="0.6834">
        <ele>137</ele>
        <time>2012-02-19T08:15:27Z</time>
      </trkpt>
      <trkpt lat="44.60472" lon="0.6834">
        <ele>137</ele>
        <time>2012-02-19T08:15:28Z</time>
      </trkpt>
      <trkpt lat="44.60471" lon="0.68339">
        <ele>137</ele>
        <time>2012-02-19T08:15:29Z</time>
      </trkpt>
      <trkpt lat="44.60469" lon="0.68338">
        <ele>137</ele>
        <time>2012-02-19T08:15:30Z</time>
      </trkpt>
      <trkpt lat="44.60467" lon="0.68338">
        <ele>137</ele>
        <time>2012-02-19T08:15:31Z</time>
      </trkpt>
      <trkpt lat="44.60466" lon="0.68337">
        <ele>137</ele>
        <time>2012-02-19T08:15:32Z</time>
      </trkpt>
      <trkpt lat="44.60464" lon="0.68337">
        <ele>137</ele>
        <time>2012-02-19T08:15:33Z</time>
      </trkpt>
      <trkpt lat="44.60462" lon="0.68336">
        <ele>137</ele>
        <time>2012-02-19T08:15:34Z</time>
      </trkpt>
      <trkpt lat="44.60461" lon="0.68336">
        <ele>137</ele>
        <time>2012-02-19T08:15:35Z</time>
      </trkpt>
      <trkpt lat="44.60459" lon="0.68335">
        <ele>137</ele>
        <time>2012-02-19T08:15:36Z</time>
      </trkpt>
      <trkpt lat="44.60457" lon="0.68334">
        <ele>137</ele>
        <time>2012-02-19T08:15:37Z</time>
      </trkpt>
      <trkpt lat="44.60455" lon="0.68334">
        <ele>138</ele>
        <time>2012-02-19T08:15:38Z</time>
      </trkpt>
      <trkpt lat="44.60454" lon="0.68333">
        <ele>138</ele>
        <time>2012-02-19T08:15:39Z</time>
      </trkpt>
      <trkpt lat="44.60452" lon="0.68333">
        <ele>138</ele>
        <time>2012-02-19T08:15:40Z</time>
      </trkpt>
      <trkpt lat="44.6045" lon="0.68333">
        <ele>139</ele>
        <time>2012-02-19T08:15:41Z</time>
      </trkpt>
      <trkpt lat="44.60448" lon="0.68332">
        <ele>139</ele>
        <time>2012-02-19T08:15:42Z</time>
      </trkpt>
      <trkpt lat="44.60447" lon="0.68332">
        <ele>139</ele>
        <time>2012-02-19T08:15:43Z</time>
      </trkpt>
      <trkpt lat="44.60445" lon="0.68331">
        <ele>139</ele>
        <time>2012-02-19T08:15:44Z</time>
      </trkpt>
      <trkpt lat="44.60443" lon="0.68331">
        <ele>139</ele>
        <time>2012-02-19T08:15:45Z</time>
      </trkpt>
      <trkpt lat="44.60441" lon="0.6833">
        <ele>140</ele>
        <time>2012-02-19T08:15:46Z</time>
      </trkpt>
      <trkpt lat="44.6044" lon="0.68329">
        <ele>140</ele>
        <time>2012-02-19T08:15:47Z</time>
      </trkpt>
      <trkpt lat="44.60438" lon="0.68328">
        <ele>140</ele>
        <time>2012-02-19T08:15:48Z</time>
      </trkpt>
      <trkpt lat="44.60436" lon="0.68328">
        <ele>140</ele>
        <time>2012-02-19T08:15:49Z</time>
      </trkpt>
      <trkpt lat="44.60434" lon="0.68328">
        <ele>140</ele>
        <time>2012-02-19T08:15:50Z</time>
      </trkpt>
      <trkpt lat="44.60433" lon="0.68327">
        <ele>140</ele>
        <time>2012-02-19T08:15:51Z</time>
      </trkpt>
      <trkpt lat="44.60431" lon="0.68327">
        <ele>140</ele>
        <time>2012-02-19T08:15:52Z</time>
      </trkpt>
      <trkpt lat="44.6043" lon="0.68326">
        <ele>140</ele>
        <time>2012-02-19T08:15:53Z</time>
      </trkpt>
      <trkpt lat="44.60428" lon="0.68326">
        <ele>141</ele>
        <time>2012-02-19T08:15:54Z</time>
      </trkpt>
      <trkpt lat="44.60427" lon="0.68326">
        <ele>141</ele>
        <time>2012-02-19T08:15:55Z</time>
      </trkpt>
      <trkpt lat="44.60426" lon="0.68325">
        <ele>141</ele>
        <time>2012-02-19T08:15:56Z</time>
      </trkpt>
      <trkpt lat="44.60424" lon="0.68325">
        <ele>141</ele>
        <time>2012-02-19T08:15:57Z</time>
      </trkpt>
      <trkpt lat="44.60423" lon="0.68325">
        <ele>141</ele>
        <time>2012-02-19T08:15:58Z</time>
      </trkpt>
      <trkpt lat="44.60421" lon="0.68325">
        <ele>141</ele>
        <time>2012-02-19T08:15:59Z</time>
      </trkpt>
      <trkpt lat="44.60419" lon="0.68324">
        <ele>141</ele>
        <time>2012-02-19T08:16:00Z</time>
      </trkpt>
      <trkpt lat="44.60418" lon="0.68323">
        <ele>141</ele>
        <time>2012-02-19T08:16:01Z</time>
      </trkpt>
      <trkpt lat="44.60416" lon="0.68323">
        <ele>141</ele>
        <time>2012-02-19T08:16:02Z</time>
      </trkpt>
      <trkpt lat="44.60415" lon="0.68322">
        <ele>141</ele>
        <time>2012-02-19T08:16:03Z</time>
      </trkpt>
      <trkpt lat="44.60414" lon="0.68322">
        <ele>141</ele>
        <time>2012-02-19T08:16:04Z</time>
      </trkpt>
      <trkpt lat="44.60412" lon="0.68322">
        <ele>141</ele>
        <time>2012-02-19T08:16:05Z</time>
      </trkpt>
      <trkpt lat="44.60411" lon="0.68322">
        <ele>141</ele>
        <time>2012-02-19T08:16:06Z</time>
      </trkpt>
      <trkpt lat="44.60409" lon="0.68322">
        <ele>141</ele>
        <time>2012-02-19T08:16:07Z</time>
      </trkpt>
      <trkpt lat="44.60408" lon="0.68322">
        <ele>141</ele>
        <time>2012-02-19T08:16:08Z</time>
      </trkpt>
      <trkpt lat="44.60406" lon="0.68321">
        <ele>141</ele>
        <time>2012-02-19T08:16:09Z</time>
      </trkpt>
      <trkpt lat="44.60404" lon="0.68321">
        <ele>141</ele>
        <time>2012-02-19T08:16:10Z</time>
      </trkpt>
      <trkpt lat="44.60403" lon="0.68321">
        <ele>141</ele>
        <time>2012-02-19T08:16:11Z</time>
      </trkpt>
      <trkpt lat="44.60401" lon="0.6832">
        <ele>141</ele>
        <time>2012-02-19T08:16:12Z</time>
      </trkpt>
      <trkpt lat="44.60399" lon="0.6832">
        <ele>141</ele>
        <time>2012-02-19T08:16:13Z</time>
      </trkpt>
      <trkpt lat="44.60398" lon="0.68319">
        <ele>142</ele>
        <time>2012-02-19T08:16:14Z</time>
      </trkpt>
      <trkpt lat="44.60397" lon="0.68319">
        <ele>142</ele>
        <time>2012-02-19T08:16:15Z</time>
      </trkpt>
      <trkpt lat="44.60395" lon="0.68319">
        <ele>142</ele>
        <time>2012-02-19T08:16:16Z</time>
      </trkpt>
      <trkpt lat="44.60394" lon="0.68318">
        <ele>143</ele>
        <time>2012-02-19T08:16:17Z</time>
      </trkpt>
      <trkpt lat="44.60392" lon="0.68317">
        <ele>143</ele>
        <time>2012-02-19T08:16:18Z</time>
      </trkpt>
      <trkpt lat="44.6039" lon="0.68317">
        <ele>143</ele>
        <time>2012-02-19T08:16:19Z</time>
      </trkpt>
      <trkpt lat="44.60389" lon="0.68316">
        <ele>143</ele>
        <time>2012-02-19T08:16:20Z</time>
      </trkpt>
      <trkpt lat="44.60387" lon="0.68316">
        <ele>144</ele>
        <time>2012-02-19T08:16:21Z</time>
      </trkpt>
      <trkpt lat="44.60386" lon="0.68315">
        <ele>144</ele>
        <time>2012-02-19T08:16:22Z</time>
      </trkpt>
      <trkpt lat="44.60384" lon="0.68315">
        <ele>144</ele>
        <time>2012-02-19T08:16:23Z</time>
      </trkpt>
      <trkpt lat="44.60383" lon="0.68314">
        <ele>144</ele>
        <time>2012-02-19T08:16:24Z</time>
      </trkpt>
      <trkpt lat="44.60381" lon="0.68314">
        <ele>144</ele>
        <time>2012-02-19T08:16:25Z</time>
      </trkpt>
      <trkpt lat="44.6038" lon="0.68313">
        <ele>144</ele>
        <time>2012-02-19T08:16:26Z</time>
      </trkpt>
      <trkpt lat="44.60379" lon="0.68313">
        <ele>145</ele>
        <time>2012-02-19T08:16:27Z</time>
      </trkpt>
      <trkpt lat="44.60377" lon="0.68313">
        <ele>145</ele>
        <time>2012-02-19T08:16:28Z</time>
      </trkpt>
      <trkpt lat="44.60376" lon="0.68312">
        <ele>145</ele>
        <time>2012-02-19T08:16:29Z</time>
      </trkpt>
      <trkpt lat="44.60374" lon="0.68312">
        <ele>145</ele>
        <time>2012-02-19T08:16:30Z</time>
      </trkpt>
      <trkpt lat="44.60373" lon="0.68311">
        <ele>145</ele>
        <time>2012-02-19T08:16:31Z</time>
      </trkpt>
      <trkpt lat="44.60371" lon="0.6831">
        <ele>146</ele>
        <time>2012-02-19T08:16:32Z</time>
      </trkpt>
      <trkpt lat="44.6037" lon="0.6831">
        <ele>146</ele>
        <time>2012-02-19T08:16:33Z</time>
      </trkpt>
      <trkpt lat="44.60368" lon="0.68309">
        <ele>147</ele>
        <time>2012-02-19T08:16:34Z</time>
      </trkpt>
      <trkpt lat="44.60367" lon="0.68309">
        <ele>147</ele>
        <time>2012-02-19T08:16:35Z</time>
      </trkpt>
      <trkpt lat="44.60365" lon="0.68308">
        <ele>147</ele>
        <time>2012-02-19T08:16:36Z</time>
      </trkpt>
      <trkpt lat="44.60364" lon="0.68307">
        <ele>147</ele>
        <time>2012-02-19T08:16:37Z</time>
      </trkpt>
      <trkpt lat="44.60363" lon="0.68306">
        <ele>147</ele>
        <time>2012-02-19T08:16:38Z</time>
      </trkpt>
      <trkpt lat="44.60361" lon="0.68306">
        <ele>147</ele>
        <time>2012-02-19T08:16:39Z</time>
      </trkpt>
      <trkpt lat="44.6036" lon="0.68306">
        <ele>147</ele>
        <time>2012-02-19T08:16:40Z</time>
      </trkpt>
      <trkpt lat="44.60359" lon="0.68305">
        <ele>147</ele>
        <time>2012-02-19T08:16:41Z</time>
      </trkpt>
      <trkpt lat="44.60357" lon="0.68305">
        <ele>147</ele>
        <time>2012-02-19T08:16:42Z</time>
      </trkpt>
      <trkpt lat="44.60356" lon="0.68305">
        <ele>148</ele>
        <time>2012-02-19T08:16:43Z</time>
      </trkpt>
      <trkpt lat="44.60354" lon="0.68304">
        <ele>148</ele>
        <time>2012-02-19T08:16:44Z</time>
      </trkpt>
      <trkpt lat="44.60352" lon="0.68303">
        <ele>148</ele>
        <time>2012-02-19T08:16:45Z</time>
      </trkpt>
      <trkpt lat="44.6035" lon="0.68303">
        <ele>148</ele>
        <time>2012-02-19T08:16:46Z</time>
      </trkpt>
      <trkpt lat="44.60347" lon="0.68302">
        <ele>148</ele>
        <time>2012-02-19T08:16:47Z</time>
      </trkpt>
      <trkpt lat="44.60345" lon="0.68302">
        <ele>148</ele>
        <time>2012-02-19T08:16:48Z</time>
      </trkpt>
      <trkpt lat="44.60344" lon="0.68301">
        <ele>148</ele>
        <time>2012-02-19T08:16:49Z</time>
      </trkpt>
      <trkpt lat="44.60342" lon="0.68301">
        <ele>149</ele>
        <time>2012-02-19T08:16:50Z</time>
      </trkpt>
      <trkpt lat="44.60341" lon="0.68301">
        <ele>149</ele>
        <time>2012-02-19T08:16:51Z</time>
      </trkpt>
      <trkpt lat="44.60339" lon="0.68301">
        <ele>150</ele>
        <time>2012-02-19T08:16:52Z</time>
      </trkpt>
      <trkpt lat="44.60337" lon="0.683">
        <ele>150</ele>
        <time>2012-02-19T08:16:53Z</time>
      </trkpt>
      <trkpt lat="44.60335" lon="0.683">
        <ele>150</ele>
        <time>2012-02-19T08:16:54Z</time>
      </trkpt>
      <trkpt lat="44.60334" lon="0.68299">
        <ele>151</ele>
        <time>2012-02-19T08:16:55Z</time>
      </trkpt>
      <trkpt lat="44.60332" lon="0.68298">
        <ele>151</ele>
        <time>2012-02-19T08:16:56Z</time>
      </trkpt>
      <trkpt lat="44.6033" lon="0.68298">
        <ele>151</ele>
        <time>2012-02-19T08:16:57Z</time>
      </trkpt>
      <trkpt lat="44.60329" lon="0.68297">
        <ele>151</ele>
        <time>2012-02-19T08:16:58Z</time>
      </trkpt>
      <trkpt lat="44.60327" lon="0.68296">
        <ele>151</ele>
        <time>2012-02-19T08:16:59Z</time>
      </trkpt>
      <trkpt lat="44.60326" lon="0.68296">
        <ele>151</ele>
        <time>2012-02-19T08:17:00Z</time>
      </trkpt>
      <trkpt lat="44.60324" lon="0.68295">
        <ele>151</ele>
        <time>2012-02-19T08:17:01Z</time>
      </trkpt>
      <trkpt lat="44.60323" lon="0.68294">
        <ele>151</ele>
        <time>2012-02-19T08:17:02Z</time>
      </trkpt>
      <trkpt lat="44.60322" lon="0.68294">
        <ele>151</ele>
        <time>2012-02-19T08:17:03Z</time>
      </trkpt>
      <trkpt lat="44.6032" lon="0.68293">
        <ele>151</ele>
        <time>2012-02-19T08:17:05Z</time>
      </trkpt>
      <trkpt lat="44.60318" lon="0.68293">
        <ele>151</ele>
        <time>2012-02-19T08:17:07Z</time>
      </trkpt>
      <trkpt lat="44.60316" lon="0.68292">
        <ele>151</ele>
        <time>2012-02-19T08:17:08Z</time>
      </trkpt>
      <trkpt lat="44.60315" lon="0.68291">
        <ele>151</ele>
        <time>2012-02-19T08:17:10Z</time>
      </trkpt>
      <trkpt lat="44.60313" lon="0.6829">
        <ele>151</ele>
        <time>2012-02-19T08:17:13Z</time>
      </trkpt>
      <trkpt lat="44.60311" lon="0.6829">
        <ele>151</ele>
        <time>2012-02-19T08:17:15Z</time>
      </trkpt>
      <trkpt lat="44.60308" lon="0.68289">
        <ele>151</ele>
        <time>2012-02-19T08:17:17Z</time>
      </trkpt>
      <trkpt lat="44.60307" lon="0.68289">
        <ele>151</ele>
        <time>2012-02-19T08:17:18Z</time>
      </trkpt>
      <trkpt lat="44.60306" lon="0.68288">
        <ele>152</ele>
        <time>2012-02-19T08:17:26Z</time>
      </trkpt>
      <trkpt lat="44.60306" lon="0.68286">
        <ele>153</ele>
        <time>2012-02-19T08:17:32Z</time>
      </trkpt>
      <trkpt lat="44.60304" lon="0.68286">
        <ele>155</ele>
        <time>2012-02-19T08:17:38Z</time>
      </trkpt>
      <trkpt lat="44.60303" lon="0.68286">
        <ele>156</ele>
        <time>2012-02-19T08:17:39Z</time>
      </trkpt>
      <trkpt lat="44.60301" lon="0.68287">
        <ele>156</ele>
        <time>2012-02-19T08:17:41Z</time>
      </trkpt>
      <trkpt lat="44.603" lon="0.68287">
        <ele>156</ele>
        <time>2012-02-19T08:17:42Z</time>
      </trkpt>
      <trkpt lat="44.60298" lon="0.68287">
        <ele>156</ele>
        <time>2012-02-19T08:17:43Z</time>
      </trkpt>
      <trkpt lat="44.60297" lon="0.68287">
        <ele>156</ele>
        <time>2012-02-19T08:17:44Z</time>
      </trkpt>
      <trkpt lat="44.60295" lon="0.68286">
        <ele>156</ele>
        <time>2012-02-19T08:17:45Z</time>
      </trkpt>
      <trkpt lat="44.60293" lon="0.68286">
        <ele>156</ele>
        <time>2012-02-19T08:17:46Z</time>
      </trkpt>
      <trkpt lat="44.60292" lon="0.68285">
        <ele>156</ele>
        <time>2012-02-19T08:17:47Z</time>
      </trkpt>
      <trkpt lat="44.6029" lon="0.68286">
        <ele>156</ele>
        <time>2012-02-19T08:17:48Z</time>
      </trkpt>
      <trkpt lat="44.60289" lon="0.68285">
        <ele>156</ele>
        <time>2012-02-19T08:17:49Z</time>
      </trkpt>
      <trkpt lat="44.60287" lon="0.68284">
        <ele>156</ele>
        <time>2012-02-19T08:17:50Z</time>
      </trkpt>
      <trkpt lat="44.60285" lon="0.68284">
        <ele>156</ele>
        <time>2012-02-19T08:17:51Z</time>
      </trkpt>
      <trkpt lat="44.60283" lon="0.68283">
        <ele>156</ele>
        <time>2012-02-19T08:17:52Z</time>
      </trkpt>
      <trkpt lat="44.60281" lon="0.68283">
        <ele>156</ele>
        <time>2012-02-19T08:17:53Z</time>
      </trkpt>
      <trkpt lat="44.60279" lon="0.68282">
        <ele>156</ele>
        <time>2012-02-19T08:17:54Z</time>
      </trkpt>
      <trkpt lat="44.60277" lon="0.68282">
        <ele>156</ele>
        <time>2012-02-19T08:17:55Z</time>
      </trkpt>
      <trkpt lat="44.60275" lon="0.68281">
        <ele>156</ele>
        <time>2012-02-19T08:17:56Z</time>
      </trkpt>
      <trkpt lat="44.60273" lon="0.68281">
        <ele>156</ele>
        <time>2012-02-19T08:17:57Z</time>
      </trkpt>
      <trkpt lat="44.6027" lon="0.6828">
        <ele>156</ele>
        <time>2012-02-19T08:17:58Z</time>
      </trkpt>
      <trkpt lat="44.60268" lon="0.68279">
        <ele>156</ele>
        <time>2012-02-19T08:17:59Z</time>
      </trkpt>
      <trkpt lat="44.60265" lon="0.68279">
        <ele>156</ele>
        <time>2012-02-19T08:18:00Z</time>
      </trkpt>
      <trkpt lat="44.60263" lon="0.68278">
        <ele>156</ele>
        <time>2012-02-19T08:18:01Z</time>
      </trkpt>
      <trkpt lat="44.60261" lon="0.68277">
        <ele>156</ele>
        <time>2012-02-19T08:18:02Z</time>
      </trkpt>
      <trkpt lat="44.60258" lon="0.68276">
        <ele>156</ele>
        <time>2012-02-19T08:18:03Z</time>
      </trkpt>
      <trkpt lat="44.60256" lon="0.68276">
        <ele>156</ele>
        <time>2012-02-19T08:18:04Z</time>
      </trkpt>
      <trkpt lat="44.60254" lon="0.68275">
        <ele>156</ele>
        <time>2012-02-19T08:18:05Z</time>
      </trkpt>
      <trkpt lat="44.60251" lon="0.68274">
        <ele>156</ele>
        <time>2012-02-19T08:18:06Z</time>
      </trkpt>
      <trkpt lat="44.60249" lon="0.68272">
        <ele>156</ele>
        <time>2012-02-19T08:18:07Z</time>
      </trkpt>
      <trkpt lat="44.60247" lon="0.68271">
        <ele>156</ele>
        <time>2012-02-19T08:18:08Z</time>
      </trkpt>
      <trkpt lat="44.60244" lon="0.6827">
        <ele>156</ele>
        <time>2012-02-19T08:18:09Z</time>
      </trkpt>
      <trkpt lat="44.60241" lon="0.68269">
        <ele>156</ele>
        <time>2012-02-19T08:18:10Z</time>
      </trkpt>
      <trkpt lat="44.60239" lon="0.68269">
        <ele>156</ele>
        <time>2012-02-19T08:18:11Z</time>
      </trkpt>
      <trkpt lat="44.60236" lon="0.68268">
        <ele>156</ele>
        <time>2012-02-19T08:18:12Z</time>
      </trkpt>
      <trkpt lat="44.60234" lon="0.68268">
        <ele>156</ele>
        <time>2012-02-19T08:18:13Z</time>
      </trkpt>
      <trkpt lat="44.60231" lon="0.68267">
        <ele>156</ele>
        <time>2012-02-19T08:18:14Z</time>
      </trkpt>
      <trkpt lat="44.60228" lon="0.68266">
        <ele>156</ele>
        <time>2012-02-19T08:18:15Z</time>
      </trkpt>
      <trkpt lat="44.60226" lon="0.68266">
        <ele>156</ele>
        <time>2012-02-19T08:18:16Z</time>
      </trkpt>
      <trkpt lat="44.60223" lon="0.68265">
        <ele>156</ele>
        <time>2012-02-19T08:18:17Z</time>
      </trkpt>
      <trkpt lat="44.6022" lon="0.68264">
        <ele>156</ele>
        <time>2012-02-19T08:18:18Z</time>
      </trkpt>
      <trkpt lat="44.60217" lon="0.68262">
        <ele>156</ele>
        <time>2012-02-19T08:18:19Z</time>
      </trkpt>
      <trkpt lat="44.60213" lon="0.68261">
        <ele>156</ele>
        <time>2012-02-19T08:18:20Z</time>
      </trkpt>
      <trkpt lat="44.6021" lon="0.68261">
        <ele>156</ele>
        <time>2012-02-19T08:18:21Z</time>
      </trkpt>
      <trkpt lat="44.60207" lon="0.6826">
        <ele>156</ele>
        <time>2012-02-19T08:18:22Z</time>
      </trkpt>
      <trkpt lat="44.60204" lon="0.68259">
        <ele>156</ele>
        <time>2012-02-19T08:18:23Z</time>
      </trkpt>
      <trkpt lat="44.60202" lon="0.68257">
        <ele>156</ele>
        <time>2012-02-19T08:18:24Z</time>
      </trkpt>
      <trkpt lat="44.60199" lon="0.68256">
        <ele>156</ele>
        <time>2012-02-19T08:18:25Z</time>
      </trkpt>
      <trkpt lat="44.60196" lon="0.68255">
        <ele>156</ele>
        <time>2012-02-19T08:18:26Z</time>
      </trkpt>
      <trkpt lat="44.60194" lon="0.68254">
        <ele>156</ele>
        <time>2012-02-19T08:18:27Z</time>
      </trkpt>
      <trkpt lat="44.60192" lon="0.68253">
        <ele>156</ele>
        <time>2012-02-19T08:18:28Z</time>
      </trkpt>
      <trkpt lat="44.6019" lon="0.68251">
        <ele>156</ele>
        <time>2012-02-19T08:18:29Z</time>
      </trkpt>
      <trkpt lat="44.60189" lon="0.6825">
        <ele>156</ele>
        <time>2012-02-19T08:18:30Z</time>
      </trkpt>
      <trkpt lat="44.60188" lon="0.68247">
        <ele>156</ele>
        <time>2012-02-19T08:18:31Z</time>
      </trkpt>
      <trkpt lat="44.60186" lon="0.68245">
        <ele>156</ele>
        <time>2012-02-19T08:18:32Z</time>
      </trkpt>
      <trkpt lat="44.60184" lon="0.68244">
        <ele>156</ele>
        <time>2012-02-19T08:18:33Z</time>
      </trkpt>
      <trkpt lat="44.60182" lon="0.68243">
        <ele>156</ele>
        <time>2012-02-19T08:18:34Z</time>
      </trkpt>
      <trkpt lat="44.6018" lon="0.68242">
        <ele>156</ele>
        <time>2012-02-19T08:18:35Z</time>
      </trkpt>
      <trkpt lat="44.60178" lon="0.68242">
        <ele>156</ele>
        <time>2012-02-19T08:18:36Z</time>
      </trkpt>
      <trkpt lat="44.60176" lon="0.68241">
        <ele>156</ele>
        <time>2012-02-19T08:18:37Z</time>
      </trkpt>
      <trkpt lat="44.60173" lon="0.6824">
        <ele>156</ele>
        <time>2012-02-19T08:18:38Z</time>
      </trkpt>
      <trkpt lat="44.60171" lon="0.68239">
        <ele>156</ele>
        <time>2012-02-19T08:18:39Z</time>
      </trkpt>
      <trkpt lat="44.60169" lon="0.68239">
        <ele>156</ele>
        <time>2012-02-19T08:18:40Z</time>
      </trkpt>
      <trkpt lat="44.60166" lon="0.68238">
        <ele>156</ele>
        <time>2012-02-19T08:18:41Z</time>
      </trkpt>
      <trkpt lat="44.60164" lon="0.68237">
        <ele>156</ele>
        <time>2012-02-19T08:18:42Z</time>
      </trkpt>
      <trkpt lat="44.60162" lon="0.68236">
        <ele>156</ele>
        <time>2012-02-19T08:18:43Z</time>
      </trkpt>
      <trkpt lat="44.60159" lon="0.68235">
        <ele>156</ele>
        <time>2012-02-19T08:18:44Z</time>
      </trkpt>
      <trkpt lat="44.60157" lon="0.68234">
        <ele>156</ele>
        <time>2012-02-19T08:18:45Z</time>
      </trkpt>
      <trkpt lat="44.60155" lon="0.68234">
        <ele>156</ele>
        <time>2012-02-19T08:18:46Z</time>
      </trkpt>
      <trkpt lat="44.60153" lon="0.68233">
        <ele>156</ele>
        <time>2012-02-19T08:18:47Z</time>
      </trkpt>
      <trkpt lat="44.60151" lon="0.68232">
        <ele>156</ele>
        <time>2012-02-19T08:18:48Z</time>
      </trkpt>
      <trkpt lat="44.60149" lon="0.68231">
        <ele>156</ele>
        <time>2012-02-19T08:18:49Z</time>
      </trkpt>
      <trkpt lat="44.60147" lon="0.6823">
        <ele>156</ele>
        <time>2012-02-19T08:18:50Z</time>
      </trkpt>
      <trkpt lat="44.60145" lon="0.68229">
        <ele>156</ele>
        <time>2012-02-19T08:18:51Z</time>
      </trkpt>
      <trkpt lat="44.60143" lon="0.68227">
        <ele>156</ele>
        <time>2012-02-19T08:18:52Z</time>
      </trkpt>
      <trkpt lat="44.60141" lon="0.68226">
        <ele>156</ele>
        <time>2012-02-19T08:18:53Z</time>
      </trkpt>
      <trkpt lat="44.60139" lon="0.68225">
        <ele>156</ele>
        <time>2012-02-19T08:18:54Z</time>
      </trkpt>
      <trkpt lat="44.60137" lon="0.68224">
        <ele>156</ele>
        <time>2012-02-19T08:18:55Z</time>
      </trkpt>
      <trkpt lat="44.60135" lon="0.68223">
        <ele>156</ele>
        <time>2012-02-19T08:18:56Z</time>
      </trkpt>
      <trkpt lat="44.60133" lon="0.68223">
        <ele>156</ele>
        <time>2012-02-19T08:18:57Z</time>
      </trkpt>
      <trkpt lat="44.6013" lon="0.68223">
        <ele>156</ele>
        <time>2012-02-19T08:18:58Z</time>
      </trkpt>
      <trkpt lat="44.60128" lon="0.68222">
        <ele>156</ele>
        <time>2012-02-19T08:18:59Z</time>
      </trkpt>
      <trkpt lat="44.60126" lon="0.68221">
        <ele>156</ele>
        <time>2012-02-19T08:19:00Z</time>
      </trkpt>
      <trkpt lat="44.60125" lon="0.68221">
        <ele>156</ele>
        <time>2012-02-19T08:19:01Z</time>
      </trkpt>
      <trkpt lat="44.60123" lon="0.6822">
        <ele>156</ele>
        <time>2012-02-19T08:19:02Z</time>
      </trkpt>
      <trkpt lat="44.60122" lon="0.68219">
        <ele>156</ele>
        <time>2012-02-19T08:19:03Z</time>
      </trkpt>
      <trkpt lat="44.6012" lon="0.68219">
        <ele>156</ele>
        <time>2012-02-19T08:19:04Z</time>
      </trkpt>
      <trkpt lat="44.60118" lon="0.68218">
        <ele>156</ele>
        <time>2012-02-19T08:19:05Z</time>
      </trkpt>
      <trkpt lat="44.60116" lon="0.68218">
        <ele>156</ele>
        <time>2012-02-19T08:19:06Z</time>
      </trkpt>
      <trkpt lat="44.60114" lon="0.68218">
        <ele>156</ele>
        <time>2012-02-19T08:19:07Z</time>
      </trkpt>
      <trkpt lat="44.60112" lon="0.68217">
        <ele>156</ele>
        <time>2012-02-19T08:19:08Z</time>
      </trkpt>
      <trkpt lat="44.6011" lon="0.68217">
        <ele>156</ele>
        <time>2012-02-19T08:19:09Z</time>
      </trkpt>
      <trkpt lat="44.60108" lon="0.68217">
        <ele>156</ele>
        <time>2012-02-19T08:19:10Z</time>
      </trkpt>
      <trkpt lat="44.60106" lon="0.68216">
        <ele>156</ele>
        <time>2012-02-19T08:19:11Z</time>
      </trkpt>
      <trkpt lat="44.60104" lon="0.68215">
        <ele>156</ele>
        <time>2012-02-19T08:19:12Z</time>
      </trkpt>
      <trkpt lat="44.60102" lon="0.68215">
        <ele>156</ele>
        <time>2012-02-19T08:19:13Z</time>
      </trkpt>
      <trkpt lat="44.601" lon="0.68213">
        <ele>156</ele>
        <time>2012-02-19T08:19:14Z</time>
      </trkpt>
      <trkpt lat="44.60098" lon="0.68213">
        <ele>156</ele>
        <time>2012-02-19T08:19:15Z</time>
      </trkpt>
      <trkpt lat="44.60095" lon="0.68212">
        <ele>156</ele>
        <time>2012-02-19T08:19:16Z</time>
      </trkpt>
      <trkpt lat="44.60093" lon="0.68211">
        <ele>156</ele>
        <time>2012-02-19T08:19:17Z</time>
      </trkpt>
      <trkpt lat="44.60091" lon="0.6821">
        <ele>156</ele>
        <time>2012-02-19T08:19:18Z</time>
      </trkpt>
      <trkpt lat="44.60088" lon="0.68209">
        <ele>156</ele>
        <time>2012-02-19T08:19:19Z</time>
      </trkpt>
      <trkpt lat="44.60086" lon="0.68209">
        <ele>156</ele>
        <time>2012-02-19T08:19:20Z</time>
      </trkpt>
      <trkpt lat="44.60083" lon="0.68209">
        <ele>156</ele>
        <time>2012-02-19T08:19:21Z</time>
      </trkpt>
      <trkpt lat="44.60081" lon="0.68207">
        <ele>156</ele>
        <time>2012-02-19T08:19:22Z</time>
      </trkpt>
      <trkpt lat="44.60078" lon="0.68206">
        <ele>156</ele>
        <time>2012-02-19T08:19:23Z</time>
      </trkpt>
      <trkpt lat="44.60076" lon="0.68206">
        <ele>156</ele>
        <time>2012-02-19T08:19:24Z</time>
      </trkpt>
      <trkpt lat="44.60073" lon="0.68205">
        <ele>156</ele>
        <time>2012-02-19T08:19:25Z</time>
      </trkpt>
      <trkpt lat="44.60071" lon="0.68205">
        <ele>156</ele>
        <time>2012-02-19T08:19:26Z</time>
      </trkpt>
      <trkpt lat="44.60068" lon="0.68204">
        <ele>156</ele>
        <time>2012-02-19T08:19:27Z</time>
      </trkpt>
      <trkpt lat="44.60065" lon="0.68204">
        <ele>156</ele>
        <time>2012-02-19T08:19:28Z</time>
      </trkpt>
      <trkpt lat="44.60063" lon="0.68203">
        <ele>156</ele>
        <time>2012-02-19T08:19:29Z</time>
      </trkpt>
      <trkpt lat="44.6006" lon="0.68202">
        <ele>156</ele>
        <time>2012-02-19T08:19:30Z</time>
      </trkpt>
      <trkpt lat="44.60058" lon="0.682">
        <ele>156</ele>
        <time>2012-02-19T08:19:31Z</time>
      </trkpt>
      <trkpt lat="44.60055" lon="0.68198">
        <ele>156</ele>
        <time>2012-02-19T08:19:32Z</time>
      </trkpt>
      <trkpt lat="44.60053" lon="0.68197">
        <ele>156</ele>
        <time>2012-02-19T08:19:33Z</time>
      </trkpt>
      <trkpt lat="44.60051" lon="0.68197">
        <ele>156</ele>
        <time>2012-02-19T08:19:34Z</time>
      </trkpt>
      <trkpt lat="44.60048" lon="0.68196">
        <ele>156</ele>
        <time>2012-02-19T08:19:35Z</time>
      </trkpt>
      <trkpt lat="44.60046" lon="0.68195">
        <ele>156</ele>
        <time>2012-02-19T08:19:36Z</time>
      </trkpt>
      <trkpt lat="44.60043" lon="0.68195">
        <ele>156</ele>
        <time>2012-02-19T08:19:37Z</time>
      </trkpt>
      <trkpt lat="44.6004" lon="0.68194">
        <ele>156</ele>
        <time>2012-02-19T08:19:38Z</time>
      </trkpt>
      <trkpt lat="44.60038" lon="0.68193">
        <ele>156</ele>
        <time>2012-02-19T08:19:39Z</time>
      </trkpt>
      <trkpt lat="44.60035" lon="0.68193">
        <ele>156</ele>
        <time>2012-02-19T08:19:40Z</time>
      </trkpt>
      <trkpt lat="44.60032" lon="0.68192">
        <ele>156</ele>
        <time>2012-02-19T08:19:41Z</time>
      </trkpt>
      <trkpt lat="44.60029" lon="0.68191">
        <ele>156</ele>
        <time>2012-02-19T08:19:42Z</time>
      </trkpt>
      <trkpt lat="44.60027" lon="0.68191">
        <ele>156</ele>
        <time>2012-02-19T08:19:43Z</time>
      </trkpt>
      <trkpt lat="44.60024" lon="0.68191">
        <ele>156</ele>
        <time>2012-02-19T08:19:44Z</time>
      </trkpt>
      <trkpt lat="44.60022" lon="0.68191">
        <ele>156</ele>
        <time>2012-02-19T08:19:45Z</time>
      </trkpt>
      <trkpt lat="44.60019" lon="0.68192">
        <ele>156</ele>
        <time>2012-02-19T08:19:46Z</time>
      </trkpt>
      <trkpt lat="44.60017" lon="0.68193">
        <ele>156</ele>
        <time>2012-02-19T08:19:47Z</time>
      </trkpt>
      <trkpt lat="44.60014" lon="0.68195">
        <ele>156</ele>
        <time>2012-02-19T08:19:48Z</time>
      </trkpt>
      <trkpt lat="44.60012" lon="0.68196">
        <ele>156</ele>
        <time>2012-02-19T08:19:49Z</time>
      </trkpt>
      <trkpt lat="44.60009" lon="0.68198">
        <ele>156</ele>
        <time>2012-02-19T08:19:50Z</time>
      </trkpt>
      <trkpt lat="44.60006" lon="0.68199">
        <ele>156</ele>
        <time>2012-02-19T08:19:51Z</time>
      </trkpt>
      <trkpt lat="44.60004" lon="0.682">
        <ele>156</ele>
        <time>2012-02-19T08:19:52Z</time>
      </trkpt>
      <trkpt lat="44.60003" lon="0.68202">
        <ele>156</ele>
        <time>2012-02-19T08:19:53Z</time>
      </trkpt>
      <trkpt lat="44.6" lon="0.68204">
        <ele>156</ele>
        <time>2012-02-19T08:19:54Z</time>
      </trkpt>
      <trkpt lat="44.59997" lon="0.68207">
        <ele>156</ele>
        <time>2012-02-19T08:19:55Z</time>
      </trkpt>
      <trkpt lat="44.59995" lon="0.68209">
        <ele>156</ele>
        <time>2012-02-19T08:19:56Z</time>
      </trkpt>
      <trkpt lat="44.59992" lon="0.68212">
        <ele>156</ele>
        <time>2012-02-19T08:19:57Z</time>
      </trkpt>
      <trkpt lat="44.5999" lon="0.68214">
        <ele>156</ele>
        <time>2012-02-19T08:19:58Z</time>
      </trkpt>
      <trkpt lat="44.59987" lon="0.68216">
        <ele>156</ele>
        <time>2012-02-19T08:19:59Z</time>
      </trkpt>
      <trkpt lat="44.59984" lon="0.68219">
        <ele>156</ele>
        <time>2012-02-19T08:20:00Z</time>
      </trkpt>
      <trkpt lat="44.59981" lon="0.68222">
        <ele>156</ele>
        <time>2012-02-19T08:20:01Z</time>
      </trkpt>
      <trkpt lat="44.59977" lon="0.68225">
        <ele>156</ele>
        <time>2012-02-19T08:20:02Z</time>
      </trkpt>
      <trkpt lat="44.59975" lon="0.68227">
        <ele>156</ele>
        <time>2012-02-19T08:20:03Z</time>
      </trkpt>
      <trkpt lat="44.59972" lon="0.6823">
        <ele>156</ele>
        <time>2012-02-19T08:20:04Z</time>
      </trkpt>
      <trkpt lat="44.59968" lon="0.68231">
        <ele>156</ele>
        <time>2012-02-19T08:20:05Z</time>
      </trkpt>
      <trkpt lat="44.59964" lon="0.68234">
        <ele>156</ele>
        <time>2012-02-19T08:20:06Z</time>
      </trkpt>
      <trkpt lat="44.59961" lon="0.68235">
        <ele>156</ele>
        <time>2012-02-19T08:20:07Z</time>
      </trkpt>
      <trkpt lat="44.59958" lon="0.68236">
        <ele>156</ele>
        <time>2012-02-19T08:20:08Z</time>
      </trkpt>
      <trkpt lat="44.59954" lon="0.68236">
        <ele>156</ele>
        <time>2012-02-19T08:20:09Z</time>
      </trkpt>
      <trkpt lat="44.59952" lon="0.68235">
        <ele>156</ele>
        <time>2012-02-19T08:20:10Z</time>
      </trkpt>
      <trkpt lat="44.5995" lon="0.68235">
        <ele>156</ele>
        <time>2012-02-19T08:20:11Z</time>
      </trkpt>
      <trkpt lat="44.59947" lon="0.68233">
        <ele>156</ele>
        <time>2012-02-19T08:20:12Z</time>
      </trkpt>
      <trkpt lat="44.59945" lon="0.6823">
        <ele>156</ele>
        <time>2012-02-19T08:20:13Z</time>
      </trkpt>
      <trkpt lat="44.59942" lon="0.68227">
        <ele>156</ele>
        <time>2012-02-19T08:20:14Z</time>
      </trkpt>
      <trkpt lat="44.5994" lon="0.68225">
        <ele>157</ele>
        <time>2012-02-19T08:20:15Z</time>
      </trkpt>
      <trkpt lat="44.59938" lon="0.68221">
        <ele>157</ele>
        <time>2012-02-19T08:20:16Z</time>
      </trkpt>
      <trkpt lat="44.59936" lon="0.68218">
        <ele>158</ele>
        <time>2012-02-19T08:20:17Z</time>
      </trkpt>
      <trkpt lat="44.59934" lon="0.68216">
        <ele>159</ele>
        <time>2012-02-19T08:20:18Z</time>
      </trkpt>
      <trkpt lat="44.59932" lon="0.68213">
        <ele>159</ele>
        <time>2012-02-19T08:20:19Z</time>
      </trkpt>
      <trkpt lat="44.5993" lon="0.6821">
        <ele>159</ele>
        <time>2012-02-19T08:20:20Z</time>
      </trkpt>
      <trkpt lat="44.59928" lon="0.68207">
        <ele>159</ele>
        <time>2012-02-19T08:20:21Z</time>
      </trkpt>
      <trkpt lat="44.59926" lon="0.68205">
        <ele>159</ele>
        <time>2012-02-19T08:20:22Z</time>
      </trkpt>
      <trkpt lat="44.59925" lon="0.68203">
        <ele>159</ele>
        <time>2012-02-19T08:20:23Z</time>
      </trkpt>
      <trkpt lat="44.59923" lon="0.682">
        <ele>159</ele>
        <time>2012-02-19T08:20:24Z</time>
      </trkpt>
      <trkpt lat="44.59922" lon="0.68198">
        <ele>159</ele>
        <time>2012-02-19T08:20:25Z</time>
      </trkpt>
      <trkpt lat="44.5992" lon="0.68195">
        <ele>159</ele>
        <time>2012-02-19T08:20:26Z</time>
      </trkpt>
      <trkpt lat="44.59919" lon="0.68192">
        <ele>159</ele>
        <time>2012-02-19T08:20:27Z</time>
      </trkpt>
      <trkpt lat="44.59917" lon="0.68189">
        <ele>159</ele>
        <time>2012-02-19T08:20:28Z</time>
      </trkpt>
      <trkpt lat="44.59915" lon="0.68187">
        <ele>159</ele>
        <time>2012-02-19T08:20:29Z</time>
      </trkpt>
      <trkpt lat="44.59913" lon="0.68185">
        <ele>159</ele>
        <time>2012-02-19T08:20:30Z</time>
      </trkpt>
      <trkpt lat="44.59911" lon="0.68183">
        <ele>159</ele>
        <time>2012-02-19T08:20:31Z</time>
      </trkpt>
      <trkpt lat="44.5991" lon="0.68182">
        <ele>159</ele>
        <time>2012-02-19T08:20:32Z</time>
      </trkpt>
      <trkpt lat="44.59908" lon="0.6818">
        <ele>159</ele>
        <time>2012-02-19T08:20:33Z</time>
      </trkpt>
      <trkpt lat="44.59907" lon="0.68178">
        <ele>159</ele>
        <time>2012-02-19T08:20:34Z</time>
      </trkpt>
      <trkpt lat="44.59905" lon="0.68177">
        <ele>159</ele>
        <time>2012-02-19T08:20:35Z</time>
      </trkpt>
      <trkpt lat="44.59904" lon="0.68176">
        <ele>159</ele>
        <time>2012-02-19T08:20:36Z</time>
      </trkpt>
      <trkpt lat="44.59902" lon="0.68175">
        <ele>159</ele>
        <time>2012-02-19T08:20:37Z</time>
      </trkpt>
      <trkpt lat="44.59901" lon="0.68174">
        <ele>159</ele>
        <time>2012-02-19T08:20:38Z</time>
      </trkpt>
      <trkpt lat="44.59898" lon="0.68173">
        <ele>159</ele>
        <time>2012-02-19T08:20:39Z</time>
      </trkpt>
      <trkpt lat="44.59897" lon="0.68172">
        <ele>159</ele>
        <time>2012-02-19T08:20:40Z</time>
      </trkpt>
      <trkpt lat="44.59895" lon="0.68171">
        <ele>159</ele>
        <time>2012-02-19T08:20:41Z</time>
      </trkpt>
      <trkpt lat="44.59893" lon="0.68171">
        <ele>159</ele>
        <time>2012-02-19T08:20:42Z</time>
      </trkpt>
      <trkpt lat="44.59892" lon="0.6817">
        <ele>159</ele>
        <time>2012-02-19T08:20:43Z</time>
      </trkpt>
      <trkpt lat="44.5989" lon="0.68169">
        <ele>159</ele>
        <time>2012-02-19T08:20:44Z</time>
      </trkpt>
      <trkpt lat="44.59887" lon="0.68168">
        <ele>159</ele>
        <time>2012-02-19T08:20:45Z</time>
      </trkpt>
      <trkpt lat="44.59885" lon="0.68168">
        <ele>159</ele>
        <time>2012-02-19T08:20:46Z</time>
      </trkpt>
      <trkpt lat="44.59883" lon="0.68167">
        <ele>159</ele>
        <time>2012-02-19T08:20:47Z</time>
      </trkpt>
      <trkpt lat="44.59881" lon="0.68167">
        <ele>159</ele>
        <time>2012-02-19T08:20:48Z</time>
      </trkpt>
      <trkpt lat="44.59879" lon="0.68168">
        <ele>159</ele>
        <time>2012-02-19T08:20:49Z</time>
      </trkpt>
      <trkpt lat="44.59877" lon="0.68168">
        <ele>159</ele>
        <time>2012-02-19T08:20:50Z</time>
      </trkpt>
      <trkpt lat="44.59875" lon="0.68169">
        <ele>159</ele>
        <time>2012-02-19T08:20:51Z</time>
      </trkpt>
      <trkpt lat="44.59873" lon="0.68169">
        <ele>159</ele>
        <time>2012-02-19T08:20:52Z</time>
      </trkpt>
      <trkpt lat="44.59871" lon="0.6817">
        <ele>159</ele>
        <time>2012-02-19T08:20:53Z</time>
      </trkpt>
      <trkpt lat="44.59869" lon="0.68171">
        <ele>159</ele>
        <time>2012-02-19T08:20:54Z</time>
      </trkpt>
      <trkpt lat="44.59868" lon="0.68172">
        <ele>159</ele>
        <time>2012-02-19T08:20:55Z</time>
      </trkpt>
      <trkpt lat="44.59866" lon="0.68173">
        <ele>159</ele>
        <time>2012-02-19T08:20:56Z</time>
      </trkpt>
      <trkpt lat="44.59864" lon="0.68174">
        <ele>159</ele>
        <time>2012-02-19T08:20:57Z</time>
      </trkpt>
      <trkpt lat="44.59862" lon="0.68174">
        <ele>159</ele>
        <time>2012-02-19T08:20:58Z</time>
      </trkpt>
      <trkpt lat="44.59859" lon="0.68175">
        <ele>159</ele>
        <time>2012-02-19T08:20:59Z</time>
      </trkpt>
      <trkpt lat="44.59857" lon="0.68176">
        <ele>159</ele>
        <time>2012-02-19T08:21:00Z</time>
      </trkpt>
      <trkpt lat="44.59854" lon="0.68177">
        <ele>159</ele>
        <time>2012-02-19T08:21:01Z</time>
      </trkpt>
      <trkpt lat="44.59851" lon="0.68178">
        <ele>159</ele>
        <time>2012-02-19T08:21:02Z</time>
      </trkpt>
      <trkpt lat="44.59848" lon="0.68179">
        <ele>159</ele>
        <time>2012-02-19T08:21:03Z</time>
      </trkpt>
      <trkpt lat="44.59845" lon="0.6818">
        <ele>159</ele>
        <time>2012-02-19T08:21:04Z</time>
      </trkpt>
      <trkpt lat="44.59841" lon="0.68182">
        <ele>159</ele>
        <time>2012-02-19T08:21:05Z</time>
      </trkpt>
      <trkpt lat="44.59837" lon="0.68183">
        <ele>159</ele>
        <time>2012-02-19T08:21:06Z</time>
      </trkpt>
      <trkpt lat="44.59833" lon="0.68185">
        <ele>159</ele>
        <time>2012-02-19T08:21:07Z</time>
      </trkpt>
      <trkpt lat="44.59829" lon="0.68187">
        <ele>159</ele>
        <time>2012-02-19T08:21:08Z</time>
      </trkpt>
      <trkpt lat="44.59824" lon="0.68189">
        <ele>159</ele>
        <time>2012-02-19T08:21:09Z</time>
      </trkpt>
      <trkpt lat="44.59819" lon="0.6819">
        <ele>159</ele>
        <time>2012-02-19T08:21:10Z</time>
      </trkpt>
      <trkpt lat="44.59814" lon="0.68191">
        <ele>159</ele>
        <time>2012-02-19T08:21:11Z</time>
      </trkpt>
      <trkpt lat="44.59809" lon="0.68192">
        <ele>159</ele>
        <time>2012-02-19T08:21:12Z</time>
      </trkpt>
      <trkpt lat="44.59805" lon="0.68193">
        <ele>159</ele>
        <time>2012-02-19T08:21:13Z</time>
      </trkpt>
      <trkpt lat="44.59801" lon="0.68194">
        <ele>159</ele>
        <time>2012-02-19T08:21:14Z</time>
      </trkpt>
      <trkpt lat="44.59797" lon="0.68195">
        <ele>159</ele>
        <time>2012-02-19T08:21:15Z</time>
      </trkpt>
      <trkpt lat="44.59793" lon="0.68197">
        <ele>159</ele>
        <time>2012-02-19T08:21:16Z</time>
      </trkpt>
      <trkpt lat="44.59789" lon="0.68199">
        <ele>159</ele>
        <time>2012-02-19T08:21:17Z</time>
      </trkpt>
      <trkpt lat="44.59785" lon="0.68201">
        <ele>159</ele>
        <time>2012-02-19T08:21:18Z</time>
      </trkpt>
      <trkpt lat="44.59782" lon="0.68203">
        <ele>159</ele>
        <time>2012-02-19T08:21:19Z</time>
      </trkpt>
      <trkpt lat="44.59779" lon="0.68205">
        <ele>159</ele>
        <time>2012-02-19T08:21:20Z</time>
      </trkpt>
      <trkpt lat="44.59776" lon="0.68207">
        <ele>159</ele>
        <time>2012-02-19T08:21:21Z</time>
      </trkpt>
      <trkpt lat="44.59773" lon="0.68209">
        <ele>159</ele>
        <time>2012-02-19T08:21:22Z</time>
      </trkpt>
      <trkpt lat="44.59771" lon="0.68211">
        <ele>159</ele>
        <time>2012-02-19T08:21:23Z</time>
      </trkpt>
      <trkpt lat="44.59768" lon="0.68212">
        <ele>159</ele>
        <time>2012-02-19T08:21:24Z</time>
      </trkpt>
      <trkpt lat="44.59765" lon="0.68214">
        <ele>159</ele>
        <time>2012-02-19T08:21:25Z</time>
      </trkpt>
      <trkpt lat="44.59763" lon="0.68216">
        <ele>159</ele>
        <time>2012-02-19T08:21:26Z</time>
      </trkpt>
      <trkpt lat="44.59761" lon="0.68218">
        <ele>159</ele>
        <time>2012-02-19T08:21:27Z</time>
      </trkpt>
      <trkpt lat="44.59759" lon="0.6822">
        <ele>159</ele>
        <time>2012-02-19T08:21:28Z</time>
      </trkpt>
      <trkpt lat="44.59757" lon="0.68221">
        <ele>159</ele>
        <time>2012-02-19T08:21:29Z</time>
      </trkpt>
      <trkpt lat="44.59755" lon="0.68222">
        <ele>159</ele>
        <time>2012-02-19T08:21:30Z</time>
      </trkpt>
      <trkpt lat="44.59753" lon="0.68223">
        <ele>159</ele>
        <time>2012-02-19T08:21:31Z</time>
      </trkpt>
      <trkpt lat="44.5975" lon="0.68224">
        <ele>159</ele>
        <time>2012-02-19T08:21:32Z</time>
      </trkpt>
      <trkpt lat="44.59748" lon="0.68224">
        <ele>159</ele>
        <time>2012-02-19T08:21:33Z</time>
      </trkpt>
      <trkpt lat="44.59745" lon="0.68225">
        <ele>159</ele>
        <time>2012-02-19T08:21:34Z</time>
      </trkpt>
      <trkpt lat="44.59743" lon="0.68226">
        <ele>159</ele>
        <time>2012-02-19T08:21:35Z</time>
      </trkpt>
      <trkpt lat="44.5974" lon="0.68227">
        <ele>159</ele>
        <time>2012-02-19T08:21:36Z</time>
      </trkpt>
      <trkpt lat="44.59738" lon="0.68228">
        <ele>159</ele>
        <time>2012-02-19T08:21:37Z</time>
      </trkpt>
      <trkpt lat="44.59735" lon="0.68229">
        <ele>159</ele>
        <time>2012-02-19T08:21:38Z</time>
      </trkpt>
      <trkpt lat="44.59733" lon="0.6823">
        <ele>159</ele>
        <time>2012-02-19T08:21:39Z</time>
      </trkpt>
      <trkpt lat="44.59731" lon="0.68231">
        <ele>159</ele>
        <time>2012-02-19T08:21:40Z</time>
      </trkpt>
      <trkpt lat="44.59729" lon="0.68232">
        <ele>159</ele>
        <time>2012-02-19T08:21:41Z</time>
      </trkpt>
      <trkpt lat="44.59728" lon="0.68233">
        <ele>159</ele>
        <time>2012-02-19T08:21:42Z</time>
      </trkpt>
      <trkpt lat="44.59726" lon="0.68234">
        <ele>159</ele>
        <time>2012-02-19T08:21:43Z</time>
      </trkpt>
      <trkpt lat="44.59725" lon="0.68235">
        <ele>159</ele>
        <time>2012-02-19T08:21:44Z</time>
      </trkpt>
      <trkpt lat="44.59723" lon="0.68237">
        <ele>159</ele>
        <time>2012-02-19T08:21:46Z</time>
      </trkpt>
      <trkpt lat="44.59721" lon="0.68238">
        <ele>159</ele>
        <time>2012-02-19T08:21:47Z</time>
      </trkpt>
      <trkpt lat="44.59719" lon="0.6824">
        <ele>159</ele>
        <time>2012-02-19T08:21:48Z</time>
      </trkpt>
      <trkpt lat="44.59718" lon="0.68242">
        <ele>159</ele>
        <time>2012-02-19T08:21:49Z</time>
      </trkpt>
      <trkpt lat="44.59716" lon="0.68245">
        <ele>159</ele>
        <time>2012-02-19T08:21:50Z</time>
      </trkpt>
      <trkpt lat="44.59715" lon="0.68247">
        <ele>159</ele>
        <time>2012-02-19T08:21:51Z</time>
      </trkpt>
      <trkpt lat="44.59713" lon="0.6825">
        <ele>159</ele>
        <time>2012-02-19T08:21:52Z</time>
      </trkpt>
      <trkpt lat="44.5971" lon="0.68253">
        <ele>159</ele>
        <time>2012-02-19T08:21:53Z</time>
      </trkpt>
      <trkpt lat="44.59708" lon="0.68256">
        <ele>159</ele>
        <time>2012-02-19T08:21:54Z</time>
      </trkpt>
      <trkpt lat="44.59706" lon="0.68259">
        <ele>159</ele>
        <time>2012-02-19T08:21:55Z</time>
      </trkpt>
      <trkpt lat="44.59703" lon="0.68263">
        <ele>159</ele>
        <time>2012-02-19T08:21:56Z</time>
      </trkpt>
      <trkpt lat="44.59701" lon="0.68267">
        <ele>159</ele>
        <time>2012-02-19T08:21:57Z</time>
      </trkpt>
      <trkpt lat="44.59699" lon="0.68271">
        <ele>159</ele>
        <time>2012-02-19T08:21:58Z</time>
      </trkpt>
      <trkpt lat="44.59698" lon="0.68275">
        <ele>159</ele>
        <time>2012-02-19T08:21:59Z</time>
      </trkpt>
      <trkpt lat="44.59696" lon="0.68278">
        <ele>159</ele>
        <time>2012-02-19T08:22:00Z</time>
      </trkpt>
      <trkpt lat="44.59695" lon="0.68282">
        <ele>159</ele>
        <time>2012-02-19T08:22:01Z</time>
      </trkpt>
      <trkpt lat="44.59693" lon="0.68285">
        <ele>159</ele>
        <time>2012-02-19T08:22:02Z</time>
      </trkpt>
      <trkpt lat="44.59692" lon="0.68288">
        <ele>159</ele>
        <time>2012-02-19T08:22:03Z</time>
      </trkpt>
      <trkpt lat="44.59691" lon="0.68292">
        <ele>159</ele>
        <time>2012-02-19T08:22:04Z</time>
      </trkpt>
      <trkpt lat="44.5969" lon="0.68296">
        <ele>159</ele>
        <time>2012-02-19T08:22:05Z</time>
      </trkpt>
      <trkpt lat="44.59689" lon="0.683">
        <ele>159</ele>
        <time>2012-02-19T08:22:06Z</time>
      </trkpt>
      <trkpt lat="44.59687" lon="0.68304">
        <ele>159</ele>
        <time>2012-02-19T08:22:07Z</time>
      </trkpt>
      <trkpt lat="44.59686" lon="0.68309">
        <ele>159</ele>
        <time>2012-02-19T08:22:08Z</time>
      </trkpt>
      <trkpt lat="44.59684" lon="0.68314">
        <ele>159</ele>
        <time>2012-02-19T08:22:09Z</time>
      </trkpt>
      <trkpt lat="44.59683" lon="0.68319">
        <ele>159</ele>
        <time>2012-02-19T08:22:10Z</time>
      </trkpt>
      <trkpt lat="44.59681" lon="0.68323">
        <ele>159</ele>
        <time>2012-02-19T08:22:11Z</time>
      </trkpt>
      <trkpt lat="44.5968" lon="0.68327">
        <ele>159</ele>
        <time>2012-02-19T08:22:12Z</time>
      </trkpt>
      <trkpt lat="44.59679" lon="0.68332">
        <ele>159</ele>
        <time>2012-02-19T08:22:13Z</time>
      </trkpt>
      <trkpt lat="44.59678" lon="0.68336">
        <ele>159</ele>
        <time>2012-02-19T08:22:14Z</time>
      </trkpt>
      <trkpt lat="44.59678" lon="0.68341">
        <ele>159</ele>
        <time>2012-02-19T08:22:15Z</time>
      </trkpt>
      <trkpt lat="44.59677" lon="0.68345">
        <ele>159</ele>
        <time>2012-02-19T08:22:16Z</time>
      </trkpt>
      <trkpt lat="44.59676" lon="0.6835">
        <ele>159</ele>
        <time>2012-02-19T08:22:17Z</time>
      </trkpt>
      <trkpt lat="44.59676" lon="0.68356">
        <ele>159</ele>
        <time>2012-02-19T08:22:18Z</time>
      </trkpt>
      <trkpt lat="44.59675" lon="0.68361">
        <ele>159</ele>
        <time>2012-02-19T08:22:19Z</time>
      </trkpt>
      <trkpt lat="44.59675" lon="0.68366">
        <ele>159</ele>
        <time>2012-02-19T08:22:20Z</time>
      </trkpt>
      <trkpt lat="44.59674" lon="0.68371">
        <ele>159</ele>
        <time>2012-02-19T08:22:21Z</time>
      </trkpt>
      <trkpt lat="44.59674" lon="0.68375">
        <ele>159</ele>
        <time>2012-02-19T08:22:22Z</time>
      </trkpt>
      <trkpt lat="44.59673" lon="0.6838">
        <ele>159</ele>
        <time>2012-02-19T08:22:23Z</time>
      </trkpt>
      <trkpt lat="44.59672" lon="0.68386">
        <ele>159</ele>
        <time>2012-02-19T08:22:24Z</time>
      </trkpt>
      <trkpt lat="44.59671" lon="0.68391">
        <ele>159</ele>
        <time>2012-02-19T08:22:25Z</time>
      </trkpt>
      <trkpt lat="44.5967" lon="0.68396">
        <ele>159</ele>
        <time>2012-02-19T08:22:26Z</time>
      </trkpt>
      <trkpt lat="44.59669" lon="0.68401">
        <ele>159</ele>
        <time>2012-02-19T08:22:27Z</time>
      </trkpt>
      <trkpt lat="44.59667" lon="0.68405">
        <ele>159</ele>
        <time>2012-02-19T08:22:28Z</time>
      </trkpt>
      <trkpt lat="44.59665" lon="0.68409">
        <ele>159</ele>
        <time>2012-02-19T08:22:29Z</time>
      </trkpt>
      <trkpt lat="44.59663" lon="0.68413">
        <ele>159</ele>
        <time>2012-02-19T08:22:30Z</time>
      </trkpt>
      <trkpt lat="44.59661" lon="0.68418">
        <ele>159</ele>
        <time>2012-02-19T08:22:31Z</time>
      </trkpt>
      <trkpt lat="44.5966" lon="0.68422">
        <ele>159</ele>
        <time>2012-02-19T08:22:32Z</time>
      </trkpt>
      <trkpt lat="44.59659" lon="0.68426">
        <ele>159</ele>
        <time>2012-02-19T08:22:33Z</time>
      </trkpt>
      <trkpt lat="44.59658" lon="0.68431">
        <ele>159</ele>
        <time>2012-02-19T08:22:34Z</time>
      </trkpt>
      <trkpt lat="44.59657" lon="0.68435">
        <ele>160</ele>
        <time>2012-02-19T08:22:35Z</time>
      </trkpt>
      <trkpt lat="44.59655" lon="0.68439">
        <ele>160</ele>
        <time>2012-02-19T08:22:36Z</time>
      </trkpt>
      <trkpt lat="44.59654" lon="0.68443">
        <ele>161</ele>
        <time>2012-02-19T08:22:37Z</time>
      </trkpt>
      <trkpt lat="44.59653" lon="0.68445">
        <ele>161</ele>
        <time>2012-02-19T08:22:38Z</time>
      </trkpt>
      <trkpt lat="44.59651" lon="0.68448">
        <ele>162</ele>
        <time>2012-02-19T08:22:39Z</time>
      </trkpt>
      <trkpt lat="44.59651" lon="0.68453">
        <ele>162</ele>
        <time>2012-02-19T08:22:40Z</time>
      </trkpt>
      <trkpt lat="44.5965" lon="0.68457">
        <ele>162</ele>
        <time>2012-02-19T08:22:41Z</time>
      </trkpt>
      <trkpt lat="44.59648" lon="0.6846">
        <ele>163</ele>
        <time>2012-02-19T08:22:42Z</time>
      </trkpt>
      <trkpt lat="44.59648" lon="0.68464">
        <ele>163</ele>
        <time>2012-02-19T08:22:43Z</time>
      </trkpt>
      <trkpt lat="44.59647" lon="0.68469">
        <ele>164</ele>
        <time>2012-02-19T08:22:44Z</time>
      </trkpt>
      <trkpt lat="44.59646" lon="0.68475">
        <ele>164</ele>
        <time>2012-02-19T08:22:45Z</time>
      </trkpt>
      <trkpt lat="44.59645" lon="0.6848">
        <ele>165</ele>
        <time>2012-02-19T08:22:46Z</time>
      </trkpt>
      <trkpt lat="44.59644" lon="0.68485">
        <ele>165</ele>
        <time>2012-02-19T08:22:47Z</time>
      </trkpt>
      <trkpt lat="44.59643" lon="0.6849">
        <ele>166</ele>
        <time>2012-02-19T08:22:48Z</time>
      </trkpt>
      <trkpt lat="44.59642" lon="0.68495">
        <ele>166</ele>
        <time>2012-02-19T08:22:49Z</time>
      </trkpt>
      <trkpt lat="44.59641" lon="0.68501">
        <ele>167</ele>
        <time>2012-02-19T08:22:50Z</time>
      </trkpt>
      <trkpt lat="44.59639" lon="0.68505">
        <ele>168</ele>
        <time>2012-02-19T08:22:51Z</time>
      </trkpt>
      <trkpt lat="44.59637" lon="0.6851">
        <ele>168</ele>
        <time>2012-02-19T08:22:52Z</time>
      </trkpt>
      <trkpt lat="44.59635" lon="0.68515">
        <ele>168</ele>
        <time>2012-02-19T08:22:53Z</time>
      </trkpt>
      <trkpt lat="44.59633" lon="0.6852">
        <ele>168</ele>
        <time>2012-02-19T08:22:54Z</time>
      </trkpt>
      <trkpt lat="44.59632" lon="0.68524">
        <ele>168</ele>
        <time>2012-02-19T08:22:55Z</time>
      </trkpt>
      <trkpt lat="44.59631" lon="0.68528">
        <ele>168</ele>
        <time>2012-02-19T08:22:56Z</time>
      </trkpt>
      <trkpt lat="44.59631" lon="0.68532">
        <ele>168</ele>
        <time>2012-02-19T08:22:57Z</time>
      </trkpt>
      <trkpt lat="44.59631" lon="0.68535">
        <ele>168</ele>
        <time>2012-02-19T08:22:58Z</time>
      </trkpt>
      <trkpt lat="44.59633" lon="0.68538">
        <ele>168</ele>
        <time>2012-02-19T08:22:59Z</time>
      </trkpt>
      <trkpt lat="44.59635" lon="0.6854">
        <ele>168</ele>
        <time>2012-02-19T08:23:00Z</time>
      </trkpt>
      <trkpt lat="44.59637" lon="0.68542">
        <ele>168</ele>
        <time>2012-02-19T08:23:01Z</time>
      </trkpt>
      <trkpt lat="44.59641" lon="0.68546">
        <ele>168</ele>
        <time>2012-02-19T08:23:02Z</time>
      </trkpt>
      <trkpt lat="44.59645" lon="0.68549">
        <ele>168</ele>
        <time>2012-02-19T08:23:03Z</time>
      </trkpt>
      <trkpt lat="44.59648" lon="0.68552">
        <ele>168</ele>
        <time>2012-02-19T08:23:04Z</time>
      </trkpt>
      <trkpt lat="44.59651" lon="0.68555">
        <ele>168</ele>
        <time>2012-02-19T08:23:05Z</time>
      </trkpt>
      <trkpt lat="44.59655" lon="0.68559">
        <ele>168</ele>
        <time>2012-02-19T08:23:06Z</time>
      </trkpt>
      <trkpt lat="44.5966" lon="0.68562">
        <ele>168</ele>
        <time>2012-02-19T08:23:07Z</time>
      </trkpt>
      <trkpt lat="44.59665" lon="0.68565">
        <ele>168</ele>
        <time>2012-02-19T08:23:08Z</time>
      </trkpt>
      <trkpt lat="44.5967" lon="0.68568">
        <ele>167</ele>
        <time>2012-02-19T08:23:09Z</time>
      </trkpt>
      <trkpt lat="44.59674" lon="0.68572">
        <ele>166</ele>
        <time>2012-02-19T08:23:10Z</time>
      </trkpt>
      <trkpt lat="44.59679" lon="0.68575">
        <ele>165</ele>
        <time>2012-02-19T08:23:11Z</time>
      </trkpt>
      <trkpt lat="44.59684" lon="0.68579">
        <ele>164</ele>
        <time>2012-02-19T08:23:12Z</time>
      </trkpt>
      <trkpt lat="44.59689" lon="0.68584">
        <ele>163</ele>
        <time>2012-02-19T08:23:13Z</time>
      </trkpt>
      <trkpt lat="44.59694" lon="0.68588">
        <ele>162</ele>
        <time>2012-02-19T08:23:14Z</time>
      </trkpt>
      <trkpt lat="44.597" lon="0.68592">
        <ele>161</ele>
        <time>2012-02-19T08:23:15Z</time>
      </trkpt>
      <trkpt lat="44.59704" lon="0.68595">
        <ele>160</ele>
        <time>2012-02-19T08:23:16Z</time>
      </trkpt>
      <trkpt lat="44.59709" lon="0.68598">
        <ele>159</ele>
        <time>2012-02-19T08:23:17Z</time>
      </trkpt>
      <trkpt lat="44.59713" lon="0.68601">
        <ele>158</ele>
        <time>2012-02-19T08:23:18Z</time>
      </trkpt>
      <trkpt lat="44.59716" lon="0.68604">
        <ele>157</ele>
        <time>2012-02-19T08:23:19Z</time>
      </trkpt>
      <trkpt lat="44.59717" lon="0.68607">
        <ele>156</ele>
        <time>2012-02-19T08:23:20Z</time>
      </trkpt>
      <trkpt lat="44.59717" lon="0.68609">
        <ele>155</ele>
        <time>2012-02-19T08:23:21Z</time>
      </trkpt>
      <trkpt lat="44.59717" lon="0.68612">
        <ele>154</ele>
        <time>2012-02-19T08:23:22Z</time>
      </trkpt>
      <trkpt lat="44.59716" lon="0.68616">
        <ele>153</ele>
        <time>2012-02-19T08:23:23Z</time>
      </trkpt>
      <trkpt lat="44.59716" lon="0.68621">
        <ele>152</ele>
        <time>2012-02-19T08:23:24Z</time>
      </trkpt>
      <trkpt lat="44.59716" lon="0.68626">
        <ele>151</ele>
        <time>2012-02-19T08:23:25Z</time>
      </trkpt>
      <trkpt lat="44.59715" lon="0.68632">
        <ele>150</ele>
        <time>2012-02-19T08:23:26Z</time>
      </trkpt>
      <trkpt lat="44.59714" lon="0.68638">
        <ele>150</ele>
        <time>2012-02-19T08:23:27Z</time>
      </trkpt>
      <trkpt lat="44.59714" lon="0.68643">
        <ele>149</ele>
        <time>2012-02-19T08:23:28Z</time>
      </trkpt>
      <trkpt lat="44.59713" lon="0.68648">
        <ele>149</ele>
        <time>2012-02-19T08:23:29Z</time>
      </trkpt>
      <trkpt lat="44.59711" lon="0.68655">
        <ele>148</ele>
        <time>2012-02-19T08:23:30Z</time>
      </trkpt>
      <trkpt lat="44.59709" lon="0.68661">
        <ele>148</ele>
        <time>2012-02-19T08:23:31Z</time>
      </trkpt>
      <trkpt lat="44.59708" lon="0.68665">
        <ele>148</ele>
        <time>2012-02-19T08:23:32Z</time>
      </trkpt>
      <trkpt lat="44.59707" lon="0.68671">
        <ele>148</ele>
        <time>2012-02-19T08:23:33Z</time>
      </trkpt>
      <trkpt lat="44.59707" lon="0.68676">
        <ele>148</ele>
        <time>2012-02-19T08:23:34Z</time>
      </trkpt>
      <trkpt lat="44.59708" lon="0.68681">
        <ele>148</ele>
        <time>2012-02-19T08:23:35Z</time>
      </trkpt>
      <trkpt lat="44.59708" lon="0.68687">
        <ele>148</ele>
        <time>2012-02-19T08:23:36Z</time>
      </trkpt>
      <trkpt lat="44.59709" lon="0.68692">
        <ele>148</ele>
        <time>2012-02-19T08:23:37Z</time>
      </trkpt>
      <trkpt lat="44.5971" lon="0.68696">
        <ele>148</ele>
        <time>2012-02-19T08:23:38Z</time>
      </trkpt>
      <trkpt lat="44.59711" lon="0.687">
        <ele>148</ele>
        <time>2012-02-19T08:23:39Z</time>
      </trkpt>
      <trkpt lat="44.59713" lon="0.68705">
        <ele>148</ele>
        <time>2012-02-19T08:23:40Z</time>
      </trkpt>
      <trkpt lat="44.59715" lon="0.68709">
        <ele>148</ele>
        <time>2012-02-19T08:23:41Z</time>
      </trkpt>
      <trkpt lat="44.59717" lon="0.68713">
        <ele>148</ele>
        <time>2012-02-19T08:23:42Z</time>
      </trkpt>
      <trkpt lat="44.59719" lon="0.68717">
        <ele>148</ele>
        <time>2012-02-19T08:23:43Z</time>
      </trkpt>
      <trkpt lat="44.59722" lon="0.68721">
        <ele>148</ele>
        <time>2012-02-19T08:23:44Z</time>
      </trkpt>
      <trkpt lat="44.59724" lon="0.68725">
        <ele>148</ele>
        <time>2012-02-19T08:23:45Z</time>
      </trkpt>
      <trkpt lat="44.59726" lon="0.68728">
        <ele>147</ele>
        <time>2012-02-19T08:23:46Z</time>
      </trkpt>
      <trkpt lat="44.59729" lon="0.68733">
        <ele>147</ele>
        <time>2012-02-19T08:23:47Z</time>
      </trkpt>
      <trkpt lat="44.59731" lon="0.68737">
        <ele>147</ele>
        <time>2012-02-19T08:23:48Z</time>
      </trkpt>
      <trkpt lat="44.59734" lon="0.68741">
        <ele>147</ele>
        <time>2012-02-19T08:23:49Z</time>
      </trkpt>
      <trkpt lat="44.59736" lon="0.68746">
        <ele>147</ele>
        <time>2012-02-19T08:23:50Z</time>
      </trkpt>
      <trkpt lat="44.59738" lon="0.6875">
        <ele>147</ele>
        <time>2012-02-19T08:23:51Z</time>
      </trkpt>
      <trkpt lat="44.5974" lon="0.68754">
        <ele>147</ele>
        <time>2012-02-19T08:23:52Z</time>
      </trkpt>
      <trkpt lat="44.59743" lon="0.68758">
        <ele>147</ele>
        <time>2012-02-19T08:23:53Z</time>
      </trkpt>
      <trkpt lat="44.59745" lon="0.68761">
        <ele>147</ele>
        <time>2012-02-19T08:23:54Z</time>
      </trkpt>
      <trkpt lat="44.59747" lon="0.68765">
        <ele>146</ele>
        <time>2012-02-19T08:23:55Z</time>
      </trkpt>
      <trkpt lat="44.59749" lon="0.68769">
        <ele>146</ele>
        <time>2012-02-19T08:23:56Z</time>
      </trkpt>
      <trkpt lat="44.59752" lon="0.68773">
        <ele>146</ele>
        <time>2012-02-19T08:23:57Z</time>
      </trkpt>
      <trkpt lat="44.59755" lon="0.6878">
        <ele>146</ele>
        <time>2012-02-19T08:23:58Z</time>
      </trkpt>
      <trkpt lat="44.59758" lon="0.68786">
        <ele>146</ele>
        <time>2012-02-19T08:23:59Z</time>
      </trkpt>
      <trkpt lat="44.59761" lon="0.6879">
        <ele>146</ele>
        <time>2012-02-19T08:24:00Z</time>
      </trkpt>
      <trkpt lat="44.59763" lon="0.68794">
        <ele>146</ele>
        <time>2012-02-19T08:24:01Z</time>
      </trkpt>
      <trkpt lat="44.59764" lon="0.68798">
        <ele>146</ele>
        <time>2012-02-19T08:24:02Z</time>
      </trkpt>
      <trkpt lat="44.59766" lon="0.68803">
        <ele>146</ele>
        <time>2012-02-19T08:24:03Z</time>
      </trkpt>
      <trkpt lat="44.59768" lon="0.68807">
        <ele>146</ele>
        <time>2012-02-19T08:24:04Z</time>
      </trkpt>
      <trkpt lat="44.5977" lon="0.68812">
        <ele>146</ele>
        <time>2012-02-19T08:24:05Z</time>
      </trkpt>
      <trkpt lat="44.59772" lon="0.68817">
        <ele>146</ele>
        <time>2012-02-19T08:24:06Z</time>
      </trkpt>
      <trkpt lat="44.59774" lon="0.68822">
        <ele>146</ele>
        <time>2012-02-19T08:24:07Z</time>
      </trkpt>
      <trkpt lat="44.59776" lon="0.68827">
        <ele>146</ele>
        <time>2012-02-19T08:24:08Z</time>
      </trkpt>
      <trkpt lat="44.59778" lon="0.68833">
        <ele>146</ele>
        <time>2012-02-19T08:24:09Z</time>
      </trkpt>
      <trkpt lat="44.5978" lon="0.68838">
        <ele>146</ele>
        <time>2012-02-19T08:24:10Z</time>
      </trkpt>
      <trkpt lat="44.59782" lon="0.68844">
        <ele>146</ele>
        <time>2012-02-19T08:24:11Z</time>
      </trkpt>
      <trkpt lat="44.59784" lon="0.6885">
        <ele>146</ele>
        <time>2012-02-19T08:24:12Z</time>
      </trkpt>
      <trkpt lat="44.59786" lon="0.68856">
        <ele>146</ele>
        <time>2012-02-19T08:24:13Z</time>
      </trkpt>
      <trkpt lat="44.59788" lon="0.68862">
        <ele>146</ele>
        <time>2012-02-19T08:24:14Z</time>
      </trkpt>
      <trkpt lat="44.5979" lon="0.68868">
        <ele>146</ele>
        <time>2012-02-19T08:24:15Z</time>
      </trkpt>
      <trkpt lat="44.59792" lon="0.68874">
        <ele>145</ele>
        <time>2012-02-19T08:24:16Z</time>
      </trkpt>
      <trkpt lat="44.59794" lon="0.6888">
        <ele>145</ele>
        <time>2012-02-19T08:24:17Z</time>
      </trkpt>
      <trkpt lat="44.59796" lon="0.68886">
        <ele>145</ele>
        <time>2012-02-19T08:24:18Z</time>
      </trkpt>
      <trkpt lat="44.59798" lon="0.68892">
        <ele>145</ele>
        <time>2012-02-19T08:24:19Z</time>
      </trkpt>
      <trkpt lat="44.598" lon="0.68898">
        <ele>145</ele>
        <time>2012-02-19T08:24:20Z</time>
      </trkpt>
      <trkpt lat="44.59802" lon="0.68904">
        <ele>145</ele>
        <time>2012-02-19T08:24:21Z</time>
      </trkpt>
      <trkpt lat="44.59804" lon="0.68911">
        <ele>145</ele>
        <time>2012-02-19T08:24:22Z</time>
      </trkpt>
      <trkpt lat="44.59806" lon="0.68917">
        <ele>145</ele>
        <time>2012-02-19T08:24:23Z</time>
      </trkpt>
      <trkpt lat="44.59809" lon="0.68923">
        <ele>145</ele>
        <time>2012-02-19T08:24:24Z</time>
      </trkpt>
      <trkpt lat="44.59811" lon="0.6893">
        <ele>145</ele>
        <time>2012-02-19T08:24:25Z</time>
      </trkpt>
      <trkpt lat="44.59813" lon="0.68936">
        <ele>145</ele>
        <time>2012-02-19T08:24:26Z</time>
      </trkpt>
      <trkpt lat="44.59816" lon="0.68942">
        <ele>145</ele>
        <time>2012-02-19T08:24:27Z</time>
      </trkpt>
      <trkpt lat="44.59819" lon="0.68948">
        <ele>144</ele>
        <time>2012-02-19T08:24:28Z</time>
      </trkpt>
      <trkpt lat="44.59822" lon="0.68953">
        <ele>144</ele>
        <time>2012-02-19T08:24:29Z</time>
      </trkpt>
      <trkpt lat="44.59824" lon="0.68959">
        <ele>144</ele>
        <time>2012-02-19T08:24:30Z</time>
      </trkpt>
      <trkpt lat="44.59824" lon="0.68967">
        <ele>144</ele>
        <time>2012-02-19T08:24:31Z</time>
      </trkpt>
      <trkpt lat="44.59823" lon="0.68974">
        <ele>143</ele>
        <time>2012-02-19T08:24:32Z</time>
      </trkpt>
      <trkpt lat="44.59822" lon="0.68981">
        <ele>143</ele>
        <time>2012-02-19T08:24:33Z</time>
      </trkpt>
      <trkpt lat="44.5982" lon="0.68987">
        <ele>143</ele>
        <time>2012-02-19T08:24:34Z</time>
      </trkpt>
      <trkpt lat="44.59818" lon="0.68994">
        <ele>142</ele>
        <time>2012-02-19T08:24:35Z</time>
      </trkpt>
      <trkpt lat="44.59815" lon="0.69">
        <ele>142</ele>
        <time>2012-02-19T08:24:36Z</time>
      </trkpt>
      <trkpt lat="44.59812" lon="0.69006">
        <ele>141</ele>
        <time>2012-02-19T08:24:37Z</time>
      </trkpt>
      <trkpt lat="44.59809" lon="0.69012">
        <ele>141</ele>
        <time>2012-02-19T08:24:38Z</time>
      </trkpt>
      <trkpt lat="44.59807" lon="0.69018">
        <ele>141</ele>
        <time>2012-02-19T08:24:39Z</time>
      </trkpt>
      <trkpt lat="44.59804" lon="0.69024">
        <ele>141</ele>
        <time>2012-02-19T08:24:40Z</time>
      </trkpt>
      <trkpt lat="44.59801" lon="0.69029">
        <ele>141</ele>
        <time>2012-02-19T08:24:41Z</time>
      </trkpt>
      <trkpt lat="44.59798" lon="0.69034">
        <ele>141</ele>
        <time>2012-02-19T08:24:42Z</time>
      </trkpt>
      <trkpt lat="44.59795" lon="0.69039">
        <ele>141</ele>
        <time>2012-02-19T08:24:43Z</time>
      </trkpt>
      <trkpt lat="44.59793" lon="0.69045">
        <ele>141</ele>
        <time>2012-02-19T08:24:44Z</time>
      </trkpt>
      <trkpt lat="44.5979" lon="0.6905">
        <ele>141</ele>
        <time>2012-02-19T08:24:45Z</time>
      </trkpt>
      <trkpt lat="44.59788" lon="0.69054">
        <ele>141</ele>
        <time>2012-02-19T08:24:46Z</time>
      </trkpt>
      <trkpt lat="44.59785" lon="0.69059">
        <ele>141</ele>
        <time>2012-02-19T08:24:47Z</time>
      </trkpt>
      <trkpt lat="44.59782" lon="0.69064">
        <ele>141</ele>
        <time>2012-02-19T08:24:48Z</time>
      </trkpt>
      <trkpt lat="44.59779" lon="0.69069">
        <ele>141</ele>
        <time>2012-02-19T08:24:49Z</time>
      </trkpt>
      <trkpt lat="44.59777" lon="0.69075">
        <ele>141</ele>
        <time>2012-02-19T08:24:50Z</time>
      </trkpt>
      <trkpt lat="44.59775" lon="0.6908">
        <ele>141</ele>
        <time>2012-02-19T08:24:51Z</time>
      </trkpt>
      <trkpt lat="44.59772" lon="0.69085">
        <ele>141</ele>
        <time>2012-02-19T08:24:52Z</time>
      </trkpt>
      <trkpt lat="44.5977" lon="0.69089">
        <ele>141</ele>
        <time>2012-02-19T08:24:53Z</time>
      </trkpt>
      <trkpt lat="44.59768" lon="0.69093">
        <ele>141</ele>
        <time>2012-02-19T08:24:54Z</time>
      </trkpt>
      <trkpt lat="44.59766" lon="0.69097">
        <ele>141</ele>
        <time>2012-02-19T08:24:55Z</time>
      </trkpt>
      <trkpt lat="44.59763" lon="0.69102">
        <ele>141</ele>
        <time>2012-02-19T08:24:56Z</time>
      </trkpt>
      <trkpt lat="44.59762" lon="0.69106">
        <ele>141</ele>
        <time>2012-02-19T08:24:57Z</time>
      </trkpt>
      <trkpt lat="44.5976" lon="0.6911">
        <ele>141</ele>
        <time>2012-02-19T08:24:58Z</time>
      </trkpt>
      <trkpt lat="44.59756" lon="0.69113">
        <ele>140</ele>
        <time>2012-02-19T08:25:00Z</time>
      </trkpt>
      <trkpt lat="44.59754" lon="0.69116">
        <ele>140</ele>
        <time>2012-02-19T08:25:00Z</time>
      </trkpt>
      <trkpt lat="44.59752" lon="0.6912">
        <ele>140</ele>
        <time>2012-02-19T08:25:01Z</time>
      </trkpt>
      <trkpt lat="44.5975" lon="0.69125">
        <ele>140</ele>
        <time>2012-02-19T08:25:02Z</time>
      </trkpt>
      <trkpt lat="44.59748" lon="0.69129">
        <ele>139</ele>
        <time>2012-02-19T08:25:03Z</time>
      </trkpt>
      <trkpt lat="44.59746" lon="0.69133">
        <ele>139</ele>
        <time>2012-02-19T08:25:04Z</time>
      </trkpt>
      <trkpt lat="44.59744" lon="0.69137">
        <ele>139</ele>
        <time>2012-02-19T08:25:05Z</time>
      </trkpt>
      <trkpt lat="44.59742" lon="0.6914">
        <ele>139</ele>
        <time>2012-02-19T08:25:06Z</time>
      </trkpt>
      <trkpt lat="44.5974" lon="0.69144">
        <ele>139</ele>
        <time>2012-02-19T08:25:07Z</time>
      </trkpt>
      <trkpt lat="44.59738" lon="0.69148">
        <ele>139</ele>
        <time>2012-02-19T08:25:08Z</time>
      </trkpt>
      <trkpt lat="44.59736" lon="0.69151">
        <ele>139</ele>
        <time>2012-02-19T08:25:09Z</time>
      </trkpt>
      <trkpt lat="44.59734" lon="0.69154">
        <ele>138</ele>
        <time>2012-02-19T08:25:10Z</time>
      </trkpt>
      <trkpt lat="44.59733" lon="0.69157">
        <ele>138</ele>
        <time>2012-02-19T08:25:11Z</time>
      </trkpt>
      <trkpt lat="44.59731" lon="0.6916">
        <ele>138</ele>
        <time>2012-02-19T08:25:12Z</time>
      </trkpt>
      <trkpt lat="44.59729" lon="0.69162">
        <ele>138</ele>
        <time>2012-02-19T08:25:13Z</time>
      </trkpt>
      <trkpt lat="44.59726" lon="0.69165">
        <ele>137</ele>
        <time>2012-02-19T08:25:14Z</time>
      </trkpt>
      <trkpt lat="44.59724" lon="0.69169">
        <ele>137</ele>
        <time>2012-02-19T08:25:15Z</time>
      </trkpt>
      <trkpt lat="44.59722" lon="0.69174">
        <ele>137</ele>
        <time>2012-02-19T08:25:16Z</time>
      </trkpt>
      <trkpt lat="44.5972" lon="0.69178">
        <ele>137</ele>
        <time>2012-02-19T08:25:17Z</time>
      </trkpt>
      <trkpt lat="44.59718" lon="0.69181">
        <ele>136</ele>
        <time>2012-02-19T08:25:18Z</time>
      </trkpt>
      <trkpt lat="44.59716" lon="0.69184">
        <ele>136</ele>
        <time>2012-02-19T08:25:19Z</time>
      </trkpt>
      <trkpt lat="44.59714" lon="0.69188">
        <ele>136</ele>
        <time>2012-02-19T08:25:20Z</time>
      </trkpt>
      <trkpt lat="44.59712" lon="0.69193">
        <ele>136</ele>
        <time>2012-02-19T08:25:21Z</time>
      </trkpt>
      <trkpt lat="44.59709" lon="0.69198">
        <ele>136</ele>
        <time>2012-02-19T08:25:22Z</time>
      </trkpt>
      <trkpt lat="44.59706" lon="0.69203">
        <ele>136</ele>
        <time>2012-02-19T08:25:23Z</time>
      </trkpt>
      <trkpt lat="44.59704" lon="0.69207">
        <ele>136</ele>
        <time>2012-02-19T08:25:24Z</time>
      </trkpt>
      <trkpt lat="44.59701" lon="0.69212">
        <ele>136</ele>
        <time>2012-02-19T08:25:25Z</time>
      </trkpt>
      <trkpt lat="44.59697" lon="0.69217">
        <ele>135</ele>
        <time>2012-02-19T08:25:26Z</time>
      </trkpt>
      <trkpt lat="44.59695" lon="0.69222">
        <ele>135</ele>
        <time>2012-02-19T08:25:27Z</time>
      </trkpt>
      <trkpt lat="44.59693" lon="0.69225">
        <ele>135</ele>
        <time>2012-02-19T08:25:28Z</time>
      </trkpt>
      <trkpt lat="44.5969" lon="0.69229">
        <ele>135</ele>
        <time>2012-02-19T08:25:29Z</time>
      </trkpt>
      <trkpt lat="44.59687" lon="0.69234">
        <ele>135</ele>
        <time>2012-02-19T08:25:30Z</time>
      </trkpt>
      <trkpt lat="44.59685" lon="0.69239">
        <ele>135</ele>
        <time>2012-02-19T08:25:31Z</time>
      </trkpt>
      <trkpt lat="44.59682" lon="0.69243">
        <ele>135</ele>
        <time>2012-02-19T08:25:32Z</time>
      </trkpt>
      <trkpt lat="44.59679" lon="0.69247">
        <ele>135</ele>
        <time>2012-02-19T08:25:33Z</time>
      </trkpt>
      <trkpt lat="44.59677" lon="0.69252">
        <ele>135</ele>
        <time>2012-02-19T08:25:34Z</time>
      </trkpt>
      <trkpt lat="44.59674" lon="0.69257">
        <ele>135</ele>
        <time>2012-02-19T08:25:35Z</time>
      </trkpt>
      <trkpt lat="44.59671" lon="0.69262">
        <ele>135</ele>
        <time>2012-02-19T08:25:36Z</time>
      </trkpt>
      <trkpt lat="44.59668" lon="0.69266">
        <ele>134</ele>
        <time>2012-02-19T08:25:37Z</time>
      </trkpt>
      <trkpt lat="44.59665" lon="0.69271">
        <ele>134</ele>
        <time>2012-02-19T08:25:38Z</time>
      </trkpt>
      <trkpt lat="44.59662" lon="0.69276">
        <ele>133</ele>
        <time>2012-02-19T08:25:39Z</time>
      </trkpt>
      <trkpt lat="44.5966" lon="0.6928">
        <ele>133</ele>
        <time>2012-02-19T08:25:40Z</time>
      </trkpt>
      <trkpt lat="44.59657" lon="0.69284">
        <ele>133</ele>
        <time>2012-02-19T08:25:41Z</time>
      </trkpt>
      <trkpt lat="44.59654" lon="0.69289">
        <ele>133</ele>
        <time>2012-02-19T08:25:42Z</time>
      </trkpt>
      <trkpt lat="44.5965" lon="0.69294">
        <ele>133</ele>
        <time>2012-02-19T08:25:43Z</time>
      </trkpt>
      <trkpt lat="44.59647" lon="0.69298">
        <ele>133</ele>
        <time>2012-02-19T08:25:44Z</time>
      </trkpt>
      <trkpt lat="44.59644" lon="0.69303">
        <ele>133</ele>
        <time>2012-02-19T08:25:45Z</time>
      </trkpt>
      <trkpt lat="44.59641" lon="0.69308">
        <ele>133</ele>
        <time>2012-02-19T08:25:46Z</time>
      </trkpt>
      <trkpt lat="44.59638" lon="0.69313">
        <ele>133</ele>
        <time>2012-02-19T08:25:47Z</time>
      </trkpt>
      <trkpt lat="44.59636" lon="0.69317">
        <ele>133</ele>
        <time>2012-02-19T08:25:48Z</time>
      </trkpt>
      <trkpt lat="44.59632" lon="0.69322">
        <ele>133</ele>
        <time>2012-02-19T08:25:49Z</time>
      </trkpt>
      <trkpt lat="44.59629" lon="0.69327">
        <ele>133</ele>
        <time>2012-02-19T08:25:50Z</time>
      </trkpt>
      <trkpt lat="44.59626" lon="0.69331">
        <ele>133</ele>
        <time>2012-02-19T08:25:51Z</time>
      </trkpt>
      <trkpt lat="44.59623" lon="0.69336">
        <ele>133</ele>
        <time>2012-02-19T08:25:52Z</time>
      </trkpt>
      <trkpt lat="44.5962" lon="0.6934">
        <ele>133</ele>
        <time>2012-02-19T08:25:53Z</time>
      </trkpt>
      <trkpt lat="44.59617" lon="0.69345">
        <ele>133</ele>
        <time>2012-02-19T08:25:54Z</time>
      </trkpt>
      <trkpt lat="44.59614" lon="0.69349">
        <ele>133</ele>
        <time>2012-02-19T08:25:55Z</time>
      </trkpt>
      <trkpt lat="44.59611" lon="0.69354">
        <ele>133</ele>
        <time>2012-02-19T08:25:56Z</time>
      </trkpt>
      <trkpt lat="44.59608" lon="0.69359">
        <ele>133</ele>
        <time>2012-02-19T08:25:57Z</time>
      </trkpt>
      <trkpt lat="44.59605" lon="0.69363">
        <ele>132</ele>
        <time>2012-02-19T08:25:58Z</time>
      </trkpt>
      <trkpt lat="44.59602" lon="0.69367">
        <ele>132</ele>
        <time>2012-02-19T08:25:59Z</time>
      </trkpt>
      <trkpt lat="44.59601" lon="0.69369">
        <ele>131</ele>
        <time>2012-02-19T08:26:00Z</time>
      </trkpt>
      <trkpt lat="44.596" lon="0.69373">
        <ele>131</ele>
        <time>2012-02-19T08:26:01Z</time>
      </trkpt>
      <trkpt lat="44.59599" lon="0.69377">
        <ele>131</ele>
        <time>2012-02-19T08:26:02Z</time>
      </trkpt>
      <trkpt lat="44.59601" lon="0.69379">
        <ele>131</ele>
        <time>2012-02-19T08:26:03Z</time>
      </trkpt>
      <trkpt lat="44.59603" lon="0.69381">
        <ele>131</ele>
        <time>2012-02-19T08:26:04Z</time>
      </trkpt>
      <trkpt lat="44.59605" lon="0.69383">
        <ele>131</ele>
        <time>2012-02-19T08:26:05Z</time>
      </trkpt>
      <trkpt lat="44.59608" lon="0.69385">
        <ele>131</ele>
        <time>2012-02-19T08:26:06Z</time>
      </trkpt>
      <trkpt lat="44.59611" lon="0.69388">
        <ele>131</ele>
        <time>2012-02-19T08:26:07Z</time>
      </trkpt>
      <trkpt lat="44.59614" lon="0.69391">
        <ele>131</ele>
        <time>2012-02-19T08:26:08Z</time>
      </trkpt>
      <trkpt lat="44.59617" lon="0.69394">
        <ele>131</ele>
        <time>2012-02-19T08:26:09Z</time>
      </trkpt>
      <trkpt lat="44.5962" lon="0.69398">
        <ele>131</ele>
        <time>2012-02-19T08:26:10Z</time>
      </trkpt>
      <trkpt lat="44.59624" lon="0.69402">
        <ele>131</ele>
        <time>2012-02-19T08:26:11Z</time>
      </trkpt>
      <trkpt lat="44.59628" lon="0.69406">
        <ele>131</ele>
        <time>2012-02-19T08:26:12Z</time>
      </trkpt>
      <trkpt lat="44.59632" lon="0.6941">
        <ele>131</ele>
        <time>2012-02-19T08:26:13Z</time>
      </trkpt>
      <trkpt lat="44.59636" lon="0.69414">
        <ele>131</ele>
        <time>2012-02-19T08:26:14Z</time>
      </trkpt>
      <trkpt lat="44.59639" lon="0.69419">
        <ele>131</ele>
        <time>2012-02-19T08:26:15Z</time>
      </trkpt>
      <trkpt lat="44.59643" lon="0.69423">
        <ele>131</ele>
        <time>2012-02-19T08:26:16Z</time>
      </trkpt>
      <trkpt lat="44.59647" lon="0.69428">
        <ele>131</ele>
        <time>2012-02-19T08:26:17Z</time>
      </trkpt>
      <trkpt lat="44.59651" lon="0.69433">
        <ele>131</ele>
        <time>2012-02-19T08:26:18Z</time>
      </trkpt>
      <trkpt lat="44.59655" lon="0.69439">
        <ele>131</ele>
        <time>2012-02-19T08:26:19Z</time>
      </trkpt>
      <trkpt lat="44.59659" lon="0.69443">
        <ele>131</ele>
        <time>2012-02-19T08:26:20Z</time>
      </trkpt>
      <trkpt lat="44.59663" lon="0.69448">
        <ele>131</ele>
        <time>2012-02-19T08:26:21Z</time>
      </trkpt>
      <trkpt lat="44.59667" lon="0.69452">
        <ele>131</ele>
        <time>2012-02-19T08:26:22Z</time>
      </trkpt>
      <trkpt lat="44.59671" lon="0.69456">
        <ele>131</ele>
        <time>2012-02-19T08:26:23Z</time>
      </trkpt>
      <trkpt lat="44.59675" lon="0.69461">
        <ele>131</ele>
        <time>2012-02-19T08:26:24Z</time>
      </trkpt>
      <trkpt lat="44.59679" lon="0.69466">
        <ele>131</ele>
        <time>2012-02-19T08:26:25Z</time>
      </trkpt>
      <trkpt lat="44.59683" lon="0.69471">
        <ele>130</ele>
        <time>2012-02-19T08:26:26Z</time>
      </trkpt>
      <trkpt lat="44.59687" lon="0.69476">
        <ele>130</ele>
        <time>2012-02-19T08:26:27Z</time>
      </trkpt>
      <trkpt lat="44.59692" lon="0.69481">
        <ele>130</ele>
        <time>2012-02-19T08:26:28Z</time>
      </trkpt>
      <trkpt lat="44.59696" lon="0.69486">
        <ele>130</ele>
        <time>2012-02-19T08:26:29Z</time>
      </trkpt>
      <trkpt lat="44.597" lon="0.69491">
        <ele>129</ele>
        <time>2012-02-19T08:26:30Z</time>
      </trkpt>
      <trkpt lat="44.59704" lon="0.69496">
        <ele>129</ele>
        <time>2012-02-19T08:26:31Z</time>
      </trkpt>
      <trkpt lat="44.59708" lon="0.69502">
        <ele>129</ele>
        <time>2012-02-19T08:26:32Z</time>
      </trkpt>
      <trkpt lat="44.59712" lon="0.69508">
        <ele>129</ele>
        <time>2012-02-19T08:26:33Z</time>
      </trkpt>
      <trkpt lat="44.59715" lon="0.69514">
        <ele>129</ele>
        <time>2012-02-19T08:26:34Z</time>
      </trkpt>
      <trkpt lat="44.59716" lon="0.69522">
        <ele>129</ele>
        <time>2012-02-19T08:26:35Z</time>
      </trkpt>
      <trkpt lat="44.59718" lon="0.6953">
        <ele>129</ele>
        <time>2012-02-19T08:26:36Z</time>
      </trkpt>
      <trkpt lat="44.59718" lon="0.69538">
        <ele>129</ele>
        <time>2012-02-19T08:26:37Z</time>
      </trkpt>
      <trkpt lat="44.59717" lon="0.69546">
        <ele>129</ele>
        <time>2012-02-19T08:26:38Z</time>
      </trkpt>
      <trkpt lat="44.59716" lon="0.69553">
        <ele>129</ele>
        <time>2012-02-19T08:26:39Z</time>
      </trkpt>
      <trkpt lat="44.59713" lon="0.6956">
        <ele>129</ele>
        <time>2012-02-19T08:26:40Z</time>
      </trkpt>
      <trkpt lat="44.59711" lon="0.69567">
        <ele>129</ele>
        <time>2012-02-19T08:26:41Z</time>
      </trkpt>
      <trkpt lat="44.59708" lon="0.69572">
        <ele>129</ele>
        <time>2012-02-19T08:26:42Z</time>
      </trkpt>
      <trkpt lat="44.59705" lon="0.69577">
        <ele>129</ele>
        <time>2012-02-19T08:26:43Z</time>
      </trkpt>
      <trkpt lat="44.59702" lon="0.69583">
        <ele>129</ele>
        <time>2012-02-19T08:26:44Z</time>
      </trkpt>
      <trkpt lat="44.59698" lon="0.69588">
        <ele>129</ele>
        <time>2012-02-19T08:26:45Z</time>
      </trkpt>
      <trkpt lat="44.59695" lon="0.69593">
        <ele>129</ele>
        <time>2012-02-19T08:26:46Z</time>
      </trkpt>
      <trkpt lat="44.59691" lon="0.69598">
        <ele>129</ele>
        <time>2012-02-19T08:26:47Z</time>
      </trkpt>
      <trkpt lat="44.59689" lon="0.69605">
        <ele>129</ele>
        <time>2012-02-19T08:26:48Z</time>
      </trkpt>
      <trkpt lat="44.59688" lon="0.69613">
        <ele>129</ele>
        <time>2012-02-19T08:26:49Z</time>
      </trkpt>
      <trkpt lat="44.59689" lon="0.69622">
        <ele>130</ele>
        <time>2012-02-19T08:26:50Z</time>
      </trkpt>
      <trkpt lat="44.5969" lon="0.69629">
        <ele>130</ele>
        <time>2012-02-19T08:26:51Z</time>
      </trkpt>
      <trkpt lat="44.59693" lon="0.69635">
        <ele>131</ele>
        <time>2012-02-19T08:26:52Z</time>
      </trkpt>
      <trkpt lat="44.59696" lon="0.69642">
        <ele>131</ele>
        <time>2012-02-19T08:26:53Z</time>
      </trkpt>
      <trkpt lat="44.597" lon="0.69647">
        <ele>132</ele>
        <time>2012-02-19T08:26:54Z</time>
      </trkpt>
      <trkpt lat="44.59705" lon="0.69651">
        <ele>132</ele>
        <time>2012-02-19T08:26:55Z</time>
      </trkpt>
      <trkpt lat="44.59709" lon="0.69655">
        <ele>133</ele>
        <time>2012-02-19T08:26:56Z</time>
      </trkpt>
      <trkpt lat="44.59714" lon="0.69658">
        <ele>133</ele>
        <time>2012-02-19T08:26:57Z</time>
      </trkpt>
      <trkpt lat="44.59719" lon="0.69661">
        <ele>133</ele>
        <time>2012-02-19T08:26:58Z</time>
      </trkpt>
      <trkpt lat="44.59724" lon="0.69665">
        <ele>133</ele>
        <time>2012-02-19T08:26:59Z</time>
      </trkpt>
      <trkpt lat="44.59729" lon="0.69668">
        <ele>134</ele>
        <time>2012-02-19T08:27:00Z</time>
      </trkpt>
      <trkpt lat="44.59735" lon="0.69671">
        <ele>134</ele>
        <time>2012-02-19T08:27:01Z</time>
      </trkpt>
      <trkpt lat="44.5974" lon="0.69674">
        <ele>134</ele>
        <time>2012-02-19T08:27:02Z</time>
      </trkpt>
      <trkpt lat="44.59746" lon="0.69677">
        <ele>134</ele>
        <time>2012-02-19T08:27:03Z</time>
      </trkpt>
      <trkpt lat="44.59752" lon="0.6968">
        <ele>134</ele>
        <time>2012-02-19T08:27:04Z</time>
      </trkpt>
      <trkpt lat="44.59758" lon="0.69683">
        <ele>135</ele>
        <time>2012-02-19T08:27:05Z</time>
      </trkpt>
      <trkpt lat="44.59764" lon="0.69686">
        <ele>135</ele>
        <time>2012-02-19T08:27:06Z</time>
      </trkpt>
      <trkpt lat="44.5977" lon="0.69688">
        <ele>135</ele>
        <time>2012-02-19T08:27:07Z</time>
      </trkpt>
      <trkpt lat="44.59776" lon="0.69691">
        <ele>135</ele>
        <time>2012-02-19T08:27:08Z</time>
      </trkpt>
      <trkpt lat="44.59781" lon="0.69694">
        <ele>135</ele>
        <time>2012-02-19T08:27:09Z</time>
      </trkpt>
      <trkpt lat="44.59787" lon="0.69696">
        <ele>135</ele>
        <time>2012-02-19T08:27:10Z</time>
      </trkpt>
      <trkpt lat="44.59793" lon="0.69699">
        <ele>135</ele>
        <time>2012-02-19T08:27:11Z</time>
      </trkpt>
      <trkpt lat="44.59798" lon="0.69702">
        <ele>135</ele>
        <time>2012-02-19T08:27:12Z</time>
      </trkpt>
      <trkpt lat="44.59804" lon="0.69705">
        <ele>135</ele>
        <time>2012-02-19T08:27:13Z</time>
      </trkpt>
      <trkpt lat="44.59809" lon="0.69708">
        <ele>135</ele>
        <time>2012-02-19T08:27:14Z</time>
      </trkpt>
      <trkpt lat="44.59814" lon="0.69711">
        <ele>136</ele>
        <time>2012-02-19T08:27:15Z</time>
      </trkpt>
      <trkpt lat="44.59819" lon="0.69715">
        <ele>136</ele>
        <time>2012-02-19T08:27:16Z</time>
      </trkpt>
      <trkpt lat="44.59823" lon="0.69719">
        <ele>136</ele>
        <time>2012-02-19T08:27:17Z</time>
      </trkpt>
      <trkpt lat="44.59827" lon="0.69724">
        <ele>136</ele>
        <time>2012-02-19T08:27:18Z</time>
      </trkpt>
      <trkpt lat="44.59831" lon="0.69728">
        <ele>136</ele>
        <time>2012-02-19T08:27:19Z</time>
      </trkpt>
      <trkpt lat="44.59834" lon="0.69733">
        <ele>136</ele>
        <time>2012-02-19T08:27:20Z</time>
      </trkpt>
      <trkpt lat="44.59837" lon="0.69737">
        <ele>136</ele>
        <time>2012-02-19T08:27:21Z</time>
      </trkpt>
      <trkpt lat="44.5984" lon="0.69742">
        <ele>136</ele>
        <time>2012-02-19T08:27:22Z</time>
      </trkpt>
      <trkpt lat="44.59843" lon="0.69747">
        <ele>137</ele>
        <time>2012-02-19T08:27:23Z</time>
      </trkpt>
      <trkpt lat="44.59846" lon="0.69751">
        <ele>137</ele>
        <time>2012-02-19T08:27:24Z</time>
      </trkpt>
      <trkpt lat="44.59848" lon="0.69755">
        <ele>137</ele>
        <time>2012-02-19T08:27:25Z</time>
      </trkpt>
      <trkpt lat="44.59851" lon="0.69758">
        <ele>137</ele>
        <time>2012-02-19T08:27:26Z</time>
      </trkpt>
      <trkpt lat="44.59853" lon="0.69761">
        <ele>137</ele>
        <time>2012-02-19T08:27:27Z</time>
      </trkpt>
      <trkpt lat="44.59855" lon="0.69764">
        <ele>137</ele>
        <time>2012-02-19T08:27:28Z</time>
      </trkpt>
      <trkpt lat="44.59857" lon="0.69767">
        <ele>138</ele>
        <time>2012-02-19T08:27:29Z</time>
      </trkpt>
      <trkpt lat="44.59858" lon="0.69771">
        <ele>138</ele>
        <time>2012-02-19T08:27:30Z</time>
      </trkpt>
      <trkpt lat="44.59857" lon="0.69775">
        <ele>138</ele>
        <time>2012-02-19T08:27:31Z</time>
      </trkpt>
      <trkpt lat="44.59856" lon="0.69778">
        <ele>138</ele>
        <time>2012-02-19T08:27:32Z</time>
      </trkpt>
      <trkpt lat="44.59853" lon="0.69779">
        <ele>138</ele>
        <time>2012-02-19T08:27:33Z</time>
      </trkpt>
      <trkpt lat="44.5985" lon="0.69781">
        <ele>138</ele>
        <time>2012-02-19T08:27:34Z</time>
      </trkpt>
      <trkpt lat="44.59846" lon="0.69782">
        <ele>138</ele>
        <time>2012-02-19T08:27:35Z</time>
      </trkpt>
      <trkpt lat="44.59842" lon="0.69783">
        <ele>138</ele>
        <time>2012-02-19T08:27:36Z</time>
      </trkpt>
      <trkpt lat="44.59837" lon="0.69784">
        <ele>138</ele>
        <time>2012-02-19T08:27:37Z</time>
      </trkpt>
      <trkpt lat="44.59833" lon="0.69785">
        <ele>138</ele>
        <time>2012-02-19T08:27:38Z</time>
      </trkpt>
      <trkpt lat="44.59829" lon="0.69787">
        <ele>138</ele>
        <time>2012-02-19T08:27:39Z</time>
      </trkpt>
      <trkpt lat="44.59824" lon="0.69788">
        <ele>138</ele>
        <time>2012-02-19T08:27:40Z</time>
      </trkpt>
      <trkpt lat="44.5982" lon="0.69789">
        <ele>138</ele>
        <time>2012-02-19T08:27:41Z</time>
      </trkpt>
      <trkpt lat="44.59815" lon="0.6979">
        <ele>138</ele>
        <time>2012-02-19T08:27:42Z</time>
      </trkpt>
      <trkpt lat="44.59811" lon="0.69791">
        <ele>138</ele>
        <time>2012-02-19T08:27:43Z</time>
      </trkpt>
      <trkpt lat="44.59806" lon="0.69792">
        <ele>138</ele>
        <time>2012-02-19T08:27:44Z</time>
      </trkpt>
      <trkpt lat="44.59801" lon="0.69794">
        <ele>138</ele>
        <time>2012-02-19T08:27:45Z</time>
      </trkpt>
      <trkpt lat="44.59797" lon="0.69796">
        <ele>138</ele>
        <time>2012-02-19T08:27:46Z</time>
      </trkpt>
      <trkpt lat="44.59792" lon="0.69797">
        <ele>138</ele>
        <time>2012-02-19T08:27:47Z</time>
      </trkpt>
      <trkpt lat="44.59787" lon="0.69798">
        <ele>138</ele>
        <time>2012-02-19T08:27:48Z</time>
      </trkpt>
      <trkpt lat="44.59782" lon="0.698">
        <ele>138</ele>
        <time>2012-02-19T08:27:49Z</time>
      </trkpt>
      <trkpt lat="44.59777" lon="0.69801">
        <ele>138</ele>
        <time>2012-02-19T08:27:50Z</time>
      </trkpt>
      <trkpt lat="44.59773" lon="0.69802">
        <ele>138</ele>
        <time>2012-02-19T08:27:51Z</time>
      </trkpt>
      <trkpt lat="44.59768" lon="0.69803">
        <ele>138</ele>
        <time>2012-02-19T08:27:52Z</time>
      </trkpt>
      <trkpt lat="44.59763" lon="0.69805">
        <ele>138</ele>
        <time>2012-02-19T08:27:53Z</time>
      </trkpt>
      <trkpt lat="44.59759" lon="0.69806">
        <ele>138</ele>
        <time>2012-02-19T08:27:54Z</time>
      </trkpt>
      <trkpt lat="44.59754" lon="0.69808">
        <ele>138</ele>
        <time>2012-02-19T08:27:55Z</time>
      </trkpt>
      <trkpt lat="44.59749" lon="0.6981">
        <ele>138</ele>
        <time>2012-02-19T08:27:56Z</time>
      </trkpt>
      <trkpt lat="44.59744" lon="0.69812">
        <ele>138</ele>
        <time>2012-02-19T08:27:57Z</time>
      </trkpt>
      <trkpt lat="44.59739" lon="0.69814">
        <ele>138</ele>
        <time>2012-02-19T08:27:58Z</time>
      </trkpt>
      <trkpt lat="44.59734" lon="0.69816">
        <ele>138</ele>
        <time>2012-02-19T08:27:59Z</time>
      </trkpt>
      <trkpt lat="44.59729" lon="0.69819">
        <ele>138</ele>
        <time>2012-02-19T08:28:00Z</time>
      </trkpt>
      <trkpt lat="44.59724" lon="0.69822">
        <ele>138</ele>
        <time>2012-02-19T08:28:01Z</time>
      </trkpt>
      <trkpt lat="44.59719" lon="0.69825">
        <ele>138</ele>
        <time>2012-02-19T08:28:02Z</time>
      </trkpt>
      <trkpt lat="44.59715" lon="0.69829">
        <ele>138</ele>
        <time>2012-02-19T08:28:03Z</time>
      </trkpt>
      <trkpt lat="44.5971" lon="0.69832">
        <ele>138</ele>
        <time>2012-02-19T08:28:04Z</time>
      </trkpt>
      <trkpt lat="44.59704" lon="0.69836">
        <ele>138</ele>
        <time>2012-02-19T08:28:05Z</time>
      </trkpt>
      <trkpt lat="44.597" lon="0.69841">
        <ele>138</ele>
        <time>2012-02-19T08:28:06Z</time>
      </trkpt>
      <trkpt lat="44.59695" lon="0.69845">
        <ele>138</ele>
        <time>2012-02-19T08:28:07Z</time>
      </trkpt>
      <trkpt lat="44.5969" lon="0.6985">
        <ele>137</ele>
        <time>2012-02-19T08:28:08Z</time>
      </trkpt>
      <trkpt lat="44.59685" lon="0.69855">
        <ele>137</ele>
        <time>2012-02-19T08:28:09Z</time>
      </trkpt>
      <trkpt lat="44.5968" lon="0.6986">
        <ele>137</ele>
        <time>2012-02-19T08:28:10Z</time>
      </trkpt>
      <trkpt lat="44.59675" lon="0.69865">
        <ele>137</ele>
        <time>2012-02-19T08:28:11Z</time>
      </trkpt>
      <trkpt lat="44.59671" lon="0.6987">
        <ele>137</ele>
        <time>2012-02-19T08:28:12Z</time>
      </trkpt>
      <trkpt lat="44.59666" lon="0.69874">
        <ele>136</ele>
        <time>2012-02-19T08:28:13Z</time>
      </trkpt>
      <trkpt lat="44.59661" lon="0.69879">
        <ele>136</ele>
        <time>2012-02-19T08:28:14Z</time>
      </trkpt>
      <trkpt lat="44.59657" lon="0.69883">
        <ele>136</ele>
        <time>2012-02-19T08:28:15Z</time>
      </trkpt>
      <trkpt lat="44.59652" lon="0.69888">
        <ele>136</ele>
        <time>2012-02-19T08:28:16Z</time>
      </trkpt>
      <trkpt lat="44.59648" lon="0.69893">
        <ele>136</ele>
        <time>2012-02-19T08:28:17Z</time>
      </trkpt>
      <trkpt lat="44.59643" lon="0.69898">
        <ele>136</ele>
        <time>2012-02-19T08:28:18Z</time>
      </trkpt>
      <trkpt lat="44.59639" lon="0.69902">
        <ele>136</ele>
        <time>2012-02-19T08:28:19Z</time>
      </trkpt>
      <trkpt lat="44.59635" lon="0.69907">
        <ele>136</ele>
        <time>2012-02-19T08:28:20Z</time>
      </trkpt>
      <trkpt lat="44.59631" lon="0.69911">
        <ele>136</ele>
        <time>2012-02-19T08:28:21Z</time>
      </trkpt>
      <trkpt lat="44.59626" lon="0.69916">
        <ele>136</ele>
        <time>2012-02-19T08:28:22Z</time>
      </trkpt>
      <trkpt lat="44.59623" lon="0.6992">
        <ele>136</ele>
        <time>2012-02-19T08:28:23Z</time>
      </trkpt>
      <trkpt lat="44.59618" lon="0.69924">
        <ele>136</ele>
        <time>2012-02-19T08:28:24Z</time>
      </trkpt>
      <trkpt lat="44.59615" lon="0.69928">
        <ele>136</ele>
        <time>2012-02-19T08:28:25Z</time>
      </trkpt>
      <trkpt lat="44.5961" lon="0.69932">
        <ele>136</ele>
        <time>2012-02-19T08:28:26Z</time>
      </trkpt>
      <trkpt lat="44.59607" lon="0.69935">
        <ele>136</ele>
        <time>2012-02-19T08:28:27Z</time>
      </trkpt>
      <trkpt lat="44.59602" lon="0.69939">
        <ele>136</ele>
        <time>2012-02-19T08:28:28Z</time>
      </trkpt>
      <trkpt lat="44.59598" lon="0.69943">
        <ele>136</ele>
        <time>2012-02-19T08:28:29Z</time>
      </trkpt>
      <trkpt lat="44.59594" lon="0.69948">
        <ele>136</ele>
        <time>2012-02-19T08:28:30Z</time>
      </trkpt>
      <trkpt lat="44.59591" lon="0.69952">
        <ele>136</ele>
        <time>2012-02-19T08:28:31Z</time>
      </trkpt>
      <trkpt lat="44.59586" lon="0.69956">
        <ele>136</ele>
        <time>2012-02-19T08:28:32Z</time>
      </trkpt>
      <trkpt lat="44.59582" lon="0.6996">
        <ele>136</ele>
        <time>2012-02-19T08:28:33Z</time>
      </trkpt>
      <trkpt lat="44.59578" lon="0.69964">
        <ele>136</ele>
        <time>2012-02-19T08:28:34Z</time>
      </trkpt>
      <trkpt lat="44.59574" lon="0.69967">
        <ele>136</ele>
        <time>2012-02-19T08:28:35Z</time>
      </trkpt>
      <trkpt lat="44.5957" lon="0.69971">
        <ele>136</ele>
        <time>2012-02-19T08:28:36Z</time>
      </trkpt>
      <trkpt lat="44.59566" lon="0.69975">
        <ele>136</ele>
        <time>2012-02-19T08:28:37Z</time>
      </trkpt>
      <trkpt lat="44.59561" lon="0.69978">
        <ele>136</ele>
        <time>2012-02-19T08:28:38Z</time>
      </trkpt>
      <trkpt lat="44.59557" lon="0.69982">
        <ele>136</ele>
        <time>2012-02-19T08:28:39Z</time>
      </trkpt>
      <trkpt lat="44.59552" lon="0.69985">
        <ele>136</ele>
        <time>2012-02-19T08:28:40Z</time>
      </trkpt>
      <trkpt lat="44.59547" lon="0.69988">
        <ele>136</ele>
        <time>2012-02-19T08:28:41Z</time>
      </trkpt>
      <trkpt lat="44.59543" lon="0.69991">
        <ele>136</ele>
        <time>2012-02-19T08:28:42Z</time>
      </trkpt>
      <trkpt lat="44.59538" lon="0.69994">
        <ele>136</ele>
        <time>2012-02-19T08:28:43Z</time>
      </trkpt>
      <trkpt lat="44.59532" lon="0.69997">
        <ele>136</ele>
        <time>2012-02-19T08:28:44Z</time>
      </trkpt>
      <trkpt lat="44.59527" lon="0.69999">
        <ele>136</ele>
        <time>2012-02-19T08:28:45Z</time>
      </trkpt>
      <trkpt lat="44.59522" lon="0.70002">
        <ele>136</ele>
        <time>2012-02-19T08:28:46Z</time>
      </trkpt>
      <trkpt lat="44.59517" lon="0.70004">
        <ele>135</ele>
        <time>2012-02-19T08:28:47Z</time>
      </trkpt>
      <trkpt lat="44.59511" lon="0.70007">
        <ele>135</ele>
        <time>2012-02-19T08:28:48Z</time>
      </trkpt>
      <trkpt lat="44.59506" lon="0.70009">
        <ele>135</ele>
        <time>2012-02-19T08:28:49Z</time>
      </trkpt>
      <trkpt lat="44.59501" lon="0.70012">
        <ele>135</ele>
        <time>2012-02-19T08:28:50Z</time>
      </trkpt>
      <trkpt lat="44.59495" lon="0.70014">
        <ele>135</ele>
        <time>2012-02-19T08:28:51Z</time>
      </trkpt>
      <trkpt lat="44.5949" lon="0.70016">
        <ele>135</ele>
        <time>2012-02-19T08:28:52Z</time>
      </trkpt>
      <trkpt lat="44.59484" lon="0.70018">
        <ele>135</ele>
        <time>2012-02-19T08:28:53Z</time>
      </trkpt>
      <trkpt lat="44.59479" lon="0.7002">
        <ele>134</ele>
        <time>2012-02-19T08:28:54Z</time>
      </trkpt>
      <trkpt lat="44.59473" lon="0.70022">
        <ele>134</ele>
        <time>2012-02-19T08:28:55Z</time>
      </trkpt>
      <trkpt lat="44.59468" lon="0.70023">
        <ele>134</ele>
        <time>2012-02-19T08:28:56Z</time>
      </trkpt>
      <trkpt lat="44.59462" lon="0.70025">
        <ele>134</ele>
        <time>2012-02-19T08:28:57Z</time>
      </trkpt>
      <trkpt lat="44.59457" lon="0.70025">
        <ele>133</ele>
        <time>2012-02-19T08:28:58Z</time>
      </trkpt>
      <trkpt lat="44.59452" lon="0.70026">
        <ele>133</ele>
        <time>2012-02-19T08:28:59Z</time>
      </trkpt>
      <trkpt lat="44.59446" lon="0.70026">
        <ele>133</ele>
        <time>2012-02-19T08:29:00Z</time>
      </trkpt>
      <trkpt lat="44.59441" lon="0.70026">
        <ele>133</ele>
        <time>2012-02-19T08:29:01Z</time>
      </trkpt>
      <trkpt lat="44.59435" lon="0.70026">
        <ele>133</ele>
        <time>2012-02-19T08:29:02Z</time>
      </trkpt>
      <trkpt lat="44.5943" lon="0.70026">
        <ele>132</ele>
        <time>2012-02-19T08:29:03Z</time>
      </trkpt>
      <trkpt lat="44.59424" lon="0.70027">
        <ele>132</ele>
        <time>2012-02-19T08:29:04Z</time>
      </trkpt>
      <trkpt lat="44.59418" lon="0.70028">
        <ele>132</ele>
        <time>2012-02-19T08:29:05Z</time>
      </trkpt>
      <trkpt lat="44.59412" lon="0.7003">
        <ele>132</ele>
        <time>2012-02-19T08:29:06Z</time>
      </trkpt>
      <trkpt lat="44.59407" lon="0.70032">
        <ele>132</ele>
        <time>2012-02-19T08:29:07Z</time>
      </trkpt>
      <trkpt lat="44.59401" lon="0.70034">
        <ele>132</ele>
        <time>2012-02-19T08:29:08Z</time>
      </trkpt>
      <trkpt lat="44.59396" lon="0.70037">
        <ele>132</ele>
        <time>2012-02-19T08:29:09Z</time>
      </trkpt>
      <trkpt lat="44.59391" lon="0.70039">
        <ele>132</ele>
        <time>2012-02-19T08:29:10Z</time>
      </trkpt>
      <trkpt lat="44.59386" lon="0.70043">
        <ele>132</ele>
        <time>2012-02-19T08:29:11Z</time>
      </trkpt>
      <trkpt lat="44.59382" lon="0.70046">
        <ele>132</ele>
        <time>2012-02-19T08:29:12Z</time>
      </trkpt>
      <trkpt lat="44.59377" lon="0.70048">
        <ele>132</ele>
        <time>2012-02-19T08:29:13Z</time>
      </trkpt>
      <trkpt lat="44.59373" lon="0.70051">
        <ele>132</ele>
        <time>2012-02-19T08:29:14Z</time>
      </trkpt>
      <trkpt lat="44.59369" lon="0.70055">
        <ele>132</ele>
        <time>2012-02-19T08:29:15Z</time>
      </trkpt>
      <trkpt lat="44.59364" lon="0.70057">
        <ele>132</ele>
        <time>2012-02-19T08:29:16Z</time>
      </trkpt>
      <trkpt lat="44.5936" lon="0.7006">
        <ele>132</ele>
        <time>2012-02-19T08:29:17Z</time>
      </trkpt>
      <trkpt lat="44.59356" lon="0.70063">
        <ele>132</ele>
        <time>2012-02-19T08:29:18Z</time>
      </trkpt>
      <trkpt lat="44.59352" lon="0.70066">
        <ele>132</ele>
        <time>2012-02-19T08:29:19Z</time>
      </trkpt>
      <trkpt lat="44.59349" lon="0.70069">
        <ele>132</ele>
        <time>2012-02-19T08:29:20Z</time>
      </trkpt>
      <trkpt lat="44.59346" lon="0.70071">
        <ele>132</ele>
        <time>2012-02-19T08:29:21Z</time>
      </trkpt>
      <trkpt lat="44.59342" lon="0.70074">
        <ele>132</ele>
        <time>2012-02-19T08:29:22Z</time>
      </trkpt>
      <trkpt lat="44.59339" lon="0.70078">
        <ele>132</ele>
        <time>2012-02-19T08:29:23Z</time>
      </trkpt>
      <trkpt lat="44.59336" lon="0.70082">
        <ele>132</ele>
        <time>2012-02-19T08:29:24Z</time>
      </trkpt>
      <trkpt lat="44.59332" lon="0.70084">
        <ele>132</ele>
        <time>2012-02-19T08:29:25Z</time>
      </trkpt>
      <trkpt lat="44.59328" lon="0.70087">
        <ele>132</ele>
        <time>2012-02-19T08:29:26Z</time>
      </trkpt>
      <trkpt lat="44.59324" lon="0.7009">
        <ele>132</ele>
        <time>2012-02-19T08:29:27Z</time>
      </trkpt>
      <trkpt lat="44.5932" lon="0.70092">
        <ele>132</ele>
        <time>2012-02-19T08:29:28Z</time>
      </trkpt>
      <trkpt lat="44.59316" lon="0.70095">
        <ele>132</ele>
        <time>2012-02-19T08:29:29Z</time>
      </trkpt>
      <trkpt lat="44.59312" lon="0.70097">
        <ele>132</ele>
        <time>2012-02-19T08:29:30Z</time>
      </trkpt>
      <trkpt lat="44.59307" lon="0.701">
        <ele>131</ele>
        <time>2012-02-19T08:29:31Z</time>
      </trkpt>
      <trkpt lat="44.59303" lon="0.70103">
        <ele>131</ele>
        <time>2012-02-19T08:29:32Z</time>
      </trkpt>
      <trkpt lat="44.59299" lon="0.70105">
        <ele>130</ele>
        <time>2012-02-19T08:29:33Z</time>
      </trkpt>
      <trkpt lat="44.59294" lon="0.70108">
        <ele>130</ele>
        <time>2012-02-19T08:29:34Z</time>
      </trkpt>
      <trkpt lat="44.5929" lon="0.7011">
        <ele>130</ele>
        <time>2012-02-19T08:29:35Z</time>
      </trkpt>
      <trkpt lat="44.59285" lon="0.70113">
        <ele>129</ele>
        <time>2012-02-19T08:29:36Z</time>
      </trkpt>
      <trkpt lat="44.59281" lon="0.70115">
        <ele>129</ele>
        <time>2012-02-19T08:29:37Z</time>
      </trkpt>
      <trkpt lat="44.59276" lon="0.70117">
        <ele>129</ele>
        <time>2012-02-19T08:29:38Z</time>
      </trkpt>
      <trkpt lat="44.59272" lon="0.7012">
        <ele>129</ele>
        <time>2012-02-19T08:29:39Z</time>
      </trkpt>
      <trkpt lat="44.59267" lon="0.70123">
        <ele>129</ele>
        <time>2012-02-19T08:29:40Z</time>
      </trkpt>
      <trkpt lat="44.59263" lon="0.70125">
        <ele>129</ele>
        <time>2012-02-19T08:29:41Z</time>
      </trkpt>
      <trkpt lat="44.59259" lon="0.70128">
        <ele>129</ele>
        <time>2012-02-19T08:29:42Z</time>
      </trkpt>
      <trkpt lat="44.59254" lon="0.70131">
        <ele>129</ele>
        <time>2012-02-19T08:29:43Z</time>
      </trkpt>
      <trkpt lat="44.5925" lon="0.70134">
        <ele>129</ele>
        <time>2012-02-19T08:29:44Z</time>
      </trkpt>
      <trkpt lat="44.59246" lon="0.70137">
        <ele>129</ele>
        <time>2012-02-19T08:29:45Z</time>
      </trkpt>
      <trkpt lat="44.59241" lon="0.7014">
        <ele>129</ele>
        <time>2012-02-19T08:29:46Z</time>
      </trkpt>
      <trkpt lat="44.59237" lon="0.70144">
        <ele>129</ele>
        <time>2012-02-19T08:29:47Z</time>
      </trkpt>
      <trkpt lat="44.59233" lon="0.70147">
        <ele>129</ele>
        <time>2012-02-19T08:29:48Z</time>
      </trkpt>
      <trkpt lat="44.59229" lon="0.70151">
        <ele>129</ele>
        <time>2012-02-19T08:29:49Z</time>
      </trkpt>
      <trkpt lat="44.59225" lon="0.70154">
        <ele>129</ele>
        <time>2012-02-19T08:29:50Z</time>
      </trkpt>
      <trkpt lat="44.59222" lon="0.70158">
        <ele>129</ele>
        <time>2012-02-19T08:29:51Z</time>
      </trkpt>
      <trkpt lat="44.59218" lon="0.70163">
        <ele>129</ele>
        <time>2012-02-19T08:29:52Z</time>
      </trkpt>
      <trkpt lat="44.59215" lon="0.70167">
        <ele>129</ele>
        <time>2012-02-19T08:29:53Z</time>
      </trkpt>
      <trkpt lat="44.59211" lon="0.70171">
        <ele>129</ele>
        <time>2012-02-19T08:29:54Z</time>
      </trkpt>
      <trkpt lat="44.59208" lon="0.70175">
        <ele>128</ele>
        <time>2012-02-19T08:29:55Z</time>
      </trkpt>
      <trkpt lat="44.59205" lon="0.70179">
        <ele>128</ele>
        <time>2012-02-19T08:29:56Z</time>
      </trkpt>
      <trkpt lat="44.59202" lon="0.70183">
        <ele>128</ele>
        <time>2012-02-19T08:29:57Z</time>
      </trkpt>
      <trkpt lat="44.59199" lon="0.70187">
        <ele>128</ele>
        <time>2012-02-19T08:29:58Z</time>
      </trkpt>
      <trkpt lat="44.59196" lon="0.70191">
        <ele>128</ele>
        <time>2012-02-19T08:29:59Z</time>
      </trkpt>
      <trkpt lat="44.59193" lon="0.70196">
        <ele>128</ele>
        <time>2012-02-19T08:30:00Z</time>
      </trkpt>
      <trkpt lat="44.5919" lon="0.702">
        <ele>128</ele>
        <time>2012-02-19T08:30:01Z</time>
      </trkpt>
      <trkpt lat="44.59187" lon="0.70204">
        <ele>128</ele>
        <time>2012-02-19T08:30:02Z</time>
      </trkpt>
      <trkpt lat="44.59185" lon="0.70209">
        <ele>128</ele>
        <time>2012-02-19T08:30:03Z</time>
      </trkpt>
      <trkpt lat="44.59182" lon="0.70214">
        <ele>128</ele>
        <time>2012-02-19T08:30:04Z</time>
      </trkpt>
      <trkpt lat="44.59179" lon="0.70218">
        <ele>128</ele>
        <time>2012-02-19T08:30:05Z</time>
      </trkpt>
      <trkpt lat="44.59175" lon="0.70223">
        <ele>128</ele>
        <time>2012-02-19T08:30:06Z</time>
      </trkpt>
      <trkpt lat="44.59173" lon="0.70228">
        <ele>128</ele>
        <time>2012-02-19T08:30:07Z</time>
      </trkpt>
      <trkpt lat="44.59169" lon="0.70233">
        <ele>127</ele>
        <time>2012-02-19T08:30:08Z</time>
      </trkpt>
      <trkpt lat="44.59166" lon="0.70239">
        <ele>127</ele>
        <time>2012-02-19T08:30:09Z</time>
      </trkpt>
      <trkpt lat="44.59163" lon="0.70244">
        <ele>127</ele>
        <time>2012-02-19T08:30:10Z</time>
      </trkpt>
      <trkpt lat="44.59161" lon="0.7025">
        <ele>127</ele>
        <time>2012-02-19T08:30:11Z</time>
      </trkpt>
      <trkpt lat="44.59158" lon="0.70256">
        <ele>127</ele>
        <time>2012-02-19T08:30:12Z</time>
      </trkpt>
      <trkpt lat="44.59155" lon="0.70262">
        <ele>127</ele>
        <time>2012-02-19T08:30:13Z</time>
      </trkpt>
      <trkpt lat="44.59153" lon="0.70267">
        <ele>127</ele>
        <time>2012-02-19T08:30:14Z</time>
      </trkpt>
      <trkpt lat="44.5915" lon="0.70273">
        <ele>127</ele>
        <time>2012-02-19T08:30:15Z</time>
      </trkpt>
      <trkpt lat="44.59147" lon="0.70278">
        <ele>127</ele>
        <time>2012-02-19T08:30:16Z</time>
      </trkpt>
      <trkpt lat="44.59144" lon="0.70284">
        <ele>127</ele>
        <time>2012-02-19T08:30:17Z</time>
      </trkpt>
      <trkpt lat="44.59142" lon="0.7029">
        <ele>127</ele>
        <time>2012-02-19T08:30:18Z</time>
      </trkpt>
      <trkpt lat="44.5914" lon="0.70295">
        <ele>127</ele>
        <time>2012-02-19T08:30:19Z</time>
      </trkpt>
      <trkpt lat="44.59137" lon="0.70299">
        <ele>127</ele>
        <time>2012-02-19T08:30:20Z</time>
      </trkpt>
      <trkpt lat="44.59134" lon="0.70301">
        <ele>127</ele>
        <time>2012-02-19T08:30:21Z</time>
      </trkpt>
      <trkpt lat="44.59131" lon="0.70301">
        <ele>127</ele>
        <time>2012-02-19T08:30:22Z</time>
      </trkpt>
      <trkpt lat="44.59127" lon="0.703">
        <ele>127</ele>
        <time>2012-02-19T08:30:23Z</time>
      </trkpt>
      <trkpt lat="44.59122" lon="0.70299">
        <ele>127</ele>
        <time>2012-02-19T08:30:24Z</time>
      </trkpt>
      <trkpt lat="44.59118" lon="0.70297">
        <ele>127</ele>
        <time>2012-02-19T08:30:25Z</time>
      </trkpt>
      <trkpt lat="44.59115" lon="0.70295">
        <ele>127</ele>
        <time>2012-02-19T08:30:26Z</time>
      </trkpt>
      <trkpt lat="44.59111" lon="0.70293">
        <ele>127</ele>
        <time>2012-02-19T08:30:27Z</time>
      </trkpt>
      <trkpt lat="44.59107" lon="0.70291">
        <ele>127</ele>
        <time>2012-02-19T08:30:28Z</time>
      </trkpt>
      <trkpt lat="44.59103" lon="0.70291">
        <ele>127</ele>
        <time>2012-02-19T08:30:29Z</time>
      </trkpt>
      <trkpt lat="44.591" lon="0.70293">
        <ele>127</ele>
        <time>2012-02-19T08:30:30Z</time>
      </trkpt>
      <trkpt lat="44.59097" lon="0.70296">
        <ele>127</ele>
        <time>2012-02-19T08:30:31Z</time>
      </trkpt>
      <trkpt lat="44.59095" lon="0.703">
        <ele>127</ele>
        <time>2012-02-19T08:30:32Z</time>
      </trkpt>
      <trkpt lat="44.59095" lon="0.70305">
        <ele>127</ele>
        <time>2012-02-19T08:30:33Z</time>
      </trkpt>
      <trkpt lat="44.59094" lon="0.7031">
        <ele>127</ele>
        <time>2012-02-19T08:30:34Z</time>
      </trkpt>
      <trkpt lat="44.59093" lon="0.70315">
        <ele>127</ele>
        <time>2012-02-19T08:30:35Z</time>
      </trkpt>
      <trkpt lat="44.59092" lon="0.7032">
        <ele>127</ele>
        <time>2012-02-19T08:30:36Z</time>
      </trkpt>
      <trkpt lat="44.59091" lon="0.70324">
        <ele>127</ele>
        <time>2012-02-19T08:30:37Z</time>
      </trkpt>
      <trkpt lat="44.5909" lon="0.70329">
        <ele>127</ele>
        <time>2012-02-19T08:30:38Z</time>
      </trkpt>
      <trkpt lat="44.59089" lon="0.70333">
        <ele>127</ele>
        <time>2012-02-19T08:30:39Z</time>
      </trkpt>
      <trkpt lat="44.59088" lon="0.70337">
        <ele>127</ele>
        <time>2012-02-19T08:30:40Z</time>
      </trkpt>
      <trkpt lat="44.59087" lon="0.70341">
        <ele>127</ele>
        <time>2012-02-19T08:30:41Z</time>
      </trkpt>
      <trkpt lat="44.59085" lon="0.70345">
        <ele>127</ele>
        <time>2012-02-19T08:30:42Z</time>
      </trkpt>
      <trkpt lat="44.59084" lon="0.70349">
        <ele>127</ele>
        <time>2012-02-19T08:30:43Z</time>
      </trkpt>
      <trkpt lat="44.59083" lon="0.70353">
        <ele>127</ele>
        <time>2012-02-19T08:30:44Z</time>
      </trkpt>
      <trkpt lat="44.59082" lon="0.70358">
        <ele>127</ele>
        <time>2012-02-19T08:30:45Z</time>
      </trkpt>
      <trkpt lat="44.59081" lon="0.70362">
        <ele>127</ele>
        <time>2012-02-19T08:30:46Z</time>
      </trkpt>
      <trkpt lat="44.5908" lon="0.70366">
        <ele>127</ele>
        <time>2012-02-19T08:30:47Z</time>
      </trkpt>
      <trkpt lat="44.59079" lon="0.7037">
        <ele>127</ele>
        <time>2012-02-19T08:30:48Z</time>
      </trkpt>
      <trkpt lat="44.59078" lon="0.70375">
        <ele>127</ele>
        <time>2012-02-19T08:30:49Z</time>
      </trkpt>
      <trkpt lat="44.59077" lon="0.70379">
        <ele>127</ele>
        <time>2012-02-19T08:30:50Z</time>
      </trkpt>
      <trkpt lat="44.59076" lon="0.70384">
        <ele>127</ele>
        <time>2012-02-19T08:30:51Z</time>
      </trkpt>
      <trkpt lat="44.59075" lon="0.70388">
        <ele>127</ele>
        <time>2012-02-19T08:30:52Z</time>
      </trkpt>
      <trkpt lat="44.59074" lon="0.70393">
        <ele>127</ele>
        <time>2012-02-19T08:30:53Z</time>
      </trkpt>
      <trkpt lat="44.59072" lon="0.70397">
        <ele>127</ele>
        <time>2012-02-19T08:30:54Z</time>
      </trkpt>
      <trkpt lat="44.59072" lon="0.70402">
        <ele>127</ele>
        <time>2012-02-19T08:30:55Z</time>
      </trkpt>
      <trkpt lat="44.59071" lon="0.70407">
        <ele>127</ele>
        <time>2012-02-19T08:30:56Z</time>
      </trkpt>
      <trkpt lat="44.5907" lon="0.70411">
        <ele>127</ele>
        <time>2012-02-19T08:30:57Z</time>
      </trkpt>
      <trkpt lat="44.5907" lon="0.70416">
        <ele>127</ele>
        <time>2012-02-19T08:30:58Z</time>
      </trkpt>
      <trkpt lat="44.59069" lon="0.70421">
        <ele>127</ele>
        <time>2012-02-19T08:30:59Z</time>
      </trkpt>
      <trkpt lat="44.59068" lon="0.70425">
        <ele>127</ele>
        <time>2012-02-19T08:31:00Z</time>
      </trkpt>
      <trkpt lat="44.59067" lon="0.7043">
        <ele>127</ele>
        <time>2012-02-19T08:31:01Z</time>
      </trkpt>
      <trkpt lat="44.59066" lon="0.70435">
        <ele>127</ele>
        <time>2012-02-19T08:31:02Z</time>
      </trkpt>
      <trkpt lat="44.59065" lon="0.70439">
        <ele>127</ele>
        <time>2012-02-19T08:31:03Z</time>
      </trkpt>
      <trkpt lat="44.59064" lon="0.70443">
        <ele>127</ele>
        <time>2012-02-19T08:31:04Z</time>
      </trkpt>
      <trkpt lat="44.59062" lon="0.70447">
        <ele>127</ele>
        <time>2012-02-19T08:31:05Z</time>
      </trkpt>
      <trkpt lat="44.5906" lon="0.70451">
        <ele>127</ele>
        <time>2012-02-19T08:31:06Z</time>
      </trkpt>
      <trkpt lat="44.59058" lon="0.70455">
        <ele>127</ele>
        <time>2012-02-19T08:31:07Z</time>
      </trkpt>
      <trkpt lat="44.59055" lon="0.70459">
        <ele>127</ele>
        <time>2012-02-19T08:31:08Z</time>
      </trkpt>
      <trkpt lat="44.59053" lon="0.70463">
        <ele>127</ele>
        <time>2012-02-19T08:31:09Z</time>
      </trkpt>
      <trkpt lat="44.59051" lon="0.70468">
        <ele>127</ele>
        <time>2012-02-19T08:31:10Z</time>
      </trkpt>
      <trkpt lat="44.59049" lon="0.70472">
        <ele>127</ele>
        <time>2012-02-19T08:31:11Z</time>
      </trkpt>
      <trkpt lat="44.59047" lon="0.70477">
        <ele>127</ele>
        <time>2012-02-19T08:31:12Z</time>
      </trkpt>
      <trkpt lat="44.59045" lon="0.70481">
        <ele>127</ele>
        <time>2012-02-19T08:31:13Z</time>
      </trkpt>
      <trkpt lat="44.59043" lon="0.70485">
        <ele>127</ele>
        <time>2012-02-19T08:31:14Z</time>
      </trkpt>
      <trkpt lat="44.59041" lon="0.70489">
        <ele>127</ele>
        <time>2012-02-19T08:31:15Z</time>
      </trkpt>
      <trkpt lat="44.59039" lon="0.70494">
        <ele>127</ele>
        <time>2012-02-19T08:31:16Z</time>
      </trkpt>
      <trkpt lat="44.59037" lon="0.70499">
        <ele>127</ele>
        <time>2012-02-19T08:31:17Z</time>
      </trkpt>
      <trkpt lat="44.59035" lon="0.70504">
        <ele>127</ele>
        <time>2012-02-19T08:31:18Z</time>
      </trkpt>
      <trkpt lat="44.59033" lon="0.70508">
        <ele>127</ele>
        <time>2012-02-19T08:31:19Z</time>
      </trkpt>
      <trkpt lat="44.59031" lon="0.70513">
        <ele>127</ele>
        <time>2012-02-19T08:31:20Z</time>
      </trkpt>
      <trkpt lat="44.59029" lon="0.70518">
        <ele>126</ele>
        <time>2012-02-19T08:31:21Z</time>
      </trkpt>
      <trkpt lat="44.59026" lon="0.70522">
        <ele>126</ele>
        <time>2012-02-19T08:31:22Z</time>
      </trkpt>
      <trkpt lat="44.59024" lon="0.70526">
        <ele>126</ele>
        <time>2012-02-19T08:31:23Z</time>
      </trkpt>
      <trkpt lat="44.5902" lon="0.7053">
        <ele>126</ele>
        <time>2012-02-19T08:31:24Z</time>
      </trkpt>
      <trkpt lat="44.59017" lon="0.70533">
        <ele>126</ele>
        <time>2012-02-19T08:31:25Z</time>
      </trkpt>
      <trkpt lat="44.59013" lon="0.70535">
        <ele>126</ele>
        <time>2012-02-19T08:31:26Z</time>
      </trkpt>
      <trkpt lat="44.59009" lon="0.70537">
        <ele>126</ele>
        <time>2012-02-19T08:31:27Z</time>
      </trkpt>
      <trkpt lat="44.59005" lon="0.70538">
        <ele>126</ele>
        <time>2012-02-19T08:31:28Z</time>
      </trkpt>
      <trkpt lat="44.59" lon="0.70538">
        <ele>126</ele>
        <time>2012-02-19T08:31:29Z</time>
      </trkpt>
      <trkpt lat="44.58995" lon="0.70539">
        <ele>126</ele>
        <time>2012-02-19T08:31:30Z</time>
      </trkpt>
      <trkpt lat="44.5899" lon="0.70538">
        <ele>126</ele>
        <time>2012-02-19T08:31:31Z</time>
      </trkpt>
      <trkpt lat="44.58986" lon="0.70537">
        <ele>126</ele>
        <time>2012-02-19T08:31:32Z</time>
      </trkpt>
      <trkpt lat="44.58981" lon="0.70535">
        <ele>126</ele>
        <time>2012-02-19T08:31:33Z</time>
      </trkpt>
      <trkpt lat="44.58977" lon="0.70534">
        <ele>126</ele>
        <time>2012-02-19T08:31:34Z</time>
      </trkpt>
      <trkpt lat="44.58972" lon="0.70533">
        <ele>126</ele>
        <time>2012-02-19T08:31:35Z</time>
      </trkpt>
      <trkpt lat="44.58967" lon="0.70532">
        <ele>126</ele>
        <time>2012-02-19T08:31:36Z</time>
      </trkpt>
      <trkpt lat="44.58962" lon="0.70532">
        <ele>126</ele>
        <time>2012-02-19T08:31:37Z</time>
      </trkpt>
      <trkpt lat="44.58957" lon="0.70531">
        <ele>126</ele>
        <time>2012-02-19T08:31:38Z</time>
      </trkpt>
      <trkpt lat="44.58952" lon="0.70531">
        <ele>126</ele>
        <time>2012-02-19T08:31:39Z</time>
      </trkpt>
      <trkpt lat="44.58948" lon="0.70532">
        <ele>126</ele>
        <time>2012-02-19T08:31:40Z</time>
      </trkpt>
      <trkpt lat="44.58943" lon="0.70531">
        <ele>126</ele>
        <time>2012-02-19T08:31:41Z</time>
      </trkpt>
      <trkpt lat="44.58937" lon="0.70531">
        <ele>125</ele>
        <time>2012-02-19T08:31:42Z</time>
      </trkpt>
      <trkpt lat="44.58932" lon="0.70532">
        <ele>125</ele>
        <time>2012-02-19T08:31:43Z</time>
      </trkpt>
      <trkpt lat="44.58926" lon="0.70532">
        <ele>125</ele>
        <time>2012-02-19T08:31:44Z</time>
      </trkpt>
      <trkpt lat="44.58921" lon="0.70531">
        <ele>125</ele>
        <time>2012-02-19T08:31:45Z</time>
      </trkpt>
      <trkpt lat="44.58915" lon="0.7053">
        <ele>125</ele>
        <time>2012-02-19T08:31:46Z</time>
      </trkpt>
      <trkpt lat="44.5891" lon="0.70528">
        <ele>125</ele>
        <time>2012-02-19T08:31:47Z</time>
      </trkpt>
      <trkpt lat="44.58906" lon="0.70526">
        <ele>125</ele>
        <time>2012-02-19T08:31:48Z</time>
      </trkpt>
      <trkpt lat="44.58902" lon="0.70525">
        <ele>125</ele>
        <time>2012-02-19T08:31:49Z</time>
      </trkpt>
      <trkpt lat="44.58899" lon="0.70526">
        <ele>125</ele>
        <time>2012-02-19T08:31:50Z</time>
      </trkpt>
      <trkpt lat="44.58896" lon="0.7053">
        <ele>124</ele>
        <time>2012-02-19T08:31:51Z</time>
      </trkpt>
      <trkpt lat="44.58894" lon="0.70535">
        <ele>124</ele>
        <time>2012-02-19T08:31:52Z</time>
      </trkpt>
      <trkpt lat="44.5889" lon="0.70538">
        <ele>124</ele>
        <time>2012-02-19T08:31:53Z</time>
      </trkpt>
      <trkpt lat="44.58886" lon="0.70542">
        <ele>123</ele>
        <time>2012-02-19T08:31:54Z</time>
      </trkpt>
      <trkpt lat="44.58881" lon="0.70546">
        <ele>122</ele>
        <time>2012-02-19T08:31:55Z</time>
      </trkpt>
      <trkpt lat="44.58876" lon="0.70549">
        <ele>121</ele>
        <time>2012-02-19T08:31:56Z</time>
      </trkpt>
      <trkpt lat="44.5887" lon="0.70552">
        <ele>120</ele>
        <time>2012-02-19T08:31:57Z</time>
      </trkpt>
      <trkpt lat="44.58866" lon="0.70555">
        <ele>119</ele>
        <time>2012-02-19T08:31:58Z</time>
      </trkpt>
      <trkpt lat="44.58861" lon="0.70559">
        <ele>119</ele>
        <time>2012-02-19T08:31:59Z</time>
      </trkpt>
      <trkpt lat="44.58856" lon="0.70563">
        <ele>119</ele>
        <time>2012-02-19T08:32:00Z</time>
      </trkpt>
      <trkpt lat="44.58852" lon="0.70568">
        <ele>119</ele>
        <time>2012-02-19T08:32:01Z</time>
      </trkpt>
      <trkpt lat="44.58849" lon="0.70573">
        <ele>119</ele>
        <time>2012-02-19T08:32:02Z</time>
      </trkpt>
      <trkpt lat="44.58845" lon="0.70579">
        <ele>119</ele>
        <time>2012-02-19T08:32:03Z</time>
      </trkpt>
      <trkpt lat="44.58843" lon="0.70586">
        <ele>119</ele>
        <time>2012-02-19T08:32:04Z</time>
      </trkpt>
      <trkpt lat="44.58841" lon="0.70592">
        <ele>118</ele>
        <time>2012-02-19T08:32:05Z</time>
      </trkpt>
      <trkpt lat="44.58839" lon="0.70599">
        <ele>118</ele>
        <time>2012-02-19T08:32:06Z</time>
      </trkpt>
      <trkpt lat="44.58837" lon="0.70605">
        <ele>117</ele>
        <time>2012-02-19T08:32:07Z</time>
      </trkpt>
      <trkpt lat="44.58836" lon="0.70611">
        <ele>117</ele>
        <time>2012-02-19T08:32:08Z</time>
      </trkpt>
      <trkpt lat="44.58835" lon="0.70618">
        <ele>117</ele>
        <time>2012-02-19T08:32:09Z</time>
      </trkpt>
      <trkpt lat="44.58835" lon="0.70623">
        <ele>117</ele>
        <time>2012-02-19T08:32:10Z</time>
      </trkpt>
      <trkpt lat="44.58835" lon="0.70629">
        <ele>117</ele>
        <time>2012-02-19T08:32:11Z</time>
      </trkpt>
      <trkpt lat="44.58835" lon="0.70635">
        <ele>117</ele>
        <time>2012-02-19T08:32:12Z</time>
      </trkpt>
      <trkpt lat="44.58835" lon="0.7064">
        <ele>117</ele>
        <time>2012-02-19T08:32:13Z</time>
      </trkpt>
      <trkpt lat="44.58835" lon="0.70645">
        <ele>117</ele>
        <time>2012-02-19T08:32:14Z</time>
      </trkpt>
      <trkpt lat="44.58835" lon="0.7065">
        <ele>117</ele>
        <time>2012-02-19T08:32:15Z</time>
      </trkpt>
      <trkpt lat="44.58835" lon="0.70655">
        <ele>117</ele>
        <time>2012-02-19T08:32:16Z</time>
      </trkpt>
      <trkpt lat="44.58836" lon="0.70661">
        <ele>117</ele>
        <time>2012-02-19T08:32:17Z</time>
      </trkpt>
      <trkpt lat="44.58836" lon="0.70666">
        <ele>117</ele>
        <time>2012-02-19T08:32:18Z</time>
      </trkpt>
      <trkpt lat="44.58836" lon="0.70671">
        <ele>117</ele>
        <time>2012-02-19T08:32:19Z</time>
      </trkpt>
      <trkpt lat="44.58835" lon="0.70677">
        <ele>118</ele>
        <time>2012-02-19T08:32:20Z</time>
      </trkpt>
      <trkpt lat="44.58835" lon="0.70683">
        <ele>119</ele>
        <time>2012-02-19T08:32:21Z</time>
      </trkpt>
      <trkpt lat="44.58834" lon="0.70688">
        <ele>120</ele>
        <time>2012-02-19T08:32:22Z</time>
      </trkpt>
      <trkpt lat="44.58833" lon="0.70693">
        <ele>120</ele>
        <time>2012-02-19T08:32:23Z</time>
      </trkpt>
      <trkpt lat="44.58832" lon="0.70698">
        <ele>121</ele>
        <time>2012-02-19T08:32:24Z</time>
      </trkpt>
      <trkpt lat="44.58831" lon="0.70703">
        <ele>122</ele>
        <time>2012-02-19T08:32:25Z</time>
      </trkpt>
      <trkpt lat="44.5883" lon="0.70708">
        <ele>123</ele>
        <time>2012-02-19T08:32:26Z</time>
      </trkpt>
      <trkpt lat="44.5883" lon="0.70714">
        <ele>123</ele>
        <time>2012-02-19T08:32:27Z</time>
      </trkpt>
      <trkpt lat="44.58829" lon="0.70719">
        <ele>124</ele>
        <time>2012-02-19T08:32:28Z</time>
      </trkpt>
      <trkpt lat="44.58828" lon="0.70725">
        <ele>124</ele>
        <time>2012-02-19T08:32:29Z</time>
      </trkpt>
      <trkpt lat="44.58828" lon="0.70731">
        <ele>125</ele>
        <time>2012-02-19T08:32:30Z</time>
      </trkpt>
      <trkpt lat="44.58826" lon="0.70737">
        <ele>125</ele>
        <time>2012-02-19T08:32:31Z</time>
      </trkpt>
      <trkpt lat="44.58825" lon="0.70742">
        <ele>125</ele>
        <time>2012-02-19T08:32:32Z</time>
      </trkpt>
      <trkpt lat="44.58823" lon="0.70748">
        <ele>125</ele>
        <time>2012-02-19T08:32:33Z</time>
      </trkpt>
      <trkpt lat="44.5882" lon="0.70753">
        <ele>125</ele>
        <time>2012-02-19T08:32:34Z</time>
      </trkpt>
      <trkpt lat="44.58818" lon="0.70757">
        <ele>125</ele>
        <time>2012-02-19T08:32:35Z</time>
      </trkpt>
      <trkpt lat="44.58815" lon="0.70761">
        <ele>125</ele>
        <time>2012-02-19T08:32:36Z</time>
      </trkpt>
      <trkpt lat="44.58812" lon="0.70765">
        <ele>125</ele>
        <time>2012-02-19T08:32:37Z</time>
      </trkpt>
      <trkpt lat="44.58809" lon="0.70769">
        <ele>125</ele>
        <time>2012-02-19T08:32:38Z</time>
      </trkpt>
      <trkpt lat="44.58809" lon="0.70774">
        <ele>125</ele>
        <time>2012-02-19T08:32:39Z</time>
      </trkpt>
      <trkpt lat="44.58808" lon="0.70778">
        <ele>125</ele>
        <time>2012-02-19T08:32:40Z</time>
      </trkpt>
      <trkpt lat="44.5881" lon="0.70781">
        <ele>125</ele>
        <time>2012-02-19T08:32:41Z</time>
      </trkpt>
      <trkpt lat="44.58813" lon="0.70783">
        <ele>125</ele>
        <time>2012-02-19T08:32:42Z</time>
      </trkpt>
      <trkpt lat="44.58817" lon="0.70784">
        <ele>125</ele>
        <time>2012-02-19T08:32:43Z</time>
      </trkpt>
      <trkpt lat="44.58821" lon="0.70786">
        <ele>125</ele>
        <time>2012-02-19T08:32:44Z</time>
      </trkpt>
      <trkpt lat="44.58824" lon="0.70788">
        <ele>125</ele>
        <time>2012-02-19T08:32:45Z</time>
      </trkpt>
      <trkpt lat="44.58828" lon="0.70789">
        <ele>125</ele>
        <time>2012-02-19T08:32:46Z</time>
      </trkpt>
      <trkpt lat="44.58832" lon="0.70791">
        <ele>125</ele>
        <time>2012-02-19T08:32:47Z</time>
      </trkpt>
      <trkpt lat="44.58835" lon="0.70793">
        <ele>125</ele>
        <time>2012-02-19T08:32:48Z</time>
      </trkpt>
      <trkpt lat="44.58839" lon="0.70794">
        <ele>125</ele>
        <time>2012-02-19T08:32:49Z</time>
      </trkpt>
      <trkpt lat="44.58842" lon="0.70795">
        <ele>125</ele>
        <time>2012-02-19T08:32:50Z</time>
      </trkpt>
      <trkpt lat="44.58846" lon="0.70797">
        <ele>125</ele>
        <time>2012-02-19T08:32:51Z</time>
      </trkpt>
      <trkpt lat="44.58849" lon="0.70798">
        <ele>125</ele>
        <time>2012-02-19T08:32:52Z</time>
      </trkpt>
      <trkpt lat="44.58852" lon="0.70799">
        <ele>125</ele>
        <time>2012-02-19T08:32:53Z</time>
      </trkpt>
      <trkpt lat="44.58855" lon="0.708">
        <ele>125</ele>
        <time>2012-02-19T08:32:54Z</time>
      </trkpt>
      <trkpt lat="44.58858" lon="0.70802">
        <ele>125</ele>
        <time>2012-02-19T08:32:55Z</time>
      </trkpt>
      <trkpt lat="44.58861" lon="0.70803">
        <ele>125</ele>
        <time>2012-02-19T08:32:56Z</time>
      </trkpt>
      <trkpt lat="44.58864" lon="0.70804">
        <ele>125</ele>
        <time>2012-02-19T08:32:57Z</time>
      </trkpt>
      <trkpt lat="44.58867" lon="0.70805">
        <ele>125</ele>
        <time>2012-02-19T08:32:58Z</time>
      </trkpt>
      <trkpt lat="44.58871" lon="0.70806">
        <ele>125</ele>
        <time>2012-02-19T08:32:59Z</time>
      </trkpt>
      <trkpt lat="44.58874" lon="0.70807">
        <ele>125</ele>
        <time>2012-02-19T08:33:00Z</time>
      </trkpt>
      <trkpt lat="44.58878" lon="0.70809">
        <ele>125</ele>
        <time>2012-02-19T08:33:01Z</time>
      </trkpt>
      <trkpt lat="44.58881" lon="0.7081">
        <ele>125</ele>
        <time>2012-02-19T08:33:02Z</time>
      </trkpt>
      <trkpt lat="44.58885" lon="0.70812">
        <ele>125</ele>
        <time>2012-02-19T08:33:03Z</time>
      </trkpt>
      <trkpt lat="44.58889" lon="0.70813">
        <ele>125</ele>
        <time>2012-02-19T08:33:04Z</time>
      </trkpt>
      <trkpt lat="44.58892" lon="0.70815">
        <ele>125</ele>
        <time>2012-02-19T08:33:05Z</time>
      </trkpt>
      <trkpt lat="44.58897" lon="0.70817">
        <ele>125</ele>
        <time>2012-02-19T08:33:06Z</time>
      </trkpt>
      <trkpt lat="44.58901" lon="0.70818">
        <ele>125</ele>
        <time>2012-02-19T08:33:07Z</time>
      </trkpt>
      <trkpt lat="44.58905" lon="0.7082">
        <ele>125</ele>
        <time>2012-02-19T08:33:08Z</time>
      </trkpt>
      <trkpt lat="44.58909" lon="0.70821">
        <ele>125</ele>
        <time>2012-02-19T08:33:09Z</time>
      </trkpt>
      <trkpt lat="44.58913" lon="0.70823">
        <ele>125</ele>
        <time>2012-02-19T08:33:10Z</time>
      </trkpt>
      <trkpt lat="44.58917" lon="0.70824">
        <ele>125</ele>
        <time>2012-02-19T08:33:11Z</time>
      </trkpt>
      <trkpt lat="44.58921" lon="0.70826">
        <ele>125</ele>
        <time>2012-02-19T08:33:12Z</time>
      </trkpt>
      <trkpt lat="44.58925" lon="0.70827">
        <ele>125</ele>
        <time>2012-02-19T08:33:13Z</time>
      </trkpt>
      <trkpt lat="44.58929" lon="0.70828">
        <ele>125</ele>
        <time>2012-02-19T08:33:14Z</time>
      </trkpt>
      <trkpt lat="44.58934" lon="0.70829">
        <ele>125</ele>
        <time>2012-02-19T08:33:15Z</time>
      </trkpt>
      <trkpt lat="44.58938" lon="0.70831">
        <ele>125</ele>
        <time>2012-02-19T08:33:16Z</time>
      </trkpt>
      <trkpt lat="44.58942" lon="0.70832">
        <ele>125</ele>
        <time>2012-02-19T08:33:17Z</time>
      </trkpt>
      <trkpt lat="44.58946" lon="0.70833">
        <ele>125</ele>
        <time>2012-02-19T08:33:18Z</time>
      </trkpt>
      <trkpt lat="44.58951" lon="0.70835">
        <ele>125</ele>
        <time>2012-02-19T08:33:19Z</time>
      </trkpt>
      <trkpt lat="44.58955" lon="0.70836">
        <ele>125</ele>
        <time>2012-02-19T08:33:20Z</time>
      </trkpt>
      <trkpt lat="44.5896" lon="0.70838">
        <ele>125</ele>
        <time>2012-02-19T08:33:21Z</time>
      </trkpt>
      <trkpt lat="44.58964" lon="0.70839">
        <ele>125</ele>
        <time>2012-02-19T08:33:22Z</time>
      </trkpt>
      <trkpt lat="44.58968" lon="0.70841">
        <ele>125</ele>
        <time>2012-02-19T08:33:23Z</time>
      </trkpt>
      <trkpt lat="44.58973" lon="0.70842">
        <ele>125</ele>
        <time>2012-02-19T08:33:24Z</time>
      </trkpt>
      <trkpt lat="44.58977" lon="0.70844">
        <ele>125</ele>
        <time>2012-02-19T08:33:25Z</time>
      </trkpt>
      <trkpt lat="44.58981" lon="0.70845">
        <ele>125</ele>
        <time>2012-02-19T08:33:26Z</time>
      </trkpt>
      <trkpt lat="44.58986" lon="0.70847">
        <ele>125</ele>
        <time>2012-02-19T08:33:27Z</time>
      </trkpt>
      <trkpt lat="44.5899" lon="0.70849">
        <ele>125</ele>
        <time>2012-02-19T08:33:28Z</time>
      </trkpt>
      <trkpt lat="44.58994" lon="0.70851">
        <ele>125</ele>
        <time>2012-02-19T08:33:29Z</time>
      </trkpt>
      <trkpt lat="44.58998" lon="0.70854">
        <ele>125</ele>
        <time>2012-02-19T08:33:30Z</time>
      </trkpt>
      <trkpt lat="44.59003" lon="0.70856">
        <ele>125</ele>
        <time>2012-02-19T08:33:31Z</time>
      </trkpt>
      <trkpt lat="44.59007" lon="0.70858">
        <ele>125</ele>
        <time>2012-02-19T08:33:32Z</time>
      </trkpt>
      <trkpt lat="44.59011" lon="0.7086">
        <ele>125</ele>
        <time>2012-02-19T08:33:33Z</time>
      </trkpt>
      <trkpt lat="44.59015" lon="0.70863">
        <ele>125</ele>
        <time>2012-02-19T08:33:34Z</time>
      </trkpt>
      <trkpt lat="44.59019" lon="0.70865">
        <ele>125</ele>
        <time>2012-02-19T08:33:35Z</time>
      </trkpt>
      <trkpt lat="44.59023" lon="0.70867">
        <ele>125</ele>
        <time>2012-02-19T08:33:36Z</time>
      </trkpt>
      <trkpt lat="44.59027" lon="0.70869">
        <ele>125</ele>
        <time>2012-02-19T08:33:37Z</time>
      </trkpt>
      <trkpt lat="44.59031" lon="0.70872">
        <ele>125</ele>
        <time>2012-02-19T08:33:38Z</time>
      </trkpt>
      <trkpt lat="44.59034" lon="0.70874">
        <ele>125</ele>
        <time>2012-02-19T08:33:39Z</time>
      </trkpt>
      <trkpt lat="44.59038" lon="0.70876">
        <ele>125</ele>
        <time>2012-02-19T08:33:40Z</time>
      </trkpt>
      <trkpt lat="44.59041" lon="0.70878">
        <ele>125</ele>
        <time>2012-02-19T08:33:41Z</time>
      </trkpt>
      <trkpt lat="44.59045" lon="0.7088">
        <ele>125</ele>
        <time>2012-02-19T08:33:42Z</time>
      </trkpt>
      <trkpt lat="44.59048" lon="0.70882">
        <ele>125</ele>
        <time>2012-02-19T08:33:43Z</time>
      </trkpt>
      <trkpt lat="44.59051" lon="0.70884">
        <ele>125</ele>
        <time>2012-02-19T08:33:44Z</time>
      </trkpt>
      <trkpt lat="44.59054" lon="0.70886">
        <ele>125</ele>
        <time>2012-02-19T08:33:45Z</time>
      </trkpt>
      <trkpt lat="44.59057" lon="0.70888">
        <ele>125</ele>
        <time>2012-02-19T08:33:46Z</time>
      </trkpt>
      <trkpt lat="44.59059" lon="0.7089">
        <ele>125</ele>
        <time>2012-02-19T08:33:47Z</time>
      </trkpt>
      <trkpt lat="44.59062" lon="0.70891">
        <ele>125</ele>
        <time>2012-02-19T08:33:48Z</time>
      </trkpt>
      <trkpt lat="44.59065" lon="0.70893">
        <ele>125</ele>
        <time>2012-02-19T08:33:49Z</time>
      </trkpt>
      <trkpt lat="44.59068" lon="0.70895">
        <ele>125</ele>
        <time>2012-02-19T08:33:50Z</time>
      </trkpt>
      <trkpt lat="44.59071" lon="0.70897">
        <ele>125</ele>
        <time>2012-02-19T08:33:51Z</time>
      </trkpt>
      <trkpt lat="44.59074" lon="0.70898">
        <ele>125</ele>
        <time>2012-02-19T08:33:52Z</time>
      </trkpt>
      <trkpt lat="44.59076" lon="0.709">
        <ele>125</ele>
        <time>2012-02-19T08:33:53Z</time>
      </trkpt>
      <trkpt lat="44.59079" lon="0.70902">
        <ele>125</ele>
        <time>2012-02-19T08:33:54Z</time>
      </trkpt>
      <trkpt lat="44.59082" lon="0.70904">
        <ele>125</ele>
        <time>2012-02-19T08:33:55Z</time>
      </trkpt>
      <trkpt lat="44.59084" lon="0.70906">
        <ele>125</ele>
        <time>2012-02-19T08:33:56Z</time>
      </trkpt>
      <trkpt lat="44.59087" lon="0.70907">
        <ele>125</ele>
        <time>2012-02-19T08:33:57Z</time>
      </trkpt>
      <trkpt lat="44.5909" lon="0.70909">
        <ele>126</ele>
        <time>2012-02-19T08:33:58Z</time>
      </trkpt>
      <trkpt lat="44.59092" lon="0.70911">
        <ele>126</ele>
        <time>2012-02-19T08:33:59Z</time>
      </trkpt>
      <trkpt lat="44.59095" lon="0.70912">
        <ele>126</ele>
        <time>2012-02-19T08:34:00Z</time>
      </trkpt>
      <trkpt lat="44.59097" lon="0.70913">
        <ele>126</ele>
        <time>2012-02-19T08:34:01Z</time>
      </trkpt>
      <trkpt lat="44.59099" lon="0.70915">
        <ele>126</ele>
        <time>2012-02-19T08:34:02Z</time>
      </trkpt>
      <trkpt lat="44.59101" lon="0.70916">
        <ele>126</ele>
        <time>2012-02-19T08:34:03Z</time>
      </trkpt>
      <trkpt lat="44.59103" lon="0.70916">
        <ele>126</ele>
        <time>2012-02-19T08:34:04Z</time>
      </trkpt>
      <trkpt lat="44.59105" lon="0.70917">
        <ele>126</ele>
        <time>2012-02-19T08:34:05Z</time>
      </trkpt>
      <trkpt lat="44.59107" lon="0.70919">
        <ele>126</ele>
        <time>2012-02-19T08:34:06Z</time>
      </trkpt>
      <trkpt lat="44.5911" lon="0.70921">
        <ele>126</ele>
        <time>2012-02-19T08:34:07Z</time>
      </trkpt>
      <trkpt lat="44.59113" lon="0.70924">
        <ele>126</ele>
        <time>2012-02-19T08:34:08Z</time>
      </trkpt>
      <trkpt lat="44.59116" lon="0.70928">
        <ele>126</ele>
        <time>2012-02-19T08:34:09Z</time>
      </trkpt>
      <trkpt lat="44.59119" lon="0.70931">
        <ele>126</ele>
        <time>2012-02-19T08:34:10Z</time>
      </trkpt>
      <trkpt lat="44.59123" lon="0.70935">
        <ele>126</ele>
        <time>2012-02-19T08:34:11Z</time>
      </trkpt>
      <trkpt lat="44.59127" lon="0.7094">
        <ele>126</ele>
        <time>2012-02-19T08:34:12Z</time>
      </trkpt>
      <trkpt lat="44.5913" lon="0.70945">
        <ele>126</ele>
        <time>2012-02-19T08:34:13Z</time>
      </trkpt>
      <trkpt lat="44.59135" lon="0.70949">
        <ele>126</ele>
        <time>2012-02-19T08:34:14Z</time>
      </trkpt>
      <trkpt lat="44.59138" lon="0.70954">
        <ele>126</ele>
        <time>2012-02-19T08:34:15Z</time>
      </trkpt>
      <trkpt lat="44.59142" lon="0.70959">
        <ele>126</ele>
        <time>2012-02-19T08:34:16Z</time>
      </trkpt>
      <trkpt lat="44.59146" lon="0.70964">
        <ele>126</ele>
        <time>2012-02-19T08:34:17Z</time>
      </trkpt>
      <trkpt lat="44.5915" lon="0.70969">
        <ele>126</ele>
        <time>2012-02-19T08:34:18Z</time>
      </trkpt>
      <trkpt lat="44.59155" lon="0.70973">
        <ele>126</ele>
        <time>2012-02-19T08:34:19Z</time>
      </trkpt>
      <trkpt lat="44.59158" lon="0.70978">
        <ele>126</ele>
        <time>2012-02-19T08:34:20Z</time>
      </trkpt>
      <trkpt lat="44.59163" lon="0.70983">
        <ele>126</ele>
        <time>2012-02-19T08:34:21Z</time>
      </trkpt>
      <trkpt lat="44.59167" lon="0.70988">
        <ele>126</ele>
        <time>2012-02-19T08:34:22Z</time>
      </trkpt>
      <trkpt lat="44.59171" lon="0.70993">
        <ele>126</ele>
        <time>2012-02-19T08:34:23Z</time>
      </trkpt>
      <trkpt lat="44.59176" lon="0.70999">
        <ele>125</ele>
        <time>2012-02-19T08:34:24Z</time>
      </trkpt>
      <trkpt lat="44.5918" lon="0.71004">
        <ele>125</ele>
        <time>2012-02-19T08:34:25Z</time>
      </trkpt>
      <trkpt lat="44.59185" lon="0.7101">
        <ele>124</ele>
        <time>2012-02-19T08:34:26Z</time>
      </trkpt>
      <trkpt lat="44.59189" lon="0.71017">
        <ele>123</ele>
        <time>2012-02-19T08:34:27Z</time>
      </trkpt>
      <trkpt lat="44.59193" lon="0.71024">
        <ele>123</ele>
        <time>2012-02-19T08:34:28Z</time>
      </trkpt>
      <trkpt lat="44.59197" lon="0.7103">
        <ele>122</ele>
        <time>2012-02-19T08:34:29Z</time>
      </trkpt>
      <trkpt lat="44.59201" lon="0.71037">
        <ele>121</ele>
        <time>2012-02-19T08:34:30Z</time>
      </trkpt>
      <trkpt lat="44.59204" lon="0.71043">
        <ele>121</ele>
        <time>2012-02-19T08:34:31Z</time>
      </trkpt>
      <trkpt lat="44.59208" lon="0.71049">
        <ele>121</ele>
        <time>2012-02-19T08:34:32Z</time>
      </trkpt>
      <trkpt lat="44.59211" lon="0.71056">
        <ele>120</ele>
        <time>2012-02-19T08:34:33Z</time>
      </trkpt>
      <trkpt lat="44.59214" lon="0.71062">
        <ele>120</ele>
        <time>2012-02-19T08:34:34Z</time>
      </trkpt>
      <trkpt lat="44.59217" lon="0.71069">
        <ele>120</ele>
        <time>2012-02-19T08:34:35Z</time>
      </trkpt>
      <trkpt lat="44.59221" lon="0.71076">
        <ele>120</ele>
        <time>2012-02-19T08:34:36Z</time>
      </trkpt>
      <trkpt lat="44.59224" lon="0.71083">
        <ele>120</ele>
        <time>2012-02-19T08:34:37Z</time>
      </trkpt>
      <trkpt lat="44.59227" lon="0.7109">
        <ele>120</ele>
        <time>2012-02-19T08:34:38Z</time>
      </trkpt>
      <trkpt lat="44.5923" lon="0.71097">
        <ele>120</ele>
        <time>2012-02-19T08:34:39Z</time>
      </trkpt>
      <trkpt lat="44.59233" lon="0.71104">
        <ele>119</ele>
        <time>2012-02-19T08:34:40Z</time>
      </trkpt>
      <trkpt lat="44.59236" lon="0.71111">
        <ele>119</ele>
        <time>2012-02-19T08:34:41Z</time>
      </trkpt>
      <trkpt lat="44.59239" lon="0.71118">
        <ele>119</ele>
        <time>2012-02-19T08:34:42Z</time>
      </trkpt>
      <trkpt lat="44.59242" lon="0.71126">
        <ele>119</ele>
        <time>2012-02-19T08:34:43Z</time>
      </trkpt>
      <trkpt lat="44.59245" lon="0.71132">
        <ele>119</ele>
        <time>2012-02-19T08:34:44Z</time>
      </trkpt>
      <trkpt lat="44.59248" lon="0.71139">
        <ele>119</ele>
        <time>2012-02-19T08:34:45Z</time>
      </trkpt>
      <trkpt lat="44.59251" lon="0.71145">
        <ele>119</ele>
        <time>2012-02-19T08:34:46Z</time>
      </trkpt>
      <trkpt lat="44.59255" lon="0.7115">
        <ele>119</ele>
        <time>2012-02-19T08:34:47Z</time>
      </trkpt>
      <trkpt lat="44.59259" lon="0.71155">
        <ele>119</ele>
        <time>2012-02-19T08:34:48Z</time>
      </trkpt>
      <trkpt lat="44.59262" lon="0.71159">
        <ele>119</ele>
        <time>2012-02-19T08:34:49Z</time>
      </trkpt>
      <trkpt lat="44.59266" lon="0.71162">
        <ele>119</ele>
        <time>2012-02-19T08:34:50Z</time>
      </trkpt>
      <trkpt lat="44.5927" lon="0.71165">
        <ele>119</ele>
        <time>2012-02-19T08:34:51Z</time>
      </trkpt>
      <trkpt lat="44.59274" lon="0.71167">
        <ele>119</ele>
        <time>2012-02-19T08:34:52Z</time>
      </trkpt>
      <trkpt lat="44.59278" lon="0.7117">
        <ele>119</ele>
        <time>2012-02-19T08:34:53Z</time>
      </trkpt>
      <trkpt lat="44.59282" lon="0.71173">
        <ele>119</ele>
        <time>2012-02-19T08:34:54Z</time>
      </trkpt>
      <trkpt lat="44.59285" lon="0.71176">
        <ele>119</ele>
        <time>2012-02-19T08:34:55Z</time>
      </trkpt>
      <trkpt lat="44.59289" lon="0.71178">
        <ele>119</ele>
        <time>2012-02-19T08:34:56Z</time>
      </trkpt>
      <trkpt lat="44.59293" lon="0.7118">
        <ele>119</ele>
        <time>2012-02-19T08:34:57Z</time>
      </trkpt>
      <trkpt lat="44.59297" lon="0.71183">
        <ele>119</ele>
        <time>2012-02-19T08:34:58Z</time>
      </trkpt>
      <trkpt lat="44.593" lon="0.71185">
        <ele>119</ele>
        <time>2012-02-19T08:34:59Z</time>
      </trkpt>
      <trkpt lat="44.59304" lon="0.71188">
        <ele>119</ele>
        <time>2012-02-19T08:35:00Z</time>
      </trkpt>
      <trkpt lat="44.59307" lon="0.71191">
        <ele>119</ele>
        <time>2012-02-19T08:35:01Z</time>
      </trkpt>
      <trkpt lat="44.59311" lon="0.71193">
        <ele>119</ele>
        <time>2012-02-19T08:35:02Z</time>
      </trkpt>
      <trkpt lat="44.59314" lon="0.71195">
        <ele>119</ele>
        <time>2012-02-19T08:35:03Z</time>
      </trkpt>
      <trkpt lat="44.59317" lon="0.71196">
        <ele>119</ele>
        <time>2012-02-19T08:35:04Z</time>
      </trkpt>
      <trkpt lat="44.5932" lon="0.71198">
        <ele>119</ele>
        <time>2012-02-19T08:35:05Z</time>
      </trkpt>
      <trkpt lat="44.59323" lon="0.71199">
        <ele>119</ele>
        <time>2012-02-19T08:35:06Z</time>
      </trkpt>
      <trkpt lat="44.59326" lon="0.712">
        <ele>119</ele>
        <time>2012-02-19T08:35:07Z</time>
      </trkpt>
      <trkpt lat="44.59329" lon="0.71202">
        <ele>119</ele>
        <time>2012-02-19T08:35:08Z</time>
      </trkpt>
      <trkpt lat="44.59333" lon="0.71205">
        <ele>119</ele>
        <time>2012-02-19T08:35:09Z</time>
      </trkpt>
      <trkpt lat="44.59336" lon="0.71207">
        <ele>119</ele>
        <time>2012-02-19T08:35:10Z</time>
      </trkpt>
      <trkpt lat="44.59339" lon="0.71208">
        <ele>119</ele>
        <time>2012-02-19T08:35:11Z</time>
      </trkpt>
      <trkpt lat="44.59342" lon="0.7121">
        <ele>119</ele>
        <time>2012-02-19T08:35:12Z</time>
      </trkpt>
      <trkpt lat="44.59345" lon="0.71212">
        <ele>119</ele>
        <time>2012-02-19T08:35:13Z</time>
      </trkpt>
      <trkpt lat="44.59349" lon="0.71214">
        <ele>119</ele>
        <time>2012-02-19T08:35:14Z</time>
      </trkpt>
      <trkpt lat="44.59352" lon="0.71216">
        <ele>119</ele>
        <time>2012-02-19T08:35:15Z</time>
      </trkpt>
      <trkpt lat="44.59355" lon="0.71217">
        <ele>119</ele>
        <time>2012-02-19T08:35:16Z</time>
      </trkpt>
      <trkpt lat="44.59359" lon="0.71218">
        <ele>119</ele>
        <time>2012-02-19T08:35:17Z</time>
      </trkpt>
      <trkpt lat="44.59362" lon="0.71219">
        <ele>119</ele>
        <time>2012-02-19T08:35:18Z</time>
      </trkpt>
      <trkpt lat="44.59365" lon="0.71221">
        <ele>119</ele>
        <time>2012-02-19T08:35:19Z</time>
      </trkpt>
      <trkpt lat="44.59368" lon="0.71222">
        <ele>119</ele>
        <time>2012-02-19T08:35:20Z</time>
      </trkpt>
      <trkpt lat="44.59372" lon="0.71223">
        <ele>119</ele>
        <time>2012-02-19T08:35:21Z</time>
      </trkpt>
      <trkpt lat="44.59375" lon="0.71224">
        <ele>119</ele>
        <time>2012-02-19T08:35:22Z</time>
      </trkpt>
      <trkpt lat="44.59378" lon="0.71226">
        <ele>119</ele>
        <time>2012-02-19T08:35:23Z</time>
      </trkpt>
      <trkpt lat="44.59381" lon="0.71227">
        <ele>119</ele>
        <time>2012-02-19T08:35:24Z</time>
      </trkpt>
      <trkpt lat="44.59385" lon="0.71228">
        <ele>119</ele>
        <time>2012-02-19T08:35:25Z</time>
      </trkpt>
      <trkpt lat="44.59388" lon="0.71228">
        <ele>119</ele>
        <time>2012-02-19T08:35:26Z</time>
      </trkpt>
      <trkpt lat="44.59392" lon="0.71228">
        <ele>119</ele>
        <time>2012-02-19T08:35:27Z</time>
      </trkpt>
      <trkpt lat="44.59396" lon="0.71229">
        <ele>119</ele>
        <time>2012-02-19T08:35:28Z</time>
      </trkpt>
      <trkpt lat="44.59399" lon="0.7123">
        <ele>119</ele>
        <time>2012-02-19T08:35:29Z</time>
      </trkpt>
      <trkpt lat="44.59402" lon="0.71231">
        <ele>119</ele>
        <time>2012-02-19T08:35:30Z</time>
      </trkpt>
      <trkpt lat="44.59405" lon="0.71231">
        <ele>119</ele>
        <time>2012-02-19T08:35:31Z</time>
      </trkpt>
      <trkpt lat="44.59408" lon="0.71231">
        <ele>119</ele>
        <time>2012-02-19T08:35:32Z</time>
      </trkpt>
      <trkpt lat="44.59411" lon="0.71232">
        <ele>119</ele>
        <time>2012-02-19T08:35:33Z</time>
      </trkpt>
      <trkpt lat="44.59414" lon="0.71233">
        <ele>119</ele>
        <time>2012-02-19T08:35:34Z</time>
      </trkpt>
      <trkpt lat="44.59417" lon="0.71234">
        <ele>119</ele>
        <time>2012-02-19T08:35:35Z</time>
      </trkpt>
      <trkpt lat="44.5942" lon="0.71235">
        <ele>119</ele>
        <time>2012-02-19T08:35:36Z</time>
      </trkpt>
      <trkpt lat="44.59424" lon="0.71236">
        <ele>119</ele>
        <time>2012-02-19T08:35:37Z</time>
      </trkpt>
      <trkpt lat="44.59427" lon="0.71236">
        <ele>119</ele>
        <time>2012-02-19T08:35:38Z</time>
      </trkpt>
      <trkpt lat="44.5943" lon="0.71237">
        <ele>119</ele>
        <time>2012-02-19T08:35:39Z</time>
      </trkpt>
      <trkpt lat="44.59433" lon="0.71238">
        <ele>119</ele>
        <time>2012-02-19T08:35:40Z</time>
      </trkpt>
      <trkpt lat="44.59436" lon="0.71239">
        <ele>119</ele>
        <time>2012-02-19T08:35:41Z</time>
      </trkpt>
      <trkpt lat="44.59439" lon="0.7124">
        <ele>119</ele>
        <time>2012-02-19T08:35:42Z</time>
      </trkpt>
      <trkpt lat="44.59442" lon="0.7124">
        <ele>119</ele>
        <time>2012-02-19T08:35:43Z</time>
      </trkpt>
      <trkpt lat="44.59445" lon="0.71241">
        <ele>119</ele>
        <time>2012-02-19T08:35:44Z</time>
      </trkpt>
      <trkpt lat="44.59448" lon="0.71241">
        <ele>119</ele>
        <time>2012-02-19T08:35:45Z</time>
      </trkpt>
      <trkpt lat="44.5945" lon="0.71242">
        <ele>119</ele>
        <time>2012-02-19T08:35:46Z</time>
      </trkpt>
      <trkpt lat="44.59452" lon="0.71244">
        <ele>119</ele>
        <time>2012-02-19T08:35:47Z</time>
      </trkpt>
      <trkpt lat="44.59455" lon="0.71245">
        <ele>119</ele>
        <time>2012-02-19T08:35:48Z</time>
      </trkpt>
      <trkpt lat="44.59457" lon="0.71245">
        <ele>119</ele>
        <time>2012-02-19T08:35:49Z</time>
      </trkpt>
      <trkpt lat="44.5946" lon="0.71246">
        <ele>119</ele>
        <time>2012-02-19T08:35:50Z</time>
      </trkpt>
      <trkpt lat="44.59462" lon="0.71247">
        <ele>119</ele>
        <time>2012-02-19T08:35:51Z</time>
      </trkpt>
      <trkpt lat="44.59465" lon="0.71248">
        <ele>119</ele>
        <time>2012-02-19T08:35:52Z</time>
      </trkpt>
      <trkpt lat="44.59467" lon="0.71249">
        <ele>119</ele>
        <time>2012-02-19T08:35:53Z</time>
      </trkpt>
      <trkpt lat="44.59469" lon="0.7125">
        <ele>119</ele>
        <time>2012-02-19T08:35:54Z</time>
      </trkpt>
      <trkpt lat="44.59471" lon="0.71251">
        <ele>119</ele>
        <time>2012-02-19T08:35:55Z</time>
      </trkpt>
      <trkpt lat="44.59473" lon="0.71252">
        <ele>119</ele>
        <time>2012-02-19T08:35:56Z</time>
      </trkpt>
      <trkpt lat="44.59476" lon="0.71253">
        <ele>119</ele>
        <time>2012-02-19T08:35:57Z</time>
      </trkpt>
      <trkpt lat="44.59477" lon="0.71253">
        <ele>120</ele>
        <time>2012-02-19T08:35:58Z</time>
      </trkpt>
      <trkpt lat="44.59479" lon="0.71254">
        <ele>120</ele>
        <time>2012-02-19T08:35:59Z</time>
      </trkpt>
      <trkpt lat="44.59481" lon="0.71254">
        <ele>120</ele>
        <time>2012-02-19T08:36:00Z</time>
      </trkpt>
      <trkpt lat="44.59484" lon="0.71254">
        <ele>121</ele>
        <time>2012-02-19T08:36:01Z</time>
      </trkpt>
      <trkpt lat="44.59486" lon="0.71254">
        <ele>121</ele>
        <time>2012-02-19T08:36:02Z</time>
      </trkpt>
      <trkpt lat="44.59489" lon="0.71255">
        <ele>121</ele>
        <time>2012-02-19T08:36:03Z</time>
      </trkpt>
      <trkpt lat="44.59491" lon="0.71255">
        <ele>121</ele>
        <time>2012-02-19T08:36:04Z</time>
      </trkpt>
      <trkpt lat="44.59493" lon="0.71255">
        <ele>121</ele>
        <time>2012-02-19T08:36:05Z</time>
      </trkpt>
      <trkpt lat="44.59496" lon="0.71256">
        <ele>121</ele>
        <time>2012-02-19T08:36:06Z</time>
      </trkpt>
      <trkpt lat="44.59498" lon="0.71256">
        <ele>121</ele>
        <time>2012-02-19T08:36:07Z</time>
      </trkpt>
      <trkpt lat="44.59501" lon="0.71257">
        <ele>122</ele>
        <time>2012-02-19T08:36:08Z</time>
      </trkpt>
      <trkpt lat="44.59503" lon="0.71257">
        <ele>122</ele>
        <time>2012-02-19T08:36:09Z</time>
      </trkpt>
      <trkpt lat="44.59505" lon="0.71257">
        <ele>122</ele>
        <time>2012-02-19T08:36:10Z</time>
      </trkpt>
      <trkpt lat="44.59507" lon="0.71257">
        <ele>122</ele>
        <time>2012-02-19T08:36:11Z</time>
      </trkpt>
      <trkpt lat="44.5951" lon="0.71258">
        <ele>122</ele>
        <time>2012-02-19T08:36:12Z</time>
      </trkpt>
      <trkpt lat="44.59512" lon="0.71258">
        <ele>123</ele>
        <time>2012-02-19T08:36:13Z</time>
      </trkpt>
      <trkpt lat="44.59515" lon="0.71259">
        <ele>123</ele>
        <time>2012-02-19T08:36:14Z</time>
      </trkpt>
      <trkpt lat="44.59517" lon="0.71259">
        <ele>123</ele>
        <time>2012-02-19T08:36:15Z</time>
      </trkpt>
      <trkpt lat="44.5952" lon="0.71259">
        <ele>123</ele>
        <time>2012-02-19T08:36:16Z</time>
      </trkpt>
      <trkpt lat="44.59522" lon="0.7126">
        <ele>123</ele>
        <time>2012-02-19T08:36:17Z</time>
      </trkpt>
      <trkpt lat="44.59525" lon="0.7126">
        <ele>124</ele>
        <time>2012-02-19T08:36:18Z</time>
      </trkpt>
      <trkpt lat="44.59527" lon="0.71261">
        <ele>124</ele>
        <time>2012-02-19T08:36:19Z</time>
      </trkpt>
      <trkpt lat="44.5953" lon="0.71261">
        <ele>124</ele>
        <time>2012-02-19T08:36:20Z</time>
      </trkpt>
      <trkpt lat="44.59532" lon="0.71261">
        <ele>124</ele>
        <time>2012-02-19T08:36:21Z</time>
      </trkpt>
      <trkpt lat="44.59535" lon="0.71262">
        <ele>125</ele>
        <time>2012-02-19T08:36:22Z</time>
      </trkpt>
      <trkpt lat="44.59537" lon="0.71262">
        <ele>125</ele>
        <time>2012-02-19T08:36:23Z</time>
      </trkpt>
      <trkpt lat="44.59539" lon="0.71263">
        <ele>125</ele>
        <time>2012-02-19T08:36:24Z</time>
      </trkpt>
      <trkpt lat="44.59542" lon="0.71263">
        <ele>125</ele>
        <time>2012-02-19T08:36:25Z</time>
      </trkpt>
      <trkpt lat="44.59544" lon="0.71264">
        <ele>125</ele>
        <time>2012-02-19T08:36:26Z</time>
      </trkpt>
      <trkpt lat="44.59546" lon="0.71264">
        <ele>125</ele>
        <time>2012-02-19T08:36:27Z</time>
      </trkpt>
      <trkpt lat="44.59547" lon="0.71265">
        <ele>125</ele>
        <time>2012-02-19T08:36:28Z</time>
      </trkpt>
      <trkpt lat="44.59549" lon="0.71265">
        <ele>125</ele>
        <time>2012-02-19T08:36:29Z</time>
      </trkpt>
      <trkpt lat="44.5955" lon="0.71266">
        <ele>125</ele>
        <time>2012-02-19T08:36:30Z</time>
      </trkpt>
      <trkpt lat="44.59551" lon="0.71266">
        <ele>125</ele>
        <time>2012-02-19T08:36:31Z</time>
      </trkpt>
      <trkpt lat="44.59552" lon="0.71267">
        <ele>125</ele>
        <time>2012-02-19T08:36:32Z</time>
      </trkpt>
      <trkpt lat="44.59554" lon="0.71267">
        <ele>125</ele>
        <time>2012-02-19T08:36:33Z</time>
      </trkpt>
      <trkpt lat="44.59555" lon="0.71267">
        <ele>125</ele>
        <time>2012-02-19T08:36:34Z</time>
      </trkpt>
      <trkpt lat="44.59557" lon="0.71267">
        <ele>125</ele>
        <time>2012-02-19T08:36:35Z</time>
      </trkpt>
      <trkpt lat="44.59558" lon="0.71267">
        <ele>125</ele>
        <time>2012-02-19T08:36:36Z</time>
      </trkpt>
      <trkpt lat="44.59559" lon="0.71267">
        <ele>125</ele>
        <time>2012-02-19T08:36:37Z</time>
      </trkpt>
      <trkpt lat="44.59561" lon="0.71268">
        <ele>125</ele>
        <time>2012-02-19T08:36:38Z</time>
      </trkpt>
      <trkpt lat="44.59562" lon="0.71268">
        <ele>125</ele>
        <time>2012-02-19T08:36:39Z</time>
      </trkpt>
      <trkpt lat="44.59564" lon="0.71268">
        <ele>125</ele>
        <time>2012-02-19T08:36:40Z</time>
      </trkpt>
      <trkpt lat="44.59565" lon="0.71268">
        <ele>125</ele>
        <time>2012-02-19T08:36:41Z</time>
      </trkpt>
      <trkpt lat="44.59567" lon="0.71268">
        <ele>125</ele>
        <time>2012-02-19T08:36:42Z</time>
      </trkpt>
      <trkpt lat="44.59568" lon="0.71269">
        <ele>125</ele>
        <time>2012-02-19T08:36:43Z</time>
      </trkpt>
      <trkpt lat="44.5957" lon="0.7127">
        <ele>125</ele>
        <time>2012-02-19T08:36:44Z</time>
      </trkpt>
      <trkpt lat="44.59571" lon="0.7127">
        <ele>125</ele>
        <time>2012-02-19T08:36:45Z</time>
      </trkpt>
      <trkpt lat="44.59573" lon="0.71271">
        <ele>125</ele>
        <time>2012-02-19T08:36:46Z</time>
      </trkpt>
      <trkpt lat="44.59574" lon="0.71272">
        <ele>125</ele>
        <time>2012-02-19T08:36:47Z</time>
      </trkpt>
      <trkpt lat="44.59576" lon="0.71271">
        <ele>125</ele>
        <time>2012-02-19T08:36:49Z</time>
      </trkpt>
      <trkpt lat="44.59577" lon="0.71271">
        <ele>125</ele>
        <time>2012-02-19T08:36:50Z</time>
      </trkpt>
      <trkpt lat="44.59579" lon="0.7127">
        <ele>125</ele>
        <time>2012-02-19T08:36:51Z</time>
      </trkpt>
      <trkpt lat="44.5958" lon="0.71269">
        <ele>125</ele>
        <time>2012-02-19T08:36:52Z</time>
      </trkpt>
      <trkpt lat="44.59581" lon="0.71268">
        <ele>125</ele>
        <time>2012-02-19T08:36:54Z</time>
      </trkpt>
      <trkpt lat="44.59582" lon="0.71266">
        <ele>125</ele>
        <time>2012-02-19T08:36:57Z</time>
      </trkpt>
      <trkpt lat="44.59583" lon="0.71264">
        <ele>125</ele>
        <time>2012-02-19T08:37:01Z</time>
      </trkpt>
      <trkpt lat="44.59583" lon="0.71262">
        <ele>125</ele>
        <time>2012-02-19T08:37:05Z</time>
      </trkpt>
      <trkpt lat="44.59584" lon="0.71262">
        <ele>125</ele>
        <time>2012-02-19T08:37:07Z</time>
      </trkpt>
      <trkpt lat="44.59586" lon="0.71261">
        <ele>125</ele>
        <time>2012-02-19T08:37:09Z</time>
      </trkpt>
      <trkpt lat="44.59587" lon="0.71262">
        <ele>125</ele>
        <time>2012-02-19T08:37:15Z</time>
      </trkpt>
      <trkpt lat="44.59588" lon="0.71263">
        <ele>125</ele>
        <time>2012-02-19T08:37:20Z</time>
      </trkpt>
      <trkpt lat="44.59588" lon="0.71265">
        <ele>126</ele>
        <time>2012-02-19T08:37:26Z</time>
      </trkpt>
      <trkpt lat="44.5959" lon="0.71266">
        <ele>133</ele>
        <time>2012-02-19T08:37:50Z</time>
      </trkpt>
      <trkpt lat="44.59592" lon="0.71264">
        <ele>133</ele>
        <time>2012-02-19T08:37:52Z</time>
      </trkpt>
      <trkpt lat="44.59593" lon="0.71264">
        <ele>133</ele>
        <time>2012-02-19T08:37:54Z</time>
      </trkpt>
      <trkpt lat="44.59594" lon="0.71263">
        <ele>133</ele>
        <time>2012-02-19T08:37:56Z</time>
      </trkpt>
      <trkpt lat="44.59595" lon="0.71261">
        <ele>133</ele>
        <time>2012-02-19T08:38:11Z</time>
      </trkpt>
      <trkpt lat="44.59595" lon="0.71259">
        <ele>133</ele>
        <time>2012-02-19T08:38:24Z</time>
      </trkpt>
      <trkpt lat="44.59597" lon="0.71259">
        <ele>132</ele>
        <time>2012-02-19T08:38:33Z</time>
      </trkpt>
      <trkpt lat="44.59599" lon="0.71259">
        <ele>132</ele>
        <time>2012-02-19T08:38:35Z</time>
      </trkpt>
      <trkpt lat="44.59601" lon="0.71259">
        <ele>132</ele>
        <time>2012-02-19T08:38:37Z</time>
      </trkpt>
      <trkpt lat="44.59602" lon="0.7126">
        <ele>132</ele>
        <time>2012-02-19T08:38:38Z</time>
      </trkpt>
      <trkpt lat="44.59604" lon="0.7126">
        <ele>132</ele>
        <time>2012-02-19T08:38:40Z</time>
      </trkpt>
      <trkpt lat="44.59607" lon="0.7126">
        <ele>132</ele>
        <time>2012-02-19T08:38:42Z</time>
      </trkpt>
      <trkpt lat="44.59608" lon="0.7126">
        <ele>132</ele>
        <time>2012-02-19T08:38:43Z</time>
      </trkpt>
      <trkpt lat="44.59609" lon="0.7126">
        <ele>132</ele>
        <time>2012-02-19T08:38:44Z</time>
      </trkpt>
      <trkpt lat="44.59611" lon="0.7126">
        <ele>132</ele>
        <time>2012-02-19T08:38:46Z</time>
      </trkpt>
      <trkpt lat="44.59612" lon="0.7126">
        <ele>132</ele>
        <time>2012-02-19T08:38:47Z</time>
      </trkpt>
      <trkpt lat="44.59613" lon="0.7126">
        <ele>132</ele>
        <time>2012-02-19T08:38:48Z</time>
      </trkpt>
      <trkpt lat="44.59615" lon="0.71261">
        <ele>132</ele>
        <time>2012-02-19T08:38:49Z</time>
      </trkpt>
      <trkpt lat="44.59616" lon="0.71261">
        <ele>132</ele>
        <time>2012-02-19T08:38:50Z</time>
      </trkpt>
      <trkpt lat="44.59617" lon="0.7126">
        <ele>132</ele>
        <time>2012-02-19T08:38:51Z</time>
      </trkpt>
      <trkpt lat="44.59618" lon="0.7126">
        <ele>132</ele>
        <time>2012-02-19T08:38:52Z</time>
      </trkpt>
      <trkpt lat="44.59619" lon="0.7126">
        <ele>132</ele>
        <time>2012-02-19T08:38:53Z</time>
      </trkpt>
      <trkpt lat="44.59621" lon="0.7126">
        <ele>132</ele>
        <time>2012-02-19T08:38:54Z</time>
      </trkpt>
      <trkpt lat="44.59622" lon="0.7126">
        <ele>132</ele>
        <time>2012-02-19T08:38:55Z</time>
      </trkpt>
      <trkpt lat="44.59624" lon="0.7126">
        <ele>132</ele>
        <time>2012-02-19T08:38:57Z</time>
      </trkpt>
      <trkpt lat="44.59626" lon="0.7126">
        <ele>132</ele>
        <time>2012-02-19T08:38:59Z</time>
      </trkpt>
      <trkpt lat="44.59628" lon="0.7126">
        <ele>132</ele>
        <time>2012-02-19T08:39:01Z</time>
      </trkpt>
      <trkpt lat="44.5963" lon="0.7126">
        <ele>132</ele>
        <time>2012-02-19T08:39:03Z</time>
      </trkpt>
      <trkpt lat="44.59631" lon="0.7126">
        <ele>132</ele>
        <time>2012-02-19T08:39:04Z</time>
      </trkpt>
      <trkpt lat="44.59632" lon="0.7126">
        <ele>132</ele>
        <time>2012-02-19T08:39:05Z</time>
      </trkpt>
      <trkpt lat="44.59634" lon="0.7126">
        <ele>132</ele>
        <time>2012-02-19T08:39:06Z</time>
      </trkpt>
      <trkpt lat="44.59636" lon="0.7126">
        <ele>132</ele>
        <time>2012-02-19T08:39:08Z</time>
      </trkpt>
      <trkpt lat="44.59637" lon="0.7126">
        <ele>132</ele>
        <time>2012-02-19T08:39:09Z</time>
      </trkpt>
      <trkpt lat="44.59639" lon="0.7126">
        <ele>132</ele>
        <time>2012-02-19T08:39:11Z</time>
      </trkpt>
      <trkpt lat="44.59641" lon="0.7126">
        <ele>132</ele>
        <time>2012-02-19T08:39:12Z</time>
      </trkpt>
      <trkpt lat="44.59642" lon="0.71259">
        <ele>132</ele>
        <time>2012-02-19T08:39:13Z</time>
      </trkpt>
      <trkpt lat="44.59643" lon="0.71259">
        <ele>132</ele>
        <time>2012-02-19T08:39:14Z</time>
      </trkpt>
      <trkpt lat="44.59644" lon="0.71259">
        <ele>132</ele>
        <time>2012-02-19T08:39:15Z</time>
      </trkpt>
      <trkpt lat="44.59646" lon="0.71259">
        <ele>132</ele>
        <time>2012-02-19T08:39:16Z</time>
      </trkpt>
      <trkpt lat="44.59647" lon="0.71259">
        <ele>132</ele>
        <time>2012-02-19T08:39:17Z</time>
      </trkpt>
      <trkpt lat="44.59648" lon="0.71259">
        <ele>132</ele>
        <time>2012-02-19T08:39:18Z</time>
      </trkpt>
      <trkpt lat="44.5965" lon="0.71259">
        <ele>132</ele>
        <time>2012-02-19T08:39:19Z</time>
      </trkpt>
      <trkpt lat="44.59651" lon="0.71259">
        <ele>132</ele>
        <time>2012-02-19T08:39:20Z</time>
      </trkpt>
      <trkpt lat="44.59652" lon="0.71259">
        <ele>132</ele>
        <time>2012-02-19T08:39:21Z</time>
      </trkpt>
      <trkpt lat="44.59653" lon="0.71259">
        <ele>132</ele>
        <time>2012-02-19T08:39:22Z</time>
      </trkpt>
      <trkpt lat="44.59655" lon="0.71258">
        <ele>132</ele>
        <time>2012-02-19T08:39:23Z</time>
      </trkpt>
      <trkpt lat="44.59656" lon="0.71258">
        <ele>132</ele>
        <time>2012-02-19T08:39:24Z</time>
      </trkpt>
      <trkpt lat="44.59657" lon="0.71258">
        <ele>132</ele>
        <time>2012-02-19T08:39:25Z</time>
      </trkpt>
      <trkpt lat="44.59659" lon="0.71258">
        <ele>132</ele>
        <time>2012-02-19T08:39:26Z</time>
      </trkpt>
      <trkpt lat="44.5966" lon="0.71258">
        <ele>132</ele>
        <time>2012-02-19T08:39:27Z</time>
      </trkpt>
      <trkpt lat="44.59661" lon="0.71258">
        <ele>132</ele>
        <time>2012-02-19T08:39:28Z</time>
      </trkpt>
      <trkpt lat="44.59662" lon="0.71256">
        <ele>132</ele>
        <time>2012-02-19T08:39:33Z</time>
      </trkpt>
      <trkpt lat="44.59662" lon="0.71254">
        <ele>132</ele>
        <time>2012-02-19T08:39:43Z</time>
      </trkpt>
      <trkpt lat="44.59663" lon="0.71254">
        <ele>130</ele>
        <time>2012-02-19T08:39:52Z</time>
      </trkpt>
      <trkpt lat="44.59665" lon="0.71254">
        <ele>130</ele>
        <time>2012-02-19T08:39:53Z</time>
      </trkpt>
      <trkpt lat="44.59666" lon="0.71255">
        <ele>130</ele>
        <time>2012-02-19T08:39:54Z</time>
      </trkpt>
      <trkpt lat="44.59667" lon="0.71255">
        <ele>130</ele>
        <time>2012-02-19T08:39:55Z</time>
      </trkpt>
      <trkpt lat="44.59669" lon="0.71255">
        <ele>130</ele>
        <time>2012-02-19T08:39:56Z</time>
      </trkpt>
      <trkpt lat="44.5967" lon="0.71255">
        <ele>130</ele>
        <time>2012-02-19T08:39:57Z</time>
      </trkpt>
      <trkpt lat="44.59671" lon="0.71255">
        <ele>130</ele>
        <time>2012-02-19T08:39:58Z</time>
      </trkpt>
      <trkpt lat="44.59673" lon="0.71255">
        <ele>130</ele>
        <time>2012-02-19T08:39:59Z</time>
      </trkpt>
      <trkpt lat="44.59674" lon="0.71255">
        <ele>130</ele>
        <time>2012-02-19T08:40:00Z</time>
      </trkpt>
      <trkpt lat="44.59676" lon="0.71255">
        <ele>130</ele>
        <time>2012-02-19T08:40:01Z</time>
      </trkpt>
      <trkpt lat="44.59677" lon="0.71254">
        <ele>130</ele>
        <time>2012-02-19T08:40:02Z</time>
      </trkpt>
      <trkpt lat="44.59678" lon="0.71254">
        <ele>130</ele>
        <time>2012-02-19T08:40:03Z</time>
      </trkpt>
      <trkpt lat="44.59679" lon="0.71254">
        <ele>130</ele>
        <time>2012-02-19T08:40:04Z</time>
      </trkpt>
      <trkpt lat="44.59681" lon="0.71254">
        <ele>130</ele>
        <time>2012-02-19T08:40:05Z</time>
      </trkpt>
      <trkpt lat="44.59683" lon="0.71254">
        <ele>130</ele>
        <time>2012-02-19T08:40:07Z</time>
      </trkpt>
      <trkpt lat="44.59684" lon="0.71254">
        <ele>130</ele>
        <time>2012-02-19T08:40:08Z</time>
      </trkpt>
      <trkpt lat="44.59685" lon="0.71254">
        <ele>130</ele>
        <time>2012-02-19T08:40:09Z</time>
      </trkpt>
      <trkpt lat="44.59687" lon="0.71253">
        <ele>130</ele>
        <time>2012-02-19T08:40:10Z</time>
      </trkpt>
      <trkpt lat="44.59688" lon="0.71253">
        <ele>130</ele>
        <time>2012-02-19T08:40:11Z</time>
      </trkpt>
      <trkpt lat="44.59689" lon="0.71253">
        <ele>130</ele>
        <time>2012-02-19T08:40:12Z</time>
      </trkpt>
      <trkpt lat="44.5969" lon="0.71253">
        <ele>130</ele>
        <time>2012-02-19T08:40:13Z</time>
      </trkpt>
      <trkpt lat="44.59692" lon="0.71252">
        <ele>130</ele>
        <time>2012-02-19T08:40:14Z</time>
      </trkpt>
      <trkpt lat="44.59693" lon="0.71252">
        <ele>130</ele>
        <time>2012-02-19T08:40:15Z</time>
      </trkpt>
      <trkpt lat="44.59694" lon="0.71252">
        <ele>130</ele>
        <time>2012-02-19T08:40:16Z</time>
      </trkpt>
      <trkpt lat="44.59695" lon="0.71252">
        <ele>130</ele>
        <time>2012-02-19T08:40:17Z</time>
      </trkpt>
      <trkpt lat="44.59696" lon="0.71251">
        <ele>130</ele>
        <time>2012-02-19T08:40:18Z</time>
      </trkpt>
      <trkpt lat="44.59698" lon="0.71251">
        <ele>130</ele>
        <time>2012-02-19T08:40:19Z</time>
      </trkpt>
      <trkpt lat="44.59699" lon="0.71251">
        <ele>130</ele>
        <time>2012-02-19T08:40:20Z</time>
      </trkpt>
      <trkpt lat="44.597" lon="0.71251">
        <ele>130</ele>
        <time>2012-02-19T08:40:21Z</time>
      </trkpt>
      <trkpt lat="44.59701" lon="0.7125">
        <ele>131</ele>
        <time>2012-02-19T08:40:22Z</time>
      </trkpt>
      <trkpt lat="44.59702" lon="0.7125">
        <ele>131</ele>
        <time>2012-02-19T08:40:23Z</time>
      </trkpt>
      <trkpt lat="44.59704" lon="0.7125">
        <ele>131</ele>
        <time>2012-02-19T08:40:24Z</time>
      </trkpt>
      <trkpt lat="44.59705" lon="0.71249">
        <ele>131</ele>
        <time>2012-02-19T08:40:25Z</time>
      </trkpt>
      <trkpt lat="44.59706" lon="0.71249">
        <ele>131</ele>
        <time>2012-02-19T08:40:26Z</time>
      </trkpt>
      <trkpt lat="44.59708" lon="0.71249">
        <ele>131</ele>
        <time>2012-02-19T08:40:27Z</time>
      </trkpt>
      <trkpt lat="44.59709" lon="0.71248">
        <ele>131</ele>
        <time>2012-02-19T08:40:28Z</time>
      </trkpt>
      <trkpt lat="44.5971" lon="0.71248">
        <ele>131</ele>
        <time>2012-02-19T08:40:29Z</time>
      </trkpt>
      <trkpt lat="44.59712" lon="0.71247">
        <ele>131</ele>
        <time>2012-02-19T08:40:31Z</time>
      </trkpt>
      <trkpt lat="44.59714" lon="0.71245">
        <ele>132</ele>
        <time>2012-02-19T08:40:33Z</time>
      </trkpt>
      <trkpt lat="44.59715" lon="0.71243">
        <ele>132</ele>
        <time>2012-02-19T08:40:38Z</time>
      </trkpt>
      <trkpt lat="44.59717" lon="0.71241">
        <ele>132</ele>
        <time>2012-02-19T08:40:40Z</time>
      </trkpt>
      <trkpt lat="44.59719" lon="0.71241">
        <ele>132</ele>
        <time>2012-02-19T08:40:42Z</time>
      </trkpt>
      <trkpt lat="44.59721" lon="0.71241">
        <ele>132</ele>
        <time>2012-02-19T08:40:44Z</time>
      </trkpt>
      <trkpt lat="44.59723" lon="0.71239">
        <ele>132</ele>
        <time>2012-02-19T08:40:47Z</time>
      </trkpt>
      <trkpt lat="44.59724" lon="0.7124">
        <ele>132</ele>
        <time>2012-02-19T08:40:56Z</time>
      </trkpt>
      <trkpt lat="44.59724" lon="0.71241">
        <ele>132</ele>
        <time>2012-02-19T08:41:01Z</time>
      </trkpt>
      <trkpt lat="44.59726" lon="0.71242">
        <ele>134</ele>
        <time>2012-02-19T08:41:07Z</time>
      </trkpt>
      <trkpt lat="44.59726" lon="0.71244">
        <ele>136</ele>
        <time>2012-02-19T08:41:13Z</time>
      </trkpt>
      <trkpt lat="44.59727" lon="0.71245">
        <ele>137</ele>
        <time>2012-02-19T08:41:20Z</time>
      </trkpt>
      <trkpt lat="44.59726" lon="0.71245">
        <ele>144</ele>
        <time>2012-02-19T08:42:59Z</time>
      </trkpt>
      <trkpt lat="44.59725" lon="0.71243">
        <ele>146</ele>
        <time>2012-02-19T08:43:42Z</time>
      </trkpt>
      <trkpt lat="44.59726" lon="0.71242">
        <ele>148</ele>
        <time>2012-02-19T08:44:11Z</time>
      </trkpt>
      <trkpt lat="44.59727" lon="0.71239">
        <ele>148</ele>
        <time>2012-02-19T08:44:13Z</time>
      </trkpt>
      <trkpt lat="44.59728" lon="0.71238">
        <ele>148</ele>
        <time>2012-02-19T08:44:14Z</time>
      </trkpt>
      <trkpt lat="44.59729" lon="0.71238">
        <ele>148</ele>
        <time>2012-02-19T08:44:15Z</time>
      </trkpt>
      <trkpt lat="44.59731" lon="0.71237">
        <ele>148</ele>
        <time>2012-02-19T08:44:16Z</time>
      </trkpt>
      <trkpt lat="44.59732" lon="0.71236">
        <ele>148</ele>
        <time>2012-02-19T08:44:17Z</time>
      </trkpt>
      <trkpt lat="44.59734" lon="0.71235">
        <ele>148</ele>
        <time>2012-02-19T08:44:18Z</time>
      </trkpt>
      <trkpt lat="44.59735" lon="0.71234">
        <ele>147</ele>
        <time>2012-02-19T08:44:19Z</time>
      </trkpt>
      <trkpt lat="44.59737" lon="0.71234">
        <ele>146</ele>
        <time>2012-02-19T08:44:20Z</time>
      </trkpt>
      <trkpt lat="44.59738" lon="0.71233">
        <ele>146</ele>
        <time>2012-02-19T08:44:21Z</time>
      </trkpt>
      <trkpt lat="44.5974" lon="0.71232">
        <ele>145</ele>
        <time>2012-02-19T08:44:22Z</time>
      </trkpt>
      <trkpt lat="44.59741" lon="0.71232">
        <ele>145</ele>
        <time>2012-02-19T08:44:23Z</time>
      </trkpt>
      <trkpt lat="44.59742" lon="0.71232">
        <ele>145</ele>
        <time>2012-02-19T08:44:24Z</time>
      </trkpt>
      <trkpt lat="44.59743" lon="0.71231">
        <ele>144</ele>
        <time>2012-02-19T08:44:25Z</time>
      </trkpt>
      <trkpt lat="44.59745" lon="0.71231">
        <ele>144</ele>
        <time>2012-02-19T08:44:26Z</time>
      </trkpt>
      <trkpt lat="44.59746" lon="0.71231">
        <ele>144</ele>
        <time>2012-02-19T08:44:27Z</time>
      </trkpt>
      <trkpt lat="44.59747" lon="0.7123">
        <ele>143</ele>
        <time>2012-02-19T08:44:29Z</time>
      </trkpt>
      <trkpt lat="44.59749" lon="0.71231">
        <ele>141</ele>
        <time>2012-02-19T08:44:35Z</time>
      </trkpt>
      <trkpt lat="44.5975" lon="0.71231">
        <ele>141</ele>
        <time>2012-02-19T08:44:36Z</time>
      </trkpt>
      <trkpt lat="44.59752" lon="0.71231">
        <ele>140</ele>
        <time>2012-02-19T08:44:37Z</time>
      </trkpt>
      <trkpt lat="44.59755" lon="0.7123">
        <ele>140</ele>
        <time>2012-02-19T08:44:38Z</time>
      </trkpt>
      <trkpt lat="44.59757" lon="0.71229">
        <ele>139</ele>
        <time>2012-02-19T08:44:39Z</time>
      </trkpt>
      <trkpt lat="44.59759" lon="0.71228">
        <ele>139</ele>
        <time>2012-02-19T08:44:40Z</time>
      </trkpt>
      <trkpt lat="44.59761" lon="0.71228">
        <ele>139</ele>
        <time>2012-02-19T08:44:41Z</time>
      </trkpt>
      <trkpt lat="44.59763" lon="0.71227">
        <ele>138</ele>
        <time>2012-02-19T08:44:42Z</time>
      </trkpt>
      <trkpt lat="44.59766" lon="0.71227">
        <ele>138</ele>
        <time>2012-02-19T08:44:43Z</time>
      </trkpt>
      <trkpt lat="44.59768" lon="0.71227">
        <ele>138</ele>
        <time>2012-02-19T08:44:44Z</time>
      </trkpt>
      <trkpt lat="44.5977" lon="0.71226">
        <ele>137</ele>
        <time>2012-02-19T08:44:45Z</time>
      </trkpt>
      <trkpt lat="44.59772" lon="0.71226">
        <ele>137</ele>
        <time>2012-02-19T08:44:46Z</time>
      </trkpt>
      <trkpt lat="44.59774" lon="0.71225">
        <ele>136</ele>
        <time>2012-02-19T08:44:47Z</time>
      </trkpt>
      <trkpt lat="44.59777" lon="0.71224">
        <ele>136</ele>
        <time>2012-02-19T08:44:48Z</time>
      </trkpt>
      <trkpt lat="44.59779" lon="0.71224">
        <ele>135</ele>
        <time>2012-02-19T08:44:49Z</time>
      </trkpt>
      <trkpt lat="44.59781" lon="0.71223">
        <ele>134</ele>
        <time>2012-02-19T08:44:50Z</time>
      </trkpt>
      <trkpt lat="44.59784" lon="0.71222">
        <ele>134</ele>
        <time>2012-02-19T08:44:51Z</time>
      </trkpt>
      <trkpt lat="44.59787" lon="0.71221">
        <ele>133</ele>
        <time>2012-02-19T08:44:52Z</time>
      </trkpt>
      <trkpt lat="44.59789" lon="0.71221">
        <ele>133</ele>
        <time>2012-02-19T08:44:53Z</time>
      </trkpt>
      <trkpt lat="44.59792" lon="0.7122">
        <ele>133</ele>
        <time>2012-02-19T08:44:54Z</time>
      </trkpt>
      <trkpt lat="44.59794" lon="0.71219">
        <ele>133</ele>
        <time>2012-02-19T08:44:55Z</time>
      </trkpt>
      <trkpt lat="44.59796" lon="0.71219">
        <ele>133</ele>
        <time>2012-02-19T08:44:56Z</time>
      </trkpt>
      <trkpt lat="44.59798" lon="0.71217">
        <ele>132</ele>
        <time>2012-02-19T08:44:57Z</time>
      </trkpt>
      <trkpt lat="44.598" lon="0.71216">
        <ele>132</ele>
        <time>2012-02-19T08:44:58Z</time>
      </trkpt>
      <trkpt lat="44.59803" lon="0.71215">
        <ele>132</ele>
        <time>2012-02-19T08:44:59Z</time>
      </trkpt>
      <trkpt lat="44.59805" lon="0.71215">
        <ele>131</ele>
        <time>2012-02-19T08:45:00Z</time>
      </trkpt>
      <trkpt lat="44.59808" lon="0.71214">
        <ele>131</ele>
        <time>2012-02-19T08:45:01Z</time>
      </trkpt>
      <trkpt lat="44.5981" lon="0.71213">
        <ele>130</ele>
        <time>2012-02-19T08:45:02Z</time>
      </trkpt>
      <trkpt lat="44.59813" lon="0.71211">
        <ele>130</ele>
        <time>2012-02-19T08:45:03Z</time>
      </trkpt>
      <trkpt lat="44.59815" lon="0.7121">
        <ele>130</ele>
        <time>2012-02-19T08:45:04Z</time>
      </trkpt>
      <trkpt lat="44.59818" lon="0.7121">
        <ele>130</ele>
        <time>2012-02-19T08:45:05Z</time>
      </trkpt>
      <trkpt lat="44.59821" lon="0.71209">
        <ele>130</ele>
        <time>2012-02-19T08:45:06Z</time>
      </trkpt>
      <trkpt lat="44.59823" lon="0.71209">
        <ele>129</ele>
        <time>2012-02-19T08:45:07Z</time>
      </trkpt>
      <trkpt lat="44.59826" lon="0.71207">
        <ele>129</ele>
        <time>2012-02-19T08:45:08Z</time>
      </trkpt>
      <trkpt lat="44.5983" lon="0.71206">
        <ele>129</ele>
        <time>2012-02-19T08:45:09Z</time>
      </trkpt>
      <trkpt lat="44.59833" lon="0.71205">
        <ele>129</ele>
        <time>2012-02-19T08:45:10Z</time>
      </trkpt>
      <trkpt lat="44.59836" lon="0.71204">
        <ele>128</ele>
        <time>2012-02-19T08:45:11Z</time>
      </trkpt>
      <trkpt lat="44.59839" lon="0.71202">
        <ele>128</ele>
        <time>2012-02-19T08:45:12Z</time>
      </trkpt>
      <trkpt lat="44.59842" lon="0.71202">
        <ele>128</ele>
        <time>2012-02-19T08:45:13Z</time>
      </trkpt>
      <trkpt lat="44.59845" lon="0.71202">
        <ele>128</ele>
        <time>2012-02-19T08:45:14Z</time>
      </trkpt>
      <trkpt lat="44.59848" lon="0.71202">
        <ele>128</ele>
        <time>2012-02-19T08:45:15Z</time>
      </trkpt>
      <trkpt lat="44.5985" lon="0.71202">
        <ele>127</ele>
        <time>2012-02-19T08:45:16Z</time>
      </trkpt>
      <trkpt lat="44.59853" lon="0.71201">
        <ele>127</ele>
        <time>2012-02-19T08:45:17Z</time>
      </trkpt>
      <trkpt lat="44.59855" lon="0.71202">
        <ele>127</ele>
        <time>2012-02-19T08:45:18Z</time>
      </trkpt>
      <trkpt lat="44.59858" lon="0.71204">
        <ele>127</ele>
        <time>2012-02-19T08:45:19Z</time>
      </trkpt>
      <trkpt lat="44.59859" lon="0.71206">
        <ele>127</ele>
        <time>2012-02-19T08:45:20Z</time>
      </trkpt>
      <trkpt lat="44.59861" lon="0.7121">
        <ele>127</ele>
        <time>2012-02-19T08:45:21Z</time>
      </trkpt>
      <trkpt lat="44.59861" lon="0.71214">
        <ele>127</ele>
        <time>2012-02-19T08:45:22Z</time>
      </trkpt>
      <trkpt lat="44.59861" lon="0.71219">
        <ele>127</ele>
        <time>2012-02-19T08:45:23Z</time>
      </trkpt>
      <trkpt lat="44.59861" lon="0.71224">
        <ele>127</ele>
        <time>2012-02-19T08:45:24Z</time>
      </trkpt>
      <trkpt lat="44.59861" lon="0.71229">
        <ele>127</ele>
        <time>2012-02-19T08:45:25Z</time>
      </trkpt>
      <trkpt lat="44.59861" lon="0.71235">
        <ele>127</ele>
        <time>2012-02-19T08:45:26Z</time>
      </trkpt>
      <trkpt lat="44.59861" lon="0.7124">
        <ele>127</ele>
        <time>2012-02-19T08:45:27Z</time>
      </trkpt>
      <trkpt lat="44.59861" lon="0.71246">
        <ele>127</ele>
        <time>2012-02-19T08:45:28Z</time>
      </trkpt>
      <trkpt lat="44.59861" lon="0.71251">
        <ele>127</ele>
        <time>2012-02-19T08:45:29Z</time>
      </trkpt>
      <trkpt lat="44.59861" lon="0.71257">
        <ele>127</ele>
        <time>2012-02-19T08:45:30Z</time>
      </trkpt>
      <trkpt lat="44.59861" lon="0.71262">
        <ele>127</ele>
        <time>2012-02-19T08:45:31Z</time>
      </trkpt>
      <trkpt lat="44.59861" lon="0.71268">
        <ele>127</ele>
        <time>2012-02-19T08:45:32Z</time>
      </trkpt>
      <trkpt lat="44.5986" lon="0.71274">
        <ele>127</ele>
        <time>2012-02-19T08:45:33Z</time>
      </trkpt>
      <trkpt lat="44.5986" lon="0.7128">
        <ele>127</ele>
        <time>2012-02-19T08:45:34Z</time>
      </trkpt>
      <trkpt lat="44.5986" lon="0.71286">
        <ele>127</ele>
        <time>2012-02-19T08:45:35Z</time>
      </trkpt>
      <trkpt lat="44.5986" lon="0.71292">
        <ele>127</ele>
        <time>2012-02-19T08:45:36Z</time>
      </trkpt>
      <trkpt lat="44.5986" lon="0.71298">
        <ele>127</ele>
        <time>2012-02-19T08:45:37Z</time>
      </trkpt>
      <trkpt lat="44.59859" lon="0.71304">
        <ele>127</ele>
        <time>2012-02-19T08:45:38Z</time>
      </trkpt>
      <trkpt lat="44.59859" lon="0.7131">
        <ele>128</ele>
        <time>2012-02-19T08:45:39Z</time>
      </trkpt>
      <trkpt lat="44.5986" lon="0.71316">
        <ele>128</ele>
        <time>2012-02-19T08:45:40Z</time>
      </trkpt>
      <trkpt lat="44.5986" lon="0.71322">
        <ele>128</ele>
        <time>2012-02-19T08:45:41Z</time>
      </trkpt>
      <trkpt lat="44.5986" lon="0.71328">
        <ele>129</ele>
        <time>2012-02-19T08:45:42Z</time>
      </trkpt>
      <trkpt lat="44.5986" lon="0.71333">
        <ele>129</ele>
        <time>2012-02-19T08:45:43Z</time>
      </trkpt>
      <trkpt lat="44.5986" lon="0.71339">
        <ele>130</ele>
        <time>2012-02-19T08:45:44Z</time>
      </trkpt>
      <trkpt lat="44.59861" lon="0.71345">
        <ele>130</ele>
        <time>2012-02-19T08:45:45Z</time>
      </trkpt>
      <trkpt lat="44.59861" lon="0.7135">
        <ele>130</ele>
        <time>2012-02-19T08:45:46Z</time>
      </trkpt>
      <trkpt lat="44.59861" lon="0.71356">
        <ele>130</ele>
        <time>2012-02-19T08:45:47Z</time>
      </trkpt>
      <trkpt lat="44.59861" lon="0.71362">
        <ele>130</ele>
        <time>2012-02-19T08:45:48Z</time>
      </trkpt>
      <trkpt lat="44.59862" lon="0.71367">
        <ele>130</ele>
        <time>2012-02-19T08:45:49Z</time>
      </trkpt>
      <trkpt lat="44.59864" lon="0.71371">
        <ele>130</ele>
        <time>2012-02-19T08:45:50Z</time>
      </trkpt>
      <trkpt lat="44.59867" lon="0.71373">
        <ele>130</ele>
        <time>2012-02-19T08:45:51Z</time>
      </trkpt>
      <trkpt lat="44.59871" lon="0.71374">
        <ele>130</ele>
        <time>2012-02-19T08:45:52Z</time>
      </trkpt>
      <trkpt lat="44.59875" lon="0.71374">
        <ele>130</ele>
        <time>2012-02-19T08:45:53Z</time>
      </trkpt>
      <trkpt lat="44.59879" lon="0.71374">
        <ele>130</ele>
        <time>2012-02-19T08:45:54Z</time>
      </trkpt>
      <trkpt lat="44.59883" lon="0.71374">
        <ele>130</ele>
        <time>2012-02-19T08:45:55Z</time>
      </trkpt>
      <trkpt lat="44.59887" lon="0.71374">
        <ele>130</ele>
        <time>2012-02-19T08:45:56Z</time>
      </trkpt>
      <trkpt lat="44.59891" lon="0.71374">
        <ele>130</ele>
        <time>2012-02-19T08:45:57Z</time>
      </trkpt>
      <trkpt lat="44.59895" lon="0.71374">
        <ele>130</ele>
        <time>2012-02-19T08:45:58Z</time>
      </trkpt>
      <trkpt lat="44.59899" lon="0.71373">
        <ele>130</ele>
        <time>2012-02-19T08:45:59Z</time>
      </trkpt>
      <trkpt lat="44.59904" lon="0.71373">
        <ele>130</ele>
        <time>2012-02-19T08:46:00Z</time>
      </trkpt>
      <trkpt lat="44.59908" lon="0.71373">
        <ele>130</ele>
        <time>2012-02-19T08:46:01Z</time>
      </trkpt>
      <trkpt lat="44.59913" lon="0.71374">
        <ele>130</ele>
        <time>2012-02-19T08:46:02Z</time>
      </trkpt>
      <trkpt lat="44.59917" lon="0.71373">
        <ele>130</ele>
        <time>2012-02-19T08:46:03Z</time>
      </trkpt>
      <trkpt lat="44.59922" lon="0.71373">
        <ele>130</ele>
        <time>2012-02-19T08:46:04Z</time>
      </trkpt>
      <trkpt lat="44.59927" lon="0.71373">
        <ele>130</ele>
        <time>2012-02-19T08:46:05Z</time>
      </trkpt>
      <trkpt lat="44.59932" lon="0.71374">
        <ele>130</ele>
        <time>2012-02-19T08:46:06Z</time>
      </trkpt>
      <trkpt lat="44.59937" lon="0.71375">
        <ele>130</ele>
        <time>2012-02-19T08:46:07Z</time>
      </trkpt>
      <trkpt lat="44.59942" lon="0.71375">
        <ele>130</ele>
        <time>2012-02-19T08:46:08Z</time>
      </trkpt>
      <trkpt lat="44.59947" lon="0.71375">
        <ele>130</ele>
        <time>2012-02-19T08:46:09Z</time>
      </trkpt>
      <trkpt lat="44.59952" lon="0.71375">
        <ele>130</ele>
        <time>2012-02-19T08:46:10Z</time>
      </trkpt>
      <trkpt lat="44.59958" lon="0.71374">
        <ele>130</ele>
        <time>2012-02-19T08:46:11Z</time>
      </trkpt>
      <trkpt lat="44.59963" lon="0.71374">
        <ele>129</ele>
        <time>2012-02-19T08:46:12Z</time>
      </trkpt>
      <trkpt lat="44.59969" lon="0.71373">
        <ele>128</ele>
        <time>2012-02-19T08:46:13Z</time>
      </trkpt>
      <trkpt lat="44.59974" lon="0.71373">
        <ele>128</ele>
        <time>2012-02-19T08:46:14Z</time>
      </trkpt>
      <trkpt lat="44.59979" lon="0.71372">
        <ele>128</ele>
        <time>2012-02-19T08:46:15Z</time>
      </trkpt>
      <trkpt lat="44.59985" lon="0.71371">
        <ele>128</ele>
        <time>2012-02-19T08:46:16Z</time>
      </trkpt>
      <trkpt lat="44.5999" lon="0.71369">
        <ele>128</ele>
        <time>2012-02-19T08:46:17Z</time>
      </trkpt>
      <trkpt lat="44.59995" lon="0.71369">
        <ele>128</ele>
        <time>2012-02-19T08:46:18Z</time>
      </trkpt>
      <trkpt lat="44.60001" lon="0.71368">
        <ele>127</ele>
        <time>2012-02-19T08:46:19Z</time>
      </trkpt>
      <trkpt lat="44.60006" lon="0.71368">
        <ele>127</ele>
        <time>2012-02-19T08:46:20Z</time>
      </trkpt>
      <trkpt lat="44.60011" lon="0.71367">
        <ele>127</ele>
        <time>2012-02-19T08:46:21Z</time>
      </trkpt>
      <trkpt lat="44.60015" lon="0.71367">
        <ele>127</ele>
        <time>2012-02-19T08:46:22Z</time>
      </trkpt>
      <trkpt lat="44.60019" lon="0.71367">
        <ele>126</ele>
        <time>2012-02-19T08:46:23Z</time>
      </trkpt>
      <trkpt lat="44.60021" lon="0.71369">
        <ele>126</ele>
        <time>2012-02-19T08:46:24Z</time>
      </trkpt>
      <trkpt lat="44.60023" lon="0.71373">
        <ele>126</ele>
        <time>2012-02-19T08:46:25Z</time>
      </trkpt>
      <trkpt lat="44.60025" lon="0.71378">
        <ele>126</ele>
        <time>2012-02-19T08:46:26Z</time>
      </trkpt>
      <trkpt lat="44.60026" lon="0.71384">
        <ele>126</ele>
        <time>2012-02-19T08:46:27Z</time>
      </trkpt>
      <trkpt lat="44.60028" lon="0.7139">
        <ele>126</ele>
        <time>2012-02-19T08:46:28Z</time>
      </trkpt>
      <trkpt lat="44.6003" lon="0.71397">
        <ele>126</ele>
        <time>2012-02-19T08:46:29Z</time>
      </trkpt>
      <trkpt lat="44.60033" lon="0.71404">
        <ele>125</ele>
        <time>2012-02-19T08:46:30Z</time>
      </trkpt>
      <trkpt lat="44.60035" lon="0.7141">
        <ele>125</ele>
        <time>2012-02-19T08:46:31Z</time>
      </trkpt>
      <trkpt lat="44.60037" lon="0.71417">
        <ele>125</ele>
        <time>2012-02-19T08:46:32Z</time>
      </trkpt>
      <trkpt lat="44.60039" lon="0.71422">
        <ele>124</ele>
        <time>2012-02-19T08:46:33Z</time>
      </trkpt>
      <trkpt lat="44.60042" lon="0.71428">
        <ele>124</ele>
        <time>2012-02-19T08:46:34Z</time>
      </trkpt>
      <trkpt lat="44.60046" lon="0.71433">
        <ele>123</ele>
        <time>2012-02-19T08:46:35Z</time>
      </trkpt>
      <trkpt lat="44.60051" lon="0.71437">
        <ele>123</ele>
        <time>2012-02-19T08:46:36Z</time>
      </trkpt>
      <trkpt lat="44.60056" lon="0.71442">
        <ele>122</ele>
        <time>2012-02-19T08:46:37Z</time>
      </trkpt>
      <trkpt lat="44.60061" lon="0.71444">
        <ele>122</ele>
        <time>2012-02-19T08:46:38Z</time>
      </trkpt>
      <trkpt lat="44.60065" lon="0.71448">
        <ele>121</ele>
        <time>2012-02-19T08:46:39Z</time>
      </trkpt>
      <trkpt lat="44.60069" lon="0.71452">
        <ele>121</ele>
        <time>2012-02-19T08:46:40Z</time>
      </trkpt>
      <trkpt lat="44.60071" lon="0.71459">
        <ele>120</ele>
        <time>2012-02-19T08:46:41Z</time>
      </trkpt>
      <trkpt lat="44.60072" lon="0.71466">
        <ele>119</ele>
        <time>2012-02-19T08:46:42Z</time>
      </trkpt>
      <trkpt lat="44.60073" lon="0.71475">
        <ele>119</ele>
        <time>2012-02-19T08:46:43Z</time>
      </trkpt>
      <trkpt lat="44.60072" lon="0.71484">
        <ele>118</ele>
        <time>2012-02-19T08:46:44Z</time>
      </trkpt>
      <trkpt lat="44.60074" lon="0.71494">
        <ele>117</ele>
        <time>2012-02-19T08:46:45Z</time>
      </trkpt>
      <trkpt lat="44.60076" lon="0.71504">
        <ele>117</ele>
        <time>2012-02-19T08:46:46Z</time>
      </trkpt>
      <trkpt lat="44.60078" lon="0.71513">
        <ele>116</ele>
        <time>2012-02-19T08:46:47Z</time>
      </trkpt>
      <trkpt lat="44.60078" lon="0.71523">
        <ele>116</ele>
        <time>2012-02-19T08:46:48Z</time>
      </trkpt>
      <trkpt lat="44.60078" lon="0.71531">
        <ele>115</ele>
        <time>2012-02-19T08:46:49Z</time>
      </trkpt>
      <trkpt lat="44.60077" lon="0.7154">
        <ele>115</ele>
        <time>2012-02-19T08:46:50Z</time>
      </trkpt>
      <trkpt lat="44.60077" lon="0.71549">
        <ele>114</ele>
        <time>2012-02-19T08:46:51Z</time>
      </trkpt>
      <trkpt lat="44.60078" lon="0.71557">
        <ele>113</ele>
        <time>2012-02-19T08:46:52Z</time>
      </trkpt>
      <trkpt lat="44.60078" lon="0.71567">
        <ele>112</ele>
        <time>2012-02-19T08:46:53Z</time>
      </trkpt>
      <trkpt lat="44.60078" lon="0.71575">
        <ele>111</ele>
        <time>2012-02-19T08:46:54Z</time>
      </trkpt>
      <trkpt lat="44.60079" lon="0.71583">
        <ele>110</ele>
        <time>2012-02-19T08:46:55Z</time>
      </trkpt>
      <trkpt lat="44.60079" lon="0.7159">
        <ele>109</ele>
        <time>2012-02-19T08:46:56Z</time>
      </trkpt>
      <trkpt lat="44.60079" lon="0.71597">
        <ele>109</ele>
        <time>2012-02-19T08:46:57Z</time>
      </trkpt>
      <trkpt lat="44.60079" lon="0.71604">
        <ele>109</ele>
        <time>2012-02-19T08:46:58Z</time>
      </trkpt>
      <trkpt lat="44.60079" lon="0.7161">
        <ele>109</ele>
        <time>2012-02-19T08:46:59Z</time>
      </trkpt>
      <trkpt lat="44.6008" lon="0.71616">
        <ele>109</ele>
        <time>2012-02-19T08:47:00Z</time>
      </trkpt>
      <trkpt lat="44.6008" lon="0.71621">
        <ele>109</ele>
        <time>2012-02-19T08:47:01Z</time>
      </trkpt>
      <trkpt lat="44.6008" lon="0.71627">
        <ele>109</ele>
        <time>2012-02-19T08:47:02Z</time>
      </trkpt>
      <trkpt lat="44.6008" lon="0.71632">
        <ele>109</ele>
        <time>2012-02-19T08:47:03Z</time>
      </trkpt>
      <trkpt lat="44.60081" lon="0.71638">
        <ele>109</ele>
        <time>2012-02-19T08:47:04Z</time>
      </trkpt>
      <trkpt lat="44.60081" lon="0.71643">
        <ele>109</ele>
        <time>2012-02-19T08:47:05Z</time>
      </trkpt>
      <trkpt lat="44.60082" lon="0.71649">
        <ele>109</ele>
        <time>2012-02-19T08:47:06Z</time>
      </trkpt>
      <trkpt lat="44.60082" lon="0.71653">
        <ele>109</ele>
        <time>2012-02-19T08:47:07Z</time>
      </trkpt>
      <trkpt lat="44.60083" lon="0.71658">
        <ele>109</ele>
        <time>2012-02-19T08:47:08Z</time>
      </trkpt>
      <trkpt lat="44.60083" lon="0.71663">
        <ele>109</ele>
        <time>2012-02-19T08:47:09Z</time>
      </trkpt>
      <trkpt lat="44.60083" lon="0.71668">
        <ele>109</ele>
        <time>2012-02-19T08:47:10Z</time>
      </trkpt>
      <trkpt lat="44.60083" lon="0.71674">
        <ele>109</ele>
        <time>2012-02-19T08:47:11Z</time>
      </trkpt>
      <trkpt lat="44.60084" lon="0.71679">
        <ele>109</ele>
        <time>2012-02-19T08:47:12Z</time>
      </trkpt>
      <trkpt lat="44.60084" lon="0.71684">
        <ele>109</ele>
        <time>2012-02-19T08:47:13Z</time>
      </trkpt>
      <trkpt lat="44.60084" lon="0.71689">
        <ele>109</ele>
        <time>2012-02-19T08:47:14Z</time>
      </trkpt>
      <trkpt lat="44.60083" lon="0.71693">
        <ele>109</ele>
        <time>2012-02-19T08:47:15Z</time>
      </trkpt>
      <trkpt lat="44.60083" lon="0.71697">
        <ele>109</ele>
        <time>2012-02-19T08:47:16Z</time>
      </trkpt>
      <trkpt lat="44.60083" lon="0.717">
        <ele>109</ele>
        <time>2012-02-19T08:47:17Z</time>
      </trkpt>
      <trkpt lat="44.60082" lon="0.71703">
        <ele>109</ele>
        <time>2012-02-19T08:47:18Z</time>
      </trkpt>
      <trkpt lat="44.60081" lon="0.71706">
        <ele>109</ele>
        <time>2012-02-19T08:47:19Z</time>
      </trkpt>
      <trkpt lat="44.60081" lon="0.71708">
        <ele>110</ele>
        <time>2012-02-19T08:47:20Z</time>
      </trkpt>
      <trkpt lat="44.6008" lon="0.71711">
        <ele>110</ele>
        <time>2012-02-19T08:47:21Z</time>
      </trkpt>
      <trkpt lat="44.6008" lon="0.71714">
        <ele>110</ele>
        <time>2012-02-19T08:47:22Z</time>
      </trkpt>
      <trkpt lat="44.60079" lon="0.71717">
        <ele>110</ele>
        <time>2012-02-19T08:47:23Z</time>
      </trkpt>
      <trkpt lat="44.60078" lon="0.71719">
        <ele>110</ele>
        <time>2012-02-19T08:47:24Z</time>
      </trkpt>
      <trkpt lat="44.60078" lon="0.71721">
        <ele>110</ele>
        <time>2012-02-19T08:47:25Z</time>
      </trkpt>
      <trkpt lat="44.60078" lon="0.71725">
        <ele>110</ele>
        <time>2012-02-19T08:47:26Z</time>
      </trkpt>
      <trkpt lat="44.60078" lon="0.71728">
        <ele>110</ele>
        <time>2012-02-19T08:47:27Z</time>
      </trkpt>
      <trkpt lat="44.60078" lon="0.71731">
        <ele>111</ele>
        <time>2012-02-19T08:47:28Z</time>
      </trkpt>
      <trkpt lat="44.60078" lon="0.71734">
        <ele>111</ele>
        <time>2012-02-19T08:47:29Z</time>
      </trkpt>
      <trkpt lat="44.60078" lon="0.71736">
        <ele>111</ele>
        <time>2012-02-19T08:47:30Z</time>
      </trkpt>
      <trkpt lat="44.60077" lon="0.71738">
        <ele>111</ele>
        <time>2012-02-19T08:47:31Z</time>
      </trkpt>
      <trkpt lat="44.60076" lon="0.71741">
        <ele>112</ele>
        <time>2012-02-19T08:47:33Z</time>
      </trkpt>
      <trkpt lat="44.60075" lon="0.71744">
        <ele>113</ele>
        <time>2012-02-19T08:47:34Z</time>
      </trkpt>
      <trkpt lat="44.60075" lon="0.71746">
        <ele>114</ele>
        <time>2012-02-19T08:47:35Z</time>
      </trkpt>
      <trkpt lat="44.60074" lon="0.71748">
        <ele>115</ele>
        <time>2012-02-19T08:47:36Z</time>
      </trkpt>
      <trkpt lat="44.60074" lon="0.7175">
        <ele>115</ele>
        <time>2012-02-19T08:47:37Z</time>
      </trkpt>
      <trkpt lat="44.60074" lon="0.71753">
        <ele>116</ele>
        <time>2012-02-19T08:47:38Z</time>
      </trkpt>
      <trkpt lat="44.60074" lon="0.71756">
        <ele>116</ele>
        <time>2012-02-19T08:47:39Z</time>
      </trkpt>
      <trkpt lat="44.60074" lon="0.71758">
        <ele>117</ele>
        <time>2012-02-19T08:47:40Z</time>
      </trkpt>
      <trkpt lat="44.60073" lon="0.71759">
        <ele>117</ele>
        <time>2012-02-19T08:47:41Z</time>
      </trkpt>
      <trkpt lat="44.60073" lon="0.71761">
        <ele>118</ele>
        <time>2012-02-19T08:47:42Z</time>
      </trkpt>
      <trkpt lat="44.60072" lon="0.71763">
        <ele>119</ele>
        <time>2012-02-19T08:47:44Z</time>
      </trkpt>
      <trkpt lat="44.60071" lon="0.71766">
        <ele>120</ele>
        <time>2012-02-19T08:47:45Z</time>
      </trkpt>
      <trkpt lat="44.60071" lon="0.71768">
        <ele>121</ele>
        <time>2012-02-19T08:47:46Z</time>
      </trkpt>
      <trkpt lat="44.60071" lon="0.71772">
        <ele>121</ele>
        <time>2012-02-19T08:47:47Z</time>
      </trkpt>
      <trkpt lat="44.6007" lon="0.71776">
        <ele>122</ele>
        <time>2012-02-19T08:47:48Z</time>
      </trkpt>
      <trkpt lat="44.60069" lon="0.71779">
        <ele>122</ele>
        <time>2012-02-19T08:47:49Z</time>
      </trkpt>
      <trkpt lat="44.60068" lon="0.71782">
        <ele>123</ele>
        <time>2012-02-19T08:47:50Z</time>
      </trkpt>
      <trkpt lat="44.60068" lon="0.71785">
        <ele>123</ele>
        <time>2012-02-19T08:47:51Z</time>
      </trkpt>
      <trkpt lat="44.60067" lon="0.71788">
        <ele>123</ele>
        <time>2012-02-19T08:47:52Z</time>
      </trkpt>
      <trkpt lat="44.60067" lon="0.71791">
        <ele>124</ele>
        <time>2012-02-19T08:47:53Z</time>
      </trkpt>
      <trkpt lat="44.60068" lon="0.71794">
        <ele>124</ele>
        <time>2012-02-19T08:47:54Z</time>
      </trkpt>
      <trkpt lat="44.60068" lon="0.71797">
        <ele>125</ele>
        <time>2012-02-19T08:47:55Z</time>
      </trkpt>
      <trkpt lat="44.60067" lon="0.71799">
        <ele>125</ele>
        <time>2012-02-19T08:47:56Z</time>
      </trkpt>
      <trkpt lat="44.60068" lon="0.71803">
        <ele>125</ele>
        <time>2012-02-19T08:47:57Z</time>
      </trkpt>
      <trkpt lat="44.60067" lon="0.71806">
        <ele>125</ele>
        <time>2012-02-19T08:47:58Z</time>
      </trkpt>
      <trkpt lat="44.60067" lon="0.71808">
        <ele>126</ele>
        <time>2012-02-19T08:47:59Z</time>
      </trkpt>
      <trkpt lat="44.60065" lon="0.71811">
        <ele>126</ele>
        <time>2012-02-19T08:48:01Z</time>
      </trkpt>
      <trkpt lat="44.60065" lon="0.71814">
        <ele>126</ele>
        <time>2012-02-19T08:48:02Z</time>
      </trkpt>
      <trkpt lat="44.60065" lon="0.71817">
        <ele>126</ele>
        <time>2012-02-19T08:48:03Z</time>
      </trkpt>
      <trkpt lat="44.60065" lon="0.7182">
        <ele>127</ele>
        <time>2012-02-19T08:48:04Z</time>
      </trkpt>
      <trkpt lat="44.60065" lon="0.71823">
        <ele>127</ele>
        <time>2012-02-19T08:48:05Z</time>
      </trkpt>
      <trkpt lat="44.60065" lon="0.71825">
        <ele>127</ele>
        <time>2012-02-19T08:48:06Z</time>
      </trkpt>
      <trkpt lat="44.60065" lon="0.71829">
        <ele>127</ele>
        <time>2012-02-19T08:48:07Z</time>
      </trkpt>
      <trkpt lat="44.60065" lon="0.71832">
        <ele>127</ele>
        <time>2012-02-19T08:48:08Z</time>
      </trkpt>
      <trkpt lat="44.60066" lon="0.71835">
        <ele>127</ele>
        <time>2012-02-19T08:48:09Z</time>
      </trkpt>
      <trkpt lat="44.60065" lon="0.71838">
        <ele>127</ele>
        <time>2012-02-19T08:48:10Z</time>
      </trkpt>
      <trkpt lat="44.60065" lon="0.71841">
        <ele>127</ele>
        <time>2012-02-19T08:48:11Z</time>
      </trkpt>
      <trkpt lat="44.60063" lon="0.71842">
        <ele>127</ele>
        <time>2012-02-19T08:48:12Z</time>
      </trkpt>
      <trkpt lat="44.6006" lon="0.71845">
        <ele>127</ele>
        <time>2012-02-19T08:48:13Z</time>
      </trkpt>
      <trkpt lat="44.60057" lon="0.71845">
        <ele>127</ele>
        <time>2012-02-19T08:48:14Z</time>
      </trkpt>
      <trkpt lat="44.60055" lon="0.71845">
        <ele>127</ele>
        <time>2012-02-19T08:48:15Z</time>
      </trkpt>
      <trkpt lat="44.60053" lon="0.71846">
        <ele>127</ele>
        <time>2012-02-19T08:48:16Z</time>
      </trkpt>
      <trkpt lat="44.6005" lon="0.71845">
        <ele>127</ele>
        <time>2012-02-19T08:48:17Z</time>
      </trkpt>
      <trkpt lat="44.60048" lon="0.71845">
        <ele>127</ele>
        <time>2012-02-19T08:48:18Z</time>
      </trkpt>
      <trkpt lat="44.60046" lon="0.71844">
        <ele>127</ele>
        <time>2012-02-19T08:48:19Z</time>
      </trkpt>
      <trkpt lat="44.60044" lon="0.71845">
        <ele>127</ele>
        <time>2012-02-19T08:48:20Z</time>
      </trkpt>
      <trkpt lat="44.60041" lon="0.71845">
        <ele>127</ele>
        <time>2012-02-19T08:48:21Z</time>
      </trkpt>
      <trkpt lat="44.60039" lon="0.71845">
        <ele>127</ele>
        <time>2012-02-19T08:48:22Z</time>
      </trkpt>
      <trkpt lat="44.60037" lon="0.71845">
        <ele>127</ele>
        <time>2012-02-19T08:48:23Z</time>
      </trkpt>
      <trkpt lat="44.60034" lon="0.71845">
        <ele>127</ele>
        <time>2012-02-19T08:48:24Z</time>
      </trkpt>
      <trkpt lat="44.60031" lon="0.71844">
        <ele>127</ele>
        <time>2012-02-19T08:48:25Z</time>
      </trkpt>
      <trkpt lat="44.60028" lon="0.71844">
        <ele>127</ele>
        <time>2012-02-19T08:48:26Z</time>
      </trkpt>
      <trkpt lat="44.60025" lon="0.71845">
        <ele>127</ele>
        <time>2012-02-19T08:48:27Z</time>
      </trkpt>
      <trkpt lat="44.60022" lon="0.71844">
        <ele>127</ele>
        <time>2012-02-19T08:48:28Z</time>
      </trkpt>
      <trkpt lat="44.6002" lon="0.71844">
        <ele>127</ele>
        <time>2012-02-19T08:48:29Z</time>
      </trkpt>
      <trkpt lat="44.60017" lon="0.71845">
        <ele>127</ele>
        <time>2012-02-19T08:48:30Z</time>
      </trkpt>
      <trkpt lat="44.60015" lon="0.71845">
        <ele>127</ele>
        <time>2012-02-19T08:48:31Z</time>
      </trkpt>
      <trkpt lat="44.60012" lon="0.71844">
        <ele>127</ele>
        <time>2012-02-19T08:48:32Z</time>
      </trkpt>
      <trkpt lat="44.6001" lon="0.71844">
        <ele>127</ele>
        <time>2012-02-19T08:48:33Z</time>
      </trkpt>
      <trkpt lat="44.60007" lon="0.71842">
        <ele>127</ele>
        <time>2012-02-19T08:48:34Z</time>
      </trkpt>
      <trkpt lat="44.60004" lon="0.71841">
        <ele>127</ele>
        <time>2012-02-19T08:48:35Z</time>
      </trkpt>
      <trkpt lat="44.60001" lon="0.71839">
        <ele>127</ele>
        <time>2012-02-19T08:48:36Z</time>
      </trkpt>
      <trkpt lat="44.59998" lon="0.71837">
        <ele>127</ele>
        <time>2012-02-19T08:48:37Z</time>
      </trkpt>
      <trkpt lat="44.59995" lon="0.71835">
        <ele>127</ele>
        <time>2012-02-19T08:48:38Z</time>
      </trkpt>
      <trkpt lat="44.59991" lon="0.71833">
        <ele>127</ele>
        <time>2012-02-19T08:48:39Z</time>
      </trkpt>
      <trkpt lat="44.59988" lon="0.71832">
        <ele>127</ele>
        <time>2012-02-19T08:48:40Z</time>
      </trkpt>
      <trkpt lat="44.59984" lon="0.7183">
        <ele>127</ele>
        <time>2012-02-19T08:48:41Z</time>
      </trkpt>
      <trkpt lat="44.59981" lon="0.71829">
        <ele>127</ele>
        <time>2012-02-19T08:48:42Z</time>
      </trkpt>
      <trkpt lat="44.59978" lon="0.71828">
        <ele>127</ele>
        <time>2012-02-19T08:48:43Z</time>
      </trkpt>
      <trkpt lat="44.59974" lon="0.71826">
        <ele>127</ele>
        <time>2012-02-19T08:48:44Z</time>
      </trkpt>
      <trkpt lat="44.59971" lon="0.71825">
        <ele>127</ele>
        <time>2012-02-19T08:48:45Z</time>
      </trkpt>
      <trkpt lat="44.59968" lon="0.71824">
        <ele>127</ele>
        <time>2012-02-19T08:48:46Z</time>
      </trkpt>
      <trkpt lat="44.59966" lon="0.71823">
        <ele>127</ele>
        <time>2012-02-19T08:48:47Z</time>
      </trkpt>
      <trkpt lat="44.59963" lon="0.71822">
        <ele>127</ele>
        <time>2012-02-19T08:48:48Z</time>
      </trkpt>
      <trkpt lat="44.59961" lon="0.71821">
        <ele>127</ele>
        <time>2012-02-19T08:48:49Z</time>
      </trkpt>
      <trkpt lat="44.59959" lon="0.7182">
        <ele>127</ele>
        <time>2012-02-19T08:48:50Z</time>
      </trkpt>
      <trkpt lat="44.59957" lon="0.7182">
        <ele>127</ele>
        <time>2012-02-19T08:48:51Z</time>
      </trkpt>
      <trkpt lat="44.59956" lon="0.71819">
        <ele>127</ele>
        <time>2012-02-19T08:48:52Z</time>
      </trkpt>
      <trkpt lat="44.59954" lon="0.71819">
        <ele>127</ele>
        <time>2012-02-19T08:48:53Z</time>
      </trkpt>
      <trkpt lat="44.59953" lon="0.71818">
        <ele>127</ele>
        <time>2012-02-19T08:48:54Z</time>
      </trkpt>
      <trkpt lat="44.59951" lon="0.71818">
        <ele>127</ele>
        <time>2012-02-19T08:48:55Z</time>
      </trkpt>
      <trkpt lat="44.5995" lon="0.71817">
        <ele>127</ele>
        <time>2012-02-19T08:48:56Z</time>
      </trkpt>
      <trkpt lat="44.59949" lon="0.71817">
        <ele>127</ele>
        <time>2012-02-19T08:48:57Z</time>
      </trkpt>
      <trkpt lat="44.59947" lon="0.71818">
        <ele>127</ele>
        <time>2012-02-19T08:48:58Z</time>
      </trkpt>
      <trkpt lat="44.59946" lon="0.71819">
        <ele>127</ele>
        <time>2012-02-19T08:48:59Z</time>
      </trkpt>
      <trkpt lat="44.59945" lon="0.71821">
        <ele>127</ele>
        <time>2012-02-19T08:49:01Z</time>
      </trkpt>
      <trkpt lat="44.59943" lon="0.71823">
        <ele>127</ele>
        <time>2012-02-19T08:49:04Z</time>
      </trkpt>
      <trkpt lat="44.59942" lon="0.71825">
        <ele>127</ele>
        <time>2012-02-19T08:49:09Z</time>
      </trkpt>
      <trkpt lat="44.59944" lon="0.71825">
        <ele>127</ele>
        <time>2012-02-19T08:49:18Z</time>
      </trkpt>
      <trkpt lat="44.59943" lon="0.71825">
        <ele>127</ele>
        <time>2012-02-19T08:49:59Z</time>
      </trkpt>
      <trkpt lat="44.59944" lon="0.71824">
        <ele>127</ele>
        <time>2012-02-19T08:50:18Z</time>
      </trkpt>
      <trkpt lat="44.59945" lon="0.71824">
        <ele>128</ele>
        <time>2012-02-19T08:50:28Z</time>
      </trkpt>
      <trkpt lat="44.59944" lon="0.71825">
        <ele>129</ele>
        <time>2012-02-19T08:51:00Z</time>
      </trkpt>
      <trkpt lat="44.59943" lon="0.71826">
        <ele>129</ele>
        <time>2012-02-19T08:51:21Z</time>
      </trkpt>
      <trkpt lat="44.59941" lon="0.71826">
        <ele>129</ele>
        <time>2012-02-19T08:51:44Z</time>
      </trkpt>
      <trkpt lat="44.5994" lon="0.71827">
        <ele>129</ele>
        <time>2012-02-19T08:51:57Z</time>
      </trkpt>
      <trkpt lat="44.59939" lon="0.71828">
        <ele>127</ele>
        <time>2012-02-19T08:52:13Z</time>
      </trkpt>
      <trkpt lat="44.59938" lon="0.71828">
        <ele>123</ele>
        <time>2012-02-19T08:53:16Z</time>
      </trkpt>
      <trkpt lat="44.59939" lon="0.71828">
        <ele>120</ele>
        <time>2012-02-19T08:53:54Z</time>
      </trkpt>
      <trkpt lat="44.5994" lon="0.71828">
        <ele>120</ele>
        <time>2012-02-19T08:55:23Z</time>
      </trkpt>
      <trkpt lat="44.59942" lon="0.71827">
        <ele>122</ele>
        <time>2012-02-19T08:55:31Z</time>
      </trkpt>
      <trkpt lat="44.59943" lon="0.71826">
        <ele>125</ele>
        <time>2012-02-19T08:55:40Z</time>
      </trkpt>
      <trkpt lat="44.59944" lon="0.71826">
        <ele>127</ele>
        <time>2012-02-19T08:56:02Z</time>
      </trkpt>
      <trkpt lat="44.59943" lon="0.71826">
        <ele>127</ele>
        <time>2012-02-19T08:56:17Z</time>
      </trkpt>
      <trkpt lat="44.59942" lon="0.71826">
        <ele>127</ele>
        <time>2012-02-19T08:57:14Z</time>
      </trkpt>
      <trkpt lat="44.5994" lon="0.71826">
        <ele>127</ele>
        <time>2012-02-19T08:57:16Z</time>
      </trkpt>
      <trkpt lat="44.59939" lon="0.71825">
        <ele>127</ele>
        <time>2012-02-19T08:57:19Z</time>
      </trkpt>
      <trkpt lat="44.59939" lon="0.71823">
        <ele>127</ele>
        <time>2012-02-19T08:57:31Z</time>
      </trkpt>
      <trkpt lat="44.5994" lon="0.71821">
        <ele>130</ele>
        <time>2012-02-19T08:57:37Z</time>
      </trkpt>
      <trkpt lat="44.59941" lon="0.71821">
        <ele>133</ele>
        <time>2012-02-19T08:57:40Z</time>
      </trkpt>
      <trkpt lat="44.5994" lon="0.7182">
        <ele>135</ele>
        <time>2012-02-19T08:58:00Z</time>
      </trkpt>
      <trkpt lat="44.5994" lon="0.71817">
        <ele>135</ele>
        <time>2012-02-19T08:58:20Z</time>
      </trkpt>
      <trkpt lat="44.59938" lon="0.71817">
        <ele>135</ele>
        <time>2012-02-19T08:58:21Z</time>
      </trkpt>
      <trkpt lat="44.59937" lon="0.71816">
        <ele>135</ele>
        <time>2012-02-19T08:58:22Z</time>
      </trkpt>
      <trkpt lat="44.59935" lon="0.71816">
        <ele>135</ele>
        <time>2012-02-19T08:58:23Z</time>
      </trkpt>
      <trkpt lat="44.59933" lon="0.71815">
        <ele>135</ele>
        <time>2012-02-19T08:58:24Z</time>
      </trkpt>
      <trkpt lat="44.59932" lon="0.71814">
        <ele>135</ele>
        <time>2012-02-19T08:58:25Z</time>
      </trkpt>
      <trkpt lat="44.59931" lon="0.71813">
        <ele>135</ele>
        <time>2012-02-19T08:58:26Z</time>
      </trkpt>
      <trkpt lat="44.59929" lon="0.71813">
        <ele>135</ele>
        <time>2012-02-19T08:58:27Z</time>
      </trkpt>
      <trkpt lat="44.59927" lon="0.71812">
        <ele>135</ele>
        <time>2012-02-19T08:58:28Z</time>
      </trkpt>
      <trkpt lat="44.59925" lon="0.71811">
        <ele>135</ele>
        <time>2012-02-19T08:58:29Z</time>
      </trkpt>
      <trkpt lat="44.59923" lon="0.71811">
        <ele>135</ele>
        <time>2012-02-19T08:58:30Z</time>
      </trkpt>
      <trkpt lat="44.59921" lon="0.7181">
        <ele>135</ele>
        <time>2012-02-19T08:58:31Z</time>
      </trkpt>
      <trkpt lat="44.59918" lon="0.71809">
        <ele>134</ele>
        <time>2012-02-19T08:58:32Z</time>
      </trkpt>
      <trkpt lat="44.59914" lon="0.71808">
        <ele>134</ele>
        <time>2012-02-19T08:58:33Z</time>
      </trkpt>
      <trkpt lat="44.59911" lon="0.71806">
        <ele>133</ele>
        <time>2012-02-19T08:58:34Z</time>
      </trkpt>
      <trkpt lat="44.59908" lon="0.71804">
        <ele>133</ele>
        <time>2012-02-19T08:58:35Z</time>
      </trkpt>
      <trkpt lat="44.59905" lon="0.71803">
        <ele>133</ele>
        <time>2012-02-19T08:58:36Z</time>
      </trkpt>
      <trkpt lat="44.59902" lon="0.71801">
        <ele>133</ele>
        <time>2012-02-19T08:58:37Z</time>
      </trkpt>
      <trkpt lat="44.59899" lon="0.718">
        <ele>133</ele>
        <time>2012-02-19T08:58:38Z</time>
      </trkpt>
      <trkpt lat="44.59896" lon="0.71799">
        <ele>133</ele>
        <time>2012-02-19T08:58:39Z</time>
      </trkpt>
      <trkpt lat="44.59893" lon="0.71799">
        <ele>133</ele>
        <time>2012-02-19T08:58:40Z</time>
      </trkpt>
      <trkpt lat="44.59889" lon="0.71798">
        <ele>133</ele>
        <time>2012-02-19T08:58:41Z</time>
      </trkpt>
      <trkpt lat="44.59886" lon="0.71797">
        <ele>133</ele>
        <time>2012-02-19T08:58:42Z</time>
      </trkpt>
      <trkpt lat="44.59883" lon="0.71795">
        <ele>133</ele>
        <time>2012-02-19T08:58:43Z</time>
      </trkpt>
      <trkpt lat="44.59879" lon="0.71793">
        <ele>133</ele>
        <time>2012-02-19T08:58:44Z</time>
      </trkpt>
      <trkpt lat="44.59877" lon="0.71791">
        <ele>133</ele>
        <time>2012-02-19T08:58:45Z</time>
      </trkpt>
      <trkpt lat="44.59873" lon="0.7179">
        <ele>133</ele>
        <time>2012-02-19T08:58:46Z</time>
      </trkpt>
      <trkpt lat="44.5987" lon="0.71789">
        <ele>133</ele>
        <time>2012-02-19T08:58:47Z</time>
      </trkpt>
      <trkpt lat="44.59866" lon="0.71787">
        <ele>133</ele>
        <time>2012-02-19T08:58:48Z</time>
      </trkpt>
      <trkpt lat="44.59863" lon="0.71786">
        <ele>133</ele>
        <time>2012-02-19T08:58:49Z</time>
      </trkpt>
      <trkpt lat="44.59859" lon="0.71784">
        <ele>133</ele>
        <time>2012-02-19T08:58:50Z</time>
      </trkpt>
      <trkpt lat="44.59855" lon="0.71782">
        <ele>133</ele>
        <time>2012-02-19T08:58:51Z</time>
      </trkpt>
      <trkpt lat="44.59851" lon="0.71781">
        <ele>133</ele>
        <time>2012-02-19T08:58:52Z</time>
      </trkpt>
      <trkpt lat="44.59847" lon="0.7178">
        <ele>133</ele>
        <time>2012-02-19T08:58:53Z</time>
      </trkpt>
      <trkpt lat="44.59844" lon="0.71779">
        <ele>133</ele>
        <time>2012-02-19T08:58:54Z</time>
      </trkpt>
      <trkpt lat="44.59841" lon="0.71778">
        <ele>133</ele>
        <time>2012-02-19T08:58:55Z</time>
      </trkpt>
      <trkpt lat="44.59838" lon="0.71777">
        <ele>133</ele>
        <time>2012-02-19T08:58:56Z</time>
      </trkpt>
      <trkpt lat="44.59835" lon="0.71777">
        <ele>133</ele>
        <time>2012-02-19T08:58:57Z</time>
      </trkpt>
      <trkpt lat="44.59832" lon="0.71778">
        <ele>133</ele>
        <time>2012-02-19T08:58:58Z</time>
      </trkpt>
      <trkpt lat="44.5983" lon="0.7178">
        <ele>133</ele>
        <time>2012-02-19T08:58:59Z</time>
      </trkpt>
      <trkpt lat="44.59829" lon="0.71784">
        <ele>133</ele>
        <time>2012-02-19T08:59:00Z</time>
      </trkpt>
      <trkpt lat="44.59828" lon="0.71788">
        <ele>133</ele>
        <time>2012-02-19T08:59:01Z</time>
      </trkpt>
      <trkpt lat="44.59827" lon="0.71793">
        <ele>133</ele>
        <time>2012-02-19T08:59:02Z</time>
      </trkpt>
      <trkpt lat="44.59826" lon="0.71798">
        <ele>133</ele>
        <time>2012-02-19T08:59:03Z</time>
      </trkpt>
      <trkpt lat="44.59825" lon="0.71802">
        <ele>133</ele>
        <time>2012-02-19T08:59:04Z</time>
      </trkpt>
      <trkpt lat="44.59824" lon="0.71806">
        <ele>133</ele>
        <time>2012-02-19T08:59:05Z</time>
      </trkpt>
      <trkpt lat="44.59824" lon="0.71811">
        <ele>133</ele>
        <time>2012-02-19T08:59:06Z</time>
      </trkpt>
      <trkpt lat="44.59823" lon="0.71815">
        <ele>132</ele>
        <time>2012-02-19T08:59:07Z</time>
      </trkpt>
      <trkpt lat="44.59822" lon="0.71819">
        <ele>132</ele>
        <time>2012-02-19T08:59:08Z</time>
      </trkpt>
      <trkpt lat="44.59821" lon="0.71824">
        <ele>132</ele>
        <time>2012-02-19T08:59:09Z</time>
      </trkpt>
      <trkpt lat="44.59821" lon="0.71828">
        <ele>132</ele>
        <time>2012-02-19T08:59:10Z</time>
      </trkpt>
      <trkpt lat="44.5982" lon="0.71833">
        <ele>132</ele>
        <time>2012-02-19T08:59:11Z</time>
      </trkpt>
      <trkpt lat="44.5982" lon="0.71838">
        <ele>131</ele>
        <time>2012-02-19T08:59:12Z</time>
      </trkpt>
      <trkpt lat="44.59819" lon="0.71843">
        <ele>131</ele>
        <time>2012-02-19T08:59:13Z</time>
      </trkpt>
      <trkpt lat="44.59818" lon="0.71848">
        <ele>131</ele>
        <time>2012-02-19T08:59:14Z</time>
      </trkpt>
      <trkpt lat="44.59818" lon="0.71852">
        <ele>130</ele>
        <time>2012-02-19T08:59:15Z</time>
      </trkpt>
      <trkpt lat="44.59816" lon="0.71857">
        <ele>130</ele>
        <time>2012-02-19T08:59:16Z</time>
      </trkpt>
      <trkpt lat="44.59816" lon="0.71861">
        <ele>130</ele>
        <time>2012-02-19T08:59:17Z</time>
      </trkpt>
      <trkpt lat="44.59815" lon="0.71866">
        <ele>130</ele>
        <time>2012-02-19T08:59:18Z</time>
      </trkpt>
      <trkpt lat="44.59814" lon="0.71871">
        <ele>129</ele>
        <time>2012-02-19T08:59:19Z</time>
      </trkpt>
      <trkpt lat="44.59814" lon="0.71875">
        <ele>129</ele>
        <time>2012-02-19T08:59:20Z</time>
      </trkpt>
      <trkpt lat="44.59813" lon="0.7188">
        <ele>129</ele>
        <time>2012-02-19T08:59:21Z</time>
      </trkpt>
      <trkpt lat="44.59812" lon="0.71883">
        <ele>129</ele>
        <time>2012-02-19T08:59:22Z</time>
      </trkpt>
      <trkpt lat="44.59812" lon="0.71887">
        <ele>129</ele>
        <time>2012-02-19T08:59:23Z</time>
      </trkpt>
      <trkpt lat="44.59811" lon="0.71891">
        <ele>128</ele>
        <time>2012-02-19T08:59:24Z</time>
      </trkpt>
      <trkpt lat="44.59811" lon="0.71895">
        <ele>128</ele>
        <time>2012-02-19T08:59:25Z</time>
      </trkpt>
      <trkpt lat="44.59811" lon="0.719">
        <ele>128</ele>
        <time>2012-02-19T08:59:26Z</time>
      </trkpt>
      <trkpt lat="44.5981" lon="0.71904">
        <ele>128</ele>
        <time>2012-02-19T08:59:27Z</time>
      </trkpt>
      <trkpt lat="44.5981" lon="0.71909">
        <ele>128</ele>
        <time>2012-02-19T08:59:28Z</time>
      </trkpt>
      <trkpt lat="44.59809" lon="0.71913">
        <ele>128</ele>
        <time>2012-02-19T08:59:29Z</time>
      </trkpt>
      <trkpt lat="44.59809" lon="0.71917">
        <ele>128</ele>
        <time>2012-02-19T08:59:30Z</time>
      </trkpt>
      <trkpt lat="44.59809" lon="0.71922">
        <ele>128</ele>
        <time>2012-02-19T08:59:31Z</time>
      </trkpt>
      <trkpt lat="44.59809" lon="0.71926">
        <ele>128</ele>
        <time>2012-02-19T08:59:32Z</time>
      </trkpt>
      <trkpt lat="44.59808" lon="0.7193">
        <ele>128</ele>
        <time>2012-02-19T08:59:33Z</time>
      </trkpt>
      <trkpt lat="44.59808" lon="0.71934">
        <ele>128</ele>
        <time>2012-02-19T08:59:34Z</time>
      </trkpt>
      <trkpt lat="44.59808" lon="0.71939">
        <ele>128</ele>
        <time>2012-02-19T08:59:35Z</time>
      </trkpt>
      <trkpt lat="44.59807" lon="0.71943">
        <ele>127</ele>
        <time>2012-02-19T08:59:36Z</time>
      </trkpt>
      <trkpt lat="44.59806" lon="0.71948">
        <ele>127</ele>
        <time>2012-02-19T08:59:37Z</time>
      </trkpt>
      <trkpt lat="44.59806" lon="0.71952">
        <ele>127</ele>
        <time>2012-02-19T08:59:38Z</time>
      </trkpt>
      <trkpt lat="44.59806" lon="0.71956">
        <ele>127</ele>
        <time>2012-02-19T08:59:39Z</time>
      </trkpt>
      <trkpt lat="44.59806" lon="0.7196">
        <ele>127</ele>
        <time>2012-02-19T08:59:40Z</time>
      </trkpt>
      <trkpt lat="44.59806" lon="0.71964">
        <ele>127</ele>
        <time>2012-02-19T08:59:41Z</time>
      </trkpt>
      <trkpt lat="44.59806" lon="0.71968">
        <ele>127</ele>
        <time>2012-02-19T08:59:42Z</time>
      </trkpt>
      <trkpt lat="44.59806" lon="0.71972">
        <ele>127</ele>
        <time>2012-02-19T08:59:43Z</time>
      </trkpt>
      <trkpt lat="44.59806" lon="0.71976">
        <ele>127</ele>
        <time>2012-02-19T08:59:44Z</time>
      </trkpt>
      <trkpt lat="44.59806" lon="0.7198">
        <ele>127</ele>
        <time>2012-02-19T08:59:45Z</time>
      </trkpt>
      <trkpt lat="44.59806" lon="0.71984">
        <ele>127</ele>
        <time>2012-02-19T08:59:46Z</time>
      </trkpt>
      <trkpt lat="44.59805" lon="0.71988">
        <ele>127</ele>
        <time>2012-02-19T08:59:47Z</time>
      </trkpt>
      <trkpt lat="44.59805" lon="0.71993">
        <ele>127</ele>
        <time>2012-02-19T08:59:48Z</time>
      </trkpt>
      <trkpt lat="44.59805" lon="0.71997">
        <ele>127</ele>
        <time>2012-02-19T08:59:49Z</time>
      </trkpt>
      <trkpt lat="44.59806" lon="0.72002">
        <ele>127</ele>
        <time>2012-02-19T08:59:50Z</time>
      </trkpt>
      <trkpt lat="44.59805" lon="0.72006">
        <ele>127</ele>
        <time>2012-02-19T08:59:51Z</time>
      </trkpt>
      <trkpt lat="44.59805" lon="0.72011">
        <ele>127</ele>
        <time>2012-02-19T08:59:52Z</time>
      </trkpt>
      <trkpt lat="44.59806" lon="0.72015">
        <ele>127</ele>
        <time>2012-02-19T08:59:53Z</time>
      </trkpt>
      <trkpt lat="44.59806" lon="0.72019">
        <ele>127</ele>
        <time>2012-02-19T08:59:54Z</time>
      </trkpt>
      <trkpt lat="44.59806" lon="0.72023">
        <ele>127</ele>
        <time>2012-02-19T08:59:55Z</time>
      </trkpt>
      <trkpt lat="44.59806" lon="0.72028">
        <ele>127</ele>
        <time>2012-02-19T08:59:56Z</time>
      </trkpt>
      <trkpt lat="44.59806" lon="0.72032">
        <ele>127</ele>
        <time>2012-02-19T08:59:57Z</time>
      </trkpt>
      <trkpt lat="44.59807" lon="0.72036">
        <ele>127</ele>
        <time>2012-02-19T08:59:58Z</time>
      </trkpt>
      <trkpt lat="44.59807" lon="0.7204">
        <ele>127</ele>
        <time>2012-02-19T08:59:59Z</time>
      </trkpt>
      <trkpt lat="44.59807" lon="0.72044">
        <ele>127</ele>
        <time>2012-02-19T09:00:00Z</time>
      </trkpt>
      <trkpt lat="44.59807" lon="0.72049">
        <ele>127</ele>
        <time>2012-02-19T09:00:01Z</time>
      </trkpt>
      <trkpt lat="44.59808" lon="0.72053">
        <ele>127</ele>
        <time>2012-02-19T09:00:02Z</time>
      </trkpt>
      <trkpt lat="44.59808" lon="0.72057">
        <ele>127</ele>
        <time>2012-02-19T09:00:03Z</time>
      </trkpt>
      <trkpt lat="44.59808" lon="0.72061">
        <ele>127</ele>
        <time>2012-02-19T09:00:04Z</time>
      </trkpt>
      <trkpt lat="44.59808" lon="0.72066">
        <ele>127</ele>
        <time>2012-02-19T09:00:05Z</time>
      </trkpt>
      <trkpt lat="44.59809" lon="0.7207">
        <ele>127</ele>
        <time>2012-02-19T09:00:06Z</time>
      </trkpt>
      <trkpt lat="44.59809" lon="0.72074">
        <ele>127</ele>
        <time>2012-02-19T09:00:07Z</time>
      </trkpt>
      <trkpt lat="44.59809" lon="0.72079">
        <ele>127</ele>
        <time>2012-02-19T09:00:08Z</time>
      </trkpt>
      <trkpt lat="44.5981" lon="0.72083">
        <ele>127</ele>
        <time>2012-02-19T09:00:09Z</time>
      </trkpt>
      <trkpt lat="44.5981" lon="0.72087">
        <ele>127</ele>
        <time>2012-02-19T09:00:10Z</time>
      </trkpt>
      <trkpt lat="44.59811" lon="0.72092">
        <ele>127</ele>
        <time>2012-02-19T09:00:11Z</time>
      </trkpt>
      <trkpt lat="44.59811" lon="0.72096">
        <ele>127</ele>
        <time>2012-02-19T09:00:12Z</time>
      </trkpt>
      <trkpt lat="44.59811" lon="0.721">
        <ele>127</ele>
        <time>2012-02-19T09:00:13Z</time>
      </trkpt>
      <trkpt lat="44.59811" lon="0.72104">
        <ele>127</ele>
        <time>2012-02-19T09:00:14Z</time>
      </trkpt>
      <trkpt lat="44.59811" lon="0.72108">
        <ele>127</ele>
        <time>2012-02-19T09:00:15Z</time>
      </trkpt>
      <trkpt lat="44.59812" lon="0.72113">
        <ele>127</ele>
        <time>2012-02-19T09:00:16Z</time>
      </trkpt>
      <trkpt lat="44.59812" lon="0.72117">
        <ele>127</ele>
        <time>2012-02-19T09:00:17Z</time>
      </trkpt>
      <trkpt lat="44.59812" lon="0.72121">
        <ele>127</ele>
        <time>2012-02-19T09:00:18Z</time>
      </trkpt>
      <trkpt lat="44.59813" lon="0.72125">
        <ele>127</ele>
        <time>2012-02-19T09:00:19Z</time>
      </trkpt>
      <trkpt lat="44.59813" lon="0.72129">
        <ele>127</ele>
        <time>2012-02-19T09:00:20Z</time>
      </trkpt>
      <trkpt lat="44.59814" lon="0.72133">
        <ele>127</ele>
        <time>2012-02-19T09:00:21Z</time>
      </trkpt>
      <trkpt lat="44.59814" lon="0.72137">
        <ele>127</ele>
        <time>2012-02-19T09:00:22Z</time>
      </trkpt>
      <trkpt lat="44.59814" lon="0.72141">
        <ele>127</ele>
        <time>2012-02-19T09:00:23Z</time>
      </trkpt>
      <trkpt lat="44.59814" lon="0.72145">
        <ele>127</ele>
        <time>2012-02-19T09:00:24Z</time>
      </trkpt>
      <trkpt lat="44.59815" lon="0.72148">
        <ele>127</ele>
        <time>2012-02-19T09:00:25Z</time>
      </trkpt>
      <trkpt lat="44.59815" lon="0.72152">
        <ele>127</ele>
        <time>2012-02-19T09:00:26Z</time>
      </trkpt>
      <trkpt lat="44.59816" lon="0.72155">
        <ele>127</ele>
        <time>2012-02-19T09:00:27Z</time>
      </trkpt>
      <trkpt lat="44.59816" lon="0.72158">
        <ele>127</ele>
        <time>2012-02-19T09:00:28Z</time>
      </trkpt>
      <trkpt lat="44.59816" lon="0.72162">
        <ele>127</ele>
        <time>2012-02-19T09:00:29Z</time>
      </trkpt>
      <trkpt lat="44.59816" lon="0.72165">
        <ele>127</ele>
        <time>2012-02-19T09:00:30Z</time>
      </trkpt>
      <trkpt lat="44.59816" lon="0.72168">
        <ele>127</ele>
        <time>2012-02-19T09:00:31Z</time>
      </trkpt>
      <trkpt lat="44.59816" lon="0.72172">
        <ele>127</ele>
        <time>2012-02-19T09:00:32Z</time>
      </trkpt>
      <trkpt lat="44.59816" lon="0.72175">
        <ele>127</ele>
        <time>2012-02-19T09:00:33Z</time>
      </trkpt>
      <trkpt lat="44.59816" lon="0.72179">
        <ele>127</ele>
        <time>2012-02-19T09:00:34Z</time>
      </trkpt>
      <trkpt lat="44.59816" lon="0.72182">
        <ele>127</ele>
        <time>2012-02-19T09:00:35Z</time>
      </trkpt>
      <trkpt lat="44.59816" lon="0.72186">
        <ele>127</ele>
        <time>2012-02-19T09:00:36Z</time>
      </trkpt>
      <trkpt lat="44.59816" lon="0.72189">
        <ele>127</ele>
        <time>2012-02-19T09:00:37Z</time>
      </trkpt>
      <trkpt lat="44.59817" lon="0.72192">
        <ele>127</ele>
        <time>2012-02-19T09:00:38Z</time>
      </trkpt>
      <trkpt lat="44.59816" lon="0.72195">
        <ele>127</ele>
        <time>2012-02-19T09:00:39Z</time>
      </trkpt>
      <trkpt lat="44.59816" lon="0.72198">
        <ele>127</ele>
        <time>2012-02-19T09:00:40Z</time>
      </trkpt>
      <trkpt lat="44.59816" lon="0.72201">
        <ele>127</ele>
        <time>2012-02-19T09:00:41Z</time>
      </trkpt>
      <trkpt lat="44.59816" lon="0.72204">
        <ele>127</ele>
        <time>2012-02-19T09:00:42Z</time>
      </trkpt>
      <trkpt lat="44.59816" lon="0.72207">
        <ele>127</ele>
        <time>2012-02-19T09:00:43Z</time>
      </trkpt>
      <trkpt lat="44.59816" lon="0.7221">
        <ele>127</ele>
        <time>2012-02-19T09:00:44Z</time>
      </trkpt>
      <trkpt lat="44.59816" lon="0.72212">
        <ele>128</ele>
        <time>2012-02-19T09:00:45Z</time>
      </trkpt>
      <trkpt lat="44.59816" lon="0.72215">
        <ele>128</ele>
        <time>2012-02-19T09:00:46Z</time>
      </trkpt>
      <trkpt lat="44.59816" lon="0.72218">
        <ele>129</ele>
        <time>2012-02-19T09:00:47Z</time>
      </trkpt>
      <trkpt lat="44.59816" lon="0.72221">
        <ele>129</ele>
        <time>2012-02-19T09:00:48Z</time>
      </trkpt>
      <trkpt lat="44.59816" lon="0.72225">
        <ele>130</ele>
        <time>2012-02-19T09:00:49Z</time>
      </trkpt>
      <trkpt lat="44.59816" lon="0.72228">
        <ele>130</ele>
        <time>2012-02-19T09:00:50Z</time>
      </trkpt>
      <trkpt lat="44.59816" lon="0.72231">
        <ele>130</ele>
        <time>2012-02-19T09:00:51Z</time>
      </trkpt>
      <trkpt lat="44.59816" lon="0.72233">
        <ele>131</ele>
        <time>2012-02-19T09:00:52Z</time>
      </trkpt>
      <trkpt lat="44.59816" lon="0.72236">
        <ele>131</ele>
        <time>2012-02-19T09:00:53Z</time>
      </trkpt>
      <trkpt lat="44.59817" lon="0.72241">
        <ele>131</ele>
        <time>2012-02-19T09:00:54Z</time>
      </trkpt>
      <trkpt lat="44.59818" lon="0.72245">
        <ele>131</ele>
        <time>2012-02-19T09:00:55Z</time>
      </trkpt>
      <trkpt lat="44.59817" lon="0.72248">
        <ele>132</ele>
        <time>2012-02-19T09:00:56Z</time>
      </trkpt>
      <trkpt lat="44.59817" lon="0.72252">
        <ele>132</ele>
        <time>2012-02-19T09:00:57Z</time>
      </trkpt>
      <trkpt lat="44.59819" lon="0.72259">
        <ele>132</ele>
        <time>2012-02-19T09:00:58Z</time>
      </trkpt>
      <trkpt lat="44.59819" lon="0.72262">
        <ele>132</ele>
        <time>2012-02-19T09:00:59Z</time>
      </trkpt>
      <trkpt lat="44.59821" lon="0.72268">
        <ele>132</ele>
        <time>2012-02-19T09:01:00Z</time>
      </trkpt>
      <trkpt lat="44.59822" lon="0.72272">
        <ele>132</ele>
        <time>2012-02-19T09:01:01Z</time>
      </trkpt>
      <trkpt lat="44.59822" lon="0.72276">
        <ele>132</ele>
        <time>2012-02-19T09:01:02Z</time>
      </trkpt>
      <trkpt lat="44.59822" lon="0.7228">
        <ele>132</ele>
        <time>2012-02-19T09:01:03Z</time>
      </trkpt>
      <trkpt lat="44.59823" lon="0.72283">
        <ele>132</ele>
        <time>2012-02-19T09:01:04Z</time>
      </trkpt>
      <trkpt lat="44.59822" lon="0.72286">
        <ele>132</ele>
        <time>2012-02-19T09:01:05Z</time>
      </trkpt>
      <trkpt lat="44.59822" lon="0.72289">
        <ele>132</ele>
        <time>2012-02-19T09:01:06Z</time>
      </trkpt>
      <trkpt lat="44.59822" lon="0.72292">
        <ele>132</ele>
        <time>2012-02-19T09:01:07Z</time>
      </trkpt>
      <trkpt lat="44.59822" lon="0.72297">
        <ele>132</ele>
        <time>2012-02-19T09:01:08Z</time>
      </trkpt>
      <trkpt lat="44.59823" lon="0.72302">
        <ele>132</ele>
        <time>2012-02-19T09:01:09Z</time>
      </trkpt>
      <trkpt lat="44.59823" lon="0.72306">
        <ele>132</ele>
        <time>2012-02-19T09:01:10Z</time>
      </trkpt>
      <trkpt lat="44.59823" lon="0.72311">
        <ele>132</ele>
        <time>2012-02-19T09:01:11Z</time>
      </trkpt>
      <trkpt lat="44.59823" lon="0.72316">
        <ele>132</ele>
        <time>2012-02-19T09:01:12Z</time>
      </trkpt>
      <trkpt lat="44.59823" lon="0.72321">
        <ele>132</ele>
        <time>2012-02-19T09:01:13Z</time>
      </trkpt>
      <trkpt lat="44.59823" lon="0.72326">
        <ele>132</ele>
        <time>2012-02-19T09:01:14Z</time>
      </trkpt>
      <trkpt lat="44.59823" lon="0.72331">
        <ele>132</ele>
        <time>2012-02-19T09:01:15Z</time>
      </trkpt>
      <trkpt lat="44.59822" lon="0.72337">
        <ele>132</ele>
        <time>2012-02-19T09:01:16Z</time>
      </trkpt>
      <trkpt lat="44.59822" lon="0.72342">
        <ele>132</ele>
        <time>2012-02-19T09:01:17Z</time>
      </trkpt>
      <trkpt lat="44.59822" lon="0.72347">
        <ele>132</ele>
        <time>2012-02-19T09:01:18Z</time>
      </trkpt>
      <trkpt lat="44.59822" lon="0.72352">
        <ele>132</ele>
        <time>2012-02-19T09:01:19Z</time>
      </trkpt>
      <trkpt lat="44.59823" lon="0.72357">
        <ele>132</ele>
        <time>2012-02-19T09:01:20Z</time>
      </trkpt>
      <trkpt lat="44.59823" lon="0.72361">
        <ele>132</ele>
        <time>2012-02-19T09:01:21Z</time>
      </trkpt>
      <trkpt lat="44.59822" lon="0.72364">
        <ele>132</ele>
        <time>2012-02-19T09:01:22Z</time>
      </trkpt>
      <trkpt lat="44.59819" lon="0.72364">
        <ele>132</ele>
        <time>2012-02-19T09:01:23Z</time>
      </trkpt>
      <trkpt lat="44.59816" lon="0.72365">
        <ele>132</ele>
        <time>2012-02-19T09:01:24Z</time>
      </trkpt>
      <trkpt lat="44.59812" lon="0.72365">
        <ele>132</ele>
        <time>2012-02-19T09:01:25Z</time>
      </trkpt>
      <trkpt lat="44.59809" lon="0.72365">
        <ele>132</ele>
        <time>2012-02-19T09:01:26Z</time>
      </trkpt>
      <trkpt lat="44.59805" lon="0.72366">
        <ele>132</ele>
        <time>2012-02-19T09:01:27Z</time>
      </trkpt>
      <trkpt lat="44.59803" lon="0.72366">
        <ele>132</ele>
        <time>2012-02-19T09:01:28Z</time>
      </trkpt>
      <trkpt lat="44.598" lon="0.72365">
        <ele>132</ele>
        <time>2012-02-19T09:01:29Z</time>
      </trkpt>
      <trkpt lat="44.59797" lon="0.72365">
        <ele>132</ele>
        <time>2012-02-19T09:01:30Z</time>
      </trkpt>
      <trkpt lat="44.59793" lon="0.72365">
        <ele>132</ele>
        <time>2012-02-19T09:01:31Z</time>
      </trkpt>
      <trkpt lat="44.59789" lon="0.72366">
        <ele>132</ele>
        <time>2012-02-19T09:01:32Z</time>
      </trkpt>
      <trkpt lat="44.59785" lon="0.72366">
        <ele>132</ele>
        <time>2012-02-19T09:01:33Z</time>
      </trkpt>
      <trkpt lat="44.59782" lon="0.72365">
        <ele>132</ele>
        <time>2012-02-19T09:01:34Z</time>
      </trkpt>
      <trkpt lat="44.59778" lon="0.72364">
        <ele>132</ele>
        <time>2012-02-19T09:01:35Z</time>
      </trkpt>
      <trkpt lat="44.59775" lon="0.72363">
        <ele>132</ele>
        <time>2012-02-19T09:01:36Z</time>
      </trkpt>
      <trkpt lat="44.59771" lon="0.72362">
        <ele>132</ele>
        <time>2012-02-19T09:01:37Z</time>
      </trkpt>
      <trkpt lat="44.59766" lon="0.72362">
        <ele>132</ele>
        <time>2012-02-19T09:01:38Z</time>
      </trkpt>
      <trkpt lat="44.59762" lon="0.72362">
        <ele>132</ele>
        <time>2012-02-19T09:01:39Z</time>
      </trkpt>
      <trkpt lat="44.59757" lon="0.72362">
        <ele>132</ele>
        <time>2012-02-19T09:01:40Z</time>
      </trkpt>
      <trkpt lat="44.59752" lon="0.72362">
        <ele>131</ele>
        <time>2012-02-19T09:01:41Z</time>
      </trkpt>
      <trkpt lat="44.59747" lon="0.72362">
        <ele>131</ele>
        <time>2012-02-19T09:01:42Z</time>
      </trkpt>
      <trkpt lat="44.59743" lon="0.72361">
        <ele>130</ele>
        <time>2012-02-19T09:01:43Z</time>
      </trkpt>
      <trkpt lat="44.59739" lon="0.72361">
        <ele>130</ele>
        <time>2012-02-19T09:01:44Z</time>
      </trkpt>
      <trkpt lat="44.59734" lon="0.72361">
        <ele>129</ele>
        <time>2012-02-19T09:01:45Z</time>
      </trkpt>
      <trkpt lat="44.59729" lon="0.72361">
        <ele>129</ele>
        <time>2012-02-19T09:01:46Z</time>
      </trkpt>
      <trkpt lat="44.59724" lon="0.72362">
        <ele>128</ele>
        <time>2012-02-19T09:01:47Z</time>
      </trkpt>
      <trkpt lat="44.59719" lon="0.72362">
        <ele>128</ele>
        <time>2012-02-19T09:01:48Z</time>
      </trkpt>
      <trkpt lat="44.59714" lon="0.72362">
        <ele>128</ele>
        <time>2012-02-19T09:01:49Z</time>
      </trkpt>
      <trkpt lat="44.5971" lon="0.72362">
        <ele>127</ele>
        <time>2012-02-19T09:01:50Z</time>
      </trkpt>
      <trkpt lat="44.59705" lon="0.72362">
        <ele>126</ele>
        <time>2012-02-19T09:01:51Z</time>
      </trkpt>
      <trkpt lat="44.59701" lon="0.72361">
        <ele>126</ele>
        <time>2012-02-19T09:01:52Z</time>
      </trkpt>
      <trkpt lat="44.59696" lon="0.72361">
        <ele>125</ele>
        <time>2012-02-19T09:01:53Z</time>
      </trkpt>
      <trkpt lat="44.59692" lon="0.72361">
        <ele>124</ele>
        <time>2012-02-19T09:01:54Z</time>
      </trkpt>
      <trkpt lat="44.59687" lon="0.7236">
        <ele>124</ele>
        <time>2012-02-19T09:01:55Z</time>
      </trkpt>
      <trkpt lat="44.59683" lon="0.72359">
        <ele>124</ele>
        <time>2012-02-19T09:01:56Z</time>
      </trkpt>
      <trkpt lat="44.59679" lon="0.72358">
        <ele>124</ele>
        <time>2012-02-19T09:01:57Z</time>
      </trkpt>
      <trkpt lat="44.59674" lon="0.72357">
        <ele>124</ele>
        <time>2012-02-19T09:01:58Z</time>
      </trkpt>
      <trkpt lat="44.5967" lon="0.72357">
        <ele>124</ele>
        <time>2012-02-19T09:01:59Z</time>
      </trkpt>
      <trkpt lat="44.59665" lon="0.72356">
        <ele>124</ele>
        <time>2012-02-19T09:02:00Z</time>
      </trkpt>
      <trkpt lat="44.59661" lon="0.72356">
        <ele>124</ele>
        <time>2012-02-19T09:02:01Z</time>
      </trkpt>
      <trkpt lat="44.59657" lon="0.72355">
        <ele>123</ele>
        <time>2012-02-19T09:02:02Z</time>
      </trkpt>
      <trkpt lat="44.59653" lon="0.72355">
        <ele>123</ele>
        <time>2012-02-19T09:02:03Z</time>
      </trkpt>
      <trkpt lat="44.59649" lon="0.72355">
        <ele>122</ele>
        <time>2012-02-19T09:02:04Z</time>
      </trkpt>
      <trkpt lat="44.59644" lon="0.72355">
        <ele>122</ele>
        <time>2012-02-19T09:02:05Z</time>
      </trkpt>
      <trkpt lat="44.59641" lon="0.72355">
        <ele>122</ele>
        <time>2012-02-19T09:02:06Z</time>
      </trkpt>
      <trkpt lat="44.59636" lon="0.72355">
        <ele>121</ele>
        <time>2012-02-19T09:02:07Z</time>
      </trkpt>
      <trkpt lat="44.59632" lon="0.72354">
        <ele>121</ele>
        <time>2012-02-19T09:02:08Z</time>
      </trkpt>
      <trkpt lat="44.59628" lon="0.72354">
        <ele>120</ele>
        <time>2012-02-19T09:02:09Z</time>
      </trkpt>
      <trkpt lat="44.59624" lon="0.72354">
        <ele>120</ele>
        <time>2012-02-19T09:02:10Z</time>
      </trkpt>
      <trkpt lat="44.5962" lon="0.72352">
        <ele>120</ele>
        <time>2012-02-19T09:02:11Z</time>
      </trkpt>
      <trkpt lat="44.59616" lon="0.72352">
        <ele>120</ele>
        <time>2012-02-19T09:02:12Z</time>
      </trkpt>
      <trkpt lat="44.59612" lon="0.72352">
        <ele>119</ele>
        <time>2012-02-19T09:02:13Z</time>
      </trkpt>
      <trkpt lat="44.59609" lon="0.72351">
        <ele>119</ele>
        <time>2012-02-19T09:02:14Z</time>
      </trkpt>
      <trkpt lat="44.59605" lon="0.72351">
        <ele>119</ele>
        <time>2012-02-19T09:02:15Z</time>
      </trkpt>
      <trkpt lat="44.59602" lon="0.7235">
        <ele>118</ele>
        <time>2012-02-19T09:02:16Z</time>
      </trkpt>
      <trkpt lat="44.59597" lon="0.72348">
        <ele>118</ele>
        <time>2012-02-19T09:02:17Z</time>
      </trkpt>
      <trkpt lat="44.59594" lon="0.72348">
        <ele>118</ele>
        <time>2012-02-19T09:02:18Z</time>
      </trkpt>
      <trkpt lat="44.5959" lon="0.72347">
        <ele>118</ele>
        <time>2012-02-19T09:02:19Z</time>
      </trkpt>
      <trkpt lat="44.59586" lon="0.72347">
        <ele>117</ele>
        <time>2012-02-19T09:02:20Z</time>
      </trkpt>
      <trkpt lat="44.59581" lon="0.72345">
        <ele>117</ele>
        <time>2012-02-19T09:02:21Z</time>
      </trkpt>
      <trkpt lat="44.59577" lon="0.72345">
        <ele>117</ele>
        <time>2012-02-19T09:02:22Z</time>
      </trkpt>
      <trkpt lat="44.59573" lon="0.72344">
        <ele>117</ele>
        <time>2012-02-19T09:02:23Z</time>
      </trkpt>
      <trkpt lat="44.59569" lon="0.72343">
        <ele>117</ele>
        <time>2012-02-19T09:02:24Z</time>
      </trkpt>
      <trkpt lat="44.59565" lon="0.72342">
        <ele>117</ele>
        <time>2012-02-19T09:02:25Z</time>
      </trkpt>
      <trkpt lat="44.59561" lon="0.72342">
        <ele>117</ele>
        <time>2012-02-19T09:02:26Z</time>
      </trkpt>
      <trkpt lat="44.59558" lon="0.72341">
        <ele>117</ele>
        <time>2012-02-19T09:02:27Z</time>
      </trkpt>
      <trkpt lat="44.59554" lon="0.72341">
        <ele>117</ele>
        <time>2012-02-19T09:02:28Z</time>
      </trkpt>
      <trkpt lat="44.5955" lon="0.72341">
        <ele>116</ele>
        <time>2012-02-19T09:02:29Z</time>
      </trkpt>
      <trkpt lat="44.59547" lon="0.72341">
        <ele>116</ele>
        <time>2012-02-19T09:02:30Z</time>
      </trkpt>
      <trkpt lat="44.59544" lon="0.72341">
        <ele>115</ele>
        <time>2012-02-19T09:02:31Z</time>
      </trkpt>
      <trkpt lat="44.59542" lon="0.72341">
        <ele>115</ele>
        <time>2012-02-19T09:02:32Z</time>
      </trkpt>
      <trkpt lat="44.59541" lon="0.72341">
        <ele>115</ele>
        <time>2012-02-19T09:02:33Z</time>
      </trkpt>
      <trkpt lat="44.5954" lon="0.72344">
        <ele>115</ele>
        <time>2012-02-19T09:02:35Z</time>
      </trkpt>
      <trkpt lat="44.59542" lon="0.72346">
        <ele>115</ele>
        <time>2012-02-19T09:02:36Z</time>
      </trkpt>
      <trkpt lat="44.59543" lon="0.72348">
        <ele>115</ele>
        <time>2012-02-19T09:02:37Z</time>
      </trkpt>
      <trkpt lat="44.59545" lon="0.72351">
        <ele>115</ele>
        <time>2012-02-19T09:02:38Z</time>
      </trkpt>
      <trkpt lat="44.59545" lon="0.72354">
        <ele>115</ele>
        <time>2012-02-19T09:02:39Z</time>
      </trkpt>
      <trkpt lat="44.59546" lon="0.72357">
        <ele>115</ele>
        <time>2012-02-19T09:02:40Z</time>
      </trkpt>
      <trkpt lat="44.59547" lon="0.7236">
        <ele>115</ele>
        <time>2012-02-19T09:02:41Z</time>
      </trkpt>
      <trkpt lat="44.59548" lon="0.72364">
        <ele>115</ele>
        <time>2012-02-19T09:02:42Z</time>
      </trkpt>
      <trkpt lat="44.59549" lon="0.72367">
        <ele>115</ele>
        <time>2012-02-19T09:02:43Z</time>
      </trkpt>
      <trkpt lat="44.59549" lon="0.72371">
        <ele>115</ele>
        <time>2012-02-19T09:02:44Z</time>
      </trkpt>
      <trkpt lat="44.5955" lon="0.72374">
        <ele>115</ele>
        <time>2012-02-19T09:02:45Z</time>
      </trkpt>
      <trkpt lat="44.5955" lon="0.72377">
        <ele>115</ele>
        <time>2012-02-19T09:02:46Z</time>
      </trkpt>
      <trkpt lat="44.59551" lon="0.72381">
        <ele>115</ele>
        <time>2012-02-19T09:02:47Z</time>
      </trkpt>
      <trkpt lat="44.59552" lon="0.72385">
        <ele>115</ele>
        <time>2012-02-19T09:02:48Z</time>
      </trkpt>
      <trkpt lat="44.59553" lon="0.72388">
        <ele>115</ele>
        <time>2012-02-19T09:02:49Z</time>
      </trkpt>
      <trkpt lat="44.59553" lon="0.72391">
        <ele>115</ele>
        <time>2012-02-19T09:02:50Z</time>
      </trkpt>
      <trkpt lat="44.59553" lon="0.72395">
        <ele>115</ele>
        <time>2012-02-19T09:02:51Z</time>
      </trkpt>
      <trkpt lat="44.59554" lon="0.72398">
        <ele>115</ele>
        <time>2012-02-19T09:02:52Z</time>
      </trkpt>
      <trkpt lat="44.59554" lon="0.72402">
        <ele>116</ele>
        <time>2012-02-19T09:02:53Z</time>
      </trkpt>
      <trkpt lat="44.59555" lon="0.72406">
        <ele>116</ele>
        <time>2012-02-19T09:02:54Z</time>
      </trkpt>
      <trkpt lat="44.59555" lon="0.7241">
        <ele>116</ele>
        <time>2012-02-19T09:02:55Z</time>
      </trkpt>
      <trkpt lat="44.59556" lon="0.72414">
        <ele>117</ele>
        <time>2012-02-19T09:02:56Z</time>
      </trkpt>
      <trkpt lat="44.59556" lon="0.72418">
        <ele>117</ele>
        <time>2012-02-19T09:02:57Z</time>
      </trkpt>
      <trkpt lat="44.59557" lon="0.72422">
        <ele>118</ele>
        <time>2012-02-19T09:02:58Z</time>
      </trkpt>
      <trkpt lat="44.59557" lon="0.72426">
        <ele>118</ele>
        <time>2012-02-19T09:02:59Z</time>
      </trkpt>
      <trkpt lat="44.59557" lon="0.7243">
        <ele>119</ele>
        <time>2012-02-19T09:03:00Z</time>
      </trkpt>
      <trkpt lat="44.59558" lon="0.72434">
        <ele>119</ele>
        <time>2012-02-19T09:03:01Z</time>
      </trkpt>
      <trkpt lat="44.59558" lon="0.72438">
        <ele>119</ele>
        <time>2012-02-19T09:03:02Z</time>
      </trkpt>
      <trkpt lat="44.59558" lon="0.72442">
        <ele>119</ele>
        <time>2012-02-19T09:03:03Z</time>
      </trkpt>
      <trkpt lat="44.59559" lon="0.72446">
        <ele>120</ele>
        <time>2012-02-19T09:03:04Z</time>
      </trkpt>
      <trkpt lat="44.59559" lon="0.72449">
        <ele>120</ele>
        <time>2012-02-19T09:03:05Z</time>
      </trkpt>
      <trkpt lat="44.59559" lon="0.72453">
        <ele>120</ele>
        <time>2012-02-19T09:03:06Z</time>
      </trkpt>
      <trkpt lat="44.5956" lon="0.72457">
        <ele>120</ele>
        <time>2012-02-19T09:03:07Z</time>
      </trkpt>
      <trkpt lat="44.5956" lon="0.72461">
        <ele>121</ele>
        <time>2012-02-19T09:03:08Z</time>
      </trkpt>
      <trkpt lat="44.5956" lon="0.72465">
        <ele>121</ele>
        <time>2012-02-19T09:03:09Z</time>
      </trkpt>
      <trkpt lat="44.5956" lon="0.7247">
        <ele>121</ele>
        <time>2012-02-19T09:03:10Z</time>
      </trkpt>
      <trkpt lat="44.59561" lon="0.72474">
        <ele>121</ele>
        <time>2012-02-19T09:03:11Z</time>
      </trkpt>
      <trkpt lat="44.59561" lon="0.72478">
        <ele>121</ele>
        <time>2012-02-19T09:03:12Z</time>
      </trkpt>
      <trkpt lat="44.59562" lon="0.72482">
        <ele>122</ele>
        <time>2012-02-19T09:03:13Z</time>
      </trkpt>
      <trkpt lat="44.59563" lon="0.72487">
        <ele>122</ele>
        <time>2012-02-19T09:03:14Z</time>
      </trkpt>
      <trkpt lat="44.59564" lon="0.7249">
        <ele>122</ele>
        <time>2012-02-19T09:03:15Z</time>
      </trkpt>
      <trkpt lat="44.59565" lon="0.72494">
        <ele>122</ele>
        <time>2012-02-19T09:03:16Z</time>
      </trkpt>
      <trkpt lat="44.59565" lon="0.72498">
        <ele>123</ele>
        <time>2012-02-19T09:03:17Z</time>
      </trkpt>
      <trkpt lat="44.59566" lon="0.72502">
        <ele>123</ele>
        <time>2012-02-19T09:03:18Z</time>
      </trkpt>
      <trkpt lat="44.59567" lon="0.72505">
        <ele>123</ele>
        <time>2012-02-19T09:03:19Z</time>
      </trkpt>
      <trkpt lat="44.59568" lon="0.72508">
        <ele>123</ele>
        <time>2012-02-19T09:03:20Z</time>
      </trkpt>
      <trkpt lat="44.59568" lon="0.72511">
        <ele>124</ele>
        <time>2012-02-19T09:03:21Z</time>
      </trkpt>
      <trkpt lat="44.59569" lon="0.72514">
        <ele>124</ele>
        <time>2012-02-19T09:03:22Z</time>
      </trkpt>
      <trkpt lat="44.59569" lon="0.72517">
        <ele>124</ele>
        <time>2012-02-19T09:03:23Z</time>
      </trkpt>
      <trkpt lat="44.59569" lon="0.72519">
        <ele>125</ele>
        <time>2012-02-19T09:03:24Z</time>
      </trkpt>
      <trkpt lat="44.5957" lon="0.72521">
        <ele>126</ele>
        <time>2012-02-19T09:03:25Z</time>
      </trkpt>
      <trkpt lat="44.5957" lon="0.72524">
        <ele>126</ele>
        <time>2012-02-19T09:03:26Z</time>
      </trkpt>
      <trkpt lat="44.59571" lon="0.72528">
        <ele>127</ele>
        <time>2012-02-19T09:03:27Z</time>
      </trkpt>
      <trkpt lat="44.59572" lon="0.72532">
        <ele>127</ele>
        <time>2012-02-19T09:03:28Z</time>
      </trkpt>
      <trkpt lat="44.59573" lon="0.72536">
        <ele>127</ele>
        <time>2012-02-19T09:03:29Z</time>
      </trkpt>
      <trkpt lat="44.59573" lon="0.72539">
        <ele>127</ele>
        <time>2012-02-19T09:03:30Z</time>
      </trkpt>
      <trkpt lat="44.59574" lon="0.72543">
        <ele>127</ele>
        <time>2012-02-19T09:03:31Z</time>
      </trkpt>
      <trkpt lat="44.59575" lon="0.72546">
        <ele>127</ele>
        <time>2012-02-19T09:03:32Z</time>
      </trkpt>
      <trkpt lat="44.59575" lon="0.7255">
        <ele>127</ele>
        <time>2012-02-19T09:03:33Z</time>
      </trkpt>
      <trkpt lat="44.59576" lon="0.72553">
        <ele>127</ele>
        <time>2012-02-19T09:03:34Z</time>
      </trkpt>
      <trkpt lat="44.59577" lon="0.72557">
        <ele>127</ele>
        <time>2012-02-19T09:03:35Z</time>
      </trkpt>
      <trkpt lat="44.59578" lon="0.7256">
        <ele>127</ele>
        <time>2012-02-19T09:03:36Z</time>
      </trkpt>
      <trkpt lat="44.59578" lon="0.72563">
        <ele>127</ele>
        <time>2012-02-19T09:03:37Z</time>
      </trkpt>
      <trkpt lat="44.59578" lon="0.72566">
        <ele>128</ele>
        <time>2012-02-19T09:03:38Z</time>
      </trkpt>
      <trkpt lat="44.59578" lon="0.72569">
        <ele>128</ele>
        <time>2012-02-19T09:03:39Z</time>
      </trkpt>
      <trkpt lat="44.59579" lon="0.72572">
        <ele>128</ele>
        <time>2012-02-19T09:03:40Z</time>
      </trkpt>
      <trkpt lat="44.59579" lon="0.72575">
        <ele>128</ele>
        <time>2012-02-19T09:03:41Z</time>
      </trkpt>
      <trkpt lat="44.5958" lon="0.72577">
        <ele>128</ele>
        <time>2012-02-19T09:03:42Z</time>
      </trkpt>
      <trkpt lat="44.59581" lon="0.7258">
        <ele>128</ele>
        <time>2012-02-19T09:03:43Z</time>
      </trkpt>
      <trkpt lat="44.59581" lon="0.72582">
        <ele>128</ele>
        <time>2012-02-19T09:03:44Z</time>
      </trkpt>
      <trkpt lat="44.59581" lon="0.72585">
        <ele>128</ele>
        <time>2012-02-19T09:03:45Z</time>
      </trkpt>
      <trkpt lat="44.59581" lon="0.72588">
        <ele>128</ele>
        <time>2012-02-19T09:03:46Z</time>
      </trkpt>
      <trkpt lat="44.59581" lon="0.7259">
        <ele>128</ele>
        <time>2012-02-19T09:03:47Z</time>
      </trkpt>
      <trkpt lat="44.5958" lon="0.72593">
        <ele>128</ele>
        <time>2012-02-19T09:03:48Z</time>
      </trkpt>
      <trkpt lat="44.59579" lon="0.72594">
        <ele>128</ele>
        <time>2012-02-19T09:03:49Z</time>
      </trkpt>
      <trkpt lat="44.59578" lon="0.72596">
        <ele>128</ele>
        <time>2012-02-19T09:03:50Z</time>
      </trkpt>
      <trkpt lat="44.59577" lon="0.72598">
        <ele>128</ele>
        <time>2012-02-19T09:03:55Z</time>
      </trkpt>
      <trkpt lat="44.59576" lon="0.72595">
        <ele>128</ele>
        <time>2012-02-19T09:04:02Z</time>
      </trkpt>
      <trkpt lat="44.59574" lon="0.72594">
        <ele>128</ele>
        <time>2012-02-19T09:04:10Z</time>
      </trkpt>
      <trkpt lat="44.59576" lon="0.72594">
        <ele>128</ele>
        <time>2012-02-19T09:04:40Z</time>
      </trkpt>
      <trkpt lat="44.59577" lon="0.72594">
        <ele>128</ele>
        <time>2012-02-19T09:04:41Z</time>
      </trkpt>
      <trkpt lat="44.59578" lon="0.72595">
        <ele>131</ele>
        <time>2012-02-19T09:04:44Z</time>
      </trkpt>
      <trkpt lat="44.59576" lon="0.72595">
        <ele>132</ele>
        <time>2012-02-19T09:04:46Z</time>
      </trkpt>
      <trkpt lat="44.59574" lon="0.72596">
        <ele>132</ele>
        <time>2012-02-19T09:04:47Z</time>
      </trkpt>
      <trkpt lat="44.59573" lon="0.72597">
        <ele>132</ele>
        <time>2012-02-19T09:04:48Z</time>
      </trkpt>
      <trkpt lat="44.5957" lon="0.72597">
        <ele>133</ele>
        <time>2012-02-19T09:04:49Z</time>
      </trkpt>
      <trkpt lat="44.59568" lon="0.72598">
        <ele>133</ele>
        <time>2012-02-19T09:04:50Z</time>
      </trkpt>
      <trkpt lat="44.59566" lon="0.72598">
        <ele>133</ele>
        <time>2012-02-19T09:04:51Z</time>
      </trkpt>
      <trkpt lat="44.59564" lon="0.72598">
        <ele>133</ele>
        <time>2012-02-19T09:04:52Z</time>
      </trkpt>
      <trkpt lat="44.59562" lon="0.72599">
        <ele>133</ele>
        <time>2012-02-19T09:04:53Z</time>
      </trkpt>
      <trkpt lat="44.59559" lon="0.726">
        <ele>133</ele>
        <time>2012-02-19T09:04:54Z</time>
      </trkpt>
      <trkpt lat="44.59556" lon="0.72602">
        <ele>133</ele>
        <time>2012-02-19T09:04:55Z</time>
      </trkpt>
      <trkpt lat="44.59554" lon="0.72603">
        <ele>133</ele>
        <time>2012-02-19T09:04:56Z</time>
      </trkpt>
      <trkpt lat="44.59549" lon="0.72604">
        <ele>133</ele>
        <time>2012-02-19T09:04:57Z</time>
      </trkpt>
      <trkpt lat="44.59546" lon="0.72605">
        <ele>133</ele>
        <time>2012-02-19T09:04:58Z</time>
      </trkpt>
      <trkpt lat="44.59543" lon="0.72605">
        <ele>133</ele>
        <time>2012-02-19T09:04:59Z</time>
      </trkpt>
      <trkpt lat="44.59541" lon="0.72605">
        <ele>133</ele>
        <time>2012-02-19T09:05:00Z</time>
      </trkpt>
      <trkpt lat="44.59538" lon="0.72605">
        <ele>133</ele>
        <time>2012-02-19T09:05:01Z</time>
      </trkpt>
      <trkpt lat="44.59535" lon="0.72605">
        <ele>133</ele>
        <time>2012-02-19T09:05:02Z</time>
      </trkpt>
      <trkpt lat="44.59531" lon="0.72605">
        <ele>133</ele>
        <time>2012-02-19T09:05:03Z</time>
      </trkpt>
      <trkpt lat="44.59528" lon="0.72606">
        <ele>133</ele>
        <time>2012-02-19T09:05:04Z</time>
      </trkpt>
      <trkpt lat="44.59522" lon="0.72608">
        <ele>133</ele>
        <time>2012-02-19T09:05:05Z</time>
      </trkpt>
      <trkpt lat="44.59518" lon="0.72608">
        <ele>133</ele>
        <time>2012-02-19T09:05:06Z</time>
      </trkpt>
      <trkpt lat="44.59514" lon="0.72609">
        <ele>133</ele>
        <time>2012-02-19T09:05:07Z</time>
      </trkpt>
      <trkpt lat="44.5951" lon="0.7261">
        <ele>133</ele>
        <time>2012-02-19T09:05:08Z</time>
      </trkpt>
      <trkpt lat="44.59506" lon="0.7261">
        <ele>133</ele>
        <time>2012-02-19T09:05:09Z</time>
      </trkpt>
      <trkpt lat="44.59502" lon="0.7261">
        <ele>133</ele>
        <time>2012-02-19T09:05:10Z</time>
      </trkpt>
      <trkpt lat="44.59499" lon="0.72611">
        <ele>133</ele>
        <time>2012-02-19T09:05:11Z</time>
      </trkpt>
      <trkpt lat="44.59495" lon="0.7261">
        <ele>133</ele>
        <time>2012-02-19T09:05:12Z</time>
      </trkpt>
      <trkpt lat="44.59491" lon="0.7261">
        <ele>133</ele>
        <time>2012-02-19T09:05:13Z</time>
      </trkpt>
      <trkpt lat="44.59487" lon="0.7261">
        <ele>133</ele>
        <time>2012-02-19T09:05:14Z</time>
      </trkpt>
      <trkpt lat="44.59483" lon="0.7261">
        <ele>133</ele>
        <time>2012-02-19T09:05:15Z</time>
      </trkpt>
      <trkpt lat="44.59479" lon="0.7261">
        <ele>133</ele>
        <time>2012-02-19T09:05:16Z</time>
      </trkpt>
      <trkpt lat="44.59474" lon="0.7261">
        <ele>133</ele>
        <time>2012-02-19T09:05:17Z</time>
      </trkpt>
      <trkpt lat="44.5947" lon="0.72609">
        <ele>133</ele>
        <time>2012-02-19T09:05:18Z</time>
      </trkpt>
      <trkpt lat="44.59465" lon="0.72609">
        <ele>133</ele>
        <time>2012-02-19T09:05:19Z</time>
      </trkpt>
      <trkpt lat="44.59461" lon="0.72608">
        <ele>133</ele>
        <time>2012-02-19T09:05:20Z</time>
      </trkpt>
      <trkpt lat="44.59456" lon="0.72607">
        <ele>133</ele>
        <time>2012-02-19T09:05:21Z</time>
      </trkpt>
      <trkpt lat="44.59451" lon="0.72606">
        <ele>133</ele>
        <time>2012-02-19T09:05:22Z</time>
      </trkpt>
      <trkpt lat="44.59446" lon="0.72605">
        <ele>133</ele>
        <time>2012-02-19T09:05:23Z</time>
      </trkpt>
      <trkpt lat="44.59441" lon="0.72604">
        <ele>133</ele>
        <time>2012-02-19T09:05:24Z</time>
      </trkpt>
      <trkpt lat="44.59435" lon="0.72603">
        <ele>133</ele>
        <time>2012-02-19T09:05:25Z</time>
      </trkpt>
      <trkpt lat="44.5943" lon="0.72602">
        <ele>133</ele>
        <time>2012-02-19T09:05:26Z</time>
      </trkpt>
      <trkpt lat="44.59425" lon="0.72601">
        <ele>133</ele>
        <time>2012-02-19T09:05:27Z</time>
      </trkpt>
      <trkpt lat="44.5942" lon="0.726">
        <ele>133</ele>
        <time>2012-02-19T09:05:28Z</time>
      </trkpt>
      <trkpt lat="44.59415" lon="0.726">
        <ele>133</ele>
        <time>2012-02-19T09:05:29Z</time>
      </trkpt>
      <trkpt lat="44.59409" lon="0.72599">
        <ele>133</ele>
        <time>2012-02-19T09:05:30Z</time>
      </trkpt>
      <trkpt lat="44.59403" lon="0.72598">
        <ele>133</ele>
        <time>2012-02-19T09:05:31Z</time>
      </trkpt>
      <trkpt lat="44.59397" lon="0.72597">
        <ele>133</ele>
        <time>2012-02-19T09:05:32Z</time>
      </trkpt>
      <trkpt lat="44.59391" lon="0.72597">
        <ele>133</ele>
        <time>2012-02-19T09:05:33Z</time>
      </trkpt>
      <trkpt lat="44.59385" lon="0.72596">
        <ele>133</ele>
        <time>2012-02-19T09:05:34Z</time>
      </trkpt>
      <trkpt lat="44.59379" lon="0.72596">
        <ele>133</ele>
        <time>2012-02-19T09:05:35Z</time>
      </trkpt>
      <trkpt lat="44.59373" lon="0.72595">
        <ele>133</ele>
        <time>2012-02-19T09:05:36Z</time>
      </trkpt>
      <trkpt lat="44.59367" lon="0.72595">
        <ele>133</ele>
        <time>2012-02-19T09:05:37Z</time>
      </trkpt>
      <trkpt lat="44.59359" lon="0.72594">
        <ele>133</ele>
        <time>2012-02-19T09:05:38Z</time>
      </trkpt>
      <trkpt lat="44.59353" lon="0.72594">
        <ele>133</ele>
        <time>2012-02-19T09:05:39Z</time>
      </trkpt>
      <trkpt lat="44.59346" lon="0.72593">
        <ele>133</ele>
        <time>2012-02-19T09:05:40Z</time>
      </trkpt>
      <trkpt lat="44.59339" lon="0.72593">
        <ele>133</ele>
        <time>2012-02-19T09:05:41Z</time>
      </trkpt>
      <trkpt lat="44.59332" lon="0.72593">
        <ele>133</ele>
        <time>2012-02-19T09:05:42Z</time>
      </trkpt>
      <trkpt lat="44.59325" lon="0.72593">
        <ele>133</ele>
        <time>2012-02-19T09:05:43Z</time>
      </trkpt>
      <trkpt lat="44.59317" lon="0.72593">
        <ele>133</ele>
        <time>2012-02-19T09:05:44Z</time>
      </trkpt>
      <trkpt lat="44.59309" lon="0.72592">
        <ele>133</ele>
        <time>2012-02-19T09:05:45Z</time>
      </trkpt>
      <trkpt lat="44.59301" lon="0.72592">
        <ele>133</ele>
        <time>2012-02-19T09:05:46Z</time>
      </trkpt>
      <trkpt lat="44.59294" lon="0.72592">
        <ele>132</ele>
        <time>2012-02-19T09:05:47Z</time>
      </trkpt>
      <trkpt lat="44.59286" lon="0.72592">
        <ele>132</ele>
        <time>2012-02-19T09:05:48Z</time>
      </trkpt>
      <trkpt lat="44.59278" lon="0.72591">
        <ele>131</ele>
        <time>2012-02-19T09:05:49Z</time>
      </trkpt>
      <trkpt lat="44.5927" lon="0.7259">
        <ele>130</ele>
        <time>2012-02-19T09:05:50Z</time>
      </trkpt>
      <trkpt lat="44.59263" lon="0.7259">
        <ele>129</ele>
        <time>2012-02-19T09:05:51Z</time>
      </trkpt>
      <trkpt lat="44.59256" lon="0.72591">
        <ele>129</ele>
        <time>2012-02-19T09:05:52Z</time>
      </trkpt>
      <trkpt lat="44.59248" lon="0.72593">
        <ele>128</ele>
        <time>2012-02-19T09:05:53Z</time>
      </trkpt>
      <trkpt lat="44.59241" lon="0.72593">
        <ele>127</ele>
        <time>2012-02-19T09:05:54Z</time>
      </trkpt>
      <trkpt lat="44.59235" lon="0.72593">
        <ele>126</ele>
        <time>2012-02-19T09:05:55Z</time>
      </trkpt>
      <trkpt lat="44.59229" lon="0.72594">
        <ele>125</ele>
        <time>2012-02-19T09:05:56Z</time>
      </trkpt>
      <trkpt lat="44.59223" lon="0.72597">
        <ele>124</ele>
        <time>2012-02-19T09:05:57Z</time>
      </trkpt>
      <trkpt lat="44.59217" lon="0.72603">
        <ele>123</ele>
        <time>2012-02-19T09:05:58Z</time>
      </trkpt>
      <trkpt lat="44.5921" lon="0.72607">
        <ele>122</ele>
        <time>2012-02-19T09:05:59Z</time>
      </trkpt>
      <trkpt lat="44.59204" lon="0.7261">
        <ele>121</ele>
        <time>2012-02-19T09:06:00Z</time>
      </trkpt>
      <trkpt lat="44.59199" lon="0.72614">
        <ele>120</ele>
        <time>2012-02-19T09:06:01Z</time>
      </trkpt>
      <trkpt lat="44.59193" lon="0.72618">
        <ele>119</ele>
        <time>2012-02-19T09:06:02Z</time>
      </trkpt>
      <trkpt lat="44.59187" lon="0.72623">
        <ele>118</ele>
        <time>2012-02-19T09:06:03Z</time>
      </trkpt>
      <trkpt lat="44.59182" lon="0.7263">
        <ele>117</ele>
        <time>2012-02-19T09:06:04Z</time>
      </trkpt>
      <trkpt lat="44.59176" lon="0.72636">
        <ele>116</ele>
        <time>2012-02-19T09:06:05Z</time>
      </trkpt>
      <trkpt lat="44.59172" lon="0.72643">
        <ele>115</ele>
        <time>2012-02-19T09:06:06Z</time>
      </trkpt>
      <trkpt lat="44.59166" lon="0.7265">
        <ele>114</ele>
        <time>2012-02-19T09:06:07Z</time>
      </trkpt>
      <trkpt lat="44.59162" lon="0.72656">
        <ele>113</ele>
        <time>2012-02-19T09:06:08Z</time>
      </trkpt>
      <trkpt lat="44.59157" lon="0.72662">
        <ele>112</ele>
        <time>2012-02-19T09:06:09Z</time>
      </trkpt>
      <trkpt lat="44.59153" lon="0.72668">
        <ele>111</ele>
        <time>2012-02-19T09:06:10Z</time>
      </trkpt>
      <trkpt lat="44.59148" lon="0.72675">
        <ele>110</ele>
        <time>2012-02-19T09:06:11Z</time>
      </trkpt>
      <trkpt lat="44.59143" lon="0.72681">
        <ele>109</ele>
        <time>2012-02-19T09:06:12Z</time>
      </trkpt>
      <trkpt lat="44.59138" lon="0.72686">
        <ele>108</ele>
        <time>2012-02-19T09:06:13Z</time>
      </trkpt>
      <trkpt lat="44.59134" lon="0.72692">
        <ele>108</ele>
        <time>2012-02-19T09:06:14Z</time>
      </trkpt>
      <trkpt lat="44.59129" lon="0.72698">
        <ele>107</ele>
        <time>2012-02-19T09:06:15Z</time>
      </trkpt>
      <trkpt lat="44.59125" lon="0.72704">
        <ele>107</ele>
        <time>2012-02-19T09:06:16Z</time>
      </trkpt>
      <trkpt lat="44.59121" lon="0.7271">
        <ele>106</ele>
        <time>2012-02-19T09:06:17Z</time>
      </trkpt>
      <trkpt lat="44.59117" lon="0.72715">
        <ele>106</ele>
        <time>2012-02-19T09:06:18Z</time>
      </trkpt>
      <trkpt lat="44.59113" lon="0.7272">
        <ele>106</ele>
        <time>2012-02-19T09:06:19Z</time>
      </trkpt>
      <trkpt lat="44.59109" lon="0.72725">
        <ele>106</ele>
        <time>2012-02-19T09:06:20Z</time>
      </trkpt>
      <trkpt lat="44.59106" lon="0.7273">
        <ele>105</ele>
        <time>2012-02-19T09:06:21Z</time>
      </trkpt>
      <trkpt lat="44.59103" lon="0.72734">
        <ele>105</ele>
        <time>2012-02-19T09:06:22Z</time>
      </trkpt>
      <trkpt lat="44.591" lon="0.72739">
        <ele>105</ele>
        <time>2012-02-19T09:06:23Z</time>
      </trkpt>
      <trkpt lat="44.59097" lon="0.72743">
        <ele>105</ele>
        <time>2012-02-19T09:06:24Z</time>
      </trkpt>
      <trkpt lat="44.59094" lon="0.72746">
        <ele>105</ele>
        <time>2012-02-19T09:06:25Z</time>
      </trkpt>
      <trkpt lat="44.59091" lon="0.72747">
        <ele>105</ele>
        <time>2012-02-19T09:06:26Z</time>
      </trkpt>
      <trkpt lat="44.5909" lon="0.72748">
        <ele>105</ele>
        <time>2012-02-19T09:06:27Z</time>
      </trkpt>
      <trkpt lat="44.59088" lon="0.72749">
        <ele>105</ele>
        <time>2012-02-19T09:06:28Z</time>
      </trkpt>
      <trkpt lat="44.59087" lon="0.72748">
        <ele>105</ele>
        <time>2012-02-19T09:06:29Z</time>
      </trkpt>
      <trkpt lat="44.59084" lon="0.72747">
        <ele>105</ele>
        <time>2012-02-19T09:06:30Z</time>
      </trkpt>
      <trkpt lat="44.59082" lon="0.72747">
        <ele>105</ele>
        <time>2012-02-19T09:06:31Z</time>
      </trkpt>
      <trkpt lat="44.59079" lon="0.72748">
        <ele>105</ele>
        <time>2012-02-19T09:06:32Z</time>
      </trkpt>
      <trkpt lat="44.59076" lon="0.72747">
        <ele>105</ele>
        <time>2012-02-19T09:06:33Z</time>
      </trkpt>
      <trkpt lat="44.59074" lon="0.72747">
        <ele>105</ele>
        <time>2012-02-19T09:06:34Z</time>
      </trkpt>
      <trkpt lat="44.59073" lon="0.72749">
        <ele>105</ele>
        <time>2012-02-19T09:06:35Z</time>
      </trkpt>
      <trkpt lat="44.59071" lon="0.72749">
        <ele>105</ele>
        <time>2012-02-19T09:06:36Z</time>
      </trkpt>
      <trkpt lat="44.59069" lon="0.7275">
        <ele>105</ele>
        <time>2012-02-19T09:06:37Z</time>
      </trkpt>
      <trkpt lat="44.59068" lon="0.7275">
        <ele>105</ele>
        <time>2012-02-19T09:06:38Z</time>
      </trkpt>
      <trkpt lat="44.59066" lon="0.7275">
        <ele>105</ele>
        <time>2012-02-19T09:06:39Z</time>
      </trkpt>
      <trkpt lat="44.59064" lon="0.72749">
        <ele>105</ele>
        <time>2012-02-19T09:06:40Z</time>
      </trkpt>
      <trkpt lat="44.59061" lon="0.72748">
        <ele>105</ele>
        <time>2012-02-19T09:06:41Z</time>
      </trkpt>
      <trkpt lat="44.59059" lon="0.72747">
        <ele>105</ele>
        <time>2012-02-19T09:06:42Z</time>
      </trkpt>
      <trkpt lat="44.59057" lon="0.72747">
        <ele>105</ele>
        <time>2012-02-19T09:06:43Z</time>
      </trkpt>
      <trkpt lat="44.59055" lon="0.72746">
        <ele>105</ele>
        <time>2012-02-19T09:06:44Z</time>
      </trkpt>
      <trkpt lat="44.59052" lon="0.72746">
        <ele>105</ele>
        <time>2012-02-19T09:06:45Z</time>
      </trkpt>
      <trkpt lat="44.59049" lon="0.72745">
        <ele>105</ele>
        <time>2012-02-19T09:06:46Z</time>
      </trkpt>
      <trkpt lat="44.59047" lon="0.72744">
        <ele>105</ele>
        <time>2012-02-19T09:06:47Z</time>
      </trkpt>
      <trkpt lat="44.59044" lon="0.72742">
        <ele>105</ele>
        <time>2012-02-19T09:06:48Z</time>
      </trkpt>
      <trkpt lat="44.59042" lon="0.72742">
        <ele>105</ele>
        <time>2012-02-19T09:06:49Z</time>
      </trkpt>
      <trkpt lat="44.5904" lon="0.7274">
        <ele>105</ele>
        <time>2012-02-19T09:06:50Z</time>
      </trkpt>
      <trkpt lat="44.59037" lon="0.72739">
        <ele>105</ele>
        <time>2012-02-19T09:06:51Z</time>
      </trkpt>
      <trkpt lat="44.59035" lon="0.72738">
        <ele>105</ele>
        <time>2012-02-19T09:06:52Z</time>
      </trkpt>
      <trkpt lat="44.59032" lon="0.72737">
        <ele>105</ele>
        <time>2012-02-19T09:06:53Z</time>
      </trkpt>
      <trkpt lat="44.5903" lon="0.72736">
        <ele>105</ele>
        <time>2012-02-19T09:06:54Z</time>
      </trkpt>
      <trkpt lat="44.59028" lon="0.72735">
        <ele>105</ele>
        <time>2012-02-19T09:06:55Z</time>
      </trkpt>
      <trkpt lat="44.59025" lon="0.72734">
        <ele>105</ele>
        <time>2012-02-19T09:06:56Z</time>
      </trkpt>
      <trkpt lat="44.59023" lon="0.72733">
        <ele>105</ele>
        <time>2012-02-19T09:06:57Z</time>
      </trkpt>
      <trkpt lat="44.5902" lon="0.72733">
        <ele>105</ele>
        <time>2012-02-19T09:06:58Z</time>
      </trkpt>
      <trkpt lat="44.59018" lon="0.72732">
        <ele>105</ele>
        <time>2012-02-19T09:06:59Z</time>
      </trkpt>
      <trkpt lat="44.59016" lon="0.72731">
        <ele>105</ele>
        <time>2012-02-19T09:07:00Z</time>
      </trkpt>
      <trkpt lat="44.59013" lon="0.7273">
        <ele>105</ele>
        <time>2012-02-19T09:07:01Z</time>
      </trkpt>
      <trkpt lat="44.59011" lon="0.72729">
        <ele>105</ele>
        <time>2012-02-19T09:07:02Z</time>
      </trkpt>
      <trkpt lat="44.59009" lon="0.72729">
        <ele>105</ele>
        <time>2012-02-19T09:07:03Z</time>
      </trkpt>
      <trkpt lat="44.59007" lon="0.72727">
        <ele>105</ele>
        <time>2012-02-19T09:07:04Z</time>
      </trkpt>
      <trkpt lat="44.59004" lon="0.72726">
        <ele>105</ele>
        <time>2012-02-19T09:07:05Z</time>
      </trkpt>
      <trkpt lat="44.59002" lon="0.72725">
        <ele>105</ele>
        <time>2012-02-19T09:07:06Z</time>
      </trkpt>
      <trkpt lat="44.59" lon="0.72725">
        <ele>105</ele>
        <time>2012-02-19T09:07:07Z</time>
      </trkpt>
      <trkpt lat="44.58997" lon="0.72724">
        <ele>105</ele>
        <time>2012-02-19T09:07:08Z</time>
      </trkpt>
      <trkpt lat="44.58995" lon="0.72723">
        <ele>105</ele>
        <time>2012-02-19T09:07:09Z</time>
      </trkpt>
      <trkpt lat="44.58992" lon="0.72723">
        <ele>105</ele>
        <time>2012-02-19T09:07:10Z</time>
      </trkpt>
      <trkpt lat="44.5899" lon="0.72722">
        <ele>105</ele>
        <time>2012-02-19T09:07:11Z</time>
      </trkpt>
      <trkpt lat="44.58987" lon="0.72721">
        <ele>105</ele>
        <time>2012-02-19T09:07:12Z</time>
      </trkpt>
      <trkpt lat="44.58984" lon="0.72721">
        <ele>105</ele>
        <time>2012-02-19T09:07:13Z</time>
      </trkpt>
      <trkpt lat="44.58982" lon="0.7272">
        <ele>105</ele>
        <time>2012-02-19T09:07:14Z</time>
      </trkpt>
      <trkpt lat="44.5898" lon="0.72719">
        <ele>105</ele>
        <time>2012-02-19T09:07:15Z</time>
      </trkpt>
      <trkpt lat="44.58978" lon="0.72717">
        <ele>105</ele>
        <time>2012-02-19T09:07:16Z</time>
      </trkpt>
      <trkpt lat="44.58976" lon="0.72716">
        <ele>105</ele>
        <time>2012-02-19T09:07:17Z</time>
      </trkpt>
      <trkpt lat="44.58974" lon="0.72715">
        <ele>105</ele>
        <time>2012-02-19T09:07:18Z</time>
      </trkpt>
      <trkpt lat="44.58971" lon="0.72714">
        <ele>105</ele>
        <time>2012-02-19T09:07:19Z</time>
      </trkpt>
      <trkpt lat="44.58969" lon="0.72712">
        <ele>105</ele>
        <time>2012-02-19T09:07:20Z</time>
      </trkpt>
      <trkpt lat="44.58967" lon="0.72711">
        <ele>105</ele>
        <time>2012-02-19T09:07:21Z</time>
      </trkpt>
      <trkpt lat="44.58965" lon="0.7271">
        <ele>105</ele>
        <time>2012-02-19T09:07:22Z</time>
      </trkpt>
      <trkpt lat="44.58963" lon="0.72709">
        <ele>106</ele>
        <time>2012-02-19T09:07:23Z</time>
      </trkpt>
      <trkpt lat="44.58962" lon="0.72708">
        <ele>106</ele>
        <time>2012-02-19T09:07:24Z</time>
      </trkpt>
      <trkpt lat="44.5896" lon="0.72707">
        <ele>106</ele>
        <time>2012-02-19T09:07:25Z</time>
      </trkpt>
      <trkpt lat="44.58958" lon="0.72705">
        <ele>106</ele>
        <time>2012-02-19T09:07:26Z</time>
      </trkpt>
      <trkpt lat="44.58956" lon="0.72704">
        <ele>106</ele>
        <time>2012-02-19T09:07:27Z</time>
      </trkpt>
      <trkpt lat="44.58954" lon="0.72703">
        <ele>106</ele>
        <time>2012-02-19T09:07:28Z</time>
      </trkpt>
      <trkpt lat="44.58952" lon="0.72702">
        <ele>107</ele>
        <time>2012-02-19T09:07:29Z</time>
      </trkpt>
      <trkpt lat="44.58951" lon="0.72701">
        <ele>107</ele>
        <time>2012-02-19T09:07:30Z</time>
      </trkpt>
      <trkpt lat="44.58949" lon="0.727">
        <ele>107</ele>
        <time>2012-02-19T09:07:31Z</time>
      </trkpt>
      <trkpt lat="44.58947" lon="0.72699">
        <ele>107</ele>
        <time>2012-02-19T09:07:32Z</time>
      </trkpt>
      <trkpt lat="44.58945" lon="0.72698">
        <ele>108</ele>
        <time>2012-02-19T09:07:33Z</time>
      </trkpt>
      <trkpt lat="44.58944" lon="0.72697">
        <ele>108</ele>
        <time>2012-02-19T09:07:34Z</time>
      </trkpt>
      <trkpt lat="44.58942" lon="0.72695">
        <ele>108</ele>
        <time>2012-02-19T09:07:35Z</time>
      </trkpt>
      <trkpt lat="44.5894" lon="0.72694">
        <ele>108</ele>
        <time>2012-02-19T09:07:36Z</time>
      </trkpt>
      <trkpt lat="44.58938" lon="0.72693">
        <ele>108</ele>
        <time>2012-02-19T09:07:37Z</time>
      </trkpt>
      <trkpt lat="44.58936" lon="0.72692">
        <ele>108</ele>
        <time>2012-02-19T09:07:38Z</time>
      </trkpt>
      <trkpt lat="44.58934" lon="0.72691">
        <ele>108</ele>
        <time>2012-02-19T09:07:39Z</time>
      </trkpt>
      <trkpt lat="44.58932" lon="0.72689">
        <ele>109</ele>
        <time>2012-02-19T09:07:40Z</time>
      </trkpt>
      <trkpt lat="44.58929" lon="0.72689">
        <ele>109</ele>
        <time>2012-02-19T09:07:41Z</time>
      </trkpt>
      <trkpt lat="44.58927" lon="0.72688">
        <ele>109</ele>
        <time>2012-02-19T09:07:42Z</time>
      </trkpt>
      <trkpt lat="44.58925" lon="0.72687">
        <ele>109</ele>
        <time>2012-02-19T09:07:43Z</time>
      </trkpt>
      <trkpt lat="44.58923" lon="0.72686">
        <ele>109</ele>
        <time>2012-02-19T09:07:44Z</time>
      </trkpt>
      <trkpt lat="44.58921" lon="0.72685">
        <ele>109</ele>
        <time>2012-02-19T09:07:45Z</time>
      </trkpt>
      <trkpt lat="44.5892" lon="0.72684">
        <ele>109</ele>
        <time>2012-02-19T09:07:46Z</time>
      </trkpt>
      <trkpt lat="44.58918" lon="0.72683">
        <ele>109</ele>
        <time>2012-02-19T09:07:47Z</time>
      </trkpt>
      <trkpt lat="44.58917" lon="0.72682">
        <ele>109</ele>
        <time>2012-02-19T09:07:48Z</time>
      </trkpt>
      <trkpt lat="44.58915" lon="0.72681">
        <ele>109</ele>
        <time>2012-02-19T09:07:49Z</time>
      </trkpt>
      <trkpt lat="44.58913" lon="0.7268">
        <ele>109</ele>
        <time>2012-02-19T09:07:50Z</time>
      </trkpt>
      <trkpt lat="44.58912" lon="0.72679">
        <ele>109</ele>
        <time>2012-02-19T09:07:51Z</time>
      </trkpt>
      <trkpt lat="44.58911" lon="0.72678">
        <ele>109</ele>
        <time>2012-02-19T09:07:52Z</time>
      </trkpt>
      <trkpt lat="44.58909" lon="0.72677">
        <ele>109</ele>
        <time>2012-02-19T09:07:53Z</time>
      </trkpt>
      <trkpt lat="44.58908" lon="0.72676">
        <ele>109</ele>
        <time>2012-02-19T09:07:54Z</time>
      </trkpt>
      <trkpt lat="44.58907" lon="0.72675">
        <ele>109</ele>
        <time>2012-02-19T09:07:55Z</time>
      </trkpt>
      <trkpt lat="44.58905" lon="0.72674">
        <ele>109</ele>
        <time>2012-02-19T09:07:56Z</time>
      </trkpt>
      <trkpt lat="44.58904" lon="0.72672">
        <ele>109</ele>
        <time>2012-02-19T09:07:57Z</time>
      </trkpt>
      <trkpt lat="44.58902" lon="0.72671">
        <ele>110</ele>
        <time>2012-02-19T09:07:58Z</time>
      </trkpt>
      <trkpt lat="44.58901" lon="0.7267">
        <ele>110</ele>
        <time>2012-02-19T09:07:59Z</time>
      </trkpt>
      <trkpt lat="44.58899" lon="0.72669">
        <ele>110</ele>
        <time>2012-02-19T09:08:00Z</time>
      </trkpt>
      <trkpt lat="44.58898" lon="0.72667">
        <ele>111</ele>
        <time>2012-02-19T09:08:01Z</time>
      </trkpt>
      <trkpt lat="44.58896" lon="0.72666">
        <ele>111</ele>
        <time>2012-02-19T09:08:02Z</time>
      </trkpt>
      <trkpt lat="44.58895" lon="0.72664">
        <ele>112</ele>
        <time>2012-02-19T09:08:03Z</time>
      </trkpt>
      <trkpt lat="44.58893" lon="0.72663">
        <ele>112</ele>
        <time>2012-02-19T09:08:04Z</time>
      </trkpt>
      <trkpt lat="44.58892" lon="0.72662">
        <ele>113</ele>
        <time>2012-02-19T09:08:05Z</time>
      </trkpt>
      <trkpt lat="44.5889" lon="0.72661">
        <ele>113</ele>
        <time>2012-02-19T09:08:06Z</time>
      </trkpt>
      <trkpt lat="44.58889" lon="0.7266">
        <ele>114</ele>
        <time>2012-02-19T09:08:07Z</time>
      </trkpt>
      <trkpt lat="44.58887" lon="0.72659">
        <ele>114</ele>
        <time>2012-02-19T09:08:08Z</time>
      </trkpt>
      <trkpt lat="44.58886" lon="0.72658">
        <ele>114</ele>
        <time>2012-02-19T09:08:09Z</time>
      </trkpt>
      <trkpt lat="44.58884" lon="0.72657">
        <ele>115</ele>
        <time>2012-02-19T09:08:10Z</time>
      </trkpt>
      <trkpt lat="44.58883" lon="0.72657">
        <ele>115</ele>
        <time>2012-02-19T09:08:11Z</time>
      </trkpt>
      <trkpt lat="44.58881" lon="0.72656">
        <ele>115</ele>
        <time>2012-02-19T09:08:12Z</time>
      </trkpt>
      <trkpt lat="44.5888" lon="0.72656">
        <ele>115</ele>
        <time>2012-02-19T09:08:13Z</time>
      </trkpt>
      <trkpt lat="44.58878" lon="0.72656">
        <ele>115</ele>
        <time>2012-02-19T09:08:14Z</time>
      </trkpt>
      <trkpt lat="44.58877" lon="0.72655">
        <ele>115</ele>
        <time>2012-02-19T09:08:15Z</time>
      </trkpt>
      <trkpt lat="44.58876" lon="0.72655">
        <ele>115</ele>
        <time>2012-02-19T09:08:16Z</time>
      </trkpt>
      <trkpt lat="44.58874" lon="0.72654">
        <ele>115</ele>
        <time>2012-02-19T09:08:17Z</time>
      </trkpt>
      <trkpt lat="44.58873" lon="0.72652">
        <ele>115</ele>
        <time>2012-02-19T09:08:18Z</time>
      </trkpt>
      <trkpt lat="44.58872" lon="0.72651">
        <ele>115</ele>
        <time>2012-02-19T09:08:19Z</time>
      </trkpt>
      <trkpt lat="44.5887" lon="0.7265">
        <ele>115</ele>
        <time>2012-02-19T09:08:20Z</time>
      </trkpt>
      <trkpt lat="44.58869" lon="0.7265">
        <ele>115</ele>
        <time>2012-02-19T09:08:21Z</time>
      </trkpt>
      <trkpt lat="44.58868" lon="0.7265">
        <ele>115</ele>
        <time>2012-02-19T09:08:22Z</time>
      </trkpt>
      <trkpt lat="44.58866" lon="0.72649">
        <ele>115</ele>
        <time>2012-02-19T09:08:24Z</time>
      </trkpt>
      <trkpt lat="44.58864" lon="0.72648">
        <ele>115</ele>
        <time>2012-02-19T09:08:26Z</time>
      </trkpt>
      <trkpt lat="44.58862" lon="0.72647">
        <ele>115</ele>
        <time>2012-02-19T09:08:27Z</time>
      </trkpt>
      <trkpt lat="44.58861" lon="0.72646">
        <ele>115</ele>
        <time>2012-02-19T09:08:28Z</time>
      </trkpt>
      <trkpt lat="44.5886" lon="0.72645">
        <ele>115</ele>
        <time>2012-02-19T09:08:29Z</time>
      </trkpt>
      <trkpt lat="44.58858" lon="0.72643">
        <ele>116</ele>
        <time>2012-02-19T09:08:30Z</time>
      </trkpt>
      <trkpt lat="44.58856" lon="0.72642">
        <ele>116</ele>
        <time>2012-02-19T09:08:31Z</time>
      </trkpt>
      <trkpt lat="44.58854" lon="0.7264">
        <ele>116</ele>
        <time>2012-02-19T09:08:32Z</time>
      </trkpt>
      <trkpt lat="44.58852" lon="0.72639">
        <ele>116</ele>
        <time>2012-02-19T09:08:33Z</time>
      </trkpt>
      <trkpt lat="44.5885" lon="0.72638">
        <ele>116</ele>
        <time>2012-02-19T09:08:34Z</time>
      </trkpt>
      <trkpt lat="44.58849" lon="0.72637">
        <ele>117</ele>
        <time>2012-02-19T09:08:35Z</time>
      </trkpt>
      <trkpt lat="44.58847" lon="0.72636">
        <ele>117</ele>
        <time>2012-02-19T09:08:36Z</time>
      </trkpt>
      <trkpt lat="44.58845" lon="0.72634">
        <ele>117</ele>
        <time>2012-02-19T09:08:37Z</time>
      </trkpt>
      <trkpt lat="44.58843" lon="0.72633">
        <ele>118</ele>
        <time>2012-02-19T09:08:38Z</time>
      </trkpt>
      <trkpt lat="44.58841" lon="0.72632">
        <ele>118</ele>
        <time>2012-02-19T09:08:39Z</time>
      </trkpt>
      <trkpt lat="44.5884" lon="0.7263">
        <ele>118</ele>
        <time>2012-02-19T09:08:40Z</time>
      </trkpt>
      <trkpt lat="44.58839" lon="0.72628">
        <ele>119</ele>
        <time>2012-02-19T09:08:41Z</time>
      </trkpt>
      <trkpt lat="44.58837" lon="0.72627">
        <ele>119</ele>
        <time>2012-02-19T09:08:42Z</time>
      </trkpt>
      <trkpt lat="44.58835" lon="0.72626">
        <ele>120</ele>
        <time>2012-02-19T09:08:43Z</time>
      </trkpt>
      <trkpt lat="44.58834" lon="0.72624">
        <ele>120</ele>
        <time>2012-02-19T09:08:44Z</time>
      </trkpt>
      <trkpt lat="44.58833" lon="0.72623">
        <ele>120</ele>
        <time>2012-02-19T09:08:45Z</time>
      </trkpt>
      <trkpt lat="44.58831" lon="0.7262">
        <ele>121</ele>
        <time>2012-02-19T09:08:47Z</time>
      </trkpt>
      <trkpt lat="44.58832" lon="0.72618">
        <ele>121</ele>
        <time>2012-02-19T09:08:48Z</time>
      </trkpt>
      <trkpt lat="44.58833" lon="0.72615">
        <ele>121</ele>
        <time>2012-02-19T09:08:49Z</time>
      </trkpt>
      <trkpt lat="44.58834" lon="0.72613">
        <ele>121</ele>
        <time>2012-02-19T09:08:50Z</time>
      </trkpt>
      <trkpt lat="44.58835" lon="0.72611">
        <ele>121</ele>
        <time>2012-02-19T09:08:51Z</time>
      </trkpt>
      <trkpt lat="44.58836" lon="0.72609">
        <ele>121</ele>
        <time>2012-02-19T09:08:52Z</time>
      </trkpt>
      <trkpt lat="44.58837" lon="0.72607">
        <ele>121</ele>
        <time>2012-02-19T09:08:53Z</time>
      </trkpt>
      <trkpt lat="44.58839" lon="0.72606">
        <ele>121</ele>
        <time>2012-02-19T09:08:54Z</time>
      </trkpt>
      <trkpt lat="44.5884" lon="0.72604">
        <ele>121</ele>
        <time>2012-02-19T09:08:55Z</time>
      </trkpt>
      <trkpt lat="44.58841" lon="0.72602">
        <ele>121</ele>
        <time>2012-02-19T09:08:56Z</time>
      </trkpt>
      <trkpt lat="44.58841" lon="0.726">
        <ele>121</ele>
        <time>2012-02-19T09:08:57Z</time>
      </trkpt>
      <trkpt lat="44.58842" lon="0.72598">
        <ele>121</ele>
        <time>2012-02-19T09:08:58Z</time>
      </trkpt>
      <trkpt lat="44.58843" lon="0.72597">
        <ele>121</ele>
        <time>2012-02-19T09:08:59Z</time>
      </trkpt>
      <trkpt lat="44.58843" lon="0.72595">
        <ele>121</ele>
        <time>2012-02-19T09:09:00Z</time>
      </trkpt>
      <trkpt lat="44.58844" lon="0.72592">
        <ele>121</ele>
        <time>2012-02-19T09:09:02Z</time>
      </trkpt>
      <trkpt lat="44.58845" lon="0.72591">
        <ele>121</ele>
        <time>2012-02-19T09:09:03Z</time>
      </trkpt>
      <trkpt lat="44.58846" lon="0.72589">
        <ele>121</ele>
        <time>2012-02-19T09:09:04Z</time>
      </trkpt>
      <trkpt lat="44.58847" lon="0.72587">
        <ele>121</ele>
        <time>2012-02-19T09:09:05Z</time>
      </trkpt>
      <trkpt lat="44.58847" lon="0.72586">
        <ele>121</ele>
        <time>2012-02-19T09:09:06Z</time>
      </trkpt>
      <trkpt lat="44.58849" lon="0.72584">
        <ele>121</ele>
        <time>2012-02-19T09:09:07Z</time>
      </trkpt>
      <trkpt lat="44.5885" lon="0.72581">
        <ele>121</ele>
        <time>2012-02-19T09:09:08Z</time>
      </trkpt>
      <trkpt lat="44.58851" lon="0.72579">
        <ele>121</ele>
        <time>2012-02-19T09:09:09Z</time>
      </trkpt>
      <trkpt lat="44.58852" lon="0.72578">
        <ele>121</ele>
        <time>2012-02-19T09:09:10Z</time>
      </trkpt>
      <trkpt lat="44.58854" lon="0.72576">
        <ele>121</ele>
        <time>2012-02-19T09:09:11Z</time>
      </trkpt>
      <trkpt lat="44.58855" lon="0.72574">
        <ele>121</ele>
        <time>2012-02-19T09:09:13Z</time>
      </trkpt>
      <trkpt lat="44.58855" lon="0.72572">
        <ele>121</ele>
        <time>2012-02-19T09:09:14Z</time>
      </trkpt>
      <trkpt lat="44.58856" lon="0.7257">
        <ele>121</ele>
        <time>2012-02-19T09:09:16Z</time>
      </trkpt>
      <trkpt lat="44.58858" lon="0.72567">
        <ele>121</ele>
        <time>2012-02-19T09:09:18Z</time>
      </trkpt>
      <trkpt lat="44.5886" lon="0.72565">
        <ele>121</ele>
        <time>2012-02-19T09:09:19Z</time>
      </trkpt>
      <trkpt lat="44.5886" lon="0.72563">
        <ele>121</ele>
        <time>2012-02-19T09:09:20Z</time>
      </trkpt>
      <trkpt lat="44.58862" lon="0.72561">
        <ele>121</ele>
        <time>2012-02-19T09:09:21Z</time>
      </trkpt>
      <trkpt lat="44.58863" lon="0.7256">
        <ele>121</ele>
        <time>2012-02-19T09:09:22Z</time>
      </trkpt>
      <trkpt lat="44.58864" lon="0.72558">
        <ele>121</ele>
        <time>2012-02-19T09:09:23Z</time>
      </trkpt>
      <trkpt lat="44.58865" lon="0.72556">
        <ele>121</ele>
        <time>2012-02-19T09:09:24Z</time>
      </trkpt>
      <trkpt lat="44.58866" lon="0.72553">
        <ele>121</ele>
        <time>2012-02-19T09:09:25Z</time>
      </trkpt>
      <trkpt lat="44.58868" lon="0.72551">
        <ele>121</ele>
        <time>2012-02-19T09:09:26Z</time>
      </trkpt>
      <trkpt lat="44.58869" lon="0.72548">
        <ele>121</ele>
        <time>2012-02-19T09:09:27Z</time>
      </trkpt>
      <trkpt lat="44.5887" lon="0.72546">
        <ele>121</ele>
        <time>2012-02-19T09:09:28Z</time>
      </trkpt>
      <trkpt lat="44.58871" lon="0.72543">
        <ele>121</ele>
        <time>2012-02-19T09:09:29Z</time>
      </trkpt>
      <trkpt lat="44.58873" lon="0.72541">
        <ele>121</ele>
        <time>2012-02-19T09:09:30Z</time>
      </trkpt>
      <trkpt lat="44.58874" lon="0.72538">
        <ele>121</ele>
        <time>2012-02-19T09:09:31Z</time>
      </trkpt>
      <trkpt lat="44.58876" lon="0.72536">
        <ele>121</ele>
        <time>2012-02-19T09:09:32Z</time>
      </trkpt>
      <trkpt lat="44.58877" lon="0.72533">
        <ele>121</ele>
        <time>2012-02-19T09:09:33Z</time>
      </trkpt>
      <trkpt lat="44.58879" lon="0.7253">
        <ele>121</ele>
        <time>2012-02-19T09:09:34Z</time>
      </trkpt>
      <trkpt lat="44.5888" lon="0.72527">
        <ele>121</ele>
        <time>2012-02-19T09:09:35Z</time>
      </trkpt>
      <trkpt lat="44.58881" lon="0.72523">
        <ele>121</ele>
        <time>2012-02-19T09:09:36Z</time>
      </trkpt>
      <trkpt lat="44.58882" lon="0.7252">
        <ele>121</ele>
        <time>2012-02-19T09:09:37Z</time>
      </trkpt>
      <trkpt lat="44.58883" lon="0.72517">
        <ele>121</ele>
        <time>2012-02-19T09:09:38Z</time>
      </trkpt>
      <trkpt lat="44.58883" lon="0.72514">
        <ele>121</ele>
        <time>2012-02-19T09:09:39Z</time>
      </trkpt>
      <trkpt lat="44.58884" lon="0.72511">
        <ele>121</ele>
        <time>2012-02-19T09:09:40Z</time>
      </trkpt>
      <trkpt lat="44.58884" lon="0.72509">
        <ele>121</ele>
        <time>2012-02-19T09:09:41Z</time>
      </trkpt>
      <trkpt lat="44.58884" lon="0.72507">
        <ele>121</ele>
        <time>2012-02-19T09:09:42Z</time>
      </trkpt>
      <trkpt lat="44.58884" lon="0.72505">
        <ele>121</ele>
        <time>2012-02-19T09:09:43Z</time>
      </trkpt>
      <trkpt lat="44.58884" lon="0.72502">
        <ele>121</ele>
        <time>2012-02-19T09:09:44Z</time>
      </trkpt>
      <trkpt lat="44.58884" lon="0.72499">
        <ele>121</ele>
        <time>2012-02-19T09:09:45Z</time>
      </trkpt>
      <trkpt lat="44.58884" lon="0.72495">
        <ele>121</ele>
        <time>2012-02-19T09:09:46Z</time>
      </trkpt>
      <trkpt lat="44.58883" lon="0.72491">
        <ele>121</ele>
        <time>2012-02-19T09:09:47Z</time>
      </trkpt>
      <trkpt lat="44.58883" lon="0.72488">
        <ele>121</ele>
        <time>2012-02-19T09:09:48Z</time>
      </trkpt>
      <trkpt lat="44.58881" lon="0.72484">
        <ele>121</ele>
        <time>2012-02-19T09:09:49Z</time>
      </trkpt>
      <trkpt lat="44.58881" lon="0.72481">
        <ele>121</ele>
        <time>2012-02-19T09:09:50Z</time>
      </trkpt>
      <trkpt lat="44.5888" lon="0.72478">
        <ele>121</ele>
        <time>2012-02-19T09:09:51Z</time>
      </trkpt>
      <trkpt lat="44.58879" lon="0.72475">
        <ele>121</ele>
        <time>2012-02-19T09:09:52Z</time>
      </trkpt>
      <trkpt lat="44.58878" lon="0.72472">
        <ele>121</ele>
        <time>2012-02-19T09:09:53Z</time>
      </trkpt>
      <trkpt lat="44.58878" lon="0.7247">
        <ele>121</ele>
        <time>2012-02-19T09:09:54Z</time>
      </trkpt>
      <trkpt lat="44.58877" lon="0.72467">
        <ele>121</ele>
        <time>2012-02-19T09:09:55Z</time>
      </trkpt>
      <trkpt lat="44.58876" lon="0.72464">
        <ele>121</ele>
        <time>2012-02-19T09:09:56Z</time>
      </trkpt>
      <trkpt lat="44.58875" lon="0.7246">
        <ele>121</ele>
        <time>2012-02-19T09:09:57Z</time>
      </trkpt>
      <trkpt lat="44.58873" lon="0.72457">
        <ele>121</ele>
        <time>2012-02-19T09:09:58Z</time>
      </trkpt>
      <trkpt lat="44.58872" lon="0.72452">
        <ele>121</ele>
        <time>2012-02-19T09:09:59Z</time>
      </trkpt>
      <trkpt lat="44.5887" lon="0.72448">
        <ele>121</ele>
        <time>2012-02-19T09:10:00Z</time>
      </trkpt>
      <trkpt lat="44.58869" lon="0.72444">
        <ele>121</ele>
        <time>2012-02-19T09:10:01Z</time>
      </trkpt>
      <trkpt lat="44.58867" lon="0.7244">
        <ele>121</ele>
        <time>2012-02-19T09:10:02Z</time>
      </trkpt>
      <trkpt lat="44.58866" lon="0.72436">
        <ele>121</ele>
        <time>2012-02-19T09:10:03Z</time>
      </trkpt>
      <trkpt lat="44.58865" lon="0.72432">
        <ele>121</ele>
        <time>2012-02-19T09:10:04Z</time>
      </trkpt>
      <trkpt lat="44.58863" lon="0.72428">
        <ele>120</ele>
        <time>2012-02-19T09:10:05Z</time>
      </trkpt>
      <trkpt lat="44.58862" lon="0.72424">
        <ele>120</ele>
        <time>2012-02-19T09:10:06Z</time>
      </trkpt>
      <trkpt lat="44.5886" lon="0.7242">
        <ele>120</ele>
        <time>2012-02-19T09:10:07Z</time>
      </trkpt>
      <trkpt lat="44.58859" lon="0.72416">
        <ele>120</ele>
        <time>2012-02-19T09:10:08Z</time>
      </trkpt>
      <trkpt lat="44.58857" lon="0.72412">
        <ele>120</ele>
        <time>2012-02-19T09:10:09Z</time>
      </trkpt>
      <trkpt lat="44.58856" lon="0.72408">
        <ele>120</ele>
        <time>2012-02-19T09:10:10Z</time>
      </trkpt>
      <trkpt lat="44.58854" lon="0.72404">
        <ele>119</ele>
        <time>2012-02-19T09:10:11Z</time>
      </trkpt>
      <trkpt lat="44.58852" lon="0.72401">
        <ele>119</ele>
        <time>2012-02-19T09:10:12Z</time>
      </trkpt>
      <trkpt lat="44.5885" lon="0.72397">
        <ele>119</ele>
        <time>2012-02-19T09:10:13Z</time>
      </trkpt>
      <trkpt lat="44.58848" lon="0.72394">
        <ele>119</ele>
        <time>2012-02-19T09:10:14Z</time>
      </trkpt>
      <trkpt lat="44.58846" lon="0.72391">
        <ele>119</ele>
        <time>2012-02-19T09:10:15Z</time>
      </trkpt>
      <trkpt lat="44.58844" lon="0.72387">
        <ele>119</ele>
        <time>2012-02-19T09:10:16Z</time>
      </trkpt>
      <trkpt lat="44.58841" lon="0.72384">
        <ele>119</ele>
        <time>2012-02-19T09:10:17Z</time>
      </trkpt>
      <trkpt lat="44.58838" lon="0.72382">
        <ele>119</ele>
        <time>2012-02-19T09:10:18Z</time>
      </trkpt>
      <trkpt lat="44.58835" lon="0.72378">
        <ele>118</ele>
        <time>2012-02-19T09:10:19Z</time>
      </trkpt>
      <trkpt lat="44.58832" lon="0.72376">
        <ele>118</ele>
        <time>2012-02-19T09:10:20Z</time>
      </trkpt>
      <trkpt lat="44.58829" lon="0.72373">
        <ele>118</ele>
        <time>2012-02-19T09:10:21Z</time>
      </trkpt>
      <trkpt lat="44.58826" lon="0.72371">
        <ele>118</ele>
        <time>2012-02-19T09:10:22Z</time>
      </trkpt>
      <trkpt lat="44.58822" lon="0.72369">
        <ele>118</ele>
        <time>2012-02-19T09:10:23Z</time>
      </trkpt>
      <trkpt lat="44.58819" lon="0.72367">
        <ele>118</ele>
        <time>2012-02-19T09:10:24Z</time>
      </trkpt>
      <trkpt lat="44.58815" lon="0.72365">
        <ele>117</ele>
        <time>2012-02-19T09:10:25Z</time>
      </trkpt>
      <trkpt lat="44.58811" lon="0.72364">
        <ele>117</ele>
        <time>2012-02-19T09:10:26Z</time>
      </trkpt>
      <trkpt lat="44.58807" lon="0.72361">
        <ele>117</ele>
        <time>2012-02-19T09:10:27Z</time>
      </trkpt>
      <trkpt lat="44.58804" lon="0.72358">
        <ele>117</ele>
        <time>2012-02-19T09:10:28Z</time>
      </trkpt>
      <trkpt lat="44.58799" lon="0.72355">
        <ele>117</ele>
        <time>2012-02-19T09:10:29Z</time>
      </trkpt>
      <trkpt lat="44.58796" lon="0.72352">
        <ele>117</ele>
        <time>2012-02-19T09:10:30Z</time>
      </trkpt>
      <trkpt lat="44.58793" lon="0.7235">
        <ele>117</ele>
        <time>2012-02-19T09:10:31Z</time>
      </trkpt>
      <trkpt lat="44.58791" lon="0.72348">
        <ele>117</ele>
        <time>2012-02-19T09:10:32Z</time>
      </trkpt>
      <trkpt lat="44.58788" lon="0.72348">
        <ele>117</ele>
        <time>2012-02-19T09:10:33Z</time>
      </trkpt>
      <trkpt lat="44.58786" lon="0.72347">
        <ele>117</ele>
        <time>2012-02-19T09:10:34Z</time>
      </trkpt>
      <trkpt lat="44.58784" lon="0.72347">
        <ele>117</ele>
        <time>2012-02-19T09:10:35Z</time>
      </trkpt>
      <trkpt lat="44.58783" lon="0.72344">
        <ele>117</ele>
        <time>2012-02-19T09:10:37Z</time>
      </trkpt>
      <trkpt lat="44.58783" lon="0.72342">
        <ele>117</ele>
        <time>2012-02-19T09:10:38Z</time>
      </trkpt>
      <trkpt lat="44.58783" lon="0.72338">
        <ele>117</ele>
        <time>2012-02-19T09:10:39Z</time>
      </trkpt>
      <trkpt lat="44.58783" lon="0.72335">
        <ele>117</ele>
        <time>2012-02-19T09:10:40Z</time>
      </trkpt>
      <trkpt lat="44.58781" lon="0.72333">
        <ele>117</ele>
        <time>2012-02-19T09:10:41Z</time>
      </trkpt>
      <trkpt lat="44.58778" lon="0.72332">
        <ele>117</ele>
        <time>2012-02-19T09:10:42Z</time>
      </trkpt>
      <trkpt lat="44.58776" lon="0.72333">
        <ele>117</ele>
        <time>2012-02-19T09:10:43Z</time>
      </trkpt>
      <trkpt lat="44.58774" lon="0.72334">
        <ele>117</ele>
        <time>2012-02-19T09:10:44Z</time>
      </trkpt>
      <trkpt lat="44.58772" lon="0.72336">
        <ele>117</ele>
        <time>2012-02-19T09:10:45Z</time>
      </trkpt>
      <trkpt lat="44.5877" lon="0.72338">
        <ele>117</ele>
        <time>2012-02-19T09:10:46Z</time>
      </trkpt>
      <trkpt lat="44.58768" lon="0.7234">
        <ele>117</ele>
        <time>2012-02-19T09:10:47Z</time>
      </trkpt>
      <trkpt lat="44.58766" lon="0.72342">
        <ele>117</ele>
        <time>2012-02-19T09:10:48Z</time>
      </trkpt>
      <trkpt lat="44.58763" lon="0.72344">
        <ele>117</ele>
        <time>2012-02-19T09:10:49Z</time>
      </trkpt>
      <trkpt lat="44.58761" lon="0.72346">
        <ele>117</ele>
        <time>2012-02-19T09:10:50Z</time>
      </trkpt>
      <trkpt lat="44.58759" lon="0.72347">
        <ele>117</ele>
        <time>2012-02-19T09:10:51Z</time>
      </trkpt>
      <trkpt lat="44.58757" lon="0.72347">
        <ele>117</ele>
        <time>2012-02-19T09:10:52Z</time>
      </trkpt>
      <trkpt lat="44.58754" lon="0.72347">
        <ele>117</ele>
        <time>2012-02-19T09:10:53Z</time>
      </trkpt>
      <trkpt lat="44.58751" lon="0.72347">
        <ele>117</ele>
        <time>2012-02-19T09:10:54Z</time>
      </trkpt>
      <trkpt lat="44.58748" lon="0.72346">
        <ele>117</ele>
        <time>2012-02-19T09:10:55Z</time>
      </trkpt>
      <trkpt lat="44.58745" lon="0.72345">
        <ele>117</ele>
        <time>2012-02-19T09:10:56Z</time>
      </trkpt>
      <trkpt lat="44.58742" lon="0.72344">
        <ele>117</ele>
        <time>2012-02-19T09:10:57Z</time>
      </trkpt>
      <trkpt lat="44.58739" lon="0.72343">
        <ele>117</ele>
        <time>2012-02-19T09:10:58Z</time>
      </trkpt>
      <trkpt lat="44.58735" lon="0.72342">
        <ele>117</ele>
        <time>2012-02-19T09:10:59Z</time>
      </trkpt>
      <trkpt lat="44.58732" lon="0.72342">
        <ele>117</ele>
        <time>2012-02-19T09:11:00Z</time>
      </trkpt>
      <trkpt lat="44.58729" lon="0.72342">
        <ele>117</ele>
        <time>2012-02-19T09:11:01Z</time>
      </trkpt>
      <trkpt lat="44.58726" lon="0.72342">
        <ele>117</ele>
        <time>2012-02-19T09:11:02Z</time>
      </trkpt>
      <trkpt lat="44.58723" lon="0.72341">
        <ele>117</ele>
        <time>2012-02-19T09:11:03Z</time>
      </trkpt>
      <trkpt lat="44.5872" lon="0.72341">
        <ele>117</ele>
        <time>2012-02-19T09:11:04Z</time>
      </trkpt>
      <trkpt lat="44.58717" lon="0.7234">
        <ele>117</ele>
        <time>2012-02-19T09:11:05Z</time>
      </trkpt>
      <trkpt lat="44.58715" lon="0.72341">
        <ele>117</ele>
        <time>2012-02-19T09:11:06Z</time>
      </trkpt>
      <trkpt lat="44.58712" lon="0.72341">
        <ele>117</ele>
        <time>2012-02-19T09:11:07Z</time>
      </trkpt>
      <trkpt lat="44.58709" lon="0.72341">
        <ele>117</ele>
        <time>2012-02-19T09:11:08Z</time>
      </trkpt>
      <trkpt lat="44.58707" lon="0.72343">
        <ele>117</ele>
        <time>2012-02-19T09:11:09Z</time>
      </trkpt>
      <trkpt lat="44.58704" lon="0.72345">
        <ele>117</ele>
        <time>2012-02-19T09:11:10Z</time>
      </trkpt>
      <trkpt lat="44.58702" lon="0.72347">
        <ele>117</ele>
        <time>2012-02-19T09:11:11Z</time>
      </trkpt>
      <trkpt lat="44.587" lon="0.7235">
        <ele>117</ele>
        <time>2012-02-19T09:11:12Z</time>
      </trkpt>
      <trkpt lat="44.58697" lon="0.72352">
        <ele>117</ele>
        <time>2012-02-19T09:11:13Z</time>
      </trkpt>
      <trkpt lat="44.58695" lon="0.72354">
        <ele>117</ele>
        <time>2012-02-19T09:11:14Z</time>
      </trkpt>
      <trkpt lat="44.58692" lon="0.72356">
        <ele>117</ele>
        <time>2012-02-19T09:11:15Z</time>
      </trkpt>
      <trkpt lat="44.5869" lon="0.72358">
        <ele>117</ele>
        <time>2012-02-19T09:11:16Z</time>
      </trkpt>
      <trkpt lat="44.58687" lon="0.7236">
        <ele>117</ele>
        <time>2012-02-19T09:11:17Z</time>
      </trkpt>
      <trkpt lat="44.58685" lon="0.72361">
        <ele>117</ele>
        <time>2012-02-19T09:11:18Z</time>
      </trkpt>
      <trkpt lat="44.58683" lon="0.72363">
        <ele>117</ele>
        <time>2012-02-19T09:11:19Z</time>
      </trkpt>
      <trkpt lat="44.5868" lon="0.72364">
        <ele>117</ele>
        <time>2012-02-19T09:11:20Z</time>
      </trkpt>
      <trkpt lat="44.58678" lon="0.72366">
        <ele>117</ele>
        <time>2012-02-19T09:11:21Z</time>
      </trkpt>
      <trkpt lat="44.58676" lon="0.72368">
        <ele>117</ele>
        <time>2012-02-19T09:11:22Z</time>
      </trkpt>
      <trkpt lat="44.58674" lon="0.72369">
        <ele>117</ele>
        <time>2012-02-19T09:11:23Z</time>
      </trkpt>
      <trkpt lat="44.58672" lon="0.72371">
        <ele>117</ele>
        <time>2012-02-19T09:11:24Z</time>
      </trkpt>
      <trkpt lat="44.58669" lon="0.72373">
        <ele>117</ele>
        <time>2012-02-19T09:11:25Z</time>
      </trkpt>
      <trkpt lat="44.58667" lon="0.72374">
        <ele>117</ele>
        <time>2012-02-19T09:11:26Z</time>
      </trkpt>
      <trkpt lat="44.58664" lon="0.72376">
        <ele>117</ele>
        <time>2012-02-19T09:11:27Z</time>
      </trkpt>
      <trkpt lat="44.58662" lon="0.72378">
        <ele>117</ele>
        <time>2012-02-19T09:11:28Z</time>
      </trkpt>
      <trkpt lat="44.5866" lon="0.7238">
        <ele>117</ele>
        <time>2012-02-19T09:11:29Z</time>
      </trkpt>
      <trkpt lat="44.58657" lon="0.72382">
        <ele>117</ele>
        <time>2012-02-19T09:11:30Z</time>
      </trkpt>
      <trkpt lat="44.58655" lon="0.72384">
        <ele>117</ele>
        <time>2012-02-19T09:11:31Z</time>
      </trkpt>
      <trkpt lat="44.58653" lon="0.72386">
        <ele>117</ele>
        <time>2012-02-19T09:11:32Z</time>
      </trkpt>
      <trkpt lat="44.58651" lon="0.72388">
        <ele>117</ele>
        <time>2012-02-19T09:11:33Z</time>
      </trkpt>
      <trkpt lat="44.58649" lon="0.7239">
        <ele>117</ele>
        <time>2012-02-19T09:11:34Z</time>
      </trkpt>
      <trkpt lat="44.58646" lon="0.72392">
        <ele>117</ele>
        <time>2012-02-19T09:11:35Z</time>
      </trkpt>
      <trkpt lat="44.58644" lon="0.72395">
        <ele>117</ele>
        <time>2012-02-19T09:11:36Z</time>
      </trkpt>
      <trkpt lat="44.58641" lon="0.72397">
        <ele>117</ele>
        <time>2012-02-19T09:11:37Z</time>
      </trkpt>
      <trkpt lat="44.58639" lon="0.72399">
        <ele>117</ele>
        <time>2012-02-19T09:11:38Z</time>
      </trkpt>
      <trkpt lat="44.58636" lon="0.72401">
        <ele>117</ele>
        <time>2012-02-19T09:11:39Z</time>
      </trkpt>
      <trkpt lat="44.58634" lon="0.72404">
        <ele>117</ele>
        <time>2012-02-19T09:11:40Z</time>
      </trkpt>
      <trkpt lat="44.58632" lon="0.72406">
        <ele>117</ele>
        <time>2012-02-19T09:11:41Z</time>
      </trkpt>
      <trkpt lat="44.5863" lon="0.72408">
        <ele>117</ele>
        <time>2012-02-19T09:11:42Z</time>
      </trkpt>
      <trkpt lat="44.58627" lon="0.7241">
        <ele>117</ele>
        <time>2012-02-19T09:11:43Z</time>
      </trkpt>
      <trkpt lat="44.58625" lon="0.72412">
        <ele>117</ele>
        <time>2012-02-19T09:11:44Z</time>
      </trkpt>
      <trkpt lat="44.58623" lon="0.72414">
        <ele>117</ele>
        <time>2012-02-19T09:11:45Z</time>
      </trkpt>
      <trkpt lat="44.5862" lon="0.72417">
        <ele>117</ele>
        <time>2012-02-19T09:11:46Z</time>
      </trkpt>
      <trkpt lat="44.58618" lon="0.72419">
        <ele>117</ele>
        <time>2012-02-19T09:11:47Z</time>
      </trkpt>
      <trkpt lat="44.58616" lon="0.72422">
        <ele>117</ele>
        <time>2012-02-19T09:11:48Z</time>
      </trkpt>
      <trkpt lat="44.58614" lon="0.72424">
        <ele>117</ele>
        <time>2012-02-19T09:11:49Z</time>
      </trkpt>
      <trkpt lat="44.58612" lon="0.72427">
        <ele>117</ele>
        <time>2012-02-19T09:11:50Z</time>
      </trkpt>
      <trkpt lat="44.58609" lon="0.72429">
        <ele>117</ele>
        <time>2012-02-19T09:11:51Z</time>
      </trkpt>
      <trkpt lat="44.58607" lon="0.72432">
        <ele>117</ele>
        <time>2012-02-19T09:11:52Z</time>
      </trkpt>
      <trkpt lat="44.58606" lon="0.72434">
        <ele>117</ele>
        <time>2012-02-19T09:11:53Z</time>
      </trkpt>
      <trkpt lat="44.58603" lon="0.72436">
        <ele>117</ele>
        <time>2012-02-19T09:11:54Z</time>
      </trkpt>
      <trkpt lat="44.58601" lon="0.72439">
        <ele>117</ele>
        <time>2012-02-19T09:11:55Z</time>
      </trkpt>
      <trkpt lat="44.58599" lon="0.72441">
        <ele>117</ele>
        <time>2012-02-19T09:11:56Z</time>
      </trkpt>
      <trkpt lat="44.58597" lon="0.72443">
        <ele>117</ele>
        <time>2012-02-19T09:11:57Z</time>
      </trkpt>
      <trkpt lat="44.58595" lon="0.72446">
        <ele>117</ele>
        <time>2012-02-19T09:11:58Z</time>
      </trkpt>
      <trkpt lat="44.58593" lon="0.72448">
        <ele>117</ele>
        <time>2012-02-19T09:11:59Z</time>
      </trkpt>
      <trkpt lat="44.5859" lon="0.72451">
        <ele>117</ele>
        <time>2012-02-19T09:12:00Z</time>
      </trkpt>
      <trkpt lat="44.58588" lon="0.72454">
        <ele>117</ele>
        <time>2012-02-19T09:12:01Z</time>
      </trkpt>
      <trkpt lat="44.58586" lon="0.72456">
        <ele>117</ele>
        <time>2012-02-19T09:12:02Z</time>
      </trkpt>
      <trkpt lat="44.58583" lon="0.72459">
        <ele>117</ele>
        <time>2012-02-19T09:12:03Z</time>
      </trkpt>
      <trkpt lat="44.58581" lon="0.72462">
        <ele>117</ele>
        <time>2012-02-19T09:12:04Z</time>
      </trkpt>
      <trkpt lat="44.58579" lon="0.72465">
        <ele>117</ele>
        <time>2012-02-19T09:12:05Z</time>
      </trkpt>
      <trkpt lat="44.58577" lon="0.72467">
        <ele>117</ele>
        <time>2012-02-19T09:12:06Z</time>
      </trkpt>
      <trkpt lat="44.58575" lon="0.7247">
        <ele>117</ele>
        <time>2012-02-19T09:12:07Z</time>
      </trkpt>
      <trkpt lat="44.58573" lon="0.72473">
        <ele>117</ele>
        <time>2012-02-19T09:12:08Z</time>
      </trkpt>
      <trkpt lat="44.58571" lon="0.72475">
        <ele>117</ele>
        <time>2012-02-19T09:12:09Z</time>
      </trkpt>
      <trkpt lat="44.58569" lon="0.72478">
        <ele>117</ele>
        <time>2012-02-19T09:12:10Z</time>
      </trkpt>
      <trkpt lat="44.58567" lon="0.7248">
        <ele>117</ele>
        <time>2012-02-19T09:12:11Z</time>
      </trkpt>
      <trkpt lat="44.58565" lon="0.72483">
        <ele>117</ele>
        <time>2012-02-19T09:12:12Z</time>
      </trkpt>
      <trkpt lat="44.58563" lon="0.72485">
        <ele>117</ele>
        <time>2012-02-19T09:12:13Z</time>
      </trkpt>
      <trkpt lat="44.58561" lon="0.72487">
        <ele>117</ele>
        <time>2012-02-19T09:12:14Z</time>
      </trkpt>
      <trkpt lat="44.5856" lon="0.72489">
        <ele>117</ele>
        <time>2012-02-19T09:12:15Z</time>
      </trkpt>
      <trkpt lat="44.58559" lon="0.72492">
        <ele>117</ele>
        <time>2012-02-19T09:12:16Z</time>
      </trkpt>
      <trkpt lat="44.58557" lon="0.72494">
        <ele>117</ele>
        <time>2012-02-19T09:12:17Z</time>
      </trkpt>
      <trkpt lat="44.58555" lon="0.72496">
        <ele>117</ele>
        <time>2012-02-19T09:12:18Z</time>
      </trkpt>
      <trkpt lat="44.58554" lon="0.72498">
        <ele>117</ele>
        <time>2012-02-19T09:12:19Z</time>
      </trkpt>
      <trkpt lat="44.58551" lon="0.725">
        <ele>117</ele>
        <time>2012-02-19T09:12:20Z</time>
      </trkpt>
      <trkpt lat="44.5855" lon="0.72502">
        <ele>117</ele>
        <time>2012-02-19T09:12:21Z</time>
      </trkpt>
      <trkpt lat="44.58548" lon="0.72505">
        <ele>117</ele>
        <time>2012-02-19T09:12:22Z</time>
      </trkpt>
      <trkpt lat="44.58547" lon="0.72508">
        <ele>117</ele>
        <time>2012-02-19T09:12:23Z</time>
      </trkpt>
      <trkpt lat="44.58545" lon="0.7251">
        <ele>118</ele>
        <time>2012-02-19T09:12:24Z</time>
      </trkpt>
      <trkpt lat="44.58544" lon="0.72513">
        <ele>118</ele>
        <time>2012-02-19T09:12:25Z</time>
      </trkpt>
      <trkpt lat="44.58542" lon="0.72515">
        <ele>118</ele>
        <time>2012-02-19T09:12:26Z</time>
      </trkpt>
      <trkpt lat="44.58541" lon="0.72518">
        <ele>118</ele>
        <time>2012-02-19T09:12:27Z</time>
      </trkpt>
      <trkpt lat="44.58539" lon="0.7252">
        <ele>118</ele>
        <time>2012-02-19T09:12:28Z</time>
      </trkpt>
      <trkpt lat="44.58538" lon="0.72523">
        <ele>118</ele>
        <time>2012-02-19T09:12:29Z</time>
      </trkpt>
      <trkpt lat="44.58536" lon="0.72525">
        <ele>118</ele>
        <time>2012-02-19T09:12:30Z</time>
      </trkpt>
      <trkpt lat="44.58534" lon="0.72528">
        <ele>118</ele>
        <time>2012-02-19T09:12:31Z</time>
      </trkpt>
      <trkpt lat="44.58533" lon="0.7253">
        <ele>118</ele>
        <time>2012-02-19T09:12:32Z</time>
      </trkpt>
      <trkpt lat="44.58532" lon="0.72533">
        <ele>118</ele>
        <time>2012-02-19T09:12:33Z</time>
      </trkpt>
      <trkpt lat="44.5853" lon="0.72535">
        <ele>118</ele>
        <time>2012-02-19T09:12:34Z</time>
      </trkpt>
      <trkpt lat="44.58529" lon="0.72538">
        <ele>118</ele>
        <time>2012-02-19T09:12:35Z</time>
      </trkpt>
      <trkpt lat="44.58527" lon="0.7254">
        <ele>118</ele>
        <time>2012-02-19T09:12:36Z</time>
      </trkpt>
      <trkpt lat="44.58526" lon="0.72543">
        <ele>118</ele>
        <time>2012-02-19T09:12:37Z</time>
      </trkpt>
      <trkpt lat="44.58524" lon="0.72546">
        <ele>118</ele>
        <time>2012-02-19T09:12:38Z</time>
      </trkpt>
      <trkpt lat="44.58523" lon="0.72548">
        <ele>119</ele>
        <time>2012-02-19T09:12:39Z</time>
      </trkpt>
      <trkpt lat="44.58521" lon="0.72551">
        <ele>119</ele>
        <time>2012-02-19T09:12:40Z</time>
      </trkpt>
      <trkpt lat="44.5852" lon="0.72554">
        <ele>119</ele>
        <time>2012-02-19T09:12:41Z</time>
      </trkpt>
      <trkpt lat="44.58519" lon="0.72557">
        <ele>119</ele>
        <time>2012-02-19T09:12:42Z</time>
      </trkpt>
      <trkpt lat="44.58517" lon="0.72559">
        <ele>120</ele>
        <time>2012-02-19T09:12:43Z</time>
      </trkpt>
      <trkpt lat="44.58516" lon="0.72562">
        <ele>120</ele>
        <time>2012-02-19T09:12:44Z</time>
      </trkpt>
      <trkpt lat="44.58516" lon="0.72565">
        <ele>120</ele>
        <time>2012-02-19T09:12:45Z</time>
      </trkpt>
      <trkpt lat="44.58515" lon="0.72567">
        <ele>120</ele>
        <time>2012-02-19T09:12:46Z</time>
      </trkpt>
      <trkpt lat="44.58514" lon="0.7257">
        <ele>120</ele>
        <time>2012-02-19T09:12:47Z</time>
      </trkpt>
      <trkpt lat="44.58514" lon="0.72572">
        <ele>120</ele>
        <time>2012-02-19T09:12:48Z</time>
      </trkpt>
      <trkpt lat="44.58513" lon="0.72575">
        <ele>121</ele>
        <time>2012-02-19T09:12:49Z</time>
      </trkpt>
      <trkpt lat="44.58512" lon="0.72578">
        <ele>121</ele>
        <time>2012-02-19T09:12:50Z</time>
      </trkpt>
      <trkpt lat="44.58511" lon="0.7258">
        <ele>121</ele>
        <time>2012-02-19T09:12:51Z</time>
      </trkpt>
      <trkpt lat="44.58509" lon="0.72582">
        <ele>121</ele>
        <time>2012-02-19T09:12:52Z</time>
      </trkpt>
      <trkpt lat="44.58508" lon="0.72584">
        <ele>121</ele>
        <time>2012-02-19T09:12:53Z</time>
      </trkpt>
      <trkpt lat="44.58506" lon="0.72586">
        <ele>121</ele>
        <time>2012-02-19T09:12:54Z</time>
      </trkpt>
      <trkpt lat="44.58504" lon="0.72588">
        <ele>121</ele>
        <time>2012-02-19T09:12:55Z</time>
      </trkpt>
      <trkpt lat="44.58502" lon="0.7259">
        <ele>121</ele>
        <time>2012-02-19T09:12:56Z</time>
      </trkpt>
      <trkpt lat="44.585" lon="0.72592">
        <ele>121</ele>
        <time>2012-02-19T09:12:57Z</time>
      </trkpt>
      <trkpt lat="44.58498" lon="0.72594">
        <ele>121</ele>
        <time>2012-02-19T09:12:58Z</time>
      </trkpt>
      <trkpt lat="44.58496" lon="0.72595">
        <ele>121</ele>
        <time>2012-02-19T09:12:59Z</time>
      </trkpt>
      <trkpt lat="44.58494" lon="0.72596">
        <ele>121</ele>
        <time>2012-02-19T09:13:00Z</time>
      </trkpt>
      <trkpt lat="44.58492" lon="0.72598">
        <ele>121</ele>
        <time>2012-02-19T09:13:01Z</time>
      </trkpt>
      <trkpt lat="44.5849" lon="0.72599">
        <ele>121</ele>
        <time>2012-02-19T09:13:02Z</time>
      </trkpt>
      <trkpt lat="44.58487" lon="0.726">
        <ele>121</ele>
        <time>2012-02-19T09:13:03Z</time>
      </trkpt>
      <trkpt lat="44.58485" lon="0.72601">
        <ele>121</ele>
        <time>2012-02-19T09:13:04Z</time>
      </trkpt>
      <trkpt lat="44.58483" lon="0.72603">
        <ele>121</ele>
        <time>2012-02-19T09:13:05Z</time>
      </trkpt>
      <trkpt lat="44.5848" lon="0.72604">
        <ele>121</ele>
        <time>2012-02-19T09:13:06Z</time>
      </trkpt>
      <trkpt lat="44.58479" lon="0.72605">
        <ele>121</ele>
        <time>2012-02-19T09:13:07Z</time>
      </trkpt>
      <trkpt lat="44.58476" lon="0.72605">
        <ele>121</ele>
        <time>2012-02-19T09:13:08Z</time>
      </trkpt>
      <trkpt lat="44.58474" lon="0.72606">
        <ele>121</ele>
        <time>2012-02-19T09:13:09Z</time>
      </trkpt>
      <trkpt lat="44.58472" lon="0.72607">
        <ele>121</ele>
        <time>2012-02-19T09:13:10Z</time>
      </trkpt>
      <trkpt lat="44.5847" lon="0.72609">
        <ele>122</ele>
        <time>2012-02-19T09:13:11Z</time>
      </trkpt>
      <trkpt lat="44.58468" lon="0.7261">
        <ele>122</ele>
        <time>2012-02-19T09:13:12Z</time>
      </trkpt>
      <trkpt lat="44.58466" lon="0.7261">
        <ele>123</ele>
        <time>2012-02-19T09:13:13Z</time>
      </trkpt>
      <trkpt lat="44.58464" lon="0.72611">
        <ele>123</ele>
        <time>2012-02-19T09:13:14Z</time>
      </trkpt>
      <trkpt lat="44.58462" lon="0.72612">
        <ele>124</ele>
        <time>2012-02-19T09:13:15Z</time>
      </trkpt>
      <trkpt lat="44.5846" lon="0.72613">
        <ele>124</ele>
        <time>2012-02-19T09:13:16Z</time>
      </trkpt>
      <trkpt lat="44.58459" lon="0.72614">
        <ele>124</ele>
        <time>2012-02-19T09:13:17Z</time>
      </trkpt>
      <trkpt lat="44.58457" lon="0.72615">
        <ele>125</ele>
        <time>2012-02-19T09:13:18Z</time>
      </trkpt>
      <trkpt lat="44.58455" lon="0.72616">
        <ele>125</ele>
        <time>2012-02-19T09:13:19Z</time>
      </trkpt>
      <trkpt lat="44.58454" lon="0.72617">
        <ele>126</ele>
        <time>2012-02-19T09:13:20Z</time>
      </trkpt>
      <trkpt lat="44.58452" lon="0.72618">
        <ele>126</ele>
        <time>2012-02-19T09:13:21Z</time>
      </trkpt>
      <trkpt lat="44.5845" lon="0.72619">
        <ele>126</ele>
        <time>2012-02-19T09:13:22Z</time>
      </trkpt>
      <trkpt lat="44.58448" lon="0.7262">
        <ele>127</ele>
        <time>2012-02-19T09:13:23Z</time>
      </trkpt>
      <trkpt lat="44.58446" lon="0.72621">
        <ele>127</ele>
        <time>2012-02-19T09:13:24Z</time>
      </trkpt>
      <trkpt lat="44.58444" lon="0.72622">
        <ele>127</ele>
        <time>2012-02-19T09:13:25Z</time>
      </trkpt>
      <trkpt lat="44.58442" lon="0.72624">
        <ele>127</ele>
        <time>2012-02-19T09:13:26Z</time>
      </trkpt>
      <trkpt lat="44.5844" lon="0.72625">
        <ele>127</ele>
        <time>2012-02-19T09:13:27Z</time>
      </trkpt>
      <trkpt lat="44.58438" lon="0.72626">
        <ele>127</ele>
        <time>2012-02-19T09:13:28Z</time>
      </trkpt>
      <trkpt lat="44.58437" lon="0.72627">
        <ele>127</ele>
        <time>2012-02-19T09:13:29Z</time>
      </trkpt>
      <trkpt lat="44.58435" lon="0.72628">
        <ele>127</ele>
        <time>2012-02-19T09:13:30Z</time>
      </trkpt>
      <trkpt lat="44.58434" lon="0.72629">
        <ele>127</ele>
        <time>2012-02-19T09:13:31Z</time>
      </trkpt>
      <trkpt lat="44.58432" lon="0.72631">
        <ele>127</ele>
        <time>2012-02-19T09:13:32Z</time>
      </trkpt>
      <trkpt lat="44.58431" lon="0.72631">
        <ele>127</ele>
        <time>2012-02-19T09:13:33Z</time>
      </trkpt>
      <trkpt lat="44.58429" lon="0.72632">
        <ele>128</ele>
        <time>2012-02-19T09:13:34Z</time>
      </trkpt>
      <trkpt lat="44.58428" lon="0.72633">
        <ele>128</ele>
        <time>2012-02-19T09:13:35Z</time>
      </trkpt>
      <trkpt lat="44.58426" lon="0.72634">
        <ele>128</ele>
        <time>2012-02-19T09:13:36Z</time>
      </trkpt>
      <trkpt lat="44.58425" lon="0.72635">
        <ele>129</ele>
        <time>2012-02-19T09:13:37Z</time>
      </trkpt>
      <trkpt lat="44.58423" lon="0.72636">
        <ele>129</ele>
        <time>2012-02-19T09:13:38Z</time>
      </trkpt>
      <trkpt lat="44.58421" lon="0.72638">
        <ele>129</ele>
        <time>2012-02-19T09:13:39Z</time>
      </trkpt>
      <trkpt lat="44.5842" lon="0.72639">
        <ele>130</ele>
        <time>2012-02-19T09:13:40Z</time>
      </trkpt>
      <trkpt lat="44.58418" lon="0.72641">
        <ele>130</ele>
        <time>2012-02-19T09:13:41Z</time>
      </trkpt>
      <trkpt lat="44.58416" lon="0.72642">
        <ele>130</ele>
        <time>2012-02-19T09:13:42Z</time>
      </trkpt>
      <trkpt lat="44.58415" lon="0.72644">
        <ele>130</ele>
        <time>2012-02-19T09:13:43Z</time>
      </trkpt>
      <trkpt lat="44.58413" lon="0.72645">
        <ele>130</ele>
        <time>2012-02-19T09:13:44Z</time>
      </trkpt>
      <trkpt lat="44.58411" lon="0.72646">
        <ele>130</ele>
        <time>2012-02-19T09:13:45Z</time>
      </trkpt>
      <trkpt lat="44.5841" lon="0.72648">
        <ele>130</ele>
        <time>2012-02-19T09:13:46Z</time>
      </trkpt>
      <trkpt lat="44.58408" lon="0.72649">
        <ele>130</ele>
        <time>2012-02-19T09:13:47Z</time>
      </trkpt>
      <trkpt lat="44.58407" lon="0.72651">
        <ele>130</ele>
        <time>2012-02-19T09:13:48Z</time>
      </trkpt>
      <trkpt lat="44.58405" lon="0.72654">
        <ele>130</ele>
        <time>2012-02-19T09:13:50Z</time>
      </trkpt>
      <trkpt lat="44.58403" lon="0.72655">
        <ele>130</ele>
        <time>2012-02-19T09:13:51Z</time>
      </trkpt>
      <trkpt lat="44.58403" lon="0.72657">
        <ele>130</ele>
        <time>2012-02-19T09:13:52Z</time>
      </trkpt>
      <trkpt lat="44.58401" lon="0.72658">
        <ele>131</ele>
        <time>2012-02-19T09:13:53Z</time>
      </trkpt>
      <trkpt lat="44.584" lon="0.7266">
        <ele>131</ele>
        <time>2012-02-19T09:13:54Z</time>
      </trkpt>
      <trkpt lat="44.584" lon="0.72662">
        <ele>131</ele>
        <time>2012-02-19T09:13:55Z</time>
      </trkpt>
      <trkpt lat="44.58399" lon="0.72664">
        <ele>131</ele>
        <time>2012-02-19T09:13:56Z</time>
      </trkpt>
      <trkpt lat="44.58398" lon="0.72666">
        <ele>131</ele>
        <time>2012-02-19T09:13:57Z</time>
      </trkpt>
      <trkpt lat="44.58397" lon="0.72668">
        <ele>131</ele>
        <time>2012-02-19T09:13:58Z</time>
      </trkpt>
      <trkpt lat="44.58395" lon="0.7267">
        <ele>131</ele>
        <time>2012-02-19T09:13:59Z</time>
      </trkpt>
      <trkpt lat="44.58394" lon="0.72672">
        <ele>131</ele>
        <time>2012-02-19T09:14:00Z</time>
      </trkpt>
      <trkpt lat="44.58393" lon="0.72674">
        <ele>131</ele>
        <time>2012-02-19T09:14:01Z</time>
      </trkpt>
      <trkpt lat="44.58393" lon="0.72675">
        <ele>131</ele>
        <time>2012-02-19T09:14:02Z</time>
      </trkpt>
      <trkpt lat="44.58392" lon="0.72677">
        <ele>131</ele>
        <time>2012-02-19T09:14:03Z</time>
      </trkpt>
      <trkpt lat="44.58391" lon="0.72678">
        <ele>131</ele>
        <time>2012-02-19T09:14:04Z</time>
      </trkpt>
      <trkpt lat="44.5839" lon="0.7268">
        <ele>132</ele>
        <time>2012-02-19T09:14:05Z</time>
      </trkpt>
      <trkpt lat="44.58389" lon="0.72681">
        <ele>132</ele>
        <time>2012-02-19T09:14:06Z</time>
      </trkpt>
      <trkpt lat="44.58388" lon="0.72683">
        <ele>132</ele>
        <time>2012-02-19T09:14:07Z</time>
      </trkpt>
      <trkpt lat="44.58387" lon="0.72685">
        <ele>132</ele>
        <time>2012-02-19T09:14:08Z</time>
      </trkpt>
      <trkpt lat="44.58387" lon="0.72686">
        <ele>132</ele>
        <time>2012-02-19T09:14:09Z</time>
      </trkpt>
      <trkpt lat="44.58385" lon="0.72688">
        <ele>132</ele>
        <time>2012-02-19T09:14:11Z</time>
      </trkpt>
      <trkpt lat="44.58384" lon="0.7269">
        <ele>132</ele>
        <time>2012-02-19T09:14:13Z</time>
      </trkpt>
      <trkpt lat="44.58383" lon="0.72692">
        <ele>132</ele>
        <time>2012-02-19T09:14:14Z</time>
      </trkpt>
      <trkpt lat="44.58382" lon="0.72693">
        <ele>132</ele>
        <time>2012-02-19T09:14:15Z</time>
      </trkpt>
      <trkpt lat="44.58382" lon="0.72695">
        <ele>132</ele>
        <time>2012-02-19T09:14:16Z</time>
      </trkpt>
      <trkpt lat="44.58381" lon="0.72697">
        <ele>133</ele>
        <time>2012-02-19T09:14:17Z</time>
      </trkpt>
      <trkpt lat="44.5838" lon="0.72699">
        <ele>133</ele>
        <time>2012-02-19T09:14:18Z</time>
      </trkpt>
      <trkpt lat="44.58379" lon="0.72701">
        <ele>133</ele>
        <time>2012-02-19T09:14:19Z</time>
      </trkpt>
      <trkpt lat="44.58378" lon="0.72703">
        <ele>133</ele>
        <time>2012-02-19T09:14:20Z</time>
      </trkpt>
      <trkpt lat="44.58377" lon="0.72705">
        <ele>133</ele>
        <time>2012-02-19T09:14:21Z</time>
      </trkpt>
      <trkpt lat="44.58376" lon="0.72707">
        <ele>133</ele>
        <time>2012-02-19T09:14:22Z</time>
      </trkpt>
      <trkpt lat="44.58375" lon="0.72709">
        <ele>133</ele>
        <time>2012-02-19T09:14:23Z</time>
      </trkpt>
      <trkpt lat="44.58374" lon="0.72711">
        <ele>133</ele>
        <time>2012-02-19T09:14:24Z</time>
      </trkpt>
      <trkpt lat="44.58374" lon="0.72712">
        <ele>133</ele>
        <time>2012-02-19T09:14:25Z</time>
      </trkpt>
      <trkpt lat="44.58373" lon="0.72714">
        <ele>134</ele>
        <time>2012-02-19T09:14:26Z</time>
      </trkpt>
      <trkpt lat="44.58372" lon="0.72716">
        <ele>134</ele>
        <time>2012-02-19T09:14:27Z</time>
      </trkpt>
      <trkpt lat="44.58371" lon="0.72718">
        <ele>134</ele>
        <time>2012-02-19T09:14:28Z</time>
      </trkpt>
      <trkpt lat="44.5837" lon="0.72719">
        <ele>134</ele>
        <time>2012-02-19T09:14:29Z</time>
      </trkpt>
      <trkpt lat="44.58369" lon="0.72721">
        <ele>134</ele>
        <time>2012-02-19T09:14:30Z</time>
      </trkpt>
      <trkpt lat="44.58368" lon="0.72723">
        <ele>134</ele>
        <time>2012-02-19T09:14:31Z</time>
      </trkpt>
      <trkpt lat="44.58367" lon="0.72724">
        <ele>134</ele>
        <time>2012-02-19T09:14:32Z</time>
      </trkpt>
      <trkpt lat="44.58366" lon="0.72726">
        <ele>134</ele>
        <time>2012-02-19T09:14:33Z</time>
      </trkpt>
      <trkpt lat="44.58365" lon="0.72728">
        <ele>134</ele>
        <time>2012-02-19T09:14:34Z</time>
      </trkpt>
      <trkpt lat="44.58364" lon="0.7273">
        <ele>134</ele>
        <time>2012-02-19T09:14:35Z</time>
      </trkpt>
      <trkpt lat="44.58364" lon="0.72731">
        <ele>134</ele>
        <time>2012-02-19T09:14:36Z</time>
      </trkpt>
      <trkpt lat="44.58363" lon="0.72733">
        <ele>134</ele>
        <time>2012-02-19T09:14:37Z</time>
      </trkpt>
      <trkpt lat="44.58363" lon="0.72735">
        <ele>135</ele>
        <time>2012-02-19T09:14:38Z</time>
      </trkpt>
      <trkpt lat="44.58361" lon="0.72736">
        <ele>135</ele>
        <time>2012-02-19T09:14:39Z</time>
      </trkpt>
      <trkpt lat="44.5836" lon="0.72737">
        <ele>135</ele>
        <time>2012-02-19T09:14:40Z</time>
      </trkpt>
      <trkpt lat="44.58359" lon="0.72738">
        <ele>135</ele>
        <time>2012-02-19T09:14:41Z</time>
      </trkpt>
      <trkpt lat="44.58358" lon="0.7274">
        <ele>135</ele>
        <time>2012-02-19T09:14:42Z</time>
      </trkpt>
      <trkpt lat="44.58357" lon="0.72741">
        <ele>135</ele>
        <time>2012-02-19T09:14:43Z</time>
      </trkpt>
      <trkpt lat="44.58355" lon="0.72743">
        <ele>135</ele>
        <time>2012-02-19T09:14:44Z</time>
      </trkpt>
      <trkpt lat="44.58354" lon="0.72746">
        <ele>135</ele>
        <time>2012-02-19T09:14:45Z</time>
      </trkpt>
      <trkpt lat="44.58353" lon="0.72748">
        <ele>135</ele>
        <time>2012-02-19T09:14:46Z</time>
      </trkpt>
      <trkpt lat="44.58352" lon="0.7275">
        <ele>135</ele>
        <time>2012-02-19T09:14:47Z</time>
      </trkpt>
      <trkpt lat="44.58351" lon="0.72752">
        <ele>135</ele>
        <time>2012-02-19T09:14:48Z</time>
      </trkpt>
      <trkpt lat="44.5835" lon="0.72754">
        <ele>135</ele>
        <time>2012-02-19T09:14:49Z</time>
      </trkpt>
      <trkpt lat="44.58348" lon="0.72756">
        <ele>135</ele>
        <time>2012-02-19T09:14:50Z</time>
      </trkpt>
      <trkpt lat="44.58347" lon="0.72758">
        <ele>135</ele>
        <time>2012-02-19T09:14:51Z</time>
      </trkpt>
      <trkpt lat="44.58346" lon="0.7276">
        <ele>135</ele>
        <time>2012-02-19T09:14:52Z</time>
      </trkpt>
      <trkpt lat="44.58346" lon="0.72761">
        <ele>135</ele>
        <time>2012-02-19T09:14:53Z</time>
      </trkpt>
      <trkpt lat="44.58345" lon="0.72763">
        <ele>135</ele>
        <time>2012-02-19T09:14:54Z</time>
      </trkpt>
      <trkpt lat="44.58344" lon="0.72765">
        <ele>135</ele>
        <time>2012-02-19T09:14:55Z</time>
      </trkpt>
      <trkpt lat="44.58342" lon="0.72767">
        <ele>135</ele>
        <time>2012-02-19T09:14:56Z</time>
      </trkpt>
      <trkpt lat="44.58341" lon="0.72769">
        <ele>135</ele>
        <time>2012-02-19T09:14:57Z</time>
      </trkpt>
      <trkpt lat="44.5834" lon="0.72771">
        <ele>135</ele>
        <time>2012-02-19T09:14:58Z</time>
      </trkpt>
      <trkpt lat="44.58339" lon="0.72773">
        <ele>135</ele>
        <time>2012-02-19T09:14:59Z</time>
      </trkpt>
      <trkpt lat="44.58338" lon="0.72775">
        <ele>135</ele>
        <time>2012-02-19T09:15:00Z</time>
      </trkpt>
      <trkpt lat="44.58337" lon="0.72777">
        <ele>135</ele>
        <time>2012-02-19T09:15:01Z</time>
      </trkpt>
      <trkpt lat="44.58337" lon="0.72778">
        <ele>135</ele>
        <time>2012-02-19T09:15:02Z</time>
      </trkpt>
      <trkpt lat="44.58336" lon="0.7278">
        <ele>135</ele>
        <time>2012-02-19T09:15:03Z</time>
      </trkpt>
      <trkpt lat="44.58335" lon="0.72782">
        <ele>135</ele>
        <time>2012-02-19T09:15:04Z</time>
      </trkpt>
      <trkpt lat="44.58334" lon="0.72784">
        <ele>135</ele>
        <time>2012-02-19T09:15:05Z</time>
      </trkpt>
      <trkpt lat="44.58333" lon="0.72786">
        <ele>135</ele>
        <time>2012-02-19T09:15:06Z</time>
      </trkpt>
      <trkpt lat="44.58332" lon="0.72787">
        <ele>135</ele>
        <time>2012-02-19T09:15:07Z</time>
      </trkpt>
      <trkpt lat="44.58331" lon="0.7279">
        <ele>135</ele>
        <time>2012-02-19T09:15:08Z</time>
      </trkpt>
      <trkpt lat="44.5833" lon="0.72791">
        <ele>135</ele>
        <time>2012-02-19T09:15:09Z</time>
      </trkpt>
      <trkpt lat="44.58329" lon="0.72793">
        <ele>135</ele>
        <time>2012-02-19T09:15:10Z</time>
      </trkpt>
      <trkpt lat="44.58328" lon="0.72796">
        <ele>135</ele>
        <time>2012-02-19T09:15:12Z</time>
      </trkpt>
      <trkpt lat="44.58327" lon="0.72798">
        <ele>135</ele>
        <time>2012-02-19T09:15:13Z</time>
      </trkpt>
      <trkpt lat="44.58326" lon="0.728">
        <ele>135</ele>
        <time>2012-02-19T09:15:14Z</time>
      </trkpt>
      <trkpt lat="44.58325" lon="0.72802">
        <ele>135</ele>
        <time>2012-02-19T09:15:15Z</time>
      </trkpt>
      <trkpt lat="44.58324" lon="0.72804">
        <ele>135</ele>
        <time>2012-02-19T09:15:16Z</time>
      </trkpt>
      <trkpt lat="44.58323" lon="0.72806">
        <ele>135</ele>
        <time>2012-02-19T09:15:17Z</time>
      </trkpt>
      <trkpt lat="44.58322" lon="0.72807">
        <ele>135</ele>
        <time>2012-02-19T09:15:18Z</time>
      </trkpt>
      <trkpt lat="44.58321" lon="0.72809">
        <ele>135</ele>
        <time>2012-02-19T09:15:19Z</time>
      </trkpt>
      <trkpt lat="44.58321" lon="0.7281">
        <ele>135</ele>
        <time>2012-02-19T09:15:20Z</time>
      </trkpt>
      <trkpt lat="44.5832" lon="0.72812">
        <ele>135</ele>
        <time>2012-02-19T09:15:21Z</time>
      </trkpt>
      <trkpt lat="44.58319" lon="0.72813">
        <ele>136</ele>
        <time>2012-02-19T09:15:22Z</time>
      </trkpt>
      <trkpt lat="44.58318" lon="0.72815">
        <ele>136</ele>
        <time>2012-02-19T09:15:23Z</time>
      </trkpt>
      <trkpt lat="44.58317" lon="0.72816">
        <ele>136</ele>
        <time>2012-02-19T09:15:24Z</time>
      </trkpt>
      <trkpt lat="44.58316" lon="0.72819">
        <ele>137</ele>
        <time>2012-02-19T09:15:26Z</time>
      </trkpt>
      <trkpt lat="44.58315" lon="0.72821">
        <ele>138</ele>
        <time>2012-02-19T09:15:28Z</time>
      </trkpt>
      <trkpt lat="44.58314" lon="0.72823">
        <ele>138</ele>
        <time>2012-02-19T09:15:29Z</time>
      </trkpt>
      <trkpt lat="44.58313" lon="0.72825">
        <ele>139</ele>
        <time>2012-02-19T09:15:30Z</time>
      </trkpt>
      <trkpt lat="44.58313" lon="0.72826">
        <ele>139</ele>
        <time>2012-02-19T09:15:31Z</time>
      </trkpt>
      <trkpt lat="44.58312" lon="0.72828">
        <ele>139</ele>
        <time>2012-02-19T09:15:32Z</time>
      </trkpt>
      <trkpt lat="44.58311" lon="0.7283">
        <ele>140</ele>
        <time>2012-02-19T09:15:33Z</time>
      </trkpt>
      <trkpt lat="44.58309" lon="0.72831">
        <ele>140</ele>
        <time>2012-02-19T09:15:34Z</time>
      </trkpt>
      <trkpt lat="44.58308" lon="0.72833">
        <ele>140</ele>
        <time>2012-02-19T09:15:35Z</time>
      </trkpt>
      <trkpt lat="44.58307" lon="0.72836">
        <ele>140</ele>
        <time>2012-02-19T09:15:37Z</time>
      </trkpt>
      <trkpt lat="44.58306" lon="0.72838">
        <ele>140</ele>
        <time>2012-02-19T09:15:38Z</time>
      </trkpt>
      <trkpt lat="44.58305" lon="0.72839">
        <ele>140</ele>
        <time>2012-02-19T09:15:39Z</time>
      </trkpt>
      <trkpt lat="44.58303" lon="0.72841">
        <ele>141</ele>
        <time>2012-02-19T09:15:41Z</time>
      </trkpt>
      <trkpt lat="44.58302" lon="0.72844">
        <ele>142</ele>
        <time>2012-02-19T09:15:43Z</time>
      </trkpt>
      <trkpt lat="44.58301" lon="0.72845">
        <ele>143</ele>
        <time>2012-02-19T09:15:44Z</time>
      </trkpt>
      <trkpt lat="44.58299" lon="0.72848">
        <ele>144</ele>
        <time>2012-02-19T09:15:46Z</time>
      </trkpt>
      <trkpt lat="44.58297" lon="0.72851">
        <ele>145</ele>
        <time>2012-02-19T09:15:48Z</time>
      </trkpt>
      <trkpt lat="44.58296" lon="0.72853">
        <ele>145</ele>
        <time>2012-02-19T09:15:49Z</time>
      </trkpt>
      <trkpt lat="44.58295" lon="0.72854">
        <ele>145</ele>
        <time>2012-02-19T09:15:50Z</time>
      </trkpt>
      <trkpt lat="44.58294" lon="0.72857">
        <ele>145</ele>
        <time>2012-02-19T09:15:52Z</time>
      </trkpt>
      <trkpt lat="44.58292" lon="0.72858">
        <ele>145</ele>
        <time>2012-02-19T09:15:53Z</time>
      </trkpt>
      <trkpt lat="44.58291" lon="0.7286">
        <ele>145</ele>
        <time>2012-02-19T09:15:54Z</time>
      </trkpt>
      <trkpt lat="44.5829" lon="0.72861">
        <ele>145</ele>
        <time>2012-02-19T09:15:55Z</time>
      </trkpt>
      <trkpt lat="44.58289" lon="0.72862">
        <ele>145</ele>
        <time>2012-02-19T09:15:56Z</time>
      </trkpt>
      <trkpt lat="44.58289" lon="0.72864">
        <ele>145</ele>
        <time>2012-02-19T09:15:57Z</time>
      </trkpt>
      <trkpt lat="44.58288" lon="0.72865">
        <ele>145</ele>
        <time>2012-02-19T09:15:58Z</time>
      </trkpt>
      <trkpt lat="44.58287" lon="0.72867">
        <ele>145</ele>
        <time>2012-02-19T09:15:59Z</time>
      </trkpt>
      <trkpt lat="44.58286" lon="0.72869">
        <ele>145</ele>
        <time>2012-02-19T09:16:00Z</time>
      </trkpt>
      <trkpt lat="44.58284" lon="0.7287">
        <ele>145</ele>
        <time>2012-02-19T09:16:01Z</time>
      </trkpt>
      <trkpt lat="44.58284" lon="0.72872">
        <ele>145</ele>
        <time>2012-02-19T09:16:02Z</time>
      </trkpt>
      <trkpt lat="44.58282" lon="0.72874">
        <ele>145</ele>
        <time>2012-02-19T09:16:03Z</time>
      </trkpt>
      <trkpt lat="44.58282" lon="0.72876">
        <ele>145</ele>
        <time>2012-02-19T09:16:04Z</time>
      </trkpt>
      <trkpt lat="44.58281" lon="0.72878">
        <ele>145</ele>
        <time>2012-02-19T09:16:06Z</time>
      </trkpt>
      <trkpt lat="44.58281" lon="0.72879">
        <ele>145</ele>
        <time>2012-02-19T09:16:08Z</time>
      </trkpt>
      <trkpt lat="44.58281" lon="0.72881">
        <ele>145</ele>
        <time>2012-02-19T09:16:16Z</time>
      </trkpt>
      <trkpt lat="44.58279" lon="0.72879">
        <ele>145</ele>
        <time>2012-02-19T09:16:21Z</time>
      </trkpt>
      <trkpt lat="44.5828" lon="0.72878">
        <ele>145</ele>
        <time>2012-02-19T09:16:35Z</time>
      </trkpt>
      <trkpt lat="44.58281" lon="0.72878">
        <ele>145</ele>
        <time>2012-02-19T09:17:01Z</time>
      </trkpt>
      <trkpt lat="44.58282" lon="0.72879">
        <ele>145</ele>
        <time>2012-02-19T09:17:11Z</time>
      </trkpt>
      <trkpt lat="44.58281" lon="0.72881">
        <ele>145</ele>
        <time>2012-02-19T09:17:17Z</time>
      </trkpt>
      <trkpt lat="44.58279" lon="0.72882">
        <ele>145</ele>
        <time>2012-02-19T09:17:30Z</time>
      </trkpt>
      <trkpt lat="44.58278" lon="0.72884">
        <ele>145</ele>
        <time>2012-02-19T09:17:32Z</time>
      </trkpt>
      <trkpt lat="44.58277" lon="0.72885">
        <ele>145</ele>
        <time>2012-02-19T09:17:37Z</time>
      </trkpt>
      <trkpt lat="44.58275" lon="0.72888">
        <ele>145</ele>
        <time>2012-02-19T09:17:39Z</time>
      </trkpt>
      <trkpt lat="44.58273" lon="0.72889">
        <ele>145</ele>
        <time>2012-02-19T09:17:40Z</time>
      </trkpt>
      <trkpt lat="44.58272" lon="0.72891">
        <ele>145</ele>
        <time>2012-02-19T09:17:41Z</time>
      </trkpt>
      <trkpt lat="44.5827" lon="0.72894">
        <ele>145</ele>
        <time>2012-02-19T09:17:42Z</time>
      </trkpt>
      <trkpt lat="44.58269" lon="0.72895">
        <ele>145</ele>
        <time>2012-02-19T09:17:43Z</time>
      </trkpt>
      <trkpt lat="44.58267" lon="0.72898">
        <ele>145</ele>
        <time>2012-02-19T09:17:44Z</time>
      </trkpt>
      <trkpt lat="44.58266" lon="0.729">
        <ele>145</ele>
        <time>2012-02-19T09:17:45Z</time>
      </trkpt>
      <trkpt lat="44.58264" lon="0.72902">
        <ele>145</ele>
        <time>2012-02-19T09:17:46Z</time>
      </trkpt>
      <trkpt lat="44.58262" lon="0.72904">
        <ele>145</ele>
        <time>2012-02-19T09:17:47Z</time>
      </trkpt>
      <trkpt lat="44.58261" lon="0.72905">
        <ele>145</ele>
        <time>2012-02-19T09:17:48Z</time>
      </trkpt>
      <trkpt lat="44.58259" lon="0.72907">
        <ele>145</ele>
        <time>2012-02-19T09:17:49Z</time>
      </trkpt>
      <trkpt lat="44.58258" lon="0.72909">
        <ele>145</ele>
        <time>2012-02-19T09:17:50Z</time>
      </trkpt>
      <trkpt lat="44.58256" lon="0.72911">
        <ele>145</ele>
        <time>2012-02-19T09:17:51Z</time>
      </trkpt>
      <trkpt lat="44.58254" lon="0.72913">
        <ele>145</ele>
        <time>2012-02-19T09:17:52Z</time>
      </trkpt>
      <trkpt lat="44.58252" lon="0.72915">
        <ele>145</ele>
        <time>2012-02-19T09:17:53Z</time>
      </trkpt>
      <trkpt lat="44.58251" lon="0.72916">
        <ele>145</ele>
        <time>2012-02-19T09:17:54Z</time>
      </trkpt>
      <trkpt lat="44.58249" lon="0.72918">
        <ele>145</ele>
        <time>2012-02-19T09:17:55Z</time>
      </trkpt>
      <trkpt lat="44.58247" lon="0.72919">
        <ele>145</ele>
        <time>2012-02-19T09:17:56Z</time>
      </trkpt>
      <trkpt lat="44.58246" lon="0.72921">
        <ele>145</ele>
        <time>2012-02-19T09:17:57Z</time>
      </trkpt>
      <trkpt lat="44.58244" lon="0.72923">
        <ele>145</ele>
        <time>2012-02-19T09:17:58Z</time>
      </trkpt>
      <trkpt lat="44.58242" lon="0.72925">
        <ele>145</ele>
        <time>2012-02-19T09:17:59Z</time>
      </trkpt>
      <trkpt lat="44.58241" lon="0.72926">
        <ele>145</ele>
        <time>2012-02-19T09:18:00Z</time>
      </trkpt>
      <trkpt lat="44.58239" lon="0.72928">
        <ele>145</ele>
        <time>2012-02-19T09:18:01Z</time>
      </trkpt>
      <trkpt lat="44.58238" lon="0.72929">
        <ele>145</ele>
        <time>2012-02-19T09:18:02Z</time>
      </trkpt>
      <trkpt lat="44.58236" lon="0.7293">
        <ele>145</ele>
        <time>2012-02-19T09:18:03Z</time>
      </trkpt>
      <trkpt lat="44.58235" lon="0.72932">
        <ele>145</ele>
        <time>2012-02-19T09:18:04Z</time>
      </trkpt>
      <trkpt lat="44.58234" lon="0.72933">
        <ele>145</ele>
        <time>2012-02-19T09:18:05Z</time>
      </trkpt>
      <trkpt lat="44.58232" lon="0.72934">
        <ele>146</ele>
        <time>2012-02-19T09:18:06Z</time>
      </trkpt>
      <trkpt lat="44.5823" lon="0.72936">
        <ele>146</ele>
        <time>2012-02-19T09:18:07Z</time>
      </trkpt>
      <trkpt lat="44.58229" lon="0.72937">
        <ele>146</ele>
        <time>2012-02-19T09:18:08Z</time>
      </trkpt>
      <trkpt lat="44.58227" lon="0.72938">
        <ele>146</ele>
        <time>2012-02-19T09:18:09Z</time>
      </trkpt>
      <trkpt lat="44.58226" lon="0.72939">
        <ele>147</ele>
        <time>2012-02-19T09:18:10Z</time>
      </trkpt>
      <trkpt lat="44.58225" lon="0.7294">
        <ele>147</ele>
        <time>2012-02-19T09:18:11Z</time>
      </trkpt>
      <trkpt lat="44.58223" lon="0.72941">
        <ele>147</ele>
        <time>2012-02-19T09:18:12Z</time>
      </trkpt>
      <trkpt lat="44.58222" lon="0.72943">
        <ele>147</ele>
        <time>2012-02-19T09:18:13Z</time>
      </trkpt>
      <trkpt lat="44.58221" lon="0.72944">
        <ele>148</ele>
        <time>2012-02-19T09:18:14Z</time>
      </trkpt>
      <trkpt lat="44.5822" lon="0.72945">
        <ele>148</ele>
        <time>2012-02-19T09:18:15Z</time>
      </trkpt>
      <trkpt lat="44.58218" lon="0.72947">
        <ele>148</ele>
        <time>2012-02-19T09:18:16Z</time>
      </trkpt>
      <trkpt lat="44.58217" lon="0.72948">
        <ele>148</ele>
        <time>2012-02-19T09:18:17Z</time>
      </trkpt>
      <trkpt lat="44.58216" lon="0.72949">
        <ele>149</ele>
        <time>2012-02-19T09:18:18Z</time>
      </trkpt>
      <trkpt lat="44.58215" lon="0.72951">
        <ele>149</ele>
        <time>2012-02-19T09:18:19Z</time>
      </trkpt>
      <trkpt lat="44.58213" lon="0.72953">
        <ele>149</ele>
        <time>2012-02-19T09:18:20Z</time>
      </trkpt>
      <trkpt lat="44.58212" lon="0.72954">
        <ele>149</ele>
        <time>2012-02-19T09:18:21Z</time>
      </trkpt>
      <trkpt lat="44.58211" lon="0.72956">
        <ele>149</ele>
        <time>2012-02-19T09:18:22Z</time>
      </trkpt>
      <trkpt lat="44.58209" lon="0.72958">
        <ele>149</ele>
        <time>2012-02-19T09:18:23Z</time>
      </trkpt>
      <trkpt lat="44.58208" lon="0.7296">
        <ele>149</ele>
        <time>2012-02-19T09:18:24Z</time>
      </trkpt>
      <trkpt lat="44.58206" lon="0.72962">
        <ele>149</ele>
        <time>2012-02-19T09:18:25Z</time>
      </trkpt>
      <trkpt lat="44.58205" lon="0.72964">
        <ele>149</ele>
        <time>2012-02-19T09:18:26Z</time>
      </trkpt>
      <trkpt lat="44.58203" lon="0.72966">
        <ele>149</ele>
        <time>2012-02-19T09:18:27Z</time>
      </trkpt>
      <trkpt lat="44.58201" lon="0.72968">
        <ele>149</ele>
        <time>2012-02-19T09:18:28Z</time>
      </trkpt>
      <trkpt lat="44.582" lon="0.7297">
        <ele>149</ele>
        <time>2012-02-19T09:18:29Z</time>
      </trkpt>
      <trkpt lat="44.58198" lon="0.72972">
        <ele>149</ele>
        <time>2012-02-19T09:18:30Z</time>
      </trkpt>
      <trkpt lat="44.58197" lon="0.72974">
        <ele>150</ele>
        <time>2012-02-19T09:18:31Z</time>
      </trkpt>
      <trkpt lat="44.58195" lon="0.72976">
        <ele>150</ele>
        <time>2012-02-19T09:18:32Z</time>
      </trkpt>
      <trkpt lat="44.58193" lon="0.72979">
        <ele>150</ele>
        <time>2012-02-19T09:18:33Z</time>
      </trkpt>
      <trkpt lat="44.58192" lon="0.7298">
        <ele>150</ele>
        <time>2012-02-19T09:18:34Z</time>
      </trkpt>
      <trkpt lat="44.5819" lon="0.72983">
        <ele>150</ele>
        <time>2012-02-19T09:18:35Z</time>
      </trkpt>
      <trkpt lat="44.58189" lon="0.72985">
        <ele>150</ele>
        <time>2012-02-19T09:18:36Z</time>
      </trkpt>
      <trkpt lat="44.58187" lon="0.72987">
        <ele>150</ele>
        <time>2012-02-19T09:18:37Z</time>
      </trkpt>
      <trkpt lat="44.58185" lon="0.7299">
        <ele>150</ele>
        <time>2012-02-19T09:18:38Z</time>
      </trkpt>
      <trkpt lat="44.58184" lon="0.72992">
        <ele>150</ele>
        <time>2012-02-19T09:18:39Z</time>
      </trkpt>
      <trkpt lat="44.58182" lon="0.72995">
        <ele>150</ele>
        <time>2012-02-19T09:18:40Z</time>
      </trkpt>
      <trkpt lat="44.5818" lon="0.72997">
        <ele>150</ele>
        <time>2012-02-19T09:18:41Z</time>
      </trkpt>
      <trkpt lat="44.58178" lon="0.73">
        <ele>150</ele>
        <time>2012-02-19T09:18:42Z</time>
      </trkpt>
      <trkpt lat="44.58177" lon="0.73002">
        <ele>150</ele>
        <time>2012-02-19T09:18:43Z</time>
      </trkpt>
      <trkpt lat="44.58175" lon="0.73004">
        <ele>150</ele>
        <time>2012-02-19T09:18:44Z</time>
      </trkpt>
      <trkpt lat="44.58173" lon="0.73007">
        <ele>150</ele>
        <time>2012-02-19T09:18:45Z</time>
      </trkpt>
      <trkpt lat="44.58172" lon="0.7301">
        <ele>150</ele>
        <time>2012-02-19T09:18:46Z</time>
      </trkpt>
      <trkpt lat="44.5817" lon="0.73012">
        <ele>150</ele>
        <time>2012-02-19T09:18:47Z</time>
      </trkpt>
      <trkpt lat="44.58168" lon="0.73014">
        <ele>151</ele>
        <time>2012-02-19T09:18:48Z</time>
      </trkpt>
      <trkpt lat="44.58166" lon="0.73017">
        <ele>151</ele>
        <time>2012-02-19T09:18:49Z</time>
      </trkpt>
      <trkpt lat="44.58164" lon="0.7302">
        <ele>151</ele>
        <time>2012-02-19T09:18:50Z</time>
      </trkpt>
      <trkpt lat="44.58163" lon="0.73022">
        <ele>151</ele>
        <time>2012-02-19T09:18:51Z</time>
      </trkpt>
      <trkpt lat="44.58161" lon="0.73025">
        <ele>151</ele>
        <time>2012-02-19T09:18:52Z</time>
      </trkpt>
      <trkpt lat="44.5816" lon="0.73027">
        <ele>151</ele>
        <time>2012-02-19T09:18:53Z</time>
      </trkpt>
      <trkpt lat="44.58158" lon="0.73029">
        <ele>151</ele>
        <time>2012-02-19T09:18:54Z</time>
      </trkpt>
      <trkpt lat="44.58157" lon="0.73032">
        <ele>151</ele>
        <time>2012-02-19T09:18:55Z</time>
      </trkpt>
      <trkpt lat="44.58155" lon="0.73033">
        <ele>151</ele>
        <time>2012-02-19T09:18:56Z</time>
      </trkpt>
      <trkpt lat="44.58155" lon="0.73035">
        <ele>151</ele>
        <time>2012-02-19T09:18:58Z</time>
      </trkpt>
      <trkpt lat="44.58154" lon="0.73036">
        <ele>151</ele>
        <time>2012-02-19T09:19:03Z</time>
      </trkpt>
      <trkpt lat="44.58152" lon="0.73036">
        <ele>154</ele>
        <time>2012-02-19T09:19:11Z</time>
      </trkpt>
      <trkpt lat="44.58152" lon="0.73038">
        <ele>156</ele>
        <time>2012-02-19T09:19:20Z</time>
      </trkpt>
      <trkpt lat="44.58152" lon="0.73036">
        <ele>156</ele>
        <time>2012-02-19T09:19:25Z</time>
      </trkpt>
      <trkpt lat="44.58151" lon="0.73038">
        <ele>156</ele>
        <time>2012-02-19T09:19:41Z</time>
      </trkpt>
      <trkpt lat="44.58149" lon="0.7304">
        <ele>156</ele>
        <time>2012-02-19T09:19:43Z</time>
      </trkpt>
      <trkpt lat="44.58148" lon="0.73042">
        <ele>156</ele>
        <time>2012-02-19T09:19:45Z</time>
      </trkpt>
      <trkpt lat="44.58146" lon="0.73044">
        <ele>156</ele>
        <time>2012-02-19T09:19:46Z</time>
      </trkpt>
      <trkpt lat="44.58145" lon="0.73046">
        <ele>156</ele>
        <time>2012-02-19T09:19:47Z</time>
      </trkpt>
      <trkpt lat="44.58144" lon="0.73048">
        <ele>156</ele>
        <time>2012-02-19T09:19:48Z</time>
      </trkpt>
      <trkpt lat="44.58142" lon="0.73049">
        <ele>156</ele>
        <time>2012-02-19T09:19:49Z</time>
      </trkpt>
      <trkpt lat="44.58141" lon="0.73051">
        <ele>156</ele>
        <time>2012-02-19T09:19:50Z</time>
      </trkpt>
      <trkpt lat="44.58139" lon="0.73053">
        <ele>155</ele>
        <time>2012-02-19T09:19:51Z</time>
      </trkpt>
      <trkpt lat="44.58138" lon="0.73054">
        <ele>155</ele>
        <time>2012-02-19T09:19:52Z</time>
      </trkpt>
      <trkpt lat="44.58136" lon="0.73055">
        <ele>155</ele>
        <time>2012-02-19T09:19:53Z</time>
      </trkpt>
      <trkpt lat="44.58135" lon="0.73057">
        <ele>155</ele>
        <time>2012-02-19T09:19:54Z</time>
      </trkpt>
      <trkpt lat="44.58133" lon="0.73058">
        <ele>155</ele>
        <time>2012-02-19T09:19:55Z</time>
      </trkpt>
      <trkpt lat="44.58132" lon="0.7306">
        <ele>155</ele>
        <time>2012-02-19T09:19:56Z</time>
      </trkpt>
      <trkpt lat="44.5813" lon="0.73061">
        <ele>155</ele>
        <time>2012-02-19T09:19:57Z</time>
      </trkpt>
      <trkpt lat="44.58129" lon="0.73063">
        <ele>155</ele>
        <time>2012-02-19T09:19:58Z</time>
      </trkpt>
      <trkpt lat="44.58127" lon="0.73065">
        <ele>155</ele>
        <time>2012-02-19T09:19:59Z</time>
      </trkpt>
      <trkpt lat="44.58126" lon="0.73066">
        <ele>155</ele>
        <time>2012-02-19T09:20:00Z</time>
      </trkpt>
      <trkpt lat="44.58124" lon="0.73067">
        <ele>155</ele>
        <time>2012-02-19T09:20:01Z</time>
      </trkpt>
      <trkpt lat="44.58122" lon="0.73068">
        <ele>155</ele>
        <time>2012-02-19T09:20:02Z</time>
      </trkpt>
      <trkpt lat="44.5812" lon="0.73069">
        <ele>155</ele>
        <time>2012-02-19T09:20:03Z</time>
      </trkpt>
      <trkpt lat="44.58117" lon="0.7307">
        <ele>155</ele>
        <time>2012-02-19T09:20:04Z</time>
      </trkpt>
      <trkpt lat="44.58114" lon="0.73071">
        <ele>154</ele>
        <time>2012-02-19T09:20:05Z</time>
      </trkpt>
      <trkpt lat="44.58112" lon="0.73072">
        <ele>154</ele>
        <time>2012-02-19T09:20:06Z</time>
      </trkpt>
      <trkpt lat="44.58109" lon="0.73073">
        <ele>154</ele>
        <time>2012-02-19T09:20:07Z</time>
      </trkpt>
      <trkpt lat="44.58106" lon="0.73074">
        <ele>154</ele>
        <time>2012-02-19T09:20:08Z</time>
      </trkpt>
      <trkpt lat="44.58103" lon="0.73074">
        <ele>154</ele>
        <time>2012-02-19T09:20:09Z</time>
      </trkpt>
      <trkpt lat="44.581" lon="0.73074">
        <ele>154</ele>
        <time>2012-02-19T09:20:10Z</time>
      </trkpt>
      <trkpt lat="44.58097" lon="0.73074">
        <ele>154</ele>
        <time>2012-02-19T09:20:11Z</time>
      </trkpt>
      <trkpt lat="44.58094" lon="0.73074">
        <ele>154</ele>
        <time>2012-02-19T09:20:12Z</time>
      </trkpt>
      <trkpt lat="44.58092" lon="0.73074">
        <ele>154</ele>
        <time>2012-02-19T09:20:13Z</time>
      </trkpt>
      <trkpt lat="44.58089" lon="0.73074">
        <ele>154</ele>
        <time>2012-02-19T09:20:14Z</time>
      </trkpt>
      <trkpt lat="44.58086" lon="0.73073">
        <ele>154</ele>
        <time>2012-02-19T09:20:15Z</time>
      </trkpt>
      <trkpt lat="44.58084" lon="0.73073">
        <ele>154</ele>
        <time>2012-02-19T09:20:16Z</time>
      </trkpt>
      <trkpt lat="44.58081" lon="0.73073">
        <ele>154</ele>
        <time>2012-02-19T09:20:17Z</time>
      </trkpt>
      <trkpt lat="44.58079" lon="0.73073">
        <ele>154</ele>
        <time>2012-02-19T09:20:18Z</time>
      </trkpt>
      <trkpt lat="44.58076" lon="0.73073">
        <ele>154</ele>
        <time>2012-02-19T09:20:19Z</time>
      </trkpt>
      <trkpt lat="44.58074" lon="0.73073">
        <ele>154</ele>
        <time>2012-02-19T09:20:20Z</time>
      </trkpt>
      <trkpt lat="44.58072" lon="0.73073">
        <ele>154</ele>
        <time>2012-02-19T09:20:21Z</time>
      </trkpt>
      <trkpt lat="44.5807" lon="0.73073">
        <ele>154</ele>
        <time>2012-02-19T09:20:22Z</time>
      </trkpt>
      <trkpt lat="44.58069" lon="0.73073">
        <ele>154</ele>
        <time>2012-02-19T09:20:23Z</time>
      </trkpt>
      <trkpt lat="44.58068" lon="0.73073">
        <ele>154</ele>
        <time>2012-02-19T09:20:24Z</time>
      </trkpt>
      <trkpt lat="44.58066" lon="0.73073">
        <ele>154</ele>
        <time>2012-02-19T09:20:25Z</time>
      </trkpt>
      <trkpt lat="44.58064" lon="0.73074">
        <ele>154</ele>
        <time>2012-02-19T09:20:26Z</time>
      </trkpt>
      <trkpt lat="44.58062" lon="0.73075">
        <ele>154</ele>
        <time>2012-02-19T09:20:27Z</time>
      </trkpt>
      <trkpt lat="44.5806" lon="0.73075">
        <ele>154</ele>
        <time>2012-02-19T09:20:28Z</time>
      </trkpt>
      <trkpt lat="44.58057" lon="0.73076">
        <ele>154</ele>
        <time>2012-02-19T09:20:29Z</time>
      </trkpt>
      <trkpt lat="44.58054" lon="0.73076">
        <ele>154</ele>
        <time>2012-02-19T09:20:30Z</time>
      </trkpt>
      <trkpt lat="44.58051" lon="0.73076">
        <ele>154</ele>
        <time>2012-02-19T09:20:31Z</time>
      </trkpt>
      <trkpt lat="44.58049" lon="0.73076">
        <ele>154</ele>
        <time>2012-02-19T09:20:32Z</time>
      </trkpt>
      <trkpt lat="44.58046" lon="0.73075">
        <ele>154</ele>
        <time>2012-02-19T09:20:33Z</time>
      </trkpt>
      <trkpt lat="44.58044" lon="0.73075">
        <ele>154</ele>
        <time>2012-02-19T09:20:34Z</time>
      </trkpt>
      <trkpt lat="44.58042" lon="0.73074">
        <ele>154</ele>
        <time>2012-02-19T09:20:35Z</time>
      </trkpt>
      <trkpt lat="44.58039" lon="0.73074">
        <ele>154</ele>
        <time>2012-02-19T09:20:36Z</time>
      </trkpt>
      <trkpt lat="44.58036" lon="0.73073">
        <ele>155</ele>
        <time>2012-02-19T09:20:37Z</time>
      </trkpt>
      <trkpt lat="44.58034" lon="0.73072">
        <ele>155</ele>
        <time>2012-02-19T09:20:38Z</time>
      </trkpt>
      <trkpt lat="44.58031" lon="0.73072">
        <ele>156</ele>
        <time>2012-02-19T09:20:39Z</time>
      </trkpt>
      <trkpt lat="44.58028" lon="0.73071">
        <ele>157</ele>
        <time>2012-02-19T09:20:40Z</time>
      </trkpt>
      <trkpt lat="44.58026" lon="0.7307">
        <ele>158</ele>
        <time>2012-02-19T09:20:41Z</time>
      </trkpt>
      <trkpt lat="44.58024" lon="0.7307">
        <ele>158</ele>
        <time>2012-02-19T09:20:42Z</time>
      </trkpt>
      <trkpt lat="44.58021" lon="0.7307">
        <ele>159</ele>
        <time>2012-02-19T09:20:43Z</time>
      </trkpt>
      <trkpt lat="44.58019" lon="0.73069">
        <ele>160</ele>
        <time>2012-02-19T09:20:44Z</time>
      </trkpt>
      <trkpt lat="44.58017" lon="0.73068">
        <ele>160</ele>
        <time>2012-02-19T09:20:45Z</time>
      </trkpt>
      <trkpt lat="44.58014" lon="0.73068">
        <ele>161</ele>
        <time>2012-02-19T09:20:46Z</time>
      </trkpt>
      <trkpt lat="44.58012" lon="0.73068">
        <ele>162</ele>
        <time>2012-02-19T09:20:47Z</time>
      </trkpt>
      <trkpt lat="44.58009" lon="0.73067">
        <ele>162</ele>
        <time>2012-02-19T09:20:48Z</time>
      </trkpt>
      <trkpt lat="44.58007" lon="0.73067">
        <ele>162</ele>
        <time>2012-02-19T09:20:49Z</time>
      </trkpt>
      <trkpt lat="44.58004" lon="0.73066">
        <ele>163</ele>
        <time>2012-02-19T09:20:50Z</time>
      </trkpt>
      <trkpt lat="44.58001" lon="0.73066">
        <ele>163</ele>
        <time>2012-02-19T09:20:51Z</time>
      </trkpt>
      <trkpt lat="44.57999" lon="0.73064">
        <ele>163</ele>
        <time>2012-02-19T09:20:52Z</time>
      </trkpt>
      <trkpt lat="44.57996" lon="0.73063">
        <ele>163</ele>
        <time>2012-02-19T09:20:53Z</time>
      </trkpt>
      <trkpt lat="44.57993" lon="0.73063">
        <ele>163</ele>
        <time>2012-02-19T09:20:54Z</time>
      </trkpt>
      <trkpt lat="44.5799" lon="0.73063">
        <ele>163</ele>
        <time>2012-02-19T09:20:55Z</time>
      </trkpt>
      <trkpt lat="44.57988" lon="0.73063">
        <ele>163</ele>
        <time>2012-02-19T09:20:56Z</time>
      </trkpt>
      <trkpt lat="44.57985" lon="0.73062">
        <ele>163</ele>
        <time>2012-02-19T09:20:57Z</time>
      </trkpt>
      <trkpt lat="44.57983" lon="0.73062">
        <ele>163</ele>
        <time>2012-02-19T09:20:58Z</time>
      </trkpt>
      <trkpt lat="44.57981" lon="0.73061">
        <ele>163</ele>
        <time>2012-02-19T09:20:59Z</time>
      </trkpt>
      <trkpt lat="44.57978" lon="0.7306">
        <ele>163</ele>
        <time>2012-02-19T09:21:00Z</time>
      </trkpt>
      <trkpt lat="44.57975" lon="0.73059">
        <ele>163</ele>
        <time>2012-02-19T09:21:01Z</time>
      </trkpt>
      <trkpt lat="44.57972" lon="0.73059">
        <ele>163</ele>
        <time>2012-02-19T09:21:02Z</time>
      </trkpt>
      <trkpt lat="44.57969" lon="0.73059">
        <ele>163</ele>
        <time>2012-02-19T09:21:03Z</time>
      </trkpt>
      <trkpt lat="44.57965" lon="0.73058">
        <ele>163</ele>
        <time>2012-02-19T09:21:04Z</time>
      </trkpt>
      <trkpt lat="44.57964" lon="0.73058">
        <ele>163</ele>
        <time>2012-02-19T09:21:05Z</time>
      </trkpt>
      <trkpt lat="44.57961" lon="0.73058">
        <ele>164</ele>
        <time>2012-02-19T09:21:06Z</time>
      </trkpt>
      <trkpt lat="44.57959" lon="0.73058">
        <ele>164</ele>
        <time>2012-02-19T09:21:07Z</time>
      </trkpt>
      <trkpt lat="44.57958" lon="0.73058">
        <ele>164</ele>
        <time>2012-02-19T09:21:08Z</time>
      </trkpt>
      <trkpt lat="44.57956" lon="0.73057">
        <ele>164</ele>
        <time>2012-02-19T09:21:09Z</time>
      </trkpt>
      <trkpt lat="44.57954" lon="0.73058">
        <ele>165</ele>
        <time>2012-02-19T09:21:10Z</time>
      </trkpt>
      <trkpt lat="44.57952" lon="0.73058">
        <ele>165</ele>
        <time>2012-02-19T09:21:11Z</time>
      </trkpt>
      <trkpt lat="44.57951" lon="0.73057">
        <ele>165</ele>
        <time>2012-02-19T09:21:12Z</time>
      </trkpt>
      <trkpt lat="44.57949" lon="0.73057">
        <ele>165</ele>
        <time>2012-02-19T09:21:13Z</time>
      </trkpt>
      <trkpt lat="44.57946" lon="0.73057">
        <ele>165</ele>
        <time>2012-02-19T09:21:14Z</time>
      </trkpt>
      <trkpt lat="44.57942" lon="0.73056">
        <ele>165</ele>
        <time>2012-02-19T09:21:15Z</time>
      </trkpt>
      <trkpt lat="44.5794" lon="0.73055">
        <ele>165</ele>
        <time>2012-02-19T09:21:16Z</time>
      </trkpt>
      <trkpt lat="44.57938" lon="0.73055">
        <ele>165</ele>
        <time>2012-02-19T09:21:17Z</time>
      </trkpt>
      <trkpt lat="44.57936" lon="0.73054">
        <ele>165</ele>
        <time>2012-02-19T09:21:18Z</time>
      </trkpt>
      <trkpt lat="44.57934" lon="0.73053">
        <ele>165</ele>
        <time>2012-02-19T09:21:19Z</time>
      </trkpt>
      <trkpt lat="44.57932" lon="0.73053">
        <ele>165</ele>
        <time>2012-02-19T09:21:20Z</time>
      </trkpt>
      <trkpt lat="44.57931" lon="0.73053">
        <ele>165</ele>
        <time>2012-02-19T09:21:21Z</time>
      </trkpt>
      <trkpt lat="44.57929" lon="0.73053">
        <ele>165</ele>
        <time>2012-02-19T09:21:22Z</time>
      </trkpt>
      <trkpt lat="44.57927" lon="0.73053">
        <ele>165</ele>
        <time>2012-02-19T09:21:23Z</time>
      </trkpt>
      <trkpt lat="44.57925" lon="0.73053">
        <ele>165</ele>
        <time>2012-02-19T09:21:24Z</time>
      </trkpt>
      <trkpt lat="44.57923" lon="0.73053">
        <ele>165</ele>
        <time>2012-02-19T09:21:26Z</time>
      </trkpt>
      <trkpt lat="44.57922" lon="0.73053">
        <ele>165</ele>
        <time>2012-02-19T09:21:26Z</time>
      </trkpt>
      <trkpt lat="44.5792" lon="0.73054">
        <ele>165</ele>
        <time>2012-02-19T09:21:27Z</time>
      </trkpt>
      <trkpt lat="44.57918" lon="0.73054">
        <ele>165</ele>
        <time>2012-02-19T09:21:28Z</time>
      </trkpt>
      <trkpt lat="44.57915" lon="0.73055">
        <ele>165</ele>
        <time>2012-02-19T09:21:29Z</time>
      </trkpt>
      <trkpt lat="44.57913" lon="0.73055">
        <ele>165</ele>
        <time>2012-02-19T09:21:30Z</time>
      </trkpt>
      <trkpt lat="44.57911" lon="0.73057">
        <ele>165</ele>
        <time>2012-02-19T09:21:31Z</time>
      </trkpt>
      <trkpt lat="44.57909" lon="0.73058">
        <ele>165</ele>
        <time>2012-02-19T09:21:32Z</time>
      </trkpt>
      <trkpt lat="44.57907" lon="0.73058">
        <ele>165</ele>
        <time>2012-02-19T09:21:33Z</time>
      </trkpt>
      <trkpt lat="44.57905" lon="0.73058">
        <ele>165</ele>
        <time>2012-02-19T09:21:34Z</time>
      </trkpt>
      <trkpt lat="44.57904" lon="0.73058">
        <ele>165</ele>
        <time>2012-02-19T09:21:35Z</time>
      </trkpt>
      <trkpt lat="44.57902" lon="0.73058">
        <ele>165</ele>
        <time>2012-02-19T09:21:36Z</time>
      </trkpt>
      <trkpt lat="44.579" lon="0.73058">
        <ele>165</ele>
        <time>2012-02-19T09:21:37Z</time>
      </trkpt>
      <trkpt lat="44.57897" lon="0.73058">
        <ele>165</ele>
        <time>2012-02-19T09:21:38Z</time>
      </trkpt>
      <trkpt lat="44.57895" lon="0.73058">
        <ele>165</ele>
        <time>2012-02-19T09:21:39Z</time>
      </trkpt>
      <trkpt lat="44.57893" lon="0.73059">
        <ele>165</ele>
        <time>2012-02-19T09:21:40Z</time>
      </trkpt>
      <trkpt lat="44.57891" lon="0.73059">
        <ele>165</ele>
        <time>2012-02-19T09:21:41Z</time>
      </trkpt>
      <trkpt lat="44.57889" lon="0.73059">
        <ele>165</ele>
        <time>2012-02-19T09:21:42Z</time>
      </trkpt>
      <trkpt lat="44.57887" lon="0.73059">
        <ele>165</ele>
        <time>2012-02-19T09:21:43Z</time>
      </trkpt>
      <trkpt lat="44.57885" lon="0.73059">
        <ele>165</ele>
        <time>2012-02-19T09:21:44Z</time>
      </trkpt>
      <trkpt lat="44.57882" lon="0.7306">
        <ele>165</ele>
        <time>2012-02-19T09:21:45Z</time>
      </trkpt>
      <trkpt lat="44.57879" lon="0.73061">
        <ele>165</ele>
        <time>2012-02-19T09:21:46Z</time>
      </trkpt>
      <trkpt lat="44.57877" lon="0.73062">
        <ele>165</ele>
        <time>2012-02-19T09:21:47Z</time>
      </trkpt>
      <trkpt lat="44.57875" lon="0.73062">
        <ele>165</ele>
        <time>2012-02-19T09:21:48Z</time>
      </trkpt>
      <trkpt lat="44.57872" lon="0.73062">
        <ele>165</ele>
        <time>2012-02-19T09:21:49Z</time>
      </trkpt>
      <trkpt lat="44.5787" lon="0.73062">
        <ele>165</ele>
        <time>2012-02-19T09:21:50Z</time>
      </trkpt>
      <trkpt lat="44.57868" lon="0.73062">
        <ele>165</ele>
        <time>2012-02-19T09:21:51Z</time>
      </trkpt>
      <trkpt lat="44.57866" lon="0.73063">
        <ele>165</ele>
        <time>2012-02-19T09:21:52Z</time>
      </trkpt>
      <trkpt lat="44.57864" lon="0.73063">
        <ele>166</ele>
        <time>2012-02-19T09:21:53Z</time>
      </trkpt>
      <trkpt lat="44.57862" lon="0.73063">
        <ele>166</ele>
        <time>2012-02-19T09:21:54Z</time>
      </trkpt>
      <trkpt lat="44.57859" lon="0.73063">
        <ele>167</ele>
        <time>2012-02-19T09:21:55Z</time>
      </trkpt>
      <trkpt lat="44.57857" lon="0.73063">
        <ele>167</ele>
        <time>2012-02-19T09:21:56Z</time>
      </trkpt>
      <trkpt lat="44.57854" lon="0.73063">
        <ele>168</ele>
        <time>2012-02-19T09:21:57Z</time>
      </trkpt>
      <trkpt lat="44.57852" lon="0.73063">
        <ele>168</ele>
        <time>2012-02-19T09:21:58Z</time>
      </trkpt>
      <trkpt lat="44.5785" lon="0.73063">
        <ele>169</ele>
        <time>2012-02-19T09:21:59Z</time>
      </trkpt>
      <trkpt lat="44.57848" lon="0.73063">
        <ele>169</ele>
        <time>2012-02-19T09:22:00Z</time>
      </trkpt>
      <trkpt lat="44.57846" lon="0.73063">
        <ele>170</ele>
        <time>2012-02-19T09:22:01Z</time>
      </trkpt>
      <trkpt lat="44.57843" lon="0.73063">
        <ele>170</ele>
        <time>2012-02-19T09:22:02Z</time>
      </trkpt>
      <trkpt lat="44.57841" lon="0.73063">
        <ele>170</ele>
        <time>2012-02-19T09:22:03Z</time>
      </trkpt>
      <trkpt lat="44.5784" lon="0.73063">
        <ele>171</ele>
        <time>2012-02-19T09:22:04Z</time>
      </trkpt>
      <trkpt lat="44.57838" lon="0.73063">
        <ele>171</ele>
        <time>2012-02-19T09:22:05Z</time>
      </trkpt>
      <trkpt lat="44.57836" lon="0.73063">
        <ele>171</ele>
        <time>2012-02-19T09:22:06Z</time>
      </trkpt>
      <trkpt lat="44.57834" lon="0.73064">
        <ele>172</ele>
        <time>2012-02-19T09:22:07Z</time>
      </trkpt>
      <trkpt lat="44.57832" lon="0.73064">
        <ele>172</ele>
        <time>2012-02-19T09:22:08Z</time>
      </trkpt>
      <trkpt lat="44.5783" lon="0.73064">
        <ele>173</ele>
        <time>2012-02-19T09:22:09Z</time>
      </trkpt>
      <trkpt lat="44.57827" lon="0.73065">
        <ele>173</ele>
        <time>2012-02-19T09:22:10Z</time>
      </trkpt>
      <trkpt lat="44.57825" lon="0.73065">
        <ele>174</ele>
        <time>2012-02-19T09:22:11Z</time>
      </trkpt>
      <trkpt lat="44.57823" lon="0.73066">
        <ele>174</ele>
        <time>2012-02-19T09:22:12Z</time>
      </trkpt>
      <trkpt lat="44.57822" lon="0.73066">
        <ele>174</ele>
        <time>2012-02-19T09:22:13Z</time>
      </trkpt>
      <trkpt lat="44.5782" lon="0.73065">
        <ele>175</ele>
        <time>2012-02-19T09:22:14Z</time>
      </trkpt>
      <trkpt lat="44.57817" lon="0.73066">
        <ele>175</ele>
        <time>2012-02-19T09:22:15Z</time>
      </trkpt>
      <trkpt lat="44.57815" lon="0.73067">
        <ele>175</ele>
        <time>2012-02-19T09:22:16Z</time>
      </trkpt>
      <trkpt lat="44.57813" lon="0.73068">
        <ele>175</ele>
        <time>2012-02-19T09:22:17Z</time>
      </trkpt>
      <trkpt lat="44.57811" lon="0.73068">
        <ele>175</ele>
        <time>2012-02-19T09:22:18Z</time>
      </trkpt>
      <trkpt lat="44.57809" lon="0.7307">
        <ele>175</ele>
        <time>2012-02-19T09:22:19Z</time>
      </trkpt>
      <trkpt lat="44.57807" lon="0.73071">
        <ele>175</ele>
        <time>2012-02-19T09:22:20Z</time>
      </trkpt>
      <trkpt lat="44.57806" lon="0.73071">
        <ele>175</ele>
        <time>2012-02-19T09:22:21Z</time>
      </trkpt>
      <trkpt lat="44.57804" lon="0.73072">
        <ele>175</ele>
        <time>2012-02-19T09:22:22Z</time>
      </trkpt>
      <trkpt lat="44.57802" lon="0.73073">
        <ele>175</ele>
        <time>2012-02-19T09:22:23Z</time>
      </trkpt>
      <trkpt lat="44.578" lon="0.73073">
        <ele>175</ele>
        <time>2012-02-19T09:22:24Z</time>
      </trkpt>
      <trkpt lat="44.57798" lon="0.73074">
        <ele>175</ele>
        <time>2012-02-19T09:22:25Z</time>
      </trkpt>
      <trkpt lat="44.57796" lon="0.73075">
        <ele>175</ele>
        <time>2012-02-19T09:22:26Z</time>
      </trkpt>
      <trkpt lat="44.57793" lon="0.73075">
        <ele>175</ele>
        <time>2012-02-19T09:22:27Z</time>
      </trkpt>
      <trkpt lat="44.57791" lon="0.73076">
        <ele>175</ele>
        <time>2012-02-19T09:22:28Z</time>
      </trkpt>
      <trkpt lat="44.57788" lon="0.73077">
        <ele>174</ele>
        <time>2012-02-19T09:22:29Z</time>
      </trkpt>
      <trkpt lat="44.57786" lon="0.73076">
        <ele>174</ele>
        <time>2012-02-19T09:22:30Z</time>
      </trkpt>
      <trkpt lat="44.57785" lon="0.73076">
        <ele>174</ele>
        <time>2012-02-19T09:22:31Z</time>
      </trkpt>
      <trkpt lat="44.57783" lon="0.73076">
        <ele>173</ele>
        <time>2012-02-19T09:22:33Z</time>
      </trkpt>
      <trkpt lat="44.57782" lon="0.73076">
        <ele>172</ele>
        <time>2012-02-19T09:22:34Z</time>
      </trkpt>
      <trkpt lat="44.57781" lon="0.73076">
        <ele>169</ele>
        <time>2012-02-19T09:22:37Z</time>
      </trkpt>
      <trkpt lat="44.57779" lon="0.73077">
        <ele>168</ele>
        <time>2012-02-19T09:22:38Z</time>
      </trkpt>
      <trkpt lat="44.57778" lon="0.73078">
        <ele>163</ele>
        <time>2012-02-19T09:22:43Z</time>
      </trkpt>
      <trkpt lat="44.57776" lon="0.7308">
        <ele>161</ele>
        <time>2012-02-19T09:22:46Z</time>
      </trkpt>
      <trkpt lat="44.57774" lon="0.73081">
        <ele>158</ele>
        <time>2012-02-19T09:22:49Z</time>
      </trkpt>
      <trkpt lat="44.57774" lon="0.73083">
        <ele>157</ele>
        <time>2012-02-19T09:22:52Z</time>
      </trkpt>
      <trkpt lat="44.57773" lon="0.73084">
        <ele>156</ele>
        <time>2012-02-19T09:22:56Z</time>
      </trkpt>
      <trkpt lat="44.57772" lon="0.73086">
        <ele>156</ele>
        <time>2012-02-19T09:23:00Z</time>
      </trkpt>
      <trkpt lat="44.57772" lon="0.73087">
        <ele>156</ele>
        <time>2012-02-19T09:23:04Z</time>
      </trkpt>
      <trkpt lat="44.57773" lon="0.73087">
        <ele>156</ele>
        <time>2012-02-19T09:23:07Z</time>
      </trkpt>
      <trkpt lat="44.57774" lon="0.73087">
        <ele>156</ele>
        <time>2012-02-19T09:23:10Z</time>
      </trkpt>
      <trkpt lat="44.57776" lon="0.73086">
        <ele>156</ele>
        <time>2012-02-19T09:23:12Z</time>
      </trkpt>
      <trkpt lat="44.57776" lon="0.73088">
        <ele>156</ele>
        <time>2012-02-19T09:23:23Z</time>
      </trkpt>
      <trkpt lat="44.57775" lon="0.73089">
        <ele>156</ele>
        <time>2012-02-19T09:23:25Z</time>
      </trkpt>
      <trkpt lat="44.57773" lon="0.7309">
        <ele>157</ele>
        <time>2012-02-19T09:23:31Z</time>
      </trkpt>
      <trkpt lat="44.57772" lon="0.73092">
        <ele>157</ele>
        <time>2012-02-19T09:23:34Z</time>
      </trkpt>
      <trkpt lat="44.57773" lon="0.73089">
        <ele>157</ele>
        <time>2012-02-19T09:23:42Z</time>
      </trkpt>
      <trkpt lat="44.57773" lon="0.73088">
        <ele>157</ele>
        <time>2012-02-19T09:23:43Z</time>
      </trkpt>
      <trkpt lat="44.57773" lon="0.73086">
        <ele>157</ele>
        <time>2012-02-19T09:23:46Z</time>
      </trkpt>
      <trkpt lat="44.57772" lon="0.73084">
        <ele>157</ele>
        <time>2012-02-19T09:23:48Z</time>
      </trkpt>
      <trkpt lat="44.57773" lon="0.73085">
        <ele>157</ele>
        <time>2012-02-19T09:23:52Z</time>
      </trkpt>
      <trkpt lat="44.57774" lon="0.73086">
        <ele>158</ele>
        <time>2012-02-19T09:23:55Z</time>
      </trkpt>
      <trkpt lat="44.57773" lon="0.73088">
        <ele>157</ele>
        <time>2012-02-19T09:24:09Z</time>
      </trkpt>
      <trkpt lat="44.57774" lon="0.73086">
        <ele>157</ele>
        <time>2012-02-19T09:24:22Z</time>
      </trkpt>
      <trkpt lat="44.57775" lon="0.73084">
        <ele>157</ele>
        <time>2012-02-19T09:24:28Z</time>
      </trkpt>
      <trkpt lat="44.57777" lon="0.73083">
        <ele>157</ele>
        <time>2012-02-19T09:24:33Z</time>
      </trkpt>
      <trkpt lat="44.57778" lon="0.73081">
        <ele>158</ele>
        <time>2012-02-19T09:24:40Z</time>
      </trkpt>
      <trkpt lat="44.57776" lon="0.7308">
        <ele>158</ele>
        <time>2012-02-19T09:24:43Z</time>
      </trkpt>
      <trkpt lat="44.57775" lon="0.73079">
        <ele>158</ele>
        <time>2012-02-19T09:24:44Z</time>
      </trkpt>
      <trkpt lat="44.57773" lon="0.73078">
        <ele>158</ele>
        <time>2012-02-19T09:24:45Z</time>
      </trkpt>
      <trkpt lat="44.57772" lon="0.73077">
        <ele>158</ele>
        <time>2012-02-19T09:24:46Z</time>
      </trkpt>
      <trkpt lat="44.5777" lon="0.73075">
        <ele>158</ele>
        <time>2012-02-19T09:24:47Z</time>
      </trkpt>
      <trkpt lat="44.57768" lon="0.73074">
        <ele>158</ele>
        <time>2012-02-19T09:24:48Z</time>
      </trkpt>
      <trkpt lat="44.57767" lon="0.73072">
        <ele>158</ele>
        <time>2012-02-19T09:24:49Z</time>
      </trkpt>
      <trkpt lat="44.57766" lon="0.7307">
        <ele>158</ele>
        <time>2012-02-19T09:24:50Z</time>
      </trkpt>
      <trkpt lat="44.57765" lon="0.73067">
        <ele>158</ele>
        <time>2012-02-19T09:24:51Z</time>
      </trkpt>
      <trkpt lat="44.57765" lon="0.73065">
        <ele>157</ele>
        <time>2012-02-19T09:24:52Z</time>
      </trkpt>
      <trkpt lat="44.57764" lon="0.73062">
        <ele>157</ele>
        <time>2012-02-19T09:24:53Z</time>
      </trkpt>
      <trkpt lat="44.57763" lon="0.73059">
        <ele>157</ele>
        <time>2012-02-19T09:24:54Z</time>
      </trkpt>
      <trkpt lat="44.57763" lon="0.73057">
        <ele>157</ele>
        <time>2012-02-19T09:24:55Z</time>
      </trkpt>
      <trkpt lat="44.57762" lon="0.73054">
        <ele>157</ele>
        <time>2012-02-19T09:24:56Z</time>
      </trkpt>
      <trkpt lat="44.5776" lon="0.73049">
        <ele>157</ele>
        <time>2012-02-19T09:24:57Z</time>
      </trkpt>
      <trkpt lat="44.57757" lon="0.73045">
        <ele>157</ele>
        <time>2012-02-19T09:24:58Z</time>
      </trkpt>
      <trkpt lat="44.57756" lon="0.73041">
        <ele>157</ele>
        <time>2012-02-19T09:24:59Z</time>
      </trkpt>
      <trkpt lat="44.57754" lon="0.73037">
        <ele>158</ele>
        <time>2012-02-19T09:25:00Z</time>
      </trkpt>
      <trkpt lat="44.57753" lon="0.73034">
        <ele>159</ele>
        <time>2012-02-19T09:25:01Z</time>
      </trkpt>
      <trkpt lat="44.57752" lon="0.7303">
        <ele>160</ele>
        <time>2012-02-19T09:25:02Z</time>
      </trkpt>
      <trkpt lat="44.57751" lon="0.73025">
        <ele>161</ele>
        <time>2012-02-19T09:25:03Z</time>
      </trkpt>
      <trkpt lat="44.5775" lon="0.73023">
        <ele>162</ele>
        <time>2012-02-19T09:25:04Z</time>
      </trkpt>
      <trkpt lat="44.5775" lon="0.7302">
        <ele>162</ele>
        <time>2012-02-19T09:25:05Z</time>
      </trkpt>
      <trkpt lat="44.5775" lon="0.73017">
        <ele>163</ele>
        <time>2012-02-19T09:25:06Z</time>
      </trkpt>
      <trkpt lat="44.57749" lon="0.73014">
        <ele>163</ele>
        <time>2012-02-19T09:25:07Z</time>
      </trkpt>
      <trkpt lat="44.57749" lon="0.7301">
        <ele>164</ele>
        <time>2012-02-19T09:25:08Z</time>
      </trkpt>
      <trkpt lat="44.57749" lon="0.73005">
        <ele>164</ele>
        <time>2012-02-19T09:25:09Z</time>
      </trkpt>
      <trkpt lat="44.57748" lon="0.73002">
        <ele>164</ele>
        <time>2012-02-19T09:25:10Z</time>
      </trkpt>
      <trkpt lat="44.57748" lon="0.72999">
        <ele>164</ele>
        <time>2012-02-19T09:25:11Z</time>
      </trkpt>
      <trkpt lat="44.57748" lon="0.72996">
        <ele>164</ele>
        <time>2012-02-19T09:25:12Z</time>
      </trkpt>
      <trkpt lat="44.57748" lon="0.72993">
        <ele>164</ele>
        <time>2012-02-19T09:25:13Z</time>
      </trkpt>
      <trkpt lat="44.57747" lon="0.72991">
        <ele>164</ele>
        <time>2012-02-19T09:25:14Z</time>
      </trkpt>
      <trkpt lat="44.57747" lon="0.72988">
        <ele>164</ele>
        <time>2012-02-19T09:25:15Z</time>
      </trkpt>
      <trkpt lat="44.57747" lon="0.72987">
        <ele>164</ele>
        <time>2012-02-19T09:25:16Z</time>
      </trkpt>
      <trkpt lat="44.57746" lon="0.72983">
        <ele>164</ele>
        <time>2012-02-19T09:25:17Z</time>
      </trkpt>
      <trkpt lat="44.57745" lon="0.72981">
        <ele>164</ele>
        <time>2012-02-19T09:25:18Z</time>
      </trkpt>
      <trkpt lat="44.57745" lon="0.7298">
        <ele>164</ele>
        <time>2012-02-19T09:25:19Z</time>
      </trkpt>
      <trkpt lat="44.57745" lon="0.72978">
        <ele>164</ele>
        <time>2012-02-19T09:25:20Z</time>
      </trkpt>
      <trkpt lat="44.57745" lon="0.72975">
        <ele>164</ele>
        <time>2012-02-19T09:25:21Z</time>
      </trkpt>
      <trkpt lat="44.57744" lon="0.72974">
        <ele>164</ele>
        <time>2012-02-19T09:25:22Z</time>
      </trkpt>
      <trkpt lat="44.57744" lon="0.72971">
        <ele>164</ele>
        <time>2012-02-19T09:25:23Z</time>
      </trkpt>
      <trkpt lat="44.57743" lon="0.7297">
        <ele>164</ele>
        <time>2012-02-19T09:25:24Z</time>
      </trkpt>
      <trkpt lat="44.57743" lon="0.72966">
        <ele>163</ele>
        <time>2012-02-19T09:25:26Z</time>
      </trkpt>
      <trkpt lat="44.57743" lon="0.72964">
        <ele>163</ele>
        <time>2012-02-19T09:25:27Z</time>
      </trkpt>
      <trkpt lat="44.57743" lon="0.72961">
        <ele>162</ele>
        <time>2012-02-19T09:25:28Z</time>
      </trkpt>
      <trkpt lat="44.57742" lon="0.72956">
        <ele>162</ele>
        <time>2012-02-19T09:25:29Z</time>
      </trkpt>
      <trkpt lat="44.5774" lon="0.7295">
        <ele>162</ele>
        <time>2012-02-19T09:25:30Z</time>
      </trkpt>
      <trkpt lat="44.57739" lon="0.72946">
        <ele>162</ele>
        <time>2012-02-19T09:25:31Z</time>
      </trkpt>
      <trkpt lat="44.57738" lon="0.72942">
        <ele>162</ele>
        <time>2012-02-19T09:25:32Z</time>
      </trkpt>
      <trkpt lat="44.57738" lon="0.72938">
        <ele>162</ele>
        <time>2012-02-19T09:25:33Z</time>
      </trkpt>
      <trkpt lat="44.57739" lon="0.72933">
        <ele>162</ele>
        <time>2012-02-19T09:25:34Z</time>
      </trkpt>
      <trkpt lat="44.57738" lon="0.72929">
        <ele>162</ele>
        <time>2012-02-19T09:25:35Z</time>
      </trkpt>
      <trkpt lat="44.57738" lon="0.72924">
        <ele>162</ele>
        <time>2012-02-19T09:25:36Z</time>
      </trkpt>
      <trkpt lat="44.57737" lon="0.72919">
        <ele>162</ele>
        <time>2012-02-19T09:25:37Z</time>
      </trkpt>
      <trkpt lat="44.57736" lon="0.72913">
        <ele>162</ele>
        <time>2012-02-19T09:25:38Z</time>
      </trkpt>
      <trkpt lat="44.57735" lon="0.72908">
        <ele>162</ele>
        <time>2012-02-19T09:25:39Z</time>
      </trkpt>
      <trkpt lat="44.57735" lon="0.72904">
        <ele>162</ele>
        <time>2012-02-19T09:25:40Z</time>
      </trkpt>
      <trkpt lat="44.57735" lon="0.72899">
        <ele>162</ele>
        <time>2012-02-19T09:25:41Z</time>
      </trkpt>
      <trkpt lat="44.57735" lon="0.72895">
        <ele>162</ele>
        <time>2012-02-19T09:25:42Z</time>
      </trkpt>
      <trkpt lat="44.57735" lon="0.72891">
        <ele>162</ele>
        <time>2012-02-19T09:25:43Z</time>
      </trkpt>
      <trkpt lat="44.57735" lon="0.72887">
        <ele>162</ele>
        <time>2012-02-19T09:25:44Z</time>
      </trkpt>
      <trkpt lat="44.57735" lon="0.72882">
        <ele>162</ele>
        <time>2012-02-19T09:25:45Z</time>
      </trkpt>
      <trkpt lat="44.57735" lon="0.72878">
        <ele>162</ele>
        <time>2012-02-19T09:25:46Z</time>
      </trkpt>
      <trkpt lat="44.57735" lon="0.72874">
        <ele>162</ele>
        <time>2012-02-19T09:25:47Z</time>
      </trkpt>
      <trkpt lat="44.57736" lon="0.72871">
        <ele>162</ele>
        <time>2012-02-19T09:25:48Z</time>
      </trkpt>
      <trkpt lat="44.57737" lon="0.72866">
        <ele>162</ele>
        <time>2012-02-19T09:25:49Z</time>
      </trkpt>
      <trkpt lat="44.57738" lon="0.72863">
        <ele>162</ele>
        <time>2012-02-19T09:25:50Z</time>
      </trkpt>
      <trkpt lat="44.57738" lon="0.72859">
        <ele>162</ele>
        <time>2012-02-19T09:25:51Z</time>
      </trkpt>
      <trkpt lat="44.57739" lon="0.72855">
        <ele>162</ele>
        <time>2012-02-19T09:25:52Z</time>
      </trkpt>
      <trkpt lat="44.5774" lon="0.72851">
        <ele>162</ele>
        <time>2012-02-19T09:25:53Z</time>
      </trkpt>
      <trkpt lat="44.5774" lon="0.72847">
        <ele>162</ele>
        <time>2012-02-19T09:25:54Z</time>
      </trkpt>
      <trkpt lat="44.5774" lon="0.72843">
        <ele>162</ele>
        <time>2012-02-19T09:25:55Z</time>
      </trkpt>
      <trkpt lat="44.5774" lon="0.72839">
        <ele>162</ele>
        <time>2012-02-19T09:25:56Z</time>
      </trkpt>
      <trkpt lat="44.5774" lon="0.72834">
        <ele>162</ele>
        <time>2012-02-19T09:25:57Z</time>
      </trkpt>
      <trkpt lat="44.57741" lon="0.72828">
        <ele>162</ele>
        <time>2012-02-19T09:25:58Z</time>
      </trkpt>
      <trkpt lat="44.57741" lon="0.72823">
        <ele>162</ele>
        <time>2012-02-19T09:25:59Z</time>
      </trkpt>
      <trkpt lat="44.57742" lon="0.72818">
        <ele>162</ele>
        <time>2012-02-19T09:26:00Z</time>
      </trkpt>
      <trkpt lat="44.57742" lon="0.72813">
        <ele>162</ele>
        <time>2012-02-19T09:26:01Z</time>
      </trkpt>
      <trkpt lat="44.57743" lon="0.72809">
        <ele>162</ele>
        <time>2012-02-19T09:26:02Z</time>
      </trkpt>
      <trkpt lat="44.57745" lon="0.72805">
        <ele>162</ele>
        <time>2012-02-19T09:26:03Z</time>
      </trkpt>
      <trkpt lat="44.57746" lon="0.728">
        <ele>162</ele>
        <time>2012-02-19T09:26:04Z</time>
      </trkpt>
      <trkpt lat="44.57747" lon="0.72795">
        <ele>162</ele>
        <time>2012-02-19T09:26:05Z</time>
      </trkpt>
      <trkpt lat="44.57748" lon="0.72791">
        <ele>161</ele>
        <time>2012-02-19T09:26:06Z</time>
      </trkpt>
      <trkpt lat="44.57749" lon="0.72787">
        <ele>161</ele>
        <time>2012-02-19T09:26:07Z</time>
      </trkpt>
      <trkpt lat="44.5775" lon="0.72782">
        <ele>160</ele>
        <time>2012-02-19T09:26:08Z</time>
      </trkpt>
      <trkpt lat="44.57751" lon="0.72778">
        <ele>159</ele>
        <time>2012-02-19T09:26:09Z</time>
      </trkpt>
      <trkpt lat="44.57752" lon="0.72773">
        <ele>159</ele>
        <time>2012-02-19T09:26:10Z</time>
      </trkpt>
      <trkpt lat="44.57753" lon="0.72768">
        <ele>158</ele>
        <time>2012-02-19T09:26:11Z</time>
      </trkpt>
      <trkpt lat="44.57755" lon="0.72764">
        <ele>158</ele>
        <time>2012-02-19T09:26:12Z</time>
      </trkpt>
      <trkpt lat="44.57756" lon="0.72759">
        <ele>157</ele>
        <time>2012-02-19T09:26:13Z</time>
      </trkpt>
      <trkpt lat="44.57757" lon="0.72755">
        <ele>157</ele>
        <time>2012-02-19T09:26:14Z</time>
      </trkpt>
      <trkpt lat="44.57758" lon="0.7275">
        <ele>157</ele>
        <time>2012-02-19T09:26:15Z</time>
      </trkpt>
      <trkpt lat="44.57759" lon="0.72746">
        <ele>156</ele>
        <time>2012-02-19T09:26:16Z</time>
      </trkpt>
      <trkpt lat="44.5776" lon="0.72741">
        <ele>156</ele>
        <time>2012-02-19T09:26:17Z</time>
      </trkpt>
      <trkpt lat="44.57761" lon="0.72737">
        <ele>156</ele>
        <time>2012-02-19T09:26:18Z</time>
      </trkpt>
      <trkpt lat="44.57763" lon="0.72732">
        <ele>155</ele>
        <time>2012-02-19T09:26:19Z</time>
      </trkpt>
      <trkpt lat="44.57764" lon="0.72728">
        <ele>155</ele>
        <time>2012-02-19T09:26:20Z</time>
      </trkpt>
      <trkpt lat="44.57764" lon="0.72725">
        <ele>154</ele>
        <time>2012-02-19T09:26:21Z</time>
      </trkpt>
      <trkpt lat="44.57766" lon="0.72721">
        <ele>154</ele>
        <time>2012-02-19T09:26:22Z</time>
      </trkpt>
      <trkpt lat="44.57767" lon="0.72717">
        <ele>154</ele>
        <time>2012-02-19T09:26:23Z</time>
      </trkpt>
      <trkpt lat="44.57768" lon="0.72714">
        <ele>154</ele>
        <time>2012-02-19T09:26:24Z</time>
      </trkpt>
      <trkpt lat="44.5777" lon="0.7271">
        <ele>154</ele>
        <time>2012-02-19T09:26:25Z</time>
      </trkpt>
      <trkpt lat="44.57771" lon="0.72705">
        <ele>154</ele>
        <time>2012-02-19T09:26:26Z</time>
      </trkpt>
      <trkpt lat="44.57774" lon="0.72701">
        <ele>154</ele>
        <time>2012-02-19T09:26:27Z</time>
      </trkpt>
      <trkpt lat="44.57776" lon="0.72697">
        <ele>154</ele>
        <time>2012-02-19T09:26:28Z</time>
      </trkpt>
      <trkpt lat="44.57778" lon="0.72693">
        <ele>154</ele>
        <time>2012-02-19T09:26:29Z</time>
      </trkpt>
      <trkpt lat="44.57781" lon="0.72689">
        <ele>154</ele>
        <time>2012-02-19T09:26:30Z</time>
      </trkpt>
      <trkpt lat="44.57783" lon="0.72685">
        <ele>154</ele>
        <time>2012-02-19T09:26:31Z</time>
      </trkpt>
      <trkpt lat="44.57786" lon="0.7268">
        <ele>154</ele>
        <time>2012-02-19T09:26:32Z</time>
      </trkpt>
      <trkpt lat="44.57788" lon="0.72676">
        <ele>154</ele>
        <time>2012-02-19T09:26:33Z</time>
      </trkpt>
      <trkpt lat="44.5779" lon="0.72672">
        <ele>154</ele>
        <time>2012-02-19T09:26:34Z</time>
      </trkpt>
      <trkpt lat="44.57792" lon="0.72668">
        <ele>154</ele>
        <time>2012-02-19T09:26:35Z</time>
      </trkpt>
      <trkpt lat="44.57793" lon="0.72664">
        <ele>154</ele>
        <time>2012-02-19T09:26:36Z</time>
      </trkpt>
      <trkpt lat="44.57795" lon="0.7266">
        <ele>154</ele>
        <time>2012-02-19T09:26:37Z</time>
      </trkpt>
      <trkpt lat="44.57797" lon="0.72655">
        <ele>154</ele>
        <time>2012-02-19T09:26:38Z</time>
      </trkpt>
      <trkpt lat="44.57799" lon="0.72652">
        <ele>154</ele>
        <time>2012-02-19T09:26:39Z</time>
      </trkpt>
      <trkpt lat="44.57801" lon="0.72648">
        <ele>154</ele>
        <time>2012-02-19T09:26:40Z</time>
      </trkpt>
      <trkpt lat="44.57803" lon="0.72645">
        <ele>154</ele>
        <time>2012-02-19T09:26:41Z</time>
      </trkpt>
      <trkpt lat="44.57804" lon="0.72641">
        <ele>154</ele>
        <time>2012-02-19T09:26:42Z</time>
      </trkpt>
      <trkpt lat="44.57807" lon="0.72636">
        <ele>154</ele>
        <time>2012-02-19T09:26:43Z</time>
      </trkpt>
      <trkpt lat="44.57809" lon="0.72632">
        <ele>154</ele>
        <time>2012-02-19T09:26:44Z</time>
      </trkpt>
      <trkpt lat="44.5781" lon="0.72628">
        <ele>154</ele>
        <time>2012-02-19T09:26:45Z</time>
      </trkpt>
      <trkpt lat="44.57812" lon="0.72623">
        <ele>154</ele>
        <time>2012-02-19T09:26:46Z</time>
      </trkpt>
      <trkpt lat="44.57813" lon="0.72619">
        <ele>154</ele>
        <time>2012-02-19T09:26:47Z</time>
      </trkpt>
      <trkpt lat="44.57815" lon="0.72615">
        <ele>154</ele>
        <time>2012-02-19T09:26:48Z</time>
      </trkpt>
      <trkpt lat="44.57817" lon="0.7261">
        <ele>154</ele>
        <time>2012-02-19T09:26:49Z</time>
      </trkpt>
      <trkpt lat="44.57819" lon="0.72606">
        <ele>154</ele>
        <time>2012-02-19T09:26:50Z</time>
      </trkpt>
      <trkpt lat="44.57822" lon="0.72601">
        <ele>154</ele>
        <time>2012-02-19T09:26:51Z</time>
      </trkpt>
      <trkpt lat="44.57823" lon="0.72596">
        <ele>154</ele>
        <time>2012-02-19T09:26:52Z</time>
      </trkpt>
      <trkpt lat="44.57824" lon="0.72592">
        <ele>153</ele>
        <time>2012-02-19T09:26:53Z</time>
      </trkpt>
      <trkpt lat="44.57826" lon="0.72588">
        <ele>153</ele>
        <time>2012-02-19T09:26:54Z</time>
      </trkpt>
      <trkpt lat="44.57827" lon="0.72585">
        <ele>153</ele>
        <time>2012-02-19T09:26:55Z</time>
      </trkpt>
      <trkpt lat="44.57828" lon="0.72581">
        <ele>153</ele>
        <time>2012-02-19T09:26:56Z</time>
      </trkpt>
      <trkpt lat="44.5783" lon="0.72578">
        <ele>152</ele>
        <time>2012-02-19T09:26:57Z</time>
      </trkpt>
      <trkpt lat="44.57832" lon="0.72574">
        <ele>152</ele>
        <time>2012-02-19T09:26:58Z</time>
      </trkpt>
      <trkpt lat="44.57834" lon="0.72568">
        <ele>151</ele>
        <time>2012-02-19T09:26:59Z</time>
      </trkpt>
      <trkpt lat="44.57836" lon="0.72563">
        <ele>151</ele>
        <time>2012-02-19T09:27:00Z</time>
      </trkpt>
      <trkpt lat="44.57838" lon="0.72559">
        <ele>150</ele>
        <time>2012-02-19T09:27:01Z</time>
      </trkpt>
      <trkpt lat="44.5784" lon="0.72556">
        <ele>149</ele>
        <time>2012-02-19T09:27:02Z</time>
      </trkpt>
      <trkpt lat="44.57843" lon="0.72552">
        <ele>149</ele>
        <time>2012-02-19T09:27:03Z</time>
      </trkpt>
      <trkpt lat="44.57845" lon="0.72549">
        <ele>149</ele>
        <time>2012-02-19T09:27:04Z</time>
      </trkpt>
      <trkpt lat="44.57846" lon="0.72543">
        <ele>148</ele>
        <time>2012-02-19T09:27:05Z</time>
      </trkpt>
      <trkpt lat="44.57848" lon="0.72537">
        <ele>148</ele>
        <time>2012-02-19T09:27:06Z</time>
      </trkpt>
      <trkpt lat="44.57848" lon="0.72531">
        <ele>147</ele>
        <time>2012-02-19T09:27:07Z</time>
      </trkpt>
      <trkpt lat="44.57847" lon="0.72524">
        <ele>147</ele>
        <time>2012-02-19T09:27:08Z</time>
      </trkpt>
      <trkpt lat="44.57845" lon="0.72518">
        <ele>146</ele>
        <time>2012-02-19T09:27:09Z</time>
      </trkpt>
      <trkpt lat="44.57843" lon="0.72513">
        <ele>146</ele>
        <time>2012-02-19T09:27:10Z</time>
      </trkpt>
      <trkpt lat="44.57841" lon="0.7251">
        <ele>146</ele>
        <time>2012-02-19T09:27:11Z</time>
      </trkpt>
      <trkpt lat="44.57839" lon="0.72507">
        <ele>145</ele>
        <time>2012-02-19T09:27:12Z</time>
      </trkpt>
      <trkpt lat="44.57837" lon="0.72504">
        <ele>145</ele>
        <time>2012-02-19T09:27:13Z</time>
      </trkpt>
      <trkpt lat="44.57834" lon="0.72501">
        <ele>145</ele>
        <time>2012-02-19T09:27:14Z</time>
      </trkpt>
      <trkpt lat="44.57832" lon="0.72497">
        <ele>144</ele>
        <time>2012-02-19T09:27:15Z</time>
      </trkpt>
      <trkpt lat="44.5783" lon="0.72493">
        <ele>144</ele>
        <time>2012-02-19T09:27:16Z</time>
      </trkpt>
      <trkpt lat="44.57827" lon="0.72488">
        <ele>143</ele>
        <time>2012-02-19T09:27:17Z</time>
      </trkpt>
      <trkpt lat="44.57825" lon="0.72483">
        <ele>143</ele>
        <time>2012-02-19T09:27:18Z</time>
      </trkpt>
      <trkpt lat="44.57822" lon="0.72478">
        <ele>142</ele>
        <time>2012-02-19T09:27:19Z</time>
      </trkpt>
      <trkpt lat="44.5782" lon="0.72472">
        <ele>141</ele>
        <time>2012-02-19T09:27:20Z</time>
      </trkpt>
      <trkpt lat="44.57818" lon="0.72466">
        <ele>141</ele>
        <time>2012-02-19T09:27:21Z</time>
      </trkpt>
      <trkpt lat="44.57816" lon="0.72461">
        <ele>140</ele>
        <time>2012-02-19T09:27:22Z</time>
      </trkpt>
      <trkpt lat="44.57815" lon="0.72455">
        <ele>140</ele>
        <time>2012-02-19T09:27:23Z</time>
      </trkpt>
      <trkpt lat="44.57816" lon="0.72449">
        <ele>140</ele>
        <time>2012-02-19T09:27:24Z</time>
      </trkpt>
      <trkpt lat="44.57817" lon="0.72444">
        <ele>140</ele>
        <time>2012-02-19T09:27:25Z</time>
      </trkpt>
      <trkpt lat="44.57818" lon="0.72439">
        <ele>139</ele>
        <time>2012-02-19T09:27:26Z</time>
      </trkpt>
      <trkpt lat="44.57819" lon="0.72433">
        <ele>139</ele>
        <time>2012-02-19T09:27:27Z</time>
      </trkpt>
      <trkpt lat="44.57821" lon="0.72428">
        <ele>139</ele>
        <time>2012-02-19T09:27:28Z</time>
      </trkpt>
      <trkpt lat="44.57822" lon="0.72422">
        <ele>139</ele>
        <time>2012-02-19T09:27:29Z</time>
      </trkpt>
      <trkpt lat="44.57822" lon="0.72415">
        <ele>139</ele>
        <time>2012-02-19T09:27:30Z</time>
      </trkpt>
      <trkpt lat="44.57824" lon="0.72409">
        <ele>139</ele>
        <time>2012-02-19T09:27:31Z</time>
      </trkpt>
      <trkpt lat="44.57825" lon="0.72403">
        <ele>139</ele>
        <time>2012-02-19T09:27:32Z</time>
      </trkpt>
      <trkpt lat="44.57827" lon="0.72397">
        <ele>138</ele>
        <time>2012-02-19T09:27:33Z</time>
      </trkpt>
      <trkpt lat="44.57828" lon="0.72391">
        <ele>138</ele>
        <time>2012-02-19T09:27:34Z</time>
      </trkpt>
      <trkpt lat="44.5783" lon="0.72385">
        <ele>138</ele>
        <time>2012-02-19T09:27:35Z</time>
      </trkpt>
      <trkpt lat="44.57832" lon="0.72379">
        <ele>138</ele>
        <time>2012-02-19T09:27:36Z</time>
      </trkpt>
      <trkpt lat="44.57833" lon="0.72373">
        <ele>137</ele>
        <time>2012-02-19T09:27:37Z</time>
      </trkpt>
      <trkpt lat="44.57834" lon="0.72367">
        <ele>137</ele>
        <time>2012-02-19T09:27:38Z</time>
      </trkpt>
      <trkpt lat="44.57835" lon="0.72361">
        <ele>137</ele>
        <time>2012-02-19T09:27:39Z</time>
      </trkpt>
      <trkpt lat="44.57836" lon="0.72356">
        <ele>137</ele>
        <time>2012-02-19T09:27:40Z</time>
      </trkpt>
      <trkpt lat="44.57835" lon="0.7235">
        <ele>137</ele>
        <time>2012-02-19T09:27:41Z</time>
      </trkpt>
      <trkpt lat="44.57834" lon="0.72344">
        <ele>137</ele>
        <time>2012-02-19T09:27:42Z</time>
      </trkpt>
      <trkpt lat="44.57831" lon="0.72339">
        <ele>136</ele>
        <time>2012-02-19T09:27:43Z</time>
      </trkpt>
      <trkpt lat="44.57828" lon="0.72335">
        <ele>136</ele>
        <time>2012-02-19T09:27:44Z</time>
      </trkpt>
      <trkpt lat="44.57824" lon="0.72332">
        <ele>136</ele>
        <time>2012-02-19T09:27:45Z</time>
      </trkpt>
      <trkpt lat="44.5782" lon="0.72328">
        <ele>136</ele>
        <time>2012-02-19T09:27:46Z</time>
      </trkpt>
      <trkpt lat="44.57816" lon="0.72325">
        <ele>135</ele>
        <time>2012-02-19T09:27:47Z</time>
      </trkpt>
      <trkpt lat="44.57813" lon="0.72323">
        <ele>135</ele>
        <time>2012-02-19T09:27:48Z</time>
      </trkpt>
      <trkpt lat="44.57809" lon="0.7232">
        <ele>135</ele>
        <time>2012-02-19T09:27:49Z</time>
      </trkpt>
      <trkpt lat="44.57806" lon="0.72317">
        <ele>134</ele>
        <time>2012-02-19T09:27:50Z</time>
      </trkpt>
      <trkpt lat="44.57803" lon="0.72313">
        <ele>134</ele>
        <time>2012-02-19T09:27:51Z</time>
      </trkpt>
      <trkpt lat="44.57799" lon="0.7231">
        <ele>133</ele>
        <time>2012-02-19T09:27:52Z</time>
      </trkpt>
      <trkpt lat="44.57795" lon="0.72307">
        <ele>132</ele>
        <time>2012-02-19T09:27:53Z</time>
      </trkpt>
      <trkpt lat="44.57792" lon="0.72304">
        <ele>132</ele>
        <time>2012-02-19T09:27:54Z</time>
      </trkpt>
      <trkpt lat="44.57788" lon="0.72302">
        <ele>132</ele>
        <time>2012-02-19T09:27:55Z</time>
      </trkpt>
      <trkpt lat="44.57785" lon="0.72299">
        <ele>131</ele>
        <time>2012-02-19T09:27:56Z</time>
      </trkpt>
      <trkpt lat="44.57781" lon="0.72296">
        <ele>131</ele>
        <time>2012-02-19T09:27:57Z</time>
      </trkpt>
      <trkpt lat="44.57777" lon="0.72293">
        <ele>131</ele>
        <time>2012-02-19T09:27:58Z</time>
      </trkpt>
      <trkpt lat="44.57774" lon="0.7229">
        <ele>130</ele>
        <time>2012-02-19T09:27:59Z</time>
      </trkpt>
      <trkpt lat="44.57771" lon="0.72288">
        <ele>130</ele>
        <time>2012-02-19T09:28:00Z</time>
      </trkpt>
      <trkpt lat="44.57769" lon="0.72285">
        <ele>129</ele>
        <time>2012-02-19T09:28:01Z</time>
      </trkpt>
      <trkpt lat="44.57768" lon="0.72282">
        <ele>129</ele>
        <time>2012-02-19T09:28:02Z</time>
      </trkpt>
      <trkpt lat="44.57766" lon="0.72278">
        <ele>129</ele>
        <time>2012-02-19T09:28:03Z</time>
      </trkpt>
      <trkpt lat="44.57766" lon="0.72274">
        <ele>128</ele>
        <time>2012-02-19T09:28:04Z</time>
      </trkpt>
      <trkpt lat="44.57765" lon="0.72269">
        <ele>128</ele>
        <time>2012-02-19T09:28:05Z</time>
      </trkpt>
      <trkpt lat="44.57765" lon="0.72264">
        <ele>128</ele>
        <time>2012-02-19T09:28:06Z</time>
      </trkpt>
      <trkpt lat="44.57766" lon="0.72258">
        <ele>128</ele>
        <time>2012-02-19T09:28:07Z</time>
      </trkpt>
      <trkpt lat="44.57766" lon="0.72251">
        <ele>128</ele>
        <time>2012-02-19T09:28:08Z</time>
      </trkpt>
      <trkpt lat="44.57767" lon="0.72245">
        <ele>128</ele>
        <time>2012-02-19T09:28:09Z</time>
      </trkpt>
      <trkpt lat="44.57767" lon="0.72238">
        <ele>128</ele>
        <time>2012-02-19T09:28:10Z</time>
      </trkpt>
      <trkpt lat="44.57768" lon="0.72232">
        <ele>128</ele>
        <time>2012-02-19T09:28:11Z</time>
      </trkpt>
      <trkpt lat="44.57769" lon="0.72226">
        <ele>128</ele>
        <time>2012-02-19T09:28:12Z</time>
      </trkpt>
      <trkpt lat="44.5777" lon="0.7222">
        <ele>128</ele>
        <time>2012-02-19T09:28:13Z</time>
      </trkpt>
      <trkpt lat="44.57771" lon="0.72213">
        <ele>128</ele>
        <time>2012-02-19T09:28:14Z</time>
      </trkpt>
      <trkpt lat="44.57772" lon="0.72207">
        <ele>128</ele>
        <time>2012-02-19T09:28:15Z</time>
      </trkpt>
      <trkpt lat="44.57773" lon="0.72201">
        <ele>127</ele>
        <time>2012-02-19T09:28:16Z</time>
      </trkpt>
      <trkpt lat="44.57774" lon="0.72195">
        <ele>127</ele>
        <time>2012-02-19T09:28:17Z</time>
      </trkpt>
      <trkpt lat="44.57774" lon="0.72189">
        <ele>127</ele>
        <time>2012-02-19T09:28:18Z</time>
      </trkpt>
      <trkpt lat="44.57775" lon="0.72183">
        <ele>127</ele>
        <time>2012-02-19T09:28:19Z</time>
      </trkpt>
      <trkpt lat="44.57776" lon="0.72176">
        <ele>127</ele>
        <time>2012-02-19T09:28:20Z</time>
      </trkpt>
      <trkpt lat="44.57777" lon="0.7217">
        <ele>126</ele>
        <time>2012-02-19T09:28:21Z</time>
      </trkpt>
      <trkpt lat="44.57778" lon="0.72163">
        <ele>126</ele>
        <time>2012-02-19T09:28:22Z</time>
      </trkpt>
      <trkpt lat="44.57779" lon="0.72157">
        <ele>126</ele>
        <time>2012-02-19T09:28:23Z</time>
      </trkpt>
      <trkpt lat="44.5778" lon="0.7215">
        <ele>126</ele>
        <time>2012-02-19T09:28:24Z</time>
      </trkpt>
      <trkpt lat="44.5778" lon="0.72144">
        <ele>126</ele>
        <time>2012-02-19T09:28:25Z</time>
      </trkpt>
      <trkpt lat="44.57781" lon="0.72137">
        <ele>126</ele>
        <time>2012-02-19T09:28:26Z</time>
      </trkpt>
      <trkpt lat="44.57781" lon="0.72131">
        <ele>125</ele>
        <time>2012-02-19T09:28:27Z</time>
      </trkpt>
      <trkpt lat="44.57782" lon="0.72125">
        <ele>125</ele>
        <time>2012-02-19T09:28:28Z</time>
      </trkpt>
      <trkpt lat="44.57783" lon="0.72118">
        <ele>125</ele>
        <time>2012-02-19T09:28:29Z</time>
      </trkpt>
      <trkpt lat="44.57784" lon="0.72112">
        <ele>125</ele>
        <time>2012-02-19T09:28:30Z</time>
      </trkpt>
      <trkpt lat="44.57785" lon="0.72105">
        <ele>125</ele>
        <time>2012-02-19T09:28:31Z</time>
      </trkpt>
      <trkpt lat="44.57786" lon="0.72099">
        <ele>125</ele>
        <time>2012-02-19T09:28:32Z</time>
      </trkpt>
      <trkpt lat="44.57787" lon="0.72093">
        <ele>125</ele>
        <time>2012-02-19T09:28:33Z</time>
      </trkpt>
      <trkpt lat="44.57787" lon="0.72087">
        <ele>125</ele>
        <time>2012-02-19T09:28:34Z</time>
      </trkpt>
      <trkpt lat="44.57788" lon="0.72081">
        <ele>125</ele>
        <time>2012-02-19T09:28:35Z</time>
      </trkpt>
      <trkpt lat="44.57789" lon="0.72075">
        <ele>125</ele>
        <time>2012-02-19T09:28:36Z</time>
      </trkpt>
      <trkpt lat="44.5779" lon="0.72069">
        <ele>125</ele>
        <time>2012-02-19T09:28:37Z</time>
      </trkpt>
      <trkpt lat="44.57791" lon="0.72063">
        <ele>125</ele>
        <time>2012-02-19T09:28:38Z</time>
      </trkpt>
      <trkpt lat="44.57792" lon="0.72057">
        <ele>125</ele>
        <time>2012-02-19T09:28:39Z</time>
      </trkpt>
      <trkpt lat="44.57793" lon="0.72052">
        <ele>125</ele>
        <time>2012-02-19T09:28:40Z</time>
      </trkpt>
      <trkpt lat="44.57793" lon="0.72047">
        <ele>125</ele>
        <time>2012-02-19T09:28:41Z</time>
      </trkpt>
      <trkpt lat="44.57794" lon="0.72042">
        <ele>125</ele>
        <time>2012-02-19T09:28:42Z</time>
      </trkpt>
      <trkpt lat="44.57795" lon="0.72037">
        <ele>125</ele>
        <time>2012-02-19T09:28:43Z</time>
      </trkpt>
      <trkpt lat="44.57795" lon="0.72032">
        <ele>125</ele>
        <time>2012-02-19T09:28:44Z</time>
      </trkpt>
      <trkpt lat="44.57795" lon="0.72028">
        <ele>125</ele>
        <time>2012-02-19T09:28:45Z</time>
      </trkpt>
      <trkpt lat="44.57796" lon="0.72025">
        <ele>125</ele>
        <time>2012-02-19T09:28:46Z</time>
      </trkpt>
      <trkpt lat="44.57796" lon="0.72021">
        <ele>125</ele>
        <time>2012-02-19T09:28:47Z</time>
      </trkpt>
      <trkpt lat="44.57797" lon="0.72018">
        <ele>125</ele>
        <time>2012-02-19T09:28:48Z</time>
      </trkpt>
      <trkpt lat="44.57797" lon="0.72016">
        <ele>125</ele>
        <time>2012-02-19T09:28:49Z</time>
      </trkpt>
      <trkpt lat="44.57797" lon="0.72014">
        <ele>125</ele>
        <time>2012-02-19T09:28:50Z</time>
      </trkpt>
      <trkpt lat="44.57797" lon="0.72011">
        <ele>125</ele>
        <time>2012-02-19T09:28:51Z</time>
      </trkpt>
      <trkpt lat="44.57797" lon="0.72009">
        <ele>125</ele>
        <time>2012-02-19T09:28:52Z</time>
      </trkpt>
      <trkpt lat="44.57797" lon="0.72006">
        <ele>125</ele>
        <time>2012-02-19T09:28:53Z</time>
      </trkpt>
      <trkpt lat="44.57797" lon="0.72003">
        <ele>125</ele>
        <time>2012-02-19T09:28:54Z</time>
      </trkpt>
      <trkpt lat="44.57797" lon="0.72">
        <ele>125</ele>
        <time>2012-02-19T09:28:55Z</time>
      </trkpt>
      <trkpt lat="44.57797" lon="0.71997">
        <ele>125</ele>
        <time>2012-02-19T09:28:56Z</time>
      </trkpt>
      <trkpt lat="44.57797" lon="0.71993">
        <ele>125</ele>
        <time>2012-02-19T09:28:57Z</time>
      </trkpt>
      <trkpt lat="44.57798" lon="0.71989">
        <ele>125</ele>
        <time>2012-02-19T09:28:58Z</time>
      </trkpt>
      <trkpt lat="44.57798" lon="0.71985">
        <ele>125</ele>
        <time>2012-02-19T09:28:59Z</time>
      </trkpt>
      <trkpt lat="44.57799" lon="0.71981">
        <ele>125</ele>
        <time>2012-02-19T09:29:00Z</time>
      </trkpt>
      <trkpt lat="44.57799" lon="0.71977">
        <ele>125</ele>
        <time>2012-02-19T09:29:01Z</time>
      </trkpt>
      <trkpt lat="44.578" lon="0.71973">
        <ele>125</ele>
        <time>2012-02-19T09:29:02Z</time>
      </trkpt>
      <trkpt lat="44.578" lon="0.71969">
        <ele>125</ele>
        <time>2012-02-19T09:29:03Z</time>
      </trkpt>
      <trkpt lat="44.578" lon="0.71965">
        <ele>125</ele>
        <time>2012-02-19T09:29:04Z</time>
      </trkpt>
      <trkpt lat="44.578" lon="0.71962">
        <ele>125</ele>
        <time>2012-02-19T09:29:05Z</time>
      </trkpt>
      <trkpt lat="44.57801" lon="0.71959">
        <ele>125</ele>
        <time>2012-02-19T09:29:06Z</time>
      </trkpt>
      <trkpt lat="44.57801" lon="0.71956">
        <ele>125</ele>
        <time>2012-02-19T09:29:07Z</time>
      </trkpt>
      <trkpt lat="44.57801" lon="0.71953">
        <ele>125</ele>
        <time>2012-02-19T09:29:08Z</time>
      </trkpt>
      <trkpt lat="44.57802" lon="0.7195">
        <ele>125</ele>
        <time>2012-02-19T09:29:09Z</time>
      </trkpt>
      <trkpt lat="44.57802" lon="0.71947">
        <ele>125</ele>
        <time>2012-02-19T09:29:10Z</time>
      </trkpt>
      <trkpt lat="44.57803" lon="0.71944">
        <ele>125</ele>
        <time>2012-02-19T09:29:11Z</time>
      </trkpt>
      <trkpt lat="44.57803" lon="0.71941">
        <ele>125</ele>
        <time>2012-02-19T09:29:12Z</time>
      </trkpt>
      <trkpt lat="44.57803" lon="0.71937">
        <ele>125</ele>
        <time>2012-02-19T09:29:13Z</time>
      </trkpt>
      <trkpt lat="44.57804" lon="0.71934">
        <ele>125</ele>
        <time>2012-02-19T09:29:14Z</time>
      </trkpt>
      <trkpt lat="44.57804" lon="0.7193">
        <ele>125</ele>
        <time>2012-02-19T09:29:15Z</time>
      </trkpt>
      <trkpt lat="44.57804" lon="0.71926">
        <ele>125</ele>
        <time>2012-02-19T09:29:16Z</time>
      </trkpt>
      <trkpt lat="44.57804" lon="0.71923">
        <ele>125</ele>
        <time>2012-02-19T09:29:17Z</time>
      </trkpt>
      <trkpt lat="44.57805" lon="0.7192">
        <ele>125</ele>
        <time>2012-02-19T09:29:18Z</time>
      </trkpt>
      <trkpt lat="44.57806" lon="0.71916">
        <ele>125</ele>
        <time>2012-02-19T09:29:19Z</time>
      </trkpt>
      <trkpt lat="44.57806" lon="0.71912">
        <ele>125</ele>
        <time>2012-02-19T09:29:20Z</time>
      </trkpt>
      <trkpt lat="44.57807" lon="0.71909">
        <ele>125</ele>
        <time>2012-02-19T09:29:21Z</time>
      </trkpt>
      <trkpt lat="44.57807" lon="0.71905">
        <ele>125</ele>
        <time>2012-02-19T09:29:22Z</time>
      </trkpt>
      <trkpt lat="44.57808" lon="0.71902">
        <ele>125</ele>
        <time>2012-02-19T09:29:23Z</time>
      </trkpt>
      <trkpt lat="44.57809" lon="0.71898">
        <ele>125</ele>
        <time>2012-02-19T09:29:24Z</time>
      </trkpt>
      <trkpt lat="44.57809" lon="0.71894">
        <ele>124</ele>
        <time>2012-02-19T09:29:25Z</time>
      </trkpt>
      <trkpt lat="44.5781" lon="0.71891">
        <ele>124</ele>
        <time>2012-02-19T09:29:26Z</time>
      </trkpt>
      <trkpt lat="44.5781" lon="0.71887">
        <ele>124</ele>
        <time>2012-02-19T09:29:27Z</time>
      </trkpt>
      <trkpt lat="44.57811" lon="0.71884">
        <ele>124</ele>
        <time>2012-02-19T09:29:28Z</time>
      </trkpt>
      <trkpt lat="44.57811" lon="0.71881">
        <ele>124</ele>
        <time>2012-02-19T09:29:29Z</time>
      </trkpt>
      <trkpt lat="44.57812" lon="0.71877">
        <ele>124</ele>
        <time>2012-02-19T09:29:30Z</time>
      </trkpt>
      <trkpt lat="44.57812" lon="0.71874">
        <ele>124</ele>
        <time>2012-02-19T09:29:31Z</time>
      </trkpt>
      <trkpt lat="44.57813" lon="0.71871">
        <ele>124</ele>
        <time>2012-02-19T09:29:32Z</time>
      </trkpt>
      <trkpt lat="44.57813" lon="0.71868">
        <ele>124</ele>
        <time>2012-02-19T09:29:33Z</time>
      </trkpt>
      <trkpt lat="44.57814" lon="0.71865">
        <ele>124</ele>
        <time>2012-02-19T09:29:34Z</time>
      </trkpt>
      <trkpt lat="44.57814" lon="0.71862">
        <ele>124</ele>
        <time>2012-02-19T09:29:35Z</time>
      </trkpt>
      <trkpt lat="44.57814" lon="0.71859">
        <ele>124</ele>
        <time>2012-02-19T09:29:36Z</time>
      </trkpt>
      <trkpt lat="44.57814" lon="0.71856">
        <ele>124</ele>
        <time>2012-02-19T09:29:37Z</time>
      </trkpt>
      <trkpt lat="44.57815" lon="0.71853">
        <ele>124</ele>
        <time>2012-02-19T09:29:38Z</time>
      </trkpt>
      <trkpt lat="44.57815" lon="0.7185">
        <ele>124</ele>
        <time>2012-02-19T09:29:39Z</time>
      </trkpt>
      <trkpt lat="44.57816" lon="0.71847">
        <ele>124</ele>
        <time>2012-02-19T09:29:40Z</time>
      </trkpt>
      <trkpt lat="44.57816" lon="0.71844">
        <ele>123</ele>
        <time>2012-02-19T09:29:41Z</time>
      </trkpt>
      <trkpt lat="44.57817" lon="0.71842">
        <ele>123</ele>
        <time>2012-02-19T09:29:42Z</time>
      </trkpt>
      <trkpt lat="44.57817" lon="0.7184">
        <ele>123</ele>
        <time>2012-02-19T09:29:43Z</time>
      </trkpt>
      <trkpt lat="44.57817" lon="0.71838">
        <ele>123</ele>
        <time>2012-02-19T09:29:44Z</time>
      </trkpt>
      <trkpt lat="44.57818" lon="0.71836">
        <ele>123</ele>
        <time>2012-02-19T09:29:45Z</time>
      </trkpt>
      <trkpt lat="44.57818" lon="0.71833">
        <ele>123</ele>
        <time>2012-02-19T09:29:46Z</time>
      </trkpt>
      <trkpt lat="44.57818" lon="0.71831">
        <ele>123</ele>
        <time>2012-02-19T09:29:47Z</time>
      </trkpt>
      <trkpt lat="44.57819" lon="0.71828">
        <ele>123</ele>
        <time>2012-02-19T09:29:48Z</time>
      </trkpt>
      <trkpt lat="44.57819" lon="0.71826">
        <ele>122</ele>
        <time>2012-02-19T09:29:49Z</time>
      </trkpt>
      <trkpt lat="44.5782" lon="0.71823">
        <ele>122</ele>
        <time>2012-02-19T09:29:50Z</time>
      </trkpt>
      <trkpt lat="44.5782" lon="0.71821">
        <ele>122</ele>
        <time>2012-02-19T09:29:51Z</time>
      </trkpt>
      <trkpt lat="44.57821" lon="0.71818">
        <ele>122</ele>
        <time>2012-02-19T09:29:52Z</time>
      </trkpt>
      <trkpt lat="44.57821" lon="0.71815">
        <ele>122</ele>
        <time>2012-02-19T09:29:53Z</time>
      </trkpt>
      <trkpt lat="44.57822" lon="0.71813">
        <ele>122</ele>
        <time>2012-02-19T09:29:54Z</time>
      </trkpt>
      <trkpt lat="44.57822" lon="0.71811">
        <ele>122</ele>
        <time>2012-02-19T09:29:55Z</time>
      </trkpt>
      <trkpt lat="44.57823" lon="0.71808">
        <ele>122</ele>
        <time>2012-02-19T09:29:56Z</time>
      </trkpt>
      <trkpt lat="44.57823" lon="0.71806">
        <ele>122</ele>
        <time>2012-02-19T09:29:57Z</time>
      </trkpt>
      <trkpt lat="44.57823" lon="0.71803">
        <ele>122</ele>
        <time>2012-02-19T09:29:58Z</time>
      </trkpt>
      <trkpt lat="44.57824" lon="0.71801">
        <ele>122</ele>
        <time>2012-02-19T09:29:59Z</time>
      </trkpt>
      <trkpt lat="44.57824" lon="0.71798">
        <ele>122</ele>
        <time>2012-02-19T09:30:00Z</time>
      </trkpt>
      <trkpt lat="44.57825" lon="0.71796">
        <ele>122</ele>
        <time>2012-02-19T09:30:01Z</time>
      </trkpt>
      <trkpt lat="44.57825" lon="0.71794">
        <ele>122</ele>
        <time>2012-02-19T09:30:02Z</time>
      </trkpt>
      <trkpt lat="44.57826" lon="0.71793">
        <ele>122</ele>
        <time>2012-02-19T09:30:06Z</time>
      </trkpt>
      <trkpt lat="44.57825" lon="0.71794">
        <ele>122</ele>
        <time>2012-02-19T09:30:10Z</time>
      </trkpt>
      <trkpt lat="44.57826" lon="0.71792">
        <ele>122</ele>
        <time>2012-02-19T09:30:21Z</time>
      </trkpt>
      <trkpt lat="44.57826" lon="0.7179">
        <ele>123</ele>
        <time>2012-02-19T09:30:23Z</time>
      </trkpt>
      <trkpt lat="44.57826" lon="0.71789">
        <ele>125</ele>
        <time>2012-02-19T09:30:27Z</time>
      </trkpt>
      <trkpt lat="44.57825" lon="0.71787">
        <ele>126</ele>
        <time>2012-02-19T09:30:33Z</time>
      </trkpt>
      <trkpt lat="44.57826" lon="0.71785">
        <ele>126</ele>
        <time>2012-02-19T09:30:43Z</time>
      </trkpt>
      <trkpt lat="44.57827" lon="0.71785">
        <ele>126</ele>
        <time>2012-02-19T09:30:51Z</time>
      </trkpt>
      <trkpt lat="44.57828" lon="0.71784">
        <ele>126</ele>
        <time>2012-02-19T09:30:55Z</time>
      </trkpt>
      <trkpt lat="44.57828" lon="0.71782">
        <ele>127</ele>
        <time>2012-02-19T09:30:59Z</time>
      </trkpt>
      <trkpt lat="44.57826" lon="0.71783">
        <ele>127</ele>
        <time>2012-02-19T09:31:02Z</time>
      </trkpt>
      <trkpt lat="44.57825" lon="0.71784">
        <ele>127</ele>
        <time>2012-02-19T09:31:12Z</time>
      </trkpt>
      <trkpt lat="44.57825" lon="0.71782">
        <ele>126</ele>
        <time>2012-02-19T09:31:21Z</time>
      </trkpt>
      <trkpt lat="44.57825" lon="0.71783">
        <ele>124</ele>
        <time>2012-02-19T09:31:30Z</time>
      </trkpt>
      <trkpt lat="44.57825" lon="0.71782">
        <ele>124</ele>
        <time>2012-02-19T09:31:38Z</time>
      </trkpt>
      <trkpt lat="44.57825" lon="0.7178">
        <ele>124</ele>
        <time>2012-02-19T09:31:40Z</time>
      </trkpt>
      <trkpt lat="44.57826" lon="0.71781">
        <ele>124</ele>
        <time>2012-02-19T09:32:00Z</time>
      </trkpt>
      <trkpt lat="44.57826" lon="0.7178">
        <ele>124</ele>
        <time>2012-02-19T09:32:16Z</time>
      </trkpt>
      <trkpt lat="44.57826" lon="0.71781">
        <ele>124</ele>
        <time>2012-02-19T09:32:19Z</time>
      </trkpt>
      <trkpt lat="44.57826" lon="0.71779">
        <ele>124</ele>
        <time>2012-02-19T09:32:29Z</time>
      </trkpt>
      <trkpt lat="44.57827" lon="0.71777">
        <ele>124</ele>
        <time>2012-02-19T09:32:31Z</time>
      </trkpt>
      <trkpt lat="44.57827" lon="0.71776">
        <ele>124</ele>
        <time>2012-02-19T09:32:33Z</time>
      </trkpt>
      <trkpt lat="44.57828" lon="0.71774">
        <ele>124</ele>
        <time>2012-02-19T09:32:42Z</time>
      </trkpt>
      <trkpt lat="44.57829" lon="0.71774">
        <ele>124</ele>
        <time>2012-02-19T09:32:45Z</time>
      </trkpt>
      <trkpt lat="44.5783" lon="0.71773">
        <ele>124</ele>
        <time>2012-02-19T09:32:56Z</time>
      </trkpt>
      <trkpt lat="44.57829" lon="0.71772">
        <ele>124</ele>
        <time>2012-02-19T09:33:42Z</time>
      </trkpt>
      <trkpt lat="44.5783" lon="0.7177">
        <ele>124</ele>
        <time>2012-02-19T09:33:47Z</time>
      </trkpt>
      <trkpt lat="44.57831" lon="0.71768">
        <ele>124</ele>
        <time>2012-02-19T09:33:49Z</time>
      </trkpt>
      <trkpt lat="44.57832" lon="0.71767">
        <ele>124</ele>
        <time>2012-02-19T09:33:51Z</time>
      </trkpt>
      <trkpt lat="44.57834" lon="0.71766">
        <ele>123</ele>
        <time>2012-02-19T09:33:59Z</time>
      </trkpt>
      <trkpt lat="44.57835" lon="0.71767">
        <ele>123</ele>
        <time>2012-02-19T09:34:08Z</time>
      </trkpt>
      <trkpt lat="44.57837" lon="0.71767">
        <ele>123</ele>
        <time>2012-02-19T09:34:10Z</time>
      </trkpt>
      <trkpt lat="44.57839" lon="0.71766">
        <ele>123</ele>
        <time>2012-02-19T09:34:12Z</time>
      </trkpt>
      <trkpt lat="44.5784" lon="0.71766">
        <ele>123</ele>
        <time>2012-02-19T09:34:14Z</time>
      </trkpt>
      <trkpt lat="44.57842" lon="0.71766">
        <ele>123</ele>
        <time>2012-02-19T09:34:15Z</time>
      </trkpt>
      <trkpt lat="44.57843" lon="0.71767">
        <ele>123</ele>
        <time>2012-02-19T09:34:16Z</time>
      </trkpt>
      <trkpt lat="44.57844" lon="0.71768">
        <ele>123</ele>
        <time>2012-02-19T09:34:18Z</time>
      </trkpt>
      <trkpt lat="44.57846" lon="0.7177">
        <ele>123</ele>
        <time>2012-02-19T09:34:20Z</time>
      </trkpt>
      <trkpt lat="44.57848" lon="0.71771">
        <ele>123</ele>
        <time>2012-02-19T09:34:22Z</time>
      </trkpt>
      <trkpt lat="44.5785" lon="0.71772">
        <ele>123</ele>
        <time>2012-02-19T09:34:23Z</time>
      </trkpt>
      <trkpt lat="44.57851" lon="0.71772">
        <ele>123</ele>
        <time>2012-02-19T09:34:24Z</time>
      </trkpt>
      <trkpt lat="44.57852" lon="0.71772">
        <ele>123</ele>
        <time>2012-02-19T09:34:25Z</time>
      </trkpt>
      <trkpt lat="44.57853" lon="0.71773">
        <ele>123</ele>
        <time>2012-02-19T09:34:26Z</time>
      </trkpt>
      <trkpt lat="44.57854" lon="0.71773">
        <ele>123</ele>
        <time>2012-02-19T09:34:27Z</time>
      </trkpt>
      <trkpt lat="44.57856" lon="0.71773">
        <ele>123</ele>
        <time>2012-02-19T09:34:28Z</time>
      </trkpt>
      <trkpt lat="44.57857" lon="0.71773">
        <ele>123</ele>
        <time>2012-02-19T09:34:29Z</time>
      </trkpt>
      <trkpt lat="44.57858" lon="0.71773">
        <ele>123</ele>
        <time>2012-02-19T09:34:30Z</time>
      </trkpt>
      <trkpt lat="44.57859" lon="0.71773">
        <ele>123</ele>
        <time>2012-02-19T09:34:31Z</time>
      </trkpt>
      <trkpt lat="44.57861" lon="0.71773">
        <ele>123</ele>
        <time>2012-02-19T09:34:32Z</time>
      </trkpt>
      <trkpt lat="44.57862" lon="0.71772">
        <ele>123</ele>
        <time>2012-02-19T09:34:33Z</time>
      </trkpt>
      <trkpt lat="44.57863" lon="0.71772">
        <ele>123</ele>
        <time>2012-02-19T09:34:34Z</time>
      </trkpt>
      <trkpt lat="44.57864" lon="0.71771">
        <ele>123</ele>
        <time>2012-02-19T09:34:35Z</time>
      </trkpt>
      <trkpt lat="44.57866" lon="0.71769">
        <ele>123</ele>
        <time>2012-02-19T09:34:37Z</time>
      </trkpt>
      <trkpt lat="44.57868" lon="0.71766">
        <ele>123</ele>
        <time>2012-02-19T09:34:39Z</time>
      </trkpt>
      <trkpt lat="44.5787" lon="0.71763">
        <ele>123</ele>
        <time>2012-02-19T09:34:41Z</time>
      </trkpt>
      <trkpt lat="44.5787" lon="0.71762">
        <ele>123</ele>
        <time>2012-02-19T09:34:42Z</time>
      </trkpt>
      <trkpt lat="44.57871" lon="0.7176">
        <ele>123</ele>
        <time>2012-02-19T09:34:43Z</time>
      </trkpt>
      <trkpt lat="44.57871" lon="0.71759">
        <ele>123</ele>
        <time>2012-02-19T09:34:44Z</time>
      </trkpt>
      <trkpt lat="44.57872" lon="0.71757">
        <ele>123</ele>
        <time>2012-02-19T09:34:45Z</time>
      </trkpt>
      <trkpt lat="44.57872" lon="0.71755">
        <ele>123</ele>
        <time>2012-02-19T09:34:46Z</time>
      </trkpt>
      <trkpt lat="44.57873" lon="0.71754">
        <ele>123</ele>
        <time>2012-02-19T09:34:47Z</time>
      </trkpt>
      <trkpt lat="44.57873" lon="0.71752">
        <ele>123</ele>
        <time>2012-02-19T09:34:48Z</time>
      </trkpt>
      <trkpt lat="44.57874" lon="0.71751">
        <ele>123</ele>
        <time>2012-02-19T09:34:49Z</time>
      </trkpt>
      <trkpt lat="44.57874" lon="0.71749">
        <ele>123</ele>
        <time>2012-02-19T09:34:50Z</time>
      </trkpt>
      <trkpt lat="44.57875" lon="0.71746">
        <ele>123</ele>
        <time>2012-02-19T09:34:52Z</time>
      </trkpt>
      <trkpt lat="44.57875" lon="0.71745">
        <ele>123</ele>
        <time>2012-02-19T09:34:53Z</time>
      </trkpt>
      <trkpt lat="44.57876" lon="0.71743">
        <ele>123</ele>
        <time>2012-02-19T09:34:54Z</time>
      </trkpt>
      <trkpt lat="44.57876" lon="0.71741">
        <ele>123</ele>
        <time>2012-02-19T09:34:55Z</time>
      </trkpt>
      <trkpt lat="44.57877" lon="0.7174">
        <ele>123</ele>
        <time>2012-02-19T09:34:56Z</time>
      </trkpt>
      <trkpt lat="44.57878" lon="0.71737">
        <ele>123</ele>
        <time>2012-02-19T09:34:58Z</time>
      </trkpt>
      <trkpt lat="44.57879" lon="0.71736">
        <ele>123</ele>
        <time>2012-02-19T09:34:59Z</time>
      </trkpt>
      <trkpt lat="44.57879" lon="0.71734">
        <ele>123</ele>
        <time>2012-02-19T09:35:00Z</time>
      </trkpt>
      <trkpt lat="44.5788" lon="0.71732">
        <ele>123</ele>
        <time>2012-02-19T09:35:01Z</time>
      </trkpt>
      <trkpt lat="44.5788" lon="0.71731">
        <ele>123</ele>
        <time>2012-02-19T09:35:02Z</time>
      </trkpt>
      <trkpt lat="44.57881" lon="0.71729">
        <ele>123</ele>
        <time>2012-02-19T09:35:03Z</time>
      </trkpt>
      <trkpt lat="44.57882" lon="0.71727">
        <ele>123</ele>
        <time>2012-02-19T09:35:04Z</time>
      </trkpt>
      <trkpt lat="44.57882" lon="0.71725">
        <ele>123</ele>
        <time>2012-02-19T09:35:05Z</time>
      </trkpt>
      <trkpt lat="44.57882" lon="0.71723">
        <ele>123</ele>
        <time>2012-02-19T09:35:06Z</time>
      </trkpt>
      <trkpt lat="44.57882" lon="0.71721">
        <ele>123</ele>
        <time>2012-02-19T09:35:07Z</time>
      </trkpt>
      <trkpt lat="44.57883" lon="0.7172">
        <ele>123</ele>
        <time>2012-02-19T09:35:08Z</time>
      </trkpt>
      <trkpt lat="44.57883" lon="0.71718">
        <ele>123</ele>
        <time>2012-02-19T09:35:09Z</time>
      </trkpt>
      <trkpt lat="44.57884" lon="0.71716">
        <ele>123</ele>
        <time>2012-02-19T09:35:10Z</time>
      </trkpt>
      <trkpt lat="44.57885" lon="0.71715">
        <ele>123</ele>
        <time>2012-02-19T09:35:11Z</time>
      </trkpt>
      <trkpt lat="44.57885" lon="0.71713">
        <ele>123</ele>
        <time>2012-02-19T09:35:12Z</time>
      </trkpt>
      <trkpt lat="44.57885" lon="0.71711">
        <ele>123</ele>
        <time>2012-02-19T09:35:13Z</time>
      </trkpt>
      <trkpt lat="44.57886" lon="0.71709">
        <ele>123</ele>
        <time>2012-02-19T09:35:14Z</time>
      </trkpt>
      <trkpt lat="44.57887" lon="0.71708">
        <ele>123</ele>
        <time>2012-02-19T09:35:15Z</time>
      </trkpt>
      <trkpt lat="44.57888" lon="0.71706">
        <ele>123</ele>
        <time>2012-02-19T09:35:17Z</time>
      </trkpt>
      <trkpt lat="44.57889" lon="0.71704">
        <ele>123</ele>
        <time>2012-02-19T09:35:23Z</time>
      </trkpt>
      <trkpt lat="44.57889" lon="0.71702">
        <ele>123</ele>
        <time>2012-02-19T09:35:24Z</time>
      </trkpt>
      <trkpt lat="44.5789" lon="0.71701">
        <ele>123</ele>
        <time>2012-02-19T09:35:25Z</time>
      </trkpt>
      <trkpt lat="44.5789" lon="0.71699">
        <ele>123</ele>
        <time>2012-02-19T09:35:26Z</time>
      </trkpt>
      <trkpt lat="44.5789" lon="0.71698">
        <ele>123</ele>
        <time>2012-02-19T09:35:27Z</time>
      </trkpt>
      <trkpt lat="44.57891" lon="0.71696">
        <ele>123</ele>
        <time>2012-02-19T09:35:28Z</time>
      </trkpt>
      <trkpt lat="44.57891" lon="0.71694">
        <ele>123</ele>
        <time>2012-02-19T09:35:29Z</time>
      </trkpt>
      <trkpt lat="44.57891" lon="0.71693">
        <ele>123</ele>
        <time>2012-02-19T09:35:30Z</time>
      </trkpt>
      <trkpt lat="44.57892" lon="0.71691">
        <ele>123</ele>
        <time>2012-02-19T09:35:31Z</time>
      </trkpt>
      <trkpt lat="44.57892" lon="0.7169">
        <ele>123</ele>
        <time>2012-02-19T09:35:32Z</time>
      </trkpt>
      <trkpt lat="44.57893" lon="0.71688">
        <ele>123</ele>
        <time>2012-02-19T09:35:33Z</time>
      </trkpt>
      <trkpt lat="44.57893" lon="0.71687">
        <ele>123</ele>
        <time>2012-02-19T09:35:34Z</time>
      </trkpt>
      <trkpt lat="44.57893" lon="0.71685">
        <ele>123</ele>
        <time>2012-02-19T09:35:36Z</time>
      </trkpt>
      <trkpt lat="44.57893" lon="0.71683">
        <ele>123</ele>
        <time>2012-02-19T09:35:38Z</time>
      </trkpt>
      <trkpt lat="44.57894" lon="0.7168">
        <ele>123</ele>
        <time>2012-02-19T09:35:40Z</time>
      </trkpt>
      <trkpt lat="44.57895" lon="0.71677">
        <ele>123</ele>
        <time>2012-02-19T09:35:42Z</time>
      </trkpt>
      <trkpt lat="44.57896" lon="0.71676">
        <ele>123</ele>
        <time>2012-02-19T09:35:45Z</time>
      </trkpt>
      <trkpt lat="44.57897" lon="0.71675">
        <ele>123</ele>
        <time>2012-02-19T09:35:48Z</time>
      </trkpt>
      <trkpt lat="44.57897" lon="0.71672">
        <ele>123</ele>
        <time>2012-02-19T09:35:50Z</time>
      </trkpt>
      <trkpt lat="44.57898" lon="0.71671">
        <ele>123</ele>
        <time>2012-02-19T09:35:51Z</time>
      </trkpt>
      <trkpt lat="44.57898" lon="0.71668">
        <ele>123</ele>
        <time>2012-02-19T09:35:52Z</time>
      </trkpt>
      <trkpt lat="44.57899" lon="0.71665">
        <ele>123</ele>
        <time>2012-02-19T09:35:53Z</time>
      </trkpt>
      <trkpt lat="44.579" lon="0.71662">
        <ele>124</ele>
        <time>2012-02-19T09:35:54Z</time>
      </trkpt>
      <trkpt lat="44.57901" lon="0.71659">
        <ele>124</ele>
        <time>2012-02-19T09:35:55Z</time>
      </trkpt>
      <trkpt lat="44.57901" lon="0.71655">
        <ele>124</ele>
        <time>2012-02-19T09:35:56Z</time>
      </trkpt>
      <trkpt lat="44.57902" lon="0.71652">
        <ele>124</ele>
        <time>2012-02-19T09:35:57Z</time>
      </trkpt>
      <trkpt lat="44.57902" lon="0.71649">
        <ele>124</ele>
        <time>2012-02-19T09:35:58Z</time>
      </trkpt>
      <trkpt lat="44.57903" lon="0.71645">
        <ele>124</ele>
        <time>2012-02-19T09:35:59Z</time>
      </trkpt>
      <trkpt lat="44.57904" lon="0.71642">
        <ele>124</ele>
        <time>2012-02-19T09:36:00Z</time>
      </trkpt>
      <trkpt lat="44.57905" lon="0.71639">
        <ele>124</ele>
        <time>2012-02-19T09:36:01Z</time>
      </trkpt>
      <trkpt lat="44.57906" lon="0.71635">
        <ele>124</ele>
        <time>2012-02-19T09:36:02Z</time>
      </trkpt>
      <trkpt lat="44.57907" lon="0.71632">
        <ele>124</ele>
        <time>2012-02-19T09:36:03Z</time>
      </trkpt>
      <trkpt lat="44.57907" lon="0.71628">
        <ele>124</ele>
        <time>2012-02-19T09:36:04Z</time>
      </trkpt>
      <trkpt lat="44.57908" lon="0.71625">
        <ele>124</ele>
        <time>2012-02-19T09:36:05Z</time>
      </trkpt>
      <trkpt lat="44.57909" lon="0.71621">
        <ele>124</ele>
        <time>2012-02-19T09:36:06Z</time>
      </trkpt>
      <trkpt lat="44.5791" lon="0.71618">
        <ele>124</ele>
        <time>2012-02-19T09:36:07Z</time>
      </trkpt>
      <trkpt lat="44.57911" lon="0.71614">
        <ele>124</ele>
        <time>2012-02-19T09:36:08Z</time>
      </trkpt>
      <trkpt lat="44.57911" lon="0.71611">
        <ele>124</ele>
        <time>2012-02-19T09:36:09Z</time>
      </trkpt>
      <trkpt lat="44.57912" lon="0.71607">
        <ele>124</ele>
        <time>2012-02-19T09:36:10Z</time>
      </trkpt>
      <trkpt lat="44.57913" lon="0.71604">
        <ele>124</ele>
        <time>2012-02-19T09:36:11Z</time>
      </trkpt>
      <trkpt lat="44.57914" lon="0.71601">
        <ele>124</ele>
        <time>2012-02-19T09:36:12Z</time>
      </trkpt>
      <trkpt lat="44.57914" lon="0.71597">
        <ele>124</ele>
        <time>2012-02-19T09:36:13Z</time>
      </trkpt>
      <trkpt lat="44.57915" lon="0.71594">
        <ele>124</ele>
        <time>2012-02-19T09:36:14Z</time>
      </trkpt>
      <trkpt lat="44.57915" lon="0.71591">
        <ele>124</ele>
        <time>2012-02-19T09:36:15Z</time>
      </trkpt>
      <trkpt lat="44.57916" lon="0.71588">
        <ele>124</ele>
        <time>2012-02-19T09:36:16Z</time>
      </trkpt>
      <trkpt lat="44.57917" lon="0.71584">
        <ele>124</ele>
        <time>2012-02-19T09:36:17Z</time>
      </trkpt>
      <trkpt lat="44.57917" lon="0.71581">
        <ele>124</ele>
        <time>2012-02-19T09:36:18Z</time>
      </trkpt>
      <trkpt lat="44.57918" lon="0.71577">
        <ele>124</ele>
        <time>2012-02-19T09:36:19Z</time>
      </trkpt>
      <trkpt lat="44.57919" lon="0.71573">
        <ele>124</ele>
        <time>2012-02-19T09:36:20Z</time>
      </trkpt>
      <trkpt lat="44.5792" lon="0.7157">
        <ele>124</ele>
        <time>2012-02-19T09:36:21Z</time>
      </trkpt>
      <trkpt lat="44.57921" lon="0.71566">
        <ele>124</ele>
        <time>2012-02-19T09:36:22Z</time>
      </trkpt>
      <trkpt lat="44.57922" lon="0.71562">
        <ele>124</ele>
        <time>2012-02-19T09:36:23Z</time>
      </trkpt>
      <trkpt lat="44.57922" lon="0.71558">
        <ele>124</ele>
        <time>2012-02-19T09:36:24Z</time>
      </trkpt>
      <trkpt lat="44.57923" lon="0.71554">
        <ele>124</ele>
        <time>2012-02-19T09:36:25Z</time>
      </trkpt>
      <trkpt lat="44.57924" lon="0.7155">
        <ele>124</ele>
        <time>2012-02-19T09:36:26Z</time>
      </trkpt>
      <trkpt lat="44.57925" lon="0.71545">
        <ele>124</ele>
        <time>2012-02-19T09:36:27Z</time>
      </trkpt>
      <trkpt lat="44.57926" lon="0.71539">
        <ele>124</ele>
        <time>2012-02-19T09:36:28Z</time>
      </trkpt>
      <trkpt lat="44.57927" lon="0.71534">
        <ele>124</ele>
        <time>2012-02-19T09:36:29Z</time>
      </trkpt>
      <trkpt lat="44.57927" lon="0.71527">
        <ele>124</ele>
        <time>2012-02-19T09:36:30Z</time>
      </trkpt>
      <trkpt lat="44.57928" lon="0.71521">
        <ele>124</ele>
        <time>2012-02-19T09:36:31Z</time>
      </trkpt>
      <trkpt lat="44.5793" lon="0.71516">
        <ele>124</ele>
        <time>2012-02-19T09:36:32Z</time>
      </trkpt>
      <trkpt lat="44.57931" lon="0.7151">
        <ele>124</ele>
        <time>2012-02-19T09:36:33Z</time>
      </trkpt>
      <trkpt lat="44.57933" lon="0.71503">
        <ele>124</ele>
        <time>2012-02-19T09:36:34Z</time>
      </trkpt>
      <trkpt lat="44.57934" lon="0.71498">
        <ele>124</ele>
        <time>2012-02-19T09:36:35Z</time>
      </trkpt>
      <trkpt lat="44.57936" lon="0.71491">
        <ele>124</ele>
        <time>2012-02-19T09:36:36Z</time>
      </trkpt>
      <trkpt lat="44.57938" lon="0.71486">
        <ele>124</ele>
        <time>2012-02-19T09:36:37Z</time>
      </trkpt>
      <trkpt lat="44.5794" lon="0.7148">
        <ele>124</ele>
        <time>2012-02-19T09:36:38Z</time>
      </trkpt>
      <trkpt lat="44.57942" lon="0.71475">
        <ele>124</ele>
        <time>2012-02-19T09:36:39Z</time>
      </trkpt>
      <trkpt lat="44.57943" lon="0.71469">
        <ele>124</ele>
        <time>2012-02-19T09:36:40Z</time>
      </trkpt>
      <trkpt lat="44.57945" lon="0.71462">
        <ele>124</ele>
        <time>2012-02-19T09:36:41Z</time>
      </trkpt>
      <trkpt lat="44.57947" lon="0.71457">
        <ele>124</ele>
        <time>2012-02-19T09:36:42Z</time>
      </trkpt>
      <trkpt lat="44.57949" lon="0.71451">
        <ele>123</ele>
        <time>2012-02-19T09:36:43Z</time>
      </trkpt>
      <trkpt lat="44.5795" lon="0.71445">
        <ele>123</ele>
        <time>2012-02-19T09:36:44Z</time>
      </trkpt>
      <trkpt lat="44.57952" lon="0.7144">
        <ele>122</ele>
        <time>2012-02-19T09:36:45Z</time>
      </trkpt>
      <trkpt lat="44.57954" lon="0.71434">
        <ele>122</ele>
        <time>2012-02-19T09:36:46Z</time>
      </trkpt>
      <trkpt lat="44.57956" lon="0.71429">
        <ele>121</ele>
        <time>2012-02-19T09:36:47Z</time>
      </trkpt>
      <trkpt lat="44.57958" lon="0.71424">
        <ele>121</ele>
        <time>2012-02-19T09:36:48Z</time>
      </trkpt>
      <trkpt lat="44.5796" lon="0.71418">
        <ele>121</ele>
        <time>2012-02-19T09:36:49Z</time>
      </trkpt>
      <trkpt lat="44.57962" lon="0.71412">
        <ele>121</ele>
        <time>2012-02-19T09:36:50Z</time>
      </trkpt>
      <trkpt lat="44.57964" lon="0.71407">
        <ele>121</ele>
        <time>2012-02-19T09:36:51Z</time>
      </trkpt>
      <trkpt lat="44.57966" lon="0.714">
        <ele>121</ele>
        <time>2012-02-19T09:36:52Z</time>
      </trkpt>
      <trkpt lat="44.57968" lon="0.71394">
        <ele>120</ele>
        <time>2012-02-19T09:36:53Z</time>
      </trkpt>
      <trkpt lat="44.57969" lon="0.71387">
        <ele>120</ele>
        <time>2012-02-19T09:36:54Z</time>
      </trkpt>
      <trkpt lat="44.57971" lon="0.71382">
        <ele>120</ele>
        <time>2012-02-19T09:36:55Z</time>
      </trkpt>
      <trkpt lat="44.57972" lon="0.71376">
        <ele>119</ele>
        <time>2012-02-19T09:36:56Z</time>
      </trkpt>
      <trkpt lat="44.57974" lon="0.71371">
        <ele>119</ele>
        <time>2012-02-19T09:36:57Z</time>
      </trkpt>
      <trkpt lat="44.57976" lon="0.71365">
        <ele>119</ele>
        <time>2012-02-19T09:36:58Z</time>
      </trkpt>
      <trkpt lat="44.57978" lon="0.7136">
        <ele>119</ele>
        <time>2012-02-19T09:36:59Z</time>
      </trkpt>
      <trkpt lat="44.5798" lon="0.71355">
        <ele>119</ele>
        <time>2012-02-19T09:37:00Z</time>
      </trkpt>
      <trkpt lat="44.57981" lon="0.7135">
        <ele>119</ele>
        <time>2012-02-19T09:37:01Z</time>
      </trkpt>
      <trkpt lat="44.57983" lon="0.71346">
        <ele>119</ele>
        <time>2012-02-19T09:37:02Z</time>
      </trkpt>
      <trkpt lat="44.57985" lon="0.71341">
        <ele>119</ele>
        <time>2012-02-19T09:37:03Z</time>
      </trkpt>
      <trkpt lat="44.57987" lon="0.71336">
        <ele>119</ele>
        <time>2012-02-19T09:37:04Z</time>
      </trkpt>
      <trkpt lat="44.5799" lon="0.7133">
        <ele>119</ele>
        <time>2012-02-19T09:37:05Z</time>
      </trkpt>
      <trkpt lat="44.57993" lon="0.71324">
        <ele>119</ele>
        <time>2012-02-19T09:37:06Z</time>
      </trkpt>
      <trkpt lat="44.57995" lon="0.71318">
        <ele>119</ele>
        <time>2012-02-19T09:37:07Z</time>
      </trkpt>
      <trkpt lat="44.57998" lon="0.71313">
        <ele>118</ele>
        <time>2012-02-19T09:37:08Z</time>
      </trkpt>
      <trkpt lat="44.58002" lon="0.71307">
        <ele>117</ele>
        <time>2012-02-19T09:37:09Z</time>
      </trkpt>
      <trkpt lat="44.58007" lon="0.71302">
        <ele>117</ele>
        <time>2012-02-19T09:37:10Z</time>
      </trkpt>
      <trkpt lat="44.58012" lon="0.71298">
        <ele>116</ele>
        <time>2012-02-19T09:37:11Z</time>
      </trkpt>
      <trkpt lat="44.58016" lon="0.71294">
        <ele>115</ele>
        <time>2012-02-19T09:37:12Z</time>
      </trkpt>
      <trkpt lat="44.5802" lon="0.71291">
        <ele>114</ele>
        <time>2012-02-19T09:37:13Z</time>
      </trkpt>
      <trkpt lat="44.58024" lon="0.71289">
        <ele>114</ele>
        <time>2012-02-19T09:37:14Z</time>
      </trkpt>
      <trkpt lat="44.58028" lon="0.71286">
        <ele>113</ele>
        <time>2012-02-19T09:37:15Z</time>
      </trkpt>
      <trkpt lat="44.58031" lon="0.71283">
        <ele>112</ele>
        <time>2012-02-19T09:37:16Z</time>
      </trkpt>
      <trkpt lat="44.58035" lon="0.71281">
        <ele>112</ele>
        <time>2012-02-19T09:37:17Z</time>
      </trkpt>
      <trkpt lat="44.58038" lon="0.7128">
        <ele>111</ele>
        <time>2012-02-19T09:37:18Z</time>
      </trkpt>
      <trkpt lat="44.58041" lon="0.71277">
        <ele>111</ele>
        <time>2012-02-19T09:37:19Z</time>
      </trkpt>
      <trkpt lat="44.58044" lon="0.71275">
        <ele>111</ele>
        <time>2012-02-19T09:37:20Z</time>
      </trkpt>
      <trkpt lat="44.58046" lon="0.71272">
        <ele>110</ele>
        <time>2012-02-19T09:37:21Z</time>
      </trkpt>
      <trkpt lat="44.58049" lon="0.7127">
        <ele>110</ele>
        <time>2012-02-19T09:37:22Z</time>
      </trkpt>
      <trkpt lat="44.5805" lon="0.71269">
        <ele>109</ele>
        <time>2012-02-19T09:37:24Z</time>
      </trkpt>
      <trkpt lat="44.58051" lon="0.71268">
        <ele>109</ele>
        <time>2012-02-19T09:37:26Z</time>
      </trkpt>
      <trkpt lat="44.58053" lon="0.71267">
        <ele>109</ele>
        <time>2012-02-19T09:37:32Z</time>
      </trkpt>
      <trkpt lat="44.58054" lon="0.71265">
        <ele>109</ele>
        <time>2012-02-19T09:37:35Z</time>
      </trkpt>
      <trkpt lat="44.58056" lon="0.71263">
        <ele>109</ele>
        <time>2012-02-19T09:37:37Z</time>
      </trkpt>
      <trkpt lat="44.58057" lon="0.71263">
        <ele>109</ele>
        <time>2012-02-19T09:37:38Z</time>
      </trkpt>
      <trkpt lat="44.58059" lon="0.71262">
        <ele>109</ele>
        <time>2012-02-19T09:37:39Z</time>
      </trkpt>
      <trkpt lat="44.58061" lon="0.71261">
        <ele>109</ele>
        <time>2012-02-19T09:37:40Z</time>
      </trkpt>
      <trkpt lat="44.58063" lon="0.71259">
        <ele>108</ele>
        <time>2012-02-19T09:37:41Z</time>
      </trkpt>
      <trkpt lat="44.58065" lon="0.71258">
        <ele>108</ele>
        <time>2012-02-19T09:37:42Z</time>
      </trkpt>
      <trkpt lat="44.58068" lon="0.71256">
        <ele>108</ele>
        <time>2012-02-19T09:37:43Z</time>
      </trkpt>
      <trkpt lat="44.58071" lon="0.71254">
        <ele>108</ele>
        <time>2012-02-19T09:37:44Z</time>
      </trkpt>
      <trkpt lat="44.58074" lon="0.71253">
        <ele>107</ele>
        <time>2012-02-19T09:37:45Z</time>
      </trkpt>
      <trkpt lat="44.58076" lon="0.71253">
        <ele>107</ele>
        <time>2012-02-19T09:37:46Z</time>
      </trkpt>
      <trkpt lat="44.58079" lon="0.71252">
        <ele>106</ele>
        <time>2012-02-19T09:37:47Z</time>
      </trkpt>
      <trkpt lat="44.58082" lon="0.71251">
        <ele>106</ele>
        <time>2012-02-19T09:37:48Z</time>
      </trkpt>
      <trkpt lat="44.58085" lon="0.71251">
        <ele>106</ele>
        <time>2012-02-19T09:37:49Z</time>
      </trkpt>
      <trkpt lat="44.58087" lon="0.71251">
        <ele>106</ele>
        <time>2012-02-19T09:37:50Z</time>
      </trkpt>
      <trkpt lat="44.58089" lon="0.71251">
        <ele>106</ele>
        <time>2012-02-19T09:37:51Z</time>
      </trkpt>
      <trkpt lat="44.58091" lon="0.71252">
        <ele>106</ele>
        <time>2012-02-19T09:37:52Z</time>
      </trkpt>
      <trkpt lat="44.58094" lon="0.71253">
        <ele>106</ele>
        <time>2012-02-19T09:37:53Z</time>
      </trkpt>
      <trkpt lat="44.58096" lon="0.71254">
        <ele>106</ele>
        <time>2012-02-19T09:37:54Z</time>
      </trkpt>
      <trkpt lat="44.58099" lon="0.71255">
        <ele>106</ele>
        <time>2012-02-19T09:37:55Z</time>
      </trkpt>
      <trkpt lat="44.58101" lon="0.71255">
        <ele>106</ele>
        <time>2012-02-19T09:37:56Z</time>
      </trkpt>
      <trkpt lat="44.58103" lon="0.71254">
        <ele>106</ele>
        <time>2012-02-19T09:37:57Z</time>
      </trkpt>
      <trkpt lat="44.58104" lon="0.71252">
        <ele>106</ele>
        <time>2012-02-19T09:37:58Z</time>
      </trkpt>
      <trkpt lat="44.58105" lon="0.7125">
        <ele>106</ele>
        <time>2012-02-19T09:37:59Z</time>
      </trkpt>
      <trkpt lat="44.58105" lon="0.71248">
        <ele>106</ele>
        <time>2012-02-19T09:38:00Z</time>
      </trkpt>
      <trkpt lat="44.58106" lon="0.71248">
        <ele>105</ele>
        <time>2012-02-19T09:38:04Z</time>
      </trkpt>
      <trkpt lat="44.58105" lon="0.71248">
        <ele>105</ele>
        <time>2012-02-19T09:38:26Z</time>
      </trkpt>
      <trkpt lat="44.58104" lon="0.71245">
        <ele>105</ele>
        <time>2012-02-19T09:38:36Z</time>
      </trkpt>
      <trkpt lat="44.58104" lon="0.71243">
        <ele>105</ele>
        <time>2012-02-19T09:38:37Z</time>
      </trkpt>
      <trkpt lat="44.58103" lon="0.71241">
        <ele>105</ele>
        <time>2012-02-19T09:38:38Z</time>
      </trkpt>
      <trkpt lat="44.58102" lon="0.71239">
        <ele>105</ele>
        <time>2012-02-19T09:38:39Z</time>
      </trkpt>
      <trkpt lat="44.58101" lon="0.71237">
        <ele>105</ele>
        <time>2012-02-19T09:38:40Z</time>
      </trkpt>
      <trkpt lat="44.58101" lon="0.71234">
        <ele>105</ele>
        <time>2012-02-19T09:38:41Z</time>
      </trkpt>
      <trkpt lat="44.58099" lon="0.71231">
        <ele>105</ele>
        <time>2012-02-19T09:38:42Z</time>
      </trkpt>
      <trkpt lat="44.58098" lon="0.71228">
        <ele>105</ele>
        <time>2012-02-19T09:38:43Z</time>
      </trkpt>
      <trkpt lat="44.58097" lon="0.71224">
        <ele>105</ele>
        <time>2012-02-19T09:38:44Z</time>
      </trkpt>
      <trkpt lat="44.58096" lon="0.71221">
        <ele>105</ele>
        <time>2012-02-19T09:38:45Z</time>
      </trkpt>
      <trkpt lat="44.58095" lon="0.71219">
        <ele>105</ele>
        <time>2012-02-19T09:38:46Z</time>
      </trkpt>
      <trkpt lat="44.58094" lon="0.71216">
        <ele>105</ele>
        <time>2012-02-19T09:38:47Z</time>
      </trkpt>
      <trkpt lat="44.58092" lon="0.71214">
        <ele>105</ele>
        <time>2012-02-19T09:38:48Z</time>
      </trkpt>
      <trkpt lat="44.58091" lon="0.7121">
        <ele>105</ele>
        <time>2012-02-19T09:38:49Z</time>
      </trkpt>
      <trkpt lat="44.58089" lon="0.71207">
        <ele>105</ele>
        <time>2012-02-19T09:38:50Z</time>
      </trkpt>
      <trkpt lat="44.58087" lon="0.71203">
        <ele>105</ele>
        <time>2012-02-19T09:38:51Z</time>
      </trkpt>
      <trkpt lat="44.58085" lon="0.71199">
        <ele>105</ele>
        <time>2012-02-19T09:38:52Z</time>
      </trkpt>
      <trkpt lat="44.58083" lon="0.71195">
        <ele>104</ele>
        <time>2012-02-19T09:38:53Z</time>
      </trkpt>
      <trkpt lat="44.58081" lon="0.71192">
        <ele>104</ele>
        <time>2012-02-19T09:38:54Z</time>
      </trkpt>
      <trkpt lat="44.58078" lon="0.71188">
        <ele>104</ele>
        <time>2012-02-19T09:38:55Z</time>
      </trkpt>
      <trkpt lat="44.58076" lon="0.71184">
        <ele>104</ele>
        <time>2012-02-19T09:38:56Z</time>
      </trkpt>
      <trkpt lat="44.58074" lon="0.7118">
        <ele>104</ele>
        <time>2012-02-19T09:38:57Z</time>
      </trkpt>
      <trkpt lat="44.58071" lon="0.71177">
        <ele>104</ele>
        <time>2012-02-19T09:38:58Z</time>
      </trkpt>
      <trkpt lat="44.58069" lon="0.71173">
        <ele>104</ele>
        <time>2012-02-19T09:38:59Z</time>
      </trkpt>
      <trkpt lat="44.58066" lon="0.71169">
        <ele>104</ele>
        <time>2012-02-19T09:39:00Z</time>
      </trkpt>
      <trkpt lat="44.58064" lon="0.71165">
        <ele>103</ele>
        <time>2012-02-19T09:39:01Z</time>
      </trkpt>
      <trkpt lat="44.58061" lon="0.7116">
        <ele>103</ele>
        <time>2012-02-19T09:39:02Z</time>
      </trkpt>
      <trkpt lat="44.58059" lon="0.71156">
        <ele>103</ele>
        <time>2012-02-19T09:39:03Z</time>
      </trkpt>
      <trkpt lat="44.58056" lon="0.71152">
        <ele>103</ele>
        <time>2012-02-19T09:39:04Z</time>
      </trkpt>
      <trkpt lat="44.58054" lon="0.71148">
        <ele>102</ele>
        <time>2012-02-19T09:39:05Z</time>
      </trkpt>
      <trkpt lat="44.58051" lon="0.71144">
        <ele>102</ele>
        <time>2012-02-19T09:39:06Z</time>
      </trkpt>
      <trkpt lat="44.58049" lon="0.7114">
        <ele>102</ele>
        <time>2012-02-19T09:39:07Z</time>
      </trkpt>
      <trkpt lat="44.58046" lon="0.71136">
        <ele>102</ele>
        <time>2012-02-19T09:39:08Z</time>
      </trkpt>
      <trkpt lat="44.58044" lon="0.71132">
        <ele>101</ele>
        <time>2012-02-19T09:39:09Z</time>
      </trkpt>
      <trkpt lat="44.58041" lon="0.71128">
        <ele>101</ele>
        <time>2012-02-19T09:39:10Z</time>
      </trkpt>
      <trkpt lat="44.58038" lon="0.71125">
        <ele>101</ele>
        <time>2012-02-19T09:39:11Z</time>
      </trkpt>
      <trkpt lat="44.58036" lon="0.7112">
        <ele>101</ele>
        <time>2012-02-19T09:39:12Z</time>
      </trkpt>
      <trkpt lat="44.58033" lon="0.71116">
        <ele>100</ele>
        <time>2012-02-19T09:39:13Z</time>
      </trkpt>
      <trkpt lat="44.5803" lon="0.71111">
        <ele>100</ele>
        <time>2012-02-19T09:39:14Z</time>
      </trkpt>
      <trkpt lat="44.58027" lon="0.71106">
        <ele>100</ele>
        <time>2012-02-19T09:39:15Z</time>
      </trkpt>
      <trkpt lat="44.58024" lon="0.71101">
        <ele>99</ele>
        <time>2012-02-19T09:39:16Z</time>
      </trkpt>
      <trkpt lat="44.58021" lon="0.71096">
        <ele>99</ele>
        <time>2012-02-19T09:39:17Z</time>
      </trkpt>
      <trkpt lat="44.58018" lon="0.71091">
        <ele>99</ele>
        <time>2012-02-19T09:39:18Z</time>
      </trkpt>
      <trkpt lat="44.58015" lon="0.71086">
        <ele>98</ele>
        <time>2012-02-19T09:39:19Z</time>
      </trkpt>
      <trkpt lat="44.58012" lon="0.71081">
        <ele>98</ele>
        <time>2012-02-19T09:39:20Z</time>
      </trkpt>
      <trkpt lat="44.5801" lon="0.71077">
        <ele>98</ele>
        <time>2012-02-19T09:39:21Z</time>
      </trkpt>
      <trkpt lat="44.58008" lon="0.71071">
        <ele>97</ele>
        <time>2012-02-19T09:39:22Z</time>
      </trkpt>
      <trkpt lat="44.58006" lon="0.71066">
        <ele>97</ele>
        <time>2012-02-19T09:39:23Z</time>
      </trkpt>
      <trkpt lat="44.58005" lon="0.71061">
        <ele>96</ele>
        <time>2012-02-19T09:39:24Z</time>
      </trkpt>
      <trkpt lat="44.58004" lon="0.71055">
        <ele>96</ele>
        <time>2012-02-19T09:39:25Z</time>
      </trkpt>
      <trkpt lat="44.58002" lon="0.7105">
        <ele>96</ele>
        <time>2012-02-19T09:39:26Z</time>
      </trkpt>
      <trkpt lat="44.58001" lon="0.71044">
        <ele>96</ele>
        <time>2012-02-19T09:39:27Z</time>
      </trkpt>
      <trkpt lat="44.58" lon="0.71039">
        <ele>96</ele>
        <time>2012-02-19T09:39:28Z</time>
      </trkpt>
      <trkpt lat="44.57999" lon="0.71034">
        <ele>95</ele>
        <time>2012-02-19T09:39:29Z</time>
      </trkpt>
      <trkpt lat="44.57998" lon="0.71029">
        <ele>95</ele>
        <time>2012-02-19T09:39:30Z</time>
      </trkpt>
      <trkpt lat="44.57997" lon="0.71025">
        <ele>95</ele>
        <time>2012-02-19T09:39:31Z</time>
      </trkpt>
      <trkpt lat="44.57996" lon="0.7102">
        <ele>94</ele>
        <time>2012-02-19T09:39:32Z</time>
      </trkpt>
      <trkpt lat="44.57994" lon="0.71015">
        <ele>94</ele>
        <time>2012-02-19T09:39:33Z</time>
      </trkpt>
      <trkpt lat="44.57993" lon="0.7101">
        <ele>94</ele>
        <time>2012-02-19T09:39:34Z</time>
      </trkpt>
      <trkpt lat="44.57991" lon="0.71005">
        <ele>94</ele>
        <time>2012-02-19T09:39:35Z</time>
      </trkpt>
      <trkpt lat="44.5799" lon="0.71">
        <ele>94</ele>
        <time>2012-02-19T09:39:36Z</time>
      </trkpt>
      <trkpt lat="44.57988" lon="0.70996">
        <ele>94</ele>
        <time>2012-02-19T09:39:37Z</time>
      </trkpt>
      <trkpt lat="44.57987" lon="0.70991">
        <ele>94</ele>
        <time>2012-02-19T09:39:38Z</time>
      </trkpt>
      <trkpt lat="44.57985" lon="0.70986">
        <ele>94</ele>
        <time>2012-02-19T09:39:39Z</time>
      </trkpt>
      <trkpt lat="44.57984" lon="0.70982">
        <ele>93</ele>
        <time>2012-02-19T09:39:40Z</time>
      </trkpt>
      <trkpt lat="44.57982" lon="0.70978">
        <ele>93</ele>
        <time>2012-02-19T09:39:41Z</time>
      </trkpt>
      <trkpt lat="44.57981" lon="0.70974">
        <ele>93</ele>
        <time>2012-02-19T09:39:42Z</time>
      </trkpt>
      <trkpt lat="44.57979" lon="0.7097">
        <ele>93</ele>
        <time>2012-02-19T09:39:43Z</time>
      </trkpt>
      <trkpt lat="44.57978" lon="0.70967">
        <ele>92</ele>
        <time>2012-02-19T09:39:44Z</time>
      </trkpt>
      <trkpt lat="44.57976" lon="0.70963">
        <ele>92</ele>
        <time>2012-02-19T09:39:45Z</time>
      </trkpt>
      <trkpt lat="44.57975" lon="0.70959">
        <ele>92</ele>
        <time>2012-02-19T09:39:46Z</time>
      </trkpt>
      <trkpt lat="44.57973" lon="0.70955">
        <ele>92</ele>
        <time>2012-02-19T09:39:47Z</time>
      </trkpt>
      <trkpt lat="44.57972" lon="0.70952">
        <ele>92</ele>
        <time>2012-02-19T09:39:48Z</time>
      </trkpt>
      <trkpt lat="44.57972" lon="0.70949">
        <ele>92</ele>
        <time>2012-02-19T09:39:49Z</time>
      </trkpt>
      <trkpt lat="44.5797" lon="0.70947">
        <ele>92</ele>
        <time>2012-02-19T09:39:50Z</time>
      </trkpt>
      <trkpt lat="44.5797" lon="0.70946">
        <ele>92</ele>
        <time>2012-02-19T09:39:51Z</time>
      </trkpt>
      <trkpt lat="44.57969" lon="0.70944">
        <ele>92</ele>
        <time>2012-02-19T09:39:54Z</time>
      </trkpt>
      <trkpt lat="44.57968" lon="0.70942">
        <ele>92</ele>
        <time>2012-02-19T09:39:56Z</time>
      </trkpt>
      <trkpt lat="44.57967" lon="0.7094">
        <ele>92</ele>
        <time>2012-02-19T09:39:58Z</time>
      </trkpt>
      <trkpt lat="44.57966" lon="0.70938">
        <ele>92</ele>
        <time>2012-02-19T09:40:05Z</time>
      </trkpt>
      <trkpt lat="44.57966" lon="0.70937">
        <ele>93</ele>
        <time>2012-02-19T09:40:11Z</time>
      </trkpt>
      <trkpt lat="44.57967" lon="0.70934">
        <ele>94</ele>
        <time>2012-02-19T09:40:17Z</time>
      </trkpt>
      <trkpt lat="44.57966" lon="0.70933">
        <ele>94</ele>
        <time>2012-02-19T09:40:23Z</time>
      </trkpt>
      <trkpt lat="44.57965" lon="0.70932">
        <ele>94</ele>
        <time>2012-02-19T09:40:26Z</time>
      </trkpt>
      <trkpt lat="44.57964" lon="0.70933">
        <ele>94</ele>
        <time>2012-02-19T09:40:48Z</time>
      </trkpt>
      <trkpt lat="44.57964" lon="0.70934">
        <ele>94</ele>
        <time>2012-02-19T09:40:55Z</time>
      </trkpt>
      <trkpt lat="44.57965" lon="0.70936">
        <ele>94</ele>
        <time>2012-02-19T09:40:58Z</time>
      </trkpt>
      <trkpt lat="44.57965" lon="0.70934">
        <ele>96</ele>
        <time>2012-02-19T09:41:12Z</time>
      </trkpt>
      <trkpt lat="44.57967" lon="0.70932">
        <ele>96</ele>
        <time>2012-02-19T09:41:15Z</time>
      </trkpt>
      <trkpt lat="44.57967" lon="0.7093">
        <ele>96</ele>
        <time>2012-02-19T09:41:17Z</time>
      </trkpt>
      <trkpt lat="44.57968" lon="0.70928">
        <ele>96</ele>
        <time>2012-02-19T09:41:20Z</time>
      </trkpt>
      <trkpt lat="44.57969" lon="0.70926">
        <ele>96</ele>
        <time>2012-02-19T09:41:21Z</time>
      </trkpt>
      <trkpt lat="44.5797" lon="0.70923">
        <ele>96</ele>
        <time>2012-02-19T09:41:23Z</time>
      </trkpt>
      <trkpt lat="44.57972" lon="0.7092">
        <ele>96</ele>
        <time>2012-02-19T09:41:25Z</time>
      </trkpt>
      <trkpt lat="44.57973" lon="0.70918">
        <ele>96</ele>
        <time>2012-02-19T09:41:26Z</time>
      </trkpt>
      <trkpt lat="44.57974" lon="0.70915">
        <ele>96</ele>
        <time>2012-02-19T09:41:27Z</time>
      </trkpt>
      <trkpt lat="44.57975" lon="0.70912">
        <ele>96</ele>
        <time>2012-02-19T09:41:28Z</time>
      </trkpt>
      <trkpt lat="44.57976" lon="0.70909">
        <ele>96</ele>
        <time>2012-02-19T09:41:29Z</time>
      </trkpt>
      <trkpt lat="44.57977" lon="0.70906">
        <ele>96</ele>
        <time>2012-02-19T09:41:30Z</time>
      </trkpt>
      <trkpt lat="44.57978" lon="0.70903">
        <ele>96</ele>
        <time>2012-02-19T09:41:31Z</time>
      </trkpt>
      <trkpt lat="44.57979" lon="0.709">
        <ele>96</ele>
        <time>2012-02-19T09:41:32Z</time>
      </trkpt>
      <trkpt lat="44.5798" lon="0.70897">
        <ele>96</ele>
        <time>2012-02-19T09:41:33Z</time>
      </trkpt>
      <trkpt lat="44.5798" lon="0.70894">
        <ele>96</ele>
        <time>2012-02-19T09:41:34Z</time>
      </trkpt>
      <trkpt lat="44.57981" lon="0.7089">
        <ele>96</ele>
        <time>2012-02-19T09:41:35Z</time>
      </trkpt>
      <trkpt lat="44.57982" lon="0.70887">
        <ele>96</ele>
        <time>2012-02-19T09:41:36Z</time>
      </trkpt>
      <trkpt lat="44.57983" lon="0.70884">
        <ele>96</ele>
        <time>2012-02-19T09:41:37Z</time>
      </trkpt>
      <trkpt lat="44.57984" lon="0.70881">
        <ele>96</ele>
        <time>2012-02-19T09:41:38Z</time>
      </trkpt>
      <trkpt lat="44.57985" lon="0.70877">
        <ele>96</ele>
        <time>2012-02-19T09:41:39Z</time>
      </trkpt>
      <trkpt lat="44.57986" lon="0.70874">
        <ele>96</ele>
        <time>2012-02-19T09:41:40Z</time>
      </trkpt>
      <trkpt lat="44.57987" lon="0.70871">
        <ele>96</ele>
        <time>2012-02-19T09:41:41Z</time>
      </trkpt>
      <trkpt lat="44.57988" lon="0.70867">
        <ele>96</ele>
        <time>2012-02-19T09:41:42Z</time>
      </trkpt>
      <trkpt lat="44.5799" lon="0.70863">
        <ele>96</ele>
        <time>2012-02-19T09:41:43Z</time>
      </trkpt>
      <trkpt lat="44.57991" lon="0.70859">
        <ele>96</ele>
        <time>2012-02-19T09:41:44Z</time>
      </trkpt>
      <trkpt lat="44.57991" lon="0.70856">
        <ele>96</ele>
        <time>2012-02-19T09:41:45Z</time>
      </trkpt>
      <trkpt lat="44.57993" lon="0.70852">
        <ele>96</ele>
        <time>2012-02-19T09:41:46Z</time>
      </trkpt>
      <trkpt lat="44.57994" lon="0.70849">
        <ele>97</ele>
        <time>2012-02-19T09:41:47Z</time>
      </trkpt>
      <trkpt lat="44.57995" lon="0.70846">
        <ele>97</ele>
        <time>2012-02-19T09:41:48Z</time>
      </trkpt>
      <trkpt lat="44.57996" lon="0.70842">
        <ele>97</ele>
        <time>2012-02-19T09:41:49Z</time>
      </trkpt>
      <trkpt lat="44.57996" lon="0.7084">
        <ele>97</ele>
        <time>2012-02-19T09:41:50Z</time>
      </trkpt>
      <trkpt lat="44.57998" lon="0.70837">
        <ele>97</ele>
        <time>2012-02-19T09:41:51Z</time>
      </trkpt>
      <trkpt lat="44.57999" lon="0.70835">
        <ele>97</ele>
        <time>2012-02-19T09:41:52Z</time>
      </trkpt>
      <trkpt lat="44.58001" lon="0.70832">
        <ele>97</ele>
        <time>2012-02-19T09:41:53Z</time>
      </trkpt>
      <trkpt lat="44.58002" lon="0.70828">
        <ele>97</ele>
        <time>2012-02-19T09:41:54Z</time>
      </trkpt>
      <trkpt lat="44.58004" lon="0.70824">
        <ele>97</ele>
        <time>2012-02-19T09:41:55Z</time>
      </trkpt>
      <trkpt lat="44.58007" lon="0.7082">
        <ele>97</ele>
        <time>2012-02-19T09:41:56Z</time>
      </trkpt>
      <trkpt lat="44.58009" lon="0.70816">
        <ele>97</ele>
        <time>2012-02-19T09:41:57Z</time>
      </trkpt>
      <trkpt lat="44.58012" lon="0.70813">
        <ele>97</ele>
        <time>2012-02-19T09:41:58Z</time>
      </trkpt>
      <trkpt lat="44.58014" lon="0.7081">
        <ele>97</ele>
        <time>2012-02-19T09:41:59Z</time>
      </trkpt>
      <trkpt lat="44.58016" lon="0.70806">
        <ele>97</ele>
        <time>2012-02-19T09:42:00Z</time>
      </trkpt>
      <trkpt lat="44.58018" lon="0.70803">
        <ele>97</ele>
        <time>2012-02-19T09:42:01Z</time>
      </trkpt>
      <trkpt lat="44.58021" lon="0.70801">
        <ele>97</ele>
        <time>2012-02-19T09:42:02Z</time>
      </trkpt>
      <trkpt lat="44.58023" lon="0.70798">
        <ele>97</ele>
        <time>2012-02-19T09:42:03Z</time>
      </trkpt>
      <trkpt lat="44.58025" lon="0.70795">
        <ele>97</ele>
        <time>2012-02-19T09:42:04Z</time>
      </trkpt>
      <trkpt lat="44.58028" lon="0.70792">
        <ele>97</ele>
        <time>2012-02-19T09:42:05Z</time>
      </trkpt>
      <trkpt lat="44.5803" lon="0.70789">
        <ele>97</ele>
        <time>2012-02-19T09:42:06Z</time>
      </trkpt>
      <trkpt lat="44.58033" lon="0.70786">
        <ele>97</ele>
        <time>2012-02-19T09:42:07Z</time>
      </trkpt>
      <trkpt lat="44.58035" lon="0.70783">
        <ele>97</ele>
        <time>2012-02-19T09:42:08Z</time>
      </trkpt>
      <trkpt lat="44.58038" lon="0.7078">
        <ele>97</ele>
        <time>2012-02-19T09:42:09Z</time>
      </trkpt>
      <trkpt lat="44.58041" lon="0.70776">
        <ele>97</ele>
        <time>2012-02-19T09:42:10Z</time>
      </trkpt>
      <trkpt lat="44.58043" lon="0.70773">
        <ele>97</ele>
        <time>2012-02-19T09:42:11Z</time>
      </trkpt>
      <trkpt lat="44.58046" lon="0.7077">
        <ele>97</ele>
        <time>2012-02-19T09:42:12Z</time>
      </trkpt>
      <trkpt lat="44.58049" lon="0.70767">
        <ele>97</ele>
        <time>2012-02-19T09:42:13Z</time>
      </trkpt>
      <trkpt lat="44.58052" lon="0.70763">
        <ele>97</ele>
        <time>2012-02-19T09:42:14Z</time>
      </trkpt>
      <trkpt lat="44.58054" lon="0.70761">
        <ele>97</ele>
        <time>2012-02-19T09:42:15Z</time>
      </trkpt>
      <trkpt lat="44.58057" lon="0.70758">
        <ele>97</ele>
        <time>2012-02-19T09:42:16Z</time>
      </trkpt>
      <trkpt lat="44.58061" lon="0.70753">
        <ele>97</ele>
        <time>2012-02-19T09:42:17Z</time>
      </trkpt>
      <trkpt lat="44.58063" lon="0.7075">
        <ele>97</ele>
        <time>2012-02-19T09:42:18Z</time>
      </trkpt>
      <trkpt lat="44.58066" lon="0.70746">
        <ele>97</ele>
        <time>2012-02-19T09:42:19Z</time>
      </trkpt>
      <trkpt lat="44.58069" lon="0.70742">
        <ele>97</ele>
        <time>2012-02-19T09:42:20Z</time>
      </trkpt>
      <trkpt lat="44.58072" lon="0.70739">
        <ele>97</ele>
        <time>2012-02-19T09:42:21Z</time>
      </trkpt>
      <trkpt lat="44.58074" lon="0.70735">
        <ele>98</ele>
        <time>2012-02-19T09:42:22Z</time>
      </trkpt>
      <trkpt lat="44.58077" lon="0.70732">
        <ele>98</ele>
        <time>2012-02-19T09:42:23Z</time>
      </trkpt>
      <trkpt lat="44.5808" lon="0.70729">
        <ele>98</ele>
        <time>2012-02-19T09:42:24Z</time>
      </trkpt>
      <trkpt lat="44.58083" lon="0.70726">
        <ele>98</ele>
        <time>2012-02-19T09:42:25Z</time>
      </trkpt>
      <trkpt lat="44.58085" lon="0.70722">
        <ele>98</ele>
        <time>2012-02-19T09:42:26Z</time>
      </trkpt>
      <trkpt lat="44.58088" lon="0.70719">
        <ele>98</ele>
        <time>2012-02-19T09:42:27Z</time>
      </trkpt>
      <trkpt lat="44.58091" lon="0.70715">
        <ele>98</ele>
        <time>2012-02-19T09:42:28Z</time>
      </trkpt>
      <trkpt lat="44.58094" lon="0.70712">
        <ele>98</ele>
        <time>2012-02-19T09:42:29Z</time>
      </trkpt>
      <trkpt lat="44.58097" lon="0.70708">
        <ele>98</ele>
        <time>2012-02-19T09:42:30Z</time>
      </trkpt>
      <trkpt lat="44.581" lon="0.70705">
        <ele>99</ele>
        <time>2012-02-19T09:42:31Z</time>
      </trkpt>
      <trkpt lat="44.58103" lon="0.70702">
        <ele>99</ele>
        <time>2012-02-19T09:42:32Z</time>
      </trkpt>
      <trkpt lat="44.58105" lon="0.70698">
        <ele>99</ele>
        <time>2012-02-19T09:42:33Z</time>
      </trkpt>
      <trkpt lat="44.58108" lon="0.70695">
        <ele>100</ele>
        <time>2012-02-19T09:42:34Z</time>
      </trkpt>
      <trkpt lat="44.58111" lon="0.70691">
        <ele>100</ele>
        <time>2012-02-19T09:42:35Z</time>
      </trkpt>
      <trkpt lat="44.58114" lon="0.70687">
        <ele>100</ele>
        <time>2012-02-19T09:42:36Z</time>
      </trkpt>
      <trkpt lat="44.58117" lon="0.70683">
        <ele>100</ele>
        <time>2012-02-19T09:42:37Z</time>
      </trkpt>
      <trkpt lat="44.5812" lon="0.7068">
        <ele>100</ele>
        <time>2012-02-19T09:42:38Z</time>
      </trkpt>
      <trkpt lat="44.58124" lon="0.70676">
        <ele>100</ele>
        <time>2012-02-19T09:42:39Z</time>
      </trkpt>
      <trkpt lat="44.58127" lon="0.70673">
        <ele>100</ele>
        <time>2012-02-19T09:42:40Z</time>
      </trkpt>
      <trkpt lat="44.5813" lon="0.70669">
        <ele>100</ele>
        <time>2012-02-19T09:42:41Z</time>
      </trkpt>
      <trkpt lat="44.58134" lon="0.70666">
        <ele>100</ele>
        <time>2012-02-19T09:42:42Z</time>
      </trkpt>
      <trkpt lat="44.58137" lon="0.70662">
        <ele>100</ele>
        <time>2012-02-19T09:42:43Z</time>
      </trkpt>
      <trkpt lat="44.5814" lon="0.70659">
        <ele>100</ele>
        <time>2012-02-19T09:42:44Z</time>
      </trkpt>
      <trkpt lat="44.58143" lon="0.70655">
        <ele>100</ele>
        <time>2012-02-19T09:42:45Z</time>
      </trkpt>
      <trkpt lat="44.58146" lon="0.70652">
        <ele>100</ele>
        <time>2012-02-19T09:42:46Z</time>
      </trkpt>
      <trkpt lat="44.58149" lon="0.70648">
        <ele>100</ele>
        <time>2012-02-19T09:42:47Z</time>
      </trkpt>
      <trkpt lat="44.58152" lon="0.70644">
        <ele>100</ele>
        <time>2012-02-19T09:42:48Z</time>
      </trkpt>
      <trkpt lat="44.58156" lon="0.7064">
        <ele>100</ele>
        <time>2012-02-19T09:42:49Z</time>
      </trkpt>
      <trkpt lat="44.58159" lon="0.70637">
        <ele>100</ele>
        <time>2012-02-19T09:42:50Z</time>
      </trkpt>
      <trkpt lat="44.58163" lon="0.70633">
        <ele>100</ele>
        <time>2012-02-19T09:42:51Z</time>
      </trkpt>
      <trkpt lat="44.58166" lon="0.70629">
        <ele>100</ele>
        <time>2012-02-19T09:42:52Z</time>
      </trkpt>
      <trkpt lat="44.58169" lon="0.70626">
        <ele>100</ele>
        <time>2012-02-19T09:42:53Z</time>
      </trkpt>
      <trkpt lat="44.58173" lon="0.70622">
        <ele>101</ele>
        <time>2012-02-19T09:42:54Z</time>
      </trkpt>
      <trkpt lat="44.58176" lon="0.70618">
        <ele>101</ele>
        <time>2012-02-19T09:42:55Z</time>
      </trkpt>
      <trkpt lat="44.58179" lon="0.70614">
        <ele>101</ele>
        <time>2012-02-19T09:42:56Z</time>
      </trkpt>
      <trkpt lat="44.58182" lon="0.70611">
        <ele>101</ele>
        <time>2012-02-19T09:42:57Z</time>
      </trkpt>
      <trkpt lat="44.58186" lon="0.70607">
        <ele>101</ele>
        <time>2012-02-19T09:42:58Z</time>
      </trkpt>
      <trkpt lat="44.58189" lon="0.70603">
        <ele>101</ele>
        <time>2012-02-19T09:42:59Z</time>
      </trkpt>
      <trkpt lat="44.58193" lon="0.70599">
        <ele>101</ele>
        <time>2012-02-19T09:43:00Z</time>
      </trkpt>
      <trkpt lat="44.58196" lon="0.70595">
        <ele>101</ele>
        <time>2012-02-19T09:43:01Z</time>
      </trkpt>
      <trkpt lat="44.58199" lon="0.70591">
        <ele>101</ele>
        <time>2012-02-19T09:43:02Z</time>
      </trkpt>
      <trkpt lat="44.58203" lon="0.70588">
        <ele>101</ele>
        <time>2012-02-19T09:43:03Z</time>
      </trkpt>
      <trkpt lat="44.58206" lon="0.70584">
        <ele>101</ele>
        <time>2012-02-19T09:43:04Z</time>
      </trkpt>
      <trkpt lat="44.58209" lon="0.7058">
        <ele>101</ele>
        <time>2012-02-19T09:43:05Z</time>
      </trkpt>
      <trkpt lat="44.58213" lon="0.70577">
        <ele>101</ele>
        <time>2012-02-19T09:43:06Z</time>
      </trkpt>
      <trkpt lat="44.58216" lon="0.70573">
        <ele>102</ele>
        <time>2012-02-19T09:43:07Z</time>
      </trkpt>
      <trkpt lat="44.5822" lon="0.70569">
        <ele>102</ele>
        <time>2012-02-19T09:43:08Z</time>
      </trkpt>
      <trkpt lat="44.58223" lon="0.70565">
        <ele>102</ele>
        <time>2012-02-19T09:43:09Z</time>
      </trkpt>
      <trkpt lat="44.58226" lon="0.70561">
        <ele>102</ele>
        <time>2012-02-19T09:43:10Z</time>
      </trkpt>
      <trkpt lat="44.5823" lon="0.70558">
        <ele>102</ele>
        <time>2012-02-19T09:43:11Z</time>
      </trkpt>
      <trkpt lat="44.58233" lon="0.70554">
        <ele>102</ele>
        <time>2012-02-19T09:43:12Z</time>
      </trkpt>
      <trkpt lat="44.58236" lon="0.7055">
        <ele>102</ele>
        <time>2012-02-19T09:43:13Z</time>
      </trkpt>
      <trkpt lat="44.5824" lon="0.70546">
        <ele>102</ele>
        <time>2012-02-19T09:43:14Z</time>
      </trkpt>
      <trkpt lat="44.58243" lon="0.70543">
        <ele>102</ele>
        <time>2012-02-19T09:43:15Z</time>
      </trkpt>
      <trkpt lat="44.58246" lon="0.70539">
        <ele>102</ele>
        <time>2012-02-19T09:43:16Z</time>
      </trkpt>
      <trkpt lat="44.5825" lon="0.70535">
        <ele>102</ele>
        <time>2012-02-19T09:43:17Z</time>
      </trkpt>
      <trkpt lat="44.58253" lon="0.70532">
        <ele>102</ele>
        <time>2012-02-19T09:43:18Z</time>
      </trkpt>
      <trkpt lat="44.58256" lon="0.70528">
        <ele>102</ele>
        <time>2012-02-19T09:43:19Z</time>
      </trkpt>
      <trkpt lat="44.58259" lon="0.70524">
        <ele>102</ele>
        <time>2012-02-19T09:43:20Z</time>
      </trkpt>
      <trkpt lat="44.58263" lon="0.7052">
        <ele>102</ele>
        <time>2012-02-19T09:43:21Z</time>
      </trkpt>
      <trkpt lat="44.58266" lon="0.70516">
        <ele>103</ele>
        <time>2012-02-19T09:43:22Z</time>
      </trkpt>
      <trkpt lat="44.5827" lon="0.70512">
        <ele>103</ele>
        <time>2012-02-19T09:43:23Z</time>
      </trkpt>
      <trkpt lat="44.58273" lon="0.70509">
        <ele>103</ele>
        <time>2012-02-19T09:43:24Z</time>
      </trkpt>
      <trkpt lat="44.58276" lon="0.70505">
        <ele>103</ele>
        <time>2012-02-19T09:43:25Z</time>
      </trkpt>
      <trkpt lat="44.58279" lon="0.70501">
        <ele>103</ele>
        <time>2012-02-19T09:43:26Z</time>
      </trkpt>
      <trkpt lat="44.58283" lon="0.70497">
        <ele>103</ele>
        <time>2012-02-19T09:43:27Z</time>
      </trkpt>
      <trkpt lat="44.58286" lon="0.70493">
        <ele>103</ele>
        <time>2012-02-19T09:43:28Z</time>
      </trkpt>
      <trkpt lat="44.5829" lon="0.70489">
        <ele>103</ele>
        <time>2012-02-19T09:43:29Z</time>
      </trkpt>
      <trkpt lat="44.58293" lon="0.70486">
        <ele>103</ele>
        <time>2012-02-19T09:43:30Z</time>
      </trkpt>
      <trkpt lat="44.58297" lon="0.70481">
        <ele>103</ele>
        <time>2012-02-19T09:43:31Z</time>
      </trkpt>
      <trkpt lat="44.583" lon="0.70478">
        <ele>103</ele>
        <time>2012-02-19T09:43:32Z</time>
      </trkpt>
      <trkpt lat="44.58303" lon="0.70474">
        <ele>103</ele>
        <time>2012-02-19T09:43:33Z</time>
      </trkpt>
      <trkpt lat="44.58307" lon="0.7047">
        <ele>103</ele>
        <time>2012-02-19T09:43:34Z</time>
      </trkpt>
      <trkpt lat="44.5831" lon="0.70466">
        <ele>103</ele>
        <time>2012-02-19T09:43:35Z</time>
      </trkpt>
      <trkpt lat="44.58313" lon="0.70462">
        <ele>103</ele>
        <time>2012-02-19T09:43:36Z</time>
      </trkpt>
      <trkpt lat="44.58316" lon="0.70458">
        <ele>103</ele>
        <time>2012-02-19T09:43:37Z</time>
      </trkpt>
      <trkpt lat="44.5832" lon="0.70455">
        <ele>103</ele>
        <time>2012-02-19T09:43:38Z</time>
      </trkpt>
      <trkpt lat="44.58323" lon="0.70451">
        <ele>103</ele>
        <time>2012-02-19T09:43:39Z</time>
      </trkpt>
      <trkpt lat="44.58326" lon="0.70447">
        <ele>103</ele>
        <time>2012-02-19T09:43:40Z</time>
      </trkpt>
      <trkpt lat="44.5833" lon="0.70444">
        <ele>103</ele>
        <time>2012-02-19T09:43:41Z</time>
      </trkpt>
      <trkpt lat="44.58333" lon="0.70441">
        <ele>103</ele>
        <time>2012-02-19T09:43:42Z</time>
      </trkpt>
      <trkpt lat="44.58336" lon="0.70437">
        <ele>103</ele>
        <time>2012-02-19T09:43:43Z</time>
      </trkpt>
      <trkpt lat="44.5834" lon="0.70433">
        <ele>103</ele>
        <time>2012-02-19T09:43:44Z</time>
      </trkpt>
      <trkpt lat="44.58343" lon="0.70429">
        <ele>103</ele>
        <time>2012-02-19T09:43:45Z</time>
      </trkpt>
      <trkpt lat="44.58347" lon="0.70425">
        <ele>103</ele>
        <time>2012-02-19T09:43:46Z</time>
      </trkpt>
      <trkpt lat="44.5835" lon="0.70422">
        <ele>103</ele>
        <time>2012-02-19T09:43:47Z</time>
      </trkpt>
      <trkpt lat="44.58353" lon="0.70418">
        <ele>103</ele>
        <time>2012-02-19T09:43:48Z</time>
      </trkpt>
      <trkpt lat="44.58357" lon="0.70414">
        <ele>103</ele>
        <time>2012-02-19T09:43:49Z</time>
      </trkpt>
      <trkpt lat="44.58361" lon="0.7041">
        <ele>103</ele>
        <time>2012-02-19T09:43:50Z</time>
      </trkpt>
      <trkpt lat="44.58364" lon="0.70407">
        <ele>103</ele>
        <time>2012-02-19T09:43:51Z</time>
      </trkpt>
      <trkpt lat="44.58368" lon="0.70402">
        <ele>103</ele>
        <time>2012-02-19T09:43:52Z</time>
      </trkpt>
      <trkpt lat="44.58371" lon="0.70398">
        <ele>103</ele>
        <time>2012-02-19T09:43:53Z</time>
      </trkpt>
      <trkpt lat="44.58375" lon="0.70394">
        <ele>103</ele>
        <time>2012-02-19T09:43:54Z</time>
      </trkpt>
      <trkpt lat="44.58379" lon="0.7039">
        <ele>103</ele>
        <time>2012-02-19T09:43:55Z</time>
      </trkpt>
      <trkpt lat="44.58382" lon="0.70387">
        <ele>103</ele>
        <time>2012-02-19T09:43:56Z</time>
      </trkpt>
      <trkpt lat="44.58385" lon="0.70384">
        <ele>103</ele>
        <time>2012-02-19T09:43:57Z</time>
      </trkpt>
      <trkpt lat="44.58389" lon="0.70381">
        <ele>103</ele>
        <time>2012-02-19T09:43:58Z</time>
      </trkpt>
      <trkpt lat="44.58392" lon="0.70378">
        <ele>103</ele>
        <time>2012-02-19T09:43:59Z</time>
      </trkpt>
      <trkpt lat="44.58397" lon="0.70376">
        <ele>103</ele>
        <time>2012-02-19T09:44:00Z</time>
      </trkpt>
      <trkpt lat="44.584" lon="0.70374">
        <ele>103</ele>
        <time>2012-02-19T09:44:01Z</time>
      </trkpt>
      <trkpt lat="44.58404" lon="0.70373">
        <ele>103</ele>
        <time>2012-02-19T09:44:02Z</time>
      </trkpt>
      <trkpt lat="44.58409" lon="0.7037">
        <ele>103</ele>
        <time>2012-02-19T09:44:03Z</time>
      </trkpt>
      <trkpt lat="44.58413" lon="0.70369">
        <ele>103</ele>
        <time>2012-02-19T09:44:04Z</time>
      </trkpt>
      <trkpt lat="44.58417" lon="0.70367">
        <ele>103</ele>
        <time>2012-02-19T09:44:05Z</time>
      </trkpt>
      <trkpt lat="44.58421" lon="0.70364">
        <ele>103</ele>
        <time>2012-02-19T09:44:06Z</time>
      </trkpt>
      <trkpt lat="44.58425" lon="0.70363">
        <ele>103</ele>
        <time>2012-02-19T09:44:07Z</time>
      </trkpt>
      <trkpt lat="44.5843" lon="0.70361">
        <ele>103</ele>
        <time>2012-02-19T09:44:08Z</time>
      </trkpt>
      <trkpt lat="44.58434" lon="0.70359">
        <ele>103</ele>
        <time>2012-02-19T09:44:09Z</time>
      </trkpt>
      <trkpt lat="44.58438" lon="0.70358">
        <ele>103</ele>
        <time>2012-02-19T09:44:10Z</time>
      </trkpt>
      <trkpt lat="44.58443" lon="0.70357">
        <ele>103</ele>
        <time>2012-02-19T09:44:11Z</time>
      </trkpt>
      <trkpt lat="44.58446" lon="0.70357">
        <ele>103</ele>
        <time>2012-02-19T09:44:12Z</time>
      </trkpt>
      <trkpt lat="44.58451" lon="0.70355">
        <ele>103</ele>
        <time>2012-02-19T09:44:13Z</time>
      </trkpt>
      <trkpt lat="44.58456" lon="0.70354">
        <ele>103</ele>
        <time>2012-02-19T09:44:14Z</time>
      </trkpt>
      <trkpt lat="44.58461" lon="0.70352">
        <ele>103</ele>
        <time>2012-02-19T09:44:15Z</time>
      </trkpt>
      <trkpt lat="44.58466" lon="0.70351">
        <ele>103</ele>
        <time>2012-02-19T09:44:16Z</time>
      </trkpt>
      <trkpt lat="44.58471" lon="0.70349">
        <ele>103</ele>
        <time>2012-02-19T09:44:17Z</time>
      </trkpt>
      <trkpt lat="44.58475" lon="0.70347">
        <ele>103</ele>
        <time>2012-02-19T09:44:18Z</time>
      </trkpt>
      <trkpt lat="44.5848" lon="0.70345">
        <ele>103</ele>
        <time>2012-02-19T09:44:19Z</time>
      </trkpt>
      <trkpt lat="44.58484" lon="0.70344">
        <ele>103</ele>
        <time>2012-02-19T09:44:20Z</time>
      </trkpt>
      <trkpt lat="44.58489" lon="0.70343">
        <ele>103</ele>
        <time>2012-02-19T09:44:21Z</time>
      </trkpt>
      <trkpt lat="44.58493" lon="0.70342">
        <ele>103</ele>
        <time>2012-02-19T09:44:22Z</time>
      </trkpt>
      <trkpt lat="44.58497" lon="0.7034">
        <ele>103</ele>
        <time>2012-02-19T09:44:23Z</time>
      </trkpt>
      <trkpt lat="44.58501" lon="0.70339">
        <ele>103</ele>
        <time>2012-02-19T09:44:24Z</time>
      </trkpt>
      <trkpt lat="44.58506" lon="0.70337">
        <ele>103</ele>
        <time>2012-02-19T09:44:25Z</time>
      </trkpt>
      <trkpt lat="44.58509" lon="0.70335">
        <ele>103</ele>
        <time>2012-02-19T09:44:26Z</time>
      </trkpt>
      <trkpt lat="44.58514" lon="0.70333">
        <ele>103</ele>
        <time>2012-02-19T09:44:27Z</time>
      </trkpt>
      <trkpt lat="44.58518" lon="0.7033">
        <ele>103</ele>
        <time>2012-02-19T09:44:28Z</time>
      </trkpt>
      <trkpt lat="44.58522" lon="0.70326">
        <ele>103</ele>
        <time>2012-02-19T09:44:29Z</time>
      </trkpt>
      <trkpt lat="44.58526" lon="0.70323">
        <ele>103</ele>
        <time>2012-02-19T09:44:30Z</time>
      </trkpt>
      <trkpt lat="44.5853" lon="0.7032">
        <ele>103</ele>
        <time>2012-02-19T09:44:31Z</time>
      </trkpt>
      <trkpt lat="44.58533" lon="0.70317">
        <ele>103</ele>
        <time>2012-02-19T09:44:32Z</time>
      </trkpt>
      <trkpt lat="44.58537" lon="0.70314">
        <ele>103</ele>
        <time>2012-02-19T09:44:33Z</time>
      </trkpt>
      <trkpt lat="44.58541" lon="0.7031">
        <ele>103</ele>
        <time>2012-02-19T09:44:34Z</time>
      </trkpt>
      <trkpt lat="44.58544" lon="0.70306">
        <ele>103</ele>
        <time>2012-02-19T09:44:35Z</time>
      </trkpt>
      <trkpt lat="44.58548" lon="0.70301">
        <ele>103</ele>
        <time>2012-02-19T09:44:36Z</time>
      </trkpt>
      <trkpt lat="44.58551" lon="0.70297">
        <ele>103</ele>
        <time>2012-02-19T09:44:37Z</time>
      </trkpt>
      <trkpt lat="44.58554" lon="0.70293">
        <ele>103</ele>
        <time>2012-02-19T09:44:38Z</time>
      </trkpt>
      <trkpt lat="44.58556" lon="0.70288">
        <ele>103</ele>
        <time>2012-02-19T09:44:39Z</time>
      </trkpt>
      <trkpt lat="44.58559" lon="0.70284">
        <ele>103</ele>
        <time>2012-02-19T09:44:40Z</time>
      </trkpt>
      <trkpt lat="44.58561" lon="0.70279">
        <ele>103</ele>
        <time>2012-02-19T09:44:41Z</time>
      </trkpt>
      <trkpt lat="44.58564" lon="0.70275">
        <ele>103</ele>
        <time>2012-02-19T09:44:42Z</time>
      </trkpt>
      <trkpt lat="44.58567" lon="0.7027">
        <ele>103</ele>
        <time>2012-02-19T09:44:43Z</time>
      </trkpt>
      <trkpt lat="44.58569" lon="0.70265">
        <ele>103</ele>
        <time>2012-02-19T09:44:44Z</time>
      </trkpt>
      <trkpt lat="44.58571" lon="0.7026">
        <ele>103</ele>
        <time>2012-02-19T09:44:45Z</time>
      </trkpt>
      <trkpt lat="44.58573" lon="0.70256">
        <ele>103</ele>
        <time>2012-02-19T09:44:46Z</time>
      </trkpt>
      <trkpt lat="44.58575" lon="0.70251">
        <ele>103</ele>
        <time>2012-02-19T09:44:47Z</time>
      </trkpt>
      <trkpt lat="44.58578" lon="0.70245">
        <ele>103</ele>
        <time>2012-02-19T09:44:48Z</time>
      </trkpt>
      <trkpt lat="44.5858" lon="0.7024">
        <ele>103</ele>
        <time>2012-02-19T09:44:49Z</time>
      </trkpt>
      <trkpt lat="44.58581" lon="0.70235">
        <ele>103</ele>
        <time>2012-02-19T09:44:50Z</time>
      </trkpt>
      <trkpt lat="44.58583" lon="0.7023">
        <ele>103</ele>
        <time>2012-02-19T09:44:51Z</time>
      </trkpt>
      <trkpt lat="44.58586" lon="0.70224">
        <ele>103</ele>
        <time>2012-02-19T09:44:52Z</time>
      </trkpt>
      <trkpt lat="44.58588" lon="0.70219">
        <ele>103</ele>
        <time>2012-02-19T09:44:53Z</time>
      </trkpt>
      <trkpt lat="44.58591" lon="0.70214">
        <ele>103</ele>
        <time>2012-02-19T09:44:54Z</time>
      </trkpt>
      <trkpt lat="44.58593" lon="0.70208">
        <ele>103</ele>
        <time>2012-02-19T09:44:55Z</time>
      </trkpt>
      <trkpt lat="44.58595" lon="0.70201">
        <ele>103</ele>
        <time>2012-02-19T09:44:56Z</time>
      </trkpt>
      <trkpt lat="44.58597" lon="0.70195">
        <ele>103</ele>
        <time>2012-02-19T09:44:57Z</time>
      </trkpt>
      <trkpt lat="44.58599" lon="0.70189">
        <ele>103</ele>
        <time>2012-02-19T09:44:58Z</time>
      </trkpt>
      <trkpt lat="44.58601" lon="0.70183">
        <ele>103</ele>
        <time>2012-02-19T09:44:59Z</time>
      </trkpt>
      <trkpt lat="44.58604" lon="0.70177">
        <ele>103</ele>
        <time>2012-02-19T09:45:00Z</time>
      </trkpt>
      <trkpt lat="44.58606" lon="0.70171">
        <ele>103</ele>
        <time>2012-02-19T09:45:01Z</time>
      </trkpt>
      <trkpt lat="44.58608" lon="0.70165">
        <ele>103</ele>
        <time>2012-02-19T09:45:02Z</time>
      </trkpt>
      <trkpt lat="44.58609" lon="0.7016">
        <ele>103</ele>
        <time>2012-02-19T09:45:03Z</time>
      </trkpt>
      <trkpt lat="44.58611" lon="0.70154">
        <ele>103</ele>
        <time>2012-02-19T09:45:04Z</time>
      </trkpt>
      <trkpt lat="44.58613" lon="0.70148">
        <ele>104</ele>
        <time>2012-02-19T09:45:05Z</time>
      </trkpt>
      <trkpt lat="44.58616" lon="0.70143">
        <ele>104</ele>
        <time>2012-02-19T09:45:06Z</time>
      </trkpt>
      <trkpt lat="44.58618" lon="0.70136">
        <ele>104</ele>
        <time>2012-02-19T09:45:07Z</time>
      </trkpt>
      <trkpt lat="44.5862" lon="0.7013">
        <ele>105</ele>
        <time>2012-02-19T09:45:08Z</time>
      </trkpt>
      <trkpt lat="44.58622" lon="0.70125">
        <ele>105</ele>
        <time>2012-02-19T09:45:09Z</time>
      </trkpt>
      <trkpt lat="44.58624" lon="0.70119">
        <ele>105</ele>
        <time>2012-02-19T09:45:10Z</time>
      </trkpt>
      <trkpt lat="44.58626" lon="0.70113">
        <ele>105</ele>
        <time>2012-02-19T09:45:11Z</time>
      </trkpt>
      <trkpt lat="44.58628" lon="0.70108">
        <ele>105</ele>
        <time>2012-02-19T09:45:12Z</time>
      </trkpt>
      <trkpt lat="44.5863" lon="0.70102">
        <ele>105</ele>
        <time>2012-02-19T09:45:13Z</time>
      </trkpt>
      <trkpt lat="44.58632" lon="0.70097">
        <ele>105</ele>
        <time>2012-02-19T09:45:14Z</time>
      </trkpt>
      <trkpt lat="44.58635" lon="0.70091">
        <ele>106</ele>
        <time>2012-02-19T09:45:15Z</time>
      </trkpt>
      <trkpt lat="44.58636" lon="0.70086">
        <ele>106</ele>
        <time>2012-02-19T09:45:16Z</time>
      </trkpt>
      <trkpt lat="44.58638" lon="0.7008">
        <ele>106</ele>
        <time>2012-02-19T09:45:17Z</time>
      </trkpt>
      <trkpt lat="44.58641" lon="0.70074">
        <ele>106</ele>
        <time>2012-02-19T09:45:18Z</time>
      </trkpt>
      <trkpt lat="44.58643" lon="0.70069">
        <ele>107</ele>
        <time>2012-02-19T09:45:19Z</time>
      </trkpt>
      <trkpt lat="44.58645" lon="0.70063">
        <ele>107</ele>
        <time>2012-02-19T09:45:20Z</time>
      </trkpt>
      <trkpt lat="44.58647" lon="0.70058">
        <ele>107</ele>
        <time>2012-02-19T09:45:21Z</time>
      </trkpt>
      <trkpt lat="44.58649" lon="0.70052">
        <ele>107</ele>
        <time>2012-02-19T09:45:22Z</time>
      </trkpt>
      <trkpt lat="44.58651" lon="0.70047">
        <ele>107</ele>
        <time>2012-02-19T09:45:23Z</time>
      </trkpt>
      <trkpt lat="44.58652" lon="0.70041">
        <ele>107</ele>
        <time>2012-02-19T09:45:24Z</time>
      </trkpt>
      <trkpt lat="44.58655" lon="0.70035">
        <ele>108</ele>
        <time>2012-02-19T09:45:25Z</time>
      </trkpt>
      <trkpt lat="44.58657" lon="0.7003">
        <ele>108</ele>
        <time>2012-02-19T09:45:26Z</time>
      </trkpt>
      <trkpt lat="44.58659" lon="0.70025">
        <ele>108</ele>
        <time>2012-02-19T09:45:27Z</time>
      </trkpt>
      <trkpt lat="44.58661" lon="0.70019">
        <ele>108</ele>
        <time>2012-02-19T09:45:28Z</time>
      </trkpt>
      <trkpt lat="44.58662" lon="0.70014">
        <ele>108</ele>
        <time>2012-02-19T09:45:29Z</time>
      </trkpt>
      <trkpt lat="44.58664" lon="0.70008">
        <ele>108</ele>
        <time>2012-02-19T09:45:30Z</time>
      </trkpt>
      <trkpt lat="44.58667" lon="0.70003">
        <ele>109</ele>
        <time>2012-02-19T09:45:31Z</time>
      </trkpt>
      <trkpt lat="44.58668" lon="0.69997">
        <ele>109</ele>
        <time>2012-02-19T09:45:32Z</time>
      </trkpt>
      <trkpt lat="44.5867" lon="0.69992">
        <ele>109</ele>
        <time>2012-02-19T09:45:33Z</time>
      </trkpt>
      <trkpt lat="44.58672" lon="0.69986">
        <ele>109</ele>
        <time>2012-02-19T09:45:34Z</time>
      </trkpt>
      <trkpt lat="44.58674" lon="0.6998">
        <ele>109</ele>
        <time>2012-02-19T09:45:35Z</time>
      </trkpt>
      <trkpt lat="44.58676" lon="0.69975">
        <ele>109</ele>
        <time>2012-02-19T09:45:36Z</time>
      </trkpt>
      <trkpt lat="44.58678" lon="0.69969">
        <ele>109</ele>
        <time>2012-02-19T09:45:37Z</time>
      </trkpt>
      <trkpt lat="44.58679" lon="0.69964">
        <ele>109</ele>
        <time>2012-02-19T09:45:38Z</time>
      </trkpt>
      <trkpt lat="44.58681" lon="0.69958">
        <ele>110</ele>
        <time>2012-02-19T09:45:39Z</time>
      </trkpt>
      <trkpt lat="44.58683" lon="0.69952">
        <ele>110</ele>
        <time>2012-02-19T09:45:40Z</time>
      </trkpt>
      <trkpt lat="44.58685" lon="0.69946">
        <ele>110</ele>
        <time>2012-02-19T09:45:41Z</time>
      </trkpt>
      <trkpt lat="44.58686" lon="0.6994">
        <ele>110</ele>
        <time>2012-02-19T09:45:42Z</time>
      </trkpt>
      <trkpt lat="44.58688" lon="0.69934">
        <ele>110</ele>
        <time>2012-02-19T09:45:43Z</time>
      </trkpt>
      <trkpt lat="44.5869" lon="0.69928">
        <ele>111</ele>
        <time>2012-02-19T09:45:44Z</time>
      </trkpt>
      <trkpt lat="44.58692" lon="0.69923">
        <ele>111</ele>
        <time>2012-02-19T09:45:45Z</time>
      </trkpt>
      <trkpt lat="44.58694" lon="0.69916">
        <ele>111</ele>
        <time>2012-02-19T09:45:46Z</time>
      </trkpt>
      <trkpt lat="44.58695" lon="0.69911">
        <ele>111</ele>
        <time>2012-02-19T09:45:47Z</time>
      </trkpt>
      <trkpt lat="44.58697" lon="0.69906">
        <ele>111</ele>
        <time>2012-02-19T09:45:48Z</time>
      </trkpt>
      <trkpt lat="44.58699" lon="0.699">
        <ele>111</ele>
        <time>2012-02-19T09:45:49Z</time>
      </trkpt>
      <trkpt lat="44.587" lon="0.69894">
        <ele>111</ele>
        <time>2012-02-19T09:45:50Z</time>
      </trkpt>
      <trkpt lat="44.58702" lon="0.69888">
        <ele>111</ele>
        <time>2012-02-19T09:45:51Z</time>
      </trkpt>
      <trkpt lat="44.58703" lon="0.69882">
        <ele>111</ele>
        <time>2012-02-19T09:45:52Z</time>
      </trkpt>
      <trkpt lat="44.58705" lon="0.69876">
        <ele>111</ele>
        <time>2012-02-19T09:45:53Z</time>
      </trkpt>
      <trkpt lat="44.58706" lon="0.6987">
        <ele>111</ele>
        <time>2012-02-19T09:45:54Z</time>
      </trkpt>
      <trkpt lat="44.58707" lon="0.69864">
        <ele>111</ele>
        <time>2012-02-19T09:45:55Z</time>
      </trkpt>
      <trkpt lat="44.58709" lon="0.69858">
        <ele>111</ele>
        <time>2012-02-19T09:45:56Z</time>
      </trkpt>
      <trkpt lat="44.58711" lon="0.69852">
        <ele>111</ele>
        <time>2012-02-19T09:45:57Z</time>
      </trkpt>
      <trkpt lat="44.58712" lon="0.69846">
        <ele>111</ele>
        <time>2012-02-19T09:45:58Z</time>
      </trkpt>
      <trkpt lat="44.58714" lon="0.6984">
        <ele>111</ele>
        <time>2012-02-19T09:45:59Z</time>
      </trkpt>
      <trkpt lat="44.58715" lon="0.69834">
        <ele>111</ele>
        <time>2012-02-19T09:46:00Z</time>
      </trkpt>
      <trkpt lat="44.58717" lon="0.69828">
        <ele>111</ele>
        <time>2012-02-19T09:46:01Z</time>
      </trkpt>
      <trkpt lat="44.58718" lon="0.69822">
        <ele>111</ele>
        <time>2012-02-19T09:46:02Z</time>
      </trkpt>
      <trkpt lat="44.5872" lon="0.69816">
        <ele>111</ele>
        <time>2012-02-19T09:46:03Z</time>
      </trkpt>
      <trkpt lat="44.58722" lon="0.6981">
        <ele>111</ele>
        <time>2012-02-19T09:46:04Z</time>
      </trkpt>
      <trkpt lat="44.58723" lon="0.69805">
        <ele>111</ele>
        <time>2012-02-19T09:46:05Z</time>
      </trkpt>
      <trkpt lat="44.58725" lon="0.69799">
        <ele>111</ele>
        <time>2012-02-19T09:46:06Z</time>
      </trkpt>
      <trkpt lat="44.58726" lon="0.69793">
        <ele>111</ele>
        <time>2012-02-19T09:46:07Z</time>
      </trkpt>
      <trkpt lat="44.58728" lon="0.69787">
        <ele>111</ele>
        <time>2012-02-19T09:46:08Z</time>
      </trkpt>
      <trkpt lat="44.58729" lon="0.69781">
        <ele>111</ele>
        <time>2012-02-19T09:46:09Z</time>
      </trkpt>
      <trkpt lat="44.5873" lon="0.69775">
        <ele>111</ele>
        <time>2012-02-19T09:46:10Z</time>
      </trkpt>
      <trkpt lat="44.58732" lon="0.69769">
        <ele>111</ele>
        <time>2012-02-19T09:46:11Z</time>
      </trkpt>
      <trkpt lat="44.58733" lon="0.69763">
        <ele>111</ele>
        <time>2012-02-19T09:46:12Z</time>
      </trkpt>
      <trkpt lat="44.58735" lon="0.69757">
        <ele>111</ele>
        <time>2012-02-19T09:46:13Z</time>
      </trkpt>
      <trkpt lat="44.58736" lon="0.69751">
        <ele>111</ele>
        <time>2012-02-19T09:46:14Z</time>
      </trkpt>
      <trkpt lat="44.58738" lon="0.69745">
        <ele>111</ele>
        <time>2012-02-19T09:46:15Z</time>
      </trkpt>
      <trkpt lat="44.58739" lon="0.69739">
        <ele>111</ele>
        <time>2012-02-19T09:46:16Z</time>
      </trkpt>
      <trkpt lat="44.58741" lon="0.69733">
        <ele>111</ele>
        <time>2012-02-19T09:46:17Z</time>
      </trkpt>
      <trkpt lat="44.58742" lon="0.69727">
        <ele>111</ele>
        <time>2012-02-19T09:46:18Z</time>
      </trkpt>
      <trkpt lat="44.58744" lon="0.69721">
        <ele>111</ele>
        <time>2012-02-19T09:46:19Z</time>
      </trkpt>
      <trkpt lat="44.58745" lon="0.69715">
        <ele>111</ele>
        <time>2012-02-19T09:46:20Z</time>
      </trkpt>
      <trkpt lat="44.58746" lon="0.69709">
        <ele>111</ele>
        <time>2012-02-19T09:46:21Z</time>
      </trkpt>
      <trkpt lat="44.58748" lon="0.69704">
        <ele>111</ele>
        <time>2012-02-19T09:46:22Z</time>
      </trkpt>
      <trkpt lat="44.58749" lon="0.69698">
        <ele>111</ele>
        <time>2012-02-19T09:46:23Z</time>
      </trkpt>
      <trkpt lat="44.58751" lon="0.69692">
        <ele>111</ele>
        <time>2012-02-19T09:46:24Z</time>
      </trkpt>
      <trkpt lat="44.58752" lon="0.69687">
        <ele>111</ele>
        <time>2012-02-19T09:46:25Z</time>
      </trkpt>
      <trkpt lat="44.58754" lon="0.69682">
        <ele>111</ele>
        <time>2012-02-19T09:46:26Z</time>
      </trkpt>
      <trkpt lat="44.58755" lon="0.69676">
        <ele>111</ele>
        <time>2012-02-19T09:46:27Z</time>
      </trkpt>
      <trkpt lat="44.58757" lon="0.6967">
        <ele>111</ele>
        <time>2012-02-19T09:46:28Z</time>
      </trkpt>
      <trkpt lat="44.58759" lon="0.69665">
        <ele>111</ele>
        <time>2012-02-19T09:46:29Z</time>
      </trkpt>
      <trkpt lat="44.5876" lon="0.69659">
        <ele>111</ele>
        <time>2012-02-19T09:46:30Z</time>
      </trkpt>
      <trkpt lat="44.58762" lon="0.69653">
        <ele>111</ele>
        <time>2012-02-19T09:46:31Z</time>
      </trkpt>
      <trkpt lat="44.58764" lon="0.69648">
        <ele>111</ele>
        <time>2012-02-19T09:46:32Z</time>
      </trkpt>
      <trkpt lat="44.58766" lon="0.69642">
        <ele>111</ele>
        <time>2012-02-19T09:46:33Z</time>
      </trkpt>
      <trkpt lat="44.58768" lon="0.69637">
        <ele>111</ele>
        <time>2012-02-19T09:46:34Z</time>
      </trkpt>
      <trkpt lat="44.5877" lon="0.69631">
        <ele>111</ele>
        <time>2012-02-19T09:46:35Z</time>
      </trkpt>
      <trkpt lat="44.58772" lon="0.69626">
        <ele>111</ele>
        <time>2012-02-19T09:46:36Z</time>
      </trkpt>
      <trkpt lat="44.58774" lon="0.69621">
        <ele>112</ele>
        <time>2012-02-19T09:46:37Z</time>
      </trkpt>
      <trkpt lat="44.58777" lon="0.69616">
        <ele>112</ele>
        <time>2012-02-19T09:46:38Z</time>
      </trkpt>
      <trkpt lat="44.5878" lon="0.6961">
        <ele>112</ele>
        <time>2012-02-19T09:46:39Z</time>
      </trkpt>
      <trkpt lat="44.58783" lon="0.69605">
        <ele>112</ele>
        <time>2012-02-19T09:46:40Z</time>
      </trkpt>
      <trkpt lat="44.58787" lon="0.69599">
        <ele>112</ele>
        <time>2012-02-19T09:46:41Z</time>
      </trkpt>
      <trkpt lat="44.5879" lon="0.69594">
        <ele>112</ele>
        <time>2012-02-19T09:46:42Z</time>
      </trkpt>
      <trkpt lat="44.58793" lon="0.69589">
        <ele>112</ele>
        <time>2012-02-19T09:46:43Z</time>
      </trkpt>
      <trkpt lat="44.58797" lon="0.69585">
        <ele>112</ele>
        <time>2012-02-19T09:46:44Z</time>
      </trkpt>
      <trkpt lat="44.588" lon="0.6958">
        <ele>112</ele>
        <time>2012-02-19T09:46:45Z</time>
      </trkpt>
      <trkpt lat="44.58803" lon="0.69576">
        <ele>112</ele>
        <time>2012-02-19T09:46:46Z</time>
      </trkpt>
      <trkpt lat="44.58806" lon="0.69572">
        <ele>112</ele>
        <time>2012-02-19T09:46:47Z</time>
      </trkpt>
      <trkpt lat="44.58809" lon="0.69568">
        <ele>112</ele>
        <time>2012-02-19T09:46:48Z</time>
      </trkpt>
      <trkpt lat="44.58812" lon="0.69564">
        <ele>112</ele>
        <time>2012-02-19T09:46:49Z</time>
      </trkpt>
      <trkpt lat="44.58815" lon="0.6956">
        <ele>112</ele>
        <time>2012-02-19T09:46:50Z</time>
      </trkpt>
      <trkpt lat="44.58818" lon="0.69556">
        <ele>112</ele>
        <time>2012-02-19T09:46:51Z</time>
      </trkpt>
      <trkpt lat="44.58821" lon="0.69552">
        <ele>112</ele>
        <time>2012-02-19T09:46:52Z</time>
      </trkpt>
      <trkpt lat="44.58825" lon="0.69547">
        <ele>112</ele>
        <time>2012-02-19T09:46:53Z</time>
      </trkpt>
      <trkpt lat="44.58828" lon="0.69542">
        <ele>112</ele>
        <time>2012-02-19T09:46:54Z</time>
      </trkpt>
      <trkpt lat="44.58832" lon="0.69536">
        <ele>112</ele>
        <time>2012-02-19T09:46:55Z</time>
      </trkpt>
      <trkpt lat="44.58836" lon="0.69531">
        <ele>112</ele>
        <time>2012-02-19T09:46:56Z</time>
      </trkpt>
      <trkpt lat="44.58839" lon="0.69527">
        <ele>112</ele>
        <time>2012-02-19T09:46:57Z</time>
      </trkpt>
      <trkpt lat="44.58842" lon="0.69522">
        <ele>112</ele>
        <time>2012-02-19T09:46:58Z</time>
      </trkpt>
      <trkpt lat="44.58845" lon="0.69518">
        <ele>112</ele>
        <time>2012-02-19T09:46:59Z</time>
      </trkpt>
      <trkpt lat="44.58848" lon="0.69513">
        <ele>112</ele>
        <time>2012-02-19T09:47:00Z</time>
      </trkpt>
      <trkpt lat="44.58851" lon="0.69509">
        <ele>112</ele>
        <time>2012-02-19T09:47:01Z</time>
      </trkpt>
      <trkpt lat="44.58854" lon="0.69504">
        <ele>112</ele>
        <time>2012-02-19T09:47:02Z</time>
      </trkpt>
      <trkpt lat="44.58857" lon="0.695">
        <ele>112</ele>
        <time>2012-02-19T09:47:03Z</time>
      </trkpt>
      <trkpt lat="44.5886" lon="0.69496">
        <ele>112</ele>
        <time>2012-02-19T09:47:04Z</time>
      </trkpt>
      <trkpt lat="44.58863" lon="0.69491">
        <ele>112</ele>
        <time>2012-02-19T09:47:05Z</time>
      </trkpt>
      <trkpt lat="44.58866" lon="0.69487">
        <ele>112</ele>
        <time>2012-02-19T09:47:06Z</time>
      </trkpt>
      <trkpt lat="44.58869" lon="0.69482">
        <ele>112</ele>
        <time>2012-02-19T09:47:07Z</time>
      </trkpt>
      <trkpt lat="44.58873" lon="0.69477">
        <ele>112</ele>
        <time>2012-02-19T09:47:08Z</time>
      </trkpt>
      <trkpt lat="44.58876" lon="0.69473">
        <ele>112</ele>
        <time>2012-02-19T09:47:09Z</time>
      </trkpt>
      <trkpt lat="44.58879" lon="0.69468">
        <ele>112</ele>
        <time>2012-02-19T09:47:10Z</time>
      </trkpt>
      <trkpt lat="44.58882" lon="0.69464">
        <ele>112</ele>
        <time>2012-02-19T09:47:11Z</time>
      </trkpt>
      <trkpt lat="44.58885" lon="0.69459">
        <ele>112</ele>
        <time>2012-02-19T09:47:12Z</time>
      </trkpt>
      <trkpt lat="44.58888" lon="0.69455">
        <ele>112</ele>
        <time>2012-02-19T09:47:13Z</time>
      </trkpt>
      <trkpt lat="44.58891" lon="0.6945">
        <ele>112</ele>
        <time>2012-02-19T09:47:14Z</time>
      </trkpt>
      <trkpt lat="44.58894" lon="0.69446">
        <ele>112</ele>
        <time>2012-02-19T09:47:15Z</time>
      </trkpt>
      <trkpt lat="44.58897" lon="0.69441">
        <ele>112</ele>
        <time>2012-02-19T09:47:16Z</time>
      </trkpt>
      <trkpt lat="44.589" lon="0.69436">
        <ele>113</ele>
        <time>2012-02-19T09:47:17Z</time>
      </trkpt>
      <trkpt lat="44.58903" lon="0.69431">
        <ele>113</ele>
        <time>2012-02-19T09:47:18Z</time>
      </trkpt>
      <trkpt lat="44.58906" lon="0.69426">
        <ele>113</ele>
        <time>2012-02-19T09:47:19Z</time>
      </trkpt>
      <trkpt lat="44.58909" lon="0.69421">
        <ele>113</ele>
        <time>2012-02-19T09:47:20Z</time>
      </trkpt>
      <trkpt lat="44.58913" lon="0.69415">
        <ele>113</ele>
        <time>2012-02-19T09:47:21Z</time>
      </trkpt>
      <trkpt lat="44.58915" lon="0.6941">
        <ele>113</ele>
        <time>2012-02-19T09:47:22Z</time>
      </trkpt>
      <trkpt lat="44.58918" lon="0.69405">
        <ele>113</ele>
        <time>2012-02-19T09:47:23Z</time>
      </trkpt>
      <trkpt lat="44.58921" lon="0.694">
        <ele>113</ele>
        <time>2012-02-19T09:47:24Z</time>
      </trkpt>
      <trkpt lat="44.58924" lon="0.69395">
        <ele>113</ele>
        <time>2012-02-19T09:47:25Z</time>
      </trkpt>
      <trkpt lat="44.58926" lon="0.6939">
        <ele>113</ele>
        <time>2012-02-19T09:47:26Z</time>
      </trkpt>
      <trkpt lat="44.58928" lon="0.69385">
        <ele>113</ele>
        <time>2012-02-19T09:47:27Z</time>
      </trkpt>
      <trkpt lat="44.5893" lon="0.69381">
        <ele>113</ele>
        <time>2012-02-19T09:47:28Z</time>
      </trkpt>
      <trkpt lat="44.58932" lon="0.69377">
        <ele>113</ele>
        <time>2012-02-19T09:47:29Z</time>
      </trkpt>
      <trkpt lat="44.58934" lon="0.69372">
        <ele>113</ele>
        <time>2012-02-19T09:47:30Z</time>
      </trkpt>
      <trkpt lat="44.58937" lon="0.69367">
        <ele>113</ele>
        <time>2012-02-19T09:47:31Z</time>
      </trkpt>
      <trkpt lat="44.58939" lon="0.69362">
        <ele>114</ele>
        <time>2012-02-19T09:47:32Z</time>
      </trkpt>
      <trkpt lat="44.58941" lon="0.69356">
        <ele>114</ele>
        <time>2012-02-19T09:47:33Z</time>
      </trkpt>
      <trkpt lat="44.58943" lon="0.69351">
        <ele>114</ele>
        <time>2012-02-19T09:47:34Z</time>
      </trkpt>
      <trkpt lat="44.58944" lon="0.69345">
        <ele>114</ele>
        <time>2012-02-19T09:47:35Z</time>
      </trkpt>
      <trkpt lat="44.58946" lon="0.69339">
        <ele>115</ele>
        <time>2012-02-19T09:47:36Z</time>
      </trkpt>
      <trkpt lat="44.58948" lon="0.69334">
        <ele>115</ele>
        <time>2012-02-19T09:47:37Z</time>
      </trkpt>
      <trkpt lat="44.5895" lon="0.69328">
        <ele>115</ele>
        <time>2012-02-19T09:47:38Z</time>
      </trkpt>
      <trkpt lat="44.58952" lon="0.69322">
        <ele>115</ele>
        <time>2012-02-19T09:47:39Z</time>
      </trkpt>
      <trkpt lat="44.58953" lon="0.69316">
        <ele>116</ele>
        <time>2012-02-19T09:47:40Z</time>
      </trkpt>
      <trkpt lat="44.58955" lon="0.6931">
        <ele>116</ele>
        <time>2012-02-19T09:47:41Z</time>
      </trkpt>
      <trkpt lat="44.58957" lon="0.69304">
        <ele>116</ele>
        <time>2012-02-19T09:47:42Z</time>
      </trkpt>
      <trkpt lat="44.58959" lon="0.69298">
        <ele>116</ele>
        <time>2012-02-19T09:47:43Z</time>
      </trkpt>
      <trkpt lat="44.5896" lon="0.69292">
        <ele>116</ele>
        <time>2012-02-19T09:47:44Z</time>
      </trkpt>
      <trkpt lat="44.58962" lon="0.69286">
        <ele>116</ele>
        <time>2012-02-19T09:47:45Z</time>
      </trkpt>
      <trkpt lat="44.58963" lon="0.6928">
        <ele>116</ele>
        <time>2012-02-19T09:47:46Z</time>
      </trkpt>
      <trkpt lat="44.58965" lon="0.69275">
        <ele>116</ele>
        <time>2012-02-19T09:47:47Z</time>
      </trkpt>
      <trkpt lat="44.58967" lon="0.69269">
        <ele>117</ele>
        <time>2012-02-19T09:47:48Z</time>
      </trkpt>
      <trkpt lat="44.58968" lon="0.69263">
        <ele>117</ele>
        <time>2012-02-19T09:47:49Z</time>
      </trkpt>
      <trkpt lat="44.5897" lon="0.69257">
        <ele>117</ele>
        <time>2012-02-19T09:47:50Z</time>
      </trkpt>
      <trkpt lat="44.58972" lon="0.69251">
        <ele>117</ele>
        <time>2012-02-19T09:47:51Z</time>
      </trkpt>
      <trkpt lat="44.58974" lon="0.69245">
        <ele>117</ele>
        <time>2012-02-19T09:47:52Z</time>
      </trkpt>
      <trkpt lat="44.58976" lon="0.69239">
        <ele>117</ele>
        <time>2012-02-19T09:47:53Z</time>
      </trkpt>
      <trkpt lat="44.58978" lon="0.69233">
        <ele>117</ele>
        <time>2012-02-19T09:47:54Z</time>
      </trkpt>
      <trkpt lat="44.58979" lon="0.69227">
        <ele>117</ele>
        <time>2012-02-19T09:47:55Z</time>
      </trkpt>
      <trkpt lat="44.58981" lon="0.69222">
        <ele>117</ele>
        <time>2012-02-19T09:47:56Z</time>
      </trkpt>
      <trkpt lat="44.58983" lon="0.69216">
        <ele>117</ele>
        <time>2012-02-19T09:47:57Z</time>
      </trkpt>
      <trkpt lat="44.58985" lon="0.6921">
        <ele>117</ele>
        <time>2012-02-19T09:47:58Z</time>
      </trkpt>
      <trkpt lat="44.58986" lon="0.69205">
        <ele>117</ele>
        <time>2012-02-19T09:47:59Z</time>
      </trkpt>
      <trkpt lat="44.58988" lon="0.692">
        <ele>117</ele>
        <time>2012-02-19T09:48:00Z</time>
      </trkpt>
      <trkpt lat="44.5899" lon="0.69194">
        <ele>118</ele>
        <time>2012-02-19T09:48:01Z</time>
      </trkpt>
      <trkpt lat="44.58992" lon="0.69188">
        <ele>118</ele>
        <time>2012-02-19T09:48:02Z</time>
      </trkpt>
      <trkpt lat="44.58994" lon="0.69182">
        <ele>118</ele>
        <time>2012-02-19T09:48:03Z</time>
      </trkpt>
      <trkpt lat="44.58995" lon="0.69175">
        <ele>118</ele>
        <time>2012-02-19T09:48:04Z</time>
      </trkpt>
      <trkpt lat="44.58997" lon="0.6917">
        <ele>118</ele>
        <time>2012-02-19T09:48:05Z</time>
      </trkpt>
      <trkpt lat="44.58999" lon="0.69164">
        <ele>118</ele>
        <time>2012-02-19T09:48:06Z</time>
      </trkpt>
      <trkpt lat="44.59" lon="0.69159">
        <ele>118</ele>
        <time>2012-02-19T09:48:07Z</time>
      </trkpt>
      <trkpt lat="44.59002" lon="0.69153">
        <ele>118</ele>
        <time>2012-02-19T09:48:08Z</time>
      </trkpt>
      <trkpt lat="44.59004" lon="0.69148">
        <ele>118</ele>
        <time>2012-02-19T09:48:09Z</time>
      </trkpt>
      <trkpt lat="44.59006" lon="0.69142">
        <ele>118</ele>
        <time>2012-02-19T09:48:10Z</time>
      </trkpt>
      <trkpt lat="44.59008" lon="0.69137">
        <ele>118</ele>
        <time>2012-02-19T09:48:11Z</time>
      </trkpt>
      <trkpt lat="44.59009" lon="0.69131">
        <ele>118</ele>
        <time>2012-02-19T09:48:12Z</time>
      </trkpt>
      <trkpt lat="44.59011" lon="0.69125">
        <ele>118</ele>
        <time>2012-02-19T09:48:13Z</time>
      </trkpt>
      <trkpt lat="44.59012" lon="0.6912">
        <ele>118</ele>
        <time>2012-02-19T09:48:14Z</time>
      </trkpt>
      <trkpt lat="44.59014" lon="0.69114">
        <ele>118</ele>
        <time>2012-02-19T09:48:15Z</time>
      </trkpt>
      <trkpt lat="44.59015" lon="0.69108">
        <ele>118</ele>
        <time>2012-02-19T09:48:16Z</time>
      </trkpt>
      <trkpt lat="44.59017" lon="0.69103">
        <ele>118</ele>
        <time>2012-02-19T09:48:17Z</time>
      </trkpt>
      <trkpt lat="44.59019" lon="0.69097">
        <ele>118</ele>
        <time>2012-02-19T09:48:18Z</time>
      </trkpt>
      <trkpt lat="44.5902" lon="0.69092">
        <ele>118</ele>
        <time>2012-02-19T09:48:19Z</time>
      </trkpt>
      <trkpt lat="44.59022" lon="0.69086">
        <ele>119</ele>
        <time>2012-02-19T09:48:20Z</time>
      </trkpt>
      <trkpt lat="44.59024" lon="0.69081">
        <ele>119</ele>
        <time>2012-02-19T09:48:21Z</time>
      </trkpt>
      <trkpt lat="44.59026" lon="0.69076">
        <ele>119</ele>
        <time>2012-02-19T09:48:22Z</time>
      </trkpt>
      <trkpt lat="44.59027" lon="0.6907">
        <ele>119</ele>
        <time>2012-02-19T09:48:23Z</time>
      </trkpt>
      <trkpt lat="44.59029" lon="0.69065">
        <ele>119</ele>
        <time>2012-02-19T09:48:24Z</time>
      </trkpt>
      <trkpt lat="44.59031" lon="0.69059">
        <ele>120</ele>
        <time>2012-02-19T09:48:25Z</time>
      </trkpt>
      <trkpt lat="44.59032" lon="0.69054">
        <ele>120</ele>
        <time>2012-02-19T09:48:26Z</time>
      </trkpt>
      <trkpt lat="44.59034" lon="0.69049">
        <ele>120</ele>
        <time>2012-02-19T09:48:27Z</time>
      </trkpt>
      <trkpt lat="44.59036" lon="0.69043">
        <ele>120</ele>
        <time>2012-02-19T09:48:28Z</time>
      </trkpt>
      <trkpt lat="44.59037" lon="0.69038">
        <ele>121</ele>
        <time>2012-02-19T09:48:29Z</time>
      </trkpt>
      <trkpt lat="44.59039" lon="0.69032">
        <ele>121</ele>
        <time>2012-02-19T09:48:30Z</time>
      </trkpt>
      <trkpt lat="44.5904" lon="0.69027">
        <ele>121</ele>
        <time>2012-02-19T09:48:31Z</time>
      </trkpt>
      <trkpt lat="44.59042" lon="0.69022">
        <ele>121</ele>
        <time>2012-02-19T09:48:32Z</time>
      </trkpt>
      <trkpt lat="44.59044" lon="0.69017">
        <ele>122</ele>
        <time>2012-02-19T09:48:33Z</time>
      </trkpt>
      <trkpt lat="44.59045" lon="0.69012">
        <ele>122</ele>
        <time>2012-02-19T09:48:34Z</time>
      </trkpt>
      <trkpt lat="44.59047" lon="0.69007">
        <ele>122</ele>
        <time>2012-02-19T09:48:35Z</time>
      </trkpt>
      <trkpt lat="44.59048" lon="0.69001">
        <ele>122</ele>
        <time>2012-02-19T09:48:36Z</time>
      </trkpt>
      <trkpt lat="44.5905" lon="0.68996">
        <ele>123</ele>
        <time>2012-02-19T09:48:37Z</time>
      </trkpt>
      <trkpt lat="44.59051" lon="0.68991">
        <ele>123</ele>
        <time>2012-02-19T09:48:38Z</time>
      </trkpt>
      <trkpt lat="44.59052" lon="0.68985">
        <ele>123</ele>
        <time>2012-02-19T09:48:39Z</time>
      </trkpt>
      <trkpt lat="44.59054" lon="0.6898">
        <ele>124</ele>
        <time>2012-02-19T09:48:40Z</time>
      </trkpt>
      <trkpt lat="44.59055" lon="0.68974">
        <ele>124</ele>
        <time>2012-02-19T09:48:41Z</time>
      </trkpt>
      <trkpt lat="44.59057" lon="0.68969">
        <ele>124</ele>
        <time>2012-02-19T09:48:42Z</time>
      </trkpt>
      <trkpt lat="44.59059" lon="0.68963">
        <ele>125</ele>
        <time>2012-02-19T09:48:43Z</time>
      </trkpt>
      <trkpt lat="44.59061" lon="0.68957">
        <ele>125</ele>
        <time>2012-02-19T09:48:44Z</time>
      </trkpt>
      <trkpt lat="44.59062" lon="0.68951">
        <ele>125</ele>
        <time>2012-02-19T09:48:45Z</time>
      </trkpt>
      <trkpt lat="44.59064" lon="0.68946">
        <ele>125</ele>
        <time>2012-02-19T09:48:46Z</time>
      </trkpt>
      <trkpt lat="44.59066" lon="0.68941">
        <ele>125</ele>
        <time>2012-02-19T09:48:47Z</time>
      </trkpt>
      <trkpt lat="44.59068" lon="0.68935">
        <ele>125</ele>
        <time>2012-02-19T09:48:48Z</time>
      </trkpt>
      <trkpt lat="44.59069" lon="0.6893">
        <ele>125</ele>
        <time>2012-02-19T09:48:49Z</time>
      </trkpt>
      <trkpt lat="44.59071" lon="0.68924">
        <ele>125</ele>
        <time>2012-02-19T09:48:50Z</time>
      </trkpt>
      <trkpt lat="44.59073" lon="0.68919">
        <ele>125</ele>
        <time>2012-02-19T09:48:51Z</time>
      </trkpt>
      <trkpt lat="44.59074" lon="0.68914">
        <ele>126</ele>
        <time>2012-02-19T09:48:52Z</time>
      </trkpt>
      <trkpt lat="44.59076" lon="0.68908">
        <ele>126</ele>
        <time>2012-02-19T09:48:53Z</time>
      </trkpt>
      <trkpt lat="44.59078" lon="0.68903">
        <ele>126</ele>
        <time>2012-02-19T09:48:54Z</time>
      </trkpt>
      <trkpt lat="44.5908" lon="0.68898">
        <ele>126</ele>
        <time>2012-02-19T09:48:55Z</time>
      </trkpt>
      <trkpt lat="44.59082" lon="0.68893">
        <ele>126</ele>
        <time>2012-02-19T09:48:56Z</time>
      </trkpt>
      <trkpt lat="44.59084" lon="0.68887">
        <ele>126</ele>
        <time>2012-02-19T09:48:57Z</time>
      </trkpt>
      <trkpt lat="44.59085" lon="0.68881">
        <ele>127</ele>
        <time>2012-02-19T09:48:58Z</time>
      </trkpt>
      <trkpt lat="44.59087" lon="0.68876">
        <ele>127</ele>
        <time>2012-02-19T09:48:59Z</time>
      </trkpt>
      <trkpt lat="44.59089" lon="0.68871">
        <ele>127</ele>
        <time>2012-02-19T09:49:00Z</time>
      </trkpt>
      <trkpt lat="44.5909" lon="0.68865">
        <ele>127</ele>
        <time>2012-02-19T09:49:01Z</time>
      </trkpt>
      <trkpt lat="44.59092" lon="0.6886">
        <ele>127</ele>
        <time>2012-02-19T09:49:02Z</time>
      </trkpt>
      <trkpt lat="44.59093" lon="0.68854">
        <ele>128</ele>
        <time>2012-02-19T09:49:03Z</time>
      </trkpt>
      <trkpt lat="44.59095" lon="0.68849">
        <ele>128</ele>
        <time>2012-02-19T09:49:04Z</time>
      </trkpt>
      <trkpt lat="44.59097" lon="0.68844">
        <ele>128</ele>
        <time>2012-02-19T09:49:05Z</time>
      </trkpt>
      <trkpt lat="44.59098" lon="0.68838">
        <ele>128</ele>
        <time>2012-02-19T09:49:06Z</time>
      </trkpt>
      <trkpt lat="44.591" lon="0.68832">
        <ele>128</ele>
        <time>2012-02-19T09:49:07Z</time>
      </trkpt>
      <trkpt lat="44.59102" lon="0.68827">
        <ele>128</ele>
        <time>2012-02-19T09:49:08Z</time>
      </trkpt>
      <trkpt lat="44.59103" lon="0.68822">
        <ele>129</ele>
        <time>2012-02-19T09:49:09Z</time>
      </trkpt>
      <trkpt lat="44.59105" lon="0.68816">
        <ele>129</ele>
        <time>2012-02-19T09:49:10Z</time>
      </trkpt>
      <trkpt lat="44.59107" lon="0.68811">
        <ele>129</ele>
        <time>2012-02-19T09:49:11Z</time>
      </trkpt>
      <trkpt lat="44.59108" lon="0.68805">
        <ele>129</ele>
        <time>2012-02-19T09:49:12Z</time>
      </trkpt>
      <trkpt lat="44.5911" lon="0.688">
        <ele>129</ele>
        <time>2012-02-19T09:49:13Z</time>
      </trkpt>
      <trkpt lat="44.59111" lon="0.68795">
        <ele>129</ele>
        <time>2012-02-19T09:49:14Z</time>
      </trkpt>
      <trkpt lat="44.59113" lon="0.68789">
        <ele>129</ele>
        <time>2012-02-19T09:49:15Z</time>
      </trkpt>
      <trkpt lat="44.59115" lon="0.68784">
        <ele>129</ele>
        <time>2012-02-19T09:49:16Z</time>
      </trkpt>
      <trkpt lat="44.59116" lon="0.68779">
        <ele>129</ele>
        <time>2012-02-19T09:49:17Z</time>
      </trkpt>
      <trkpt lat="44.59118" lon="0.68774">
        <ele>130</ele>
        <time>2012-02-19T09:49:18Z</time>
      </trkpt>
      <trkpt lat="44.5912" lon="0.68768">
        <ele>130</ele>
        <time>2012-02-19T09:49:19Z</time>
      </trkpt>
      <trkpt lat="44.59121" lon="0.68763">
        <ele>130</ele>
        <time>2012-02-19T09:49:20Z</time>
      </trkpt>
      <trkpt lat="44.59123" lon="0.68758">
        <ele>130</ele>
        <time>2012-02-19T09:49:21Z</time>
      </trkpt>
      <trkpt lat="44.59125" lon="0.68752">
        <ele>130</ele>
        <time>2012-02-19T09:49:22Z</time>
      </trkpt>
      <trkpt lat="44.59126" lon="0.68747">
        <ele>130</ele>
        <time>2012-02-19T09:49:23Z</time>
      </trkpt>
      <trkpt lat="44.59128" lon="0.68742">
        <ele>130</ele>
        <time>2012-02-19T09:49:24Z</time>
      </trkpt>
      <trkpt lat="44.59129" lon="0.68736">
        <ele>130</ele>
        <time>2012-02-19T09:49:25Z</time>
      </trkpt>
      <trkpt lat="44.59131" lon="0.68731">
        <ele>131</ele>
        <time>2012-02-19T09:49:26Z</time>
      </trkpt>
      <trkpt lat="44.59133" lon="0.68726">
        <ele>131</ele>
        <time>2012-02-19T09:49:27Z</time>
      </trkpt>
      <trkpt lat="44.59134" lon="0.6872">
        <ele>131</ele>
        <time>2012-02-19T09:49:28Z</time>
      </trkpt>
      <trkpt lat="44.59136" lon="0.68715">
        <ele>131</ele>
        <time>2012-02-19T09:49:29Z</time>
      </trkpt>
      <trkpt lat="44.59138" lon="0.68709">
        <ele>131</ele>
        <time>2012-02-19T09:49:30Z</time>
      </trkpt>
      <trkpt lat="44.59139" lon="0.68704">
        <ele>131</ele>
        <time>2012-02-19T09:49:31Z</time>
      </trkpt>
      <trkpt lat="44.59141" lon="0.68699">
        <ele>131</ele>
        <time>2012-02-19T09:49:32Z</time>
      </trkpt>
      <trkpt lat="44.59142" lon="0.68693">
        <ele>131</ele>
        <time>2012-02-19T09:49:33Z</time>
      </trkpt>
      <trkpt lat="44.59144" lon="0.68688">
        <ele>131</ele>
        <time>2012-02-19T09:49:34Z</time>
      </trkpt>
      <trkpt lat="44.59146" lon="0.68683">
        <ele>131</ele>
        <time>2012-02-19T09:49:35Z</time>
      </trkpt>
      <trkpt lat="44.59147" lon="0.68678">
        <ele>131</ele>
        <time>2012-02-19T09:49:36Z</time>
      </trkpt>
      <trkpt lat="44.59149" lon="0.68673">
        <ele>131</ele>
        <time>2012-02-19T09:49:37Z</time>
      </trkpt>
      <trkpt lat="44.59151" lon="0.68668">
        <ele>132</ele>
        <time>2012-02-19T09:49:38Z</time>
      </trkpt>
      <trkpt lat="44.59152" lon="0.68663">
        <ele>132</ele>
        <time>2012-02-19T09:49:39Z</time>
      </trkpt>
      <trkpt lat="44.59154" lon="0.68658">
        <ele>132</ele>
        <time>2012-02-19T09:49:40Z</time>
      </trkpt>
      <trkpt lat="44.59155" lon="0.68653">
        <ele>132</ele>
        <time>2012-02-19T09:49:41Z</time>
      </trkpt>
      <trkpt lat="44.59157" lon="0.68648">
        <ele>132</ele>
        <time>2012-02-19T09:49:42Z</time>
      </trkpt>
      <trkpt lat="44.59158" lon="0.68643">
        <ele>132</ele>
        <time>2012-02-19T09:49:43Z</time>
      </trkpt>
      <trkpt lat="44.5916" lon="0.68639">
        <ele>132</ele>
        <time>2012-02-19T09:49:44Z</time>
      </trkpt>
      <trkpt lat="44.59161" lon="0.68634">
        <ele>133</ele>
        <time>2012-02-19T09:49:45Z</time>
      </trkpt>
      <trkpt lat="44.59163" lon="0.68629">
        <ele>133</ele>
        <time>2012-02-19T09:49:46Z</time>
      </trkpt>
      <trkpt lat="44.59164" lon="0.68624">
        <ele>133</ele>
        <time>2012-02-19T09:49:47Z</time>
      </trkpt>
      <trkpt lat="44.59166" lon="0.68619">
        <ele>133</ele>
        <time>2012-02-19T09:49:48Z</time>
      </trkpt>
      <trkpt lat="44.59167" lon="0.68615">
        <ele>133</ele>
        <time>2012-02-19T09:49:49Z</time>
      </trkpt>
      <trkpt lat="44.59168" lon="0.6861">
        <ele>133</ele>
        <time>2012-02-19T09:49:50Z</time>
      </trkpt>
      <trkpt lat="44.5917" lon="0.68605">
        <ele>133</ele>
        <time>2012-02-19T09:49:51Z</time>
      </trkpt>
      <trkpt lat="44.59171" lon="0.68601">
        <ele>134</ele>
        <time>2012-02-19T09:49:52Z</time>
      </trkpt>
      <trkpt lat="44.59173" lon="0.68596">
        <ele>134</ele>
        <time>2012-02-19T09:49:53Z</time>
      </trkpt>
      <trkpt lat="44.59174" lon="0.68591">
        <ele>134</ele>
        <time>2012-02-19T09:49:54Z</time>
      </trkpt>
      <trkpt lat="44.59175" lon="0.68587">
        <ele>134</ele>
        <time>2012-02-19T09:49:55Z</time>
      </trkpt>
      <trkpt lat="44.59177" lon="0.68582">
        <ele>134</ele>
        <time>2012-02-19T09:49:56Z</time>
      </trkpt>
      <trkpt lat="44.59178" lon="0.68578">
        <ele>134</ele>
        <time>2012-02-19T09:49:57Z</time>
      </trkpt>
      <trkpt lat="44.5918" lon="0.68573">
        <ele>134</ele>
        <time>2012-02-19T09:49:58Z</time>
      </trkpt>
      <trkpt lat="44.59181" lon="0.68568">
        <ele>134</ele>
        <time>2012-02-19T09:49:59Z</time>
      </trkpt>
      <trkpt lat="44.59183" lon="0.68564">
        <ele>135</ele>
        <time>2012-02-19T09:50:00Z</time>
      </trkpt>
      <trkpt lat="44.59184" lon="0.68559">
        <ele>135</ele>
        <time>2012-02-19T09:50:01Z</time>
      </trkpt>
      <trkpt lat="44.59185" lon="0.68555">
        <ele>135</ele>
        <time>2012-02-19T09:50:02Z</time>
      </trkpt>
      <trkpt lat="44.59187" lon="0.6855">
        <ele>135</ele>
        <time>2012-02-19T09:50:03Z</time>
      </trkpt>
      <trkpt lat="44.59188" lon="0.68546">
        <ele>135</ele>
        <time>2012-02-19T09:50:04Z</time>
      </trkpt>
      <trkpt lat="44.59189" lon="0.68541">
        <ele>135</ele>
        <time>2012-02-19T09:50:05Z</time>
      </trkpt>
      <trkpt lat="44.59191" lon="0.68537">
        <ele>136</ele>
        <time>2012-02-19T09:50:06Z</time>
      </trkpt>
      <trkpt lat="44.59192" lon="0.68532">
        <ele>136</ele>
        <time>2012-02-19T09:50:07Z</time>
      </trkpt>
      <trkpt lat="44.59194" lon="0.68528">
        <ele>136</ele>
        <time>2012-02-19T09:50:08Z</time>
      </trkpt>
      <trkpt lat="44.59195" lon="0.68524">
        <ele>136</ele>
        <time>2012-02-19T09:50:09Z</time>
      </trkpt>
      <trkpt lat="44.59196" lon="0.68519">
        <ele>136</ele>
        <time>2012-02-19T09:50:10Z</time>
      </trkpt>
      <trkpt lat="44.59198" lon="0.68515">
        <ele>136</ele>
        <time>2012-02-19T09:50:11Z</time>
      </trkpt>
      <trkpt lat="44.59199" lon="0.68511">
        <ele>136</ele>
        <time>2012-02-19T09:50:12Z</time>
      </trkpt>
      <trkpt lat="44.59201" lon="0.68506">
        <ele>137</ele>
        <time>2012-02-19T09:50:13Z</time>
      </trkpt>
      <trkpt lat="44.59202" lon="0.68501">
        <ele>137</ele>
        <time>2012-02-19T09:50:14Z</time>
      </trkpt>
      <trkpt lat="44.59204" lon="0.68497">
        <ele>137</ele>
        <time>2012-02-19T09:50:15Z</time>
      </trkpt>
      <trkpt lat="44.59205" lon="0.68492">
        <ele>137</ele>
        <time>2012-02-19T09:50:16Z</time>
      </trkpt>
      <trkpt lat="44.59206" lon="0.68488">
        <ele>138</ele>
        <time>2012-02-19T09:50:17Z</time>
      </trkpt>
      <trkpt lat="44.59208" lon="0.68483">
        <ele>138</ele>
        <time>2012-02-19T09:50:18Z</time>
      </trkpt>
      <trkpt lat="44.59209" lon="0.68478">
        <ele>138</ele>
        <time>2012-02-19T09:50:19Z</time>
      </trkpt>
      <trkpt lat="44.59211" lon="0.68473">
        <ele>138</ele>
        <time>2012-02-19T09:50:20Z</time>
      </trkpt>
      <trkpt lat="44.59212" lon="0.68468">
        <ele>138</ele>
        <time>2012-02-19T09:50:21Z</time>
      </trkpt>
      <trkpt lat="44.59214" lon="0.68464">
        <ele>138</ele>
        <time>2012-02-19T09:50:22Z</time>
      </trkpt>
      <trkpt lat="44.59215" lon="0.68459">
        <ele>138</ele>
        <time>2012-02-19T09:50:23Z</time>
      </trkpt>
      <trkpt lat="44.59217" lon="0.68454">
        <ele>139</ele>
        <time>2012-02-19T09:50:24Z</time>
      </trkpt>
      <trkpt lat="44.59218" lon="0.6845">
        <ele>139</ele>
        <time>2012-02-19T09:50:25Z</time>
      </trkpt>
      <trkpt lat="44.5922" lon="0.68445">
        <ele>139</ele>
        <time>2012-02-19T09:50:26Z</time>
      </trkpt>
      <trkpt lat="44.59221" lon="0.68441">
        <ele>139</ele>
        <time>2012-02-19T09:50:27Z</time>
      </trkpt>
      <trkpt lat="44.59222" lon="0.68436">
        <ele>140</ele>
        <time>2012-02-19T09:50:28Z</time>
      </trkpt>
      <trkpt lat="44.59223" lon="0.68432">
        <ele>140</ele>
        <time>2012-02-19T09:50:29Z</time>
      </trkpt>
      <trkpt lat="44.59225" lon="0.68427">
        <ele>140</ele>
        <time>2012-02-19T09:50:30Z</time>
      </trkpt>
      <trkpt lat="44.59226" lon="0.68423">
        <ele>140</ele>
        <time>2012-02-19T09:50:31Z</time>
      </trkpt>
      <trkpt lat="44.59227" lon="0.68418">
        <ele>140</ele>
        <time>2012-02-19T09:50:32Z</time>
      </trkpt>
      <trkpt lat="44.59229" lon="0.68414">
        <ele>140</ele>
        <time>2012-02-19T09:50:33Z</time>
      </trkpt>
      <trkpt lat="44.5923" lon="0.6841">
        <ele>140</ele>
        <time>2012-02-19T09:50:34Z</time>
      </trkpt>
      <trkpt lat="44.59232" lon="0.68405">
        <ele>140</ele>
        <time>2012-02-19T09:50:35Z</time>
      </trkpt>
      <trkpt lat="44.59234" lon="0.68401">
        <ele>140</ele>
        <time>2012-02-19T09:50:36Z</time>
      </trkpt>
      <trkpt lat="44.59235" lon="0.68397">
        <ele>140</ele>
        <time>2012-02-19T09:50:37Z</time>
      </trkpt>
      <trkpt lat="44.59237" lon="0.68393">
        <ele>140</ele>
        <time>2012-02-19T09:50:38Z</time>
      </trkpt>
      <trkpt lat="44.59239" lon="0.68388">
        <ele>140</ele>
        <time>2012-02-19T09:50:39Z</time>
      </trkpt>
      <trkpt lat="44.59241" lon="0.68384">
        <ele>141</ele>
        <time>2012-02-19T09:50:40Z</time>
      </trkpt>
      <trkpt lat="44.59243" lon="0.6838">
        <ele>141</ele>
        <time>2012-02-19T09:50:41Z</time>
      </trkpt>
      <trkpt lat="44.59245" lon="0.68376">
        <ele>141</ele>
        <time>2012-02-19T09:50:42Z</time>
      </trkpt>
      <trkpt lat="44.59247" lon="0.68372">
        <ele>141</ele>
        <time>2012-02-19T09:50:43Z</time>
      </trkpt>
      <trkpt lat="44.5925" lon="0.68368">
        <ele>141</ele>
        <time>2012-02-19T09:50:44Z</time>
      </trkpt>
      <trkpt lat="44.59252" lon="0.68364">
        <ele>141</ele>
        <time>2012-02-19T09:50:45Z</time>
      </trkpt>
      <trkpt lat="44.59254" lon="0.6836">
        <ele>141</ele>
        <time>2012-02-19T09:50:46Z</time>
      </trkpt>
      <trkpt lat="44.59256" lon="0.68357">
        <ele>141</ele>
        <time>2012-02-19T09:50:47Z</time>
      </trkpt>
      <trkpt lat="44.59259" lon="0.68352">
        <ele>141</ele>
        <time>2012-02-19T09:50:48Z</time>
      </trkpt>
      <trkpt lat="44.59261" lon="0.68348">
        <ele>141</ele>
        <time>2012-02-19T09:50:49Z</time>
      </trkpt>
      <trkpt lat="44.59264" lon="0.68344">
        <ele>141</ele>
        <time>2012-02-19T09:50:50Z</time>
      </trkpt>
      <trkpt lat="44.59266" lon="0.6834">
        <ele>141</ele>
        <time>2012-02-19T09:50:51Z</time>
      </trkpt>
      <trkpt lat="44.59268" lon="0.68337">
        <ele>141</ele>
        <time>2012-02-19T09:50:52Z</time>
      </trkpt>
      <trkpt lat="44.5927" lon="0.68334">
        <ele>141</ele>
        <time>2012-02-19T09:50:53Z</time>
      </trkpt>
      <trkpt lat="44.59272" lon="0.68331">
        <ele>141</ele>
        <time>2012-02-19T09:50:54Z</time>
      </trkpt>
      <trkpt lat="44.59274" lon="0.68328">
        <ele>141</ele>
        <time>2012-02-19T09:50:55Z</time>
      </trkpt>
      <trkpt lat="44.59276" lon="0.68325">
        <ele>141</ele>
        <time>2012-02-19T09:50:56Z</time>
      </trkpt>
      <trkpt lat="44.59277" lon="0.68322">
        <ele>141</ele>
        <time>2012-02-19T09:50:57Z</time>
      </trkpt>
      <trkpt lat="44.59279" lon="0.68318">
        <ele>141</ele>
        <time>2012-02-19T09:50:58Z</time>
      </trkpt>
      <trkpt lat="44.59281" lon="0.68315">
        <ele>141</ele>
        <time>2012-02-19T09:50:59Z</time>
      </trkpt>
      <trkpt lat="44.59283" lon="0.68311">
        <ele>141</ele>
        <time>2012-02-19T09:51:00Z</time>
      </trkpt>
      <trkpt lat="44.59285" lon="0.68308">
        <ele>141</ele>
        <time>2012-02-19T09:51:01Z</time>
      </trkpt>
      <trkpt lat="44.59286" lon="0.68304">
        <ele>141</ele>
        <time>2012-02-19T09:51:02Z</time>
      </trkpt>
      <trkpt lat="44.59288" lon="0.683">
        <ele>141</ele>
        <time>2012-02-19T09:51:03Z</time>
      </trkpt>
      <trkpt lat="44.5929" lon="0.68297">
        <ele>141</ele>
        <time>2012-02-19T09:51:04Z</time>
      </trkpt>
      <trkpt lat="44.59291" lon="0.68294">
        <ele>141</ele>
        <time>2012-02-19T09:51:05Z</time>
      </trkpt>
      <trkpt lat="44.59293" lon="0.68291">
        <ele>141</ele>
        <time>2012-02-19T09:51:06Z</time>
      </trkpt>
      <trkpt lat="44.59295" lon="0.68289">
        <ele>141</ele>
        <time>2012-02-19T09:51:07Z</time>
      </trkpt>
      <trkpt lat="44.59297" lon="0.68286">
        <ele>141</ele>
        <time>2012-02-19T09:51:08Z</time>
      </trkpt>
      <trkpt lat="44.59299" lon="0.68283">
        <ele>141</ele>
        <time>2012-02-19T09:51:09Z</time>
      </trkpt>
      <trkpt lat="44.59301" lon="0.6828">
        <ele>141</ele>
        <time>2012-02-19T09:51:10Z</time>
      </trkpt>
      <trkpt lat="44.59303" lon="0.68278">
        <ele>141</ele>
        <time>2012-02-19T09:51:11Z</time>
      </trkpt>
      <trkpt lat="44.59306" lon="0.68274">
        <ele>141</ele>
        <time>2012-02-19T09:51:12Z</time>
      </trkpt>
      <trkpt lat="44.59308" lon="0.68271">
        <ele>141</ele>
        <time>2012-02-19T09:51:13Z</time>
      </trkpt>
      <trkpt lat="44.5931" lon="0.68268">
        <ele>141</ele>
        <time>2012-02-19T09:51:14Z</time>
      </trkpt>
      <trkpt lat="44.59312" lon="0.68265">
        <ele>141</ele>
        <time>2012-02-19T09:51:15Z</time>
      </trkpt>
      <trkpt lat="44.59314" lon="0.68262">
        <ele>142</ele>
        <time>2012-02-19T09:51:16Z</time>
      </trkpt>
      <trkpt lat="44.59316" lon="0.68259">
        <ele>142</ele>
        <time>2012-02-19T09:51:17Z</time>
      </trkpt>
      <trkpt lat="44.59318" lon="0.68256">
        <ele>142</ele>
        <time>2012-02-19T09:51:18Z</time>
      </trkpt>
      <trkpt lat="44.59321" lon="0.68253">
        <ele>142</ele>
        <time>2012-02-19T09:51:19Z</time>
      </trkpt>
      <trkpt lat="44.59323" lon="0.6825">
        <ele>143</ele>
        <time>2012-02-19T09:51:20Z</time>
      </trkpt>
      <trkpt lat="44.59325" lon="0.68247">
        <ele>143</ele>
        <time>2012-02-19T09:51:21Z</time>
      </trkpt>
      <trkpt lat="44.59327" lon="0.68243">
        <ele>143</ele>
        <time>2012-02-19T09:51:22Z</time>
      </trkpt>
      <trkpt lat="44.59329" lon="0.6824">
        <ele>144</ele>
        <time>2012-02-19T09:51:23Z</time>
      </trkpt>
      <trkpt lat="44.59332" lon="0.68238">
        <ele>144</ele>
        <time>2012-02-19T09:51:24Z</time>
      </trkpt>
      <trkpt lat="44.59334" lon="0.68235">
        <ele>144</ele>
        <time>2012-02-19T09:51:25Z</time>
      </trkpt>
      <trkpt lat="44.59336" lon="0.68232">
        <ele>144</ele>
        <time>2012-02-19T09:51:26Z</time>
      </trkpt>
      <trkpt lat="44.59339" lon="0.68229">
        <ele>145</ele>
        <time>2012-02-19T09:51:27Z</time>
      </trkpt>
      <trkpt lat="44.59341" lon="0.68225">
        <ele>145</ele>
        <time>2012-02-19T09:51:28Z</time>
      </trkpt>
      <trkpt lat="44.59343" lon="0.68222">
        <ele>145</ele>
        <time>2012-02-19T09:51:29Z</time>
      </trkpt>
      <trkpt lat="44.59346" lon="0.68219">
        <ele>145</ele>
        <time>2012-02-19T09:51:30Z</time>
      </trkpt>
      <trkpt lat="44.59348" lon="0.68216">
        <ele>145</ele>
        <time>2012-02-19T09:51:31Z</time>
      </trkpt>
      <trkpt lat="44.5935" lon="0.68213">
        <ele>145</ele>
        <time>2012-02-19T09:51:32Z</time>
      </trkpt>
      <trkpt lat="44.59352" lon="0.6821">
        <ele>145</ele>
        <time>2012-02-19T09:51:33Z</time>
      </trkpt>
      <trkpt lat="44.59354" lon="0.68207">
        <ele>145</ele>
        <time>2012-02-19T09:51:34Z</time>
      </trkpt>
      <trkpt lat="44.59357" lon="0.68204">
        <ele>145</ele>
        <time>2012-02-19T09:51:35Z</time>
      </trkpt>
      <trkpt lat="44.59359" lon="0.682">
        <ele>145</ele>
        <time>2012-02-19T09:51:36Z</time>
      </trkpt>
      <trkpt lat="44.59361" lon="0.68197">
        <ele>145</ele>
        <time>2012-02-19T09:51:37Z</time>
      </trkpt>
      <trkpt lat="44.59364" lon="0.68195">
        <ele>145</ele>
        <time>2012-02-19T09:51:38Z</time>
      </trkpt>
      <trkpt lat="44.59367" lon="0.68192">
        <ele>145</ele>
        <time>2012-02-19T09:51:39Z</time>
      </trkpt>
      <trkpt lat="44.59369" lon="0.68189">
        <ele>145</ele>
        <time>2012-02-19T09:51:40Z</time>
      </trkpt>
      <trkpt lat="44.59371" lon="0.68186">
        <ele>146</ele>
        <time>2012-02-19T09:51:41Z</time>
      </trkpt>
      <trkpt lat="44.59374" lon="0.68183">
        <ele>146</ele>
        <time>2012-02-19T09:51:42Z</time>
      </trkpt>
      <trkpt lat="44.59376" lon="0.6818">
        <ele>146</ele>
        <time>2012-02-19T09:51:43Z</time>
      </trkpt>
      <trkpt lat="44.59379" lon="0.68177">
        <ele>146</ele>
        <time>2012-02-19T09:51:44Z</time>
      </trkpt>
      <trkpt lat="44.59381" lon="0.68174">
        <ele>146</ele>
        <time>2012-02-19T09:51:45Z</time>
      </trkpt>
      <trkpt lat="44.59384" lon="0.68172">
        <ele>147</ele>
        <time>2012-02-19T09:51:46Z</time>
      </trkpt>
      <trkpt lat="44.59387" lon="0.68169">
        <ele>147</ele>
        <time>2012-02-19T09:51:47Z</time>
      </trkpt>
      <trkpt lat="44.59389" lon="0.68166">
        <ele>147</ele>
        <time>2012-02-19T09:51:48Z</time>
      </trkpt>
      <trkpt lat="44.59392" lon="0.68164">
        <ele>148</ele>
        <time>2012-02-19T09:51:49Z</time>
      </trkpt>
      <trkpt lat="44.59394" lon="0.68161">
        <ele>148</ele>
        <time>2012-02-19T09:51:50Z</time>
      </trkpt>
      <trkpt lat="44.59396" lon="0.68158">
        <ele>148</ele>
        <time>2012-02-19T09:51:51Z</time>
      </trkpt>
      <trkpt lat="44.59398" lon="0.68155">
        <ele>148</ele>
        <time>2012-02-19T09:51:52Z</time>
      </trkpt>
      <trkpt lat="44.59401" lon="0.68152">
        <ele>149</ele>
        <time>2012-02-19T09:51:53Z</time>
      </trkpt>
      <trkpt lat="44.59403" lon="0.68149">
        <ele>149</ele>
        <time>2012-02-19T09:51:54Z</time>
      </trkpt>
      <trkpt lat="44.59406" lon="0.68146">
        <ele>149</ele>
        <time>2012-02-19T09:51:55Z</time>
      </trkpt>
      <trkpt lat="44.59408" lon="0.68144">
        <ele>149</ele>
        <time>2012-02-19T09:51:56Z</time>
      </trkpt>
      <trkpt lat="44.5941" lon="0.68141">
        <ele>149</ele>
        <time>2012-02-19T09:51:57Z</time>
      </trkpt>
      <trkpt lat="44.59413" lon="0.68138">
        <ele>150</ele>
        <time>2012-02-19T09:51:58Z</time>
      </trkpt>
      <trkpt lat="44.59415" lon="0.68135">
        <ele>150</ele>
        <time>2012-02-19T09:51:59Z</time>
      </trkpt>
      <trkpt lat="44.59417" lon="0.68132">
        <ele>150</ele>
        <time>2012-02-19T09:52:00Z</time>
      </trkpt>
      <trkpt lat="44.5942" lon="0.68129">
        <ele>150</ele>
        <time>2012-02-19T09:52:01Z</time>
      </trkpt>
      <trkpt lat="44.59422" lon="0.68127">
        <ele>151</ele>
        <time>2012-02-19T09:52:02Z</time>
      </trkpt>
      <trkpt lat="44.59425" lon="0.68124">
        <ele>151</ele>
        <time>2012-02-19T09:52:03Z</time>
      </trkpt>
      <trkpt lat="44.59427" lon="0.6812">
        <ele>151</ele>
        <time>2012-02-19T09:52:04Z</time>
      </trkpt>
      <trkpt lat="44.5943" lon="0.68117">
        <ele>151</ele>
        <time>2012-02-19T09:52:05Z</time>
      </trkpt>
      <trkpt lat="44.59432" lon="0.68114">
        <ele>151</ele>
        <time>2012-02-19T09:52:06Z</time>
      </trkpt>
      <trkpt lat="44.59435" lon="0.68111">
        <ele>151</ele>
        <time>2012-02-19T09:52:07Z</time>
      </trkpt>
      <trkpt lat="44.59437" lon="0.68107">
        <ele>151</ele>
        <time>2012-02-19T09:52:08Z</time>
      </trkpt>
      <trkpt lat="44.59439" lon="0.68104">
        <ele>151</ele>
        <time>2012-02-19T09:52:09Z</time>
      </trkpt>
      <trkpt lat="44.59441" lon="0.68102">
        <ele>151</ele>
        <time>2012-02-19T09:52:10Z</time>
      </trkpt>
      <trkpt lat="44.59444" lon="0.68099">
        <ele>151</ele>
        <time>2012-02-19T09:52:11Z</time>
      </trkpt>
      <trkpt lat="44.59446" lon="0.68096">
        <ele>151</ele>
        <time>2012-02-19T09:52:12Z</time>
      </trkpt>
      <trkpt lat="44.59449" lon="0.68093">
        <ele>151</ele>
        <time>2012-02-19T09:52:13Z</time>
      </trkpt>
      <trkpt lat="44.59452" lon="0.6809">
        <ele>152</ele>
        <time>2012-02-19T09:52:14Z</time>
      </trkpt>
      <trkpt lat="44.59454" lon="0.68087">
        <ele>152</ele>
        <time>2012-02-19T09:52:15Z</time>
      </trkpt>
      <trkpt lat="44.59457" lon="0.68084">
        <ele>152</ele>
        <time>2012-02-19T09:52:16Z</time>
      </trkpt>
      <trkpt lat="44.59459" lon="0.68081">
        <ele>152</ele>
        <time>2012-02-19T09:52:17Z</time>
      </trkpt>
      <trkpt lat="44.59462" lon="0.68079">
        <ele>152</ele>
        <time>2012-02-19T09:52:18Z</time>
      </trkpt>
      <trkpt lat="44.59464" lon="0.68076">
        <ele>152</ele>
        <time>2012-02-19T09:52:19Z</time>
      </trkpt>
      <trkpt lat="44.59467" lon="0.68073">
        <ele>152</ele>
        <time>2012-02-19T09:52:20Z</time>
      </trkpt>
      <trkpt lat="44.59469" lon="0.6807">
        <ele>152</ele>
        <time>2012-02-19T09:52:21Z</time>
      </trkpt>
      <trkpt lat="44.59472" lon="0.68068">
        <ele>152</ele>
        <time>2012-02-19T09:52:22Z</time>
      </trkpt>
      <trkpt lat="44.59475" lon="0.68065">
        <ele>152</ele>
        <time>2012-02-19T09:52:23Z</time>
      </trkpt>
      <trkpt lat="44.59477" lon="0.68063">
        <ele>152</ele>
        <time>2012-02-19T09:52:24Z</time>
      </trkpt>
      <trkpt lat="44.5948" lon="0.6806">
        <ele>152</ele>
        <time>2012-02-19T09:52:25Z</time>
      </trkpt>
      <trkpt lat="44.59483" lon="0.68058">
        <ele>152</ele>
        <time>2012-02-19T09:52:26Z</time>
      </trkpt>
      <trkpt lat="44.59486" lon="0.68055">
        <ele>152</ele>
        <time>2012-02-19T09:52:27Z</time>
      </trkpt>
      <trkpt lat="44.59488" lon="0.68053">
        <ele>152</ele>
        <time>2012-02-19T09:52:28Z</time>
      </trkpt>
      <trkpt lat="44.59491" lon="0.6805">
        <ele>152</ele>
        <time>2012-02-19T09:52:29Z</time>
      </trkpt>
      <trkpt lat="44.59494" lon="0.68048">
        <ele>152</ele>
        <time>2012-02-19T09:52:30Z</time>
      </trkpt>
      <trkpt lat="44.59497" lon="0.68046">
        <ele>152</ele>
        <time>2012-02-19T09:52:31Z</time>
      </trkpt>
      <trkpt lat="44.595" lon="0.68044">
        <ele>152</ele>
        <time>2012-02-19T09:52:32Z</time>
      </trkpt>
      <trkpt lat="44.59502" lon="0.68042">
        <ele>152</ele>
        <time>2012-02-19T09:52:33Z</time>
      </trkpt>
      <trkpt lat="44.59505" lon="0.68041">
        <ele>153</ele>
        <time>2012-02-19T09:52:34Z</time>
      </trkpt>
      <trkpt lat="44.59507" lon="0.68038">
        <ele>153</ele>
        <time>2012-02-19T09:52:35Z</time>
      </trkpt>
      <trkpt lat="44.5951" lon="0.68037">
        <ele>153</ele>
        <time>2012-02-19T09:52:36Z</time>
      </trkpt>
      <trkpt lat="44.59512" lon="0.68035">
        <ele>153</ele>
        <time>2012-02-19T09:52:37Z</time>
      </trkpt>
      <trkpt lat="44.59515" lon="0.68033">
        <ele>154</ele>
        <time>2012-02-19T09:52:38Z</time>
      </trkpt>
      <trkpt lat="44.59518" lon="0.68031">
        <ele>154</ele>
        <time>2012-02-19T09:52:39Z</time>
      </trkpt>
      <trkpt lat="44.5952" lon="0.68029">
        <ele>154</ele>
        <time>2012-02-19T09:52:40Z</time>
      </trkpt>
      <trkpt lat="44.59523" lon="0.68026">
        <ele>154</ele>
        <time>2012-02-19T09:52:41Z</time>
      </trkpt>
      <trkpt lat="44.59526" lon="0.68024">
        <ele>154</ele>
        <time>2012-02-19T09:52:42Z</time>
      </trkpt>
      <trkpt lat="44.59529" lon="0.68023">
        <ele>154</ele>
        <time>2012-02-19T09:52:43Z</time>
      </trkpt>
      <trkpt lat="44.59532" lon="0.68021">
        <ele>154</ele>
        <time>2012-02-19T09:52:44Z</time>
      </trkpt>
      <trkpt lat="44.59534" lon="0.68019">
        <ele>154</ele>
        <time>2012-02-19T09:52:45Z</time>
      </trkpt>
      <trkpt lat="44.59537" lon="0.68018">
        <ele>154</ele>
        <time>2012-02-19T09:52:46Z</time>
      </trkpt>
      <trkpt lat="44.5954" lon="0.68016">
        <ele>154</ele>
        <time>2012-02-19T09:52:47Z</time>
      </trkpt>
      <trkpt lat="44.59542" lon="0.68015">
        <ele>154</ele>
        <time>2012-02-19T09:52:48Z</time>
      </trkpt>
      <trkpt lat="44.59545" lon="0.68014">
        <ele>154</ele>
        <time>2012-02-19T09:52:49Z</time>
      </trkpt>
      <trkpt lat="44.59548" lon="0.68012">
        <ele>154</ele>
        <time>2012-02-19T09:52:50Z</time>
      </trkpt>
      <trkpt lat="44.5955" lon="0.68011">
        <ele>154</ele>
        <time>2012-02-19T09:52:51Z</time>
      </trkpt>
      <trkpt lat="44.59553" lon="0.6801">
        <ele>154</ele>
        <time>2012-02-19T09:52:52Z</time>
      </trkpt>
      <trkpt lat="44.59556" lon="0.68008">
        <ele>154</ele>
        <time>2012-02-19T09:52:53Z</time>
      </trkpt>
      <trkpt lat="44.59558" lon="0.68007">
        <ele>154</ele>
        <time>2012-02-19T09:52:54Z</time>
      </trkpt>
      <trkpt lat="44.59561" lon="0.68005">
        <ele>154</ele>
        <time>2012-02-19T09:52:55Z</time>
      </trkpt>
      <trkpt lat="44.59563" lon="0.68004">
        <ele>154</ele>
        <time>2012-02-19T09:52:56Z</time>
      </trkpt>
      <trkpt lat="44.59566" lon="0.68003">
        <ele>154</ele>
        <time>2012-02-19T09:52:57Z</time>
      </trkpt>
      <trkpt lat="44.59568" lon="0.68002">
        <ele>154</ele>
        <time>2012-02-19T09:52:58Z</time>
      </trkpt>
      <trkpt lat="44.59571" lon="0.68001">
        <ele>155</ele>
        <time>2012-02-19T09:52:59Z</time>
      </trkpt>
      <trkpt lat="44.59573" lon="0.68">
        <ele>155</ele>
        <time>2012-02-19T09:53:00Z</time>
      </trkpt>
      <trkpt lat="44.59576" lon="0.67999">
        <ele>155</ele>
        <time>2012-02-19T09:53:01Z</time>
      </trkpt>
      <trkpt lat="44.59578" lon="0.67998">
        <ele>155</ele>
        <time>2012-02-19T09:53:02Z</time>
      </trkpt>
      <trkpt lat="44.59581" lon="0.67997">
        <ele>155</ele>
        <time>2012-02-19T09:53:03Z</time>
      </trkpt>
      <trkpt lat="44.59584" lon="0.67996">
        <ele>155</ele>
        <time>2012-02-19T09:53:04Z</time>
      </trkpt>
      <trkpt lat="44.59587" lon="0.67994">
        <ele>155</ele>
        <time>2012-02-19T09:53:05Z</time>
      </trkpt>
      <trkpt lat="44.59591" lon="0.67992">
        <ele>155</ele>
        <time>2012-02-19T09:53:06Z</time>
      </trkpt>
      <trkpt lat="44.59595" lon="0.67991">
        <ele>156</ele>
        <time>2012-02-19T09:53:07Z</time>
      </trkpt>
      <trkpt lat="44.59598" lon="0.6799">
        <ele>156</ele>
        <time>2012-02-19T09:53:08Z</time>
      </trkpt>
      <trkpt lat="44.59601" lon="0.67989">
        <ele>156</ele>
        <time>2012-02-19T09:53:09Z</time>
      </trkpt>
      <trkpt lat="44.59604" lon="0.67988">
        <ele>156</ele>
        <time>2012-02-19T09:53:10Z</time>
      </trkpt>
      <trkpt lat="44.59607" lon="0.67987">
        <ele>156</ele>
        <time>2012-02-19T09:53:11Z</time>
      </trkpt>
      <trkpt lat="44.59609" lon="0.67986">
        <ele>156</ele>
        <time>2012-02-19T09:53:12Z</time>
      </trkpt>
      <trkpt lat="44.59612" lon="0.67985">
        <ele>156</ele>
        <time>2012-02-19T09:53:13Z</time>
      </trkpt>
      <trkpt lat="44.59615" lon="0.67984">
        <ele>156</ele>
        <time>2012-02-19T09:53:14Z</time>
      </trkpt>
      <trkpt lat="44.59618" lon="0.67983">
        <ele>156</ele>
        <time>2012-02-19T09:53:15Z</time>
      </trkpt>
      <trkpt lat="44.5962" lon="0.67981">
        <ele>156</ele>
        <time>2012-02-19T09:53:16Z</time>
      </trkpt>
      <trkpt lat="44.59623" lon="0.6798">
        <ele>156</ele>
        <time>2012-02-19T09:53:17Z</time>
      </trkpt>
      <trkpt lat="44.59626" lon="0.67979">
        <ele>156</ele>
        <time>2012-02-19T09:53:18Z</time>
      </trkpt>
      <trkpt lat="44.59629" lon="0.67977">
        <ele>156</ele>
        <time>2012-02-19T09:53:19Z</time>
      </trkpt>
      <trkpt lat="44.59632" lon="0.67977">
        <ele>156</ele>
        <time>2012-02-19T09:53:20Z</time>
      </trkpt>
      <trkpt lat="44.59636" lon="0.67976">
        <ele>156</ele>
        <time>2012-02-19T09:53:21Z</time>
      </trkpt>
      <trkpt lat="44.59639" lon="0.67975">
        <ele>156</ele>
        <time>2012-02-19T09:53:22Z</time>
      </trkpt>
      <trkpt lat="44.59642" lon="0.67975">
        <ele>156</ele>
        <time>2012-02-19T09:53:23Z</time>
      </trkpt>
      <trkpt lat="44.59645" lon="0.67974">
        <ele>156</ele>
        <time>2012-02-19T09:53:24Z</time>
      </trkpt>
      <trkpt lat="44.59649" lon="0.67974">
        <ele>156</ele>
        <time>2012-02-19T09:53:25Z</time>
      </trkpt>
      <trkpt lat="44.59652" lon="0.67973">
        <ele>156</ele>
        <time>2012-02-19T09:53:26Z</time>
      </trkpt>
      <trkpt lat="44.59655" lon="0.67972">
        <ele>156</ele>
        <time>2012-02-19T09:53:27Z</time>
      </trkpt>
      <trkpt lat="44.59658" lon="0.67971">
        <ele>156</ele>
        <time>2012-02-19T09:53:28Z</time>
      </trkpt>
      <trkpt lat="44.59661" lon="0.67971">
        <ele>156</ele>
        <time>2012-02-19T09:53:29Z</time>
      </trkpt>
      <trkpt lat="44.59665" lon="0.6797">
        <ele>156</ele>
        <time>2012-02-19T09:53:30Z</time>
      </trkpt>
      <trkpt lat="44.59668" lon="0.67968">
        <ele>156</ele>
        <time>2012-02-19T09:53:31Z</time>
      </trkpt>
      <trkpt lat="44.59671" lon="0.67967">
        <ele>156</ele>
        <time>2012-02-19T09:53:32Z</time>
      </trkpt>
      <trkpt lat="44.59674" lon="0.67965">
        <ele>156</ele>
        <time>2012-02-19T09:53:33Z</time>
      </trkpt>
      <trkpt lat="44.59677" lon="0.67963">
        <ele>156</ele>
        <time>2012-02-19T09:53:34Z</time>
      </trkpt>
      <trkpt lat="44.5968" lon="0.67962">
        <ele>156</ele>
        <time>2012-02-19T09:53:35Z</time>
      </trkpt>
      <trkpt lat="44.59682" lon="0.67959">
        <ele>156</ele>
        <time>2012-02-19T09:53:36Z</time>
      </trkpt>
      <trkpt lat="44.59685" lon="0.67957">
        <ele>156</ele>
        <time>2012-02-19T09:53:37Z</time>
      </trkpt>
      <trkpt lat="44.59687" lon="0.67955">
        <ele>156</ele>
        <time>2012-02-19T09:53:38Z</time>
      </trkpt>
      <trkpt lat="44.5969" lon="0.67952">
        <ele>156</ele>
        <time>2012-02-19T09:53:39Z</time>
      </trkpt>
      <trkpt lat="44.59692" lon="0.67949">
        <ele>156</ele>
        <time>2012-02-19T09:53:40Z</time>
      </trkpt>
      <trkpt lat="44.59694" lon="0.67945">
        <ele>156</ele>
        <time>2012-02-19T09:53:41Z</time>
      </trkpt>
      <trkpt lat="44.59696" lon="0.67942">
        <ele>156</ele>
        <time>2012-02-19T09:53:42Z</time>
      </trkpt>
      <trkpt lat="44.59698" lon="0.67939">
        <ele>156</ele>
        <time>2012-02-19T09:53:43Z</time>
      </trkpt>
      <trkpt lat="44.597" lon="0.67935">
        <ele>156</ele>
        <time>2012-02-19T09:53:44Z</time>
      </trkpt>
      <trkpt lat="44.59701" lon="0.67932">
        <ele>156</ele>
        <time>2012-02-19T09:53:45Z</time>
      </trkpt>
      <trkpt lat="44.59703" lon="0.67929">
        <ele>157</ele>
        <time>2012-02-19T09:53:46Z</time>
      </trkpt>
      <trkpt lat="44.59705" lon="0.67927">
        <ele>157</ele>
        <time>2012-02-19T09:53:47Z</time>
      </trkpt>
      <trkpt lat="44.59706" lon="0.67923">
        <ele>157</ele>
        <time>2012-02-19T09:53:48Z</time>
      </trkpt>
      <trkpt lat="44.59707" lon="0.67919">
        <ele>157</ele>
        <time>2012-02-19T09:53:49Z</time>
      </trkpt>
      <trkpt lat="44.59708" lon="0.67915">
        <ele>158</ele>
        <time>2012-02-19T09:53:50Z</time>
      </trkpt>
      <trkpt lat="44.59708" lon="0.67911">
        <ele>158</ele>
        <time>2012-02-19T09:53:51Z</time>
      </trkpt>
      <trkpt lat="44.59709" lon="0.67907">
        <ele>158</ele>
        <time>2012-02-19T09:53:52Z</time>
      </trkpt>
      <trkpt lat="44.59709" lon="0.67902">
        <ele>159</ele>
        <time>2012-02-19T09:53:53Z</time>
      </trkpt>
      <trkpt lat="44.59708" lon="0.67898">
        <ele>159</ele>
        <time>2012-02-19T09:53:54Z</time>
      </trkpt>
      <trkpt lat="44.59708" lon="0.67895">
        <ele>159</ele>
        <time>2012-02-19T09:53:55Z</time>
      </trkpt>
      <trkpt lat="44.59707" lon="0.6789">
        <ele>160</ele>
        <time>2012-02-19T09:53:56Z</time>
      </trkpt>
      <trkpt lat="44.59706" lon="0.67886">
        <ele>160</ele>
        <time>2012-02-19T09:53:57Z</time>
      </trkpt>
      <trkpt lat="44.59706" lon="0.67882">
        <ele>160</ele>
        <time>2012-02-19T09:53:58Z</time>
      </trkpt>
      <trkpt lat="44.59705" lon="0.67878">
        <ele>161</ele>
        <time>2012-02-19T09:53:59Z</time>
      </trkpt>
      <trkpt lat="44.59703" lon="0.67873">
        <ele>161</ele>
        <time>2012-02-19T09:54:00Z</time>
      </trkpt>
      <trkpt lat="44.59703" lon="0.67869">
        <ele>161</ele>
        <time>2012-02-19T09:54:01Z</time>
      </trkpt>
      <trkpt lat="44.59701" lon="0.67865">
        <ele>161</ele>
        <time>2012-02-19T09:54:02Z</time>
      </trkpt>
      <trkpt lat="44.597" lon="0.67861">
        <ele>161</ele>
        <time>2012-02-19T09:54:03Z</time>
      </trkpt>
      <trkpt lat="44.59699" lon="0.67857">
        <ele>161</ele>
        <time>2012-02-19T09:54:04Z</time>
      </trkpt>
      <trkpt lat="44.59697" lon="0.67852">
        <ele>161</ele>
        <time>2012-02-19T09:54:05Z</time>
      </trkpt>
      <trkpt lat="44.59696" lon="0.67848">
        <ele>161</ele>
        <time>2012-02-19T09:54:06Z</time>
      </trkpt>
      <trkpt lat="44.59695" lon="0.67844">
        <ele>161</ele>
        <time>2012-02-19T09:54:07Z</time>
      </trkpt>
      <trkpt lat="44.59694" lon="0.67841">
        <ele>161</ele>
        <time>2012-02-19T09:54:08Z</time>
      </trkpt>
      <trkpt lat="44.59693" lon="0.67836">
        <ele>161</ele>
        <time>2012-02-19T09:54:09Z</time>
      </trkpt>
      <trkpt lat="44.59692" lon="0.67832">
        <ele>161</ele>
        <time>2012-02-19T09:54:10Z</time>
      </trkpt>
      <trkpt lat="44.59691" lon="0.67828">
        <ele>161</ele>
        <time>2012-02-19T09:54:11Z</time>
      </trkpt>
      <trkpt lat="44.5969" lon="0.67823">
        <ele>161</ele>
        <time>2012-02-19T09:54:12Z</time>
      </trkpt>
      <trkpt lat="44.5969" lon="0.67819">
        <ele>161</ele>
        <time>2012-02-19T09:54:13Z</time>
      </trkpt>
      <trkpt lat="44.59689" lon="0.67815">
        <ele>161</ele>
        <time>2012-02-19T09:54:14Z</time>
      </trkpt>
      <trkpt lat="44.59689" lon="0.6781">
        <ele>161</ele>
        <time>2012-02-19T09:54:15Z</time>
      </trkpt>
      <trkpt lat="44.59689" lon="0.67806">
        <ele>161</ele>
        <time>2012-02-19T09:54:16Z</time>
      </trkpt>
      <trkpt lat="44.59688" lon="0.67801">
        <ele>161</ele>
        <time>2012-02-19T09:54:17Z</time>
      </trkpt>
      <trkpt lat="44.59688" lon="0.67797">
        <ele>161</ele>
        <time>2012-02-19T09:54:18Z</time>
      </trkpt>
      <trkpt lat="44.59688" lon="0.67792">
        <ele>161</ele>
        <time>2012-02-19T09:54:19Z</time>
      </trkpt>
      <trkpt lat="44.59689" lon="0.67788">
        <ele>162</ele>
        <time>2012-02-19T09:54:20Z</time>
      </trkpt>
      <trkpt lat="44.59689" lon="0.67785">
        <ele>162</ele>
        <time>2012-02-19T09:54:21Z</time>
      </trkpt>
      <trkpt lat="44.5969" lon="0.6778">
        <ele>163</ele>
        <time>2012-02-19T09:54:22Z</time>
      </trkpt>
      <trkpt lat="44.59691" lon="0.67776">
        <ele>164</ele>
        <time>2012-02-19T09:54:23Z</time>
      </trkpt>
      <trkpt lat="44.59692" lon="0.67771">
        <ele>164</ele>
        <time>2012-02-19T09:54:24Z</time>
      </trkpt>
      <trkpt lat="44.59693" lon="0.67767">
        <ele>164</ele>
        <time>2012-02-19T09:54:25Z</time>
      </trkpt>
      <trkpt lat="44.59694" lon="0.67763">
        <ele>165</ele>
        <time>2012-02-19T09:54:26Z</time>
      </trkpt>
      <trkpt lat="44.59695" lon="0.67758">
        <ele>165</ele>
        <time>2012-02-19T09:54:27Z</time>
      </trkpt>
      <trkpt lat="44.59697" lon="0.67754">
        <ele>165</ele>
        <time>2012-02-19T09:54:28Z</time>
      </trkpt>
      <trkpt lat="44.59698" lon="0.6775">
        <ele>165</ele>
        <time>2012-02-19T09:54:29Z</time>
      </trkpt>
      <trkpt lat="44.597" lon="0.67746">
        <ele>166</ele>
        <time>2012-02-19T09:54:30Z</time>
      </trkpt>
      <trkpt lat="44.59701" lon="0.67742">
        <ele>166</ele>
        <time>2012-02-19T09:54:31Z</time>
      </trkpt>
      <trkpt lat="44.59703" lon="0.67738">
        <ele>166</ele>
        <time>2012-02-19T09:54:32Z</time>
      </trkpt>
      <trkpt lat="44.59704" lon="0.67734">
        <ele>167</ele>
        <time>2012-02-19T09:54:33Z</time>
      </trkpt>
      <trkpt lat="44.59706" lon="0.6773">
        <ele>167</ele>
        <time>2012-02-19T09:54:34Z</time>
      </trkpt>
      <trkpt lat="44.59708" lon="0.67726">
        <ele>167</ele>
        <time>2012-02-19T09:54:35Z</time>
      </trkpt>
      <trkpt lat="44.5971" lon="0.67722">
        <ele>167</ele>
        <time>2012-02-19T09:54:36Z</time>
      </trkpt>
      <trkpt lat="44.59712" lon="0.67718">
        <ele>168</ele>
        <time>2012-02-19T09:54:37Z</time>
      </trkpt>
      <trkpt lat="44.59714" lon="0.67715">
        <ele>168</ele>
        <time>2012-02-19T09:54:38Z</time>
      </trkpt>
      <trkpt lat="44.59716" lon="0.67711">
        <ele>168</ele>
        <time>2012-02-19T09:54:39Z</time>
      </trkpt>
      <trkpt lat="44.59718" lon="0.67707">
        <ele>168</ele>
        <time>2012-02-19T09:54:40Z</time>
      </trkpt>
      <trkpt lat="44.59721" lon="0.67702">
        <ele>169</ele>
        <time>2012-02-19T09:54:41Z</time>
      </trkpt>
      <trkpt lat="44.59723" lon="0.67699">
        <ele>169</ele>
        <time>2012-02-19T09:54:42Z</time>
      </trkpt>
      <trkpt lat="44.59726" lon="0.67694">
        <ele>169</ele>
        <time>2012-02-19T09:54:43Z</time>
      </trkpt>
      <trkpt lat="44.59728" lon="0.6769">
        <ele>169</ele>
        <time>2012-02-19T09:54:44Z</time>
      </trkpt>
      <trkpt lat="44.5973" lon="0.67686">
        <ele>169</ele>
        <time>2012-02-19T09:54:45Z</time>
      </trkpt>
      <trkpt lat="44.59733" lon="0.67682">
        <ele>169</ele>
        <time>2012-02-19T09:54:46Z</time>
      </trkpt>
      <trkpt lat="44.59735" lon="0.67677">
        <ele>169</ele>
        <time>2012-02-19T09:54:47Z</time>
      </trkpt>
      <trkpt lat="44.59737" lon="0.67673">
        <ele>169</ele>
        <time>2012-02-19T09:54:48Z</time>
      </trkpt>
      <trkpt lat="44.5974" lon="0.67669">
        <ele>169</ele>
        <time>2012-02-19T09:54:49Z</time>
      </trkpt>
      <trkpt lat="44.59742" lon="0.67665">
        <ele>169</ele>
        <time>2012-02-19T09:54:50Z</time>
      </trkpt>
      <trkpt lat="44.59744" lon="0.6766">
        <ele>169</ele>
        <time>2012-02-19T09:54:51Z</time>
      </trkpt>
      <trkpt lat="44.59747" lon="0.67655">
        <ele>169</ele>
        <time>2012-02-19T09:54:52Z</time>
      </trkpt>
      <trkpt lat="44.59749" lon="0.67651">
        <ele>169</ele>
        <time>2012-02-19T09:54:53Z</time>
      </trkpt>
      <trkpt lat="44.59752" lon="0.67646">
        <ele>169</ele>
        <time>2012-02-19T09:54:54Z</time>
      </trkpt>
      <trkpt lat="44.59754" lon="0.67642">
        <ele>169</ele>
        <time>2012-02-19T09:54:55Z</time>
      </trkpt>
      <trkpt lat="44.59757" lon="0.67637">
        <ele>169</ele>
        <time>2012-02-19T09:54:56Z</time>
      </trkpt>
      <trkpt lat="44.59759" lon="0.67632">
        <ele>169</ele>
        <time>2012-02-19T09:54:57Z</time>
      </trkpt>
      <trkpt lat="44.59761" lon="0.67627">
        <ele>169</ele>
        <time>2012-02-19T09:54:58Z</time>
      </trkpt>
      <trkpt lat="44.59764" lon="0.67622">
        <ele>169</ele>
        <time>2012-02-19T09:54:59Z</time>
      </trkpt>
      <trkpt lat="44.59767" lon="0.67617">
        <ele>169</ele>
        <time>2012-02-19T09:55:00Z</time>
      </trkpt>
      <trkpt lat="44.5977" lon="0.67612">
        <ele>169</ele>
        <time>2012-02-19T09:55:01Z</time>
      </trkpt>
      <trkpt lat="44.59773" lon="0.67607">
        <ele>169</ele>
        <time>2012-02-19T09:55:02Z</time>
      </trkpt>
      <trkpt lat="44.59776" lon="0.67602">
        <ele>169</ele>
        <time>2012-02-19T09:55:03Z</time>
      </trkpt>
      <trkpt lat="44.59779" lon="0.67596">
        <ele>169</ele>
        <time>2012-02-19T09:55:04Z</time>
      </trkpt>
      <trkpt lat="44.59781" lon="0.6759">
        <ele>169</ele>
        <time>2012-02-19T09:55:05Z</time>
      </trkpt>
      <trkpt lat="44.59784" lon="0.67584">
        <ele>169</ele>
        <time>2012-02-19T09:55:06Z</time>
      </trkpt>
      <trkpt lat="44.59787" lon="0.67579">
        <ele>169</ele>
        <time>2012-02-19T09:55:07Z</time>
      </trkpt>
      <trkpt lat="44.59791" lon="0.67573">
        <ele>169</ele>
        <time>2012-02-19T09:55:08Z</time>
      </trkpt>
      <trkpt lat="44.59794" lon="0.67567">
        <ele>169</ele>
        <time>2012-02-19T09:55:09Z</time>
      </trkpt>
      <trkpt lat="44.59797" lon="0.6756">
        <ele>169</ele>
        <time>2012-02-19T09:55:10Z</time>
      </trkpt>
      <trkpt lat="44.59801" lon="0.67554">
        <ele>169</ele>
        <time>2012-02-19T09:55:11Z</time>
      </trkpt>
      <trkpt lat="44.59805" lon="0.67548">
        <ele>169</ele>
        <time>2012-02-19T09:55:12Z</time>
      </trkpt>
      <trkpt lat="44.59808" lon="0.67541">
        <ele>169</ele>
        <time>2012-02-19T09:55:13Z</time>
      </trkpt>
      <trkpt lat="44.59811" lon="0.67535">
        <ele>169</ele>
        <time>2012-02-19T09:55:14Z</time>
      </trkpt>
      <trkpt lat="44.59815" lon="0.67528">
        <ele>169</ele>
        <time>2012-02-19T09:55:15Z</time>
      </trkpt>
      <trkpt lat="44.59819" lon="0.67522">
        <ele>169</ele>
        <time>2012-02-19T09:55:16Z</time>
      </trkpt>
      <trkpt lat="44.59822" lon="0.67515">
        <ele>169</ele>
        <time>2012-02-19T09:55:17Z</time>
      </trkpt>
      <trkpt lat="44.59826" lon="0.67507">
        <ele>169</ele>
        <time>2012-02-19T09:55:18Z</time>
      </trkpt>
      <trkpt lat="44.5983" lon="0.67501">
        <ele>169</ele>
        <time>2012-02-19T09:55:19Z</time>
      </trkpt>
      <trkpt lat="44.59834" lon="0.67494">
        <ele>169</ele>
        <time>2012-02-19T09:55:20Z</time>
      </trkpt>
      <trkpt lat="44.59838" lon="0.67487">
        <ele>169</ele>
        <time>2012-02-19T09:55:21Z</time>
      </trkpt>
      <trkpt lat="44.59841" lon="0.6748">
        <ele>169</ele>
        <time>2012-02-19T09:55:22Z</time>
      </trkpt>
      <trkpt lat="44.59845" lon="0.67472">
        <ele>169</ele>
        <time>2012-02-19T09:55:23Z</time>
      </trkpt>
      <trkpt lat="44.59849" lon="0.67465">
        <ele>169</ele>
        <time>2012-02-19T09:55:24Z</time>
      </trkpt>
      <trkpt lat="44.59853" lon="0.67458">
        <ele>169</ele>
        <time>2012-02-19T09:55:25Z</time>
      </trkpt>
      <trkpt lat="44.59858" lon="0.67451">
        <ele>169</ele>
        <time>2012-02-19T09:55:26Z</time>
      </trkpt>
      <trkpt lat="44.59862" lon="0.67444">
        <ele>169</ele>
        <time>2012-02-19T09:55:27Z</time>
      </trkpt>
      <trkpt lat="44.59866" lon="0.67436">
        <ele>169</ele>
        <time>2012-02-19T09:55:28Z</time>
      </trkpt>
      <trkpt lat="44.5987" lon="0.67429">
        <ele>169</ele>
        <time>2012-02-19T09:55:29Z</time>
      </trkpt>
      <trkpt lat="44.59874" lon="0.67421">
        <ele>169</ele>
        <time>2012-02-19T09:55:30Z</time>
      </trkpt>
      <trkpt lat="44.59878" lon="0.67414">
        <ele>169</ele>
        <time>2012-02-19T09:55:31Z</time>
      </trkpt>
      <trkpt lat="44.59882" lon="0.67406">
        <ele>169</ele>
        <time>2012-02-19T09:55:32Z</time>
      </trkpt>
      <trkpt lat="44.59887" lon="0.67398">
        <ele>168</ele>
        <time>2012-02-19T09:55:33Z</time>
      </trkpt>
      <trkpt lat="44.59891" lon="0.6739">
        <ele>168</ele>
        <time>2012-02-19T09:55:34Z</time>
      </trkpt>
      <trkpt lat="44.59895" lon="0.67383">
        <ele>168</ele>
        <time>2012-02-19T09:55:35Z</time>
      </trkpt>
      <trkpt lat="44.59899" lon="0.67375">
        <ele>168</ele>
        <time>2012-02-19T09:55:36Z</time>
      </trkpt>
      <trkpt lat="44.59904" lon="0.67367">
        <ele>168</ele>
        <time>2012-02-19T09:55:37Z</time>
      </trkpt>
      <trkpt lat="44.59908" lon="0.67359">
        <ele>167</ele>
        <time>2012-02-19T09:55:38Z</time>
      </trkpt>
      <trkpt lat="44.59912" lon="0.67351">
        <ele>167</ele>
        <time>2012-02-19T09:55:39Z</time>
      </trkpt>
      <trkpt lat="44.59917" lon="0.67342">
        <ele>167</ele>
        <time>2012-02-19T09:55:40Z</time>
      </trkpt>
      <trkpt lat="44.59922" lon="0.67334">
        <ele>167</ele>
        <time>2012-02-19T09:55:41Z</time>
      </trkpt>
      <trkpt lat="44.59926" lon="0.67325">
        <ele>166</ele>
        <time>2012-02-19T09:55:42Z</time>
      </trkpt>
      <trkpt lat="44.59931" lon="0.67317">
        <ele>166</ele>
        <time>2012-02-19T09:55:43Z</time>
      </trkpt>
      <trkpt lat="44.59935" lon="0.67308">
        <ele>165</ele>
        <time>2012-02-19T09:55:44Z</time>
      </trkpt>
      <trkpt lat="44.5994" lon="0.67299">
        <ele>165</ele>
        <time>2012-02-19T09:55:45Z</time>
      </trkpt>
      <trkpt lat="44.59944" lon="0.67291">
        <ele>165</ele>
        <time>2012-02-19T09:55:46Z</time>
      </trkpt>
      <trkpt lat="44.59949" lon="0.67282">
        <ele>164</ele>
        <time>2012-02-19T09:55:47Z</time>
      </trkpt>
      <trkpt lat="44.59954" lon="0.67274">
        <ele>164</ele>
        <time>2012-02-19T09:55:48Z</time>
      </trkpt>
      <trkpt lat="44.59958" lon="0.67266">
        <ele>163</ele>
        <time>2012-02-19T09:55:49Z</time>
      </trkpt>
      <trkpt lat="44.59962" lon="0.67257">
        <ele>163</ele>
        <time>2012-02-19T09:55:50Z</time>
      </trkpt>
      <trkpt lat="44.59967" lon="0.67249">
        <ele>163</ele>
        <time>2012-02-19T09:55:51Z</time>
      </trkpt>
      <trkpt lat="44.59971" lon="0.67241">
        <ele>162</ele>
        <time>2012-02-19T09:55:52Z</time>
      </trkpt>
      <trkpt lat="44.59976" lon="0.67233">
        <ele>162</ele>
        <time>2012-02-19T09:55:53Z</time>
      </trkpt>
      <trkpt lat="44.5998" lon="0.67225">
        <ele>162</ele>
        <time>2012-02-19T09:55:54Z</time>
      </trkpt>
      <trkpt lat="44.59984" lon="0.67217">
        <ele>162</ele>
        <time>2012-02-19T09:55:55Z</time>
      </trkpt>
      <trkpt lat="44.59988" lon="0.67209">
        <ele>161</ele>
        <time>2012-02-19T09:55:56Z</time>
      </trkpt>
      <trkpt lat="44.59992" lon="0.67202">
        <ele>161</ele>
        <time>2012-02-19T09:55:57Z</time>
      </trkpt>
      <trkpt lat="44.59996" lon="0.67195">
        <ele>161</ele>
        <time>2012-02-19T09:55:58Z</time>
      </trkpt>
      <trkpt lat="44.6" lon="0.67188">
        <ele>160</ele>
        <time>2012-02-19T09:55:59Z</time>
      </trkpt>
      <trkpt lat="44.60004" lon="0.6718">
        <ele>160</ele>
        <time>2012-02-19T09:56:00Z</time>
      </trkpt>
      <trkpt lat="44.60008" lon="0.67172">
        <ele>160</ele>
        <time>2012-02-19T09:56:01Z</time>
      </trkpt>
      <trkpt lat="44.60012" lon="0.67165">
        <ele>159</ele>
        <time>2012-02-19T09:56:02Z</time>
      </trkpt>
      <trkpt lat="44.60015" lon="0.67158">
        <ele>159</ele>
        <time>2012-02-19T09:56:03Z</time>
      </trkpt>
      <trkpt lat="44.60019" lon="0.67151">
        <ele>158</ele>
        <time>2012-02-19T09:56:04Z</time>
      </trkpt>
      <trkpt lat="44.60022" lon="0.67146">
        <ele>158</ele>
        <time>2012-02-19T09:56:05Z</time>
      </trkpt>
      <trkpt lat="44.60026" lon="0.67142">
        <ele>158</ele>
        <time>2012-02-19T09:56:06Z</time>
      </trkpt>
      <trkpt lat="44.60031" lon="0.6714">
        <ele>157</ele>
        <time>2012-02-19T09:56:07Z</time>
      </trkpt>
      <trkpt lat="44.60036" lon="0.67139">
        <ele>157</ele>
        <time>2012-02-19T09:56:08Z</time>
      </trkpt>
      <trkpt lat="44.60041" lon="0.6714">
        <ele>156</ele>
        <time>2012-02-19T09:56:09Z</time>
      </trkpt>
      <trkpt lat="44.60047" lon="0.67142">
        <ele>155</ele>
        <time>2012-02-19T09:56:10Z</time>
      </trkpt>
      <trkpt lat="44.60053" lon="0.67146">
        <ele>155</ele>
        <time>2012-02-19T09:56:11Z</time>
      </trkpt>
      <trkpt lat="44.60059" lon="0.6715">
        <ele>154</ele>
        <time>2012-02-19T09:56:12Z</time>
      </trkpt>
      <trkpt lat="44.60065" lon="0.67153">
        <ele>153</ele>
        <time>2012-02-19T09:56:13Z</time>
      </trkpt>
      <trkpt lat="44.60071" lon="0.67158">
        <ele>152</ele>
        <time>2012-02-19T09:56:14Z</time>
      </trkpt>
      <trkpt lat="44.60077" lon="0.67162">
        <ele>152</ele>
        <time>2012-02-19T09:56:15Z</time>
      </trkpt>
      <trkpt lat="44.60083" lon="0.67166">
        <ele>151</ele>
        <time>2012-02-19T09:56:16Z</time>
      </trkpt>
      <trkpt lat="44.6009" lon="0.67171">
        <ele>151</ele>
        <time>2012-02-19T09:56:17Z</time>
      </trkpt>
      <trkpt lat="44.60097" lon="0.67175">
        <ele>151</ele>
        <time>2012-02-19T09:56:18Z</time>
      </trkpt>
      <trkpt lat="44.60104" lon="0.6718">
        <ele>150</ele>
        <time>2012-02-19T09:56:19Z</time>
      </trkpt>
      <trkpt lat="44.60111" lon="0.67184">
        <ele>150</ele>
        <time>2012-02-19T09:56:20Z</time>
      </trkpt>
      <trkpt lat="44.60118" lon="0.67188">
        <ele>149</ele>
        <time>2012-02-19T09:56:21Z</time>
      </trkpt>
      <trkpt lat="44.60125" lon="0.67192">
        <ele>148</ele>
        <time>2012-02-19T09:56:22Z</time>
      </trkpt>
      <trkpt lat="44.60132" lon="0.67197">
        <ele>148</ele>
        <time>2012-02-19T09:56:23Z</time>
      </trkpt>
      <trkpt lat="44.60139" lon="0.672">
        <ele>148</ele>
        <time>2012-02-19T09:56:24Z</time>
      </trkpt>
      <trkpt lat="44.60146" lon="0.67204">
        <ele>147</ele>
        <time>2012-02-19T09:56:25Z</time>
      </trkpt>
      <trkpt lat="44.60153" lon="0.67207">
        <ele>147</ele>
        <time>2012-02-19T09:56:26Z</time>
      </trkpt>
      <trkpt lat="44.6016" lon="0.6721">
        <ele>147</ele>
        <time>2012-02-19T09:56:27Z</time>
      </trkpt>
      <trkpt lat="44.60167" lon="0.6721">
        <ele>147</ele>
        <time>2012-02-19T09:56:28Z</time>
      </trkpt>
      <trkpt lat="44.60174" lon="0.67208">
        <ele>147</ele>
        <time>2012-02-19T09:56:29Z</time>
      </trkpt>
      <trkpt lat="44.6018" lon="0.67203">
        <ele>147</ele>
        <time>2012-02-19T09:56:30Z</time>
      </trkpt>
      <trkpt lat="44.60185" lon="0.67198">
        <ele>147</ele>
        <time>2012-02-19T09:56:31Z</time>
      </trkpt>
      <trkpt lat="44.60189" lon="0.67192">
        <ele>147</ele>
        <time>2012-02-19T09:56:32Z</time>
      </trkpt>
      <trkpt lat="44.60194" lon="0.67186">
        <ele>147</ele>
        <time>2012-02-19T09:56:33Z</time>
      </trkpt>
      <trkpt lat="44.60198" lon="0.67179">
        <ele>147</ele>
        <time>2012-02-19T09:56:34Z</time>
      </trkpt>
      <trkpt lat="44.60202" lon="0.67173">
        <ele>147</ele>
        <time>2012-02-19T09:56:35Z</time>
      </trkpt>
      <trkpt lat="44.60207" lon="0.67167">
        <ele>147</ele>
        <time>2012-02-19T09:56:36Z</time>
      </trkpt>
      <trkpt lat="44.60212" lon="0.67162">
        <ele>147</ele>
        <time>2012-02-19T09:56:37Z</time>
      </trkpt>
      <trkpt lat="44.60217" lon="0.67156">
        <ele>147</ele>
        <time>2012-02-19T09:56:38Z</time>
      </trkpt>
      <trkpt lat="44.60222" lon="0.67152">
        <ele>147</ele>
        <time>2012-02-19T09:56:39Z</time>
      </trkpt>
      <trkpt lat="44.60227" lon="0.67148">
        <ele>147</ele>
        <time>2012-02-19T09:56:40Z</time>
      </trkpt>
      <trkpt lat="44.60232" lon="0.67145">
        <ele>147</ele>
        <time>2012-02-19T09:56:41Z</time>
      </trkpt>
      <trkpt lat="44.60238" lon="0.67143">
        <ele>147</ele>
        <time>2012-02-19T09:56:42Z</time>
      </trkpt>
      <trkpt lat="44.60243" lon="0.67142">
        <ele>147</ele>
        <time>2012-02-19T09:56:43Z</time>
      </trkpt>
      <trkpt lat="44.60249" lon="0.67141">
        <ele>147</ele>
        <time>2012-02-19T09:56:44Z</time>
      </trkpt>
      <trkpt lat="44.60254" lon="0.67142">
        <ele>147</ele>
        <time>2012-02-19T09:56:45Z</time>
      </trkpt>
      <trkpt lat="44.60259" lon="0.67143">
        <ele>147</ele>
        <time>2012-02-19T09:56:46Z</time>
      </trkpt>
      <trkpt lat="44.60264" lon="0.67145">
        <ele>147</ele>
        <time>2012-02-19T09:56:47Z</time>
      </trkpt>
      <trkpt lat="44.60268" lon="0.67148">
        <ele>147</ele>
        <time>2012-02-19T09:56:48Z</time>
      </trkpt>
      <trkpt lat="44.60272" lon="0.67153">
        <ele>147</ele>
        <time>2012-02-19T09:56:49Z</time>
      </trkpt>
      <trkpt lat="44.60276" lon="0.67159">
        <ele>147</ele>
        <time>2012-02-19T09:56:50Z</time>
      </trkpt>
      <trkpt lat="44.60279" lon="0.67165">
        <ele>147</ele>
        <time>2012-02-19T09:56:51Z</time>
      </trkpt>
      <trkpt lat="44.60283" lon="0.67171">
        <ele>147</ele>
        <time>2012-02-19T09:56:52Z</time>
      </trkpt>
      <trkpt lat="44.60286" lon="0.67178">
        <ele>147</ele>
        <time>2012-02-19T09:56:53Z</time>
      </trkpt>
      <trkpt lat="44.6029" lon="0.67185">
        <ele>147</ele>
        <time>2012-02-19T09:56:54Z</time>
      </trkpt>
      <trkpt lat="44.60293" lon="0.67193">
        <ele>147</ele>
        <time>2012-02-19T09:56:55Z</time>
      </trkpt>
      <trkpt lat="44.60295" lon="0.672">
        <ele>147</ele>
        <time>2012-02-19T09:56:56Z</time>
      </trkpt>
      <trkpt lat="44.60299" lon="0.67208">
        <ele>147</ele>
        <time>2012-02-19T09:56:57Z</time>
      </trkpt>
      <trkpt lat="44.60302" lon="0.67216">
        <ele>147</ele>
        <time>2012-02-19T09:56:58Z</time>
      </trkpt>
      <trkpt lat="44.60304" lon="0.67224">
        <ele>147</ele>
        <time>2012-02-19T09:56:59Z</time>
      </trkpt>
      <trkpt lat="44.60308" lon="0.67231">
        <ele>147</ele>
        <time>2012-02-19T09:57:00Z</time>
      </trkpt>
      <trkpt lat="44.60311" lon="0.67239">
        <ele>147</ele>
        <time>2012-02-19T09:57:01Z</time>
      </trkpt>
      <trkpt lat="44.60314" lon="0.67247">
        <ele>147</ele>
        <time>2012-02-19T09:57:02Z</time>
      </trkpt>
      <trkpt lat="44.60318" lon="0.67254">
        <ele>147</ele>
        <time>2012-02-19T09:57:03Z</time>
      </trkpt>
      <trkpt lat="44.60321" lon="0.67262">
        <ele>147</ele>
        <time>2012-02-19T09:57:04Z</time>
      </trkpt>
      <trkpt lat="44.60324" lon="0.67269">
        <ele>147</ele>
        <time>2012-02-19T09:57:05Z</time>
      </trkpt>
      <trkpt lat="44.60327" lon="0.67277">
        <ele>147</ele>
        <time>2012-02-19T09:57:06Z</time>
      </trkpt>
      <trkpt lat="44.60331" lon="0.67286">
        <ele>147</ele>
        <time>2012-02-19T09:57:07Z</time>
      </trkpt>
      <trkpt lat="44.60334" lon="0.67294">
        <ele>147</ele>
        <time>2012-02-19T09:57:08Z</time>
      </trkpt>
      <trkpt lat="44.60337" lon="0.67303">
        <ele>147</ele>
        <time>2012-02-19T09:57:09Z</time>
      </trkpt>
      <trkpt lat="44.60341" lon="0.67311">
        <ele>147</ele>
        <time>2012-02-19T09:57:10Z</time>
      </trkpt>
      <trkpt lat="44.60344" lon="0.6732">
        <ele>147</ele>
        <time>2012-02-19T09:57:11Z</time>
      </trkpt>
      <trkpt lat="44.60348" lon="0.67328">
        <ele>147</ele>
        <time>2012-02-19T09:57:12Z</time>
      </trkpt>
      <trkpt lat="44.60352" lon="0.67336">
        <ele>147</ele>
        <time>2012-02-19T09:57:13Z</time>
      </trkpt>
      <trkpt lat="44.60355" lon="0.67345">
        <ele>147</ele>
        <time>2012-02-19T09:57:14Z</time>
      </trkpt>
      <trkpt lat="44.60359" lon="0.67353">
        <ele>147</ele>
        <time>2012-02-19T09:57:15Z</time>
      </trkpt>
      <trkpt lat="44.60362" lon="0.67362">
        <ele>147</ele>
        <time>2012-02-19T09:57:16Z</time>
      </trkpt>
      <trkpt lat="44.60365" lon="0.6737">
        <ele>147</ele>
        <time>2012-02-19T09:57:17Z</time>
      </trkpt>
      <trkpt lat="44.60369" lon="0.67377">
        <ele>147</ele>
        <time>2012-02-19T09:57:18Z</time>
      </trkpt>
      <trkpt lat="44.60373" lon="0.67385">
        <ele>147</ele>
        <time>2012-02-19T09:57:19Z</time>
      </trkpt>
      <trkpt lat="44.60376" lon="0.67392">
        <ele>147</ele>
        <time>2012-02-19T09:57:20Z</time>
      </trkpt>
      <trkpt lat="44.60381" lon="0.67399">
        <ele>147</ele>
        <time>2012-02-19T09:57:21Z</time>
      </trkpt>
      <trkpt lat="44.60385" lon="0.67406">
        <ele>147</ele>
        <time>2012-02-19T09:57:22Z</time>
      </trkpt>
      <trkpt lat="44.60389" lon="0.67412">
        <ele>147</ele>
        <time>2012-02-19T09:57:23Z</time>
      </trkpt>
      <trkpt lat="44.60394" lon="0.67417">
        <ele>147</ele>
        <time>2012-02-19T09:57:24Z</time>
      </trkpt>
      <trkpt lat="44.60399" lon="0.67422">
        <ele>147</ele>
        <time>2012-02-19T09:57:25Z</time>
      </trkpt>
      <trkpt lat="44.60404" lon="0.67426">
        <ele>147</ele>
        <time>2012-02-19T09:57:26Z</time>
      </trkpt>
      <trkpt lat="44.60409" lon="0.6743">
        <ele>147</ele>
        <time>2012-02-19T09:57:27Z</time>
      </trkpt>
      <trkpt lat="44.60414" lon="0.67434">
        <ele>147</ele>
        <time>2012-02-19T09:57:28Z</time>
      </trkpt>
      <trkpt lat="44.60419" lon="0.67437">
        <ele>147</ele>
        <time>2012-02-19T09:57:29Z</time>
      </trkpt>
      <trkpt lat="44.60425" lon="0.67441">
        <ele>147</ele>
        <time>2012-02-19T09:57:30Z</time>
      </trkpt>
      <trkpt lat="44.6043" lon="0.67443">
        <ele>147</ele>
        <time>2012-02-19T09:57:31Z</time>
      </trkpt>
      <trkpt lat="44.60435" lon="0.67446">
        <ele>147</ele>
        <time>2012-02-19T09:57:32Z</time>
      </trkpt>
      <trkpt lat="44.6044" lon="0.67449">
        <ele>147</ele>
        <time>2012-02-19T09:57:33Z</time>
      </trkpt>
      <trkpt lat="44.60445" lon="0.67451">
        <ele>147</ele>
        <time>2012-02-19T09:57:34Z</time>
      </trkpt>
      <trkpt lat="44.60449" lon="0.67453">
        <ele>147</ele>
        <time>2012-02-19T09:57:35Z</time>
      </trkpt>
      <trkpt lat="44.60454" lon="0.67455">
        <ele>147</ele>
        <time>2012-02-19T09:57:36Z</time>
      </trkpt>
      <trkpt lat="44.60458" lon="0.67458">
        <ele>147</ele>
        <time>2012-02-19T09:57:37Z</time>
      </trkpt>
      <trkpt lat="44.60463" lon="0.6746">
        <ele>147</ele>
        <time>2012-02-19T09:57:38Z</time>
      </trkpt>
      <trkpt lat="44.60467" lon="0.67463">
        <ele>147</ele>
        <time>2012-02-19T09:57:39Z</time>
      </trkpt>
      <trkpt lat="44.60472" lon="0.67465">
        <ele>147</ele>
        <time>2012-02-19T09:57:40Z</time>
      </trkpt>
      <trkpt lat="44.60477" lon="0.67467">
        <ele>147</ele>
        <time>2012-02-19T09:57:41Z</time>
      </trkpt>
      <trkpt lat="44.60482" lon="0.67469">
        <ele>147</ele>
        <time>2012-02-19T09:57:42Z</time>
      </trkpt>
      <trkpt lat="44.60487" lon="0.67471">
        <ele>148</ele>
        <time>2012-02-19T09:57:43Z</time>
      </trkpt>
      <trkpt lat="44.60493" lon="0.67472">
        <ele>148</ele>
        <time>2012-02-19T09:57:44Z</time>
      </trkpt>
      <trkpt lat="44.60498" lon="0.67473">
        <ele>148</ele>
        <time>2012-02-19T09:57:45Z</time>
      </trkpt>
      <trkpt lat="44.60504" lon="0.67474">
        <ele>149</ele>
        <time>2012-02-19T09:57:46Z</time>
      </trkpt>
      <trkpt lat="44.60509" lon="0.67475">
        <ele>149</ele>
        <time>2012-02-19T09:57:47Z</time>
      </trkpt>
      <trkpt lat="44.60515" lon="0.67476">
        <ele>149</ele>
        <time>2012-02-19T09:57:48Z</time>
      </trkpt>
      <trkpt lat="44.60521" lon="0.67477">
        <ele>149</ele>
        <time>2012-02-19T09:57:49Z</time>
      </trkpt>
      <trkpt lat="44.60527" lon="0.67477">
        <ele>149</ele>
        <time>2012-02-19T09:57:50Z</time>
      </trkpt>
      <trkpt lat="44.60533" lon="0.67477">
        <ele>149</ele>
        <time>2012-02-19T09:57:51Z</time>
      </trkpt>
      <trkpt lat="44.60539" lon="0.67478">
        <ele>149</ele>
        <time>2012-02-19T09:57:52Z</time>
      </trkpt>
      <trkpt lat="44.60545" lon="0.67478">
        <ele>149</ele>
        <time>2012-02-19T09:57:53Z</time>
      </trkpt>
      <trkpt lat="44.60551" lon="0.67477">
        <ele>149</ele>
        <time>2012-02-19T09:57:54Z</time>
      </trkpt>
      <trkpt lat="44.60557" lon="0.67477">
        <ele>150</ele>
        <time>2012-02-19T09:57:55Z</time>
      </trkpt>
      <trkpt lat="44.60563" lon="0.67477">
        <ele>150</ele>
        <time>2012-02-19T09:57:56Z</time>
      </trkpt>
      <trkpt lat="44.60569" lon="0.67476">
        <ele>150</ele>
        <time>2012-02-19T09:57:57Z</time>
      </trkpt>
      <trkpt lat="44.60575" lon="0.67476">
        <ele>150</ele>
        <time>2012-02-19T09:57:58Z</time>
      </trkpt>
      <trkpt lat="44.60581" lon="0.67476">
        <ele>150</ele>
        <time>2012-02-19T09:57:59Z</time>
      </trkpt>
      <trkpt lat="44.60587" lon="0.67475">
        <ele>150</ele>
        <time>2012-02-19T09:58:00Z</time>
      </trkpt>
      <trkpt lat="44.60593" lon="0.67475">
        <ele>150</ele>
        <time>2012-02-19T09:58:01Z</time>
      </trkpt>
      <trkpt lat="44.60599" lon="0.67475">
        <ele>150</ele>
        <time>2012-02-19T09:58:02Z</time>
      </trkpt>
      <trkpt lat="44.60605" lon="0.67475">
        <ele>150</ele>
        <time>2012-02-19T09:58:03Z</time>
      </trkpt>
      <trkpt lat="44.6061" lon="0.67474">
        <ele>150</ele>
        <time>2012-02-19T09:58:04Z</time>
      </trkpt>
      <trkpt lat="44.60616" lon="0.67473">
        <ele>150</ele>
        <time>2012-02-19T09:58:05Z</time>
      </trkpt>
      <trkpt lat="44.60622" lon="0.67472">
        <ele>150</ele>
        <time>2012-02-19T09:58:06Z</time>
      </trkpt>
      <trkpt lat="44.60627" lon="0.67472">
        <ele>150</ele>
        <time>2012-02-19T09:58:07Z</time>
      </trkpt>
      <trkpt lat="44.60633" lon="0.67471">
        <ele>150</ele>
        <time>2012-02-19T09:58:08Z</time>
      </trkpt>
      <trkpt lat="44.60638" lon="0.67471">
        <ele>150</ele>
        <time>2012-02-19T09:58:09Z</time>
      </trkpt>
      <trkpt lat="44.60644" lon="0.6747">
        <ele>150</ele>
        <time>2012-02-19T09:58:10Z</time>
      </trkpt>
      <trkpt lat="44.6065" lon="0.6747">
        <ele>150</ele>
        <time>2012-02-19T09:58:11Z</time>
      </trkpt>
      <trkpt lat="44.60655" lon="0.67469">
        <ele>150</ele>
        <time>2012-02-19T09:58:12Z</time>
      </trkpt>
      <trkpt lat="44.60661" lon="0.67469">
        <ele>150</ele>
        <time>2012-02-19T09:58:13Z</time>
      </trkpt>
      <trkpt lat="44.60666" lon="0.67468">
        <ele>150</ele>
        <time>2012-02-19T09:58:14Z</time>
      </trkpt>
      <trkpt lat="44.60671" lon="0.67468">
        <ele>150</ele>
        <time>2012-02-19T09:58:15Z</time>
      </trkpt>
      <trkpt lat="44.60676" lon="0.67467">
        <ele>150</ele>
        <time>2012-02-19T09:58:16Z</time>
      </trkpt>
      <trkpt lat="44.6068" lon="0.67466">
        <ele>150</ele>
        <time>2012-02-19T09:58:17Z</time>
      </trkpt>
      <trkpt lat="44.60685" lon="0.67466">
        <ele>150</ele>
        <time>2012-02-19T09:58:18Z</time>
      </trkpt>
      <trkpt lat="44.60688" lon="0.67465">
        <ele>150</ele>
        <time>2012-02-19T09:58:19Z</time>
      </trkpt>
      <trkpt lat="44.60692" lon="0.67466">
        <ele>150</ele>
        <time>2012-02-19T09:58:20Z</time>
      </trkpt>
      <trkpt lat="44.60694" lon="0.67469">
        <ele>150</ele>
        <time>2012-02-19T09:58:21Z</time>
      </trkpt>
      <trkpt lat="44.60695" lon="0.67472">
        <ele>150</ele>
        <time>2012-02-19T09:58:22Z</time>
      </trkpt>
      <trkpt lat="44.60695" lon="0.67475">
        <ele>150</ele>
        <time>2012-02-19T09:58:23Z</time>
      </trkpt>
      <trkpt lat="44.60694" lon="0.67478">
        <ele>150</ele>
        <time>2012-02-19T09:58:24Z</time>
      </trkpt>
      <trkpt lat="44.60692" lon="0.67479">
        <ele>150</ele>
        <time>2012-02-19T09:58:25Z</time>
      </trkpt>
      <trkpt lat="44.60691" lon="0.6748">
        <ele>150</ele>
        <time>2012-02-19T09:58:26Z</time>
      </trkpt>
      <trkpt lat="44.60689" lon="0.67481">
        <ele>150</ele>
        <time>2012-02-19T09:58:27Z</time>
      </trkpt>
      <trkpt lat="44.60688" lon="0.67482">
        <ele>150</ele>
        <time>2012-02-19T09:58:28Z</time>
      </trkpt>
      <trkpt lat="44.60687" lon="0.67484">
        <ele>150</ele>
        <time>2012-02-19T09:58:32Z</time>
      </trkpt>
      <trkpt lat="44.60685" lon="0.67484">
        <ele>150</ele>
        <time>2012-02-19T09:58:35Z</time>
      </trkpt>
      <trkpt lat="44.60684" lon="0.67485">
        <ele>150</ele>
        <time>2012-02-19T09:58:44Z</time>
      </trkpt>
      <trkpt lat="44.60685" lon="0.67486">
        <ele>150</ele>
        <time>2012-02-19T09:59:17Z</time>
      </trkpt>
      <trkpt lat="44.60687" lon="0.67486">
        <ele>150</ele>
        <time>2012-02-19T09:59:39Z</time>
      </trkpt>
      <trkpt lat="44.60688" lon="0.67486">
        <ele>150</ele>
        <time>2012-02-19T10:00:26Z</time>
      </trkpt>
      <trkpt lat="44.60687" lon="0.67485">
        <ele>151</ele>
        <time>2012-02-19T10:00:42Z</time>
      </trkpt>
    </trkseg>
  </trk>
</gpx>